<?xml version="1.0" encoding="UTF-8" standalone="no" ?>
<gpx xmlns="http://www.topografix.com/GPX/1/1" xmlns:xsi="http://www.w3.org/2001/XMLSchema-instance" xsi:schemaLocation="http://www.topografix.com/GPX/1/1 http://www.topografix.com/GPX/1/1/gpx.xsd" version="1.1" creator="VisuGPX - https://www.visugpx.com">
  <metadata>
    <name>SO-NE-St Léger St Pazanne Machecoul La Marne St Lumine La Chevrolière Pont St Martin</name>
    <desc><![CDATA[SO-NE-St Léger St Pazanne Machecoul La Marne St Lumine La Chevrolière Pont St Martin]]></desc>
  </metadata>
  <trk>
    <name><![CDATA[2020-12-17 13:15 +01:00]]></name>
    <trkseg>
      <trkpt lat="47.16773" lon="-1.62657">
        <ele>67</ele>
        <time>2020-12-17T12:15:25.000Z</time>
      </trkpt>
      <trkpt lat="47.16779" lon="-1.62647">
        <ele>63</ele>
        <time>2020-12-17T12:17:00.000Z</time>
      </trkpt>
      <trkpt lat="47.16783" lon="-1.62659">
        <ele>65</ele>
        <time>2020-12-17T12:20:02.000Z</time>
      </trkpt>
      <trkpt lat="47.16777" lon="-1.62675">
        <ele>66</ele>
        <time>2020-12-17T12:20:05.000Z</time>
      </trkpt>
      <trkpt lat="47.16768" lon="-1.6268">
        <ele>67</ele>
        <time>2020-12-17T12:20:07.000Z</time>
      </trkpt>
      <trkpt lat="47.16757" lon="-1.62674">
        <ele>65</ele>
        <time>2020-12-17T12:20:09.000Z</time>
      </trkpt>
      <trkpt lat="47.16744" lon="-1.62673">
        <ele>65</ele>
        <time>2020-12-17T12:20:11.000Z</time>
      </trkpt>
      <trkpt lat="47.16734" lon="-1.6268">
        <ele>65</ele>
        <time>2020-12-17T12:20:13.000Z</time>
      </trkpt>
      <trkpt lat="47.16724" lon="-1.62687">
        <ele>65</ele>
        <time>2020-12-17T12:20:15.000Z</time>
      </trkpt>
      <trkpt lat="47.16718" lon="-1.62697">
        <ele>66</ele>
        <time>2020-12-17T12:20:17.000Z</time>
      </trkpt>
      <trkpt lat="47.1672" lon="-1.62712">
        <ele>66</ele>
        <time>2020-12-17T12:20:19.000Z</time>
      </trkpt>
      <trkpt lat="47.16727" lon="-1.62726">
        <ele>67</ele>
        <time>2020-12-17T12:20:21.000Z</time>
      </trkpt>
      <trkpt lat="47.16735" lon="-1.62739">
        <ele>67</ele>
        <time>2020-12-17T12:20:23.000Z</time>
      </trkpt>
      <trkpt lat="47.16744" lon="-1.62752">
        <ele>66</ele>
        <time>2020-12-17T12:20:25.000Z</time>
      </trkpt>
      <trkpt lat="47.16753" lon="-1.62764">
        <ele>66</ele>
        <time>2020-12-17T12:20:27.000Z</time>
      </trkpt>
      <trkpt lat="47.16764" lon="-1.62774">
        <ele>66</ele>
        <time>2020-12-17T12:20:29.000Z</time>
      </trkpt>
      <trkpt lat="47.16776" lon="-1.62785">
        <ele>65</ele>
        <time>2020-12-17T12:20:31.000Z</time>
      </trkpt>
      <trkpt lat="47.16787" lon="-1.62795">
        <ele>65</ele>
        <time>2020-12-17T12:20:33.000Z</time>
      </trkpt>
      <trkpt lat="47.16799" lon="-1.62805">
        <ele>65</ele>
        <time>2020-12-17T12:20:35.000Z</time>
      </trkpt>
      <trkpt lat="47.1681" lon="-1.62816">
        <ele>66</ele>
        <time>2020-12-17T12:20:37.000Z</time>
      </trkpt>
      <trkpt lat="47.1682" lon="-1.62826">
        <ele>66</ele>
        <time>2020-12-17T12:20:39.000Z</time>
      </trkpt>
      <trkpt lat="47.16831" lon="-1.62837">
        <ele>66</ele>
        <time>2020-12-17T12:20:41.000Z</time>
      </trkpt>
      <trkpt lat="47.16842" lon="-1.62847">
        <ele>66</ele>
        <time>2020-12-17T12:20:43.000Z</time>
      </trkpt>
      <trkpt lat="47.16852" lon="-1.62858">
        <ele>66</ele>
        <time>2020-12-17T12:20:45.000Z</time>
      </trkpt>
      <trkpt lat="47.16863" lon="-1.62868">
        <ele>66</ele>
        <time>2020-12-17T12:20:47.000Z</time>
      </trkpt>
      <trkpt lat="47.16873" lon="-1.62879">
        <ele>67</ele>
        <time>2020-12-17T12:20:49.000Z</time>
      </trkpt>
      <trkpt lat="47.1688" lon="-1.62892">
        <ele>67</ele>
        <time>2020-12-17T12:20:51.000Z</time>
      </trkpt>
      <trkpt lat="47.16886" lon="-1.62907">
        <ele>67</ele>
        <time>2020-12-17T12:20:53.000Z</time>
      </trkpt>
      <trkpt lat="47.16891" lon="-1.62924">
        <ele>67</ele>
        <time>2020-12-17T12:20:55.000Z</time>
      </trkpt>
      <trkpt lat="47.16893" lon="-1.62942">
        <ele>68</ele>
        <time>2020-12-17T12:20:57.000Z</time>
      </trkpt>
      <trkpt lat="47.16893" lon="-1.62959">
        <ele>69</ele>
        <time>2020-12-17T12:20:59.000Z</time>
      </trkpt>
      <trkpt lat="47.16893" lon="-1.62977">
        <ele>70</ele>
        <time>2020-12-17T12:21:01.000Z</time>
      </trkpt>
      <trkpt lat="47.16892" lon="-1.62995">
        <ele>70</ele>
        <time>2020-12-17T12:21:03.000Z</time>
      </trkpt>
      <trkpt lat="47.16891" lon="-1.63013">
        <ele>71</ele>
        <time>2020-12-17T12:21:05.000Z</time>
      </trkpt>
      <trkpt lat="47.1689" lon="-1.63032">
        <ele>72</ele>
        <time>2020-12-17T12:21:07.000Z</time>
      </trkpt>
      <trkpt lat="47.16891" lon="-1.63051">
        <ele>72</ele>
        <time>2020-12-17T12:21:09.000Z</time>
      </trkpt>
      <trkpt lat="47.16892" lon="-1.6307">
        <ele>73</ele>
        <time>2020-12-17T12:21:11.000Z</time>
      </trkpt>
      <trkpt lat="47.16895" lon="-1.63088">
        <ele>73</ele>
        <time>2020-12-17T12:21:13.000Z</time>
      </trkpt>
      <trkpt lat="47.16899" lon="-1.63106">
        <ele>74</ele>
        <time>2020-12-17T12:21:15.000Z</time>
      </trkpt>
      <trkpt lat="47.16903" lon="-1.63123">
        <ele>74</ele>
        <time>2020-12-17T12:21:17.000Z</time>
      </trkpt>
      <trkpt lat="47.16908" lon="-1.63139">
        <ele>74</ele>
        <time>2020-12-17T12:21:19.000Z</time>
      </trkpt>
      <trkpt lat="47.16914" lon="-1.63156">
        <ele>74</ele>
        <time>2020-12-17T12:21:21.000Z</time>
      </trkpt>
      <trkpt lat="47.16921" lon="-1.63171">
        <ele>74</ele>
        <time>2020-12-17T12:21:23.000Z</time>
      </trkpt>
      <trkpt lat="47.16928" lon="-1.63186">
        <ele>74</ele>
        <time>2020-12-17T12:21:25.000Z</time>
      </trkpt>
      <trkpt lat="47.16935" lon="-1.63199">
        <ele>74</ele>
        <time>2020-12-17T12:21:27.000Z</time>
      </trkpt>
      <trkpt lat="47.16943" lon="-1.63212">
        <ele>74</ele>
        <time>2020-12-17T12:21:29.000Z</time>
      </trkpt>
      <trkpt lat="47.1695" lon="-1.63224">
        <ele>74</ele>
        <time>2020-12-17T12:21:31.000Z</time>
      </trkpt>
      <trkpt lat="47.16958" lon="-1.63235">
        <ele>73</ele>
        <time>2020-12-17T12:21:33.000Z</time>
      </trkpt>
      <trkpt lat="47.16964" lon="-1.63245">
        <ele>73</ele>
        <time>2020-12-17T12:21:35.000Z</time>
      </trkpt>
      <trkpt lat="47.16971" lon="-1.63258">
        <ele>72</ele>
        <time>2020-12-17T12:21:38.000Z</time>
      </trkpt>
      <trkpt lat="47.16965" lon="-1.6327">
        <ele>72</ele>
        <time>2020-12-17T12:21:40.000Z</time>
      </trkpt>
      <trkpt lat="47.16957" lon="-1.63281">
        <ele>72</ele>
        <time>2020-12-17T12:21:42.000Z</time>
      </trkpt>
      <trkpt lat="47.1695" lon="-1.63294">
        <ele>73</ele>
        <time>2020-12-17T12:21:44.000Z</time>
      </trkpt>
      <trkpt lat="47.16942" lon="-1.63306">
        <ele>74</ele>
        <time>2020-12-17T12:21:46.000Z</time>
      </trkpt>
      <trkpt lat="47.16933" lon="-1.63319">
        <ele>75</ele>
        <time>2020-12-17T12:21:48.000Z</time>
      </trkpt>
      <trkpt lat="47.16924" lon="-1.63331">
        <ele>76</ele>
        <time>2020-12-17T12:21:50.000Z</time>
      </trkpt>
      <trkpt lat="47.16916" lon="-1.63343">
        <ele>76</ele>
        <time>2020-12-17T12:21:52.000Z</time>
      </trkpt>
      <trkpt lat="47.16908" lon="-1.63354">
        <ele>76</ele>
        <time>2020-12-17T12:21:54.000Z</time>
      </trkpt>
      <trkpt lat="47.16899" lon="-1.63367">
        <ele>76</ele>
        <time>2020-12-17T12:21:56.000Z</time>
      </trkpt>
      <trkpt lat="47.16891" lon="-1.6338">
        <ele>76</ele>
        <time>2020-12-17T12:21:58.000Z</time>
      </trkpt>
      <trkpt lat="47.16884" lon="-1.63393">
        <ele>75</ele>
        <time>2020-12-17T12:22:00.000Z</time>
      </trkpt>
      <trkpt lat="47.16876" lon="-1.63406">
        <ele>76</ele>
        <time>2020-12-17T12:22:02.000Z</time>
      </trkpt>
      <trkpt lat="47.16868" lon="-1.63419">
        <ele>76</ele>
        <time>2020-12-17T12:22:04.000Z</time>
      </trkpt>
      <trkpt lat="47.16861" lon="-1.63432">
        <ele>76</ele>
        <time>2020-12-17T12:22:06.000Z</time>
      </trkpt>
      <trkpt lat="47.16854" lon="-1.63445">
        <ele>77</ele>
        <time>2020-12-17T12:22:08.000Z</time>
      </trkpt>
      <trkpt lat="47.16846" lon="-1.63458">
        <ele>77</ele>
        <time>2020-12-17T12:22:10.000Z</time>
      </trkpt>
      <trkpt lat="47.16839" lon="-1.6347">
        <ele>77</ele>
        <time>2020-12-17T12:22:12.000Z</time>
      </trkpt>
      <trkpt lat="47.16832" lon="-1.63482">
        <ele>76</ele>
        <time>2020-12-17T12:22:14.000Z</time>
      </trkpt>
      <trkpt lat="47.16825" lon="-1.63495">
        <ele>76</ele>
        <time>2020-12-17T12:22:16.000Z</time>
      </trkpt>
      <trkpt lat="47.16816" lon="-1.63509">
        <ele>76</ele>
        <time>2020-12-17T12:22:18.000Z</time>
      </trkpt>
      <trkpt lat="47.16808" lon="-1.63522">
        <ele>76</ele>
        <time>2020-12-17T12:22:20.000Z</time>
      </trkpt>
      <trkpt lat="47.168" lon="-1.63536">
        <ele>76</ele>
        <time>2020-12-17T12:22:22.000Z</time>
      </trkpt>
      <trkpt lat="47.16792" lon="-1.63549">
        <ele>76</ele>
        <time>2020-12-17T12:22:24.000Z</time>
      </trkpt>
      <trkpt lat="47.16784" lon="-1.63563">
        <ele>76</ele>
        <time>2020-12-17T12:22:26.000Z</time>
      </trkpt>
      <trkpt lat="47.16776" lon="-1.63576">
        <ele>76</ele>
        <time>2020-12-17T12:22:28.000Z</time>
      </trkpt>
      <trkpt lat="47.16768" lon="-1.63589">
        <ele>76</ele>
        <time>2020-12-17T12:22:30.000Z</time>
      </trkpt>
      <trkpt lat="47.1676" lon="-1.63603">
        <ele>76</ele>
        <time>2020-12-17T12:22:32.000Z</time>
      </trkpt>
      <trkpt lat="47.16753" lon="-1.63615">
        <ele>76</ele>
        <time>2020-12-17T12:22:34.000Z</time>
      </trkpt>
      <trkpt lat="47.16747" lon="-1.63627">
        <ele>76</ele>
        <time>2020-12-17T12:22:36.000Z</time>
      </trkpt>
      <trkpt lat="47.16749" lon="-1.63641">
        <ele>76</ele>
        <time>2020-12-17T12:22:38.000Z</time>
      </trkpt>
      <trkpt lat="47.16758" lon="-1.63651">
        <ele>76</ele>
        <time>2020-12-17T12:22:40.000Z</time>
      </trkpt>
      <trkpt lat="47.1677" lon="-1.63655">
        <ele>75</ele>
        <time>2020-12-17T12:22:42.000Z</time>
      </trkpt>
      <trkpt lat="47.16783" lon="-1.63659">
        <ele>75</ele>
        <time>2020-12-17T12:22:44.000Z</time>
      </trkpt>
      <trkpt lat="47.16796" lon="-1.63664">
        <ele>75</ele>
        <time>2020-12-17T12:22:46.000Z</time>
      </trkpt>
      <trkpt lat="47.16808" lon="-1.63669">
        <ele>74</ele>
        <time>2020-12-17T12:22:48.000Z</time>
      </trkpt>
      <trkpt lat="47.16822" lon="-1.63674">
        <ele>74</ele>
        <time>2020-12-17T12:22:50.000Z</time>
      </trkpt>
      <trkpt lat="47.16835" lon="-1.6368">
        <ele>74</ele>
        <time>2020-12-17T12:22:52.000Z</time>
      </trkpt>
      <trkpt lat="47.16848" lon="-1.63684">
        <ele>74</ele>
        <time>2020-12-17T12:22:54.000Z</time>
      </trkpt>
      <trkpt lat="47.1686" lon="-1.63689">
        <ele>74</ele>
        <time>2020-12-17T12:22:56.000Z</time>
      </trkpt>
      <trkpt lat="47.16873" lon="-1.63695">
        <ele>73</ele>
        <time>2020-12-17T12:22:58.000Z</time>
      </trkpt>
      <trkpt lat="47.16887" lon="-1.637">
        <ele>73</ele>
        <time>2020-12-17T12:23:00.000Z</time>
      </trkpt>
      <trkpt lat="47.169" lon="-1.63704">
        <ele>73</ele>
        <time>2020-12-17T12:23:02.000Z</time>
      </trkpt>
      <trkpt lat="47.16912" lon="-1.63708">
        <ele>73</ele>
        <time>2020-12-17T12:23:04.000Z</time>
      </trkpt>
      <trkpt lat="47.16925" lon="-1.63712">
        <ele>73</ele>
        <time>2020-12-17T12:23:06.000Z</time>
      </trkpt>
      <trkpt lat="47.16938" lon="-1.63717">
        <ele>73</ele>
        <time>2020-12-17T12:23:08.000Z</time>
      </trkpt>
      <trkpt lat="47.16951" lon="-1.63721">
        <ele>73</ele>
        <time>2020-12-17T12:23:10.000Z</time>
      </trkpt>
      <trkpt lat="47.16964" lon="-1.63725">
        <ele>72</ele>
        <time>2020-12-17T12:23:12.000Z</time>
      </trkpt>
      <trkpt lat="47.16977" lon="-1.63729">
        <ele>71</ele>
        <time>2020-12-17T12:23:14.000Z</time>
      </trkpt>
      <trkpt lat="47.1699" lon="-1.63734">
        <ele>71</ele>
        <time>2020-12-17T12:23:16.000Z</time>
      </trkpt>
      <trkpt lat="47.17003" lon="-1.63739">
        <ele>72</ele>
        <time>2020-12-17T12:23:18.000Z</time>
      </trkpt>
      <trkpt lat="47.17016" lon="-1.63744">
        <ele>72</ele>
        <time>2020-12-17T12:23:20.000Z</time>
      </trkpt>
      <trkpt lat="47.1703" lon="-1.63749">
        <ele>71</ele>
        <time>2020-12-17T12:23:22.000Z</time>
      </trkpt>
      <trkpt lat="47.17042" lon="-1.63755">
        <ele>72</ele>
        <time>2020-12-17T12:23:24.000Z</time>
      </trkpt>
      <trkpt lat="47.17054" lon="-1.63766">
        <ele>71</ele>
        <time>2020-12-17T12:23:26.000Z</time>
      </trkpt>
      <trkpt lat="47.17064" lon="-1.63783">
        <ele>71</ele>
        <time>2020-12-17T12:23:28.000Z</time>
      </trkpt>
      <trkpt lat="47.17071" lon="-1.63802">
        <ele>71</ele>
        <time>2020-12-17T12:23:30.000Z</time>
      </trkpt>
      <trkpt lat="47.17078" lon="-1.63821">
        <ele>72</ele>
        <time>2020-12-17T12:23:32.000Z</time>
      </trkpt>
      <trkpt lat="47.17084" lon="-1.63838">
        <ele>72</ele>
        <time>2020-12-17T12:23:34.000Z</time>
      </trkpt>
      <trkpt lat="47.1709" lon="-1.63855">
        <ele>73</ele>
        <time>2020-12-17T12:23:36.000Z</time>
      </trkpt>
      <trkpt lat="47.17096" lon="-1.63873">
        <ele>73</ele>
        <time>2020-12-17T12:23:38.000Z</time>
      </trkpt>
      <trkpt lat="47.17102" lon="-1.63889">
        <ele>74</ele>
        <time>2020-12-17T12:23:40.000Z</time>
      </trkpt>
      <trkpt lat="47.17108" lon="-1.63905">
        <ele>74</ele>
        <time>2020-12-17T12:23:42.000Z</time>
      </trkpt>
      <trkpt lat="47.17114" lon="-1.6392">
        <ele>74</ele>
        <time>2020-12-17T12:23:44.000Z</time>
      </trkpt>
      <trkpt lat="47.17121" lon="-1.63933">
        <ele>74</ele>
        <time>2020-12-17T12:23:46.000Z</time>
      </trkpt>
      <trkpt lat="47.17129" lon="-1.63942">
        <ele>74</ele>
        <time>2020-12-17T12:23:48.000Z</time>
      </trkpt>
      <trkpt lat="47.17138" lon="-1.63953">
        <ele>74</ele>
        <time>2020-12-17T12:23:52.000Z</time>
      </trkpt>
      <trkpt lat="47.1714" lon="-1.63973">
        <ele>74</ele>
        <time>2020-12-17T12:23:55.000Z</time>
      </trkpt>
      <trkpt lat="47.17139" lon="-1.63991">
        <ele>75</ele>
        <time>2020-12-17T12:23:57.000Z</time>
      </trkpt>
      <trkpt lat="47.17138" lon="-1.64009">
        <ele>75</ele>
        <time>2020-12-17T12:23:59.000Z</time>
      </trkpt>
      <trkpt lat="47.17136" lon="-1.64027">
        <ele>75</ele>
        <time>2020-12-17T12:24:01.000Z</time>
      </trkpt>
      <trkpt lat="47.17135" lon="-1.64046">
        <ele>75</ele>
        <time>2020-12-17T12:24:03.000Z</time>
      </trkpt>
      <trkpt lat="47.17133" lon="-1.64064">
        <ele>75</ele>
        <time>2020-12-17T12:24:05.000Z</time>
      </trkpt>
      <trkpt lat="47.17131" lon="-1.64084">
        <ele>75</ele>
        <time>2020-12-17T12:24:07.000Z</time>
      </trkpt>
      <trkpt lat="47.17129" lon="-1.64104">
        <ele>75</ele>
        <time>2020-12-17T12:24:09.000Z</time>
      </trkpt>
      <trkpt lat="47.17127" lon="-1.64122">
        <ele>75</ele>
        <time>2020-12-17T12:24:11.000Z</time>
      </trkpt>
      <trkpt lat="47.17125" lon="-1.64142">
        <ele>75</ele>
        <time>2020-12-17T12:24:13.000Z</time>
      </trkpt>
      <trkpt lat="47.17124" lon="-1.64161">
        <ele>76</ele>
        <time>2020-12-17T12:24:15.000Z</time>
      </trkpt>
      <trkpt lat="47.17122" lon="-1.64181">
        <ele>76</ele>
        <time>2020-12-17T12:24:17.000Z</time>
      </trkpt>
      <trkpt lat="47.17119" lon="-1.64202">
        <ele>77</ele>
        <time>2020-12-17T12:24:19.000Z</time>
      </trkpt>
      <trkpt lat="47.17117" lon="-1.64222">
        <ele>77</ele>
        <time>2020-12-17T12:24:21.000Z</time>
      </trkpt>
      <trkpt lat="47.17114" lon="-1.64242">
        <ele>76</ele>
        <time>2020-12-17T12:24:23.000Z</time>
      </trkpt>
      <trkpt lat="47.17112" lon="-1.64262">
        <ele>76</ele>
        <time>2020-12-17T12:24:25.000Z</time>
      </trkpt>
      <trkpt lat="47.1711" lon="-1.64283">
        <ele>77</ele>
        <time>2020-12-17T12:24:27.000Z</time>
      </trkpt>
      <trkpt lat="47.17108" lon="-1.64303">
        <ele>76</ele>
        <time>2020-12-17T12:24:29.000Z</time>
      </trkpt>
      <trkpt lat="47.17106" lon="-1.64323">
        <ele>77</ele>
        <time>2020-12-17T12:24:31.000Z</time>
      </trkpt>
      <trkpt lat="47.17103" lon="-1.64342">
        <ele>76</ele>
        <time>2020-12-17T12:24:33.000Z</time>
      </trkpt>
      <trkpt lat="47.17101" lon="-1.64362">
        <ele>76</ele>
        <time>2020-12-17T12:24:35.000Z</time>
      </trkpt>
      <trkpt lat="47.171" lon="-1.64381">
        <ele>76</ele>
        <time>2020-12-17T12:24:37.000Z</time>
      </trkpt>
      <trkpt lat="47.17099" lon="-1.64401">
        <ele>76</ele>
        <time>2020-12-17T12:24:39.000Z</time>
      </trkpt>
      <trkpt lat="47.17096" lon="-1.64421">
        <ele>76</ele>
        <time>2020-12-17T12:24:41.000Z</time>
      </trkpt>
      <trkpt lat="47.17095" lon="-1.64442">
        <ele>76</ele>
        <time>2020-12-17T12:24:43.000Z</time>
      </trkpt>
      <trkpt lat="47.17094" lon="-1.64462">
        <ele>75</ele>
        <time>2020-12-17T12:24:45.000Z</time>
      </trkpt>
      <trkpt lat="47.17092" lon="-1.64482">
        <ele>76</ele>
        <time>2020-12-17T12:24:47.000Z</time>
      </trkpt>
      <trkpt lat="47.17092" lon="-1.64502">
        <ele>76</ele>
        <time>2020-12-17T12:24:49.000Z</time>
      </trkpt>
      <trkpt lat="47.17092" lon="-1.64522">
        <ele>76</ele>
        <time>2020-12-17T12:24:51.000Z</time>
      </trkpt>
      <trkpt lat="47.17091" lon="-1.64542">
        <ele>75</ele>
        <time>2020-12-17T12:24:53.000Z</time>
      </trkpt>
      <trkpt lat="47.17091" lon="-1.64562">
        <ele>75</ele>
        <time>2020-12-17T12:24:55.000Z</time>
      </trkpt>
      <trkpt lat="47.1709" lon="-1.64583">
        <ele>75</ele>
        <time>2020-12-17T12:24:57.000Z</time>
      </trkpt>
      <trkpt lat="47.1709" lon="-1.64603">
        <ele>75</ele>
        <time>2020-12-17T12:24:59.000Z</time>
      </trkpt>
      <trkpt lat="47.1709" lon="-1.64624">
        <ele>75</ele>
        <time>2020-12-17T12:25:01.000Z</time>
      </trkpt>
      <trkpt lat="47.17091" lon="-1.64644">
        <ele>75</ele>
        <time>2020-12-17T12:25:03.000Z</time>
      </trkpt>
      <trkpt lat="47.17092" lon="-1.64664">
        <ele>75</ele>
        <time>2020-12-17T12:25:05.000Z</time>
      </trkpt>
      <trkpt lat="47.17092" lon="-1.64684">
        <ele>75</ele>
        <time>2020-12-17T12:25:07.000Z</time>
      </trkpt>
      <trkpt lat="47.17092" lon="-1.64704">
        <ele>75</ele>
        <time>2020-12-17T12:25:09.000Z</time>
      </trkpt>
      <trkpt lat="47.17093" lon="-1.64723">
        <ele>75</ele>
        <time>2020-12-17T12:25:11.000Z</time>
      </trkpt>
      <trkpt lat="47.17094" lon="-1.64741">
        <ele>76</ele>
        <time>2020-12-17T12:25:13.000Z</time>
      </trkpt>
      <trkpt lat="47.17096" lon="-1.64758">
        <ele>76</ele>
        <time>2020-12-17T12:25:15.000Z</time>
      </trkpt>
      <trkpt lat="47.17097" lon="-1.64776">
        <ele>76</ele>
        <time>2020-12-17T12:25:17.000Z</time>
      </trkpt>
      <trkpt lat="47.171" lon="-1.64796">
        <ele>77</ele>
        <time>2020-12-17T12:25:19.000Z</time>
      </trkpt>
      <trkpt lat="47.17102" lon="-1.64817">
        <ele>78</ele>
        <time>2020-12-17T12:25:21.000Z</time>
      </trkpt>
      <trkpt lat="47.17103" lon="-1.64837">
        <ele>77</ele>
        <time>2020-12-17T12:25:23.000Z</time>
      </trkpt>
      <trkpt lat="47.17104" lon="-1.64858">
        <ele>77</ele>
        <time>2020-12-17T12:25:25.000Z</time>
      </trkpt>
      <trkpt lat="47.17104" lon="-1.64879">
        <ele>77</ele>
        <time>2020-12-17T12:25:27.000Z</time>
      </trkpt>
      <trkpt lat="47.17105" lon="-1.649">
        <ele>77</ele>
        <time>2020-12-17T12:25:29.000Z</time>
      </trkpt>
      <trkpt lat="47.17105" lon="-1.6492">
        <ele>76</ele>
        <time>2020-12-17T12:25:31.000Z</time>
      </trkpt>
      <trkpt lat="47.17107" lon="-1.64941">
        <ele>76</ele>
        <time>2020-12-17T12:25:33.000Z</time>
      </trkpt>
      <trkpt lat="47.17107" lon="-1.64962">
        <ele>75</ele>
        <time>2020-12-17T12:25:35.000Z</time>
      </trkpt>
      <trkpt lat="47.17108" lon="-1.64981">
        <ele>75</ele>
        <time>2020-12-17T12:25:37.000Z</time>
      </trkpt>
      <trkpt lat="47.1711" lon="-1.65">
        <ele>75</ele>
        <time>2020-12-17T12:25:39.000Z</time>
      </trkpt>
      <trkpt lat="47.17111" lon="-1.6502">
        <ele>75</ele>
        <time>2020-12-17T12:25:41.000Z</time>
      </trkpt>
      <trkpt lat="47.17112" lon="-1.65039">
        <ele>75</ele>
        <time>2020-12-17T12:25:43.000Z</time>
      </trkpt>
      <trkpt lat="47.17113" lon="-1.65058">
        <ele>75</ele>
        <time>2020-12-17T12:25:45.000Z</time>
      </trkpt>
      <trkpt lat="47.17114" lon="-1.65077">
        <ele>75</ele>
        <time>2020-12-17T12:25:47.000Z</time>
      </trkpt>
      <trkpt lat="47.17116" lon="-1.65097">
        <ele>74</ele>
        <time>2020-12-17T12:25:49.000Z</time>
      </trkpt>
      <trkpt lat="47.17117" lon="-1.65117">
        <ele>75</ele>
        <time>2020-12-17T12:25:51.000Z</time>
      </trkpt>
      <trkpt lat="47.17118" lon="-1.65137">
        <ele>75</ele>
        <time>2020-12-17T12:25:53.000Z</time>
      </trkpt>
      <trkpt lat="47.1712" lon="-1.65155">
        <ele>75</ele>
        <time>2020-12-17T12:25:55.000Z</time>
      </trkpt>
      <trkpt lat="47.17121" lon="-1.65174">
        <ele>75</ele>
        <time>2020-12-17T12:25:57.000Z</time>
      </trkpt>
      <trkpt lat="47.17122" lon="-1.65191">
        <ele>75</ele>
        <time>2020-12-17T12:25:59.000Z</time>
      </trkpt>
      <trkpt lat="47.17123" lon="-1.65208">
        <ele>76</ele>
        <time>2020-12-17T12:26:01.000Z</time>
      </trkpt>
      <trkpt lat="47.17124" lon="-1.65223">
        <ele>76</ele>
        <time>2020-12-17T12:26:03.000Z</time>
      </trkpt>
      <trkpt lat="47.17124" lon="-1.6524">
        <ele>76</ele>
        <time>2020-12-17T12:26:05.000Z</time>
      </trkpt>
      <trkpt lat="47.17126" lon="-1.65256">
        <ele>77</ele>
        <time>2020-12-17T12:26:07.000Z</time>
      </trkpt>
      <trkpt lat="47.1713" lon="-1.65271">
        <ele>77</ele>
        <time>2020-12-17T12:26:09.000Z</time>
      </trkpt>
      <trkpt lat="47.17136" lon="-1.65286">
        <ele>77</ele>
        <time>2020-12-17T12:26:11.000Z</time>
      </trkpt>
      <trkpt lat="47.17139" lon="-1.65303">
        <ele>77</ele>
        <time>2020-12-17T12:26:13.000Z</time>
      </trkpt>
      <trkpt lat="47.17137" lon="-1.6532">
        <ele>77</ele>
        <time>2020-12-17T12:26:15.000Z</time>
      </trkpt>
      <trkpt lat="47.1713" lon="-1.65336">
        <ele>78</ele>
        <time>2020-12-17T12:26:17.000Z</time>
      </trkpt>
      <trkpt lat="47.17122" lon="-1.65348">
        <ele>78</ele>
        <time>2020-12-17T12:26:19.000Z</time>
      </trkpt>
      <trkpt lat="47.17121" lon="-1.65366">
        <ele>78</ele>
        <time>2020-12-17T12:26:21.000Z</time>
      </trkpt>
      <trkpt lat="47.17121" lon="-1.65383">
        <ele>79</ele>
        <time>2020-12-17T12:26:23.000Z</time>
      </trkpt>
      <trkpt lat="47.17121" lon="-1.65399">
        <ele>79</ele>
        <time>2020-12-17T12:26:25.000Z</time>
      </trkpt>
      <trkpt lat="47.17122" lon="-1.65416">
        <ele>79</ele>
        <time>2020-12-17T12:26:27.000Z</time>
      </trkpt>
      <trkpt lat="47.17122" lon="-1.65433">
        <ele>80</ele>
        <time>2020-12-17T12:26:29.000Z</time>
      </trkpt>
      <trkpt lat="47.17121" lon="-1.65449">
        <ele>80</ele>
        <time>2020-12-17T12:26:31.000Z</time>
      </trkpt>
      <trkpt lat="47.17121" lon="-1.65466">
        <ele>81</ele>
        <time>2020-12-17T12:26:33.000Z</time>
      </trkpt>
      <trkpt lat="47.17119" lon="-1.65482">
        <ele>82</ele>
        <time>2020-12-17T12:26:35.000Z</time>
      </trkpt>
      <trkpt lat="47.17116" lon="-1.65497">
        <ele>82</ele>
        <time>2020-12-17T12:26:37.000Z</time>
      </trkpt>
      <trkpt lat="47.17112" lon="-1.65512">
        <ele>83</ele>
        <time>2020-12-17T12:26:39.000Z</time>
      </trkpt>
      <trkpt lat="47.17107" lon="-1.65526">
        <ele>83</ele>
        <time>2020-12-17T12:26:41.000Z</time>
      </trkpt>
      <trkpt lat="47.17102" lon="-1.6554">
        <ele>83</ele>
        <time>2020-12-17T12:26:43.000Z</time>
      </trkpt>
      <trkpt lat="47.17094" lon="-1.65553">
        <ele>83</ele>
        <time>2020-12-17T12:26:45.000Z</time>
      </trkpt>
      <trkpt lat="47.17087" lon="-1.65566">
        <ele>84</ele>
        <time>2020-12-17T12:26:47.000Z</time>
      </trkpt>
      <trkpt lat="47.1708" lon="-1.65579">
        <ele>84</ele>
        <time>2020-12-17T12:26:49.000Z</time>
      </trkpt>
      <trkpt lat="47.17073" lon="-1.65591">
        <ele>84</ele>
        <time>2020-12-17T12:26:51.000Z</time>
      </trkpt>
      <trkpt lat="47.17065" lon="-1.65604">
        <ele>84</ele>
        <time>2020-12-17T12:26:53.000Z</time>
      </trkpt>
      <trkpt lat="47.17058" lon="-1.65617">
        <ele>84</ele>
        <time>2020-12-17T12:26:55.000Z</time>
      </trkpt>
      <trkpt lat="47.1705" lon="-1.65631">
        <ele>83</ele>
        <time>2020-12-17T12:26:57.000Z</time>
      </trkpt>
      <trkpt lat="47.17042" lon="-1.65645">
        <ele>83</ele>
        <time>2020-12-17T12:26:59.000Z</time>
      </trkpt>
      <trkpt lat="47.17034" lon="-1.6566">
        <ele>83</ele>
        <time>2020-12-17T12:27:01.000Z</time>
      </trkpt>
      <trkpt lat="47.17026" lon="-1.65677">
        <ele>82</ele>
        <time>2020-12-17T12:27:03.000Z</time>
      </trkpt>
      <trkpt lat="47.17018" lon="-1.65694">
        <ele>82</ele>
        <time>2020-12-17T12:27:05.000Z</time>
      </trkpt>
      <trkpt lat="47.17012" lon="-1.65712">
        <ele>82</ele>
        <time>2020-12-17T12:27:07.000Z</time>
      </trkpt>
      <trkpt lat="47.17008" lon="-1.6573">
        <ele>82</ele>
        <time>2020-12-17T12:27:09.000Z</time>
      </trkpt>
      <trkpt lat="47.17004" lon="-1.65748">
        <ele>82</ele>
        <time>2020-12-17T12:27:11.000Z</time>
      </trkpt>
      <trkpt lat="47.16996" lon="-1.65762">
        <ele>82</ele>
        <time>2020-12-17T12:27:13.000Z</time>
      </trkpt>
      <trkpt lat="47.16984" lon="-1.65773">
        <ele>82</ele>
        <time>2020-12-17T12:27:15.000Z</time>
      </trkpt>
      <trkpt lat="47.16971" lon="-1.65781">
        <ele>82</ele>
        <time>2020-12-17T12:27:17.000Z</time>
      </trkpt>
      <trkpt lat="47.16961" lon="-1.65794">
        <ele>81</ele>
        <time>2020-12-17T12:27:19.000Z</time>
      </trkpt>
      <trkpt lat="47.16952" lon="-1.65809">
        <ele>81</ele>
        <time>2020-12-17T12:27:21.000Z</time>
      </trkpt>
      <trkpt lat="47.16945" lon="-1.65826">
        <ele>81</ele>
        <time>2020-12-17T12:27:23.000Z</time>
      </trkpt>
      <trkpt lat="47.16937" lon="-1.65842">
        <ele>80</ele>
        <time>2020-12-17T12:27:25.000Z</time>
      </trkpt>
      <trkpt lat="47.16929" lon="-1.65859">
        <ele>80</ele>
        <time>2020-12-17T12:27:27.000Z</time>
      </trkpt>
      <trkpt lat="47.1692" lon="-1.65875">
        <ele>80</ele>
        <time>2020-12-17T12:27:29.000Z</time>
      </trkpt>
      <trkpt lat="47.16913" lon="-1.65892">
        <ele>80</ele>
        <time>2020-12-17T12:27:31.000Z</time>
      </trkpt>
      <trkpt lat="47.16905" lon="-1.65909">
        <ele>80</ele>
        <time>2020-12-17T12:27:33.000Z</time>
      </trkpt>
      <trkpt lat="47.16897" lon="-1.65926">
        <ele>80</ele>
        <time>2020-12-17T12:27:35.000Z</time>
      </trkpt>
      <trkpt lat="47.16889" lon="-1.65943">
        <ele>80</ele>
        <time>2020-12-17T12:27:37.000Z</time>
      </trkpt>
      <trkpt lat="47.16881" lon="-1.6596">
        <ele>79</ele>
        <time>2020-12-17T12:27:39.000Z</time>
      </trkpt>
      <trkpt lat="47.16874" lon="-1.65978">
        <ele>79</ele>
        <time>2020-12-17T12:27:41.000Z</time>
      </trkpt>
      <trkpt lat="47.16868" lon="-1.65997">
        <ele>79</ele>
        <time>2020-12-17T12:27:43.000Z</time>
      </trkpt>
      <trkpt lat="47.16863" lon="-1.66015">
        <ele>79</ele>
        <time>2020-12-17T12:27:45.000Z</time>
      </trkpt>
      <trkpt lat="47.16859" lon="-1.66034">
        <ele>79</ele>
        <time>2020-12-17T12:27:47.000Z</time>
      </trkpt>
      <trkpt lat="47.16856" lon="-1.66053">
        <ele>79</ele>
        <time>2020-12-17T12:27:49.000Z</time>
      </trkpt>
      <trkpt lat="47.16853" lon="-1.66072">
        <ele>79</ele>
        <time>2020-12-17T12:27:51.000Z</time>
      </trkpt>
      <trkpt lat="47.1685" lon="-1.66091">
        <ele>79</ele>
        <time>2020-12-17T12:27:53.000Z</time>
      </trkpt>
      <trkpt lat="47.16849" lon="-1.6611">
        <ele>78</ele>
        <time>2020-12-17T12:27:55.000Z</time>
      </trkpt>
      <trkpt lat="47.16847" lon="-1.66129">
        <ele>78</ele>
        <time>2020-12-17T12:27:57.000Z</time>
      </trkpt>
      <trkpt lat="47.16847" lon="-1.66149">
        <ele>78</ele>
        <time>2020-12-17T12:27:59.000Z</time>
      </trkpt>
      <trkpt lat="47.16848" lon="-1.66168">
        <ele>78</ele>
        <time>2020-12-17T12:28:01.000Z</time>
      </trkpt>
      <trkpt lat="47.16849" lon="-1.66187">
        <ele>78</ele>
        <time>2020-12-17T12:28:03.000Z</time>
      </trkpt>
      <trkpt lat="47.16851" lon="-1.66206">
        <ele>78</ele>
        <time>2020-12-17T12:28:05.000Z</time>
      </trkpt>
      <trkpt lat="47.16852" lon="-1.66224">
        <ele>78</ele>
        <time>2020-12-17T12:28:07.000Z</time>
      </trkpt>
      <trkpt lat="47.16853" lon="-1.66243">
        <ele>78</ele>
        <time>2020-12-17T12:28:09.000Z</time>
      </trkpt>
      <trkpt lat="47.16854" lon="-1.66262">
        <ele>79</ele>
        <time>2020-12-17T12:28:11.000Z</time>
      </trkpt>
      <trkpt lat="47.16856" lon="-1.66281">
        <ele>79</ele>
        <time>2020-12-17T12:28:13.000Z</time>
      </trkpt>
      <trkpt lat="47.16858" lon="-1.66301">
        <ele>79</ele>
        <time>2020-12-17T12:28:15.000Z</time>
      </trkpt>
      <trkpt lat="47.16859" lon="-1.6632">
        <ele>79</ele>
        <time>2020-12-17T12:28:17.000Z</time>
      </trkpt>
      <trkpt lat="47.1686" lon="-1.66339">
        <ele>79</ele>
        <time>2020-12-17T12:28:19.000Z</time>
      </trkpt>
      <trkpt lat="47.16862" lon="-1.66358">
        <ele>79</ele>
        <time>2020-12-17T12:28:21.000Z</time>
      </trkpt>
      <trkpt lat="47.16865" lon="-1.66378">
        <ele>79</ele>
        <time>2020-12-17T12:28:23.000Z</time>
      </trkpt>
      <trkpt lat="47.16867" lon="-1.66399">
        <ele>78</ele>
        <time>2020-12-17T12:28:25.000Z</time>
      </trkpt>
      <trkpt lat="47.16869" lon="-1.66419">
        <ele>78</ele>
        <time>2020-12-17T12:28:27.000Z</time>
      </trkpt>
      <trkpt lat="47.16871" lon="-1.66439">
        <ele>78</ele>
        <time>2020-12-17T12:28:29.000Z</time>
      </trkpt>
      <trkpt lat="47.16874" lon="-1.66459">
        <ele>78</ele>
        <time>2020-12-17T12:28:31.000Z</time>
      </trkpt>
      <trkpt lat="47.16876" lon="-1.66479">
        <ele>78</ele>
        <time>2020-12-17T12:28:33.000Z</time>
      </trkpt>
      <trkpt lat="47.16878" lon="-1.66497">
        <ele>78</ele>
        <time>2020-12-17T12:28:35.000Z</time>
      </trkpt>
      <trkpt lat="47.1688" lon="-1.66515">
        <ele>77</ele>
        <time>2020-12-17T12:28:37.000Z</time>
      </trkpt>
      <trkpt lat="47.16883" lon="-1.66534">
        <ele>77</ele>
        <time>2020-12-17T12:28:39.000Z</time>
      </trkpt>
      <trkpt lat="47.16887" lon="-1.66553">
        <ele>78</ele>
        <time>2020-12-17T12:28:41.000Z</time>
      </trkpt>
      <trkpt lat="47.1689" lon="-1.66571">
        <ele>79</ele>
        <time>2020-12-17T12:28:43.000Z</time>
      </trkpt>
      <trkpt lat="47.16893" lon="-1.66589">
        <ele>79</ele>
        <time>2020-12-17T12:28:45.000Z</time>
      </trkpt>
      <trkpt lat="47.16895" lon="-1.66608">
        <ele>80</ele>
        <time>2020-12-17T12:28:47.000Z</time>
      </trkpt>
      <trkpt lat="47.16897" lon="-1.66627">
        <ele>80</ele>
        <time>2020-12-17T12:28:49.000Z</time>
      </trkpt>
      <trkpt lat="47.16898" lon="-1.66647">
        <ele>81</ele>
        <time>2020-12-17T12:28:51.000Z</time>
      </trkpt>
      <trkpt lat="47.16897" lon="-1.66667">
        <ele>81</ele>
        <time>2020-12-17T12:28:53.000Z</time>
      </trkpt>
      <trkpt lat="47.16895" lon="-1.66688">
        <ele>80</ele>
        <time>2020-12-17T12:28:55.000Z</time>
      </trkpt>
      <trkpt lat="47.16892" lon="-1.66706">
        <ele>80</ele>
        <time>2020-12-17T12:28:57.000Z</time>
      </trkpt>
      <trkpt lat="47.16886" lon="-1.66725">
        <ele>81</ele>
        <time>2020-12-17T12:28:59.000Z</time>
      </trkpt>
      <trkpt lat="47.16878" lon="-1.66744">
        <ele>80</ele>
        <time>2020-12-17T12:29:01.000Z</time>
      </trkpt>
      <trkpt lat="47.16869" lon="-1.66761">
        <ele>80</ele>
        <time>2020-12-17T12:29:03.000Z</time>
      </trkpt>
      <trkpt lat="47.1686" lon="-1.66778">
        <ele>80</ele>
        <time>2020-12-17T12:29:05.000Z</time>
      </trkpt>
      <trkpt lat="47.16851" lon="-1.66796">
        <ele>80</ele>
        <time>2020-12-17T12:29:07.000Z</time>
      </trkpt>
      <trkpt lat="47.16843" lon="-1.66813">
        <ele>80</ele>
        <time>2020-12-17T12:29:09.000Z</time>
      </trkpt>
      <trkpt lat="47.16834" lon="-1.66829">
        <ele>80</ele>
        <time>2020-12-17T12:29:11.000Z</time>
      </trkpt>
      <trkpt lat="47.16825" lon="-1.66845">
        <ele>79</ele>
        <time>2020-12-17T12:29:13.000Z</time>
      </trkpt>
      <trkpt lat="47.16816" lon="-1.66862">
        <ele>79</ele>
        <time>2020-12-17T12:29:15.000Z</time>
      </trkpt>
      <trkpt lat="47.16807" lon="-1.66877">
        <ele>79</ele>
        <time>2020-12-17T12:29:17.000Z</time>
      </trkpt>
      <trkpt lat="47.16797" lon="-1.6689">
        <ele>79</ele>
        <time>2020-12-17T12:29:19.000Z</time>
      </trkpt>
      <trkpt lat="47.16786" lon="-1.66902">
        <ele>78</ele>
        <time>2020-12-17T12:29:21.000Z</time>
      </trkpt>
      <trkpt lat="47.16773" lon="-1.66911">
        <ele>79</ele>
        <time>2020-12-17T12:29:23.000Z</time>
      </trkpt>
      <trkpt lat="47.1676" lon="-1.66917">
        <ele>79</ele>
        <time>2020-12-17T12:29:25.000Z</time>
      </trkpt>
      <trkpt lat="47.16746" lon="-1.66922">
        <ele>79</ele>
        <time>2020-12-17T12:29:27.000Z</time>
      </trkpt>
      <trkpt lat="47.16732" lon="-1.66927">
        <ele>79</ele>
        <time>2020-12-17T12:29:29.000Z</time>
      </trkpt>
      <trkpt lat="47.16719" lon="-1.66931">
        <ele>78</ele>
        <time>2020-12-17T12:29:31.000Z</time>
      </trkpt>
      <trkpt lat="47.16705" lon="-1.66936">
        <ele>78</ele>
        <time>2020-12-17T12:29:33.000Z</time>
      </trkpt>
      <trkpt lat="47.16692" lon="-1.66943">
        <ele>78</ele>
        <time>2020-12-17T12:29:35.000Z</time>
      </trkpt>
      <trkpt lat="47.16682" lon="-1.66954">
        <ele>78</ele>
        <time>2020-12-17T12:29:37.000Z</time>
      </trkpt>
      <trkpt lat="47.16673" lon="-1.66969">
        <ele>78</ele>
        <time>2020-12-17T12:29:39.000Z</time>
      </trkpt>
      <trkpt lat="47.16668" lon="-1.66987">
        <ele>78</ele>
        <time>2020-12-17T12:29:41.000Z</time>
      </trkpt>
      <trkpt lat="47.16664" lon="-1.67006">
        <ele>79</ele>
        <time>2020-12-17T12:29:43.000Z</time>
      </trkpt>
      <trkpt lat="47.1666" lon="-1.67024">
        <ele>79</ele>
        <time>2020-12-17T12:29:45.000Z</time>
      </trkpt>
      <trkpt lat="47.16656" lon="-1.67044">
        <ele>78</ele>
        <time>2020-12-17T12:29:47.000Z</time>
      </trkpt>
      <trkpt lat="47.16652" lon="-1.67063">
        <ele>79</ele>
        <time>2020-12-17T12:29:49.000Z</time>
      </trkpt>
      <trkpt lat="47.16649" lon="-1.67082">
        <ele>79</ele>
        <time>2020-12-17T12:29:51.000Z</time>
      </trkpt>
      <trkpt lat="47.16644" lon="-1.67102">
        <ele>78</ele>
        <time>2020-12-17T12:29:53.000Z</time>
      </trkpt>
      <trkpt lat="47.1664" lon="-1.6712">
        <ele>78</ele>
        <time>2020-12-17T12:29:55.000Z</time>
      </trkpt>
      <trkpt lat="47.16636" lon="-1.67139">
        <ele>78</ele>
        <time>2020-12-17T12:29:57.000Z</time>
      </trkpt>
      <trkpt lat="47.16633" lon="-1.67157">
        <ele>79</ele>
        <time>2020-12-17T12:29:59.000Z</time>
      </trkpt>
      <trkpt lat="47.1663" lon="-1.67176">
        <ele>78</ele>
        <time>2020-12-17T12:30:01.000Z</time>
      </trkpt>
      <trkpt lat="47.16626" lon="-1.67193">
        <ele>78</ele>
        <time>2020-12-17T12:30:03.000Z</time>
      </trkpt>
      <trkpt lat="47.16622" lon="-1.6721">
        <ele>78</ele>
        <time>2020-12-17T12:30:05.000Z</time>
      </trkpt>
      <trkpt lat="47.16619" lon="-1.67225">
        <ele>78</ele>
        <time>2020-12-17T12:30:07.000Z</time>
      </trkpt>
      <trkpt lat="47.16616" lon="-1.67239">
        <ele>78</ele>
        <time>2020-12-17T12:30:09.000Z</time>
      </trkpt>
      <trkpt lat="47.16613" lon="-1.67252">
        <ele>78</ele>
        <time>2020-12-17T12:30:12.000Z</time>
      </trkpt>
      <trkpt lat="47.16609" lon="-1.67267">
        <ele>78</ele>
        <time>2020-12-17T12:30:18.000Z</time>
      </trkpt>
      <trkpt lat="47.16603" lon="-1.6728">
        <ele>78</ele>
        <time>2020-12-17T12:30:20.000Z</time>
      </trkpt>
      <trkpt lat="47.16596" lon="-1.67295">
        <ele>78</ele>
        <time>2020-12-17T12:30:22.000Z</time>
      </trkpt>
      <trkpt lat="47.1659" lon="-1.6731">
        <ele>78</ele>
        <time>2020-12-17T12:30:24.000Z</time>
      </trkpt>
      <trkpt lat="47.16583" lon="-1.67326">
        <ele>78</ele>
        <time>2020-12-17T12:30:26.000Z</time>
      </trkpt>
      <trkpt lat="47.16576" lon="-1.67342">
        <ele>78</ele>
        <time>2020-12-17T12:30:28.000Z</time>
      </trkpt>
      <trkpt lat="47.16569" lon="-1.67357">
        <ele>78</ele>
        <time>2020-12-17T12:30:30.000Z</time>
      </trkpt>
      <trkpt lat="47.1656" lon="-1.67372">
        <ele>78</ele>
        <time>2020-12-17T12:30:32.000Z</time>
      </trkpt>
      <trkpt lat="47.1655" lon="-1.67385">
        <ele>78</ele>
        <time>2020-12-17T12:30:34.000Z</time>
      </trkpt>
      <trkpt lat="47.16541" lon="-1.67398">
        <ele>78</ele>
        <time>2020-12-17T12:30:36.000Z</time>
      </trkpt>
      <trkpt lat="47.16532" lon="-1.67411">
        <ele>78</ele>
        <time>2020-12-17T12:30:38.000Z</time>
      </trkpt>
      <trkpt lat="47.16522" lon="-1.67424">
        <ele>78</ele>
        <time>2020-12-17T12:30:40.000Z</time>
      </trkpt>
      <trkpt lat="47.16514" lon="-1.67438">
        <ele>78</ele>
        <time>2020-12-17T12:30:42.000Z</time>
      </trkpt>
      <trkpt lat="47.16506" lon="-1.67452">
        <ele>78</ele>
        <time>2020-12-17T12:30:44.000Z</time>
      </trkpt>
      <trkpt lat="47.16498" lon="-1.67467">
        <ele>78</ele>
        <time>2020-12-17T12:30:46.000Z</time>
      </trkpt>
      <trkpt lat="47.16489" lon="-1.67481">
        <ele>78</ele>
        <time>2020-12-17T12:30:48.000Z</time>
      </trkpt>
      <trkpt lat="47.16481" lon="-1.67495">
        <ele>78</ele>
        <time>2020-12-17T12:30:50.000Z</time>
      </trkpt>
      <trkpt lat="47.16473" lon="-1.67509">
        <ele>78</ele>
        <time>2020-12-17T12:30:52.000Z</time>
      </trkpt>
      <trkpt lat="47.16466" lon="-1.67523">
        <ele>78</ele>
        <time>2020-12-17T12:30:54.000Z</time>
      </trkpt>
      <trkpt lat="47.16458" lon="-1.67537">
        <ele>78</ele>
        <time>2020-12-17T12:30:56.000Z</time>
      </trkpt>
      <trkpt lat="47.1645" lon="-1.67551">
        <ele>78</ele>
        <time>2020-12-17T12:30:58.000Z</time>
      </trkpt>
      <trkpt lat="47.16442" lon="-1.67565">
        <ele>78</ele>
        <time>2020-12-17T12:31:00.000Z</time>
      </trkpt>
      <trkpt lat="47.16435" lon="-1.6758">
        <ele>78</ele>
        <time>2020-12-17T12:31:02.000Z</time>
      </trkpt>
      <trkpt lat="47.16428" lon="-1.67596">
        <ele>78</ele>
        <time>2020-12-17T12:31:04.000Z</time>
      </trkpt>
      <trkpt lat="47.1642" lon="-1.6761">
        <ele>78</ele>
        <time>2020-12-17T12:31:06.000Z</time>
      </trkpt>
      <trkpt lat="47.16413" lon="-1.67625">
        <ele>77</ele>
        <time>2020-12-17T12:31:08.000Z</time>
      </trkpt>
      <trkpt lat="47.16406" lon="-1.6764">
        <ele>77</ele>
        <time>2020-12-17T12:31:10.000Z</time>
      </trkpt>
      <trkpt lat="47.16399" lon="-1.67655">
        <ele>77</ele>
        <time>2020-12-17T12:31:12.000Z</time>
      </trkpt>
      <trkpt lat="47.16392" lon="-1.6767">
        <ele>77</ele>
        <time>2020-12-17T12:31:14.000Z</time>
      </trkpt>
      <trkpt lat="47.16386" lon="-1.67685">
        <ele>78</ele>
        <time>2020-12-17T12:31:16.000Z</time>
      </trkpt>
      <trkpt lat="47.16378" lon="-1.67699">
        <ele>77</ele>
        <time>2020-12-17T12:31:18.000Z</time>
      </trkpt>
      <trkpt lat="47.1637" lon="-1.67714">
        <ele>77</ele>
        <time>2020-12-17T12:31:20.000Z</time>
      </trkpt>
      <trkpt lat="47.16361" lon="-1.67728">
        <ele>77</ele>
        <time>2020-12-17T12:31:22.000Z</time>
      </trkpt>
      <trkpt lat="47.16354" lon="-1.67742">
        <ele>77</ele>
        <time>2020-12-17T12:31:24.000Z</time>
      </trkpt>
      <trkpt lat="47.16347" lon="-1.67757">
        <ele>77</ele>
        <time>2020-12-17T12:31:26.000Z</time>
      </trkpt>
      <trkpt lat="47.16339" lon="-1.67771">
        <ele>77</ele>
        <time>2020-12-17T12:31:28.000Z</time>
      </trkpt>
      <trkpt lat="47.1633" lon="-1.67785">
        <ele>77</ele>
        <time>2020-12-17T12:31:30.000Z</time>
      </trkpt>
      <trkpt lat="47.16322" lon="-1.67799">
        <ele>77</ele>
        <time>2020-12-17T12:31:32.000Z</time>
      </trkpt>
      <trkpt lat="47.16314" lon="-1.67813">
        <ele>77</ele>
        <time>2020-12-17T12:31:34.000Z</time>
      </trkpt>
      <trkpt lat="47.16307" lon="-1.67826">
        <ele>77</ele>
        <time>2020-12-17T12:31:36.000Z</time>
      </trkpt>
      <trkpt lat="47.16298" lon="-1.6784">
        <ele>77</ele>
        <time>2020-12-17T12:31:38.000Z</time>
      </trkpt>
      <trkpt lat="47.16291" lon="-1.67854">
        <ele>77</ele>
        <time>2020-12-17T12:31:40.000Z</time>
      </trkpt>
      <trkpt lat="47.16284" lon="-1.67868">
        <ele>77</ele>
        <time>2020-12-17T12:31:42.000Z</time>
      </trkpt>
      <trkpt lat="47.16276" lon="-1.67881">
        <ele>78</ele>
        <time>2020-12-17T12:31:44.000Z</time>
      </trkpt>
      <trkpt lat="47.16269" lon="-1.67894">
        <ele>78</ele>
        <time>2020-12-17T12:31:46.000Z</time>
      </trkpt>
      <trkpt lat="47.16262" lon="-1.67908">
        <ele>78</ele>
        <time>2020-12-17T12:31:48.000Z</time>
      </trkpt>
      <trkpt lat="47.16255" lon="-1.67921">
        <ele>79</ele>
        <time>2020-12-17T12:31:50.000Z</time>
      </trkpt>
      <trkpt lat="47.16248" lon="-1.67933">
        <ele>78</ele>
        <time>2020-12-17T12:31:52.000Z</time>
      </trkpt>
      <trkpt lat="47.1624" lon="-1.67945">
        <ele>79</ele>
        <time>2020-12-17T12:31:54.000Z</time>
      </trkpt>
      <trkpt lat="47.16233" lon="-1.67956">
        <ele>78</ele>
        <time>2020-12-17T12:31:56.000Z</time>
      </trkpt>
      <trkpt lat="47.16227" lon="-1.67969">
        <ele>78</ele>
        <time>2020-12-17T12:31:58.000Z</time>
      </trkpt>
      <trkpt lat="47.16223" lon="-1.67984">
        <ele>78</ele>
        <time>2020-12-17T12:32:00.000Z</time>
      </trkpt>
      <trkpt lat="47.16213" lon="-1.67995">
        <ele>78</ele>
        <time>2020-12-17T12:32:02.000Z</time>
      </trkpt>
      <trkpt lat="47.16202" lon="-1.68001">
        <ele>78</ele>
        <time>2020-12-17T12:32:04.000Z</time>
      </trkpt>
      <trkpt lat="47.16192" lon="-1.68012">
        <ele>78</ele>
        <time>2020-12-17T12:32:06.000Z</time>
      </trkpt>
      <trkpt lat="47.16183" lon="-1.68026">
        <ele>78</ele>
        <time>2020-12-17T12:32:08.000Z</time>
      </trkpt>
      <trkpt lat="47.16175" lon="-1.68038">
        <ele>78</ele>
        <time>2020-12-17T12:32:10.000Z</time>
      </trkpt>
      <trkpt lat="47.16167" lon="-1.68051">
        <ele>77</ele>
        <time>2020-12-17T12:32:12.000Z</time>
      </trkpt>
      <trkpt lat="47.16159" lon="-1.68063">
        <ele>77</ele>
        <time>2020-12-17T12:32:14.000Z</time>
      </trkpt>
      <trkpt lat="47.16152" lon="-1.68076">
        <ele>77</ele>
        <time>2020-12-17T12:32:16.000Z</time>
      </trkpt>
      <trkpt lat="47.16146" lon="-1.6809">
        <ele>77</ele>
        <time>2020-12-17T12:32:18.000Z</time>
      </trkpt>
      <trkpt lat="47.16142" lon="-1.68106">
        <ele>77</ele>
        <time>2020-12-17T12:32:20.000Z</time>
      </trkpt>
      <trkpt lat="47.16137" lon="-1.68122">
        <ele>77</ele>
        <time>2020-12-17T12:32:22.000Z</time>
      </trkpt>
      <trkpt lat="47.16135" lon="-1.68137">
        <ele>77</ele>
        <time>2020-12-17T12:32:24.000Z</time>
      </trkpt>
      <trkpt lat="47.16132" lon="-1.68153">
        <ele>77</ele>
        <time>2020-12-17T12:32:26.000Z</time>
      </trkpt>
      <trkpt lat="47.16129" lon="-1.68168">
        <ele>77</ele>
        <time>2020-12-17T12:32:28.000Z</time>
      </trkpt>
      <trkpt lat="47.16126" lon="-1.68183">
        <ele>77</ele>
        <time>2020-12-17T12:32:30.000Z</time>
      </trkpt>
      <trkpt lat="47.16123" lon="-1.68199">
        <ele>77</ele>
        <time>2020-12-17T12:32:32.000Z</time>
      </trkpt>
      <trkpt lat="47.16121" lon="-1.68215">
        <ele>77</ele>
        <time>2020-12-17T12:32:34.000Z</time>
      </trkpt>
      <trkpt lat="47.16118" lon="-1.68231">
        <ele>78</ele>
        <time>2020-12-17T12:32:36.000Z</time>
      </trkpt>
      <trkpt lat="47.16116" lon="-1.68248">
        <ele>78</ele>
        <time>2020-12-17T12:32:38.000Z</time>
      </trkpt>
      <trkpt lat="47.16113" lon="-1.68266">
        <ele>78</ele>
        <time>2020-12-17T12:32:40.000Z</time>
      </trkpt>
      <trkpt lat="47.1611" lon="-1.68285">
        <ele>78</ele>
        <time>2020-12-17T12:32:42.000Z</time>
      </trkpt>
      <trkpt lat="47.16105" lon="-1.68305">
        <ele>77</ele>
        <time>2020-12-17T12:32:44.000Z</time>
      </trkpt>
      <trkpt lat="47.161" lon="-1.68325">
        <ele>76</ele>
        <time>2020-12-17T12:32:46.000Z</time>
      </trkpt>
      <trkpt lat="47.16097" lon="-1.68343">
        <ele>76</ele>
        <time>2020-12-17T12:32:48.000Z</time>
      </trkpt>
      <trkpt lat="47.16094" lon="-1.6836">
        <ele>76</ele>
        <time>2020-12-17T12:32:50.000Z</time>
      </trkpt>
      <trkpt lat="47.1609" lon="-1.68378">
        <ele>76</ele>
        <time>2020-12-17T12:32:52.000Z</time>
      </trkpt>
      <trkpt lat="47.16086" lon="-1.68395">
        <ele>76</ele>
        <time>2020-12-17T12:32:54.000Z</time>
      </trkpt>
      <trkpt lat="47.16082" lon="-1.68413">
        <ele>77</ele>
        <time>2020-12-17T12:32:56.000Z</time>
      </trkpt>
      <trkpt lat="47.16078" lon="-1.68431">
        <ele>77</ele>
        <time>2020-12-17T12:32:58.000Z</time>
      </trkpt>
      <trkpt lat="47.16073" lon="-1.68449">
        <ele>78</ele>
        <time>2020-12-17T12:33:00.000Z</time>
      </trkpt>
      <trkpt lat="47.1607" lon="-1.68466">
        <ele>78</ele>
        <time>2020-12-17T12:33:02.000Z</time>
      </trkpt>
      <trkpt lat="47.16068" lon="-1.68483">
        <ele>77</ele>
        <time>2020-12-17T12:33:04.000Z</time>
      </trkpt>
      <trkpt lat="47.16065" lon="-1.68501">
        <ele>77</ele>
        <time>2020-12-17T12:33:06.000Z</time>
      </trkpt>
      <trkpt lat="47.16062" lon="-1.68519">
        <ele>77</ele>
        <time>2020-12-17T12:33:08.000Z</time>
      </trkpt>
      <trkpt lat="47.1606" lon="-1.68538">
        <ele>77</ele>
        <time>2020-12-17T12:33:10.000Z</time>
      </trkpt>
      <trkpt lat="47.16057" lon="-1.68555">
        <ele>77</ele>
        <time>2020-12-17T12:33:12.000Z</time>
      </trkpt>
      <trkpt lat="47.16055" lon="-1.68572">
        <ele>77</ele>
        <time>2020-12-17T12:33:14.000Z</time>
      </trkpt>
      <trkpt lat="47.16053" lon="-1.6859">
        <ele>76</ele>
        <time>2020-12-17T12:33:16.000Z</time>
      </trkpt>
      <trkpt lat="47.16051" lon="-1.68608">
        <ele>76</ele>
        <time>2020-12-17T12:33:18.000Z</time>
      </trkpt>
      <trkpt lat="47.1605" lon="-1.68625">
        <ele>75</ele>
        <time>2020-12-17T12:33:20.000Z</time>
      </trkpt>
      <trkpt lat="47.16048" lon="-1.68643">
        <ele>75</ele>
        <time>2020-12-17T12:33:22.000Z</time>
      </trkpt>
      <trkpt lat="47.16048" lon="-1.68662">
        <ele>75</ele>
        <time>2020-12-17T12:33:24.000Z</time>
      </trkpt>
      <trkpt lat="47.16048" lon="-1.6868">
        <ele>75</ele>
        <time>2020-12-17T12:33:26.000Z</time>
      </trkpt>
      <trkpt lat="47.16049" lon="-1.68697">
        <ele>75</ele>
        <time>2020-12-17T12:33:28.000Z</time>
      </trkpt>
      <trkpt lat="47.16051" lon="-1.68715">
        <ele>75</ele>
        <time>2020-12-17T12:33:30.000Z</time>
      </trkpt>
      <trkpt lat="47.16053" lon="-1.68733">
        <ele>76</ele>
        <time>2020-12-17T12:33:32.000Z</time>
      </trkpt>
      <trkpt lat="47.16055" lon="-1.68749">
        <ele>76</ele>
        <time>2020-12-17T12:33:34.000Z</time>
      </trkpt>
      <trkpt lat="47.16059" lon="-1.68766">
        <ele>76</ele>
        <time>2020-12-17T12:33:36.000Z</time>
      </trkpt>
      <trkpt lat="47.16063" lon="-1.68782">
        <ele>76</ele>
        <time>2020-12-17T12:33:38.000Z</time>
      </trkpt>
      <trkpt lat="47.16067" lon="-1.68797">
        <ele>76</ele>
        <time>2020-12-17T12:33:40.000Z</time>
      </trkpt>
      <trkpt lat="47.16072" lon="-1.68812">
        <ele>77</ele>
        <time>2020-12-17T12:33:42.000Z</time>
      </trkpt>
      <trkpt lat="47.16076" lon="-1.68827">
        <ele>77</ele>
        <time>2020-12-17T12:33:44.000Z</time>
      </trkpt>
      <trkpt lat="47.1608" lon="-1.68842">
        <ele>77</ele>
        <time>2020-12-17T12:33:46.000Z</time>
      </trkpt>
      <trkpt lat="47.16085" lon="-1.68858">
        <ele>77</ele>
        <time>2020-12-17T12:33:48.000Z</time>
      </trkpt>
      <trkpt lat="47.16089" lon="-1.68872">
        <ele>77</ele>
        <time>2020-12-17T12:33:50.000Z</time>
      </trkpt>
      <trkpt lat="47.16094" lon="-1.68888">
        <ele>77</ele>
        <time>2020-12-17T12:33:52.000Z</time>
      </trkpt>
      <trkpt lat="47.16099" lon="-1.68904">
        <ele>77</ele>
        <time>2020-12-17T12:33:54.000Z</time>
      </trkpt>
      <trkpt lat="47.16103" lon="-1.68921">
        <ele>76</ele>
        <time>2020-12-17T12:33:56.000Z</time>
      </trkpt>
      <trkpt lat="47.16108" lon="-1.68938">
        <ele>76</ele>
        <time>2020-12-17T12:33:58.000Z</time>
      </trkpt>
      <trkpt lat="47.16114" lon="-1.68955">
        <ele>76</ele>
        <time>2020-12-17T12:34:00.000Z</time>
      </trkpt>
      <trkpt lat="47.16119" lon="-1.68973">
        <ele>75</ele>
        <time>2020-12-17T12:34:02.000Z</time>
      </trkpt>
      <trkpt lat="47.16124" lon="-1.68991">
        <ele>75</ele>
        <time>2020-12-17T12:34:04.000Z</time>
      </trkpt>
      <trkpt lat="47.16129" lon="-1.6901">
        <ele>75</ele>
        <time>2020-12-17T12:34:06.000Z</time>
      </trkpt>
      <trkpt lat="47.16134" lon="-1.69029">
        <ele>74</ele>
        <time>2020-12-17T12:34:08.000Z</time>
      </trkpt>
      <trkpt lat="47.16138" lon="-1.69048">
        <ele>74</ele>
        <time>2020-12-17T12:34:10.000Z</time>
      </trkpt>
      <trkpt lat="47.16141" lon="-1.69069">
        <ele>74</ele>
        <time>2020-12-17T12:34:12.000Z</time>
      </trkpt>
      <trkpt lat="47.16143" lon="-1.69089">
        <ele>73</ele>
        <time>2020-12-17T12:34:14.000Z</time>
      </trkpt>
      <trkpt lat="47.16145" lon="-1.69109">
        <ele>73</ele>
        <time>2020-12-17T12:34:16.000Z</time>
      </trkpt>
      <trkpt lat="47.16147" lon="-1.69129">
        <ele>72</ele>
        <time>2020-12-17T12:34:18.000Z</time>
      </trkpt>
      <trkpt lat="47.16148" lon="-1.69149">
        <ele>72</ele>
        <time>2020-12-17T12:34:20.000Z</time>
      </trkpt>
      <trkpt lat="47.16148" lon="-1.69168">
        <ele>72</ele>
        <time>2020-12-17T12:34:22.000Z</time>
      </trkpt>
      <trkpt lat="47.16147" lon="-1.69188">
        <ele>72</ele>
        <time>2020-12-17T12:34:24.000Z</time>
      </trkpt>
      <trkpt lat="47.16146" lon="-1.69209">
        <ele>70</ele>
        <time>2020-12-17T12:34:26.000Z</time>
      </trkpt>
      <trkpt lat="47.16145" lon="-1.69229">
        <ele>71</ele>
        <time>2020-12-17T12:34:28.000Z</time>
      </trkpt>
      <trkpt lat="47.16144" lon="-1.69249">
        <ele>70</ele>
        <time>2020-12-17T12:34:30.000Z</time>
      </trkpt>
      <trkpt lat="47.16142" lon="-1.69268">
        <ele>70</ele>
        <time>2020-12-17T12:34:32.000Z</time>
      </trkpt>
      <trkpt lat="47.16139" lon="-1.69287">
        <ele>71</ele>
        <time>2020-12-17T12:34:34.000Z</time>
      </trkpt>
      <trkpt lat="47.16136" lon="-1.69305">
        <ele>71</ele>
        <time>2020-12-17T12:34:36.000Z</time>
      </trkpt>
      <trkpt lat="47.16134" lon="-1.69322">
        <ele>71</ele>
        <time>2020-12-17T12:34:38.000Z</time>
      </trkpt>
      <trkpt lat="47.16131" lon="-1.6934">
        <ele>71</ele>
        <time>2020-12-17T12:34:40.000Z</time>
      </trkpt>
      <trkpt lat="47.16128" lon="-1.69359">
        <ele>71</ele>
        <time>2020-12-17T12:34:42.000Z</time>
      </trkpt>
      <trkpt lat="47.16126" lon="-1.69377">
        <ele>71</ele>
        <time>2020-12-17T12:34:44.000Z</time>
      </trkpt>
      <trkpt lat="47.16124" lon="-1.69396">
        <ele>71</ele>
        <time>2020-12-17T12:34:46.000Z</time>
      </trkpt>
      <trkpt lat="47.16122" lon="-1.69414">
        <ele>71</ele>
        <time>2020-12-17T12:34:48.000Z</time>
      </trkpt>
      <trkpt lat="47.16121" lon="-1.69432">
        <ele>71</ele>
        <time>2020-12-17T12:34:50.000Z</time>
      </trkpt>
      <trkpt lat="47.1612" lon="-1.69451">
        <ele>71</ele>
        <time>2020-12-17T12:34:52.000Z</time>
      </trkpt>
      <trkpt lat="47.16118" lon="-1.69469">
        <ele>72</ele>
        <time>2020-12-17T12:34:54.000Z</time>
      </trkpt>
      <trkpt lat="47.16117" lon="-1.69488">
        <ele>72</ele>
        <time>2020-12-17T12:34:56.000Z</time>
      </trkpt>
      <trkpt lat="47.16115" lon="-1.69507">
        <ele>72</ele>
        <time>2020-12-17T12:34:58.000Z</time>
      </trkpt>
      <trkpt lat="47.16114" lon="-1.69525">
        <ele>72</ele>
        <time>2020-12-17T12:35:00.000Z</time>
      </trkpt>
      <trkpt lat="47.16113" lon="-1.69543">
        <ele>72</ele>
        <time>2020-12-17T12:35:02.000Z</time>
      </trkpt>
      <trkpt lat="47.16112" lon="-1.69562">
        <ele>72</ele>
        <time>2020-12-17T12:35:04.000Z</time>
      </trkpt>
      <trkpt lat="47.1611" lon="-1.69579">
        <ele>72</ele>
        <time>2020-12-17T12:35:06.000Z</time>
      </trkpt>
      <trkpt lat="47.16109" lon="-1.69596">
        <ele>72</ele>
        <time>2020-12-17T12:35:08.000Z</time>
      </trkpt>
      <trkpt lat="47.16108" lon="-1.69615">
        <ele>72</ele>
        <time>2020-12-17T12:35:10.000Z</time>
      </trkpt>
      <trkpt lat="47.16107" lon="-1.69632">
        <ele>72</ele>
        <time>2020-12-17T12:35:12.000Z</time>
      </trkpt>
      <trkpt lat="47.16107" lon="-1.6965">
        <ele>72</ele>
        <time>2020-12-17T12:35:14.000Z</time>
      </trkpt>
      <trkpt lat="47.16106" lon="-1.69668">
        <ele>71</ele>
        <time>2020-12-17T12:35:16.000Z</time>
      </trkpt>
      <trkpt lat="47.16105" lon="-1.69686">
        <ele>71</ele>
        <time>2020-12-17T12:35:18.000Z</time>
      </trkpt>
      <trkpt lat="47.16103" lon="-1.69705">
        <ele>72</ele>
        <time>2020-12-17T12:35:20.000Z</time>
      </trkpt>
      <trkpt lat="47.16102" lon="-1.69722">
        <ele>72</ele>
        <time>2020-12-17T12:35:22.000Z</time>
      </trkpt>
      <trkpt lat="47.16101" lon="-1.69741">
        <ele>72</ele>
        <time>2020-12-17T12:35:24.000Z</time>
      </trkpt>
      <trkpt lat="47.161" lon="-1.69759">
        <ele>72</ele>
        <time>2020-12-17T12:35:26.000Z</time>
      </trkpt>
      <trkpt lat="47.16098" lon="-1.69776">
        <ele>72</ele>
        <time>2020-12-17T12:35:28.000Z</time>
      </trkpt>
      <trkpt lat="47.16097" lon="-1.69795">
        <ele>71</ele>
        <time>2020-12-17T12:35:30.000Z</time>
      </trkpt>
      <trkpt lat="47.16096" lon="-1.69814">
        <ele>72</ele>
        <time>2020-12-17T12:35:32.000Z</time>
      </trkpt>
      <trkpt lat="47.16095" lon="-1.69832">
        <ele>72</ele>
        <time>2020-12-17T12:35:34.000Z</time>
      </trkpt>
      <trkpt lat="47.16094" lon="-1.6985">
        <ele>72</ele>
        <time>2020-12-17T12:35:36.000Z</time>
      </trkpt>
      <trkpt lat="47.16093" lon="-1.69869">
        <ele>73</ele>
        <time>2020-12-17T12:35:38.000Z</time>
      </trkpt>
      <trkpt lat="47.16091" lon="-1.69887">
        <ele>72</ele>
        <time>2020-12-17T12:35:40.000Z</time>
      </trkpt>
      <trkpt lat="47.1609" lon="-1.69905">
        <ele>72</ele>
        <time>2020-12-17T12:35:42.000Z</time>
      </trkpt>
      <trkpt lat="47.16089" lon="-1.69923">
        <ele>72</ele>
        <time>2020-12-17T12:35:44.000Z</time>
      </trkpt>
      <trkpt lat="47.16088" lon="-1.69941">
        <ele>72</ele>
        <time>2020-12-17T12:35:46.000Z</time>
      </trkpt>
      <trkpt lat="47.16087" lon="-1.69959">
        <ele>72</ele>
        <time>2020-12-17T12:35:48.000Z</time>
      </trkpt>
      <trkpt lat="47.16086" lon="-1.69978">
        <ele>72</ele>
        <time>2020-12-17T12:35:50.000Z</time>
      </trkpt>
      <trkpt lat="47.16084" lon="-1.69997">
        <ele>72</ele>
        <time>2020-12-17T12:35:52.000Z</time>
      </trkpt>
      <trkpt lat="47.16084" lon="-1.70016">
        <ele>72</ele>
        <time>2020-12-17T12:35:54.000Z</time>
      </trkpt>
      <trkpt lat="47.16082" lon="-1.70034">
        <ele>72</ele>
        <time>2020-12-17T12:35:56.000Z</time>
      </trkpt>
      <trkpt lat="47.16081" lon="-1.70052">
        <ele>72</ele>
        <time>2020-12-17T12:35:58.000Z</time>
      </trkpt>
      <trkpt lat="47.16079" lon="-1.70072">
        <ele>72</ele>
        <time>2020-12-17T12:36:00.000Z</time>
      </trkpt>
      <trkpt lat="47.16077" lon="-1.70091">
        <ele>73</ele>
        <time>2020-12-17T12:36:02.000Z</time>
      </trkpt>
      <trkpt lat="47.16074" lon="-1.70109">
        <ele>73</ele>
        <time>2020-12-17T12:36:04.000Z</time>
      </trkpt>
      <trkpt lat="47.16071" lon="-1.70128">
        <ele>72</ele>
        <time>2020-12-17T12:36:06.000Z</time>
      </trkpt>
      <trkpt lat="47.16066" lon="-1.70145">
        <ele>72</ele>
        <time>2020-12-17T12:36:08.000Z</time>
      </trkpt>
      <trkpt lat="47.16059" lon="-1.70161">
        <ele>72</ele>
        <time>2020-12-17T12:36:10.000Z</time>
      </trkpt>
      <trkpt lat="47.16052" lon="-1.70177">
        <ele>73</ele>
        <time>2020-12-17T12:36:12.000Z</time>
      </trkpt>
      <trkpt lat="47.16046" lon="-1.70192">
        <ele>73</ele>
        <time>2020-12-17T12:36:14.000Z</time>
      </trkpt>
      <trkpt lat="47.16038" lon="-1.70207">
        <ele>73</ele>
        <time>2020-12-17T12:36:16.000Z</time>
      </trkpt>
      <trkpt lat="47.16031" lon="-1.70224">
        <ele>74</ele>
        <time>2020-12-17T12:36:18.000Z</time>
      </trkpt>
      <trkpt lat="47.16024" lon="-1.7024">
        <ele>74</ele>
        <time>2020-12-17T12:36:20.000Z</time>
      </trkpt>
      <trkpt lat="47.16017" lon="-1.70256">
        <ele>75</ele>
        <time>2020-12-17T12:36:22.000Z</time>
      </trkpt>
      <trkpt lat="47.1601" lon="-1.70272">
        <ele>75</ele>
        <time>2020-12-17T12:36:24.000Z</time>
      </trkpt>
      <trkpt lat="47.16002" lon="-1.70287">
        <ele>75</ele>
        <time>2020-12-17T12:36:26.000Z</time>
      </trkpt>
      <trkpt lat="47.15996" lon="-1.70303">
        <ele>75</ele>
        <time>2020-12-17T12:36:28.000Z</time>
      </trkpt>
      <trkpt lat="47.15989" lon="-1.7032">
        <ele>75</ele>
        <time>2020-12-17T12:36:30.000Z</time>
      </trkpt>
      <trkpt lat="47.15982" lon="-1.70335">
        <ele>74</ele>
        <time>2020-12-17T12:36:32.000Z</time>
      </trkpt>
      <trkpt lat="47.15976" lon="-1.7035">
        <ele>74</ele>
        <time>2020-12-17T12:36:34.000Z</time>
      </trkpt>
      <trkpt lat="47.1597" lon="-1.70365">
        <ele>74</ele>
        <time>2020-12-17T12:36:36.000Z</time>
      </trkpt>
      <trkpt lat="47.15964" lon="-1.7038">
        <ele>73</ele>
        <time>2020-12-17T12:36:38.000Z</time>
      </trkpt>
      <trkpt lat="47.15957" lon="-1.70395">
        <ele>74</ele>
        <time>2020-12-17T12:36:40.000Z</time>
      </trkpt>
      <trkpt lat="47.1595" lon="-1.7041">
        <ele>74</ele>
        <time>2020-12-17T12:36:42.000Z</time>
      </trkpt>
      <trkpt lat="47.15944" lon="-1.70425">
        <ele>74</ele>
        <time>2020-12-17T12:36:44.000Z</time>
      </trkpt>
      <trkpt lat="47.15936" lon="-1.70441">
        <ele>74</ele>
        <time>2020-12-17T12:36:46.000Z</time>
      </trkpt>
      <trkpt lat="47.15928" lon="-1.70455">
        <ele>74</ele>
        <time>2020-12-17T12:36:48.000Z</time>
      </trkpt>
      <trkpt lat="47.15921" lon="-1.7047">
        <ele>73</ele>
        <time>2020-12-17T12:36:50.000Z</time>
      </trkpt>
      <trkpt lat="47.15913" lon="-1.70485">
        <ele>73</ele>
        <time>2020-12-17T12:36:52.000Z</time>
      </trkpt>
      <trkpt lat="47.15905" lon="-1.705">
        <ele>73</ele>
        <time>2020-12-17T12:36:54.000Z</time>
      </trkpt>
      <trkpt lat="47.15898" lon="-1.70515">
        <ele>72</ele>
        <time>2020-12-17T12:36:56.000Z</time>
      </trkpt>
      <trkpt lat="47.15893" lon="-1.70532">
        <ele>72</ele>
        <time>2020-12-17T12:36:58.000Z</time>
      </trkpt>
      <trkpt lat="47.15888" lon="-1.70547">
        <ele>72</ele>
        <time>2020-12-17T12:37:00.000Z</time>
      </trkpt>
      <trkpt lat="47.15884" lon="-1.70563">
        <ele>72</ele>
        <time>2020-12-17T12:37:02.000Z</time>
      </trkpt>
      <trkpt lat="47.1588" lon="-1.70579">
        <ele>71</ele>
        <time>2020-12-17T12:37:04.000Z</time>
      </trkpt>
      <trkpt lat="47.15876" lon="-1.70593">
        <ele>71</ele>
        <time>2020-12-17T12:37:06.000Z</time>
      </trkpt>
      <trkpt lat="47.15872" lon="-1.70608">
        <ele>71</ele>
        <time>2020-12-17T12:37:08.000Z</time>
      </trkpt>
      <trkpt lat="47.15867" lon="-1.70623">
        <ele>71</ele>
        <time>2020-12-17T12:37:10.000Z</time>
      </trkpt>
      <trkpt lat="47.15862" lon="-1.70639">
        <ele>71</ele>
        <time>2020-12-17T12:37:12.000Z</time>
      </trkpt>
      <trkpt lat="47.15856" lon="-1.70654">
        <ele>71</ele>
        <time>2020-12-17T12:37:14.000Z</time>
      </trkpt>
      <trkpt lat="47.15851" lon="-1.70669">
        <ele>72</ele>
        <time>2020-12-17T12:37:16.000Z</time>
      </trkpt>
      <trkpt lat="47.15844" lon="-1.70683">
        <ele>71</ele>
        <time>2020-12-17T12:37:18.000Z</time>
      </trkpt>
      <trkpt lat="47.15838" lon="-1.70697">
        <ele>71</ele>
        <time>2020-12-17T12:37:20.000Z</time>
      </trkpt>
      <trkpt lat="47.15832" lon="-1.70711">
        <ele>72</ele>
        <time>2020-12-17T12:37:22.000Z</time>
      </trkpt>
      <trkpt lat="47.15826" lon="-1.70725">
        <ele>71</ele>
        <time>2020-12-17T12:37:24.000Z</time>
      </trkpt>
      <trkpt lat="47.15819" lon="-1.70739">
        <ele>71</ele>
        <time>2020-12-17T12:37:26.000Z</time>
      </trkpt>
      <trkpt lat="47.15813" lon="-1.70753">
        <ele>71</ele>
        <time>2020-12-17T12:37:28.000Z</time>
      </trkpt>
      <trkpt lat="47.15806" lon="-1.70766">
        <ele>71</ele>
        <time>2020-12-17T12:37:30.000Z</time>
      </trkpt>
      <trkpt lat="47.158" lon="-1.70779">
        <ele>71</ele>
        <time>2020-12-17T12:37:32.000Z</time>
      </trkpt>
      <trkpt lat="47.15794" lon="-1.70792">
        <ele>71</ele>
        <time>2020-12-17T12:37:34.000Z</time>
      </trkpt>
      <trkpt lat="47.15788" lon="-1.70806">
        <ele>71</ele>
        <time>2020-12-17T12:37:36.000Z</time>
      </trkpt>
      <trkpt lat="47.15782" lon="-1.70819">
        <ele>72</ele>
        <time>2020-12-17T12:37:38.000Z</time>
      </trkpt>
      <trkpt lat="47.15775" lon="-1.70831">
        <ele>72</ele>
        <time>2020-12-17T12:37:40.000Z</time>
      </trkpt>
      <trkpt lat="47.15769" lon="-1.70843">
        <ele>72</ele>
        <time>2020-12-17T12:37:42.000Z</time>
      </trkpt>
      <trkpt lat="47.15763" lon="-1.70854">
        <ele>72</ele>
        <time>2020-12-17T12:37:44.000Z</time>
      </trkpt>
      <trkpt lat="47.15757" lon="-1.70866">
        <ele>72</ele>
        <time>2020-12-17T12:37:46.000Z</time>
      </trkpt>
      <trkpt lat="47.1575" lon="-1.70878">
        <ele>72</ele>
        <time>2020-12-17T12:37:48.000Z</time>
      </trkpt>
      <trkpt lat="47.15743" lon="-1.70891">
        <ele>72</ele>
        <time>2020-12-17T12:37:50.000Z</time>
      </trkpt>
      <trkpt lat="47.15736" lon="-1.70903">
        <ele>72</ele>
        <time>2020-12-17T12:37:52.000Z</time>
      </trkpt>
      <trkpt lat="47.15729" lon="-1.70915">
        <ele>72</ele>
        <time>2020-12-17T12:37:54.000Z</time>
      </trkpt>
      <trkpt lat="47.15723" lon="-1.70927">
        <ele>72</ele>
        <time>2020-12-17T12:37:56.000Z</time>
      </trkpt>
      <trkpt lat="47.15716" lon="-1.7094">
        <ele>72</ele>
        <time>2020-12-17T12:37:58.000Z</time>
      </trkpt>
      <trkpt lat="47.1571" lon="-1.70953">
        <ele>72</ele>
        <time>2020-12-17T12:38:00.000Z</time>
      </trkpt>
      <trkpt lat="47.15704" lon="-1.70965">
        <ele>72</ele>
        <time>2020-12-17T12:38:02.000Z</time>
      </trkpt>
      <trkpt lat="47.15698" lon="-1.70978">
        <ele>72</ele>
        <time>2020-12-17T12:38:04.000Z</time>
      </trkpt>
      <trkpt lat="47.15692" lon="-1.7099">
        <ele>72</ele>
        <time>2020-12-17T12:38:06.000Z</time>
      </trkpt>
      <trkpt lat="47.15686" lon="-1.71003">
        <ele>72</ele>
        <time>2020-12-17T12:38:08.000Z</time>
      </trkpt>
      <trkpt lat="47.1568" lon="-1.71016">
        <ele>72</ele>
        <time>2020-12-17T12:38:10.000Z</time>
      </trkpt>
      <trkpt lat="47.15675" lon="-1.71028">
        <ele>72</ele>
        <time>2020-12-17T12:38:12.000Z</time>
      </trkpt>
      <trkpt lat="47.1567" lon="-1.71039">
        <ele>72</ele>
        <time>2020-12-17T12:38:14.000Z</time>
      </trkpt>
      <trkpt lat="47.15662" lon="-1.71054">
        <ele>72</ele>
        <time>2020-12-17T12:38:17.000Z</time>
      </trkpt>
      <trkpt lat="47.15655" lon="-1.71067">
        <ele>72</ele>
        <time>2020-12-17T12:38:20.000Z</time>
      </trkpt>
      <trkpt lat="47.15645" lon="-1.71071">
        <ele>72</ele>
        <time>2020-12-17T12:38:22.000Z</time>
      </trkpt>
      <trkpt lat="47.15636" lon="-1.71078">
        <ele>72</ele>
        <time>2020-12-17T12:38:24.000Z</time>
      </trkpt>
      <trkpt lat="47.15628" lon="-1.71089">
        <ele>72</ele>
        <time>2020-12-17T12:38:26.000Z</time>
      </trkpt>
      <trkpt lat="47.15622" lon="-1.71102">
        <ele>73</ele>
        <time>2020-12-17T12:38:28.000Z</time>
      </trkpt>
      <trkpt lat="47.15615" lon="-1.71115">
        <ele>73</ele>
        <time>2020-12-17T12:38:30.000Z</time>
      </trkpt>
      <trkpt lat="47.15608" lon="-1.71127">
        <ele>73</ele>
        <time>2020-12-17T12:38:32.000Z</time>
      </trkpt>
      <trkpt lat="47.15601" lon="-1.7114">
        <ele>73</ele>
        <time>2020-12-17T12:38:34.000Z</time>
      </trkpt>
      <trkpt lat="47.15594" lon="-1.71152">
        <ele>73</ele>
        <time>2020-12-17T12:38:36.000Z</time>
      </trkpt>
      <trkpt lat="47.15587" lon="-1.71164">
        <ele>73</ele>
        <time>2020-12-17T12:38:38.000Z</time>
      </trkpt>
      <trkpt lat="47.15579" lon="-1.71177">
        <ele>73</ele>
        <time>2020-12-17T12:38:40.000Z</time>
      </trkpt>
      <trkpt lat="47.15572" lon="-1.71189">
        <ele>73</ele>
        <time>2020-12-17T12:38:42.000Z</time>
      </trkpt>
      <trkpt lat="47.15564" lon="-1.71203">
        <ele>73</ele>
        <time>2020-12-17T12:38:44.000Z</time>
      </trkpt>
      <trkpt lat="47.15558" lon="-1.71216">
        <ele>73</ele>
        <time>2020-12-17T12:38:46.000Z</time>
      </trkpt>
      <trkpt lat="47.15552" lon="-1.71229">
        <ele>73</ele>
        <time>2020-12-17T12:38:48.000Z</time>
      </trkpt>
      <trkpt lat="47.15546" lon="-1.71243">
        <ele>73</ele>
        <time>2020-12-17T12:38:50.000Z</time>
      </trkpt>
      <trkpt lat="47.1554" lon="-1.71258">
        <ele>73</ele>
        <time>2020-12-17T12:38:52.000Z</time>
      </trkpt>
      <trkpt lat="47.15534" lon="-1.71273">
        <ele>73</ele>
        <time>2020-12-17T12:38:54.000Z</time>
      </trkpt>
      <trkpt lat="47.15528" lon="-1.71287">
        <ele>73</ele>
        <time>2020-12-17T12:38:56.000Z</time>
      </trkpt>
      <trkpt lat="47.15521" lon="-1.71302">
        <ele>74</ele>
        <time>2020-12-17T12:38:58.000Z</time>
      </trkpt>
      <trkpt lat="47.15514" lon="-1.71316">
        <ele>73</ele>
        <time>2020-12-17T12:39:00.000Z</time>
      </trkpt>
      <trkpt lat="47.15507" lon="-1.7133">
        <ele>73</ele>
        <time>2020-12-17T12:39:02.000Z</time>
      </trkpt>
      <trkpt lat="47.15499" lon="-1.71344">
        <ele>73</ele>
        <time>2020-12-17T12:39:04.000Z</time>
      </trkpt>
      <trkpt lat="47.15491" lon="-1.71357">
        <ele>73</ele>
        <time>2020-12-17T12:39:06.000Z</time>
      </trkpt>
      <trkpt lat="47.15482" lon="-1.71369">
        <ele>73</ele>
        <time>2020-12-17T12:39:08.000Z</time>
      </trkpt>
      <trkpt lat="47.15474" lon="-1.71381">
        <ele>72</ele>
        <time>2020-12-17T12:39:10.000Z</time>
      </trkpt>
      <trkpt lat="47.15465" lon="-1.71392">
        <ele>72</ele>
        <time>2020-12-17T12:39:12.000Z</time>
      </trkpt>
      <trkpt lat="47.15455" lon="-1.71401">
        <ele>72</ele>
        <time>2020-12-17T12:39:14.000Z</time>
      </trkpt>
      <trkpt lat="47.15446" lon="-1.71411">
        <ele>72</ele>
        <time>2020-12-17T12:39:16.000Z</time>
      </trkpt>
      <trkpt lat="47.15436" lon="-1.71419">
        <ele>72</ele>
        <time>2020-12-17T12:39:18.000Z</time>
      </trkpt>
      <trkpt lat="47.15426" lon="-1.71429">
        <ele>72</ele>
        <time>2020-12-17T12:39:20.000Z</time>
      </trkpt>
      <trkpt lat="47.15416" lon="-1.71438">
        <ele>72</ele>
        <time>2020-12-17T12:39:22.000Z</time>
      </trkpt>
      <trkpt lat="47.15407" lon="-1.71447">
        <ele>71</ele>
        <time>2020-12-17T12:39:24.000Z</time>
      </trkpt>
      <trkpt lat="47.15396" lon="-1.71456">
        <ele>71</ele>
        <time>2020-12-17T12:39:26.000Z</time>
      </trkpt>
      <trkpt lat="47.15386" lon="-1.71464">
        <ele>71</ele>
        <time>2020-12-17T12:39:28.000Z</time>
      </trkpt>
      <trkpt lat="47.15376" lon="-1.71472">
        <ele>71</ele>
        <time>2020-12-17T12:39:30.000Z</time>
      </trkpt>
      <trkpt lat="47.15365" lon="-1.71481">
        <ele>71</ele>
        <time>2020-12-17T12:39:32.000Z</time>
      </trkpt>
      <trkpt lat="47.15356" lon="-1.71492">
        <ele>71</ele>
        <time>2020-12-17T12:39:34.000Z</time>
      </trkpt>
      <trkpt lat="47.15346" lon="-1.71502">
        <ele>71</ele>
        <time>2020-12-17T12:39:36.000Z</time>
      </trkpt>
      <trkpt lat="47.15337" lon="-1.71513">
        <ele>71</ele>
        <time>2020-12-17T12:39:38.000Z</time>
      </trkpt>
      <trkpt lat="47.15327" lon="-1.71523">
        <ele>71</ele>
        <time>2020-12-17T12:39:40.000Z</time>
      </trkpt>
      <trkpt lat="47.15317" lon="-1.71534">
        <ele>70</ele>
        <time>2020-12-17T12:39:42.000Z</time>
      </trkpt>
      <trkpt lat="47.15308" lon="-1.71545">
        <ele>70</ele>
        <time>2020-12-17T12:39:44.000Z</time>
      </trkpt>
      <trkpt lat="47.15298" lon="-1.71555">
        <ele>70</ele>
        <time>2020-12-17T12:39:46.000Z</time>
      </trkpt>
      <trkpt lat="47.15289" lon="-1.71565">
        <ele>69</ele>
        <time>2020-12-17T12:39:48.000Z</time>
      </trkpt>
      <trkpt lat="47.15279" lon="-1.71575">
        <ele>69</ele>
        <time>2020-12-17T12:39:50.000Z</time>
      </trkpt>
      <trkpt lat="47.1527" lon="-1.71586">
        <ele>69</ele>
        <time>2020-12-17T12:39:52.000Z</time>
      </trkpt>
      <trkpt lat="47.1526" lon="-1.71598">
        <ele>69</ele>
        <time>2020-12-17T12:39:54.000Z</time>
      </trkpt>
      <trkpt lat="47.15252" lon="-1.7161">
        <ele>69</ele>
        <time>2020-12-17T12:39:56.000Z</time>
      </trkpt>
      <trkpt lat="47.15244" lon="-1.71622">
        <ele>69</ele>
        <time>2020-12-17T12:39:58.000Z</time>
      </trkpt>
      <trkpt lat="47.15233" lon="-1.71626">
        <ele>69</ele>
        <time>2020-12-17T12:40:00.000Z</time>
      </trkpt>
      <trkpt lat="47.15222" lon="-1.7162">
        <ele>69</ele>
        <time>2020-12-17T12:40:02.000Z</time>
      </trkpt>
      <trkpt lat="47.15212" lon="-1.71612">
        <ele>68</ele>
        <time>2020-12-17T12:40:04.000Z</time>
      </trkpt>
      <trkpt lat="47.15201" lon="-1.71605">
        <ele>69</ele>
        <time>2020-12-17T12:40:06.000Z</time>
      </trkpt>
      <trkpt lat="47.15191" lon="-1.71597">
        <ele>69</ele>
        <time>2020-12-17T12:40:08.000Z</time>
      </trkpt>
      <trkpt lat="47.15181" lon="-1.7159">
        <ele>70</ele>
        <time>2020-12-17T12:40:10.000Z</time>
      </trkpt>
      <trkpt lat="47.1517" lon="-1.71582">
        <ele>69</ele>
        <time>2020-12-17T12:40:12.000Z</time>
      </trkpt>
      <trkpt lat="47.15158" lon="-1.71573">
        <ele>70</ele>
        <time>2020-12-17T12:40:14.000Z</time>
      </trkpt>
      <trkpt lat="47.15147" lon="-1.71565">
        <ele>70</ele>
        <time>2020-12-17T12:40:16.000Z</time>
      </trkpt>
      <trkpt lat="47.15136" lon="-1.71556">
        <ele>70</ele>
        <time>2020-12-17T12:40:18.000Z</time>
      </trkpt>
      <trkpt lat="47.15126" lon="-1.71548">
        <ele>70</ele>
        <time>2020-12-17T12:40:20.000Z</time>
      </trkpt>
      <trkpt lat="47.15115" lon="-1.71539">
        <ele>70</ele>
        <time>2020-12-17T12:40:22.000Z</time>
      </trkpt>
      <trkpt lat="47.15106" lon="-1.71531">
        <ele>70</ele>
        <time>2020-12-17T12:40:24.000Z</time>
      </trkpt>
      <trkpt lat="47.15096" lon="-1.71522">
        <ele>70</ele>
        <time>2020-12-17T12:40:26.000Z</time>
      </trkpt>
      <trkpt lat="47.15085" lon="-1.71512">
        <ele>69</ele>
        <time>2020-12-17T12:40:28.000Z</time>
      </trkpt>
      <trkpt lat="47.15075" lon="-1.71501">
        <ele>69</ele>
        <time>2020-12-17T12:40:30.000Z</time>
      </trkpt>
      <trkpt lat="47.15064" lon="-1.71489">
        <ele>69</ele>
        <time>2020-12-17T12:40:32.000Z</time>
      </trkpt>
      <trkpt lat="47.15054" lon="-1.71479">
        <ele>69</ele>
        <time>2020-12-17T12:40:34.000Z</time>
      </trkpt>
      <trkpt lat="47.15043" lon="-1.71468">
        <ele>69</ele>
        <time>2020-12-17T12:40:36.000Z</time>
      </trkpt>
      <trkpt lat="47.15033" lon="-1.71457">
        <ele>69</ele>
        <time>2020-12-17T12:40:38.000Z</time>
      </trkpt>
      <trkpt lat="47.15023" lon="-1.71447">
        <ele>69</ele>
        <time>2020-12-17T12:40:40.000Z</time>
      </trkpt>
      <trkpt lat="47.15013" lon="-1.71437">
        <ele>70</ele>
        <time>2020-12-17T12:40:42.000Z</time>
      </trkpt>
      <trkpt lat="47.15003" lon="-1.71428">
        <ele>70</ele>
        <time>2020-12-17T12:40:44.000Z</time>
      </trkpt>
      <trkpt lat="47.14993" lon="-1.71418">
        <ele>70</ele>
        <time>2020-12-17T12:40:46.000Z</time>
      </trkpt>
      <trkpt lat="47.14983" lon="-1.71408">
        <ele>70</ele>
        <time>2020-12-17T12:40:48.000Z</time>
      </trkpt>
      <trkpt lat="47.14973" lon="-1.71398">
        <ele>70</ele>
        <time>2020-12-17T12:40:50.000Z</time>
      </trkpt>
      <trkpt lat="47.14964" lon="-1.71389">
        <ele>70</ele>
        <time>2020-12-17T12:40:52.000Z</time>
      </trkpt>
      <trkpt lat="47.14954" lon="-1.71379">
        <ele>70</ele>
        <time>2020-12-17T12:40:54.000Z</time>
      </trkpt>
      <trkpt lat="47.14945" lon="-1.71368">
        <ele>70</ele>
        <time>2020-12-17T12:40:56.000Z</time>
      </trkpt>
      <trkpt lat="47.14936" lon="-1.71357">
        <ele>70</ele>
        <time>2020-12-17T12:40:58.000Z</time>
      </trkpt>
      <trkpt lat="47.14926" lon="-1.71346">
        <ele>70</ele>
        <time>2020-12-17T12:41:00.000Z</time>
      </trkpt>
      <trkpt lat="47.14917" lon="-1.71334">
        <ele>70</ele>
        <time>2020-12-17T12:41:02.000Z</time>
      </trkpt>
      <trkpt lat="47.14909" lon="-1.71323">
        <ele>70</ele>
        <time>2020-12-17T12:41:04.000Z</time>
      </trkpt>
      <trkpt lat="47.149" lon="-1.71312">
        <ele>71</ele>
        <time>2020-12-17T12:41:06.000Z</time>
      </trkpt>
      <trkpt lat="47.1489" lon="-1.71302">
        <ele>71</ele>
        <time>2020-12-17T12:41:08.000Z</time>
      </trkpt>
      <trkpt lat="47.1488" lon="-1.71292">
        <ele>71</ele>
        <time>2020-12-17T12:41:10.000Z</time>
      </trkpt>
      <trkpt lat="47.14871" lon="-1.71284">
        <ele>71</ele>
        <time>2020-12-17T12:41:12.000Z</time>
      </trkpt>
      <trkpt lat="47.14862" lon="-1.71274">
        <ele>71</ele>
        <time>2020-12-17T12:41:14.000Z</time>
      </trkpt>
      <trkpt lat="47.14853" lon="-1.71262">
        <ele>71</ele>
        <time>2020-12-17T12:41:16.000Z</time>
      </trkpt>
      <trkpt lat="47.14846" lon="-1.71247">
        <ele>70</ele>
        <time>2020-12-17T12:41:18.000Z</time>
      </trkpt>
      <trkpt lat="47.1484" lon="-1.71231">
        <ele>71</ele>
        <time>2020-12-17T12:41:20.000Z</time>
      </trkpt>
      <trkpt lat="47.14834" lon="-1.71214">
        <ele>70</ele>
        <time>2020-12-17T12:41:22.000Z</time>
      </trkpt>
      <trkpt lat="47.14828" lon="-1.71199">
        <ele>71</ele>
        <time>2020-12-17T12:41:24.000Z</time>
      </trkpt>
      <trkpt lat="47.14822" lon="-1.71184">
        <ele>71</ele>
        <time>2020-12-17T12:41:26.000Z</time>
      </trkpt>
      <trkpt lat="47.14817" lon="-1.71169">
        <ele>71</ele>
        <time>2020-12-17T12:41:28.000Z</time>
      </trkpt>
      <trkpt lat="47.14812" lon="-1.71154">
        <ele>71</ele>
        <time>2020-12-17T12:41:30.000Z</time>
      </trkpt>
      <trkpt lat="47.14806" lon="-1.71139">
        <ele>71</ele>
        <time>2020-12-17T12:41:32.000Z</time>
      </trkpt>
      <trkpt lat="47.14799" lon="-1.71124">
        <ele>71</ele>
        <time>2020-12-17T12:41:34.000Z</time>
      </trkpt>
      <trkpt lat="47.14792" lon="-1.7111">
        <ele>71</ele>
        <time>2020-12-17T12:41:36.000Z</time>
      </trkpt>
      <trkpt lat="47.14786" lon="-1.71096">
        <ele>71</ele>
        <time>2020-12-17T12:41:38.000Z</time>
      </trkpt>
      <trkpt lat="47.14779" lon="-1.71081">
        <ele>71</ele>
        <time>2020-12-17T12:41:40.000Z</time>
      </trkpt>
      <trkpt lat="47.14773" lon="-1.71066">
        <ele>71</ele>
        <time>2020-12-17T12:41:42.000Z</time>
      </trkpt>
      <trkpt lat="47.14768" lon="-1.7105">
        <ele>71</ele>
        <time>2020-12-17T12:41:44.000Z</time>
      </trkpt>
      <trkpt lat="47.14763" lon="-1.71034">
        <ele>71</ele>
        <time>2020-12-17T12:41:46.000Z</time>
      </trkpt>
      <trkpt lat="47.14759" lon="-1.71018">
        <ele>71</ele>
        <time>2020-12-17T12:41:48.000Z</time>
      </trkpt>
      <trkpt lat="47.14754" lon="-1.71002">
        <ele>72</ele>
        <time>2020-12-17T12:41:50.000Z</time>
      </trkpt>
      <trkpt lat="47.1475" lon="-1.70987">
        <ele>72</ele>
        <time>2020-12-17T12:41:52.000Z</time>
      </trkpt>
      <trkpt lat="47.14742" lon="-1.70981">
        <ele>71</ele>
        <time>2020-12-17T12:41:54.000Z</time>
      </trkpt>
      <trkpt lat="47.14732" lon="-1.70988">
        <ele>72</ele>
        <time>2020-12-17T12:41:56.000Z</time>
      </trkpt>
      <trkpt lat="47.14724" lon="-1.70999">
        <ele>72</ele>
        <time>2020-12-17T12:41:58.000Z</time>
      </trkpt>
      <trkpt lat="47.14718" lon="-1.71013">
        <ele>72</ele>
        <time>2020-12-17T12:42:00.000Z</time>
      </trkpt>
      <trkpt lat="47.14714" lon="-1.7103">
        <ele>72</ele>
        <time>2020-12-17T12:42:02.000Z</time>
      </trkpt>
      <trkpt lat="47.14713" lon="-1.71047">
        <ele>72</ele>
        <time>2020-12-17T12:42:04.000Z</time>
      </trkpt>
      <trkpt lat="47.14715" lon="-1.71064">
        <ele>72</ele>
        <time>2020-12-17T12:42:06.000Z</time>
      </trkpt>
      <trkpt lat="47.14717" lon="-1.71081">
        <ele>72</ele>
        <time>2020-12-17T12:42:08.000Z</time>
      </trkpt>
      <trkpt lat="47.14719" lon="-1.71098">
        <ele>72</ele>
        <time>2020-12-17T12:42:10.000Z</time>
      </trkpt>
      <trkpt lat="47.14722" lon="-1.71114">
        <ele>71</ele>
        <time>2020-12-17T12:42:12.000Z</time>
      </trkpt>
      <trkpt lat="47.14725" lon="-1.71132">
        <ele>72</ele>
        <time>2020-12-17T12:42:14.000Z</time>
      </trkpt>
      <trkpt lat="47.14727" lon="-1.71149">
        <ele>71</ele>
        <time>2020-12-17T12:42:16.000Z</time>
      </trkpt>
      <trkpt lat="47.14731" lon="-1.71166">
        <ele>71</ele>
        <time>2020-12-17T12:42:18.000Z</time>
      </trkpt>
      <trkpt lat="47.14735" lon="-1.71182">
        <ele>72</ele>
        <time>2020-12-17T12:42:20.000Z</time>
      </trkpt>
      <trkpt lat="47.14739" lon="-1.71199">
        <ele>72</ele>
        <time>2020-12-17T12:42:22.000Z</time>
      </trkpt>
      <trkpt lat="47.14742" lon="-1.71214">
        <ele>72</ele>
        <time>2020-12-17T12:42:24.000Z</time>
      </trkpt>
      <trkpt lat="47.14746" lon="-1.71231">
        <ele>72</ele>
        <time>2020-12-17T12:42:26.000Z</time>
      </trkpt>
      <trkpt lat="47.1475" lon="-1.71248">
        <ele>72</ele>
        <time>2020-12-17T12:42:28.000Z</time>
      </trkpt>
      <trkpt lat="47.14753" lon="-1.71265">
        <ele>72</ele>
        <time>2020-12-17T12:42:30.000Z</time>
      </trkpt>
      <trkpt lat="47.14757" lon="-1.71281">
        <ele>72</ele>
        <time>2020-12-17T12:42:32.000Z</time>
      </trkpt>
      <trkpt lat="47.14761" lon="-1.71297">
        <ele>72</ele>
        <time>2020-12-17T12:42:34.000Z</time>
      </trkpt>
      <trkpt lat="47.14766" lon="-1.71312">
        <ele>72</ele>
        <time>2020-12-17T12:42:36.000Z</time>
      </trkpt>
      <trkpt lat="47.14769" lon="-1.71327">
        <ele>72</ele>
        <time>2020-12-17T12:42:38.000Z</time>
      </trkpt>
      <trkpt lat="47.14771" lon="-1.71343">
        <ele>72</ele>
        <time>2020-12-17T12:42:40.000Z</time>
      </trkpt>
      <trkpt lat="47.14774" lon="-1.7136">
        <ele>72</ele>
        <time>2020-12-17T12:42:42.000Z</time>
      </trkpt>
      <trkpt lat="47.14777" lon="-1.71377">
        <ele>72</ele>
        <time>2020-12-17T12:42:44.000Z</time>
      </trkpt>
      <trkpt lat="47.1478" lon="-1.71394">
        <ele>72</ele>
        <time>2020-12-17T12:42:46.000Z</time>
      </trkpt>
      <trkpt lat="47.14782" lon="-1.71413">
        <ele>72</ele>
        <time>2020-12-17T12:42:48.000Z</time>
      </trkpt>
      <trkpt lat="47.14784" lon="-1.7143">
        <ele>73</ele>
        <time>2020-12-17T12:42:50.000Z</time>
      </trkpt>
      <trkpt lat="47.14786" lon="-1.71447">
        <ele>73</ele>
        <time>2020-12-17T12:42:52.000Z</time>
      </trkpt>
      <trkpt lat="47.14788" lon="-1.71465">
        <ele>74</ele>
        <time>2020-12-17T12:42:54.000Z</time>
      </trkpt>
      <trkpt lat="47.14791" lon="-1.71483">
        <ele>73</ele>
        <time>2020-12-17T12:42:56.000Z</time>
      </trkpt>
      <trkpt lat="47.14794" lon="-1.71509">
        <ele>74</ele>
        <time>2020-12-17T12:42:59.000Z</time>
      </trkpt>
      <trkpt lat="47.14795" lon="-1.71526">
        <ele>74</ele>
        <time>2020-12-17T12:43:01.000Z</time>
      </trkpt>
      <trkpt lat="47.14796" lon="-1.71544">
        <ele>74</ele>
        <time>2020-12-17T12:43:03.000Z</time>
      </trkpt>
      <trkpt lat="47.14794" lon="-1.71561">
        <ele>74</ele>
        <time>2020-12-17T12:43:05.000Z</time>
      </trkpt>
      <trkpt lat="47.14792" lon="-1.71587">
        <ele>74</ele>
        <time>2020-12-17T12:43:08.000Z</time>
      </trkpt>
      <trkpt lat="47.1479" lon="-1.71605">
        <ele>74</ele>
        <time>2020-12-17T12:43:10.000Z</time>
      </trkpt>
      <trkpt lat="47.14787" lon="-1.71622">
        <ele>74</ele>
        <time>2020-12-17T12:43:12.000Z</time>
      </trkpt>
      <trkpt lat="47.14784" lon="-1.71639">
        <ele>74</ele>
        <time>2020-12-17T12:43:14.000Z</time>
      </trkpt>
      <trkpt lat="47.14782" lon="-1.71656">
        <ele>74</ele>
        <time>2020-12-17T12:43:16.000Z</time>
      </trkpt>
      <trkpt lat="47.14779" lon="-1.71673">
        <ele>74</ele>
        <time>2020-12-17T12:43:18.000Z</time>
      </trkpt>
      <trkpt lat="47.14776" lon="-1.71689">
        <ele>74</ele>
        <time>2020-12-17T12:43:20.000Z</time>
      </trkpt>
      <trkpt lat="47.14774" lon="-1.71706">
        <ele>74</ele>
        <time>2020-12-17T12:43:22.000Z</time>
      </trkpt>
      <trkpt lat="47.14772" lon="-1.71721">
        <ele>74</ele>
        <time>2020-12-17T12:43:24.000Z</time>
      </trkpt>
      <trkpt lat="47.14769" lon="-1.71737">
        <ele>74</ele>
        <time>2020-12-17T12:43:26.000Z</time>
      </trkpt>
      <trkpt lat="47.14766" lon="-1.71753">
        <ele>75</ele>
        <time>2020-12-17T12:43:28.000Z</time>
      </trkpt>
      <trkpt lat="47.14762" lon="-1.71768">
        <ele>75</ele>
        <time>2020-12-17T12:43:30.000Z</time>
      </trkpt>
      <trkpt lat="47.14756" lon="-1.71782">
        <ele>75</ele>
        <time>2020-12-17T12:43:32.000Z</time>
      </trkpt>
      <trkpt lat="47.14746" lon="-1.71801">
        <ele>75</ele>
        <time>2020-12-17T12:43:35.000Z</time>
      </trkpt>
      <trkpt lat="47.14736" lon="-1.71811">
        <ele>75</ele>
        <time>2020-12-17T12:43:37.000Z</time>
      </trkpt>
      <trkpt lat="47.1472" lon="-1.71823">
        <ele>74</ele>
        <time>2020-12-17T12:43:40.000Z</time>
      </trkpt>
      <trkpt lat="47.14709" lon="-1.71828">
        <ele>75</ele>
        <time>2020-12-17T12:43:42.000Z</time>
      </trkpt>
      <trkpt lat="47.14697" lon="-1.71833">
        <ele>75</ele>
        <time>2020-12-17T12:43:44.000Z</time>
      </trkpt>
      <trkpt lat="47.14686" lon="-1.71839">
        <ele>74</ele>
        <time>2020-12-17T12:43:46.000Z</time>
      </trkpt>
      <trkpt lat="47.14675" lon="-1.71845">
        <ele>74</ele>
        <time>2020-12-17T12:43:48.000Z</time>
      </trkpt>
      <trkpt lat="47.14658" lon="-1.71852">
        <ele>73</ele>
        <time>2020-12-17T12:43:51.000Z</time>
      </trkpt>
      <trkpt lat="47.14646" lon="-1.71854">
        <ele>73</ele>
        <time>2020-12-17T12:43:53.000Z</time>
      </trkpt>
      <trkpt lat="47.14634" lon="-1.71855">
        <ele>73</ele>
        <time>2020-12-17T12:43:55.000Z</time>
      </trkpt>
      <trkpt lat="47.14623" lon="-1.71855">
        <ele>72</ele>
        <time>2020-12-17T12:43:57.000Z</time>
      </trkpt>
      <trkpt lat="47.14611" lon="-1.71854">
        <ele>72</ele>
        <time>2020-12-17T12:43:59.000Z</time>
      </trkpt>
      <trkpt lat="47.14598" lon="-1.71851">
        <ele>72</ele>
        <time>2020-12-17T12:44:01.000Z</time>
      </trkpt>
      <trkpt lat="47.14586" lon="-1.71845">
        <ele>71</ele>
        <time>2020-12-17T12:44:03.000Z</time>
      </trkpt>
      <trkpt lat="47.14575" lon="-1.7184">
        <ele>71</ele>
        <time>2020-12-17T12:44:05.000Z</time>
      </trkpt>
      <trkpt lat="47.14563" lon="-1.71835">
        <ele>71</ele>
        <time>2020-12-17T12:44:07.000Z</time>
      </trkpt>
      <trkpt lat="47.14552" lon="-1.71829">
        <ele>71</ele>
        <time>2020-12-17T12:44:09.000Z</time>
      </trkpt>
      <trkpt lat="47.1454" lon="-1.71824">
        <ele>70</ele>
        <time>2020-12-17T12:44:11.000Z</time>
      </trkpt>
      <trkpt lat="47.14529" lon="-1.71818">
        <ele>70</ele>
        <time>2020-12-17T12:44:13.000Z</time>
      </trkpt>
      <trkpt lat="47.14518" lon="-1.71813">
        <ele>70</ele>
        <time>2020-12-17T12:44:15.000Z</time>
      </trkpt>
      <trkpt lat="47.145" lon="-1.71804">
        <ele>69</ele>
        <time>2020-12-17T12:44:18.000Z</time>
      </trkpt>
      <trkpt lat="47.14483" lon="-1.71796">
        <ele>69</ele>
        <time>2020-12-17T12:44:21.000Z</time>
      </trkpt>
      <trkpt lat="47.14472" lon="-1.71791">
        <ele>69</ele>
        <time>2020-12-17T12:44:23.000Z</time>
      </trkpt>
      <trkpt lat="47.1446" lon="-1.71786">
        <ele>69</ele>
        <time>2020-12-17T12:44:25.000Z</time>
      </trkpt>
      <trkpt lat="47.14449" lon="-1.71782">
        <ele>69</ele>
        <time>2020-12-17T12:44:27.000Z</time>
      </trkpt>
      <trkpt lat="47.14437" lon="-1.7178">
        <ele>69</ele>
        <time>2020-12-17T12:44:29.000Z</time>
      </trkpt>
      <trkpt lat="47.14424" lon="-1.71779">
        <ele>69</ele>
        <time>2020-12-17T12:44:31.000Z</time>
      </trkpt>
      <trkpt lat="47.14412" lon="-1.7178">
        <ele>69</ele>
        <time>2020-12-17T12:44:33.000Z</time>
      </trkpt>
      <trkpt lat="47.144" lon="-1.71782">
        <ele>69</ele>
        <time>2020-12-17T12:44:35.000Z</time>
      </trkpt>
      <trkpt lat="47.14382" lon="-1.71787">
        <ele>68</ele>
        <time>2020-12-17T12:44:38.000Z</time>
      </trkpt>
      <trkpt lat="47.1437" lon="-1.71791">
        <ele>68</ele>
        <time>2020-12-17T12:44:40.000Z</time>
      </trkpt>
      <trkpt lat="47.14358" lon="-1.71795">
        <ele>68</ele>
        <time>2020-12-17T12:44:42.000Z</time>
      </trkpt>
      <trkpt lat="47.14346" lon="-1.71799">
        <ele>68</ele>
        <time>2020-12-17T12:44:44.000Z</time>
      </trkpt>
      <trkpt lat="47.14334" lon="-1.71803">
        <ele>68</ele>
        <time>2020-12-17T12:44:46.000Z</time>
      </trkpt>
      <trkpt lat="47.14322" lon="-1.71807">
        <ele>68</ele>
        <time>2020-12-17T12:44:48.000Z</time>
      </trkpt>
      <trkpt lat="47.1431" lon="-1.71811">
        <ele>68</ele>
        <time>2020-12-17T12:44:50.000Z</time>
      </trkpt>
      <trkpt lat="47.14298" lon="-1.71815">
        <ele>67</ele>
        <time>2020-12-17T12:44:52.000Z</time>
      </trkpt>
      <trkpt lat="47.14285" lon="-1.71819">
        <ele>67</ele>
        <time>2020-12-17T12:44:54.000Z</time>
      </trkpt>
      <trkpt lat="47.14273" lon="-1.71823">
        <ele>67</ele>
        <time>2020-12-17T12:44:56.000Z</time>
      </trkpt>
      <trkpt lat="47.1426" lon="-1.71827">
        <ele>66</ele>
        <time>2020-12-17T12:44:58.000Z</time>
      </trkpt>
      <trkpt lat="47.14248" lon="-1.71831">
        <ele>66</ele>
        <time>2020-12-17T12:45:00.000Z</time>
      </trkpt>
      <trkpt lat="47.14236" lon="-1.71834">
        <ele>65</ele>
        <time>2020-12-17T12:45:02.000Z</time>
      </trkpt>
      <trkpt lat="47.14225" lon="-1.71839">
        <ele>65</ele>
        <time>2020-12-17T12:45:04.000Z</time>
      </trkpt>
      <trkpt lat="47.14213" lon="-1.71842">
        <ele>65</ele>
        <time>2020-12-17T12:45:06.000Z</time>
      </trkpt>
      <trkpt lat="47.14201" lon="-1.71846">
        <ele>65</ele>
        <time>2020-12-17T12:45:08.000Z</time>
      </trkpt>
      <trkpt lat="47.1419" lon="-1.7185">
        <ele>64</ele>
        <time>2020-12-17T12:45:10.000Z</time>
      </trkpt>
      <trkpt lat="47.14178" lon="-1.71854">
        <ele>64</ele>
        <time>2020-12-17T12:45:12.000Z</time>
      </trkpt>
      <trkpt lat="47.14166" lon="-1.71858">
        <ele>64</ele>
        <time>2020-12-17T12:45:14.000Z</time>
      </trkpt>
      <trkpt lat="47.14154" lon="-1.71862">
        <ele>64</ele>
        <time>2020-12-17T12:45:16.000Z</time>
      </trkpt>
      <trkpt lat="47.14141" lon="-1.71866">
        <ele>63</ele>
        <time>2020-12-17T12:45:18.000Z</time>
      </trkpt>
      <trkpt lat="47.14128" lon="-1.71871">
        <ele>63</ele>
        <time>2020-12-17T12:45:20.000Z</time>
      </trkpt>
      <trkpt lat="47.14114" lon="-1.71876">
        <ele>62</ele>
        <time>2020-12-17T12:45:22.000Z</time>
      </trkpt>
      <trkpt lat="47.14101" lon="-1.7188">
        <ele>61</ele>
        <time>2020-12-17T12:45:24.000Z</time>
      </trkpt>
      <trkpt lat="47.14088" lon="-1.71885">
        <ele>61</ele>
        <time>2020-12-17T12:45:26.000Z</time>
      </trkpt>
      <trkpt lat="47.14068" lon="-1.71892">
        <ele>60</ele>
        <time>2020-12-17T12:45:29.000Z</time>
      </trkpt>
      <trkpt lat="47.14055" lon="-1.71896">
        <ele>59</ele>
        <time>2020-12-17T12:45:31.000Z</time>
      </trkpt>
      <trkpt lat="47.14042" lon="-1.71899">
        <ele>59</ele>
        <time>2020-12-17T12:45:33.000Z</time>
      </trkpt>
      <trkpt lat="47.14029" lon="-1.71903">
        <ele>58</ele>
        <time>2020-12-17T12:45:35.000Z</time>
      </trkpt>
      <trkpt lat="47.14016" lon="-1.71905">
        <ele>58</ele>
        <time>2020-12-17T12:45:37.000Z</time>
      </trkpt>
      <trkpt lat="47.14001" lon="-1.71902">
        <ele>57</ele>
        <time>2020-12-17T12:45:39.000Z</time>
      </trkpt>
      <trkpt lat="47.13987" lon="-1.71899">
        <ele>56</ele>
        <time>2020-12-17T12:45:41.000Z</time>
      </trkpt>
      <trkpt lat="47.13975" lon="-1.719">
        <ele>57</ele>
        <time>2020-12-17T12:45:43.000Z</time>
      </trkpt>
      <trkpt lat="47.13968" lon="-1.71913">
        <ele>56</ele>
        <time>2020-12-17T12:45:45.000Z</time>
      </trkpt>
      <trkpt lat="47.13967" lon="-1.71931">
        <ele>57</ele>
        <time>2020-12-17T12:45:47.000Z</time>
      </trkpt>
      <trkpt lat="47.13968" lon="-1.71949">
        <ele>58</ele>
        <time>2020-12-17T12:45:49.000Z</time>
      </trkpt>
      <trkpt lat="47.13962" lon="-1.71962">
        <ele>58</ele>
        <time>2020-12-17T12:45:51.000Z</time>
      </trkpt>
      <trkpt lat="47.13952" lon="-1.71971">
        <ele>57</ele>
        <time>2020-12-17T12:45:53.000Z</time>
      </trkpt>
      <trkpt lat="47.1394" lon="-1.71978">
        <ele>58</ele>
        <time>2020-12-17T12:45:55.000Z</time>
      </trkpt>
      <trkpt lat="47.13929" lon="-1.71985">
        <ele>58</ele>
        <time>2020-12-17T12:45:57.000Z</time>
      </trkpt>
      <trkpt lat="47.13918" lon="-1.7199">
        <ele>58</ele>
        <time>2020-12-17T12:45:59.000Z</time>
      </trkpt>
      <trkpt lat="47.13908" lon="-1.71996">
        <ele>58</ele>
        <time>2020-12-17T12:46:01.000Z</time>
      </trkpt>
      <trkpt lat="47.13897" lon="-1.72002">
        <ele>58</ele>
        <time>2020-12-17T12:46:03.000Z</time>
      </trkpt>
      <trkpt lat="47.13887" lon="-1.72009">
        <ele>59</ele>
        <time>2020-12-17T12:46:05.000Z</time>
      </trkpt>
      <trkpt lat="47.13877" lon="-1.72019">
        <ele>59</ele>
        <time>2020-12-17T12:46:07.000Z</time>
      </trkpt>
      <trkpt lat="47.13868" lon="-1.7203">
        <ele>59</ele>
        <time>2020-12-17T12:46:09.000Z</time>
      </trkpt>
      <trkpt lat="47.1386" lon="-1.72042">
        <ele>59</ele>
        <time>2020-12-17T12:46:11.000Z</time>
      </trkpt>
      <trkpt lat="47.13853" lon="-1.72054">
        <ele>59</ele>
        <time>2020-12-17T12:46:13.000Z</time>
      </trkpt>
      <trkpt lat="47.13845" lon="-1.72066">
        <ele>59</ele>
        <time>2020-12-17T12:46:15.000Z</time>
      </trkpt>
      <trkpt lat="47.13838" lon="-1.72079">
        <ele>59</ele>
        <time>2020-12-17T12:46:17.000Z</time>
      </trkpt>
      <trkpt lat="47.13831" lon="-1.72091">
        <ele>60</ele>
        <time>2020-12-17T12:46:19.000Z</time>
      </trkpt>
      <trkpt lat="47.13824" lon="-1.72103">
        <ele>60</ele>
        <time>2020-12-17T12:46:21.000Z</time>
      </trkpt>
      <trkpt lat="47.13817" lon="-1.72115">
        <ele>60</ele>
        <time>2020-12-17T12:46:23.000Z</time>
      </trkpt>
      <trkpt lat="47.1381" lon="-1.72126">
        <ele>61</ele>
        <time>2020-12-17T12:46:25.000Z</time>
      </trkpt>
      <trkpt lat="47.13803" lon="-1.72138">
        <ele>61</ele>
        <time>2020-12-17T12:46:27.000Z</time>
      </trkpt>
      <trkpt lat="47.13796" lon="-1.72149">
        <ele>62</ele>
        <time>2020-12-17T12:46:29.000Z</time>
      </trkpt>
      <trkpt lat="47.13789" lon="-1.72161">
        <ele>63</ele>
        <time>2020-12-17T12:46:31.000Z</time>
      </trkpt>
      <trkpt lat="47.13782" lon="-1.72173">
        <ele>63</ele>
        <time>2020-12-17T12:46:33.000Z</time>
      </trkpt>
      <trkpt lat="47.13775" lon="-1.72185">
        <ele>63</ele>
        <time>2020-12-17T12:46:35.000Z</time>
      </trkpt>
      <trkpt lat="47.13769" lon="-1.72197">
        <ele>63</ele>
        <time>2020-12-17T12:46:37.000Z</time>
      </trkpt>
      <trkpt lat="47.13762" lon="-1.7221">
        <ele>63</ele>
        <time>2020-12-17T12:46:39.000Z</time>
      </trkpt>
      <trkpt lat="47.13756" lon="-1.72221">
        <ele>63</ele>
        <time>2020-12-17T12:46:41.000Z</time>
      </trkpt>
      <trkpt lat="47.1375" lon="-1.72232">
        <ele>64</ele>
        <time>2020-12-17T12:46:43.000Z</time>
      </trkpt>
      <trkpt lat="47.13745" lon="-1.72246">
        <ele>64</ele>
        <time>2020-12-17T12:46:45.000Z</time>
      </trkpt>
      <trkpt lat="47.13742" lon="-1.72261">
        <ele>64</ele>
        <time>2020-12-17T12:46:47.000Z</time>
      </trkpt>
      <trkpt lat="47.13739" lon="-1.72276">
        <ele>65</ele>
        <time>2020-12-17T12:46:49.000Z</time>
      </trkpt>
      <trkpt lat="47.13737" lon="-1.72291">
        <ele>65</ele>
        <time>2020-12-17T12:46:51.000Z</time>
      </trkpt>
      <trkpt lat="47.13735" lon="-1.72307">
        <ele>66</ele>
        <time>2020-12-17T12:46:53.000Z</time>
      </trkpt>
      <trkpt lat="47.13733" lon="-1.72322">
        <ele>66</ele>
        <time>2020-12-17T12:46:55.000Z</time>
      </trkpt>
      <trkpt lat="47.13731" lon="-1.72337">
        <ele>66</ele>
        <time>2020-12-17T12:46:57.000Z</time>
      </trkpt>
      <trkpt lat="47.13729" lon="-1.72351">
        <ele>66</ele>
        <time>2020-12-17T12:46:59.000Z</time>
      </trkpt>
      <trkpt lat="47.13726" lon="-1.72366">
        <ele>66</ele>
        <time>2020-12-17T12:47:01.000Z</time>
      </trkpt>
      <trkpt lat="47.13722" lon="-1.7238">
        <ele>67</ele>
        <time>2020-12-17T12:47:03.000Z</time>
      </trkpt>
      <trkpt lat="47.13718" lon="-1.72395">
        <ele>67</ele>
        <time>2020-12-17T12:47:05.000Z</time>
      </trkpt>
      <trkpt lat="47.13714" lon="-1.7241">
        <ele>67</ele>
        <time>2020-12-17T12:47:07.000Z</time>
      </trkpt>
      <trkpt lat="47.1371" lon="-1.72424">
        <ele>67</ele>
        <time>2020-12-17T12:47:09.000Z</time>
      </trkpt>
      <trkpt lat="47.13706" lon="-1.72438">
        <ele>68</ele>
        <time>2020-12-17T12:47:11.000Z</time>
      </trkpt>
      <trkpt lat="47.13702" lon="-1.72453">
        <ele>68</ele>
        <time>2020-12-17T12:47:13.000Z</time>
      </trkpt>
      <trkpt lat="47.13697" lon="-1.72467">
        <ele>69</ele>
        <time>2020-12-17T12:47:15.000Z</time>
      </trkpt>
      <trkpt lat="47.13693" lon="-1.72482">
        <ele>69</ele>
        <time>2020-12-17T12:47:17.000Z</time>
      </trkpt>
      <trkpt lat="47.13689" lon="-1.72497">
        <ele>69</ele>
        <time>2020-12-17T12:47:19.000Z</time>
      </trkpt>
      <trkpt lat="47.13686" lon="-1.72512">
        <ele>69</ele>
        <time>2020-12-17T12:47:21.000Z</time>
      </trkpt>
      <trkpt lat="47.13684" lon="-1.72528">
        <ele>70</ele>
        <time>2020-12-17T12:47:23.000Z</time>
      </trkpt>
      <trkpt lat="47.13682" lon="-1.72545">
        <ele>70</ele>
        <time>2020-12-17T12:47:25.000Z</time>
      </trkpt>
      <trkpt lat="47.13682" lon="-1.7256">
        <ele>70</ele>
        <time>2020-12-17T12:47:27.000Z</time>
      </trkpt>
      <trkpt lat="47.13681" lon="-1.72576">
        <ele>70</ele>
        <time>2020-12-17T12:47:29.000Z</time>
      </trkpt>
      <trkpt lat="47.13681" lon="-1.72592">
        <ele>70</ele>
        <time>2020-12-17T12:47:31.000Z</time>
      </trkpt>
      <trkpt lat="47.1368" lon="-1.72608">
        <ele>70</ele>
        <time>2020-12-17T12:47:33.000Z</time>
      </trkpt>
      <trkpt lat="47.1368" lon="-1.72623">
        <ele>71</ele>
        <time>2020-12-17T12:47:35.000Z</time>
      </trkpt>
      <trkpt lat="47.13678" lon="-1.72639">
        <ele>71</ele>
        <time>2020-12-17T12:47:37.000Z</time>
      </trkpt>
      <trkpt lat="47.13675" lon="-1.72654">
        <ele>72</ele>
        <time>2020-12-17T12:47:39.000Z</time>
      </trkpt>
      <trkpt lat="47.13673" lon="-1.72669">
        <ele>72</ele>
        <time>2020-12-17T12:47:41.000Z</time>
      </trkpt>
      <trkpt lat="47.13671" lon="-1.72684">
        <ele>72</ele>
        <time>2020-12-17T12:47:43.000Z</time>
      </trkpt>
      <trkpt lat="47.13668" lon="-1.72699">
        <ele>72</ele>
        <time>2020-12-17T12:47:45.000Z</time>
      </trkpt>
      <trkpt lat="47.13665" lon="-1.72715">
        <ele>72</ele>
        <time>2020-12-17T12:47:47.000Z</time>
      </trkpt>
      <trkpt lat="47.13664" lon="-1.7273">
        <ele>73</ele>
        <time>2020-12-17T12:47:49.000Z</time>
      </trkpt>
      <trkpt lat="47.13663" lon="-1.72745">
        <ele>73</ele>
        <time>2020-12-17T12:47:51.000Z</time>
      </trkpt>
      <trkpt lat="47.13663" lon="-1.72761">
        <ele>73</ele>
        <time>2020-12-17T12:47:53.000Z</time>
      </trkpt>
      <trkpt lat="47.13662" lon="-1.72775">
        <ele>73</ele>
        <time>2020-12-17T12:47:55.000Z</time>
      </trkpt>
      <trkpt lat="47.1366" lon="-1.7279">
        <ele>73</ele>
        <time>2020-12-17T12:47:57.000Z</time>
      </trkpt>
      <trkpt lat="47.1366" lon="-1.72806">
        <ele>73</ele>
        <time>2020-12-17T12:47:59.000Z</time>
      </trkpt>
      <trkpt lat="47.13658" lon="-1.72822">
        <ele>72</ele>
        <time>2020-12-17T12:48:01.000Z</time>
      </trkpt>
      <trkpt lat="47.13657" lon="-1.72839">
        <ele>71</ele>
        <time>2020-12-17T12:48:03.000Z</time>
      </trkpt>
      <trkpt lat="47.13655" lon="-1.72856">
        <ele>71</ele>
        <time>2020-12-17T12:48:05.000Z</time>
      </trkpt>
      <trkpt lat="47.13653" lon="-1.72875">
        <ele>71</ele>
        <time>2020-12-17T12:48:07.000Z</time>
      </trkpt>
      <trkpt lat="47.13651" lon="-1.72894">
        <ele>69</ele>
        <time>2020-12-17T12:48:09.000Z</time>
      </trkpt>
      <trkpt lat="47.1365" lon="-1.72914">
        <ele>68</ele>
        <time>2020-12-17T12:48:11.000Z</time>
      </trkpt>
      <trkpt lat="47.13648" lon="-1.72935">
        <ele>68</ele>
        <time>2020-12-17T12:48:13.000Z</time>
      </trkpt>
      <trkpt lat="47.13646" lon="-1.72956">
        <ele>66</ele>
        <time>2020-12-17T12:48:15.000Z</time>
      </trkpt>
      <trkpt lat="47.13644" lon="-1.72979">
        <ele>66</ele>
        <time>2020-12-17T12:48:17.000Z</time>
      </trkpt>
      <trkpt lat="47.13642" lon="-1.73002">
        <ele>64</ele>
        <time>2020-12-17T12:48:19.000Z</time>
      </trkpt>
      <trkpt lat="47.13638" lon="-1.73026">
        <ele>64</ele>
        <time>2020-12-17T12:48:21.000Z</time>
      </trkpt>
      <trkpt lat="47.13629" lon="-1.73045">
        <ele>63</ele>
        <time>2020-12-17T12:48:23.000Z</time>
      </trkpt>
      <trkpt lat="47.13616" lon="-1.73057">
        <ele>63</ele>
        <time>2020-12-17T12:48:25.000Z</time>
      </trkpt>
      <trkpt lat="47.13602" lon="-1.73069">
        <ele>62</ele>
        <time>2020-12-17T12:48:27.000Z</time>
      </trkpt>
      <trkpt lat="47.13589" lon="-1.73079">
        <ele>61</ele>
        <time>2020-12-17T12:48:29.000Z</time>
      </trkpt>
      <trkpt lat="47.13578" lon="-1.73088">
        <ele>61</ele>
        <time>2020-12-17T12:48:31.000Z</time>
      </trkpt>
      <trkpt lat="47.13566" lon="-1.73099">
        <ele>61</ele>
        <time>2020-12-17T12:48:33.000Z</time>
      </trkpt>
      <trkpt lat="47.13555" lon="-1.73111">
        <ele>62</ele>
        <time>2020-12-17T12:48:35.000Z</time>
      </trkpt>
      <trkpt lat="47.13544" lon="-1.73123">
        <ele>61</ele>
        <time>2020-12-17T12:48:37.000Z</time>
      </trkpt>
      <trkpt lat="47.13533" lon="-1.73135">
        <ele>60</ele>
        <time>2020-12-17T12:48:39.000Z</time>
      </trkpt>
      <trkpt lat="47.13523" lon="-1.7315">
        <ele>59</ele>
        <time>2020-12-17T12:48:41.000Z</time>
      </trkpt>
      <trkpt lat="47.13516" lon="-1.73167">
        <ele>59</ele>
        <time>2020-12-17T12:48:43.000Z</time>
      </trkpt>
      <trkpt lat="47.13514" lon="-1.73186">
        <ele>59</ele>
        <time>2020-12-17T12:48:45.000Z</time>
      </trkpt>
      <trkpt lat="47.13511" lon="-1.73206">
        <ele>59</ele>
        <time>2020-12-17T12:48:47.000Z</time>
      </trkpt>
      <trkpt lat="47.1351" lon="-1.73226">
        <ele>58</ele>
        <time>2020-12-17T12:48:49.000Z</time>
      </trkpt>
      <trkpt lat="47.13508" lon="-1.73246">
        <ele>58</ele>
        <time>2020-12-17T12:48:51.000Z</time>
      </trkpt>
      <trkpt lat="47.13506" lon="-1.73267">
        <ele>57</ele>
        <time>2020-12-17T12:48:53.000Z</time>
      </trkpt>
      <trkpt lat="47.13505" lon="-1.73288">
        <ele>57</ele>
        <time>2020-12-17T12:48:55.000Z</time>
      </trkpt>
      <trkpt lat="47.13508" lon="-1.73307">
        <ele>57</ele>
        <time>2020-12-17T12:48:57.000Z</time>
      </trkpt>
      <trkpt lat="47.13512" lon="-1.73326">
        <ele>57</ele>
        <time>2020-12-17T12:48:59.000Z</time>
      </trkpt>
      <trkpt lat="47.13517" lon="-1.73344">
        <ele>57</ele>
        <time>2020-12-17T12:49:01.000Z</time>
      </trkpt>
      <trkpt lat="47.13522" lon="-1.7336">
        <ele>58</ele>
        <time>2020-12-17T12:49:03.000Z</time>
      </trkpt>
      <trkpt lat="47.13527" lon="-1.73376">
        <ele>59</ele>
        <time>2020-12-17T12:49:05.000Z</time>
      </trkpt>
      <trkpt lat="47.13533" lon="-1.73391">
        <ele>59</ele>
        <time>2020-12-17T12:49:07.000Z</time>
      </trkpt>
      <trkpt lat="47.13538" lon="-1.73407">
        <ele>59</ele>
        <time>2020-12-17T12:49:09.000Z</time>
      </trkpt>
      <trkpt lat="47.13543" lon="-1.73423">
        <ele>60</ele>
        <time>2020-12-17T12:49:11.000Z</time>
      </trkpt>
      <trkpt lat="47.13547" lon="-1.73439">
        <ele>60</ele>
        <time>2020-12-17T12:49:13.000Z</time>
      </trkpt>
      <trkpt lat="47.13552" lon="-1.73456">
        <ele>61</ele>
        <time>2020-12-17T12:49:15.000Z</time>
      </trkpt>
      <trkpt lat="47.13557" lon="-1.73473">
        <ele>62</ele>
        <time>2020-12-17T12:49:17.000Z</time>
      </trkpt>
      <trkpt lat="47.13562" lon="-1.73489">
        <ele>62</ele>
        <time>2020-12-17T12:49:19.000Z</time>
      </trkpt>
      <trkpt lat="47.13567" lon="-1.73506">
        <ele>62</ele>
        <time>2020-12-17T12:49:21.000Z</time>
      </trkpt>
      <trkpt lat="47.13571" lon="-1.73522">
        <ele>62</ele>
        <time>2020-12-17T12:49:23.000Z</time>
      </trkpt>
      <trkpt lat="47.13576" lon="-1.73539">
        <ele>61</ele>
        <time>2020-12-17T12:49:25.000Z</time>
      </trkpt>
      <trkpt lat="47.13581" lon="-1.73555">
        <ele>61</ele>
        <time>2020-12-17T12:49:27.000Z</time>
      </trkpt>
      <trkpt lat="47.13587" lon="-1.73572">
        <ele>61</ele>
        <time>2020-12-17T12:49:29.000Z</time>
      </trkpt>
      <trkpt lat="47.13593" lon="-1.73588">
        <ele>61</ele>
        <time>2020-12-17T12:49:31.000Z</time>
      </trkpt>
      <trkpt lat="47.13599" lon="-1.73604">
        <ele>60</ele>
        <time>2020-12-17T12:49:33.000Z</time>
      </trkpt>
      <trkpt lat="47.13605" lon="-1.7362">
        <ele>61</ele>
        <time>2020-12-17T12:49:35.000Z</time>
      </trkpt>
      <trkpt lat="47.1361" lon="-1.73637">
        <ele>61</ele>
        <time>2020-12-17T12:49:37.000Z</time>
      </trkpt>
      <trkpt lat="47.13616" lon="-1.73653">
        <ele>61</ele>
        <time>2020-12-17T12:49:39.000Z</time>
      </trkpt>
      <trkpt lat="47.13622" lon="-1.7367">
        <ele>61</ele>
        <time>2020-12-17T12:49:41.000Z</time>
      </trkpt>
      <trkpt lat="47.13628" lon="-1.73687">
        <ele>61</ele>
        <time>2020-12-17T12:49:43.000Z</time>
      </trkpt>
      <trkpt lat="47.13633" lon="-1.73705">
        <ele>61</ele>
        <time>2020-12-17T12:49:45.000Z</time>
      </trkpt>
      <trkpt lat="47.13637" lon="-1.73721">
        <ele>62</ele>
        <time>2020-12-17T12:49:47.000Z</time>
      </trkpt>
      <trkpt lat="47.13641" lon="-1.7374">
        <ele>61</ele>
        <time>2020-12-17T12:49:49.000Z</time>
      </trkpt>
      <trkpt lat="47.13644" lon="-1.73759">
        <ele>61</ele>
        <time>2020-12-17T12:49:51.000Z</time>
      </trkpt>
      <trkpt lat="47.13647" lon="-1.73779">
        <ele>60</ele>
        <time>2020-12-17T12:49:53.000Z</time>
      </trkpt>
      <trkpt lat="47.13648" lon="-1.738">
        <ele>59</ele>
        <time>2020-12-17T12:49:55.000Z</time>
      </trkpt>
      <trkpt lat="47.1365" lon="-1.73822">
        <ele>59</ele>
        <time>2020-12-17T12:49:57.000Z</time>
      </trkpt>
      <trkpt lat="47.13652" lon="-1.73842">
        <ele>59</ele>
        <time>2020-12-17T12:49:59.000Z</time>
      </trkpt>
      <trkpt lat="47.13653" lon="-1.73864">
        <ele>59</ele>
        <time>2020-12-17T12:50:01.000Z</time>
      </trkpt>
      <trkpt lat="47.13652" lon="-1.73885">
        <ele>59</ele>
        <time>2020-12-17T12:50:03.000Z</time>
      </trkpt>
      <trkpt lat="47.13652" lon="-1.73904">
        <ele>59</ele>
        <time>2020-12-17T12:50:05.000Z</time>
      </trkpt>
      <trkpt lat="47.13652" lon="-1.73922">
        <ele>60</ele>
        <time>2020-12-17T12:50:07.000Z</time>
      </trkpt>
      <trkpt lat="47.13651" lon="-1.7394">
        <ele>60</ele>
        <time>2020-12-17T12:50:09.000Z</time>
      </trkpt>
      <trkpt lat="47.13651" lon="-1.73956">
        <ele>61</ele>
        <time>2020-12-17T12:50:11.000Z</time>
      </trkpt>
      <trkpt lat="47.13651" lon="-1.73972">
        <ele>61</ele>
        <time>2020-12-17T12:50:13.000Z</time>
      </trkpt>
      <trkpt lat="47.13651" lon="-1.73988">
        <ele>61</ele>
        <time>2020-12-17T12:50:15.000Z</time>
      </trkpt>
      <trkpt lat="47.13649" lon="-1.74004">
        <ele>61</ele>
        <time>2020-12-17T12:50:17.000Z</time>
      </trkpt>
      <trkpt lat="47.13646" lon="-1.74021">
        <ele>62</ele>
        <time>2020-12-17T12:50:19.000Z</time>
      </trkpt>
      <trkpt lat="47.13644" lon="-1.74037">
        <ele>62</ele>
        <time>2020-12-17T12:50:21.000Z</time>
      </trkpt>
      <trkpt lat="47.13643" lon="-1.74054">
        <ele>63</ele>
        <time>2020-12-17T12:50:23.000Z</time>
      </trkpt>
      <trkpt lat="47.13642" lon="-1.74071">
        <ele>63</ele>
        <time>2020-12-17T12:50:25.000Z</time>
      </trkpt>
      <trkpt lat="47.13641" lon="-1.74088">
        <ele>63</ele>
        <time>2020-12-17T12:50:27.000Z</time>
      </trkpt>
      <trkpt lat="47.13642" lon="-1.74105">
        <ele>63</ele>
        <time>2020-12-17T12:50:29.000Z</time>
      </trkpt>
      <trkpt lat="47.13644" lon="-1.74122">
        <ele>63</ele>
        <time>2020-12-17T12:50:31.000Z</time>
      </trkpt>
      <trkpt lat="47.13646" lon="-1.74138">
        <ele>63</ele>
        <time>2020-12-17T12:50:33.000Z</time>
      </trkpt>
      <trkpt lat="47.13649" lon="-1.74155">
        <ele>63</ele>
        <time>2020-12-17T12:50:35.000Z</time>
      </trkpt>
      <trkpt lat="47.13652" lon="-1.74172">
        <ele>63</ele>
        <time>2020-12-17T12:50:37.000Z</time>
      </trkpt>
      <trkpt lat="47.13656" lon="-1.74187">
        <ele>63</ele>
        <time>2020-12-17T12:50:39.000Z</time>
      </trkpt>
      <trkpt lat="47.1366" lon="-1.74202">
        <ele>63</ele>
        <time>2020-12-17T12:50:41.000Z</time>
      </trkpt>
      <trkpt lat="47.13664" lon="-1.74218">
        <ele>63</ele>
        <time>2020-12-17T12:50:43.000Z</time>
      </trkpt>
      <trkpt lat="47.13668" lon="-1.74234">
        <ele>63</ele>
        <time>2020-12-17T12:50:45.000Z</time>
      </trkpt>
      <trkpt lat="47.13671" lon="-1.7425">
        <ele>62</ele>
        <time>2020-12-17T12:50:47.000Z</time>
      </trkpt>
      <trkpt lat="47.13676" lon="-1.74267">
        <ele>62</ele>
        <time>2020-12-17T12:50:49.000Z</time>
      </trkpt>
      <trkpt lat="47.13682" lon="-1.74283">
        <ele>63</ele>
        <time>2020-12-17T12:50:51.000Z</time>
      </trkpt>
      <trkpt lat="47.13688" lon="-1.74299">
        <ele>63</ele>
        <time>2020-12-17T12:50:53.000Z</time>
      </trkpt>
      <trkpt lat="47.13694" lon="-1.74317">
        <ele>62</ele>
        <time>2020-12-17T12:50:55.000Z</time>
      </trkpt>
      <trkpt lat="47.13697" lon="-1.74337">
        <ele>61</ele>
        <time>2020-12-17T12:50:57.000Z</time>
      </trkpt>
      <trkpt lat="47.13698" lon="-1.74357">
        <ele>60</ele>
        <time>2020-12-17T12:50:59.000Z</time>
      </trkpt>
      <trkpt lat="47.13698" lon="-1.74379">
        <ele>59</ele>
        <time>2020-12-17T12:51:01.000Z</time>
      </trkpt>
      <trkpt lat="47.13699" lon="-1.74402">
        <ele>59</ele>
        <time>2020-12-17T12:51:03.000Z</time>
      </trkpt>
      <trkpt lat="47.13699" lon="-1.74426">
        <ele>58</ele>
        <time>2020-12-17T12:51:05.000Z</time>
      </trkpt>
      <trkpt lat="47.13697" lon="-1.74448">
        <ele>57</ele>
        <time>2020-12-17T12:51:07.000Z</time>
      </trkpt>
      <trkpt lat="47.13687" lon="-1.74467">
        <ele>56</ele>
        <time>2020-12-17T12:51:09.000Z</time>
      </trkpt>
      <trkpt lat="47.13675" lon="-1.74484">
        <ele>55</ele>
        <time>2020-12-17T12:51:11.000Z</time>
      </trkpt>
      <trkpt lat="47.13663" lon="-1.74498">
        <ele>54</ele>
        <time>2020-12-17T12:51:13.000Z</time>
      </trkpt>
      <trkpt lat="47.13651" lon="-1.7451">
        <ele>54</ele>
        <time>2020-12-17T12:51:15.000Z</time>
      </trkpt>
      <trkpt lat="47.13639" lon="-1.74519">
        <ele>54</ele>
        <time>2020-12-17T12:51:17.000Z</time>
      </trkpt>
      <trkpt lat="47.13629" lon="-1.74528">
        <ele>54</ele>
        <time>2020-12-17T12:51:19.000Z</time>
      </trkpt>
      <trkpt lat="47.13619" lon="-1.74539">
        <ele>54</ele>
        <time>2020-12-17T12:51:21.000Z</time>
      </trkpt>
      <trkpt lat="47.13609" lon="-1.74551">
        <ele>53</ele>
        <time>2020-12-17T12:51:23.000Z</time>
      </trkpt>
      <trkpt lat="47.13597" lon="-1.74563">
        <ele>52</ele>
        <time>2020-12-17T12:51:25.000Z</time>
      </trkpt>
      <trkpt lat="47.13585" lon="-1.74576">
        <ele>51</ele>
        <time>2020-12-17T12:51:27.000Z</time>
      </trkpt>
      <trkpt lat="47.13574" lon="-1.74588">
        <ele>51</ele>
        <time>2020-12-17T12:51:29.000Z</time>
      </trkpt>
      <trkpt lat="47.1356" lon="-1.74599">
        <ele>51</ele>
        <time>2020-12-17T12:51:31.000Z</time>
      </trkpt>
      <trkpt lat="47.13548" lon="-1.74611">
        <ele>51</ele>
        <time>2020-12-17T12:51:33.000Z</time>
      </trkpt>
      <trkpt lat="47.13536" lon="-1.74622">
        <ele>51</ele>
        <time>2020-12-17T12:51:35.000Z</time>
      </trkpt>
      <trkpt lat="47.13525" lon="-1.74632">
        <ele>52</ele>
        <time>2020-12-17T12:51:37.000Z</time>
      </trkpt>
      <trkpt lat="47.13514" lon="-1.74642">
        <ele>52</ele>
        <time>2020-12-17T12:51:39.000Z</time>
      </trkpt>
      <trkpt lat="47.13505" lon="-1.74651">
        <ele>53</ele>
        <time>2020-12-17T12:51:41.000Z</time>
      </trkpt>
      <trkpt lat="47.13499" lon="-1.74662">
        <ele>53</ele>
        <time>2020-12-17T12:51:43.000Z</time>
      </trkpt>
      <trkpt lat="47.13494" lon="-1.74674">
        <ele>53</ele>
        <time>2020-12-17T12:51:45.000Z</time>
      </trkpt>
      <trkpt lat="47.1349" lon="-1.74687">
        <ele>54</ele>
        <time>2020-12-17T12:51:47.000Z</time>
      </trkpt>
      <trkpt lat="47.13485" lon="-1.74704">
        <ele>54</ele>
        <time>2020-12-17T12:51:50.000Z</time>
      </trkpt>
      <trkpt lat="47.13478" lon="-1.74721">
        <ele>56</ele>
        <time>2020-12-17T12:51:53.000Z</time>
      </trkpt>
      <trkpt lat="47.13472" lon="-1.74731">
        <ele>56</ele>
        <time>2020-12-17T12:51:55.000Z</time>
      </trkpt>
      <trkpt lat="47.13465" lon="-1.74739">
        <ele>57</ele>
        <time>2020-12-17T12:51:57.000Z</time>
      </trkpt>
      <trkpt lat="47.13457" lon="-1.74747">
        <ele>57</ele>
        <time>2020-12-17T12:51:59.000Z</time>
      </trkpt>
      <trkpt lat="47.13448" lon="-1.74754">
        <ele>58</ele>
        <time>2020-12-17T12:52:01.000Z</time>
      </trkpt>
      <trkpt lat="47.13439" lon="-1.7476">
        <ele>57</ele>
        <time>2020-12-17T12:52:03.000Z</time>
      </trkpt>
      <trkpt lat="47.13431" lon="-1.74766">
        <ele>57</ele>
        <time>2020-12-17T12:52:05.000Z</time>
      </trkpt>
      <trkpt lat="47.13422" lon="-1.74772">
        <ele>57</ele>
        <time>2020-12-17T12:52:07.000Z</time>
      </trkpt>
      <trkpt lat="47.13414" lon="-1.7478">
        <ele>57</ele>
        <time>2020-12-17T12:52:09.000Z</time>
      </trkpt>
      <trkpt lat="47.13406" lon="-1.74788">
        <ele>58</ele>
        <time>2020-12-17T12:52:11.000Z</time>
      </trkpt>
      <trkpt lat="47.13398" lon="-1.74797">
        <ele>58</ele>
        <time>2020-12-17T12:52:13.000Z</time>
      </trkpt>
      <trkpt lat="47.13391" lon="-1.74806">
        <ele>58</ele>
        <time>2020-12-17T12:52:15.000Z</time>
      </trkpt>
      <trkpt lat="47.13386" lon="-1.74818">
        <ele>59</ele>
        <time>2020-12-17T12:52:17.000Z</time>
      </trkpt>
      <trkpt lat="47.13382" lon="-1.7483">
        <ele>59</ele>
        <time>2020-12-17T12:52:19.000Z</time>
      </trkpt>
      <trkpt lat="47.13379" lon="-1.74843">
        <ele>59</ele>
        <time>2020-12-17T12:52:21.000Z</time>
      </trkpt>
      <trkpt lat="47.13377" lon="-1.74856">
        <ele>59</ele>
        <time>2020-12-17T12:52:23.000Z</time>
      </trkpt>
      <trkpt lat="47.13373" lon="-1.7487">
        <ele>60</ele>
        <time>2020-12-17T12:52:25.000Z</time>
      </trkpt>
      <trkpt lat="47.1337" lon="-1.74882">
        <ele>61</ele>
        <time>2020-12-17T12:52:27.000Z</time>
      </trkpt>
      <trkpt lat="47.13366" lon="-1.74895">
        <ele>61</ele>
        <time>2020-12-17T12:52:29.000Z</time>
      </trkpt>
      <trkpt lat="47.13362" lon="-1.74908">
        <ele>61</ele>
        <time>2020-12-17T12:52:31.000Z</time>
      </trkpt>
      <trkpt lat="47.13358" lon="-1.7492">
        <ele>61</ele>
        <time>2020-12-17T12:52:33.000Z</time>
      </trkpt>
      <trkpt lat="47.13353" lon="-1.74932">
        <ele>61</ele>
        <time>2020-12-17T12:52:35.000Z</time>
      </trkpt>
      <trkpt lat="47.13348" lon="-1.74944">
        <ele>61</ele>
        <time>2020-12-17T12:52:37.000Z</time>
      </trkpt>
      <trkpt lat="47.13343" lon="-1.74955">
        <ele>61</ele>
        <time>2020-12-17T12:52:39.000Z</time>
      </trkpt>
      <trkpt lat="47.13338" lon="-1.74966">
        <ele>61</ele>
        <time>2020-12-17T12:52:41.000Z</time>
      </trkpt>
      <trkpt lat="47.13332" lon="-1.74977">
        <ele>61</ele>
        <time>2020-12-17T12:52:43.000Z</time>
      </trkpt>
      <trkpt lat="47.13326" lon="-1.74987">
        <ele>61</ele>
        <time>2020-12-17T12:52:45.000Z</time>
      </trkpt>
      <trkpt lat="47.13318" lon="-1.74997">
        <ele>61</ele>
        <time>2020-12-17T12:52:47.000Z</time>
      </trkpt>
      <trkpt lat="47.13309" lon="-1.75006">
        <ele>61</ele>
        <time>2020-12-17T12:52:49.000Z</time>
      </trkpt>
      <trkpt lat="47.13301" lon="-1.75013">
        <ele>62</ele>
        <time>2020-12-17T12:52:51.000Z</time>
      </trkpt>
      <trkpt lat="47.13292" lon="-1.75019">
        <ele>62</ele>
        <time>2020-12-17T12:52:53.000Z</time>
      </trkpt>
      <trkpt lat="47.13284" lon="-1.75026">
        <ele>62</ele>
        <time>2020-12-17T12:52:55.000Z</time>
      </trkpt>
      <trkpt lat="47.13276" lon="-1.75034">
        <ele>63</ele>
        <time>2020-12-17T12:52:57.000Z</time>
      </trkpt>
      <trkpt lat="47.13268" lon="-1.7504">
        <ele>63</ele>
        <time>2020-12-17T12:52:59.000Z</time>
      </trkpt>
      <trkpt lat="47.13259" lon="-1.75045">
        <ele>63</ele>
        <time>2020-12-17T12:53:01.000Z</time>
      </trkpt>
      <trkpt lat="47.13251" lon="-1.75051">
        <ele>64</ele>
        <time>2020-12-17T12:53:03.000Z</time>
      </trkpt>
      <trkpt lat="47.13243" lon="-1.75059">
        <ele>64</ele>
        <time>2020-12-17T12:53:05.000Z</time>
      </trkpt>
      <trkpt lat="47.13233" lon="-1.7507">
        <ele>65</ele>
        <time>2020-12-17T12:53:08.000Z</time>
      </trkpt>
      <trkpt lat="47.13225" lon="-1.75078">
        <ele>65</ele>
        <time>2020-12-17T12:53:10.000Z</time>
      </trkpt>
      <trkpt lat="47.13216" lon="-1.75091">
        <ele>66</ele>
        <time>2020-12-17T12:53:13.000Z</time>
      </trkpt>
      <trkpt lat="47.13209" lon="-1.75101">
        <ele>66</ele>
        <time>2020-12-17T12:53:15.000Z</time>
      </trkpt>
      <trkpt lat="47.13202" lon="-1.75111">
        <ele>66</ele>
        <time>2020-12-17T12:53:17.000Z</time>
      </trkpt>
      <trkpt lat="47.13196" lon="-1.75121">
        <ele>66</ele>
        <time>2020-12-17T12:53:19.000Z</time>
      </trkpt>
      <trkpt lat="47.13191" lon="-1.75132">
        <ele>66</ele>
        <time>2020-12-17T12:53:21.000Z</time>
      </trkpt>
      <trkpt lat="47.13185" lon="-1.75143">
        <ele>66</ele>
        <time>2020-12-17T12:53:23.000Z</time>
      </trkpt>
      <trkpt lat="47.13178" lon="-1.7516">
        <ele>67</ele>
        <time>2020-12-17T12:53:26.000Z</time>
      </trkpt>
      <trkpt lat="47.13173" lon="-1.75173">
        <ele>68</ele>
        <time>2020-12-17T12:53:28.000Z</time>
      </trkpt>
      <trkpt lat="47.13169" lon="-1.75185">
        <ele>68</ele>
        <time>2020-12-17T12:53:30.000Z</time>
      </trkpt>
      <trkpt lat="47.13164" lon="-1.75199">
        <ele>68</ele>
        <time>2020-12-17T12:53:32.000Z</time>
      </trkpt>
      <trkpt lat="47.13161" lon="-1.75212">
        <ele>68</ele>
        <time>2020-12-17T12:53:34.000Z</time>
      </trkpt>
      <trkpt lat="47.13158" lon="-1.75226">
        <ele>68</ele>
        <time>2020-12-17T12:53:36.000Z</time>
      </trkpt>
      <trkpt lat="47.13155" lon="-1.7524">
        <ele>68</ele>
        <time>2020-12-17T12:53:38.000Z</time>
      </trkpt>
      <trkpt lat="47.13153" lon="-1.75254">
        <ele>68</ele>
        <time>2020-12-17T12:53:40.000Z</time>
      </trkpt>
      <trkpt lat="47.13151" lon="-1.75268">
        <ele>69</ele>
        <time>2020-12-17T12:53:42.000Z</time>
      </trkpt>
      <trkpt lat="47.13151" lon="-1.75282">
        <ele>69</ele>
        <time>2020-12-17T12:53:44.000Z</time>
      </trkpt>
      <trkpt lat="47.1315" lon="-1.75296">
        <ele>69</ele>
        <time>2020-12-17T12:53:46.000Z</time>
      </trkpt>
      <trkpt lat="47.13146" lon="-1.75309">
        <ele>69</ele>
        <time>2020-12-17T12:53:48.000Z</time>
      </trkpt>
      <trkpt lat="47.13142" lon="-1.75323">
        <ele>70</ele>
        <time>2020-12-17T12:53:50.000Z</time>
      </trkpt>
      <trkpt lat="47.13138" lon="-1.75336">
        <ele>70</ele>
        <time>2020-12-17T12:53:52.000Z</time>
      </trkpt>
      <trkpt lat="47.13135" lon="-1.7535">
        <ele>71</ele>
        <time>2020-12-17T12:53:54.000Z</time>
      </trkpt>
      <trkpt lat="47.13132" lon="-1.75363">
        <ele>71</ele>
        <time>2020-12-17T12:53:56.000Z</time>
      </trkpt>
      <trkpt lat="47.13128" lon="-1.75382">
        <ele>71</ele>
        <time>2020-12-17T12:53:59.000Z</time>
      </trkpt>
      <trkpt lat="47.13125" lon="-1.75399">
        <ele>71</ele>
        <time>2020-12-17T12:54:02.000Z</time>
      </trkpt>
      <trkpt lat="47.1312" lon="-1.75417">
        <ele>72</ele>
        <time>2020-12-17T12:54:05.000Z</time>
      </trkpt>
      <trkpt lat="47.13119" lon="-1.75436">
        <ele>73</ele>
        <time>2020-12-17T12:54:08.000Z</time>
      </trkpt>
      <trkpt lat="47.13117" lon="-1.75449">
        <ele>73</ele>
        <time>2020-12-17T12:54:10.000Z</time>
      </trkpt>
      <trkpt lat="47.13114" lon="-1.75462">
        <ele>72</ele>
        <time>2020-12-17T12:54:12.000Z</time>
      </trkpt>
      <trkpt lat="47.13113" lon="-1.75476">
        <ele>73</ele>
        <time>2020-12-17T12:54:14.000Z</time>
      </trkpt>
      <trkpt lat="47.13112" lon="-1.75495">
        <ele>73</ele>
        <time>2020-12-17T12:54:17.000Z</time>
      </trkpt>
      <trkpt lat="47.1311" lon="-1.75508">
        <ele>74</ele>
        <time>2020-12-17T12:54:19.000Z</time>
      </trkpt>
      <trkpt lat="47.13107" lon="-1.75522">
        <ele>74</ele>
        <time>2020-12-17T12:54:21.000Z</time>
      </trkpt>
      <trkpt lat="47.13104" lon="-1.75535">
        <ele>74</ele>
        <time>2020-12-17T12:54:23.000Z</time>
      </trkpt>
      <trkpt lat="47.13101" lon="-1.75553">
        <ele>75</ele>
        <time>2020-12-17T12:54:26.000Z</time>
      </trkpt>
      <trkpt lat="47.13099" lon="-1.75566">
        <ele>75</ele>
        <time>2020-12-17T12:54:28.000Z</time>
      </trkpt>
      <trkpt lat="47.13096" lon="-1.7558">
        <ele>75</ele>
        <time>2020-12-17T12:54:30.000Z</time>
      </trkpt>
      <trkpt lat="47.13093" lon="-1.75593">
        <ele>75</ele>
        <time>2020-12-17T12:54:32.000Z</time>
      </trkpt>
      <trkpt lat="47.1309" lon="-1.75607">
        <ele>76</ele>
        <time>2020-12-17T12:54:34.000Z</time>
      </trkpt>
      <trkpt lat="47.13088" lon="-1.75621">
        <ele>76</ele>
        <time>2020-12-17T12:54:36.000Z</time>
      </trkpt>
      <trkpt lat="47.13086" lon="-1.75634">
        <ele>76</ele>
        <time>2020-12-17T12:54:38.000Z</time>
      </trkpt>
      <trkpt lat="47.13084" lon="-1.75649">
        <ele>75</ele>
        <time>2020-12-17T12:54:40.000Z</time>
      </trkpt>
      <trkpt lat="47.13081" lon="-1.75664">
        <ele>75</ele>
        <time>2020-12-17T12:54:42.000Z</time>
      </trkpt>
      <trkpt lat="47.13077" lon="-1.75679">
        <ele>75</ele>
        <time>2020-12-17T12:54:44.000Z</time>
      </trkpt>
      <trkpt lat="47.13074" lon="-1.75695">
        <ele>75</ele>
        <time>2020-12-17T12:54:46.000Z</time>
      </trkpt>
      <trkpt lat="47.1307" lon="-1.7571">
        <ele>75</ele>
        <time>2020-12-17T12:54:48.000Z</time>
      </trkpt>
      <trkpt lat="47.13066" lon="-1.75724">
        <ele>76</ele>
        <time>2020-12-17T12:54:50.000Z</time>
      </trkpt>
      <trkpt lat="47.1306" lon="-1.75737">
        <ele>76</ele>
        <time>2020-12-17T12:54:52.000Z</time>
      </trkpt>
      <trkpt lat="47.13054" lon="-1.75749">
        <ele>76</ele>
        <time>2020-12-17T12:54:54.000Z</time>
      </trkpt>
      <trkpt lat="47.13047" lon="-1.75761">
        <ele>76</ele>
        <time>2020-12-17T12:54:56.000Z</time>
      </trkpt>
      <trkpt lat="47.13039" lon="-1.75772">
        <ele>77</ele>
        <time>2020-12-17T12:54:58.000Z</time>
      </trkpt>
      <trkpt lat="47.13032" lon="-1.75783">
        <ele>77</ele>
        <time>2020-12-17T12:55:00.000Z</time>
      </trkpt>
      <trkpt lat="47.13026" lon="-1.75793">
        <ele>77</ele>
        <time>2020-12-17T12:55:02.000Z</time>
      </trkpt>
      <trkpt lat="47.13019" lon="-1.75804">
        <ele>77</ele>
        <time>2020-12-17T12:55:04.000Z</time>
      </trkpt>
      <trkpt lat="47.13014" lon="-1.75815">
        <ele>77</ele>
        <time>2020-12-17T12:55:06.000Z</time>
      </trkpt>
      <trkpt lat="47.1301" lon="-1.75829">
        <ele>77</ele>
        <time>2020-12-17T12:55:08.000Z</time>
      </trkpt>
      <trkpt lat="47.13009" lon="-1.75843">
        <ele>77</ele>
        <time>2020-12-17T12:55:10.000Z</time>
      </trkpt>
      <trkpt lat="47.13011" lon="-1.75857">
        <ele>78</ele>
        <time>2020-12-17T12:55:12.000Z</time>
      </trkpt>
      <trkpt lat="47.13012" lon="-1.75872">
        <ele>78</ele>
        <time>2020-12-17T12:55:14.000Z</time>
      </trkpt>
      <trkpt lat="47.13011" lon="-1.75886">
        <ele>78</ele>
        <time>2020-12-17T12:55:16.000Z</time>
      </trkpt>
      <trkpt lat="47.13009" lon="-1.75901">
        <ele>78</ele>
        <time>2020-12-17T12:55:18.000Z</time>
      </trkpt>
      <trkpt lat="47.13005" lon="-1.75915">
        <ele>78</ele>
        <time>2020-12-17T12:55:20.000Z</time>
      </trkpt>
      <trkpt lat="47.13002" lon="-1.7593">
        <ele>79</ele>
        <time>2020-12-17T12:55:22.000Z</time>
      </trkpt>
      <trkpt lat="47.12999" lon="-1.75945">
        <ele>78</ele>
        <time>2020-12-17T12:55:24.000Z</time>
      </trkpt>
      <trkpt lat="47.12996" lon="-1.75961">
        <ele>78</ele>
        <time>2020-12-17T12:55:26.000Z</time>
      </trkpt>
      <trkpt lat="47.12994" lon="-1.75976">
        <ele>78</ele>
        <time>2020-12-17T12:55:28.000Z</time>
      </trkpt>
      <trkpt lat="47.12991" lon="-1.75991">
        <ele>79</ele>
        <time>2020-12-17T12:55:30.000Z</time>
      </trkpt>
      <trkpt lat="47.12989" lon="-1.76007">
        <ele>79</ele>
        <time>2020-12-17T12:55:32.000Z</time>
      </trkpt>
      <trkpt lat="47.12987" lon="-1.76022">
        <ele>79</ele>
        <time>2020-12-17T12:55:34.000Z</time>
      </trkpt>
      <trkpt lat="47.12986" lon="-1.76038">
        <ele>79</ele>
        <time>2020-12-17T12:55:36.000Z</time>
      </trkpt>
      <trkpt lat="47.12985" lon="-1.76053">
        <ele>79</ele>
        <time>2020-12-17T12:55:38.000Z</time>
      </trkpt>
      <trkpt lat="47.12986" lon="-1.76068">
        <ele>80</ele>
        <time>2020-12-17T12:55:40.000Z</time>
      </trkpt>
      <trkpt lat="47.12986" lon="-1.76084">
        <ele>80</ele>
        <time>2020-12-17T12:55:42.000Z</time>
      </trkpt>
      <trkpt lat="47.12987" lon="-1.76099">
        <ele>80</ele>
        <time>2020-12-17T12:55:44.000Z</time>
      </trkpt>
      <trkpt lat="47.1299" lon="-1.76114">
        <ele>80</ele>
        <time>2020-12-17T12:55:46.000Z</time>
      </trkpt>
      <trkpt lat="47.12992" lon="-1.76128">
        <ele>80</ele>
        <time>2020-12-17T12:55:48.000Z</time>
      </trkpt>
      <trkpt lat="47.12996" lon="-1.76142">
        <ele>81</ele>
        <time>2020-12-17T12:55:50.000Z</time>
      </trkpt>
      <trkpt lat="47.13001" lon="-1.76157">
        <ele>80</ele>
        <time>2020-12-17T12:55:52.000Z</time>
      </trkpt>
      <trkpt lat="47.13005" lon="-1.76173">
        <ele>80</ele>
        <time>2020-12-17T12:55:54.000Z</time>
      </trkpt>
      <trkpt lat="47.13009" lon="-1.76189">
        <ele>80</ele>
        <time>2020-12-17T12:55:56.000Z</time>
      </trkpt>
      <trkpt lat="47.13013" lon="-1.76204">
        <ele>80</ele>
        <time>2020-12-17T12:55:58.000Z</time>
      </trkpt>
      <trkpt lat="47.13018" lon="-1.76221">
        <ele>80</ele>
        <time>2020-12-17T12:56:00.000Z</time>
      </trkpt>
      <trkpt lat="47.13022" lon="-1.76237">
        <ele>81</ele>
        <time>2020-12-17T12:56:02.000Z</time>
      </trkpt>
      <trkpt lat="47.13025" lon="-1.76252">
        <ele>81</ele>
        <time>2020-12-17T12:56:04.000Z</time>
      </trkpt>
      <trkpt lat="47.13029" lon="-1.76268">
        <ele>81</ele>
        <time>2020-12-17T12:56:06.000Z</time>
      </trkpt>
      <trkpt lat="47.13032" lon="-1.76284">
        <ele>81</ele>
        <time>2020-12-17T12:56:08.000Z</time>
      </trkpt>
      <trkpt lat="47.13036" lon="-1.76302">
        <ele>81</ele>
        <time>2020-12-17T12:56:10.000Z</time>
      </trkpt>
      <trkpt lat="47.13039" lon="-1.76319">
        <ele>80</ele>
        <time>2020-12-17T12:56:12.000Z</time>
      </trkpt>
      <trkpt lat="47.13043" lon="-1.76337">
        <ele>79</ele>
        <time>2020-12-17T12:56:14.000Z</time>
      </trkpt>
      <trkpt lat="47.13047" lon="-1.76355">
        <ele>79</ele>
        <time>2020-12-17T12:56:16.000Z</time>
      </trkpt>
      <trkpt lat="47.1305" lon="-1.76373">
        <ele>79</ele>
        <time>2020-12-17T12:56:18.000Z</time>
      </trkpt>
      <trkpt lat="47.13052" lon="-1.76392">
        <ele>79</ele>
        <time>2020-12-17T12:56:20.000Z</time>
      </trkpt>
      <trkpt lat="47.13054" lon="-1.7641">
        <ele>79</ele>
        <time>2020-12-17T12:56:22.000Z</time>
      </trkpt>
      <trkpt lat="47.13055" lon="-1.7643">
        <ele>79</ele>
        <time>2020-12-17T12:56:24.000Z</time>
      </trkpt>
      <trkpt lat="47.13056" lon="-1.76449">
        <ele>79</ele>
        <time>2020-12-17T12:56:26.000Z</time>
      </trkpt>
      <trkpt lat="47.13057" lon="-1.76468">
        <ele>79</ele>
        <time>2020-12-17T12:56:28.000Z</time>
      </trkpt>
      <trkpt lat="47.13058" lon="-1.76488">
        <ele>80</ele>
        <time>2020-12-17T12:56:30.000Z</time>
      </trkpt>
      <trkpt lat="47.13059" lon="-1.76507">
        <ele>80</ele>
        <time>2020-12-17T12:56:32.000Z</time>
      </trkpt>
      <trkpt lat="47.1306" lon="-1.76525">
        <ele>80</ele>
        <time>2020-12-17T12:56:34.000Z</time>
      </trkpt>
      <trkpt lat="47.13061" lon="-1.76544">
        <ele>80</ele>
        <time>2020-12-17T12:56:36.000Z</time>
      </trkpt>
      <trkpt lat="47.13062" lon="-1.76563">
        <ele>80</ele>
        <time>2020-12-17T12:56:38.000Z</time>
      </trkpt>
      <trkpt lat="47.13063" lon="-1.76582">
        <ele>80</ele>
        <time>2020-12-17T12:56:40.000Z</time>
      </trkpt>
      <trkpt lat="47.13065" lon="-1.766">
        <ele>80</ele>
        <time>2020-12-17T12:56:42.000Z</time>
      </trkpt>
      <trkpt lat="47.13066" lon="-1.76619">
        <ele>80</ele>
        <time>2020-12-17T12:56:44.000Z</time>
      </trkpt>
      <trkpt lat="47.13067" lon="-1.76636">
        <ele>79</ele>
        <time>2020-12-17T12:56:46.000Z</time>
      </trkpt>
      <trkpt lat="47.13069" lon="-1.76654">
        <ele>80</ele>
        <time>2020-12-17T12:56:48.000Z</time>
      </trkpt>
      <trkpt lat="47.13071" lon="-1.76671">
        <ele>80</ele>
        <time>2020-12-17T12:56:50.000Z</time>
      </trkpt>
      <trkpt lat="47.13071" lon="-1.76689">
        <ele>79</ele>
        <time>2020-12-17T12:56:52.000Z</time>
      </trkpt>
      <trkpt lat="47.13071" lon="-1.76706">
        <ele>79</ele>
        <time>2020-12-17T12:56:54.000Z</time>
      </trkpt>
      <trkpt lat="47.13069" lon="-1.76722">
        <ele>79</ele>
        <time>2020-12-17T12:56:56.000Z</time>
      </trkpt>
      <trkpt lat="47.13067" lon="-1.76738">
        <ele>79</ele>
        <time>2020-12-17T12:56:58.000Z</time>
      </trkpt>
      <trkpt lat="47.13066" lon="-1.76754">
        <ele>79</ele>
        <time>2020-12-17T12:57:00.000Z</time>
      </trkpt>
      <trkpt lat="47.13064" lon="-1.76771">
        <ele>78</ele>
        <time>2020-12-17T12:57:02.000Z</time>
      </trkpt>
      <trkpt lat="47.13063" lon="-1.76788">
        <ele>78</ele>
        <time>2020-12-17T12:57:04.000Z</time>
      </trkpt>
      <trkpt lat="47.1306" lon="-1.76804">
        <ele>78</ele>
        <time>2020-12-17T12:57:06.000Z</time>
      </trkpt>
      <trkpt lat="47.13058" lon="-1.7682">
        <ele>78</ele>
        <time>2020-12-17T12:57:08.000Z</time>
      </trkpt>
      <trkpt lat="47.13056" lon="-1.76837">
        <ele>78</ele>
        <time>2020-12-17T12:57:10.000Z</time>
      </trkpt>
      <trkpt lat="47.13054" lon="-1.76853">
        <ele>78</ele>
        <time>2020-12-17T12:57:12.000Z</time>
      </trkpt>
      <trkpt lat="47.13052" lon="-1.7687">
        <ele>78</ele>
        <time>2020-12-17T12:57:14.000Z</time>
      </trkpt>
      <trkpt lat="47.1305" lon="-1.76887">
        <ele>77</ele>
        <time>2020-12-17T12:57:16.000Z</time>
      </trkpt>
      <trkpt lat="47.13049" lon="-1.76903">
        <ele>77</ele>
        <time>2020-12-17T12:57:18.000Z</time>
      </trkpt>
      <trkpt lat="47.13048" lon="-1.76919">
        <ele>77</ele>
        <time>2020-12-17T12:57:20.000Z</time>
      </trkpt>
      <trkpt lat="47.13047" lon="-1.76936">
        <ele>78</ele>
        <time>2020-12-17T12:57:22.000Z</time>
      </trkpt>
      <trkpt lat="47.13045" lon="-1.76952">
        <ele>78</ele>
        <time>2020-12-17T12:57:24.000Z</time>
      </trkpt>
      <trkpt lat="47.13044" lon="-1.76968">
        <ele>78</ele>
        <time>2020-12-17T12:57:26.000Z</time>
      </trkpt>
      <trkpt lat="47.13042" lon="-1.76985">
        <ele>79</ele>
        <time>2020-12-17T12:57:28.000Z</time>
      </trkpt>
      <trkpt lat="47.13041" lon="-1.77001">
        <ele>79</ele>
        <time>2020-12-17T12:57:30.000Z</time>
      </trkpt>
      <trkpt lat="47.13041" lon="-1.77016">
        <ele>80</ele>
        <time>2020-12-17T12:57:32.000Z</time>
      </trkpt>
      <trkpt lat="47.1304" lon="-1.77032">
        <ele>79</ele>
        <time>2020-12-17T12:57:34.000Z</time>
      </trkpt>
      <trkpt lat="47.13038" lon="-1.77047">
        <ele>80</ele>
        <time>2020-12-17T12:57:36.000Z</time>
      </trkpt>
      <trkpt lat="47.13037" lon="-1.77063">
        <ele>79</ele>
        <time>2020-12-17T12:57:38.000Z</time>
      </trkpt>
      <trkpt lat="47.13035" lon="-1.77078">
        <ele>80</ele>
        <time>2020-12-17T12:57:40.000Z</time>
      </trkpt>
      <trkpt lat="47.13033" lon="-1.77093">
        <ele>80</ele>
        <time>2020-12-17T12:57:42.000Z</time>
      </trkpt>
      <trkpt lat="47.13032" lon="-1.77108">
        <ele>80</ele>
        <time>2020-12-17T12:57:44.000Z</time>
      </trkpt>
      <trkpt lat="47.13029" lon="-1.77123">
        <ele>80</ele>
        <time>2020-12-17T12:57:46.000Z</time>
      </trkpt>
      <trkpt lat="47.13027" lon="-1.77138">
        <ele>80</ele>
        <time>2020-12-17T12:57:48.000Z</time>
      </trkpt>
      <trkpt lat="47.13025" lon="-1.77153">
        <ele>80</ele>
        <time>2020-12-17T12:57:50.000Z</time>
      </trkpt>
      <trkpt lat="47.13022" lon="-1.77167">
        <ele>80</ele>
        <time>2020-12-17T12:57:52.000Z</time>
      </trkpt>
      <trkpt lat="47.13019" lon="-1.77181">
        <ele>80</ele>
        <time>2020-12-17T12:57:54.000Z</time>
      </trkpt>
      <trkpt lat="47.13015" lon="-1.77194">
        <ele>79</ele>
        <time>2020-12-17T12:57:56.000Z</time>
      </trkpt>
      <trkpt lat="47.13012" lon="-1.77208">
        <ele>79</ele>
        <time>2020-12-17T12:57:58.000Z</time>
      </trkpt>
      <trkpt lat="47.13009" lon="-1.77223">
        <ele>79</ele>
        <time>2020-12-17T12:58:00.000Z</time>
      </trkpt>
      <trkpt lat="47.13005" lon="-1.77237">
        <ele>80</ele>
        <time>2020-12-17T12:58:02.000Z</time>
      </trkpt>
      <trkpt lat="47.13001" lon="-1.7725">
        <ele>80</ele>
        <time>2020-12-17T12:58:04.000Z</time>
      </trkpt>
      <trkpt lat="47.12997" lon="-1.77263">
        <ele>79</ele>
        <time>2020-12-17T12:58:06.000Z</time>
      </trkpt>
      <trkpt lat="47.12993" lon="-1.77277">
        <ele>80</ele>
        <time>2020-12-17T12:58:08.000Z</time>
      </trkpt>
      <trkpt lat="47.12989" lon="-1.77292">
        <ele>80</ele>
        <time>2020-12-17T12:58:10.000Z</time>
      </trkpt>
      <trkpt lat="47.12985" lon="-1.77306">
        <ele>80</ele>
        <time>2020-12-17T12:58:12.000Z</time>
      </trkpt>
      <trkpt lat="47.1298" lon="-1.7732">
        <ele>80</ele>
        <time>2020-12-17T12:58:14.000Z</time>
      </trkpt>
      <trkpt lat="47.12974" lon="-1.77334">
        <ele>80</ele>
        <time>2020-12-17T12:58:16.000Z</time>
      </trkpt>
      <trkpt lat="47.12969" lon="-1.77348">
        <ele>80</ele>
        <time>2020-12-17T12:58:18.000Z</time>
      </trkpt>
      <trkpt lat="47.12964" lon="-1.77361">
        <ele>80</ele>
        <time>2020-12-17T12:58:20.000Z</time>
      </trkpt>
      <trkpt lat="47.12959" lon="-1.77375">
        <ele>80</ele>
        <time>2020-12-17T12:58:22.000Z</time>
      </trkpt>
      <trkpt lat="47.12953" lon="-1.77388">
        <ele>80</ele>
        <time>2020-12-17T12:58:24.000Z</time>
      </trkpt>
      <trkpt lat="47.12948" lon="-1.77402">
        <ele>80</ele>
        <time>2020-12-17T12:58:26.000Z</time>
      </trkpt>
      <trkpt lat="47.12943" lon="-1.77415">
        <ele>80</ele>
        <time>2020-12-17T12:58:28.000Z</time>
      </trkpt>
      <trkpt lat="47.12937" lon="-1.77429">
        <ele>80</ele>
        <time>2020-12-17T12:58:30.000Z</time>
      </trkpt>
      <trkpt lat="47.12932" lon="-1.77442">
        <ele>81</ele>
        <time>2020-12-17T12:58:32.000Z</time>
      </trkpt>
      <trkpt lat="47.12927" lon="-1.77457">
        <ele>81</ele>
        <time>2020-12-17T12:58:34.000Z</time>
      </trkpt>
      <trkpt lat="47.12922" lon="-1.77472">
        <ele>81</ele>
        <time>2020-12-17T12:58:36.000Z</time>
      </trkpt>
      <trkpt lat="47.12918" lon="-1.77486">
        <ele>80</ele>
        <time>2020-12-17T12:58:38.000Z</time>
      </trkpt>
      <trkpt lat="47.12914" lon="-1.775">
        <ele>80</ele>
        <time>2020-12-17T12:58:40.000Z</time>
      </trkpt>
      <trkpt lat="47.12911" lon="-1.77514">
        <ele>80</ele>
        <time>2020-12-17T12:58:42.000Z</time>
      </trkpt>
      <trkpt lat="47.12907" lon="-1.77529">
        <ele>80</ele>
        <time>2020-12-17T12:58:44.000Z</time>
      </trkpt>
      <trkpt lat="47.12903" lon="-1.77544">
        <ele>80</ele>
        <time>2020-12-17T12:58:46.000Z</time>
      </trkpt>
      <trkpt lat="47.12899" lon="-1.77559">
        <ele>80</ele>
        <time>2020-12-17T12:58:48.000Z</time>
      </trkpt>
      <trkpt lat="47.12895" lon="-1.77574">
        <ele>80</ele>
        <time>2020-12-17T12:58:50.000Z</time>
      </trkpt>
      <trkpt lat="47.12891" lon="-1.7759">
        <ele>80</ele>
        <time>2020-12-17T12:58:52.000Z</time>
      </trkpt>
      <trkpt lat="47.12887" lon="-1.77605">
        <ele>80</ele>
        <time>2020-12-17T12:58:54.000Z</time>
      </trkpt>
      <trkpt lat="47.12884" lon="-1.7762">
        <ele>80</ele>
        <time>2020-12-17T12:58:56.000Z</time>
      </trkpt>
      <trkpt lat="47.12881" lon="-1.77634">
        <ele>80</ele>
        <time>2020-12-17T12:58:58.000Z</time>
      </trkpt>
      <trkpt lat="47.12878" lon="-1.7765">
        <ele>80</ele>
        <time>2020-12-17T12:59:00.000Z</time>
      </trkpt>
      <trkpt lat="47.12875" lon="-1.77666">
        <ele>80</ele>
        <time>2020-12-17T12:59:02.000Z</time>
      </trkpt>
      <trkpt lat="47.12872" lon="-1.77682">
        <ele>80</ele>
        <time>2020-12-17T12:59:04.000Z</time>
      </trkpt>
      <trkpt lat="47.12868" lon="-1.77698">
        <ele>80</ele>
        <time>2020-12-17T12:59:06.000Z</time>
      </trkpt>
      <trkpt lat="47.12864" lon="-1.77714">
        <ele>80</ele>
        <time>2020-12-17T12:59:08.000Z</time>
      </trkpt>
      <trkpt lat="47.1286" lon="-1.77729">
        <ele>80</ele>
        <time>2020-12-17T12:59:10.000Z</time>
      </trkpt>
      <trkpt lat="47.12856" lon="-1.77745">
        <ele>81</ele>
        <time>2020-12-17T12:59:12.000Z</time>
      </trkpt>
      <trkpt lat="47.12851" lon="-1.7776">
        <ele>80</ele>
        <time>2020-12-17T12:59:14.000Z</time>
      </trkpt>
      <trkpt lat="47.12845" lon="-1.77775">
        <ele>80</ele>
        <time>2020-12-17T12:59:16.000Z</time>
      </trkpt>
      <trkpt lat="47.1284" lon="-1.77789">
        <ele>80</ele>
        <time>2020-12-17T12:59:18.000Z</time>
      </trkpt>
      <trkpt lat="47.12834" lon="-1.77804">
        <ele>80</ele>
        <time>2020-12-17T12:59:20.000Z</time>
      </trkpt>
      <trkpt lat="47.12828" lon="-1.77818">
        <ele>80</ele>
        <time>2020-12-17T12:59:22.000Z</time>
      </trkpt>
      <trkpt lat="47.12822" lon="-1.77833">
        <ele>80</ele>
        <time>2020-12-17T12:59:24.000Z</time>
      </trkpt>
      <trkpt lat="47.12817" lon="-1.77848">
        <ele>81</ele>
        <time>2020-12-17T12:59:26.000Z</time>
      </trkpt>
      <trkpt lat="47.12811" lon="-1.77863">
        <ele>81</ele>
        <time>2020-12-17T12:59:28.000Z</time>
      </trkpt>
      <trkpt lat="47.12806" lon="-1.77877">
        <ele>80</ele>
        <time>2020-12-17T12:59:30.000Z</time>
      </trkpt>
      <trkpt lat="47.12801" lon="-1.77892">
        <ele>80</ele>
        <time>2020-12-17T12:59:32.000Z</time>
      </trkpt>
      <trkpt lat="47.12796" lon="-1.77907">
        <ele>80</ele>
        <time>2020-12-17T12:59:34.000Z</time>
      </trkpt>
      <trkpt lat="47.12791" lon="-1.77923">
        <ele>81</ele>
        <time>2020-12-17T12:59:36.000Z</time>
      </trkpt>
      <trkpt lat="47.12787" lon="-1.77939">
        <ele>81</ele>
        <time>2020-12-17T12:59:38.000Z</time>
      </trkpt>
      <trkpt lat="47.12782" lon="-1.77955">
        <ele>81</ele>
        <time>2020-12-17T12:59:40.000Z</time>
      </trkpt>
      <trkpt lat="47.12777" lon="-1.77971">
        <ele>81</ele>
        <time>2020-12-17T12:59:42.000Z</time>
      </trkpt>
      <trkpt lat="47.12773" lon="-1.77987">
        <ele>82</ele>
        <time>2020-12-17T12:59:44.000Z</time>
      </trkpt>
      <trkpt lat="47.12768" lon="-1.78003">
        <ele>81</ele>
        <time>2020-12-17T12:59:46.000Z</time>
      </trkpt>
      <trkpt lat="47.12764" lon="-1.78018">
        <ele>81</ele>
        <time>2020-12-17T12:59:48.000Z</time>
      </trkpt>
      <trkpt lat="47.12758" lon="-1.78033">
        <ele>81</ele>
        <time>2020-12-17T12:59:50.000Z</time>
      </trkpt>
      <trkpt lat="47.12753" lon="-1.78048">
        <ele>81</ele>
        <time>2020-12-17T12:59:52.000Z</time>
      </trkpt>
      <trkpt lat="47.12746" lon="-1.78062">
        <ele>81</ele>
        <time>2020-12-17T12:59:54.000Z</time>
      </trkpt>
      <trkpt lat="47.12738" lon="-1.78074">
        <ele>80</ele>
        <time>2020-12-17T12:59:56.000Z</time>
      </trkpt>
      <trkpt lat="47.12729" lon="-1.78086">
        <ele>80</ele>
        <time>2020-12-17T12:59:58.000Z</time>
      </trkpt>
      <trkpt lat="47.1272" lon="-1.78098">
        <ele>80</ele>
        <time>2020-12-17T13:00:00.000Z</time>
      </trkpt>
      <trkpt lat="47.12712" lon="-1.78109">
        <ele>81</ele>
        <time>2020-12-17T13:00:02.000Z</time>
      </trkpt>
      <trkpt lat="47.12703" lon="-1.78122">
        <ele>80</ele>
        <time>2020-12-17T13:00:04.000Z</time>
      </trkpt>
      <trkpt lat="47.12694" lon="-1.78134">
        <ele>80</ele>
        <time>2020-12-17T13:00:06.000Z</time>
      </trkpt>
      <trkpt lat="47.12686" lon="-1.78145">
        <ele>80</ele>
        <time>2020-12-17T13:00:08.000Z</time>
      </trkpt>
      <trkpt lat="47.12677" lon="-1.78157">
        <ele>80</ele>
        <time>2020-12-17T13:00:10.000Z</time>
      </trkpt>
      <trkpt lat="47.12668" lon="-1.78169">
        <ele>79</ele>
        <time>2020-12-17T13:00:12.000Z</time>
      </trkpt>
      <trkpt lat="47.1266" lon="-1.78181">
        <ele>79</ele>
        <time>2020-12-17T13:00:14.000Z</time>
      </trkpt>
      <trkpt lat="47.12651" lon="-1.78193">
        <ele>79</ele>
        <time>2020-12-17T13:00:16.000Z</time>
      </trkpt>
      <trkpt lat="47.12642" lon="-1.78205">
        <ele>78</ele>
        <time>2020-12-17T13:00:18.000Z</time>
      </trkpt>
      <trkpt lat="47.12635" lon="-1.78218">
        <ele>78</ele>
        <time>2020-12-17T13:00:20.000Z</time>
      </trkpt>
      <trkpt lat="47.12628" lon="-1.78232">
        <ele>78</ele>
        <time>2020-12-17T13:00:22.000Z</time>
      </trkpt>
      <trkpt lat="47.12623" lon="-1.78247">
        <ele>79</ele>
        <time>2020-12-17T13:00:24.000Z</time>
      </trkpt>
      <trkpt lat="47.12619" lon="-1.78263">
        <ele>79</ele>
        <time>2020-12-17T13:00:26.000Z</time>
      </trkpt>
      <trkpt lat="47.12615" lon="-1.7828">
        <ele>79</ele>
        <time>2020-12-17T13:00:28.000Z</time>
      </trkpt>
      <trkpt lat="47.12611" lon="-1.78296">
        <ele>79</ele>
        <time>2020-12-17T13:00:30.000Z</time>
      </trkpt>
      <trkpt lat="47.12608" lon="-1.78313">
        <ele>79</ele>
        <time>2020-12-17T13:00:32.000Z</time>
      </trkpt>
      <trkpt lat="47.12604" lon="-1.7833">
        <ele>78</ele>
        <time>2020-12-17T13:00:34.000Z</time>
      </trkpt>
      <trkpt lat="47.126" lon="-1.78346">
        <ele>78</ele>
        <time>2020-12-17T13:00:36.000Z</time>
      </trkpt>
      <trkpt lat="47.12596" lon="-1.78363">
        <ele>78</ele>
        <time>2020-12-17T13:00:38.000Z</time>
      </trkpt>
      <trkpt lat="47.12591" lon="-1.7838">
        <ele>78</ele>
        <time>2020-12-17T13:00:40.000Z</time>
      </trkpt>
      <trkpt lat="47.12588" lon="-1.78396">
        <ele>78</ele>
        <time>2020-12-17T13:00:42.000Z</time>
      </trkpt>
      <trkpt lat="47.12584" lon="-1.78412">
        <ele>78</ele>
        <time>2020-12-17T13:00:44.000Z</time>
      </trkpt>
      <trkpt lat="47.12581" lon="-1.78428">
        <ele>78</ele>
        <time>2020-12-17T13:00:46.000Z</time>
      </trkpt>
      <trkpt lat="47.12577" lon="-1.78444">
        <ele>78</ele>
        <time>2020-12-17T13:00:48.000Z</time>
      </trkpt>
      <trkpt lat="47.12573" lon="-1.78461">
        <ele>77</ele>
        <time>2020-12-17T13:00:50.000Z</time>
      </trkpt>
      <trkpt lat="47.12569" lon="-1.78477">
        <ele>78</ele>
        <time>2020-12-17T13:00:52.000Z</time>
      </trkpt>
      <trkpt lat="47.12565" lon="-1.78494">
        <ele>77</ele>
        <time>2020-12-17T13:00:54.000Z</time>
      </trkpt>
      <trkpt lat="47.1256" lon="-1.78511">
        <ele>77</ele>
        <time>2020-12-17T13:00:56.000Z</time>
      </trkpt>
      <trkpt lat="47.12556" lon="-1.78527">
        <ele>77</ele>
        <time>2020-12-17T13:00:58.000Z</time>
      </trkpt>
      <trkpt lat="47.12553" lon="-1.78543">
        <ele>77</ele>
        <time>2020-12-17T13:01:00.000Z</time>
      </trkpt>
      <trkpt lat="47.12549" lon="-1.78559">
        <ele>77</ele>
        <time>2020-12-17T13:01:02.000Z</time>
      </trkpt>
      <trkpt lat="47.12545" lon="-1.78576">
        <ele>77</ele>
        <time>2020-12-17T13:01:04.000Z</time>
      </trkpt>
      <trkpt lat="47.12541" lon="-1.78592">
        <ele>77</ele>
        <time>2020-12-17T13:01:06.000Z</time>
      </trkpt>
      <trkpt lat="47.12537" lon="-1.78607">
        <ele>77</ele>
        <time>2020-12-17T13:01:08.000Z</time>
      </trkpt>
      <trkpt lat="47.12533" lon="-1.78623">
        <ele>76</ele>
        <time>2020-12-17T13:01:10.000Z</time>
      </trkpt>
      <trkpt lat="47.12529" lon="-1.78638">
        <ele>76</ele>
        <time>2020-12-17T13:01:12.000Z</time>
      </trkpt>
      <trkpt lat="47.12524" lon="-1.78652">
        <ele>76</ele>
        <time>2020-12-17T13:01:14.000Z</time>
      </trkpt>
      <trkpt lat="47.12518" lon="-1.78667">
        <ele>76</ele>
        <time>2020-12-17T13:01:16.000Z</time>
      </trkpt>
      <trkpt lat="47.12513" lon="-1.78682">
        <ele>76</ele>
        <time>2020-12-17T13:01:18.000Z</time>
      </trkpt>
      <trkpt lat="47.12507" lon="-1.78697">
        <ele>76</ele>
        <time>2020-12-17T13:01:20.000Z</time>
      </trkpt>
      <trkpt lat="47.12502" lon="-1.78712">
        <ele>76</ele>
        <time>2020-12-17T13:01:22.000Z</time>
      </trkpt>
      <trkpt lat="47.12498" lon="-1.78728">
        <ele>76</ele>
        <time>2020-12-17T13:01:24.000Z</time>
      </trkpt>
      <trkpt lat="47.12494" lon="-1.78743">
        <ele>76</ele>
        <time>2020-12-17T13:01:26.000Z</time>
      </trkpt>
      <trkpt lat="47.1249" lon="-1.78758">
        <ele>76</ele>
        <time>2020-12-17T13:01:28.000Z</time>
      </trkpt>
      <trkpt lat="47.12487" lon="-1.78772">
        <ele>76</ele>
        <time>2020-12-17T13:01:30.000Z</time>
      </trkpt>
      <trkpt lat="47.12483" lon="-1.78787">
        <ele>76</ele>
        <time>2020-12-17T13:01:32.000Z</time>
      </trkpt>
      <trkpt lat="47.1248" lon="-1.78802">
        <ele>76</ele>
        <time>2020-12-17T13:01:34.000Z</time>
      </trkpt>
      <trkpt lat="47.12477" lon="-1.78816">
        <ele>76</ele>
        <time>2020-12-17T13:01:36.000Z</time>
      </trkpt>
      <trkpt lat="47.12474" lon="-1.78831">
        <ele>76</ele>
        <time>2020-12-17T13:01:38.000Z</time>
      </trkpt>
      <trkpt lat="47.12471" lon="-1.78847">
        <ele>75</ele>
        <time>2020-12-17T13:01:40.000Z</time>
      </trkpt>
      <trkpt lat="47.1247" lon="-1.78863">
        <ele>75</ele>
        <time>2020-12-17T13:01:42.000Z</time>
      </trkpt>
      <trkpt lat="47.12469" lon="-1.78878">
        <ele>75</ele>
        <time>2020-12-17T13:01:44.000Z</time>
      </trkpt>
      <trkpt lat="47.12469" lon="-1.78894">
        <ele>76</ele>
        <time>2020-12-17T13:01:46.000Z</time>
      </trkpt>
      <trkpt lat="47.12468" lon="-1.78908">
        <ele>76</ele>
        <time>2020-12-17T13:01:48.000Z</time>
      </trkpt>
      <trkpt lat="47.12466" lon="-1.78924">
        <ele>75</ele>
        <time>2020-12-17T13:01:50.000Z</time>
      </trkpt>
      <trkpt lat="47.12462" lon="-1.78938">
        <ele>75</ele>
        <time>2020-12-17T13:01:52.000Z</time>
      </trkpt>
      <trkpt lat="47.12459" lon="-1.78955">
        <ele>75</ele>
        <time>2020-12-17T13:01:54.000Z</time>
      </trkpt>
      <trkpt lat="47.12455" lon="-1.7897">
        <ele>75</ele>
        <time>2020-12-17T13:01:56.000Z</time>
      </trkpt>
      <trkpt lat="47.12451" lon="-1.78985">
        <ele>75</ele>
        <time>2020-12-17T13:01:58.000Z</time>
      </trkpt>
      <trkpt lat="47.12447" lon="-1.79001">
        <ele>75</ele>
        <time>2020-12-17T13:02:00.000Z</time>
      </trkpt>
      <trkpt lat="47.12443" lon="-1.79016">
        <ele>75</ele>
        <time>2020-12-17T13:02:02.000Z</time>
      </trkpt>
      <trkpt lat="47.12439" lon="-1.79032">
        <ele>75</ele>
        <time>2020-12-17T13:02:04.000Z</time>
      </trkpt>
      <trkpt lat="47.12436" lon="-1.79048">
        <ele>75</ele>
        <time>2020-12-17T13:02:06.000Z</time>
      </trkpt>
      <trkpt lat="47.12432" lon="-1.79064">
        <ele>76</ele>
        <time>2020-12-17T13:02:08.000Z</time>
      </trkpt>
      <trkpt lat="47.12429" lon="-1.79079">
        <ele>76</ele>
        <time>2020-12-17T13:02:10.000Z</time>
      </trkpt>
      <trkpt lat="47.12426" lon="-1.79094">
        <ele>77</ele>
        <time>2020-12-17T13:02:12.000Z</time>
      </trkpt>
      <trkpt lat="47.12423" lon="-1.7911">
        <ele>76</ele>
        <time>2020-12-17T13:02:14.000Z</time>
      </trkpt>
      <trkpt lat="47.12421" lon="-1.79126">
        <ele>77</ele>
        <time>2020-12-17T13:02:16.000Z</time>
      </trkpt>
      <trkpt lat="47.12421" lon="-1.79142">
        <ele>76</ele>
        <time>2020-12-17T13:02:18.000Z</time>
      </trkpt>
      <trkpt lat="47.12421" lon="-1.79159">
        <ele>76</ele>
        <time>2020-12-17T13:02:20.000Z</time>
      </trkpt>
      <trkpt lat="47.12422" lon="-1.79175">
        <ele>76</ele>
        <time>2020-12-17T13:02:22.000Z</time>
      </trkpt>
      <trkpt lat="47.12424" lon="-1.79191">
        <ele>76</ele>
        <time>2020-12-17T13:02:24.000Z</time>
      </trkpt>
      <trkpt lat="47.12426" lon="-1.79208">
        <ele>75</ele>
        <time>2020-12-17T13:02:26.000Z</time>
      </trkpt>
      <trkpt lat="47.12427" lon="-1.79225">
        <ele>75</ele>
        <time>2020-12-17T13:02:28.000Z</time>
      </trkpt>
      <trkpt lat="47.12428" lon="-1.79242">
        <ele>76</ele>
        <time>2020-12-17T13:02:30.000Z</time>
      </trkpt>
      <trkpt lat="47.12426" lon="-1.79258">
        <ele>76</ele>
        <time>2020-12-17T13:02:32.000Z</time>
      </trkpt>
      <trkpt lat="47.12423" lon="-1.79274">
        <ele>76</ele>
        <time>2020-12-17T13:02:34.000Z</time>
      </trkpt>
      <trkpt lat="47.12418" lon="-1.7929">
        <ele>76</ele>
        <time>2020-12-17T13:02:36.000Z</time>
      </trkpt>
      <trkpt lat="47.12412" lon="-1.79304">
        <ele>76</ele>
        <time>2020-12-17T13:02:38.000Z</time>
      </trkpt>
      <trkpt lat="47.12405" lon="-1.79319">
        <ele>77</ele>
        <time>2020-12-17T13:02:40.000Z</time>
      </trkpt>
      <trkpt lat="47.12399" lon="-1.79333">
        <ele>77</ele>
        <time>2020-12-17T13:02:42.000Z</time>
      </trkpt>
      <trkpt lat="47.12392" lon="-1.79347">
        <ele>77</ele>
        <time>2020-12-17T13:02:44.000Z</time>
      </trkpt>
      <trkpt lat="47.12385" lon="-1.7936">
        <ele>77</ele>
        <time>2020-12-17T13:02:46.000Z</time>
      </trkpt>
      <trkpt lat="47.12379" lon="-1.79374">
        <ele>77</ele>
        <time>2020-12-17T13:02:48.000Z</time>
      </trkpt>
      <trkpt lat="47.12373" lon="-1.79388">
        <ele>77</ele>
        <time>2020-12-17T13:02:50.000Z</time>
      </trkpt>
      <trkpt lat="47.12367" lon="-1.79403">
        <ele>77</ele>
        <time>2020-12-17T13:02:52.000Z</time>
      </trkpt>
      <trkpt lat="47.12362" lon="-1.79418">
        <ele>77</ele>
        <time>2020-12-17T13:02:54.000Z</time>
      </trkpt>
      <trkpt lat="47.12358" lon="-1.79435">
        <ele>78</ele>
        <time>2020-12-17T13:02:56.000Z</time>
      </trkpt>
      <trkpt lat="47.12355" lon="-1.79452">
        <ele>77</ele>
        <time>2020-12-17T13:02:58.000Z</time>
      </trkpt>
      <trkpt lat="47.12352" lon="-1.79469">
        <ele>77</ele>
        <time>2020-12-17T13:03:00.000Z</time>
      </trkpt>
      <trkpt lat="47.1235" lon="-1.79485">
        <ele>77</ele>
        <time>2020-12-17T13:03:02.000Z</time>
      </trkpt>
      <trkpt lat="47.12348" lon="-1.79502">
        <ele>78</ele>
        <time>2020-12-17T13:03:04.000Z</time>
      </trkpt>
      <trkpt lat="47.12346" lon="-1.79518">
        <ele>78</ele>
        <time>2020-12-17T13:03:06.000Z</time>
      </trkpt>
      <trkpt lat="47.12343" lon="-1.79534">
        <ele>78</ele>
        <time>2020-12-17T13:03:08.000Z</time>
      </trkpt>
      <trkpt lat="47.12341" lon="-1.7955">
        <ele>78</ele>
        <time>2020-12-17T13:03:10.000Z</time>
      </trkpt>
      <trkpt lat="47.12337" lon="-1.79565">
        <ele>78</ele>
        <time>2020-12-17T13:03:12.000Z</time>
      </trkpt>
      <trkpt lat="47.12333" lon="-1.79579">
        <ele>77</ele>
        <time>2020-12-17T13:03:14.000Z</time>
      </trkpt>
      <trkpt lat="47.12325" lon="-1.7959">
        <ele>77</ele>
        <time>2020-12-17T13:03:16.000Z</time>
      </trkpt>
      <trkpt lat="47.12315" lon="-1.79597">
        <ele>77</ele>
        <time>2020-12-17T13:03:18.000Z</time>
      </trkpt>
      <trkpt lat="47.12302" lon="-1.79598">
        <ele>77</ele>
        <time>2020-12-17T13:03:20.000Z</time>
      </trkpt>
      <trkpt lat="47.12291" lon="-1.79597">
        <ele>77</ele>
        <time>2020-12-17T13:03:22.000Z</time>
      </trkpt>
      <trkpt lat="47.12279" lon="-1.79596">
        <ele>77</ele>
        <time>2020-12-17T13:03:24.000Z</time>
      </trkpt>
      <trkpt lat="47.12268" lon="-1.79595">
        <ele>76</ele>
        <time>2020-12-17T13:03:26.000Z</time>
      </trkpt>
      <trkpt lat="47.12257" lon="-1.79595">
        <ele>76</ele>
        <time>2020-12-17T13:03:28.000Z</time>
      </trkpt>
      <trkpt lat="47.12246" lon="-1.79595">
        <ele>76</ele>
        <time>2020-12-17T13:03:30.000Z</time>
      </trkpt>
      <trkpt lat="47.12235" lon="-1.79595">
        <ele>76</ele>
        <time>2020-12-17T13:03:32.000Z</time>
      </trkpt>
      <trkpt lat="47.12224" lon="-1.79594">
        <ele>76</ele>
        <time>2020-12-17T13:03:34.000Z</time>
      </trkpt>
      <trkpt lat="47.12214" lon="-1.79594">
        <ele>75</ele>
        <time>2020-12-17T13:03:36.000Z</time>
      </trkpt>
      <trkpt lat="47.12203" lon="-1.79593">
        <ele>75</ele>
        <time>2020-12-17T13:03:38.000Z</time>
      </trkpt>
      <trkpt lat="47.12193" lon="-1.79593">
        <ele>75</ele>
        <time>2020-12-17T13:03:40.000Z</time>
      </trkpt>
      <trkpt lat="47.12183" lon="-1.79593">
        <ele>75</ele>
        <time>2020-12-17T13:03:42.000Z</time>
      </trkpt>
      <trkpt lat="47.12171" lon="-1.79593">
        <ele>74</ele>
        <time>2020-12-17T13:03:44.000Z</time>
      </trkpt>
      <trkpt lat="47.1216" lon="-1.79593">
        <ele>75</ele>
        <time>2020-12-17T13:03:46.000Z</time>
      </trkpt>
      <trkpt lat="47.12149" lon="-1.79594">
        <ele>74</ele>
        <time>2020-12-17T13:03:48.000Z</time>
      </trkpt>
      <trkpt lat="47.12138" lon="-1.79594">
        <ele>74</ele>
        <time>2020-12-17T13:03:50.000Z</time>
      </trkpt>
      <trkpt lat="47.12127" lon="-1.79596">
        <ele>74</ele>
        <time>2020-12-17T13:03:52.000Z</time>
      </trkpt>
      <trkpt lat="47.12116" lon="-1.79597">
        <ele>74</ele>
        <time>2020-12-17T13:03:54.000Z</time>
      </trkpt>
      <trkpt lat="47.12105" lon="-1.79598">
        <ele>74</ele>
        <time>2020-12-17T13:03:56.000Z</time>
      </trkpt>
      <trkpt lat="47.12094" lon="-1.79603">
        <ele>73</ele>
        <time>2020-12-17T13:03:58.000Z</time>
      </trkpt>
      <trkpt lat="47.12084" lon="-1.79611">
        <ele>73</ele>
        <time>2020-12-17T13:04:00.000Z</time>
      </trkpt>
      <trkpt lat="47.12075" lon="-1.79621">
        <ele>73</ele>
        <time>2020-12-17T13:04:02.000Z</time>
      </trkpt>
      <trkpt lat="47.12065" lon="-1.79631">
        <ele>73</ele>
        <time>2020-12-17T13:04:04.000Z</time>
      </trkpt>
      <trkpt lat="47.12057" lon="-1.7964">
        <ele>73</ele>
        <time>2020-12-17T13:04:06.000Z</time>
      </trkpt>
      <trkpt lat="47.12047" lon="-1.7965">
        <ele>73</ele>
        <time>2020-12-17T13:04:08.000Z</time>
      </trkpt>
      <trkpt lat="47.12038" lon="-1.7966">
        <ele>73</ele>
        <time>2020-12-17T13:04:10.000Z</time>
      </trkpt>
      <trkpt lat="47.12028" lon="-1.79669">
        <ele>73</ele>
        <time>2020-12-17T13:04:12.000Z</time>
      </trkpt>
      <trkpt lat="47.12019" lon="-1.79678">
        <ele>73</ele>
        <time>2020-12-17T13:04:14.000Z</time>
      </trkpt>
      <trkpt lat="47.1201" lon="-1.79687">
        <ele>72</ele>
        <time>2020-12-17T13:04:16.000Z</time>
      </trkpt>
      <trkpt lat="47.12" lon="-1.79697">
        <ele>72</ele>
        <time>2020-12-17T13:04:18.000Z</time>
      </trkpt>
      <trkpt lat="47.11991" lon="-1.79707">
        <ele>72</ele>
        <time>2020-12-17T13:04:20.000Z</time>
      </trkpt>
      <trkpt lat="47.11982" lon="-1.79716">
        <ele>72</ele>
        <time>2020-12-17T13:04:22.000Z</time>
      </trkpt>
      <trkpt lat="47.11973" lon="-1.79727">
        <ele>72</ele>
        <time>2020-12-17T13:04:24.000Z</time>
      </trkpt>
      <trkpt lat="47.11963" lon="-1.79738">
        <ele>72</ele>
        <time>2020-12-17T13:04:26.000Z</time>
      </trkpt>
      <trkpt lat="47.11955" lon="-1.79749">
        <ele>72</ele>
        <time>2020-12-17T13:04:28.000Z</time>
      </trkpt>
      <trkpt lat="47.11946" lon="-1.7976">
        <ele>72</ele>
        <time>2020-12-17T13:04:30.000Z</time>
      </trkpt>
      <trkpt lat="47.11936" lon="-1.79772">
        <ele>72</ele>
        <time>2020-12-17T13:04:32.000Z</time>
      </trkpt>
      <trkpt lat="47.11928" lon="-1.79783">
        <ele>72</ele>
        <time>2020-12-17T13:04:34.000Z</time>
      </trkpt>
      <trkpt lat="47.11919" lon="-1.79795">
        <ele>72</ele>
        <time>2020-12-17T13:04:36.000Z</time>
      </trkpt>
      <trkpt lat="47.1191" lon="-1.79806">
        <ele>72</ele>
        <time>2020-12-17T13:04:38.000Z</time>
      </trkpt>
      <trkpt lat="47.11901" lon="-1.79816">
        <ele>72</ele>
        <time>2020-12-17T13:04:40.000Z</time>
      </trkpt>
      <trkpt lat="47.11892" lon="-1.79825">
        <ele>72</ele>
        <time>2020-12-17T13:04:42.000Z</time>
      </trkpt>
      <trkpt lat="47.11884" lon="-1.79835">
        <ele>72</ele>
        <time>2020-12-17T13:04:44.000Z</time>
      </trkpt>
      <trkpt lat="47.11875" lon="-1.79845">
        <ele>72</ele>
        <time>2020-12-17T13:04:46.000Z</time>
      </trkpt>
      <trkpt lat="47.11866" lon="-1.79856">
        <ele>72</ele>
        <time>2020-12-17T13:04:48.000Z</time>
      </trkpt>
      <trkpt lat="47.11857" lon="-1.79866">
        <ele>72</ele>
        <time>2020-12-17T13:04:50.000Z</time>
      </trkpt>
      <trkpt lat="47.11848" lon="-1.79876">
        <ele>72</ele>
        <time>2020-12-17T13:04:52.000Z</time>
      </trkpt>
      <trkpt lat="47.11839" lon="-1.79886">
        <ele>72</ele>
        <time>2020-12-17T13:04:54.000Z</time>
      </trkpt>
      <trkpt lat="47.11831" lon="-1.79895">
        <ele>72</ele>
        <time>2020-12-17T13:04:56.000Z</time>
      </trkpt>
      <trkpt lat="47.11822" lon="-1.79905">
        <ele>72</ele>
        <time>2020-12-17T13:04:58.000Z</time>
      </trkpt>
      <trkpt lat="47.11813" lon="-1.79916">
        <ele>72</ele>
        <time>2020-12-17T13:05:00.000Z</time>
      </trkpt>
      <trkpt lat="47.11804" lon="-1.79925">
        <ele>72</ele>
        <time>2020-12-17T13:05:02.000Z</time>
      </trkpt>
      <trkpt lat="47.11796" lon="-1.79934">
        <ele>71</ele>
        <time>2020-12-17T13:05:04.000Z</time>
      </trkpt>
      <trkpt lat="47.11787" lon="-1.79943">
        <ele>71</ele>
        <time>2020-12-17T13:05:06.000Z</time>
      </trkpt>
      <trkpt lat="47.11779" lon="-1.79951">
        <ele>71</ele>
        <time>2020-12-17T13:05:08.000Z</time>
      </trkpt>
      <trkpt lat="47.11772" lon="-1.79961">
        <ele>71</ele>
        <time>2020-12-17T13:05:10.000Z</time>
      </trkpt>
      <trkpt lat="47.11764" lon="-1.79973">
        <ele>71</ele>
        <time>2020-12-17T13:05:13.000Z</time>
      </trkpt>
      <trkpt lat="47.11754" lon="-1.79978">
        <ele>71</ele>
        <time>2020-12-17T13:05:15.000Z</time>
      </trkpt>
      <trkpt lat="47.11743" lon="-1.79978">
        <ele>71</ele>
        <time>2020-12-17T13:05:17.000Z</time>
      </trkpt>
      <trkpt lat="47.1173" lon="-1.79975">
        <ele>71</ele>
        <time>2020-12-17T13:05:19.000Z</time>
      </trkpt>
      <trkpt lat="47.11718" lon="-1.79973">
        <ele>70</ele>
        <time>2020-12-17T13:05:21.000Z</time>
      </trkpt>
      <trkpt lat="47.11706" lon="-1.7997">
        <ele>70</ele>
        <time>2020-12-17T13:05:23.000Z</time>
      </trkpt>
      <trkpt lat="47.11693" lon="-1.79968">
        <ele>69</ele>
        <time>2020-12-17T13:05:25.000Z</time>
      </trkpt>
      <trkpt lat="47.11681" lon="-1.79966">
        <ele>69</ele>
        <time>2020-12-17T13:05:27.000Z</time>
      </trkpt>
      <trkpt lat="47.11669" lon="-1.79965">
        <ele>69</ele>
        <time>2020-12-17T13:05:29.000Z</time>
      </trkpt>
      <trkpt lat="47.11658" lon="-1.79964">
        <ele>69</ele>
        <time>2020-12-17T13:05:31.000Z</time>
      </trkpt>
      <trkpt lat="47.11646" lon="-1.79962">
        <ele>69</ele>
        <time>2020-12-17T13:05:33.000Z</time>
      </trkpt>
      <trkpt lat="47.11635" lon="-1.7996">
        <ele>69</ele>
        <time>2020-12-17T13:05:35.000Z</time>
      </trkpt>
      <trkpt lat="47.11623" lon="-1.79959">
        <ele>69</ele>
        <time>2020-12-17T13:05:37.000Z</time>
      </trkpt>
      <trkpt lat="47.11611" lon="-1.79957">
        <ele>70</ele>
        <time>2020-12-17T13:05:39.000Z</time>
      </trkpt>
      <trkpt lat="47.11599" lon="-1.79956">
        <ele>70</ele>
        <time>2020-12-17T13:05:41.000Z</time>
      </trkpt>
      <trkpt lat="47.11587" lon="-1.79954">
        <ele>70</ele>
        <time>2020-12-17T13:05:43.000Z</time>
      </trkpt>
      <trkpt lat="47.11575" lon="-1.79954">
        <ele>70</ele>
        <time>2020-12-17T13:05:45.000Z</time>
      </trkpt>
      <trkpt lat="47.11562" lon="-1.79957">
        <ele>70</ele>
        <time>2020-12-17T13:05:47.000Z</time>
      </trkpt>
      <trkpt lat="47.1155" lon="-1.79961">
        <ele>69</ele>
        <time>2020-12-17T13:05:49.000Z</time>
      </trkpt>
      <trkpt lat="47.11539" lon="-1.7997">
        <ele>69</ele>
        <time>2020-12-17T13:05:51.000Z</time>
      </trkpt>
      <trkpt lat="47.11528" lon="-1.79979">
        <ele>69</ele>
        <time>2020-12-17T13:05:53.000Z</time>
      </trkpt>
      <trkpt lat="47.11518" lon="-1.7999">
        <ele>69</ele>
        <time>2020-12-17T13:05:55.000Z</time>
      </trkpt>
      <trkpt lat="47.11508" lon="-1.80003">
        <ele>69</ele>
        <time>2020-12-17T13:05:57.000Z</time>
      </trkpt>
      <trkpt lat="47.11499" lon="-1.80015">
        <ele>69</ele>
        <time>2020-12-17T13:05:59.000Z</time>
      </trkpt>
      <trkpt lat="47.1149" lon="-1.80026">
        <ele>69</ele>
        <time>2020-12-17T13:06:01.000Z</time>
      </trkpt>
      <trkpt lat="47.1148" lon="-1.80038">
        <ele>69</ele>
        <time>2020-12-17T13:06:03.000Z</time>
      </trkpt>
      <trkpt lat="47.11472" lon="-1.8005">
        <ele>69</ele>
        <time>2020-12-17T13:06:05.000Z</time>
      </trkpt>
      <trkpt lat="47.11463" lon="-1.80062">
        <ele>69</ele>
        <time>2020-12-17T13:06:07.000Z</time>
      </trkpt>
      <trkpt lat="47.11454" lon="-1.80075">
        <ele>70</ele>
        <time>2020-12-17T13:06:09.000Z</time>
      </trkpt>
      <trkpt lat="47.11445" lon="-1.80087">
        <ele>69</ele>
        <time>2020-12-17T13:06:11.000Z</time>
      </trkpt>
      <trkpt lat="47.11436" lon="-1.80098">
        <ele>69</ele>
        <time>2020-12-17T13:06:13.000Z</time>
      </trkpt>
      <trkpt lat="47.11429" lon="-1.80107">
        <ele>68</ele>
        <time>2020-12-17T13:06:15.000Z</time>
      </trkpt>
      <trkpt lat="47.1142" lon="-1.80119">
        <ele>69</ele>
        <time>2020-12-17T13:06:17.000Z</time>
      </trkpt>
      <trkpt lat="47.11411" lon="-1.80132">
        <ele>68</ele>
        <time>2020-12-17T13:06:19.000Z</time>
      </trkpt>
      <trkpt lat="47.11402" lon="-1.80144">
        <ele>68</ele>
        <time>2020-12-17T13:06:21.000Z</time>
      </trkpt>
      <trkpt lat="47.11393" lon="-1.80156">
        <ele>68</ele>
        <time>2020-12-17T13:06:23.000Z</time>
      </trkpt>
      <trkpt lat="47.11384" lon="-1.80168">
        <ele>68</ele>
        <time>2020-12-17T13:06:25.000Z</time>
      </trkpt>
      <trkpt lat="47.11375" lon="-1.8018">
        <ele>68</ele>
        <time>2020-12-17T13:06:27.000Z</time>
      </trkpt>
      <trkpt lat="47.11365" lon="-1.80191">
        <ele>68</ele>
        <time>2020-12-17T13:06:29.000Z</time>
      </trkpt>
      <trkpt lat="47.11356" lon="-1.80204">
        <ele>68</ele>
        <time>2020-12-17T13:06:31.000Z</time>
      </trkpt>
      <trkpt lat="47.11347" lon="-1.80217">
        <ele>68</ele>
        <time>2020-12-17T13:06:33.000Z</time>
      </trkpt>
      <trkpt lat="47.11338" lon="-1.8023">
        <ele>68</ele>
        <time>2020-12-17T13:06:35.000Z</time>
      </trkpt>
      <trkpt lat="47.11329" lon="-1.80243">
        <ele>67</ele>
        <time>2020-12-17T13:06:37.000Z</time>
      </trkpt>
      <trkpt lat="47.1132" lon="-1.80257">
        <ele>67</ele>
        <time>2020-12-17T13:06:39.000Z</time>
      </trkpt>
      <trkpt lat="47.11312" lon="-1.80269">
        <ele>66</ele>
        <time>2020-12-17T13:06:41.000Z</time>
      </trkpt>
      <trkpt lat="47.11303" lon="-1.80281">
        <ele>66</ele>
        <time>2020-12-17T13:06:43.000Z</time>
      </trkpt>
      <trkpt lat="47.11294" lon="-1.80293">
        <ele>66</ele>
        <time>2020-12-17T13:06:45.000Z</time>
      </trkpt>
      <trkpt lat="47.11285" lon="-1.80304">
        <ele>66</ele>
        <time>2020-12-17T13:06:47.000Z</time>
      </trkpt>
      <trkpt lat="47.11276" lon="-1.80318">
        <ele>66</ele>
        <time>2020-12-17T13:06:49.000Z</time>
      </trkpt>
      <trkpt lat="47.11267" lon="-1.80329">
        <ele>65</ele>
        <time>2020-12-17T13:06:51.000Z</time>
      </trkpt>
      <trkpt lat="47.11259" lon="-1.80342">
        <ele>65</ele>
        <time>2020-12-17T13:06:53.000Z</time>
      </trkpt>
      <trkpt lat="47.1125" lon="-1.80354">
        <ele>65</ele>
        <time>2020-12-17T13:06:55.000Z</time>
      </trkpt>
      <trkpt lat="47.11241" lon="-1.80365">
        <ele>65</ele>
        <time>2020-12-17T13:06:57.000Z</time>
      </trkpt>
      <trkpt lat="47.11232" lon="-1.80376">
        <ele>66</ele>
        <time>2020-12-17T13:06:59.000Z</time>
      </trkpt>
      <trkpt lat="47.11224" lon="-1.80388">
        <ele>66</ele>
        <time>2020-12-17T13:07:01.000Z</time>
      </trkpt>
      <trkpt lat="47.11214" lon="-1.80399">
        <ele>67</ele>
        <time>2020-12-17T13:07:03.000Z</time>
      </trkpt>
      <trkpt lat="47.11204" lon="-1.80409">
        <ele>66</ele>
        <time>2020-12-17T13:07:05.000Z</time>
      </trkpt>
      <trkpt lat="47.11193" lon="-1.80419">
        <ele>66</ele>
        <time>2020-12-17T13:07:07.000Z</time>
      </trkpt>
      <trkpt lat="47.11183" lon="-1.80427">
        <ele>66</ele>
        <time>2020-12-17T13:07:09.000Z</time>
      </trkpt>
      <trkpt lat="47.11173" lon="-1.80436">
        <ele>65</ele>
        <time>2020-12-17T13:07:11.000Z</time>
      </trkpt>
      <trkpt lat="47.11162" lon="-1.80443">
        <ele>65</ele>
        <time>2020-12-17T13:07:13.000Z</time>
      </trkpt>
      <trkpt lat="47.11152" lon="-1.8045">
        <ele>65</ele>
        <time>2020-12-17T13:07:15.000Z</time>
      </trkpt>
      <trkpt lat="47.1114" lon="-1.80457">
        <ele>65</ele>
        <time>2020-12-17T13:07:17.000Z</time>
      </trkpt>
      <trkpt lat="47.1113" lon="-1.80465">
        <ele>64</ele>
        <time>2020-12-17T13:07:19.000Z</time>
      </trkpt>
      <trkpt lat="47.11119" lon="-1.80472">
        <ele>64</ele>
        <time>2020-12-17T13:07:21.000Z</time>
      </trkpt>
      <trkpt lat="47.11108" lon="-1.80479">
        <ele>64</ele>
        <time>2020-12-17T13:07:23.000Z</time>
      </trkpt>
      <trkpt lat="47.11098" lon="-1.80486">
        <ele>64</ele>
        <time>2020-12-17T13:07:25.000Z</time>
      </trkpt>
      <trkpt lat="47.11087" lon="-1.80494">
        <ele>64</ele>
        <time>2020-12-17T13:07:27.000Z</time>
      </trkpt>
      <trkpt lat="47.11077" lon="-1.805">
        <ele>64</ele>
        <time>2020-12-17T13:07:29.000Z</time>
      </trkpt>
      <trkpt lat="47.11066" lon="-1.80508">
        <ele>64</ele>
        <time>2020-12-17T13:07:31.000Z</time>
      </trkpt>
      <trkpt lat="47.11055" lon="-1.80515">
        <ele>64</ele>
        <time>2020-12-17T13:07:33.000Z</time>
      </trkpt>
      <trkpt lat="47.11044" lon="-1.80522">
        <ele>64</ele>
        <time>2020-12-17T13:07:35.000Z</time>
      </trkpt>
      <trkpt lat="47.11033" lon="-1.80529">
        <ele>63</ele>
        <time>2020-12-17T13:07:37.000Z</time>
      </trkpt>
      <trkpt lat="47.11022" lon="-1.80536">
        <ele>63</ele>
        <time>2020-12-17T13:07:39.000Z</time>
      </trkpt>
      <trkpt lat="47.11012" lon="-1.80543">
        <ele>63</ele>
        <time>2020-12-17T13:07:41.000Z</time>
      </trkpt>
      <trkpt lat="47.11001" lon="-1.80549">
        <ele>63</ele>
        <time>2020-12-17T13:07:43.000Z</time>
      </trkpt>
      <trkpt lat="47.10991" lon="-1.80557">
        <ele>63</ele>
        <time>2020-12-17T13:07:45.000Z</time>
      </trkpt>
      <trkpt lat="47.10981" lon="-1.80564">
        <ele>63</ele>
        <time>2020-12-17T13:07:47.000Z</time>
      </trkpt>
      <trkpt lat="47.1097" lon="-1.80571">
        <ele>63</ele>
        <time>2020-12-17T13:07:49.000Z</time>
      </trkpt>
      <trkpt lat="47.10959" lon="-1.80578">
        <ele>63</ele>
        <time>2020-12-17T13:07:51.000Z</time>
      </trkpt>
      <trkpt lat="47.10948" lon="-1.80585">
        <ele>63</ele>
        <time>2020-12-17T13:07:53.000Z</time>
      </trkpt>
      <trkpt lat="47.10938" lon="-1.80592">
        <ele>63</ele>
        <time>2020-12-17T13:07:55.000Z</time>
      </trkpt>
      <trkpt lat="47.10927" lon="-1.806">
        <ele>62</ele>
        <time>2020-12-17T13:07:57.000Z</time>
      </trkpt>
      <trkpt lat="47.10916" lon="-1.80606">
        <ele>62</ele>
        <time>2020-12-17T13:07:59.000Z</time>
      </trkpt>
      <trkpt lat="47.10905" lon="-1.80613">
        <ele>62</ele>
        <time>2020-12-17T13:08:01.000Z</time>
      </trkpt>
      <trkpt lat="47.10894" lon="-1.8062">
        <ele>63</ele>
        <time>2020-12-17T13:08:03.000Z</time>
      </trkpt>
      <trkpt lat="47.10884" lon="-1.80627">
        <ele>62</ele>
        <time>2020-12-17T13:08:05.000Z</time>
      </trkpt>
      <trkpt lat="47.10874" lon="-1.80634">
        <ele>63</ele>
        <time>2020-12-17T13:08:07.000Z</time>
      </trkpt>
      <trkpt lat="47.10863" lon="-1.80639">
        <ele>63</ele>
        <time>2020-12-17T13:08:09.000Z</time>
      </trkpt>
      <trkpt lat="47.10852" lon="-1.80643">
        <ele>63</ele>
        <time>2020-12-17T13:08:11.000Z</time>
      </trkpt>
      <trkpt lat="47.10841" lon="-1.80647">
        <ele>64</ele>
        <time>2020-12-17T13:08:13.000Z</time>
      </trkpt>
      <trkpt lat="47.10829" lon="-1.8065">
        <ele>63</ele>
        <time>2020-12-17T13:08:15.000Z</time>
      </trkpt>
      <trkpt lat="47.10817" lon="-1.80655">
        <ele>62</ele>
        <time>2020-12-17T13:08:17.000Z</time>
      </trkpt>
      <trkpt lat="47.10805" lon="-1.8066">
        <ele>62</ele>
        <time>2020-12-17T13:08:19.000Z</time>
      </trkpt>
      <trkpt lat="47.10793" lon="-1.80664">
        <ele>62</ele>
        <time>2020-12-17T13:08:21.000Z</time>
      </trkpt>
      <trkpt lat="47.10781" lon="-1.80669">
        <ele>62</ele>
        <time>2020-12-17T13:08:23.000Z</time>
      </trkpt>
      <trkpt lat="47.10769" lon="-1.80673">
        <ele>62</ele>
        <time>2020-12-17T13:08:25.000Z</time>
      </trkpt>
      <trkpt lat="47.10758" lon="-1.80677">
        <ele>62</ele>
        <time>2020-12-17T13:08:27.000Z</time>
      </trkpt>
      <trkpt lat="47.10746" lon="-1.8068">
        <ele>62</ele>
        <time>2020-12-17T13:08:29.000Z</time>
      </trkpt>
      <trkpt lat="47.10734" lon="-1.80683">
        <ele>62</ele>
        <time>2020-12-17T13:08:31.000Z</time>
      </trkpt>
      <trkpt lat="47.10721" lon="-1.80685">
        <ele>62</ele>
        <time>2020-12-17T13:08:33.000Z</time>
      </trkpt>
      <trkpt lat="47.10709" lon="-1.80686">
        <ele>61</ele>
        <time>2020-12-17T13:08:35.000Z</time>
      </trkpt>
      <trkpt lat="47.10697" lon="-1.80687">
        <ele>61</ele>
        <time>2020-12-17T13:08:37.000Z</time>
      </trkpt>
      <trkpt lat="47.10685" lon="-1.80689">
        <ele>61</ele>
        <time>2020-12-17T13:08:39.000Z</time>
      </trkpt>
      <trkpt lat="47.10674" lon="-1.8069">
        <ele>61</ele>
        <time>2020-12-17T13:08:41.000Z</time>
      </trkpt>
      <trkpt lat="47.10663" lon="-1.80691">
        <ele>61</ele>
        <time>2020-12-17T13:08:43.000Z</time>
      </trkpt>
      <trkpt lat="47.10651" lon="-1.80692">
        <ele>62</ele>
        <time>2020-12-17T13:08:45.000Z</time>
      </trkpt>
      <trkpt lat="47.10641" lon="-1.80694">
        <ele>62</ele>
        <time>2020-12-17T13:08:47.000Z</time>
      </trkpt>
      <trkpt lat="47.10628" lon="-1.80696">
        <ele>62</ele>
        <time>2020-12-17T13:08:49.000Z</time>
      </trkpt>
      <trkpt lat="47.10618" lon="-1.80699">
        <ele>62</ele>
        <time>2020-12-17T13:08:51.000Z</time>
      </trkpt>
      <trkpt lat="47.10607" lon="-1.80704">
        <ele>62</ele>
        <time>2020-12-17T13:08:53.000Z</time>
      </trkpt>
      <trkpt lat="47.10596" lon="-1.80709">
        <ele>61</ele>
        <time>2020-12-17T13:08:55.000Z</time>
      </trkpt>
      <trkpt lat="47.10586" lon="-1.80716">
        <ele>61</ele>
        <time>2020-12-17T13:08:57.000Z</time>
      </trkpt>
      <trkpt lat="47.10576" lon="-1.80725">
        <ele>61</ele>
        <time>2020-12-17T13:08:59.000Z</time>
      </trkpt>
      <trkpt lat="47.10567" lon="-1.80735">
        <ele>61</ele>
        <time>2020-12-17T13:09:01.000Z</time>
      </trkpt>
      <trkpt lat="47.10559" lon="-1.80746">
        <ele>61</ele>
        <time>2020-12-17T13:09:03.000Z</time>
      </trkpt>
      <trkpt lat="47.10549" lon="-1.80756">
        <ele>61</ele>
        <time>2020-12-17T13:09:05.000Z</time>
      </trkpt>
      <trkpt lat="47.1054" lon="-1.80767">
        <ele>61</ele>
        <time>2020-12-17T13:09:07.000Z</time>
      </trkpt>
      <trkpt lat="47.10531" lon="-1.80778">
        <ele>61</ele>
        <time>2020-12-17T13:09:09.000Z</time>
      </trkpt>
      <trkpt lat="47.10523" lon="-1.80788">
        <ele>60</ele>
        <time>2020-12-17T13:09:11.000Z</time>
      </trkpt>
      <trkpt lat="47.10516" lon="-1.808">
        <ele>60</ele>
        <time>2020-12-17T13:09:13.000Z</time>
      </trkpt>
      <trkpt lat="47.10506" lon="-1.80809">
        <ele>60</ele>
        <time>2020-12-17T13:09:15.000Z</time>
      </trkpt>
      <trkpt lat="47.10495" lon="-1.80818">
        <ele>59</ele>
        <time>2020-12-17T13:09:17.000Z</time>
      </trkpt>
      <trkpt lat="47.10485" lon="-1.80827">
        <ele>58</ele>
        <time>2020-12-17T13:09:19.000Z</time>
      </trkpt>
      <trkpt lat="47.10475" lon="-1.8084">
        <ele>58</ele>
        <time>2020-12-17T13:09:21.000Z</time>
      </trkpt>
      <trkpt lat="47.10467" lon="-1.80854">
        <ele>58</ele>
        <time>2020-12-17T13:09:23.000Z</time>
      </trkpt>
      <trkpt lat="47.10459" lon="-1.80867">
        <ele>58</ele>
        <time>2020-12-17T13:09:25.000Z</time>
      </trkpt>
      <trkpt lat="47.10451" lon="-1.80879">
        <ele>58</ele>
        <time>2020-12-17T13:09:27.000Z</time>
      </trkpt>
      <trkpt lat="47.10445" lon="-1.80891">
        <ele>58</ele>
        <time>2020-12-17T13:09:29.000Z</time>
      </trkpt>
      <trkpt lat="47.10438" lon="-1.80902">
        <ele>58</ele>
        <time>2020-12-17T13:09:31.000Z</time>
      </trkpt>
      <trkpt lat="47.10431" lon="-1.80912">
        <ele>59</ele>
        <time>2020-12-17T13:09:33.000Z</time>
      </trkpt>
      <trkpt lat="47.10423" lon="-1.80922">
        <ele>59</ele>
        <time>2020-12-17T13:09:35.000Z</time>
      </trkpt>
      <trkpt lat="47.10415" lon="-1.80932">
        <ele>60</ele>
        <time>2020-12-17T13:09:37.000Z</time>
      </trkpt>
      <trkpt lat="47.10409" lon="-1.80944">
        <ele>61</ele>
        <time>2020-12-17T13:09:39.000Z</time>
      </trkpt>
      <trkpt lat="47.10402" lon="-1.80955">
        <ele>61</ele>
        <time>2020-12-17T13:09:41.000Z</time>
      </trkpt>
      <trkpt lat="47.10396" lon="-1.80966">
        <ele>62</ele>
        <time>2020-12-17T13:09:43.000Z</time>
      </trkpt>
      <trkpt lat="47.10387" lon="-1.80979">
        <ele>61</ele>
        <time>2020-12-17T13:09:46.000Z</time>
      </trkpt>
      <trkpt lat="47.1038" lon="-1.8099">
        <ele>61</ele>
        <time>2020-12-17T13:09:49.000Z</time>
      </trkpt>
      <trkpt lat="47.10377" lon="-1.81009">
        <ele>62</ele>
        <time>2020-12-17T13:09:52.000Z</time>
      </trkpt>
      <trkpt lat="47.10372" lon="-1.81027">
        <ele>63</ele>
        <time>2020-12-17T13:09:55.000Z</time>
      </trkpt>
      <trkpt lat="47.10365" lon="-1.81037">
        <ele>63</ele>
        <time>2020-12-17T13:09:57.000Z</time>
      </trkpt>
      <trkpt lat="47.10355" lon="-1.81041">
        <ele>64</ele>
        <time>2020-12-17T13:09:59.000Z</time>
      </trkpt>
      <trkpt lat="47.10346" lon="-1.81032">
        <ele>65</ele>
        <time>2020-12-17T13:10:01.000Z</time>
      </trkpt>
      <trkpt lat="47.10338" lon="-1.8102">
        <ele>64</ele>
        <time>2020-12-17T13:10:03.000Z</time>
      </trkpt>
      <trkpt lat="47.10327" lon="-1.81011">
        <ele>64</ele>
        <time>2020-12-17T13:10:05.000Z</time>
      </trkpt>
      <trkpt lat="47.10315" lon="-1.8101">
        <ele>64</ele>
        <time>2020-12-17T13:10:07.000Z</time>
      </trkpt>
      <trkpt lat="47.10302" lon="-1.8101">
        <ele>62</ele>
        <time>2020-12-17T13:10:09.000Z</time>
      </trkpt>
      <trkpt lat="47.10289" lon="-1.81008">
        <ele>62</ele>
        <time>2020-12-17T13:10:11.000Z</time>
      </trkpt>
      <trkpt lat="47.10278" lon="-1.81007">
        <ele>61</ele>
        <time>2020-12-17T13:10:13.000Z</time>
      </trkpt>
      <trkpt lat="47.10266" lon="-1.81008">
        <ele>61</ele>
        <time>2020-12-17T13:10:15.000Z</time>
      </trkpt>
      <trkpt lat="47.10253" lon="-1.81011">
        <ele>59</ele>
        <time>2020-12-17T13:10:17.000Z</time>
      </trkpt>
      <trkpt lat="47.10238" lon="-1.81011">
        <ele>58</ele>
        <time>2020-12-17T13:10:19.000Z</time>
      </trkpt>
      <trkpt lat="47.10226" lon="-1.8101">
        <ele>58</ele>
        <time>2020-12-17T13:10:21.000Z</time>
      </trkpt>
      <trkpt lat="47.10213" lon="-1.81006">
        <ele>57</ele>
        <time>2020-12-17T13:10:23.000Z</time>
      </trkpt>
      <trkpt lat="47.102" lon="-1.81001">
        <ele>58</ele>
        <time>2020-12-17T13:10:25.000Z</time>
      </trkpt>
      <trkpt lat="47.10189" lon="-1.80996">
        <ele>58</ele>
        <time>2020-12-17T13:10:27.000Z</time>
      </trkpt>
      <trkpt lat="47.10177" lon="-1.8099">
        <ele>57</ele>
        <time>2020-12-17T13:10:29.000Z</time>
      </trkpt>
      <trkpt lat="47.10166" lon="-1.80985">
        <ele>58</ele>
        <time>2020-12-17T13:10:31.000Z</time>
      </trkpt>
      <trkpt lat="47.10156" lon="-1.80979">
        <ele>58</ele>
        <time>2020-12-17T13:10:33.000Z</time>
      </trkpt>
      <trkpt lat="47.10147" lon="-1.80975">
        <ele>59</ele>
        <time>2020-12-17T13:10:35.000Z</time>
      </trkpt>
      <trkpt lat="47.10137" lon="-1.80973">
        <ele>59</ele>
        <time>2020-12-17T13:10:37.000Z</time>
      </trkpt>
      <trkpt lat="47.10126" lon="-1.80971">
        <ele>58</ele>
        <time>2020-12-17T13:10:39.000Z</time>
      </trkpt>
      <trkpt lat="47.10115" lon="-1.80971">
        <ele>58</ele>
        <time>2020-12-17T13:10:41.000Z</time>
      </trkpt>
      <trkpt lat="47.10103" lon="-1.80971">
        <ele>57</ele>
        <time>2020-12-17T13:10:43.000Z</time>
      </trkpt>
      <trkpt lat="47.10092" lon="-1.80972">
        <ele>57</ele>
        <time>2020-12-17T13:10:45.000Z</time>
      </trkpt>
      <trkpt lat="47.10081" lon="-1.80973">
        <ele>57</ele>
        <time>2020-12-17T13:10:47.000Z</time>
      </trkpt>
      <trkpt lat="47.1007" lon="-1.80972">
        <ele>57</ele>
        <time>2020-12-17T13:10:49.000Z</time>
      </trkpt>
      <trkpt lat="47.1006" lon="-1.80972">
        <ele>57</ele>
        <time>2020-12-17T13:10:51.000Z</time>
      </trkpt>
      <trkpt lat="47.1005" lon="-1.80972">
        <ele>58</ele>
        <time>2020-12-17T13:10:53.000Z</time>
      </trkpt>
      <trkpt lat="47.10039" lon="-1.80973">
        <ele>57</ele>
        <time>2020-12-17T13:10:55.000Z</time>
      </trkpt>
      <trkpt lat="47.10028" lon="-1.80975">
        <ele>57</ele>
        <time>2020-12-17T13:10:57.000Z</time>
      </trkpt>
      <trkpt lat="47.10017" lon="-1.80977">
        <ele>58</ele>
        <time>2020-12-17T13:10:59.000Z</time>
      </trkpt>
      <trkpt lat="47.10007" lon="-1.80977">
        <ele>59</ele>
        <time>2020-12-17T13:11:01.000Z</time>
      </trkpt>
      <trkpt lat="47.09997" lon="-1.80979">
        <ele>59</ele>
        <time>2020-12-17T13:11:03.000Z</time>
      </trkpt>
      <trkpt lat="47.09987" lon="-1.80979">
        <ele>59</ele>
        <time>2020-12-17T13:11:05.000Z</time>
      </trkpt>
      <trkpt lat="47.09977" lon="-1.80981">
        <ele>58</ele>
        <time>2020-12-17T13:11:07.000Z</time>
      </trkpt>
      <trkpt lat="47.09968" lon="-1.8098">
        <ele>59</ele>
        <time>2020-12-17T13:11:09.000Z</time>
      </trkpt>
      <trkpt lat="47.09958" lon="-1.8098">
        <ele>59</ele>
        <time>2020-12-17T13:11:11.000Z</time>
      </trkpt>
      <trkpt lat="47.09947" lon="-1.8098">
        <ele>59</ele>
        <time>2020-12-17T13:11:13.000Z</time>
      </trkpt>
      <trkpt lat="47.09937" lon="-1.80982">
        <ele>59</ele>
        <time>2020-12-17T13:11:15.000Z</time>
      </trkpt>
      <trkpt lat="47.09927" lon="-1.80984">
        <ele>59</ele>
        <time>2020-12-17T13:11:17.000Z</time>
      </trkpt>
      <trkpt lat="47.09917" lon="-1.80984">
        <ele>59</ele>
        <time>2020-12-17T13:11:19.000Z</time>
      </trkpt>
      <trkpt lat="47.09907" lon="-1.80985">
        <ele>60</ele>
        <time>2020-12-17T13:11:21.000Z</time>
      </trkpt>
      <trkpt lat="47.09897" lon="-1.80985">
        <ele>60</ele>
        <time>2020-12-17T13:11:23.000Z</time>
      </trkpt>
      <trkpt lat="47.09887" lon="-1.80985">
        <ele>60</ele>
        <time>2020-12-17T13:11:25.000Z</time>
      </trkpt>
      <trkpt lat="47.09876" lon="-1.80985">
        <ele>61</ele>
        <time>2020-12-17T13:11:27.000Z</time>
      </trkpt>
      <trkpt lat="47.09866" lon="-1.80983">
        <ele>61</ele>
        <time>2020-12-17T13:11:29.000Z</time>
      </trkpt>
      <trkpt lat="47.09856" lon="-1.80983">
        <ele>61</ele>
        <time>2020-12-17T13:11:31.000Z</time>
      </trkpt>
      <trkpt lat="47.09845" lon="-1.80985">
        <ele>60</ele>
        <time>2020-12-17T13:11:33.000Z</time>
      </trkpt>
      <trkpt lat="47.09835" lon="-1.80986">
        <ele>60</ele>
        <time>2020-12-17T13:11:35.000Z</time>
      </trkpt>
      <trkpt lat="47.09826" lon="-1.80987">
        <ele>61</ele>
        <time>2020-12-17T13:11:37.000Z</time>
      </trkpt>
      <trkpt lat="47.09813" lon="-1.80989">
        <ele>61</ele>
        <time>2020-12-17T13:11:40.000Z</time>
      </trkpt>
      <trkpt lat="47.09803" lon="-1.80989">
        <ele>62</ele>
        <time>2020-12-17T13:11:42.000Z</time>
      </trkpt>
      <trkpt lat="47.09792" lon="-1.80988">
        <ele>61</ele>
        <time>2020-12-17T13:11:44.000Z</time>
      </trkpt>
      <trkpt lat="47.09781" lon="-1.80988">
        <ele>62</ele>
        <time>2020-12-17T13:11:46.000Z</time>
      </trkpt>
      <trkpt lat="47.09771" lon="-1.80987">
        <ele>62</ele>
        <time>2020-12-17T13:11:48.000Z</time>
      </trkpt>
      <trkpt lat="47.0976" lon="-1.80985">
        <ele>62</ele>
        <time>2020-12-17T13:11:50.000Z</time>
      </trkpt>
      <trkpt lat="47.0975" lon="-1.80982">
        <ele>61</ele>
        <time>2020-12-17T13:11:52.000Z</time>
      </trkpt>
      <trkpt lat="47.09739" lon="-1.8098">
        <ele>61</ele>
        <time>2020-12-17T13:11:54.000Z</time>
      </trkpt>
      <trkpt lat="47.09729" lon="-1.80978">
        <ele>61</ele>
        <time>2020-12-17T13:11:56.000Z</time>
      </trkpt>
      <trkpt lat="47.09718" lon="-1.80976">
        <ele>61</ele>
        <time>2020-12-17T13:11:58.000Z</time>
      </trkpt>
      <trkpt lat="47.09707" lon="-1.80973">
        <ele>61</ele>
        <time>2020-12-17T13:12:00.000Z</time>
      </trkpt>
      <trkpt lat="47.09695" lon="-1.80971">
        <ele>61</ele>
        <time>2020-12-17T13:12:02.000Z</time>
      </trkpt>
      <trkpt lat="47.09684" lon="-1.80969">
        <ele>61</ele>
        <time>2020-12-17T13:12:04.000Z</time>
      </trkpt>
      <trkpt lat="47.09673" lon="-1.80966">
        <ele>61</ele>
        <time>2020-12-17T13:12:06.000Z</time>
      </trkpt>
      <trkpt lat="47.09662" lon="-1.80963">
        <ele>61</ele>
        <time>2020-12-17T13:12:08.000Z</time>
      </trkpt>
      <trkpt lat="47.09651" lon="-1.80961">
        <ele>60</ele>
        <time>2020-12-17T13:12:10.000Z</time>
      </trkpt>
      <trkpt lat="47.0964" lon="-1.8096">
        <ele>61</ele>
        <time>2020-12-17T13:12:12.000Z</time>
      </trkpt>
      <trkpt lat="47.0963" lon="-1.80958">
        <ele>61</ele>
        <time>2020-12-17T13:12:14.000Z</time>
      </trkpt>
      <trkpt lat="47.09619" lon="-1.80955">
        <ele>60</ele>
        <time>2020-12-17T13:12:16.000Z</time>
      </trkpt>
      <trkpt lat="47.09608" lon="-1.80953">
        <ele>60</ele>
        <time>2020-12-17T13:12:18.000Z</time>
      </trkpt>
      <trkpt lat="47.09595" lon="-1.80948">
        <ele>60</ele>
        <time>2020-12-17T13:12:20.000Z</time>
      </trkpt>
      <trkpt lat="47.09583" lon="-1.80944">
        <ele>60</ele>
        <time>2020-12-17T13:12:22.000Z</time>
      </trkpt>
      <trkpt lat="47.0957" lon="-1.80941">
        <ele>60</ele>
        <time>2020-12-17T13:12:24.000Z</time>
      </trkpt>
      <trkpt lat="47.09557" lon="-1.80939">
        <ele>60</ele>
        <time>2020-12-17T13:12:26.000Z</time>
      </trkpt>
      <trkpt lat="47.09544" lon="-1.80936">
        <ele>60</ele>
        <time>2020-12-17T13:12:28.000Z</time>
      </trkpt>
      <trkpt lat="47.09532" lon="-1.80933">
        <ele>61</ele>
        <time>2020-12-17T13:12:30.000Z</time>
      </trkpt>
      <trkpt lat="47.0952" lon="-1.80931">
        <ele>60</ele>
        <time>2020-12-17T13:12:32.000Z</time>
      </trkpt>
      <trkpt lat="47.09507" lon="-1.80929">
        <ele>60</ele>
        <time>2020-12-17T13:12:34.000Z</time>
      </trkpt>
      <trkpt lat="47.09494" lon="-1.80927">
        <ele>60</ele>
        <time>2020-12-17T13:12:36.000Z</time>
      </trkpt>
      <trkpt lat="47.09483" lon="-1.80929">
        <ele>59</ele>
        <time>2020-12-17T13:12:38.000Z</time>
      </trkpt>
      <trkpt lat="47.09473" lon="-1.80934">
        <ele>59</ele>
        <time>2020-12-17T13:12:40.000Z</time>
      </trkpt>
      <trkpt lat="47.09461" lon="-1.8094">
        <ele>59</ele>
        <time>2020-12-17T13:12:42.000Z</time>
      </trkpt>
      <trkpt lat="47.09449" lon="-1.80946">
        <ele>59</ele>
        <time>2020-12-17T13:12:44.000Z</time>
      </trkpt>
      <trkpt lat="47.09437" lon="-1.80953">
        <ele>58</ele>
        <time>2020-12-17T13:12:46.000Z</time>
      </trkpt>
      <trkpt lat="47.09426" lon="-1.8096">
        <ele>58</ele>
        <time>2020-12-17T13:12:48.000Z</time>
      </trkpt>
      <trkpt lat="47.09414" lon="-1.80967">
        <ele>58</ele>
        <time>2020-12-17T13:12:50.000Z</time>
      </trkpt>
      <trkpt lat="47.09402" lon="-1.80975">
        <ele>57</ele>
        <time>2020-12-17T13:12:52.000Z</time>
      </trkpt>
      <trkpt lat="47.0939" lon="-1.80983">
        <ele>57</ele>
        <time>2020-12-17T13:12:54.000Z</time>
      </trkpt>
      <trkpt lat="47.09378" lon="-1.8099">
        <ele>57</ele>
        <time>2020-12-17T13:12:56.000Z</time>
      </trkpt>
      <trkpt lat="47.09366" lon="-1.80997">
        <ele>57</ele>
        <time>2020-12-17T13:12:58.000Z</time>
      </trkpt>
      <trkpt lat="47.09354" lon="-1.81004">
        <ele>56</ele>
        <time>2020-12-17T13:13:00.000Z</time>
      </trkpt>
      <trkpt lat="47.09341" lon="-1.8101">
        <ele>55</ele>
        <time>2020-12-17T13:13:02.000Z</time>
      </trkpt>
      <trkpt lat="47.09329" lon="-1.81018">
        <ele>55</ele>
        <time>2020-12-17T13:13:04.000Z</time>
      </trkpt>
      <trkpt lat="47.09316" lon="-1.81025">
        <ele>55</ele>
        <time>2020-12-17T13:13:06.000Z</time>
      </trkpt>
      <trkpt lat="47.09304" lon="-1.81034">
        <ele>55</ele>
        <time>2020-12-17T13:13:08.000Z</time>
      </trkpt>
      <trkpt lat="47.09291" lon="-1.81041">
        <ele>54</ele>
        <time>2020-12-17T13:13:10.000Z</time>
      </trkpt>
      <trkpt lat="47.0928" lon="-1.81048">
        <ele>54</ele>
        <time>2020-12-17T13:13:12.000Z</time>
      </trkpt>
      <trkpt lat="47.09268" lon="-1.81055">
        <ele>53</ele>
        <time>2020-12-17T13:13:14.000Z</time>
      </trkpt>
      <trkpt lat="47.09256" lon="-1.81062">
        <ele>53</ele>
        <time>2020-12-17T13:13:16.000Z</time>
      </trkpt>
      <trkpt lat="47.09245" lon="-1.8107">
        <ele>53</ele>
        <time>2020-12-17T13:13:18.000Z</time>
      </trkpt>
      <trkpt lat="47.09236" lon="-1.81079">
        <ele>52</ele>
        <time>2020-12-17T13:13:20.000Z</time>
      </trkpt>
      <trkpt lat="47.09229" lon="-1.81089">
        <ele>53</ele>
        <time>2020-12-17T13:13:24.000Z</time>
      </trkpt>
      <trkpt lat="47.09219" lon="-1.81086">
        <ele>53</ele>
        <time>2020-12-17T13:13:31.000Z</time>
      </trkpt>
      <trkpt lat="47.0921" lon="-1.81082">
        <ele>53</ele>
        <time>2020-12-17T13:13:33.000Z</time>
      </trkpt>
      <trkpt lat="47.09201" lon="-1.81074">
        <ele>53</ele>
        <time>2020-12-17T13:13:35.000Z</time>
      </trkpt>
      <trkpt lat="47.09191" lon="-1.81065">
        <ele>53</ele>
        <time>2020-12-17T13:13:37.000Z</time>
      </trkpt>
      <trkpt lat="47.09182" lon="-1.81058">
        <ele>53</ele>
        <time>2020-12-17T13:13:39.000Z</time>
      </trkpt>
      <trkpt lat="47.09173" lon="-1.81053">
        <ele>53</ele>
        <time>2020-12-17T13:13:41.000Z</time>
      </trkpt>
      <trkpt lat="47.09164" lon="-1.81069">
        <ele>52</ele>
        <time>2020-12-17T13:13:44.000Z</time>
      </trkpt>
      <trkpt lat="47.09158" lon="-1.81083">
        <ele>53</ele>
        <time>2020-12-17T13:13:46.000Z</time>
      </trkpt>
      <trkpt lat="47.09149" lon="-1.81096">
        <ele>53</ele>
        <time>2020-12-17T13:13:48.000Z</time>
      </trkpt>
      <trkpt lat="47.09139" lon="-1.81106">
        <ele>53</ele>
        <time>2020-12-17T13:13:50.000Z</time>
      </trkpt>
      <trkpt lat="47.09127" lon="-1.81113">
        <ele>53</ele>
        <time>2020-12-17T13:13:52.000Z</time>
      </trkpt>
      <trkpt lat="47.09115" lon="-1.81117">
        <ele>53</ele>
        <time>2020-12-17T13:13:54.000Z</time>
      </trkpt>
      <trkpt lat="47.09103" lon="-1.81119">
        <ele>53</ele>
        <time>2020-12-17T13:13:56.000Z</time>
      </trkpt>
      <trkpt lat="47.0909" lon="-1.81121">
        <ele>52</ele>
        <time>2020-12-17T13:13:58.000Z</time>
      </trkpt>
      <trkpt lat="47.09078" lon="-1.81123">
        <ele>53</ele>
        <time>2020-12-17T13:14:00.000Z</time>
      </trkpt>
      <trkpt lat="47.09068" lon="-1.8113">
        <ele>52</ele>
        <time>2020-12-17T13:14:02.000Z</time>
      </trkpt>
      <trkpt lat="47.09059" lon="-1.8114">
        <ele>52</ele>
        <time>2020-12-17T13:14:04.000Z</time>
      </trkpt>
      <trkpt lat="47.09053" lon="-1.81152">
        <ele>52</ele>
        <time>2020-12-17T13:14:06.000Z</time>
      </trkpt>
      <trkpt lat="47.09048" lon="-1.81166">
        <ele>53</ele>
        <time>2020-12-17T13:14:08.000Z</time>
      </trkpt>
      <trkpt lat="47.09043" lon="-1.8118">
        <ele>53</ele>
        <time>2020-12-17T13:14:10.000Z</time>
      </trkpt>
      <trkpt lat="47.09039" lon="-1.81195">
        <ele>54</ele>
        <time>2020-12-17T13:14:12.000Z</time>
      </trkpt>
      <trkpt lat="47.09035" lon="-1.81209">
        <ele>54</ele>
        <time>2020-12-17T13:14:14.000Z</time>
      </trkpt>
      <trkpt lat="47.09031" lon="-1.81224">
        <ele>55</ele>
        <time>2020-12-17T13:14:16.000Z</time>
      </trkpt>
      <trkpt lat="47.09025" lon="-1.81237">
        <ele>55</ele>
        <time>2020-12-17T13:14:18.000Z</time>
      </trkpt>
      <trkpt lat="47.0902" lon="-1.8125">
        <ele>56</ele>
        <time>2020-12-17T13:14:20.000Z</time>
      </trkpt>
      <trkpt lat="47.09013" lon="-1.81262">
        <ele>57</ele>
        <time>2020-12-17T13:14:22.000Z</time>
      </trkpt>
      <trkpt lat="47.09005" lon="-1.81274">
        <ele>57</ele>
        <time>2020-12-17T13:14:24.000Z</time>
      </trkpt>
      <trkpt lat="47.08998" lon="-1.81285">
        <ele>58</ele>
        <time>2020-12-17T13:14:26.000Z</time>
      </trkpt>
      <trkpt lat="47.08989" lon="-1.81295">
        <ele>58</ele>
        <time>2020-12-17T13:14:28.000Z</time>
      </trkpt>
      <trkpt lat="47.08982" lon="-1.81305">
        <ele>58</ele>
        <time>2020-12-17T13:14:30.000Z</time>
      </trkpt>
      <trkpt lat="47.08974" lon="-1.81316">
        <ele>58</ele>
        <time>2020-12-17T13:14:32.000Z</time>
      </trkpt>
      <trkpt lat="47.08967" lon="-1.81327">
        <ele>58</ele>
        <time>2020-12-17T13:14:34.000Z</time>
      </trkpt>
      <trkpt lat="47.08959" lon="-1.81338">
        <ele>59</ele>
        <time>2020-12-17T13:14:36.000Z</time>
      </trkpt>
      <trkpt lat="47.08951" lon="-1.81348">
        <ele>59</ele>
        <time>2020-12-17T13:14:38.000Z</time>
      </trkpt>
      <trkpt lat="47.08943" lon="-1.81358">
        <ele>59</ele>
        <time>2020-12-17T13:14:40.000Z</time>
      </trkpt>
      <trkpt lat="47.08934" lon="-1.81366">
        <ele>59</ele>
        <time>2020-12-17T13:14:42.000Z</time>
      </trkpt>
      <trkpt lat="47.08926" lon="-1.81375">
        <ele>59</ele>
        <time>2020-12-17T13:14:44.000Z</time>
      </trkpt>
      <trkpt lat="47.08917" lon="-1.81383">
        <ele>60</ele>
        <time>2020-12-17T13:14:46.000Z</time>
      </trkpt>
      <trkpt lat="47.08908" lon="-1.81392">
        <ele>59</ele>
        <time>2020-12-17T13:14:48.000Z</time>
      </trkpt>
      <trkpt lat="47.08899" lon="-1.81402">
        <ele>59</ele>
        <time>2020-12-17T13:14:50.000Z</time>
      </trkpt>
      <trkpt lat="47.08891" lon="-1.81412">
        <ele>59</ele>
        <time>2020-12-17T13:14:52.000Z</time>
      </trkpt>
      <trkpt lat="47.08884" lon="-1.81422">
        <ele>59</ele>
        <time>2020-12-17T13:14:54.000Z</time>
      </trkpt>
      <trkpt lat="47.08876" lon="-1.81432">
        <ele>59</ele>
        <time>2020-12-17T13:14:56.000Z</time>
      </trkpt>
      <trkpt lat="47.08869" lon="-1.81442">
        <ele>60</ele>
        <time>2020-12-17T13:14:58.000Z</time>
      </trkpt>
      <trkpt lat="47.0886" lon="-1.8145">
        <ele>60</ele>
        <time>2020-12-17T13:15:00.000Z</time>
      </trkpt>
      <trkpt lat="47.08851" lon="-1.81459">
        <ele>60</ele>
        <time>2020-12-17T13:15:02.000Z</time>
      </trkpt>
      <trkpt lat="47.08842" lon="-1.81467">
        <ele>60</ele>
        <time>2020-12-17T13:15:04.000Z</time>
      </trkpt>
      <trkpt lat="47.08833" lon="-1.81475">
        <ele>60</ele>
        <time>2020-12-17T13:15:06.000Z</time>
      </trkpt>
      <trkpt lat="47.08825" lon="-1.81481">
        <ele>60</ele>
        <time>2020-12-17T13:15:08.000Z</time>
      </trkpt>
      <trkpt lat="47.08813" lon="-1.81491">
        <ele>60</ele>
        <time>2020-12-17T13:15:11.000Z</time>
      </trkpt>
      <trkpt lat="47.08805" lon="-1.81497">
        <ele>60</ele>
        <time>2020-12-17T13:15:13.000Z</time>
      </trkpt>
      <trkpt lat="47.08797" lon="-1.81504">
        <ele>59</ele>
        <time>2020-12-17T13:15:15.000Z</time>
      </trkpt>
      <trkpt lat="47.08788" lon="-1.81511">
        <ele>59</ele>
        <time>2020-12-17T13:15:17.000Z</time>
      </trkpt>
      <trkpt lat="47.0878" lon="-1.81519">
        <ele>60</ele>
        <time>2020-12-17T13:15:19.000Z</time>
      </trkpt>
      <trkpt lat="47.08771" lon="-1.81526">
        <ele>60</ele>
        <time>2020-12-17T13:15:21.000Z</time>
      </trkpt>
      <trkpt lat="47.08763" lon="-1.81533">
        <ele>61</ele>
        <time>2020-12-17T13:15:23.000Z</time>
      </trkpt>
      <trkpt lat="47.08752" lon="-1.81544">
        <ele>62</ele>
        <time>2020-12-17T13:15:26.000Z</time>
      </trkpt>
      <trkpt lat="47.08744" lon="-1.81552">
        <ele>62</ele>
        <time>2020-12-17T13:15:28.000Z</time>
      </trkpt>
      <trkpt lat="47.08737" lon="-1.81562">
        <ele>62</ele>
        <time>2020-12-17T13:15:30.000Z</time>
      </trkpt>
      <trkpt lat="47.08732" lon="-1.81574">
        <ele>62</ele>
        <time>2020-12-17T13:15:32.000Z</time>
      </trkpt>
      <trkpt lat="47.08727" lon="-1.81586">
        <ele>63</ele>
        <time>2020-12-17T13:15:34.000Z</time>
      </trkpt>
      <trkpt lat="47.08722" lon="-1.81599">
        <ele>64</ele>
        <time>2020-12-17T13:15:36.000Z</time>
      </trkpt>
      <trkpt lat="47.08717" lon="-1.81611">
        <ele>64</ele>
        <time>2020-12-17T13:15:38.000Z</time>
      </trkpt>
      <trkpt lat="47.08712" lon="-1.81624">
        <ele>65</ele>
        <time>2020-12-17T13:15:40.000Z</time>
      </trkpt>
      <trkpt lat="47.08707" lon="-1.81636">
        <ele>65</ele>
        <time>2020-12-17T13:15:42.000Z</time>
      </trkpt>
      <trkpt lat="47.08703" lon="-1.81649">
        <ele>65</ele>
        <time>2020-12-17T13:15:44.000Z</time>
      </trkpt>
      <trkpt lat="47.08698" lon="-1.81661">
        <ele>66</ele>
        <time>2020-12-17T13:15:46.000Z</time>
      </trkpt>
      <trkpt lat="47.08692" lon="-1.81674">
        <ele>66</ele>
        <time>2020-12-17T13:15:48.000Z</time>
      </trkpt>
      <trkpt lat="47.08684" lon="-1.81682">
        <ele>66</ele>
        <time>2020-12-17T13:15:50.000Z</time>
      </trkpt>
      <trkpt lat="47.08675" lon="-1.81688">
        <ele>66</ele>
        <time>2020-12-17T13:15:52.000Z</time>
      </trkpt>
      <trkpt lat="47.08665" lon="-1.81693">
        <ele>66</ele>
        <time>2020-12-17T13:15:54.000Z</time>
      </trkpt>
      <trkpt lat="47.08655" lon="-1.81696">
        <ele>66</ele>
        <time>2020-12-17T13:15:56.000Z</time>
      </trkpt>
      <trkpt lat="47.08645" lon="-1.81695">
        <ele>66</ele>
        <time>2020-12-17T13:15:58.000Z</time>
      </trkpt>
      <trkpt lat="47.08636" lon="-1.81694">
        <ele>66</ele>
        <time>2020-12-17T13:16:00.000Z</time>
      </trkpt>
      <trkpt lat="47.08626" lon="-1.81692">
        <ele>66</ele>
        <time>2020-12-17T13:16:02.000Z</time>
      </trkpt>
      <trkpt lat="47.08616" lon="-1.8169">
        <ele>66</ele>
        <time>2020-12-17T13:16:04.000Z</time>
      </trkpt>
      <trkpt lat="47.08605" lon="-1.81687">
        <ele>66</ele>
        <time>2020-12-17T13:16:06.000Z</time>
      </trkpt>
      <trkpt lat="47.08595" lon="-1.81684">
        <ele>65</ele>
        <time>2020-12-17T13:16:08.000Z</time>
      </trkpt>
      <trkpt lat="47.08586" lon="-1.81681">
        <ele>65</ele>
        <time>2020-12-17T13:16:10.000Z</time>
      </trkpt>
      <trkpt lat="47.08576" lon="-1.81678">
        <ele>65</ele>
        <time>2020-12-17T13:16:12.000Z</time>
      </trkpt>
      <trkpt lat="47.08565" lon="-1.81676">
        <ele>66</ele>
        <time>2020-12-17T13:16:14.000Z</time>
      </trkpt>
      <trkpt lat="47.08554" lon="-1.81674">
        <ele>65</ele>
        <time>2020-12-17T13:16:16.000Z</time>
      </trkpt>
      <trkpt lat="47.08545" lon="-1.81672">
        <ele>65</ele>
        <time>2020-12-17T13:16:18.000Z</time>
      </trkpt>
      <trkpt lat="47.08535" lon="-1.81669">
        <ele>65</ele>
        <time>2020-12-17T13:16:20.000Z</time>
      </trkpt>
      <trkpt lat="47.08525" lon="-1.81666">
        <ele>65</ele>
        <time>2020-12-17T13:16:22.000Z</time>
      </trkpt>
      <trkpt lat="47.08515" lon="-1.81664">
        <ele>65</ele>
        <time>2020-12-17T13:16:24.000Z</time>
      </trkpt>
      <trkpt lat="47.08504" lon="-1.81662">
        <ele>66</ele>
        <time>2020-12-17T13:16:26.000Z</time>
      </trkpt>
      <trkpt lat="47.08493" lon="-1.8166">
        <ele>66</ele>
        <time>2020-12-17T13:16:28.000Z</time>
      </trkpt>
      <trkpt lat="47.08483" lon="-1.81658">
        <ele>66</ele>
        <time>2020-12-17T13:16:30.000Z</time>
      </trkpt>
      <trkpt lat="47.08472" lon="-1.81656">
        <ele>65</ele>
        <time>2020-12-17T13:16:32.000Z</time>
      </trkpt>
      <trkpt lat="47.08461" lon="-1.81654">
        <ele>65</ele>
        <time>2020-12-17T13:16:34.000Z</time>
      </trkpt>
      <trkpt lat="47.08451" lon="-1.81654">
        <ele>65</ele>
        <time>2020-12-17T13:16:36.000Z</time>
      </trkpt>
      <trkpt lat="47.08441" lon="-1.81651">
        <ele>65</ele>
        <time>2020-12-17T13:16:38.000Z</time>
      </trkpt>
      <trkpt lat="47.0843" lon="-1.8165">
        <ele>64</ele>
        <time>2020-12-17T13:16:40.000Z</time>
      </trkpt>
      <trkpt lat="47.08419" lon="-1.81649">
        <ele>64</ele>
        <time>2020-12-17T13:16:42.000Z</time>
      </trkpt>
      <trkpt lat="47.08408" lon="-1.81647">
        <ele>64</ele>
        <time>2020-12-17T13:16:44.000Z</time>
      </trkpt>
      <trkpt lat="47.08397" lon="-1.81646">
        <ele>64</ele>
        <time>2020-12-17T13:16:46.000Z</time>
      </trkpt>
      <trkpt lat="47.08386" lon="-1.81644">
        <ele>63</ele>
        <time>2020-12-17T13:16:48.000Z</time>
      </trkpt>
      <trkpt lat="47.08376" lon="-1.81642">
        <ele>63</ele>
        <time>2020-12-17T13:16:50.000Z</time>
      </trkpt>
      <trkpt lat="47.08365" lon="-1.81641">
        <ele>63</ele>
        <time>2020-12-17T13:16:52.000Z</time>
      </trkpt>
      <trkpt lat="47.08354" lon="-1.8164">
        <ele>63</ele>
        <time>2020-12-17T13:16:54.000Z</time>
      </trkpt>
      <trkpt lat="47.08343" lon="-1.81638">
        <ele>63</ele>
        <time>2020-12-17T13:16:56.000Z</time>
      </trkpt>
      <trkpt lat="47.08333" lon="-1.81636">
        <ele>63</ele>
        <time>2020-12-17T13:16:58.000Z</time>
      </trkpt>
      <trkpt lat="47.08323" lon="-1.81635">
        <ele>64</ele>
        <time>2020-12-17T13:17:00.000Z</time>
      </trkpt>
      <trkpt lat="47.08314" lon="-1.81634">
        <ele>64</ele>
        <time>2020-12-17T13:17:02.000Z</time>
      </trkpt>
      <trkpt lat="47.08302" lon="-1.81634">
        <ele>65</ele>
        <time>2020-12-17T13:17:05.000Z</time>
      </trkpt>
      <trkpt lat="47.08291" lon="-1.81634">
        <ele>65</ele>
        <time>2020-12-17T13:17:07.000Z</time>
      </trkpt>
      <trkpt lat="47.08279" lon="-1.81634">
        <ele>66</ele>
        <time>2020-12-17T13:17:09.000Z</time>
      </trkpt>
      <trkpt lat="47.08267" lon="-1.81633">
        <ele>66</ele>
        <time>2020-12-17T13:17:11.000Z</time>
      </trkpt>
      <trkpt lat="47.08255" lon="-1.81634">
        <ele>66</ele>
        <time>2020-12-17T13:17:13.000Z</time>
      </trkpt>
      <trkpt lat="47.08245" lon="-1.81632">
        <ele>66</ele>
        <time>2020-12-17T13:17:15.000Z</time>
      </trkpt>
      <trkpt lat="47.08234" lon="-1.81632">
        <ele>66</ele>
        <time>2020-12-17T13:17:17.000Z</time>
      </trkpt>
      <trkpt lat="47.08222" lon="-1.81631">
        <ele>66</ele>
        <time>2020-12-17T13:17:19.000Z</time>
      </trkpt>
      <trkpt lat="47.08211" lon="-1.8163">
        <ele>66</ele>
        <time>2020-12-17T13:17:21.000Z</time>
      </trkpt>
      <trkpt lat="47.08199" lon="-1.8163">
        <ele>66</ele>
        <time>2020-12-17T13:17:23.000Z</time>
      </trkpt>
      <trkpt lat="47.08189" lon="-1.81629">
        <ele>66</ele>
        <time>2020-12-17T13:17:25.000Z</time>
      </trkpt>
      <trkpt lat="47.08178" lon="-1.81629">
        <ele>66</ele>
        <time>2020-12-17T13:17:27.000Z</time>
      </trkpt>
      <trkpt lat="47.08167" lon="-1.81629">
        <ele>66</ele>
        <time>2020-12-17T13:17:29.000Z</time>
      </trkpt>
      <trkpt lat="47.08156" lon="-1.81628">
        <ele>65</ele>
        <time>2020-12-17T13:17:31.000Z</time>
      </trkpt>
      <trkpt lat="47.08145" lon="-1.81628">
        <ele>65</ele>
        <time>2020-12-17T13:17:33.000Z</time>
      </trkpt>
      <trkpt lat="47.08134" lon="-1.81627">
        <ele>65</ele>
        <time>2020-12-17T13:17:35.000Z</time>
      </trkpt>
      <trkpt lat="47.08123" lon="-1.81626">
        <ele>65</ele>
        <time>2020-12-17T13:17:37.000Z</time>
      </trkpt>
      <trkpt lat="47.08111" lon="-1.81623">
        <ele>65</ele>
        <time>2020-12-17T13:17:39.000Z</time>
      </trkpt>
      <trkpt lat="47.08101" lon="-1.81621">
        <ele>65</ele>
        <time>2020-12-17T13:17:41.000Z</time>
      </trkpt>
      <trkpt lat="47.08091" lon="-1.81618">
        <ele>65</ele>
        <time>2020-12-17T13:17:43.000Z</time>
      </trkpt>
      <trkpt lat="47.08081" lon="-1.81615">
        <ele>66</ele>
        <time>2020-12-17T13:17:45.000Z</time>
      </trkpt>
      <trkpt lat="47.08071" lon="-1.81612">
        <ele>67</ele>
        <time>2020-12-17T13:17:47.000Z</time>
      </trkpt>
      <trkpt lat="47.08061" lon="-1.81609">
        <ele>68</ele>
        <time>2020-12-17T13:17:49.000Z</time>
      </trkpt>
      <trkpt lat="47.08052" lon="-1.81604">
        <ele>68</ele>
        <time>2020-12-17T13:17:51.000Z</time>
      </trkpt>
      <trkpt lat="47.08042" lon="-1.81599">
        <ele>68</ele>
        <time>2020-12-17T13:17:53.000Z</time>
      </trkpt>
      <trkpt lat="47.08031" lon="-1.81595">
        <ele>67</ele>
        <time>2020-12-17T13:17:55.000Z</time>
      </trkpt>
      <trkpt lat="47.0802" lon="-1.8159">
        <ele>67</ele>
        <time>2020-12-17T13:17:57.000Z</time>
      </trkpt>
      <trkpt lat="47.08011" lon="-1.81585">
        <ele>67</ele>
        <time>2020-12-17T13:17:59.000Z</time>
      </trkpt>
      <trkpt lat="47.08001" lon="-1.81581">
        <ele>67</ele>
        <time>2020-12-17T13:18:01.000Z</time>
      </trkpt>
      <trkpt lat="47.07991" lon="-1.81577">
        <ele>69</ele>
        <time>2020-12-17T13:18:03.000Z</time>
      </trkpt>
      <trkpt lat="47.07979" lon="-1.81574">
        <ele>69</ele>
        <time>2020-12-17T13:18:05.000Z</time>
      </trkpt>
      <trkpt lat="47.07966" lon="-1.81571">
        <ele>69</ele>
        <time>2020-12-17T13:18:07.000Z</time>
      </trkpt>
      <trkpt lat="47.07953" lon="-1.81566">
        <ele>69</ele>
        <time>2020-12-17T13:18:09.000Z</time>
      </trkpt>
      <trkpt lat="47.07939" lon="-1.81564">
        <ele>69</ele>
        <time>2020-12-17T13:18:11.000Z</time>
      </trkpt>
      <trkpt lat="47.07926" lon="-1.81563">
        <ele>68</ele>
        <time>2020-12-17T13:18:13.000Z</time>
      </trkpt>
      <trkpt lat="47.07915" lon="-1.81563">
        <ele>67</ele>
        <time>2020-12-17T13:18:15.000Z</time>
      </trkpt>
      <trkpt lat="47.07903" lon="-1.81563">
        <ele>67</ele>
        <time>2020-12-17T13:18:17.000Z</time>
      </trkpt>
      <trkpt lat="47.07891" lon="-1.81563">
        <ele>67</ele>
        <time>2020-12-17T13:18:19.000Z</time>
      </trkpt>
      <trkpt lat="47.07879" lon="-1.81564">
        <ele>67</ele>
        <time>2020-12-17T13:18:21.000Z</time>
      </trkpt>
      <trkpt lat="47.07868" lon="-1.81563">
        <ele>68</ele>
        <time>2020-12-17T13:18:23.000Z</time>
      </trkpt>
      <trkpt lat="47.07856" lon="-1.81563">
        <ele>68</ele>
        <time>2020-12-17T13:18:25.000Z</time>
      </trkpt>
      <trkpt lat="47.07845" lon="-1.81562">
        <ele>67</ele>
        <time>2020-12-17T13:18:27.000Z</time>
      </trkpt>
      <trkpt lat="47.07833" lon="-1.81559">
        <ele>68</ele>
        <time>2020-12-17T13:18:29.000Z</time>
      </trkpt>
      <trkpt lat="47.07822" lon="-1.81557">
        <ele>68</ele>
        <time>2020-12-17T13:18:31.000Z</time>
      </trkpt>
      <trkpt lat="47.07811" lon="-1.81554">
        <ele>67</ele>
        <time>2020-12-17T13:18:33.000Z</time>
      </trkpt>
      <trkpt lat="47.078" lon="-1.81552">
        <ele>67</ele>
        <time>2020-12-17T13:18:35.000Z</time>
      </trkpt>
      <trkpt lat="47.07789" lon="-1.8155">
        <ele>67</ele>
        <time>2020-12-17T13:18:37.000Z</time>
      </trkpt>
      <trkpt lat="47.07777" lon="-1.81549">
        <ele>67</ele>
        <time>2020-12-17T13:18:39.000Z</time>
      </trkpt>
      <trkpt lat="47.07765" lon="-1.81548">
        <ele>67</ele>
        <time>2020-12-17T13:18:41.000Z</time>
      </trkpt>
      <trkpt lat="47.07754" lon="-1.81548">
        <ele>67</ele>
        <time>2020-12-17T13:18:43.000Z</time>
      </trkpt>
      <trkpt lat="47.07743" lon="-1.81548">
        <ele>67</ele>
        <time>2020-12-17T13:18:45.000Z</time>
      </trkpt>
      <trkpt lat="47.07732" lon="-1.81547">
        <ele>67</ele>
        <time>2020-12-17T13:18:47.000Z</time>
      </trkpt>
      <trkpt lat="47.07722" lon="-1.81547">
        <ele>67</ele>
        <time>2020-12-17T13:18:49.000Z</time>
      </trkpt>
      <trkpt lat="47.07711" lon="-1.81546">
        <ele>67</ele>
        <time>2020-12-17T13:18:51.000Z</time>
      </trkpt>
      <trkpt lat="47.077" lon="-1.81545">
        <ele>67</ele>
        <time>2020-12-17T13:18:53.000Z</time>
      </trkpt>
      <trkpt lat="47.0769" lon="-1.81544">
        <ele>67</ele>
        <time>2020-12-17T13:18:55.000Z</time>
      </trkpt>
      <trkpt lat="47.07679" lon="-1.81543">
        <ele>67</ele>
        <time>2020-12-17T13:18:57.000Z</time>
      </trkpt>
      <trkpt lat="47.07668" lon="-1.81543">
        <ele>67</ele>
        <time>2020-12-17T13:18:59.000Z</time>
      </trkpt>
      <trkpt lat="47.07656" lon="-1.81541">
        <ele>67</ele>
        <time>2020-12-17T13:19:01.000Z</time>
      </trkpt>
      <trkpt lat="47.07646" lon="-1.81539">
        <ele>67</ele>
        <time>2020-12-17T13:19:03.000Z</time>
      </trkpt>
      <trkpt lat="47.07636" lon="-1.81534">
        <ele>67</ele>
        <time>2020-12-17T13:19:05.000Z</time>
      </trkpt>
      <trkpt lat="47.07626" lon="-1.81527">
        <ele>68</ele>
        <time>2020-12-17T13:19:07.000Z</time>
      </trkpt>
      <trkpt lat="47.07616" lon="-1.81519">
        <ele>68</ele>
        <time>2020-12-17T13:19:09.000Z</time>
      </trkpt>
      <trkpt lat="47.07607" lon="-1.8151">
        <ele>68</ele>
        <time>2020-12-17T13:19:11.000Z</time>
      </trkpt>
      <trkpt lat="47.07598" lon="-1.81499">
        <ele>68</ele>
        <time>2020-12-17T13:19:13.000Z</time>
      </trkpt>
      <trkpt lat="47.07589" lon="-1.81489">
        <ele>68</ele>
        <time>2020-12-17T13:19:15.000Z</time>
      </trkpt>
      <trkpt lat="47.0758" lon="-1.8148">
        <ele>68</ele>
        <time>2020-12-17T13:19:17.000Z</time>
      </trkpt>
      <trkpt lat="47.07571" lon="-1.81471">
        <ele>68</ele>
        <time>2020-12-17T13:19:19.000Z</time>
      </trkpt>
      <trkpt lat="47.07562" lon="-1.81462">
        <ele>69</ele>
        <time>2020-12-17T13:19:21.000Z</time>
      </trkpt>
      <trkpt lat="47.07553" lon="-1.81453">
        <ele>69</ele>
        <time>2020-12-17T13:19:23.000Z</time>
      </trkpt>
      <trkpt lat="47.07543" lon="-1.81446">
        <ele>69</ele>
        <time>2020-12-17T13:19:25.000Z</time>
      </trkpt>
      <trkpt lat="47.07532" lon="-1.81441">
        <ele>68</ele>
        <time>2020-12-17T13:19:27.000Z</time>
      </trkpt>
      <trkpt lat="47.07522" lon="-1.81442">
        <ele>68</ele>
        <time>2020-12-17T13:19:29.000Z</time>
      </trkpt>
      <trkpt lat="47.07512" lon="-1.81445">
        <ele>68</ele>
        <time>2020-12-17T13:19:31.000Z</time>
      </trkpt>
      <trkpt lat="47.07502" lon="-1.81452">
        <ele>68</ele>
        <time>2020-12-17T13:19:33.000Z</time>
      </trkpt>
      <trkpt lat="47.07491" lon="-1.81459">
        <ele>68</ele>
        <time>2020-12-17T13:19:35.000Z</time>
      </trkpt>
      <trkpt lat="47.07481" lon="-1.81465">
        <ele>67</ele>
        <time>2020-12-17T13:19:37.000Z</time>
      </trkpt>
      <trkpt lat="47.0747" lon="-1.81471">
        <ele>67</ele>
        <time>2020-12-17T13:19:39.000Z</time>
      </trkpt>
      <trkpt lat="47.07459" lon="-1.81475">
        <ele>67</ele>
        <time>2020-12-17T13:19:41.000Z</time>
      </trkpt>
      <trkpt lat="47.07447" lon="-1.81477">
        <ele>67</ele>
        <time>2020-12-17T13:19:43.000Z</time>
      </trkpt>
      <trkpt lat="47.07437" lon="-1.8148">
        <ele>67</ele>
        <time>2020-12-17T13:19:45.000Z</time>
      </trkpt>
      <trkpt lat="47.07426" lon="-1.81483">
        <ele>67</ele>
        <time>2020-12-17T13:19:47.000Z</time>
      </trkpt>
      <trkpt lat="47.07415" lon="-1.81484">
        <ele>67</ele>
        <time>2020-12-17T13:19:49.000Z</time>
      </trkpt>
      <trkpt lat="47.07403" lon="-1.81485">
        <ele>67</ele>
        <time>2020-12-17T13:19:51.000Z</time>
      </trkpt>
      <trkpt lat="47.07391" lon="-1.81486">
        <ele>69</ele>
        <time>2020-12-17T13:19:53.000Z</time>
      </trkpt>
      <trkpt lat="47.07379" lon="-1.81486">
        <ele>69</ele>
        <time>2020-12-17T13:19:55.000Z</time>
      </trkpt>
      <trkpt lat="47.07367" lon="-1.81486">
        <ele>70</ele>
        <time>2020-12-17T13:19:57.000Z</time>
      </trkpt>
      <trkpt lat="47.07355" lon="-1.81483">
        <ele>70</ele>
        <time>2020-12-17T13:19:59.000Z</time>
      </trkpt>
      <trkpt lat="47.07344" lon="-1.81479">
        <ele>70</ele>
        <time>2020-12-17T13:20:01.000Z</time>
      </trkpt>
      <trkpt lat="47.07333" lon="-1.81473">
        <ele>70</ele>
        <time>2020-12-17T13:20:03.000Z</time>
      </trkpt>
      <trkpt lat="47.07322" lon="-1.81467">
        <ele>70</ele>
        <time>2020-12-17T13:20:05.000Z</time>
      </trkpt>
      <trkpt lat="47.07311" lon="-1.81462">
        <ele>70</ele>
        <time>2020-12-17T13:20:07.000Z</time>
      </trkpt>
      <trkpt lat="47.073" lon="-1.81455">
        <ele>70</ele>
        <time>2020-12-17T13:20:09.000Z</time>
      </trkpt>
      <trkpt lat="47.07291" lon="-1.81447">
        <ele>70</ele>
        <time>2020-12-17T13:20:11.000Z</time>
      </trkpt>
      <trkpt lat="47.07281" lon="-1.81438">
        <ele>71</ele>
        <time>2020-12-17T13:20:13.000Z</time>
      </trkpt>
      <trkpt lat="47.07271" lon="-1.81429">
        <ele>71</ele>
        <time>2020-12-17T13:20:15.000Z</time>
      </trkpt>
      <trkpt lat="47.07262" lon="-1.81419">
        <ele>72</ele>
        <time>2020-12-17T13:20:17.000Z</time>
      </trkpt>
      <trkpt lat="47.07252" lon="-1.8141">
        <ele>73</ele>
        <time>2020-12-17T13:20:19.000Z</time>
      </trkpt>
      <trkpt lat="47.07243" lon="-1.81402">
        <ele>73</ele>
        <time>2020-12-17T13:20:21.000Z</time>
      </trkpt>
      <trkpt lat="47.07234" lon="-1.81393">
        <ele>73</ele>
        <time>2020-12-17T13:20:23.000Z</time>
      </trkpt>
      <trkpt lat="47.07224" lon="-1.81384">
        <ele>73</ele>
        <time>2020-12-17T13:20:25.000Z</time>
      </trkpt>
      <trkpt lat="47.07215" lon="-1.81375">
        <ele>74</ele>
        <time>2020-12-17T13:20:27.000Z</time>
      </trkpt>
      <trkpt lat="47.07205" lon="-1.81365">
        <ele>74</ele>
        <time>2020-12-17T13:20:29.000Z</time>
      </trkpt>
      <trkpt lat="47.07195" lon="-1.81356">
        <ele>74</ele>
        <time>2020-12-17T13:20:31.000Z</time>
      </trkpt>
      <trkpt lat="47.07184" lon="-1.81349">
        <ele>73</ele>
        <time>2020-12-17T13:20:33.000Z</time>
      </trkpt>
      <trkpt lat="47.07173" lon="-1.81349">
        <ele>73</ele>
        <time>2020-12-17T13:20:35.000Z</time>
      </trkpt>
      <trkpt lat="47.07163" lon="-1.81355">
        <ele>74</ele>
        <time>2020-12-17T13:20:37.000Z</time>
      </trkpt>
      <trkpt lat="47.07154" lon="-1.81365">
        <ele>73</ele>
        <time>2020-12-17T13:20:39.000Z</time>
      </trkpt>
      <trkpt lat="47.07145" lon="-1.81375">
        <ele>73</ele>
        <time>2020-12-17T13:20:41.000Z</time>
      </trkpt>
      <trkpt lat="47.07136" lon="-1.81384">
        <ele>72</ele>
        <time>2020-12-17T13:20:43.000Z</time>
      </trkpt>
      <trkpt lat="47.07127" lon="-1.81393">
        <ele>73</ele>
        <time>2020-12-17T13:20:45.000Z</time>
      </trkpt>
      <trkpt lat="47.07119" lon="-1.81403">
        <ele>73</ele>
        <time>2020-12-17T13:20:47.000Z</time>
      </trkpt>
      <trkpt lat="47.07111" lon="-1.81412">
        <ele>74</ele>
        <time>2020-12-17T13:20:49.000Z</time>
      </trkpt>
      <trkpt lat="47.07103" lon="-1.81422">
        <ele>75</ele>
        <time>2020-12-17T13:20:51.000Z</time>
      </trkpt>
      <trkpt lat="47.07095" lon="-1.81433">
        <ele>75</ele>
        <time>2020-12-17T13:20:53.000Z</time>
      </trkpt>
      <trkpt lat="47.07088" lon="-1.81443">
        <ele>75</ele>
        <time>2020-12-17T13:20:55.000Z</time>
      </trkpt>
      <trkpt lat="47.07081" lon="-1.81454">
        <ele>75</ele>
        <time>2020-12-17T13:20:57.000Z</time>
      </trkpt>
      <trkpt lat="47.07074" lon="-1.81465">
        <ele>75</ele>
        <time>2020-12-17T13:20:59.000Z</time>
      </trkpt>
      <trkpt lat="47.07067" lon="-1.81476">
        <ele>75</ele>
        <time>2020-12-17T13:21:01.000Z</time>
      </trkpt>
      <trkpt lat="47.07061" lon="-1.8149">
        <ele>75</ele>
        <time>2020-12-17T13:21:03.000Z</time>
      </trkpt>
      <trkpt lat="47.07055" lon="-1.81502">
        <ele>76</ele>
        <time>2020-12-17T13:21:05.000Z</time>
      </trkpt>
      <trkpt lat="47.0705" lon="-1.81515">
        <ele>76</ele>
        <time>2020-12-17T13:21:07.000Z</time>
      </trkpt>
      <trkpt lat="47.07045" lon="-1.81528">
        <ele>77</ele>
        <time>2020-12-17T13:21:09.000Z</time>
      </trkpt>
      <trkpt lat="47.07039" lon="-1.81539">
        <ele>77</ele>
        <time>2020-12-17T13:21:11.000Z</time>
      </trkpt>
      <trkpt lat="47.07033" lon="-1.81552">
        <ele>77</ele>
        <time>2020-12-17T13:21:13.000Z</time>
      </trkpt>
      <trkpt lat="47.07028" lon="-1.81565">
        <ele>77</ele>
        <time>2020-12-17T13:21:15.000Z</time>
      </trkpt>
      <trkpt lat="47.07024" lon="-1.8158">
        <ele>77</ele>
        <time>2020-12-17T13:21:17.000Z</time>
      </trkpt>
      <trkpt lat="47.0702" lon="-1.81594">
        <ele>77</ele>
        <time>2020-12-17T13:21:19.000Z</time>
      </trkpt>
      <trkpt lat="47.07016" lon="-1.81608">
        <ele>77</ele>
        <time>2020-12-17T13:21:21.000Z</time>
      </trkpt>
      <trkpt lat="47.07012" lon="-1.81622">
        <ele>77</ele>
        <time>2020-12-17T13:21:23.000Z</time>
      </trkpt>
      <trkpt lat="47.07008" lon="-1.81635">
        <ele>77</ele>
        <time>2020-12-17T13:21:25.000Z</time>
      </trkpt>
      <trkpt lat="47.07003" lon="-1.8165">
        <ele>77</ele>
        <time>2020-12-17T13:21:27.000Z</time>
      </trkpt>
      <trkpt lat="47.06999" lon="-1.81664">
        <ele>77</ele>
        <time>2020-12-17T13:21:29.000Z</time>
      </trkpt>
      <trkpt lat="47.06995" lon="-1.81679">
        <ele>77</ele>
        <time>2020-12-17T13:21:31.000Z</time>
      </trkpt>
      <trkpt lat="47.06991" lon="-1.81694">
        <ele>77</ele>
        <time>2020-12-17T13:21:33.000Z</time>
      </trkpt>
      <trkpt lat="47.06987" lon="-1.81708">
        <ele>78</ele>
        <time>2020-12-17T13:21:35.000Z</time>
      </trkpt>
      <trkpt lat="47.06982" lon="-1.81721">
        <ele>78</ele>
        <time>2020-12-17T13:21:37.000Z</time>
      </trkpt>
      <trkpt lat="47.06976" lon="-1.81734">
        <ele>78</ele>
        <time>2020-12-17T13:21:39.000Z</time>
      </trkpt>
      <trkpt lat="47.06971" lon="-1.81748">
        <ele>78</ele>
        <time>2020-12-17T13:21:41.000Z</time>
      </trkpt>
      <trkpt lat="47.06965" lon="-1.81761">
        <ele>78</ele>
        <time>2020-12-17T13:21:43.000Z</time>
      </trkpt>
      <trkpt lat="47.0696" lon="-1.81774">
        <ele>78</ele>
        <time>2020-12-17T13:21:45.000Z</time>
      </trkpt>
      <trkpt lat="47.06954" lon="-1.81787">
        <ele>79</ele>
        <time>2020-12-17T13:21:47.000Z</time>
      </trkpt>
      <trkpt lat="47.06948" lon="-1.818">
        <ele>79</ele>
        <time>2020-12-17T13:21:49.000Z</time>
      </trkpt>
      <trkpt lat="47.06943" lon="-1.81813">
        <ele>79</ele>
        <time>2020-12-17T13:21:51.000Z</time>
      </trkpt>
      <trkpt lat="47.06938" lon="-1.81826">
        <ele>79</ele>
        <time>2020-12-17T13:21:53.000Z</time>
      </trkpt>
      <trkpt lat="47.06933" lon="-1.81839">
        <ele>79</ele>
        <time>2020-12-17T13:21:55.000Z</time>
      </trkpt>
      <trkpt lat="47.06927" lon="-1.81852">
        <ele>79</ele>
        <time>2020-12-17T13:21:57.000Z</time>
      </trkpt>
      <trkpt lat="47.06922" lon="-1.81864">
        <ele>79</ele>
        <time>2020-12-17T13:21:59.000Z</time>
      </trkpt>
      <trkpt lat="47.06916" lon="-1.81877">
        <ele>80</ele>
        <time>2020-12-17T13:22:01.000Z</time>
      </trkpt>
      <trkpt lat="47.06911" lon="-1.8189">
        <ele>80</ele>
        <time>2020-12-17T13:22:03.000Z</time>
      </trkpt>
      <trkpt lat="47.06905" lon="-1.81904">
        <ele>80</ele>
        <time>2020-12-17T13:22:05.000Z</time>
      </trkpt>
      <trkpt lat="47.069" lon="-1.81918">
        <ele>80</ele>
        <time>2020-12-17T13:22:07.000Z</time>
      </trkpt>
      <trkpt lat="47.06896" lon="-1.81932">
        <ele>81</ele>
        <time>2020-12-17T13:22:09.000Z</time>
      </trkpt>
      <trkpt lat="47.06894" lon="-1.81947">
        <ele>81</ele>
        <time>2020-12-17T13:22:11.000Z</time>
      </trkpt>
      <trkpt lat="47.06892" lon="-1.81963">
        <ele>81</ele>
        <time>2020-12-17T13:22:13.000Z</time>
      </trkpt>
      <trkpt lat="47.06893" lon="-1.81979">
        <ele>81</ele>
        <time>2020-12-17T13:22:15.000Z</time>
      </trkpt>
      <trkpt lat="47.06894" lon="-1.81994">
        <ele>81</ele>
        <time>2020-12-17T13:22:17.000Z</time>
      </trkpt>
      <trkpt lat="47.06896" lon="-1.82009">
        <ele>81</ele>
        <time>2020-12-17T13:22:19.000Z</time>
      </trkpt>
      <trkpt lat="47.06898" lon="-1.82023">
        <ele>81</ele>
        <time>2020-12-17T13:22:21.000Z</time>
      </trkpt>
      <trkpt lat="47.069" lon="-1.82037">
        <ele>81</ele>
        <time>2020-12-17T13:22:23.000Z</time>
      </trkpt>
      <trkpt lat="47.06903" lon="-1.82051">
        <ele>82</ele>
        <time>2020-12-17T13:22:25.000Z</time>
      </trkpt>
      <trkpt lat="47.06904" lon="-1.82066">
        <ele>82</ele>
        <time>2020-12-17T13:22:27.000Z</time>
      </trkpt>
      <trkpt lat="47.06906" lon="-1.82081">
        <ele>82</ele>
        <time>2020-12-17T13:22:29.000Z</time>
      </trkpt>
      <trkpt lat="47.06907" lon="-1.82097">
        <ele>82</ele>
        <time>2020-12-17T13:22:31.000Z</time>
      </trkpt>
      <trkpt lat="47.06908" lon="-1.82113">
        <ele>83</ele>
        <time>2020-12-17T13:22:33.000Z</time>
      </trkpt>
      <trkpt lat="47.06908" lon="-1.82129">
        <ele>84</ele>
        <time>2020-12-17T13:22:35.000Z</time>
      </trkpt>
      <trkpt lat="47.06908" lon="-1.82145">
        <ele>84</ele>
        <time>2020-12-17T13:22:37.000Z</time>
      </trkpt>
      <trkpt lat="47.06908" lon="-1.82162">
        <ele>84</ele>
        <time>2020-12-17T13:22:39.000Z</time>
      </trkpt>
      <trkpt lat="47.06908" lon="-1.82178">
        <ele>84</ele>
        <time>2020-12-17T13:22:41.000Z</time>
      </trkpt>
      <trkpt lat="47.06907" lon="-1.82194">
        <ele>85</ele>
        <time>2020-12-17T13:22:43.000Z</time>
      </trkpt>
      <trkpt lat="47.06906" lon="-1.8221">
        <ele>85</ele>
        <time>2020-12-17T13:22:45.000Z</time>
      </trkpt>
      <trkpt lat="47.06906" lon="-1.82226">
        <ele>84</ele>
        <time>2020-12-17T13:22:47.000Z</time>
      </trkpt>
      <trkpt lat="47.06905" lon="-1.82241">
        <ele>85</ele>
        <time>2020-12-17T13:22:49.000Z</time>
      </trkpt>
      <trkpt lat="47.06905" lon="-1.82258">
        <ele>85</ele>
        <time>2020-12-17T13:22:51.000Z</time>
      </trkpt>
      <trkpt lat="47.06904" lon="-1.82274">
        <ele>85</ele>
        <time>2020-12-17T13:22:53.000Z</time>
      </trkpt>
      <trkpt lat="47.06904" lon="-1.82289">
        <ele>85</ele>
        <time>2020-12-17T13:22:55.000Z</time>
      </trkpt>
      <trkpt lat="47.06902" lon="-1.82313">
        <ele>85</ele>
        <time>2020-12-17T13:22:58.000Z</time>
      </trkpt>
      <trkpt lat="47.06901" lon="-1.82328">
        <ele>85</ele>
        <time>2020-12-17T13:23:00.000Z</time>
      </trkpt>
      <trkpt lat="47.06899" lon="-1.82345">
        <ele>85</ele>
        <time>2020-12-17T13:23:02.000Z</time>
      </trkpt>
      <trkpt lat="47.06897" lon="-1.8236">
        <ele>86</ele>
        <time>2020-12-17T13:23:04.000Z</time>
      </trkpt>
      <trkpt lat="47.06894" lon="-1.82376">
        <ele>86</ele>
        <time>2020-12-17T13:23:06.000Z</time>
      </trkpt>
      <trkpt lat="47.06893" lon="-1.82392">
        <ele>86</ele>
        <time>2020-12-17T13:23:08.000Z</time>
      </trkpt>
      <trkpt lat="47.06891" lon="-1.82408">
        <ele>86</ele>
        <time>2020-12-17T13:23:10.000Z</time>
      </trkpt>
      <trkpt lat="47.06888" lon="-1.82425">
        <ele>86</ele>
        <time>2020-12-17T13:23:12.000Z</time>
      </trkpt>
      <trkpt lat="47.06886" lon="-1.8244">
        <ele>87</ele>
        <time>2020-12-17T13:23:14.000Z</time>
      </trkpt>
      <trkpt lat="47.06885" lon="-1.82454">
        <ele>87</ele>
        <time>2020-12-17T13:23:16.000Z</time>
      </trkpt>
      <trkpt lat="47.06884" lon="-1.8247">
        <ele>87</ele>
        <time>2020-12-17T13:23:18.000Z</time>
      </trkpt>
      <trkpt lat="47.06885" lon="-1.82487">
        <ele>86</ele>
        <time>2020-12-17T13:23:20.000Z</time>
      </trkpt>
      <trkpt lat="47.06886" lon="-1.82503">
        <ele>86</ele>
        <time>2020-12-17T13:23:22.000Z</time>
      </trkpt>
      <trkpt lat="47.06887" lon="-1.8252">
        <ele>86</ele>
        <time>2020-12-17T13:23:24.000Z</time>
      </trkpt>
      <trkpt lat="47.06888" lon="-1.82536">
        <ele>86</ele>
        <time>2020-12-17T13:23:26.000Z</time>
      </trkpt>
      <trkpt lat="47.06889" lon="-1.82552">
        <ele>85</ele>
        <time>2020-12-17T13:23:28.000Z</time>
      </trkpt>
      <trkpt lat="47.06891" lon="-1.82568">
        <ele>85</ele>
        <time>2020-12-17T13:23:30.000Z</time>
      </trkpt>
      <trkpt lat="47.06894" lon="-1.82592">
        <ele>85</ele>
        <time>2020-12-17T13:23:33.000Z</time>
      </trkpt>
      <trkpt lat="47.06895" lon="-1.82609">
        <ele>85</ele>
        <time>2020-12-17T13:23:35.000Z</time>
      </trkpt>
      <trkpt lat="47.06896" lon="-1.82625">
        <ele>85</ele>
        <time>2020-12-17T13:23:37.000Z</time>
      </trkpt>
      <trkpt lat="47.06897" lon="-1.82641">
        <ele>85</ele>
        <time>2020-12-17T13:23:39.000Z</time>
      </trkpt>
      <trkpt lat="47.06898" lon="-1.82658">
        <ele>85</ele>
        <time>2020-12-17T13:23:41.000Z</time>
      </trkpt>
      <trkpt lat="47.06899" lon="-1.82674">
        <ele>86</ele>
        <time>2020-12-17T13:23:43.000Z</time>
      </trkpt>
      <trkpt lat="47.06899" lon="-1.82691">
        <ele>86</ele>
        <time>2020-12-17T13:23:45.000Z</time>
      </trkpt>
      <trkpt lat="47.06898" lon="-1.82715">
        <ele>86</ele>
        <time>2020-12-17T13:23:48.000Z</time>
      </trkpt>
      <trkpt lat="47.06898" lon="-1.82732">
        <ele>86</ele>
        <time>2020-12-17T13:23:50.000Z</time>
      </trkpt>
      <trkpt lat="47.06897" lon="-1.82757">
        <ele>85</ele>
        <time>2020-12-17T13:23:53.000Z</time>
      </trkpt>
      <trkpt lat="47.06898" lon="-1.82773">
        <ele>85</ele>
        <time>2020-12-17T13:23:55.000Z</time>
      </trkpt>
      <trkpt lat="47.06898" lon="-1.8279">
        <ele>85</ele>
        <time>2020-12-17T13:23:57.000Z</time>
      </trkpt>
      <trkpt lat="47.06899" lon="-1.82806">
        <ele>86</ele>
        <time>2020-12-17T13:23:59.000Z</time>
      </trkpt>
      <trkpt lat="47.069" lon="-1.82823">
        <ele>85</ele>
        <time>2020-12-17T13:24:01.000Z</time>
      </trkpt>
      <trkpt lat="47.06901" lon="-1.82839">
        <ele>86</ele>
        <time>2020-12-17T13:24:03.000Z</time>
      </trkpt>
      <trkpt lat="47.06902" lon="-1.82865">
        <ele>85</ele>
        <time>2020-12-17T13:24:06.000Z</time>
      </trkpt>
      <trkpt lat="47.06903" lon="-1.82881">
        <ele>85</ele>
        <time>2020-12-17T13:24:08.000Z</time>
      </trkpt>
      <trkpt lat="47.06904" lon="-1.82898">
        <ele>85</ele>
        <time>2020-12-17T13:24:10.000Z</time>
      </trkpt>
      <trkpt lat="47.06904" lon="-1.82913">
        <ele>85</ele>
        <time>2020-12-17T13:24:12.000Z</time>
      </trkpt>
      <trkpt lat="47.06905" lon="-1.8293">
        <ele>85</ele>
        <time>2020-12-17T13:24:14.000Z</time>
      </trkpt>
      <trkpt lat="47.06906" lon="-1.82947">
        <ele>85</ele>
        <time>2020-12-17T13:24:16.000Z</time>
      </trkpt>
      <trkpt lat="47.06907" lon="-1.82963">
        <ele>85</ele>
        <time>2020-12-17T13:24:18.000Z</time>
      </trkpt>
      <trkpt lat="47.06907" lon="-1.8298">
        <ele>85</ele>
        <time>2020-12-17T13:24:20.000Z</time>
      </trkpt>
      <trkpt lat="47.06908" lon="-1.82997">
        <ele>84</ele>
        <time>2020-12-17T13:24:22.000Z</time>
      </trkpt>
      <trkpt lat="47.0691" lon="-1.83012">
        <ele>84</ele>
        <time>2020-12-17T13:24:24.000Z</time>
      </trkpt>
      <trkpt lat="47.06914" lon="-1.83025">
        <ele>84</ele>
        <time>2020-12-17T13:24:26.000Z</time>
      </trkpt>
      <trkpt lat="47.06911" lon="-1.83041">
        <ele>85</ele>
        <time>2020-12-17T13:24:29.000Z</time>
      </trkpt>
      <trkpt lat="47.06895" lon="-1.83043">
        <ele>84</ele>
        <time>2020-12-17T13:24:32.000Z</time>
      </trkpt>
      <trkpt lat="47.06883" lon="-1.83041">
        <ele>84</ele>
        <time>2020-12-17T13:24:34.000Z</time>
      </trkpt>
      <trkpt lat="47.06871" lon="-1.83039">
        <ele>84</ele>
        <time>2020-12-17T13:24:36.000Z</time>
      </trkpt>
      <trkpt lat="47.06858" lon="-1.83037">
        <ele>83</ele>
        <time>2020-12-17T13:24:38.000Z</time>
      </trkpt>
      <trkpt lat="47.06845" lon="-1.83036">
        <ele>83</ele>
        <time>2020-12-17T13:24:40.000Z</time>
      </trkpt>
      <trkpt lat="47.06826" lon="-1.83034">
        <ele>82</ele>
        <time>2020-12-17T13:24:43.000Z</time>
      </trkpt>
      <trkpt lat="47.06814" lon="-1.83034">
        <ele>82</ele>
        <time>2020-12-17T13:24:45.000Z</time>
      </trkpt>
      <trkpt lat="47.06802" lon="-1.83036">
        <ele>81</ele>
        <time>2020-12-17T13:24:47.000Z</time>
      </trkpt>
      <trkpt lat="47.06789" lon="-1.83038">
        <ele>81</ele>
        <time>2020-12-17T13:24:49.000Z</time>
      </trkpt>
      <trkpt lat="47.06777" lon="-1.8304">
        <ele>81</ele>
        <time>2020-12-17T13:24:51.000Z</time>
      </trkpt>
      <trkpt lat="47.06763" lon="-1.83042">
        <ele>81</ele>
        <time>2020-12-17T13:24:53.000Z</time>
      </trkpt>
      <trkpt lat="47.06751" lon="-1.83044">
        <ele>81</ele>
        <time>2020-12-17T13:24:55.000Z</time>
      </trkpt>
      <trkpt lat="47.06739" lon="-1.83045">
        <ele>81</ele>
        <time>2020-12-17T13:24:57.000Z</time>
      </trkpt>
      <trkpt lat="47.06727" lon="-1.83048">
        <ele>81</ele>
        <time>2020-12-17T13:24:59.000Z</time>
      </trkpt>
      <trkpt lat="47.06714" lon="-1.83049">
        <ele>80</ele>
        <time>2020-12-17T13:25:01.000Z</time>
      </trkpt>
      <trkpt lat="47.06695" lon="-1.83053">
        <ele>79</ele>
        <time>2020-12-17T13:25:04.000Z</time>
      </trkpt>
      <trkpt lat="47.06683" lon="-1.83056">
        <ele>79</ele>
        <time>2020-12-17T13:25:06.000Z</time>
      </trkpt>
      <trkpt lat="47.0667" lon="-1.83059">
        <ele>79</ele>
        <time>2020-12-17T13:25:08.000Z</time>
      </trkpt>
      <trkpt lat="47.06658" lon="-1.83061">
        <ele>79</ele>
        <time>2020-12-17T13:25:10.000Z</time>
      </trkpt>
      <trkpt lat="47.06645" lon="-1.83065">
        <ele>78</ele>
        <time>2020-12-17T13:25:12.000Z</time>
      </trkpt>
      <trkpt lat="47.06634" lon="-1.83068">
        <ele>79</ele>
        <time>2020-12-17T13:25:14.000Z</time>
      </trkpt>
      <trkpt lat="47.06622" lon="-1.8307">
        <ele>79</ele>
        <time>2020-12-17T13:25:16.000Z</time>
      </trkpt>
      <trkpt lat="47.0661" lon="-1.83071">
        <ele>79</ele>
        <time>2020-12-17T13:25:18.000Z</time>
      </trkpt>
      <trkpt lat="47.06599" lon="-1.83074">
        <ele>79</ele>
        <time>2020-12-17T13:25:20.000Z</time>
      </trkpt>
      <trkpt lat="47.06588" lon="-1.83076">
        <ele>78</ele>
        <time>2020-12-17T13:25:22.000Z</time>
      </trkpt>
      <trkpt lat="47.06577" lon="-1.83079">
        <ele>78</ele>
        <time>2020-12-17T13:25:24.000Z</time>
      </trkpt>
      <trkpt lat="47.06566" lon="-1.83083">
        <ele>78</ele>
        <time>2020-12-17T13:25:26.000Z</time>
      </trkpt>
      <trkpt lat="47.06556" lon="-1.83087">
        <ele>78</ele>
        <time>2020-12-17T13:25:28.000Z</time>
      </trkpt>
      <trkpt lat="47.06545" lon="-1.83091">
        <ele>78</ele>
        <time>2020-12-17T13:25:30.000Z</time>
      </trkpt>
      <trkpt lat="47.06534" lon="-1.83097">
        <ele>79</ele>
        <time>2020-12-17T13:25:32.000Z</time>
      </trkpt>
      <trkpt lat="47.06522" lon="-1.83102">
        <ele>80</ele>
        <time>2020-12-17T13:25:34.000Z</time>
      </trkpt>
      <trkpt lat="47.06511" lon="-1.83107">
        <ele>80</ele>
        <time>2020-12-17T13:25:36.000Z</time>
      </trkpt>
      <trkpt lat="47.065" lon="-1.83113">
        <ele>80</ele>
        <time>2020-12-17T13:25:38.000Z</time>
      </trkpt>
      <trkpt lat="47.06488" lon="-1.83117">
        <ele>80</ele>
        <time>2020-12-17T13:25:40.000Z</time>
      </trkpt>
      <trkpt lat="47.06477" lon="-1.83122">
        <ele>80</ele>
        <time>2020-12-17T13:25:42.000Z</time>
      </trkpt>
      <trkpt lat="47.06466" lon="-1.83127">
        <ele>81</ele>
        <time>2020-12-17T13:25:44.000Z</time>
      </trkpt>
      <trkpt lat="47.06454" lon="-1.83132">
        <ele>81</ele>
        <time>2020-12-17T13:25:46.000Z</time>
      </trkpt>
      <trkpt lat="47.06443" lon="-1.83137">
        <ele>81</ele>
        <time>2020-12-17T13:25:48.000Z</time>
      </trkpt>
      <trkpt lat="47.06432" lon="-1.83142">
        <ele>81</ele>
        <time>2020-12-17T13:25:50.000Z</time>
      </trkpt>
      <trkpt lat="47.0642" lon="-1.83147">
        <ele>81</ele>
        <time>2020-12-17T13:25:52.000Z</time>
      </trkpt>
      <trkpt lat="47.06409" lon="-1.83152">
        <ele>81</ele>
        <time>2020-12-17T13:25:54.000Z</time>
      </trkpt>
      <trkpt lat="47.06398" lon="-1.83157">
        <ele>81</ele>
        <time>2020-12-17T13:25:56.000Z</time>
      </trkpt>
      <trkpt lat="47.06387" lon="-1.83161">
        <ele>81</ele>
        <time>2020-12-17T13:25:58.000Z</time>
      </trkpt>
      <trkpt lat="47.06376" lon="-1.83166">
        <ele>82</ele>
        <time>2020-12-17T13:26:00.000Z</time>
      </trkpt>
      <trkpt lat="47.06367" lon="-1.8317">
        <ele>82</ele>
        <time>2020-12-17T13:26:02.000Z</time>
      </trkpt>
      <trkpt lat="47.06357" lon="-1.83174">
        <ele>82</ele>
        <time>2020-12-17T13:26:04.000Z</time>
      </trkpt>
      <trkpt lat="47.06347" lon="-1.83178">
        <ele>82</ele>
        <time>2020-12-17T13:26:06.000Z</time>
      </trkpt>
      <trkpt lat="47.06337" lon="-1.83183">
        <ele>82</ele>
        <time>2020-12-17T13:26:08.000Z</time>
      </trkpt>
      <trkpt lat="47.06328" lon="-1.83186">
        <ele>82</ele>
        <time>2020-12-17T13:26:10.000Z</time>
      </trkpt>
      <trkpt lat="47.06318" lon="-1.83191">
        <ele>82</ele>
        <time>2020-12-17T13:26:12.000Z</time>
      </trkpt>
      <trkpt lat="47.06308" lon="-1.83194">
        <ele>82</ele>
        <time>2020-12-17T13:26:14.000Z</time>
      </trkpt>
      <trkpt lat="47.06298" lon="-1.83197">
        <ele>82</ele>
        <time>2020-12-17T13:26:16.000Z</time>
      </trkpt>
      <trkpt lat="47.06287" lon="-1.832">
        <ele>82</ele>
        <time>2020-12-17T13:26:18.000Z</time>
      </trkpt>
      <trkpt lat="47.06276" lon="-1.83201">
        <ele>83</ele>
        <time>2020-12-17T13:26:20.000Z</time>
      </trkpt>
      <trkpt lat="47.06265" lon="-1.83202">
        <ele>83</ele>
        <time>2020-12-17T13:26:22.000Z</time>
      </trkpt>
      <trkpt lat="47.06254" lon="-1.83203">
        <ele>82</ele>
        <time>2020-12-17T13:26:24.000Z</time>
      </trkpt>
      <trkpt lat="47.06243" lon="-1.83204">
        <ele>83</ele>
        <time>2020-12-17T13:26:26.000Z</time>
      </trkpt>
      <trkpt lat="47.06232" lon="-1.83205">
        <ele>83</ele>
        <time>2020-12-17T13:26:28.000Z</time>
      </trkpt>
      <trkpt lat="47.06221" lon="-1.83206">
        <ele>83</ele>
        <time>2020-12-17T13:26:30.000Z</time>
      </trkpt>
      <trkpt lat="47.06211" lon="-1.83206">
        <ele>83</ele>
        <time>2020-12-17T13:26:32.000Z</time>
      </trkpt>
      <trkpt lat="47.062" lon="-1.83207">
        <ele>83</ele>
        <time>2020-12-17T13:26:34.000Z</time>
      </trkpt>
      <trkpt lat="47.06189" lon="-1.83207">
        <ele>82</ele>
        <time>2020-12-17T13:26:36.000Z</time>
      </trkpt>
      <trkpt lat="47.06178" lon="-1.83207">
        <ele>82</ele>
        <time>2020-12-17T13:26:38.000Z</time>
      </trkpt>
      <trkpt lat="47.06167" lon="-1.83208">
        <ele>82</ele>
        <time>2020-12-17T13:26:40.000Z</time>
      </trkpt>
      <trkpt lat="47.06156" lon="-1.83208">
        <ele>82</ele>
        <time>2020-12-17T13:26:42.000Z</time>
      </trkpt>
      <trkpt lat="47.06145" lon="-1.83209">
        <ele>82</ele>
        <time>2020-12-17T13:26:44.000Z</time>
      </trkpt>
      <trkpt lat="47.06134" lon="-1.83209">
        <ele>82</ele>
        <time>2020-12-17T13:26:46.000Z</time>
      </trkpt>
      <trkpt lat="47.06124" lon="-1.8321">
        <ele>82</ele>
        <time>2020-12-17T13:26:48.000Z</time>
      </trkpt>
      <trkpt lat="47.06113" lon="-1.83211">
        <ele>82</ele>
        <time>2020-12-17T13:26:50.000Z</time>
      </trkpt>
      <trkpt lat="47.06102" lon="-1.83211">
        <ele>82</ele>
        <time>2020-12-17T13:26:52.000Z</time>
      </trkpt>
      <trkpt lat="47.06092" lon="-1.83211">
        <ele>82</ele>
        <time>2020-12-17T13:26:54.000Z</time>
      </trkpt>
      <trkpt lat="47.06081" lon="-1.83212">
        <ele>82</ele>
        <time>2020-12-17T13:26:56.000Z</time>
      </trkpt>
      <trkpt lat="47.0607" lon="-1.83213">
        <ele>82</ele>
        <time>2020-12-17T13:26:58.000Z</time>
      </trkpt>
      <trkpt lat="47.06059" lon="-1.83213">
        <ele>82</ele>
        <time>2020-12-17T13:27:00.000Z</time>
      </trkpt>
      <trkpt lat="47.06049" lon="-1.83214">
        <ele>81</ele>
        <time>2020-12-17T13:27:02.000Z</time>
      </trkpt>
      <trkpt lat="47.06037" lon="-1.83214">
        <ele>81</ele>
        <time>2020-12-17T13:27:04.000Z</time>
      </trkpt>
      <trkpt lat="47.06026" lon="-1.83215">
        <ele>81</ele>
        <time>2020-12-17T13:27:06.000Z</time>
      </trkpt>
      <trkpt lat="47.06014" lon="-1.83216">
        <ele>81</ele>
        <time>2020-12-17T13:27:08.000Z</time>
      </trkpt>
      <trkpt lat="47.06003" lon="-1.83217">
        <ele>81</ele>
        <time>2020-12-17T13:27:10.000Z</time>
      </trkpt>
      <trkpt lat="47.05992" lon="-1.83217">
        <ele>81</ele>
        <time>2020-12-17T13:27:12.000Z</time>
      </trkpt>
      <trkpt lat="47.05981" lon="-1.83219">
        <ele>82</ele>
        <time>2020-12-17T13:27:14.000Z</time>
      </trkpt>
      <trkpt lat="47.05971" lon="-1.83226">
        <ele>82</ele>
        <time>2020-12-17T13:27:16.000Z</time>
      </trkpt>
      <trkpt lat="47.05963" lon="-1.83237">
        <ele>82</ele>
        <time>2020-12-17T13:27:18.000Z</time>
      </trkpt>
      <trkpt lat="47.05955" lon="-1.83249">
        <ele>82</ele>
        <time>2020-12-17T13:27:20.000Z</time>
      </trkpt>
      <trkpt lat="47.05948" lon="-1.83261">
        <ele>81</ele>
        <time>2020-12-17T13:27:22.000Z</time>
      </trkpt>
      <trkpt lat="47.0594" lon="-1.83273">
        <ele>82</ele>
        <time>2020-12-17T13:27:24.000Z</time>
      </trkpt>
      <trkpt lat="47.05932" lon="-1.83284">
        <ele>82</ele>
        <time>2020-12-17T13:27:26.000Z</time>
      </trkpt>
      <trkpt lat="47.05925" lon="-1.83296">
        <ele>82</ele>
        <time>2020-12-17T13:27:28.000Z</time>
      </trkpt>
      <trkpt lat="47.05917" lon="-1.83308">
        <ele>82</ele>
        <time>2020-12-17T13:27:30.000Z</time>
      </trkpt>
      <trkpt lat="47.05909" lon="-1.83319">
        <ele>82</ele>
        <time>2020-12-17T13:27:32.000Z</time>
      </trkpt>
      <trkpt lat="47.05901" lon="-1.83331">
        <ele>83</ele>
        <time>2020-12-17T13:27:34.000Z</time>
      </trkpt>
      <trkpt lat="47.05894" lon="-1.83343">
        <ele>83</ele>
        <time>2020-12-17T13:27:36.000Z</time>
      </trkpt>
      <trkpt lat="47.05886" lon="-1.83354">
        <ele>83</ele>
        <time>2020-12-17T13:27:38.000Z</time>
      </trkpt>
      <trkpt lat="47.05878" lon="-1.83366">
        <ele>83</ele>
        <time>2020-12-17T13:27:40.000Z</time>
      </trkpt>
      <trkpt lat="47.05871" lon="-1.83377">
        <ele>83</ele>
        <time>2020-12-17T13:27:42.000Z</time>
      </trkpt>
      <trkpt lat="47.05864" lon="-1.83387">
        <ele>83</ele>
        <time>2020-12-17T13:27:44.000Z</time>
      </trkpt>
      <trkpt lat="47.05856" lon="-1.83399">
        <ele>84</ele>
        <time>2020-12-17T13:27:46.000Z</time>
      </trkpt>
      <trkpt lat="47.05849" lon="-1.83409">
        <ele>84</ele>
        <time>2020-12-17T13:27:48.000Z</time>
      </trkpt>
      <trkpt lat="47.05842" lon="-1.83419">
        <ele>84</ele>
        <time>2020-12-17T13:27:50.000Z</time>
      </trkpt>
      <trkpt lat="47.05835" lon="-1.8343">
        <ele>84</ele>
        <time>2020-12-17T13:27:52.000Z</time>
      </trkpt>
      <trkpt lat="47.05828" lon="-1.83442">
        <ele>84</ele>
        <time>2020-12-17T13:27:54.000Z</time>
      </trkpt>
      <trkpt lat="47.05821" lon="-1.83452">
        <ele>85</ele>
        <time>2020-12-17T13:27:56.000Z</time>
      </trkpt>
      <trkpt lat="47.05813" lon="-1.83463">
        <ele>85</ele>
        <time>2020-12-17T13:27:58.000Z</time>
      </trkpt>
      <trkpt lat="47.05805" lon="-1.83474">
        <ele>85</ele>
        <time>2020-12-17T13:28:00.000Z</time>
      </trkpt>
      <trkpt lat="47.05797" lon="-1.83484">
        <ele>85</ele>
        <time>2020-12-17T13:28:02.000Z</time>
      </trkpt>
      <trkpt lat="47.05788" lon="-1.83494">
        <ele>85</ele>
        <time>2020-12-17T13:28:04.000Z</time>
      </trkpt>
      <trkpt lat="47.0578" lon="-1.83504">
        <ele>85</ele>
        <time>2020-12-17T13:28:06.000Z</time>
      </trkpt>
      <trkpt lat="47.05772" lon="-1.83514">
        <ele>85</ele>
        <time>2020-12-17T13:28:08.000Z</time>
      </trkpt>
      <trkpt lat="47.05763" lon="-1.83524">
        <ele>85</ele>
        <time>2020-12-17T13:28:10.000Z</time>
      </trkpt>
      <trkpt lat="47.05755" lon="-1.83535">
        <ele>85</ele>
        <time>2020-12-17T13:28:12.000Z</time>
      </trkpt>
      <trkpt lat="47.05746" lon="-1.83544">
        <ele>85</ele>
        <time>2020-12-17T13:28:14.000Z</time>
      </trkpt>
      <trkpt lat="47.05738" lon="-1.83554">
        <ele>85</ele>
        <time>2020-12-17T13:28:16.000Z</time>
      </trkpt>
      <trkpt lat="47.0573" lon="-1.83565">
        <ele>85</ele>
        <time>2020-12-17T13:28:18.000Z</time>
      </trkpt>
      <trkpt lat="47.05723" lon="-1.83576">
        <ele>85</ele>
        <time>2020-12-17T13:28:20.000Z</time>
      </trkpt>
      <trkpt lat="47.05717" lon="-1.83588">
        <ele>85</ele>
        <time>2020-12-17T13:28:22.000Z</time>
      </trkpt>
      <trkpt lat="47.0571" lon="-1.836">
        <ele>85</ele>
        <time>2020-12-17T13:28:24.000Z</time>
      </trkpt>
      <trkpt lat="47.05702" lon="-1.83613">
        <ele>86</ele>
        <time>2020-12-17T13:28:26.000Z</time>
      </trkpt>
      <trkpt lat="47.05695" lon="-1.83625">
        <ele>86</ele>
        <time>2020-12-17T13:28:28.000Z</time>
      </trkpt>
      <trkpt lat="47.05687" lon="-1.83638">
        <ele>86</ele>
        <time>2020-12-17T13:28:30.000Z</time>
      </trkpt>
      <trkpt lat="47.0568" lon="-1.8365">
        <ele>86</ele>
        <time>2020-12-17T13:28:32.000Z</time>
      </trkpt>
      <trkpt lat="47.05674" lon="-1.83664">
        <ele>86</ele>
        <time>2020-12-17T13:28:34.000Z</time>
      </trkpt>
      <trkpt lat="47.05667" lon="-1.83676">
        <ele>86</ele>
        <time>2020-12-17T13:28:36.000Z</time>
      </trkpt>
      <trkpt lat="47.0566" lon="-1.83688">
        <ele>86</ele>
        <time>2020-12-17T13:28:38.000Z</time>
      </trkpt>
      <trkpt lat="47.05653" lon="-1.83701">
        <ele>86</ele>
        <time>2020-12-17T13:28:40.000Z</time>
      </trkpt>
      <trkpt lat="47.05646" lon="-1.83713">
        <ele>86</ele>
        <time>2020-12-17T13:28:42.000Z</time>
      </trkpt>
      <trkpt lat="47.05639" lon="-1.83726">
        <ele>86</ele>
        <time>2020-12-17T13:28:44.000Z</time>
      </trkpt>
      <trkpt lat="47.05633" lon="-1.83739">
        <ele>86</ele>
        <time>2020-12-17T13:28:46.000Z</time>
      </trkpt>
      <trkpt lat="47.05625" lon="-1.83751">
        <ele>86</ele>
        <time>2020-12-17T13:28:48.000Z</time>
      </trkpt>
      <trkpt lat="47.05618" lon="-1.83764">
        <ele>86</ele>
        <time>2020-12-17T13:28:50.000Z</time>
      </trkpt>
      <trkpt lat="47.05612" lon="-1.83776">
        <ele>86</ele>
        <time>2020-12-17T13:28:52.000Z</time>
      </trkpt>
      <trkpt lat="47.05605" lon="-1.83788">
        <ele>86</ele>
        <time>2020-12-17T13:28:54.000Z</time>
      </trkpt>
      <trkpt lat="47.05598" lon="-1.838">
        <ele>86</ele>
        <time>2020-12-17T13:28:56.000Z</time>
      </trkpt>
      <trkpt lat="47.05592" lon="-1.83812">
        <ele>86</ele>
        <time>2020-12-17T13:28:58.000Z</time>
      </trkpt>
      <trkpt lat="47.05585" lon="-1.83824">
        <ele>86</ele>
        <time>2020-12-17T13:29:00.000Z</time>
      </trkpt>
      <trkpt lat="47.05579" lon="-1.83835">
        <ele>86</ele>
        <time>2020-12-17T13:29:02.000Z</time>
      </trkpt>
      <trkpt lat="47.05572" lon="-1.83847">
        <ele>86</ele>
        <time>2020-12-17T13:29:04.000Z</time>
      </trkpt>
      <trkpt lat="47.05565" lon="-1.83859">
        <ele>86</ele>
        <time>2020-12-17T13:29:06.000Z</time>
      </trkpt>
      <trkpt lat="47.05558" lon="-1.83872">
        <ele>86</ele>
        <time>2020-12-17T13:29:08.000Z</time>
      </trkpt>
      <trkpt lat="47.05551" lon="-1.83884">
        <ele>86</ele>
        <time>2020-12-17T13:29:10.000Z</time>
      </trkpt>
      <trkpt lat="47.05545" lon="-1.83896">
        <ele>86</ele>
        <time>2020-12-17T13:29:12.000Z</time>
      </trkpt>
      <trkpt lat="47.05538" lon="-1.83908">
        <ele>86</ele>
        <time>2020-12-17T13:29:14.000Z</time>
      </trkpt>
      <trkpt lat="47.05532" lon="-1.83919">
        <ele>86</ele>
        <time>2020-12-17T13:29:16.000Z</time>
      </trkpt>
      <trkpt lat="47.05526" lon="-1.8393">
        <ele>86</ele>
        <time>2020-12-17T13:29:18.000Z</time>
      </trkpt>
      <trkpt lat="47.05519" lon="-1.83941">
        <ele>86</ele>
        <time>2020-12-17T13:29:20.000Z</time>
      </trkpt>
      <trkpt lat="47.05513" lon="-1.83954">
        <ele>86</ele>
        <time>2020-12-17T13:29:22.000Z</time>
      </trkpt>
      <trkpt lat="47.05507" lon="-1.83965">
        <ele>86</ele>
        <time>2020-12-17T13:29:24.000Z</time>
      </trkpt>
      <trkpt lat="47.055" lon="-1.83977">
        <ele>86</ele>
        <time>2020-12-17T13:29:26.000Z</time>
      </trkpt>
      <trkpt lat="47.05493" lon="-1.83989">
        <ele>86</ele>
        <time>2020-12-17T13:29:28.000Z</time>
      </trkpt>
      <trkpt lat="47.05487" lon="-1.84001">
        <ele>86</ele>
        <time>2020-12-17T13:29:30.000Z</time>
      </trkpt>
      <trkpt lat="47.05481" lon="-1.84013">
        <ele>85</ele>
        <time>2020-12-17T13:29:32.000Z</time>
      </trkpt>
      <trkpt lat="47.05475" lon="-1.84024">
        <ele>85</ele>
        <time>2020-12-17T13:29:34.000Z</time>
      </trkpt>
      <trkpt lat="47.05469" lon="-1.84037">
        <ele>85</ele>
        <time>2020-12-17T13:29:36.000Z</time>
      </trkpt>
      <trkpt lat="47.05463" lon="-1.84049">
        <ele>85</ele>
        <time>2020-12-17T13:29:38.000Z</time>
      </trkpt>
      <trkpt lat="47.05457" lon="-1.84061">
        <ele>85</ele>
        <time>2020-12-17T13:29:40.000Z</time>
      </trkpt>
      <trkpt lat="47.05451" lon="-1.84072">
        <ele>85</ele>
        <time>2020-12-17T13:29:42.000Z</time>
      </trkpt>
      <trkpt lat="47.05445" lon="-1.84085">
        <ele>85</ele>
        <time>2020-12-17T13:29:44.000Z</time>
      </trkpt>
      <trkpt lat="47.05439" lon="-1.84096">
        <ele>85</ele>
        <time>2020-12-17T13:29:46.000Z</time>
      </trkpt>
      <trkpt lat="47.05433" lon="-1.84109">
        <ele>85</ele>
        <time>2020-12-17T13:29:48.000Z</time>
      </trkpt>
      <trkpt lat="47.05427" lon="-1.84121">
        <ele>86</ele>
        <time>2020-12-17T13:29:50.000Z</time>
      </trkpt>
      <trkpt lat="47.05421" lon="-1.84133">
        <ele>86</ele>
        <time>2020-12-17T13:29:52.000Z</time>
      </trkpt>
      <trkpt lat="47.05415" lon="-1.84145">
        <ele>86</ele>
        <time>2020-12-17T13:29:54.000Z</time>
      </trkpt>
      <trkpt lat="47.05409" lon="-1.84158">
        <ele>86</ele>
        <time>2020-12-17T13:29:56.000Z</time>
      </trkpt>
      <trkpt lat="47.05402" lon="-1.84171">
        <ele>86</ele>
        <time>2020-12-17T13:29:58.000Z</time>
      </trkpt>
      <trkpt lat="47.05396" lon="-1.84182">
        <ele>86</ele>
        <time>2020-12-17T13:30:00.000Z</time>
      </trkpt>
      <trkpt lat="47.05389" lon="-1.84195">
        <ele>86</ele>
        <time>2020-12-17T13:30:02.000Z</time>
      </trkpt>
      <trkpt lat="47.05383" lon="-1.84208">
        <ele>86</ele>
        <time>2020-12-17T13:30:04.000Z</time>
      </trkpt>
      <trkpt lat="47.05376" lon="-1.8422">
        <ele>86</ele>
        <time>2020-12-17T13:30:06.000Z</time>
      </trkpt>
      <trkpt lat="47.0537" lon="-1.84233">
        <ele>86</ele>
        <time>2020-12-17T13:30:08.000Z</time>
      </trkpt>
      <trkpt lat="47.05363" lon="-1.84245">
        <ele>86</ele>
        <time>2020-12-17T13:30:10.000Z</time>
      </trkpt>
      <trkpt lat="47.05357" lon="-1.84257">
        <ele>86</ele>
        <time>2020-12-17T13:30:12.000Z</time>
      </trkpt>
      <trkpt lat="47.05351" lon="-1.84269">
        <ele>86</ele>
        <time>2020-12-17T13:30:14.000Z</time>
      </trkpt>
      <trkpt lat="47.05345" lon="-1.84281">
        <ele>86</ele>
        <time>2020-12-17T13:30:16.000Z</time>
      </trkpt>
      <trkpt lat="47.05338" lon="-1.84294">
        <ele>86</ele>
        <time>2020-12-17T13:30:18.000Z</time>
      </trkpt>
      <trkpt lat="47.05332" lon="-1.84307">
        <ele>87</ele>
        <time>2020-12-17T13:30:20.000Z</time>
      </trkpt>
      <trkpt lat="47.05325" lon="-1.84319">
        <ele>86</ele>
        <time>2020-12-17T13:30:22.000Z</time>
      </trkpt>
      <trkpt lat="47.05319" lon="-1.84331">
        <ele>87</ele>
        <time>2020-12-17T13:30:24.000Z</time>
      </trkpt>
      <trkpt lat="47.05314" lon="-1.84344">
        <ele>86</ele>
        <time>2020-12-17T13:30:26.000Z</time>
      </trkpt>
      <trkpt lat="47.05307" lon="-1.84357">
        <ele>87</ele>
        <time>2020-12-17T13:30:28.000Z</time>
      </trkpt>
      <trkpt lat="47.05301" lon="-1.8437">
        <ele>87</ele>
        <time>2020-12-17T13:30:30.000Z</time>
      </trkpt>
      <trkpt lat="47.05294" lon="-1.84384">
        <ele>87</ele>
        <time>2020-12-17T13:30:32.000Z</time>
      </trkpt>
      <trkpt lat="47.05287" lon="-1.84398">
        <ele>87</ele>
        <time>2020-12-17T13:30:34.000Z</time>
      </trkpt>
      <trkpt lat="47.05281" lon="-1.84411">
        <ele>87</ele>
        <time>2020-12-17T13:30:36.000Z</time>
      </trkpt>
      <trkpt lat="47.05274" lon="-1.84425">
        <ele>87</ele>
        <time>2020-12-17T13:30:38.000Z</time>
      </trkpt>
      <trkpt lat="47.05268" lon="-1.84437">
        <ele>87</ele>
        <time>2020-12-17T13:30:40.000Z</time>
      </trkpt>
      <trkpt lat="47.05262" lon="-1.8445">
        <ele>88</ele>
        <time>2020-12-17T13:30:42.000Z</time>
      </trkpt>
      <trkpt lat="47.05255" lon="-1.84463">
        <ele>88</ele>
        <time>2020-12-17T13:30:44.000Z</time>
      </trkpt>
      <trkpt lat="47.05249" lon="-1.84476">
        <ele>88</ele>
        <time>2020-12-17T13:30:46.000Z</time>
      </trkpt>
      <trkpt lat="47.05242" lon="-1.84488">
        <ele>88</ele>
        <time>2020-12-17T13:30:48.000Z</time>
      </trkpt>
      <trkpt lat="47.05235" lon="-1.845">
        <ele>87</ele>
        <time>2020-12-17T13:30:50.000Z</time>
      </trkpt>
      <trkpt lat="47.05229" lon="-1.84512">
        <ele>87</ele>
        <time>2020-12-17T13:30:52.000Z</time>
      </trkpt>
      <trkpt lat="47.05223" lon="-1.84524">
        <ele>88</ele>
        <time>2020-12-17T13:30:54.000Z</time>
      </trkpt>
      <trkpt lat="47.05216" lon="-1.84538">
        <ele>88</ele>
        <time>2020-12-17T13:30:57.000Z</time>
      </trkpt>
      <trkpt lat="47.05204" lon="-1.84541">
        <ele>88</ele>
        <time>2020-12-17T13:31:00.000Z</time>
      </trkpt>
      <trkpt lat="47.05195" lon="-1.84534">
        <ele>88</ele>
        <time>2020-12-17T13:31:02.000Z</time>
      </trkpt>
      <trkpt lat="47.05186" lon="-1.84524">
        <ele>88</ele>
        <time>2020-12-17T13:31:04.000Z</time>
      </trkpt>
      <trkpt lat="47.05177" lon="-1.84513">
        <ele>87</ele>
        <time>2020-12-17T13:31:06.000Z</time>
      </trkpt>
      <trkpt lat="47.05169" lon="-1.84502">
        <ele>87</ele>
        <time>2020-12-17T13:31:08.000Z</time>
      </trkpt>
      <trkpt lat="47.05161" lon="-1.84489">
        <ele>87</ele>
        <time>2020-12-17T13:31:10.000Z</time>
      </trkpt>
      <trkpt lat="47.05153" lon="-1.84477">
        <ele>86</ele>
        <time>2020-12-17T13:31:12.000Z</time>
      </trkpt>
      <trkpt lat="47.05145" lon="-1.84465">
        <ele>86</ele>
        <time>2020-12-17T13:31:14.000Z</time>
      </trkpt>
      <trkpt lat="47.05137" lon="-1.84454">
        <ele>86</ele>
        <time>2020-12-17T13:31:16.000Z</time>
      </trkpt>
      <trkpt lat="47.05129" lon="-1.84442">
        <ele>86</ele>
        <time>2020-12-17T13:31:18.000Z</time>
      </trkpt>
      <trkpt lat="47.05121" lon="-1.8443">
        <ele>86</ele>
        <time>2020-12-17T13:31:20.000Z</time>
      </trkpt>
      <trkpt lat="47.05112" lon="-1.84417">
        <ele>86</ele>
        <time>2020-12-17T13:31:22.000Z</time>
      </trkpt>
      <trkpt lat="47.05104" lon="-1.84406">
        <ele>86</ele>
        <time>2020-12-17T13:31:24.000Z</time>
      </trkpt>
      <trkpt lat="47.05095" lon="-1.84397">
        <ele>86</ele>
        <time>2020-12-17T13:31:26.000Z</time>
      </trkpt>
      <trkpt lat="47.05086" lon="-1.84386">
        <ele>86</ele>
        <time>2020-12-17T13:31:28.000Z</time>
      </trkpt>
      <trkpt lat="47.05076" lon="-1.84375">
        <ele>86</ele>
        <time>2020-12-17T13:31:30.000Z</time>
      </trkpt>
      <trkpt lat="47.05067" lon="-1.84365">
        <ele>86</ele>
        <time>2020-12-17T13:31:32.000Z</time>
      </trkpt>
      <trkpt lat="47.05057" lon="-1.84354">
        <ele>86</ele>
        <time>2020-12-17T13:31:34.000Z</time>
      </trkpt>
      <trkpt lat="47.05048" lon="-1.84345">
        <ele>85</ele>
        <time>2020-12-17T13:31:36.000Z</time>
      </trkpt>
      <trkpt lat="47.05038" lon="-1.84335">
        <ele>85</ele>
        <time>2020-12-17T13:31:38.000Z</time>
      </trkpt>
      <trkpt lat="47.05029" lon="-1.84325">
        <ele>85</ele>
        <time>2020-12-17T13:31:40.000Z</time>
      </trkpt>
      <trkpt lat="47.05019" lon="-1.84315">
        <ele>85</ele>
        <time>2020-12-17T13:31:42.000Z</time>
      </trkpt>
      <trkpt lat="47.05009" lon="-1.84307">
        <ele>85</ele>
        <time>2020-12-17T13:31:44.000Z</time>
      </trkpt>
      <trkpt lat="47.04998" lon="-1.84299">
        <ele>85</ele>
        <time>2020-12-17T13:31:46.000Z</time>
      </trkpt>
      <trkpt lat="47.04988" lon="-1.84291">
        <ele>85</ele>
        <time>2020-12-17T13:31:48.000Z</time>
      </trkpt>
      <trkpt lat="47.04978" lon="-1.84283">
        <ele>85</ele>
        <time>2020-12-17T13:31:50.000Z</time>
      </trkpt>
      <trkpt lat="47.04968" lon="-1.84274">
        <ele>86</ele>
        <time>2020-12-17T13:31:52.000Z</time>
      </trkpt>
      <trkpt lat="47.04958" lon="-1.84265">
        <ele>86</ele>
        <time>2020-12-17T13:31:54.000Z</time>
      </trkpt>
      <trkpt lat="47.04949" lon="-1.84255">
        <ele>86</ele>
        <time>2020-12-17T13:31:56.000Z</time>
      </trkpt>
      <trkpt lat="47.04939" lon="-1.84245">
        <ele>85</ele>
        <time>2020-12-17T13:31:58.000Z</time>
      </trkpt>
      <trkpt lat="47.0493" lon="-1.84236">
        <ele>85</ele>
        <time>2020-12-17T13:32:00.000Z</time>
      </trkpt>
      <trkpt lat="47.04921" lon="-1.84226">
        <ele>85</ele>
        <time>2020-12-17T13:32:02.000Z</time>
      </trkpt>
      <trkpt lat="47.04911" lon="-1.84218">
        <ele>85</ele>
        <time>2020-12-17T13:32:04.000Z</time>
      </trkpt>
      <trkpt lat="47.04902" lon="-1.84209">
        <ele>85</ele>
        <time>2020-12-17T13:32:06.000Z</time>
      </trkpt>
      <trkpt lat="47.04892" lon="-1.84199">
        <ele>85</ele>
        <time>2020-12-17T13:32:08.000Z</time>
      </trkpt>
      <trkpt lat="47.04883" lon="-1.84189">
        <ele>85</ele>
        <time>2020-12-17T13:32:10.000Z</time>
      </trkpt>
      <trkpt lat="47.04873" lon="-1.84178">
        <ele>84</ele>
        <time>2020-12-17T13:32:12.000Z</time>
      </trkpt>
      <trkpt lat="47.04863" lon="-1.84168">
        <ele>85</ele>
        <time>2020-12-17T13:32:14.000Z</time>
      </trkpt>
      <trkpt lat="47.04854" lon="-1.84158">
        <ele>85</ele>
        <time>2020-12-17T13:32:16.000Z</time>
      </trkpt>
      <trkpt lat="47.04844" lon="-1.84147">
        <ele>85</ele>
        <time>2020-12-17T13:32:18.000Z</time>
      </trkpt>
      <trkpt lat="47.04834" lon="-1.84136">
        <ele>84</ele>
        <time>2020-12-17T13:32:20.000Z</time>
      </trkpt>
      <trkpt lat="47.04824" lon="-1.84124">
        <ele>84</ele>
        <time>2020-12-17T13:32:22.000Z</time>
      </trkpt>
      <trkpt lat="47.04815" lon="-1.84112">
        <ele>84</ele>
        <time>2020-12-17T13:32:24.000Z</time>
      </trkpt>
      <trkpt lat="47.04805" lon="-1.84099">
        <ele>83</ele>
        <time>2020-12-17T13:32:26.000Z</time>
      </trkpt>
      <trkpt lat="47.04796" lon="-1.84087">
        <ele>83</ele>
        <time>2020-12-17T13:32:28.000Z</time>
      </trkpt>
      <trkpt lat="47.04786" lon="-1.84074">
        <ele>83</ele>
        <time>2020-12-17T13:32:30.000Z</time>
      </trkpt>
      <trkpt lat="47.04776" lon="-1.84062">
        <ele>83</ele>
        <time>2020-12-17T13:32:32.000Z</time>
      </trkpt>
      <trkpt lat="47.04767" lon="-1.8405">
        <ele>83</ele>
        <time>2020-12-17T13:32:34.000Z</time>
      </trkpt>
      <trkpt lat="47.04757" lon="-1.84037">
        <ele>83</ele>
        <time>2020-12-17T13:32:36.000Z</time>
      </trkpt>
      <trkpt lat="47.04747" lon="-1.84024">
        <ele>83</ele>
        <time>2020-12-17T13:32:38.000Z</time>
      </trkpt>
      <trkpt lat="47.04737" lon="-1.84012">
        <ele>83</ele>
        <time>2020-12-17T13:32:40.000Z</time>
      </trkpt>
      <trkpt lat="47.04727" lon="-1.84">
        <ele>83</ele>
        <time>2020-12-17T13:32:42.000Z</time>
      </trkpt>
      <trkpt lat="47.04716" lon="-1.83989">
        <ele>83</ele>
        <time>2020-12-17T13:32:44.000Z</time>
      </trkpt>
      <trkpt lat="47.04706" lon="-1.83977">
        <ele>82</ele>
        <time>2020-12-17T13:32:46.000Z</time>
      </trkpt>
      <trkpt lat="47.04696" lon="-1.83964">
        <ele>82</ele>
        <time>2020-12-17T13:32:48.000Z</time>
      </trkpt>
      <trkpt lat="47.04686" lon="-1.83952">
        <ele>82</ele>
        <time>2020-12-17T13:32:50.000Z</time>
      </trkpt>
      <trkpt lat="47.04675" lon="-1.83939">
        <ele>82</ele>
        <time>2020-12-17T13:32:52.000Z</time>
      </trkpt>
      <trkpt lat="47.04665" lon="-1.83927">
        <ele>82</ele>
        <time>2020-12-17T13:32:54.000Z</time>
      </trkpt>
      <trkpt lat="47.04656" lon="-1.83914">
        <ele>82</ele>
        <time>2020-12-17T13:32:56.000Z</time>
      </trkpt>
      <trkpt lat="47.04647" lon="-1.83902">
        <ele>82</ele>
        <time>2020-12-17T13:32:58.000Z</time>
      </trkpt>
      <trkpt lat="47.04638" lon="-1.83888">
        <ele>82</ele>
        <time>2020-12-17T13:33:00.000Z</time>
      </trkpt>
      <trkpt lat="47.04629" lon="-1.83874">
        <ele>83</ele>
        <time>2020-12-17T13:33:02.000Z</time>
      </trkpt>
      <trkpt lat="47.0462" lon="-1.83861">
        <ele>83</ele>
        <time>2020-12-17T13:33:04.000Z</time>
      </trkpt>
      <trkpt lat="47.0461" lon="-1.83848">
        <ele>83</ele>
        <time>2020-12-17T13:33:06.000Z</time>
      </trkpt>
      <trkpt lat="47.04599" lon="-1.83836">
        <ele>83</ele>
        <time>2020-12-17T13:33:08.000Z</time>
      </trkpt>
      <trkpt lat="47.04587" lon="-1.83827">
        <ele>84</ele>
        <time>2020-12-17T13:33:10.000Z</time>
      </trkpt>
      <trkpt lat="47.04576" lon="-1.83818">
        <ele>83</ele>
        <time>2020-12-17T13:33:12.000Z</time>
      </trkpt>
      <trkpt lat="47.04564" lon="-1.83809">
        <ele>83</ele>
        <time>2020-12-17T13:33:14.000Z</time>
      </trkpt>
      <trkpt lat="47.04552" lon="-1.83801">
        <ele>83</ele>
        <time>2020-12-17T13:33:16.000Z</time>
      </trkpt>
      <trkpt lat="47.0454" lon="-1.83793">
        <ele>83</ele>
        <time>2020-12-17T13:33:18.000Z</time>
      </trkpt>
      <trkpt lat="47.04529" lon="-1.83784">
        <ele>82</ele>
        <time>2020-12-17T13:33:20.000Z</time>
      </trkpt>
      <trkpt lat="47.04518" lon="-1.83776">
        <ele>82</ele>
        <time>2020-12-17T13:33:22.000Z</time>
      </trkpt>
      <trkpt lat="47.04506" lon="-1.83768">
        <ele>81</ele>
        <time>2020-12-17T13:33:24.000Z</time>
      </trkpt>
      <trkpt lat="47.04495" lon="-1.83759">
        <ele>81</ele>
        <time>2020-12-17T13:33:26.000Z</time>
      </trkpt>
      <trkpt lat="47.04484" lon="-1.83751">
        <ele>81</ele>
        <time>2020-12-17T13:33:28.000Z</time>
      </trkpt>
      <trkpt lat="47.04473" lon="-1.83742">
        <ele>81</ele>
        <time>2020-12-17T13:33:30.000Z</time>
      </trkpt>
      <trkpt lat="47.04463" lon="-1.83734">
        <ele>82</ele>
        <time>2020-12-17T13:33:32.000Z</time>
      </trkpt>
      <trkpt lat="47.04452" lon="-1.83725">
        <ele>82</ele>
        <time>2020-12-17T13:33:34.000Z</time>
      </trkpt>
      <trkpt lat="47.04442" lon="-1.83716">
        <ele>81</ele>
        <time>2020-12-17T13:33:36.000Z</time>
      </trkpt>
      <trkpt lat="47.04431" lon="-1.83708">
        <ele>81</ele>
        <time>2020-12-17T13:33:38.000Z</time>
      </trkpt>
      <trkpt lat="47.0442" lon="-1.83699">
        <ele>81</ele>
        <time>2020-12-17T13:33:40.000Z</time>
      </trkpt>
      <trkpt lat="47.04409" lon="-1.83692">
        <ele>80</ele>
        <time>2020-12-17T13:33:42.000Z</time>
      </trkpt>
      <trkpt lat="47.04398" lon="-1.83684">
        <ele>79</ele>
        <time>2020-12-17T13:33:44.000Z</time>
      </trkpt>
      <trkpt lat="47.04385" lon="-1.83677">
        <ele>79</ele>
        <time>2020-12-17T13:33:46.000Z</time>
      </trkpt>
      <trkpt lat="47.04373" lon="-1.83671">
        <ele>79</ele>
        <time>2020-12-17T13:33:48.000Z</time>
      </trkpt>
      <trkpt lat="47.04361" lon="-1.83668">
        <ele>79</ele>
        <time>2020-12-17T13:33:50.000Z</time>
      </trkpt>
      <trkpt lat="47.04348" lon="-1.83664">
        <ele>79</ele>
        <time>2020-12-17T13:33:52.000Z</time>
      </trkpt>
      <trkpt lat="47.04335" lon="-1.83661">
        <ele>79</ele>
        <time>2020-12-17T13:33:54.000Z</time>
      </trkpt>
      <trkpt lat="47.04323" lon="-1.83658">
        <ele>79</ele>
        <time>2020-12-17T13:33:56.000Z</time>
      </trkpt>
      <trkpt lat="47.04311" lon="-1.83655">
        <ele>79</ele>
        <time>2020-12-17T13:33:58.000Z</time>
      </trkpt>
      <trkpt lat="47.04299" lon="-1.83652">
        <ele>80</ele>
        <time>2020-12-17T13:34:00.000Z</time>
      </trkpt>
      <trkpt lat="47.04287" lon="-1.83649">
        <ele>80</ele>
        <time>2020-12-17T13:34:02.000Z</time>
      </trkpt>
      <trkpt lat="47.04274" lon="-1.83645">
        <ele>80</ele>
        <time>2020-12-17T13:34:04.000Z</time>
      </trkpt>
      <trkpt lat="47.04261" lon="-1.83642">
        <ele>80</ele>
        <time>2020-12-17T13:34:06.000Z</time>
      </trkpt>
      <trkpt lat="47.04248" lon="-1.83639">
        <ele>79</ele>
        <time>2020-12-17T13:34:08.000Z</time>
      </trkpt>
      <trkpt lat="47.04236" lon="-1.83635">
        <ele>79</ele>
        <time>2020-12-17T13:34:10.000Z</time>
      </trkpt>
      <trkpt lat="47.04225" lon="-1.8363">
        <ele>79</ele>
        <time>2020-12-17T13:34:12.000Z</time>
      </trkpt>
      <trkpt lat="47.04214" lon="-1.83621">
        <ele>79</ele>
        <time>2020-12-17T13:34:14.000Z</time>
      </trkpt>
      <trkpt lat="47.04203" lon="-1.83615">
        <ele>79</ele>
        <time>2020-12-17T13:34:16.000Z</time>
      </trkpt>
      <trkpt lat="47.04191" lon="-1.83614">
        <ele>79</ele>
        <time>2020-12-17T13:34:18.000Z</time>
      </trkpt>
      <trkpt lat="47.04178" lon="-1.83613">
        <ele>78</ele>
        <time>2020-12-17T13:34:20.000Z</time>
      </trkpt>
      <trkpt lat="47.04166" lon="-1.83609">
        <ele>78</ele>
        <time>2020-12-17T13:34:22.000Z</time>
      </trkpt>
      <trkpt lat="47.04154" lon="-1.83604">
        <ele>78</ele>
        <time>2020-12-17T13:34:24.000Z</time>
      </trkpt>
      <trkpt lat="47.04142" lon="-1.83597">
        <ele>78</ele>
        <time>2020-12-17T13:34:26.000Z</time>
      </trkpt>
      <trkpt lat="47.0413" lon="-1.8359">
        <ele>78</ele>
        <time>2020-12-17T13:34:28.000Z</time>
      </trkpt>
      <trkpt lat="47.04119" lon="-1.83584">
        <ele>79</ele>
        <time>2020-12-17T13:34:30.000Z</time>
      </trkpt>
      <trkpt lat="47.04107" lon="-1.8358">
        <ele>79</ele>
        <time>2020-12-17T13:34:32.000Z</time>
      </trkpt>
      <trkpt lat="47.04095" lon="-1.83576">
        <ele>79</ele>
        <time>2020-12-17T13:34:34.000Z</time>
      </trkpt>
      <trkpt lat="47.04083" lon="-1.83573">
        <ele>80</ele>
        <time>2020-12-17T13:34:36.000Z</time>
      </trkpt>
      <trkpt lat="47.0407" lon="-1.8357">
        <ele>80</ele>
        <time>2020-12-17T13:34:38.000Z</time>
      </trkpt>
      <trkpt lat="47.04058" lon="-1.83567">
        <ele>81</ele>
        <time>2020-12-17T13:34:40.000Z</time>
      </trkpt>
      <trkpt lat="47.04045" lon="-1.83566">
        <ele>80</ele>
        <time>2020-12-17T13:34:42.000Z</time>
      </trkpt>
      <trkpt lat="47.04033" lon="-1.83565">
        <ele>80</ele>
        <time>2020-12-17T13:34:44.000Z</time>
      </trkpt>
      <trkpt lat="47.04021" lon="-1.83564">
        <ele>81</ele>
        <time>2020-12-17T13:34:46.000Z</time>
      </trkpt>
      <trkpt lat="47.04009" lon="-1.83561">
        <ele>81</ele>
        <time>2020-12-17T13:34:48.000Z</time>
      </trkpt>
      <trkpt lat="47.03997" lon="-1.8356">
        <ele>81</ele>
        <time>2020-12-17T13:34:50.000Z</time>
      </trkpt>
      <trkpt lat="47.03985" lon="-1.83558">
        <ele>81</ele>
        <time>2020-12-17T13:34:52.000Z</time>
      </trkpt>
      <trkpt lat="47.03973" lon="-1.83557">
        <ele>81</ele>
        <time>2020-12-17T13:34:54.000Z</time>
      </trkpt>
      <trkpt lat="47.03961" lon="-1.83555">
        <ele>81</ele>
        <time>2020-12-17T13:34:56.000Z</time>
      </trkpt>
      <trkpt lat="47.03949" lon="-1.83554">
        <ele>81</ele>
        <time>2020-12-17T13:34:58.000Z</time>
      </trkpt>
      <trkpt lat="47.03936" lon="-1.83552">
        <ele>82</ele>
        <time>2020-12-17T13:35:00.000Z</time>
      </trkpt>
      <trkpt lat="47.03924" lon="-1.8355">
        <ele>82</ele>
        <time>2020-12-17T13:35:02.000Z</time>
      </trkpt>
      <trkpt lat="47.03912" lon="-1.83548">
        <ele>82</ele>
        <time>2020-12-17T13:35:04.000Z</time>
      </trkpt>
      <trkpt lat="47.03899" lon="-1.83546">
        <ele>82</ele>
        <time>2020-12-17T13:35:06.000Z</time>
      </trkpt>
      <trkpt lat="47.03886" lon="-1.83544">
        <ele>81</ele>
        <time>2020-12-17T13:35:08.000Z</time>
      </trkpt>
      <trkpt lat="47.03874" lon="-1.83543">
        <ele>82</ele>
        <time>2020-12-17T13:35:10.000Z</time>
      </trkpt>
      <trkpt lat="47.03862" lon="-1.83542">
        <ele>81</ele>
        <time>2020-12-17T13:35:12.000Z</time>
      </trkpt>
      <trkpt lat="47.0385" lon="-1.8354">
        <ele>81</ele>
        <time>2020-12-17T13:35:14.000Z</time>
      </trkpt>
      <trkpt lat="47.03838" lon="-1.83539">
        <ele>81</ele>
        <time>2020-12-17T13:35:16.000Z</time>
      </trkpt>
      <trkpt lat="47.03826" lon="-1.83537">
        <ele>81</ele>
        <time>2020-12-17T13:35:18.000Z</time>
      </trkpt>
      <trkpt lat="47.03813" lon="-1.83537">
        <ele>81</ele>
        <time>2020-12-17T13:35:20.000Z</time>
      </trkpt>
      <trkpt lat="47.03801" lon="-1.83536">
        <ele>82</ele>
        <time>2020-12-17T13:35:22.000Z</time>
      </trkpt>
      <trkpt lat="47.03789" lon="-1.83535">
        <ele>82</ele>
        <time>2020-12-17T13:35:24.000Z</time>
      </trkpt>
      <trkpt lat="47.03776" lon="-1.83534">
        <ele>82</ele>
        <time>2020-12-17T13:35:26.000Z</time>
      </trkpt>
      <trkpt lat="47.03764" lon="-1.83534">
        <ele>81</ele>
        <time>2020-12-17T13:35:28.000Z</time>
      </trkpt>
      <trkpt lat="47.03751" lon="-1.83534">
        <ele>81</ele>
        <time>2020-12-17T13:35:30.000Z</time>
      </trkpt>
      <trkpt lat="47.03739" lon="-1.83534">
        <ele>81</ele>
        <time>2020-12-17T13:35:32.000Z</time>
      </trkpt>
      <trkpt lat="47.03727" lon="-1.83534">
        <ele>81</ele>
        <time>2020-12-17T13:35:34.000Z</time>
      </trkpt>
      <trkpt lat="47.03715" lon="-1.83534">
        <ele>81</ele>
        <time>2020-12-17T13:35:36.000Z</time>
      </trkpt>
      <trkpt lat="47.03702" lon="-1.83535">
        <ele>81</ele>
        <time>2020-12-17T13:35:38.000Z</time>
      </trkpt>
      <trkpt lat="47.0369" lon="-1.83535">
        <ele>80</ele>
        <time>2020-12-17T13:35:40.000Z</time>
      </trkpt>
      <trkpt lat="47.03678" lon="-1.83535">
        <ele>80</ele>
        <time>2020-12-17T13:35:42.000Z</time>
      </trkpt>
      <trkpt lat="47.03666" lon="-1.83536">
        <ele>80</ele>
        <time>2020-12-17T13:35:44.000Z</time>
      </trkpt>
      <trkpt lat="47.03654" lon="-1.83536">
        <ele>80</ele>
        <time>2020-12-17T13:35:46.000Z</time>
      </trkpt>
      <trkpt lat="47.03642" lon="-1.83537">
        <ele>80</ele>
        <time>2020-12-17T13:35:48.000Z</time>
      </trkpt>
      <trkpt lat="47.0363" lon="-1.83537">
        <ele>80</ele>
        <time>2020-12-17T13:35:50.000Z</time>
      </trkpt>
      <trkpt lat="47.03618" lon="-1.83537">
        <ele>79</ele>
        <time>2020-12-17T13:35:52.000Z</time>
      </trkpt>
      <trkpt lat="47.03605" lon="-1.83537">
        <ele>79</ele>
        <time>2020-12-17T13:35:54.000Z</time>
      </trkpt>
      <trkpt lat="47.03593" lon="-1.83538">
        <ele>79</ele>
        <time>2020-12-17T13:35:56.000Z</time>
      </trkpt>
      <trkpt lat="47.03581" lon="-1.83538">
        <ele>79</ele>
        <time>2020-12-17T13:35:58.000Z</time>
      </trkpt>
      <trkpt lat="47.03569" lon="-1.83538">
        <ele>79</ele>
        <time>2020-12-17T13:36:00.000Z</time>
      </trkpt>
      <trkpt lat="47.03557" lon="-1.83538">
        <ele>79</ele>
        <time>2020-12-17T13:36:02.000Z</time>
      </trkpt>
      <trkpt lat="47.03544" lon="-1.83538">
        <ele>78</ele>
        <time>2020-12-17T13:36:04.000Z</time>
      </trkpt>
      <trkpt lat="47.03532" lon="-1.83538">
        <ele>78</ele>
        <time>2020-12-17T13:36:06.000Z</time>
      </trkpt>
      <trkpt lat="47.0352" lon="-1.83537">
        <ele>78</ele>
        <time>2020-12-17T13:36:08.000Z</time>
      </trkpt>
      <trkpt lat="47.03507" lon="-1.83536">
        <ele>78</ele>
        <time>2020-12-17T13:36:10.000Z</time>
      </trkpt>
      <trkpt lat="47.03494" lon="-1.83535">
        <ele>77</ele>
        <time>2020-12-17T13:36:12.000Z</time>
      </trkpt>
      <trkpt lat="47.03481" lon="-1.83533">
        <ele>77</ele>
        <time>2020-12-17T13:36:14.000Z</time>
      </trkpt>
      <trkpt lat="47.03469" lon="-1.83529">
        <ele>77</ele>
        <time>2020-12-17T13:36:16.000Z</time>
      </trkpt>
      <trkpt lat="47.03456" lon="-1.83526">
        <ele>77</ele>
        <time>2020-12-17T13:36:18.000Z</time>
      </trkpt>
      <trkpt lat="47.03444" lon="-1.83522">
        <ele>77</ele>
        <time>2020-12-17T13:36:20.000Z</time>
      </trkpt>
      <trkpt lat="47.03431" lon="-1.83519">
        <ele>76</ele>
        <time>2020-12-17T13:36:22.000Z</time>
      </trkpt>
      <trkpt lat="47.03419" lon="-1.83515">
        <ele>76</ele>
        <time>2020-12-17T13:36:24.000Z</time>
      </trkpt>
      <trkpt lat="47.03406" lon="-1.83512">
        <ele>75</ele>
        <time>2020-12-17T13:36:26.000Z</time>
      </trkpt>
      <trkpt lat="47.03394" lon="-1.83509">
        <ele>75</ele>
        <time>2020-12-17T13:36:28.000Z</time>
      </trkpt>
      <trkpt lat="47.03382" lon="-1.83505">
        <ele>75</ele>
        <time>2020-12-17T13:36:30.000Z</time>
      </trkpt>
      <trkpt lat="47.0337" lon="-1.83502">
        <ele>74</ele>
        <time>2020-12-17T13:36:32.000Z</time>
      </trkpt>
      <trkpt lat="47.03358" lon="-1.83498">
        <ele>75</ele>
        <time>2020-12-17T13:36:34.000Z</time>
      </trkpt>
      <trkpt lat="47.03345" lon="-1.83495">
        <ele>75</ele>
        <time>2020-12-17T13:36:36.000Z</time>
      </trkpt>
      <trkpt lat="47.03333" lon="-1.83491">
        <ele>74</ele>
        <time>2020-12-17T13:36:38.000Z</time>
      </trkpt>
      <trkpt lat="47.03321" lon="-1.83488">
        <ele>74</ele>
        <time>2020-12-17T13:36:40.000Z</time>
      </trkpt>
      <trkpt lat="47.0331" lon="-1.83485">
        <ele>74</ele>
        <time>2020-12-17T13:36:42.000Z</time>
      </trkpt>
      <trkpt lat="47.03297" lon="-1.83482">
        <ele>74</ele>
        <time>2020-12-17T13:36:44.000Z</time>
      </trkpt>
      <trkpt lat="47.03285" lon="-1.83479">
        <ele>75</ele>
        <time>2020-12-17T13:36:46.000Z</time>
      </trkpt>
      <trkpt lat="47.03273" lon="-1.83476">
        <ele>75</ele>
        <time>2020-12-17T13:36:48.000Z</time>
      </trkpt>
      <trkpt lat="47.03262" lon="-1.83473">
        <ele>75</ele>
        <time>2020-12-17T13:36:50.000Z</time>
      </trkpt>
      <trkpt lat="47.0325" lon="-1.8347">
        <ele>75</ele>
        <time>2020-12-17T13:36:52.000Z</time>
      </trkpt>
      <trkpt lat="47.03237" lon="-1.83467">
        <ele>75</ele>
        <time>2020-12-17T13:36:54.000Z</time>
      </trkpt>
      <trkpt lat="47.03226" lon="-1.83463">
        <ele>76</ele>
        <time>2020-12-17T13:36:56.000Z</time>
      </trkpt>
      <trkpt lat="47.03214" lon="-1.8346">
        <ele>76</ele>
        <time>2020-12-17T13:36:58.000Z</time>
      </trkpt>
      <trkpt lat="47.03203" lon="-1.83457">
        <ele>76</ele>
        <time>2020-12-17T13:37:00.000Z</time>
      </trkpt>
      <trkpt lat="47.03192" lon="-1.83454">
        <ele>76</ele>
        <time>2020-12-17T13:37:02.000Z</time>
      </trkpt>
      <trkpt lat="47.03182" lon="-1.83451">
        <ele>76</ele>
        <time>2020-12-17T13:37:04.000Z</time>
      </trkpt>
      <trkpt lat="47.03173" lon="-1.83452">
        <ele>77</ele>
        <time>2020-12-17T13:37:06.000Z</time>
      </trkpt>
      <trkpt lat="47.03165" lon="-1.83461">
        <ele>76</ele>
        <time>2020-12-17T13:37:08.000Z</time>
      </trkpt>
      <trkpt lat="47.0316" lon="-1.83474">
        <ele>76</ele>
        <time>2020-12-17T13:37:10.000Z</time>
      </trkpt>
      <trkpt lat="47.0315" lon="-1.83484">
        <ele>77</ele>
        <time>2020-12-17T13:37:12.000Z</time>
      </trkpt>
      <trkpt lat="47.03138" lon="-1.83488">
        <ele>77</ele>
        <time>2020-12-17T13:37:14.000Z</time>
      </trkpt>
      <trkpt lat="47.03126" lon="-1.83491">
        <ele>77</ele>
        <time>2020-12-17T13:37:16.000Z</time>
      </trkpt>
      <trkpt lat="47.03114" lon="-1.83492">
        <ele>76</ele>
        <time>2020-12-17T13:37:18.000Z</time>
      </trkpt>
      <trkpt lat="47.03102" lon="-1.83493">
        <ele>76</ele>
        <time>2020-12-17T13:37:20.000Z</time>
      </trkpt>
      <trkpt lat="47.0309" lon="-1.83495">
        <ele>75</ele>
        <time>2020-12-17T13:37:22.000Z</time>
      </trkpt>
      <trkpt lat="47.03077" lon="-1.83496">
        <ele>75</ele>
        <time>2020-12-17T13:37:24.000Z</time>
      </trkpt>
      <trkpt lat="47.03065" lon="-1.83497">
        <ele>75</ele>
        <time>2020-12-17T13:37:26.000Z</time>
      </trkpt>
      <trkpt lat="47.03053" lon="-1.83498">
        <ele>75</ele>
        <time>2020-12-17T13:37:28.000Z</time>
      </trkpt>
      <trkpt lat="47.0304" lon="-1.83499">
        <ele>75</ele>
        <time>2020-12-17T13:37:30.000Z</time>
      </trkpt>
      <trkpt lat="47.03027" lon="-1.83501">
        <ele>74</ele>
        <time>2020-12-17T13:37:32.000Z</time>
      </trkpt>
      <trkpt lat="47.03014" lon="-1.83502">
        <ele>74</ele>
        <time>2020-12-17T13:37:34.000Z</time>
      </trkpt>
      <trkpt lat="47.03001" lon="-1.83504">
        <ele>74</ele>
        <time>2020-12-17T13:37:36.000Z</time>
      </trkpt>
      <trkpt lat="47.02988" lon="-1.83505">
        <ele>74</ele>
        <time>2020-12-17T13:37:38.000Z</time>
      </trkpt>
      <trkpt lat="47.02975" lon="-1.83507">
        <ele>74</ele>
        <time>2020-12-17T13:37:40.000Z</time>
      </trkpt>
      <trkpt lat="47.02962" lon="-1.83508">
        <ele>74</ele>
        <time>2020-12-17T13:37:42.000Z</time>
      </trkpt>
      <trkpt lat="47.02949" lon="-1.8351">
        <ele>74</ele>
        <time>2020-12-17T13:37:44.000Z</time>
      </trkpt>
      <trkpt lat="47.02936" lon="-1.83512">
        <ele>73</ele>
        <time>2020-12-17T13:37:46.000Z</time>
      </trkpt>
      <trkpt lat="47.02924" lon="-1.83515">
        <ele>73</ele>
        <time>2020-12-17T13:37:48.000Z</time>
      </trkpt>
      <trkpt lat="47.02911" lon="-1.83518">
        <ele>74</ele>
        <time>2020-12-17T13:37:50.000Z</time>
      </trkpt>
      <trkpt lat="47.02899" lon="-1.83522">
        <ele>74</ele>
        <time>2020-12-17T13:37:52.000Z</time>
      </trkpt>
      <trkpt lat="47.02887" lon="-1.83525">
        <ele>74</ele>
        <time>2020-12-17T13:37:54.000Z</time>
      </trkpt>
      <trkpt lat="47.02875" lon="-1.83528">
        <ele>74</ele>
        <time>2020-12-17T13:37:56.000Z</time>
      </trkpt>
      <trkpt lat="47.02863" lon="-1.83532">
        <ele>74</ele>
        <time>2020-12-17T13:37:58.000Z</time>
      </trkpt>
      <trkpt lat="47.02852" lon="-1.83537">
        <ele>74</ele>
        <time>2020-12-17T13:38:00.000Z</time>
      </trkpt>
      <trkpt lat="47.02841" lon="-1.83543">
        <ele>75</ele>
        <time>2020-12-17T13:38:02.000Z</time>
      </trkpt>
      <trkpt lat="47.02831" lon="-1.83551">
        <ele>75</ele>
        <time>2020-12-17T13:38:04.000Z</time>
      </trkpt>
      <trkpt lat="47.02822" lon="-1.83559">
        <ele>75</ele>
        <time>2020-12-17T13:38:06.000Z</time>
      </trkpt>
      <trkpt lat="47.02813" lon="-1.83568">
        <ele>75</ele>
        <time>2020-12-17T13:38:08.000Z</time>
      </trkpt>
      <trkpt lat="47.02803" lon="-1.83578">
        <ele>76</ele>
        <time>2020-12-17T13:38:10.000Z</time>
      </trkpt>
      <trkpt lat="47.02794" lon="-1.83588">
        <ele>76</ele>
        <time>2020-12-17T13:38:12.000Z</time>
      </trkpt>
      <trkpt lat="47.02784" lon="-1.83596">
        <ele>76</ele>
        <time>2020-12-17T13:38:14.000Z</time>
      </trkpt>
      <trkpt lat="47.02773" lon="-1.83604">
        <ele>76</ele>
        <time>2020-12-17T13:38:16.000Z</time>
      </trkpt>
      <trkpt lat="47.02762" lon="-1.8361">
        <ele>76</ele>
        <time>2020-12-17T13:38:18.000Z</time>
      </trkpt>
      <trkpt lat="47.0275" lon="-1.83614">
        <ele>75</ele>
        <time>2020-12-17T13:38:20.000Z</time>
      </trkpt>
      <trkpt lat="47.02737" lon="-1.83617">
        <ele>75</ele>
        <time>2020-12-17T13:38:22.000Z</time>
      </trkpt>
      <trkpt lat="47.02725" lon="-1.83618">
        <ele>75</ele>
        <time>2020-12-17T13:38:24.000Z</time>
      </trkpt>
      <trkpt lat="47.02713" lon="-1.83619">
        <ele>75</ele>
        <time>2020-12-17T13:38:26.000Z</time>
      </trkpt>
      <trkpt lat="47.027" lon="-1.8362">
        <ele>74</ele>
        <time>2020-12-17T13:38:28.000Z</time>
      </trkpt>
      <trkpt lat="47.02688" lon="-1.83621">
        <ele>74</ele>
        <time>2020-12-17T13:38:30.000Z</time>
      </trkpt>
      <trkpt lat="47.02675" lon="-1.83621">
        <ele>73</ele>
        <time>2020-12-17T13:38:32.000Z</time>
      </trkpt>
      <trkpt lat="47.02662" lon="-1.83622">
        <ele>73</ele>
        <time>2020-12-17T13:38:34.000Z</time>
      </trkpt>
      <trkpt lat="47.02649" lon="-1.83622">
        <ele>73</ele>
        <time>2020-12-17T13:38:36.000Z</time>
      </trkpt>
      <trkpt lat="47.02635" lon="-1.83622">
        <ele>73</ele>
        <time>2020-12-17T13:38:38.000Z</time>
      </trkpt>
      <trkpt lat="47.02622" lon="-1.83623">
        <ele>72</ele>
        <time>2020-12-17T13:38:40.000Z</time>
      </trkpt>
      <trkpt lat="47.0261" lon="-1.83623">
        <ele>72</ele>
        <time>2020-12-17T13:38:42.000Z</time>
      </trkpt>
      <trkpt lat="47.02597" lon="-1.83624">
        <ele>71</ele>
        <time>2020-12-17T13:38:44.000Z</time>
      </trkpt>
      <trkpt lat="47.02584" lon="-1.83625">
        <ele>71</ele>
        <time>2020-12-17T13:38:46.000Z</time>
      </trkpt>
      <trkpt lat="47.02572" lon="-1.83626">
        <ele>71</ele>
        <time>2020-12-17T13:38:48.000Z</time>
      </trkpt>
      <trkpt lat="47.0256" lon="-1.83627">
        <ele>71</ele>
        <time>2020-12-17T13:38:50.000Z</time>
      </trkpt>
      <trkpt lat="47.02547" lon="-1.83629">
        <ele>71</ele>
        <time>2020-12-17T13:38:52.000Z</time>
      </trkpt>
      <trkpt lat="47.02534" lon="-1.83631">
        <ele>71</ele>
        <time>2020-12-17T13:38:54.000Z</time>
      </trkpt>
      <trkpt lat="47.02521" lon="-1.83633">
        <ele>71</ele>
        <time>2020-12-17T13:38:56.000Z</time>
      </trkpt>
      <trkpt lat="47.02509" lon="-1.83635">
        <ele>71</ele>
        <time>2020-12-17T13:38:58.000Z</time>
      </trkpt>
      <trkpt lat="47.02497" lon="-1.83638">
        <ele>71</ele>
        <time>2020-12-17T13:39:00.000Z</time>
      </trkpt>
      <trkpt lat="47.02485" lon="-1.8364">
        <ele>71</ele>
        <time>2020-12-17T13:39:02.000Z</time>
      </trkpt>
      <trkpt lat="47.02472" lon="-1.83643">
        <ele>71</ele>
        <time>2020-12-17T13:39:04.000Z</time>
      </trkpt>
      <trkpt lat="47.0246" lon="-1.83647">
        <ele>71</ele>
        <time>2020-12-17T13:39:06.000Z</time>
      </trkpt>
      <trkpt lat="47.02447" lon="-1.8365">
        <ele>71</ele>
        <time>2020-12-17T13:39:08.000Z</time>
      </trkpt>
      <trkpt lat="47.02435" lon="-1.83653">
        <ele>71</ele>
        <time>2020-12-17T13:39:10.000Z</time>
      </trkpt>
      <trkpt lat="47.02422" lon="-1.83655">
        <ele>71</ele>
        <time>2020-12-17T13:39:12.000Z</time>
      </trkpt>
      <trkpt lat="47.0241" lon="-1.83657">
        <ele>71</ele>
        <time>2020-12-17T13:39:14.000Z</time>
      </trkpt>
      <trkpt lat="47.02397" lon="-1.83659">
        <ele>71</ele>
        <time>2020-12-17T13:39:16.000Z</time>
      </trkpt>
      <trkpt lat="47.02385" lon="-1.83659">
        <ele>72</ele>
        <time>2020-12-17T13:39:18.000Z</time>
      </trkpt>
      <trkpt lat="47.02372" lon="-1.8366">
        <ele>72</ele>
        <time>2020-12-17T13:39:20.000Z</time>
      </trkpt>
      <trkpt lat="47.02359" lon="-1.83659">
        <ele>71</ele>
        <time>2020-12-17T13:39:22.000Z</time>
      </trkpt>
      <trkpt lat="47.02347" lon="-1.83658">
        <ele>71</ele>
        <time>2020-12-17T13:39:24.000Z</time>
      </trkpt>
      <trkpt lat="47.02334" lon="-1.83657">
        <ele>70</ele>
        <time>2020-12-17T13:39:26.000Z</time>
      </trkpt>
      <trkpt lat="47.02322" lon="-1.83656">
        <ele>70</ele>
        <time>2020-12-17T13:39:28.000Z</time>
      </trkpt>
      <trkpt lat="47.0231" lon="-1.83655">
        <ele>71</ele>
        <time>2020-12-17T13:39:30.000Z</time>
      </trkpt>
      <trkpt lat="47.02298" lon="-1.83654">
        <ele>70</ele>
        <time>2020-12-17T13:39:32.000Z</time>
      </trkpt>
      <trkpt lat="47.02285" lon="-1.83653">
        <ele>70</ele>
        <time>2020-12-17T13:39:34.000Z</time>
      </trkpt>
      <trkpt lat="47.02272" lon="-1.83653">
        <ele>70</ele>
        <time>2020-12-17T13:39:36.000Z</time>
      </trkpt>
      <trkpt lat="47.0226" lon="-1.83652">
        <ele>70</ele>
        <time>2020-12-17T13:39:38.000Z</time>
      </trkpt>
      <trkpt lat="47.02247" lon="-1.83652">
        <ele>70</ele>
        <time>2020-12-17T13:39:40.000Z</time>
      </trkpt>
      <trkpt lat="47.02234" lon="-1.8365">
        <ele>70</ele>
        <time>2020-12-17T13:39:42.000Z</time>
      </trkpt>
      <trkpt lat="47.02221" lon="-1.83649">
        <ele>70</ele>
        <time>2020-12-17T13:39:44.000Z</time>
      </trkpt>
      <trkpt lat="47.02209" lon="-1.83646">
        <ele>69</ele>
        <time>2020-12-17T13:39:46.000Z</time>
      </trkpt>
      <trkpt lat="47.02196" lon="-1.83643">
        <ele>69</ele>
        <time>2020-12-17T13:39:48.000Z</time>
      </trkpt>
      <trkpt lat="47.02185" lon="-1.83638">
        <ele>69</ele>
        <time>2020-12-17T13:39:50.000Z</time>
      </trkpt>
      <trkpt lat="47.02173" lon="-1.83631">
        <ele>69</ele>
        <time>2020-12-17T13:39:52.000Z</time>
      </trkpt>
      <trkpt lat="47.02161" lon="-1.83624">
        <ele>68</ele>
        <time>2020-12-17T13:39:54.000Z</time>
      </trkpt>
      <trkpt lat="47.02149" lon="-1.83617">
        <ele>67</ele>
        <time>2020-12-17T13:39:56.000Z</time>
      </trkpt>
      <trkpt lat="47.02137" lon="-1.8361">
        <ele>67</ele>
        <time>2020-12-17T13:39:58.000Z</time>
      </trkpt>
      <trkpt lat="47.02125" lon="-1.83603">
        <ele>67</ele>
        <time>2020-12-17T13:40:00.000Z</time>
      </trkpt>
      <trkpt lat="47.02113" lon="-1.83596">
        <ele>66</ele>
        <time>2020-12-17T13:40:02.000Z</time>
      </trkpt>
      <trkpt lat="47.02102" lon="-1.83589">
        <ele>66</ele>
        <time>2020-12-17T13:40:04.000Z</time>
      </trkpt>
      <trkpt lat="47.02091" lon="-1.83582">
        <ele>66</ele>
        <time>2020-12-17T13:40:06.000Z</time>
      </trkpt>
      <trkpt lat="47.0208" lon="-1.83576">
        <ele>65</ele>
        <time>2020-12-17T13:40:08.000Z</time>
      </trkpt>
      <trkpt lat="47.02068" lon="-1.83569">
        <ele>65</ele>
        <time>2020-12-17T13:40:10.000Z</time>
      </trkpt>
      <trkpt lat="47.02056" lon="-1.83562">
        <ele>65</ele>
        <time>2020-12-17T13:40:12.000Z</time>
      </trkpt>
      <trkpt lat="47.02044" lon="-1.83555">
        <ele>65</ele>
        <time>2020-12-17T13:40:14.000Z</time>
      </trkpt>
      <trkpt lat="47.02033" lon="-1.83548">
        <ele>64</ele>
        <time>2020-12-17T13:40:16.000Z</time>
      </trkpt>
      <trkpt lat="47.02021" lon="-1.8354">
        <ele>64</ele>
        <time>2020-12-17T13:40:18.000Z</time>
      </trkpt>
      <trkpt lat="47.02009" lon="-1.83532">
        <ele>64</ele>
        <time>2020-12-17T13:40:20.000Z</time>
      </trkpt>
      <trkpt lat="47.01998" lon="-1.83525">
        <ele>64</ele>
        <time>2020-12-17T13:40:22.000Z</time>
      </trkpt>
      <trkpt lat="47.01986" lon="-1.83518">
        <ele>64</ele>
        <time>2020-12-17T13:40:24.000Z</time>
      </trkpt>
      <trkpt lat="47.01975" lon="-1.83511">
        <ele>64</ele>
        <time>2020-12-17T13:40:26.000Z</time>
      </trkpt>
      <trkpt lat="47.01964" lon="-1.83504">
        <ele>63</ele>
        <time>2020-12-17T13:40:28.000Z</time>
      </trkpt>
      <trkpt lat="47.01952" lon="-1.83497">
        <ele>63</ele>
        <time>2020-12-17T13:40:30.000Z</time>
      </trkpt>
      <trkpt lat="47.01939" lon="-1.83494">
        <ele>62</ele>
        <time>2020-12-17T13:40:32.000Z</time>
      </trkpt>
      <trkpt lat="47.01926" lon="-1.83495">
        <ele>62</ele>
        <time>2020-12-17T13:40:34.000Z</time>
      </trkpt>
      <trkpt lat="47.01912" lon="-1.83499">
        <ele>62</ele>
        <time>2020-12-17T13:40:36.000Z</time>
      </trkpt>
      <trkpt lat="47.01898" lon="-1.83503">
        <ele>62</ele>
        <time>2020-12-17T13:40:38.000Z</time>
      </trkpt>
      <trkpt lat="47.01883" lon="-1.83506">
        <ele>62</ele>
        <time>2020-12-17T13:40:40.000Z</time>
      </trkpt>
      <trkpt lat="47.01869" lon="-1.8351">
        <ele>61</ele>
        <time>2020-12-17T13:40:42.000Z</time>
      </trkpt>
      <trkpt lat="47.01855" lon="-1.83513">
        <ele>61</ele>
        <time>2020-12-17T13:40:44.000Z</time>
      </trkpt>
      <trkpt lat="47.01841" lon="-1.83516">
        <ele>61</ele>
        <time>2020-12-17T13:40:46.000Z</time>
      </trkpt>
      <trkpt lat="47.01828" lon="-1.83519">
        <ele>60</ele>
        <time>2020-12-17T13:40:48.000Z</time>
      </trkpt>
      <trkpt lat="47.01814" lon="-1.83523">
        <ele>60</ele>
        <time>2020-12-17T13:40:50.000Z</time>
      </trkpt>
      <trkpt lat="47.018" lon="-1.83525">
        <ele>60</ele>
        <time>2020-12-17T13:40:52.000Z</time>
      </trkpt>
      <trkpt lat="47.01787" lon="-1.83528">
        <ele>60</ele>
        <time>2020-12-17T13:40:54.000Z</time>
      </trkpt>
      <trkpt lat="47.01774" lon="-1.83532">
        <ele>59</ele>
        <time>2020-12-17T13:40:56.000Z</time>
      </trkpt>
      <trkpt lat="47.01762" lon="-1.83538">
        <ele>59</ele>
        <time>2020-12-17T13:40:58.000Z</time>
      </trkpt>
      <trkpt lat="47.01751" lon="-1.83547">
        <ele>59</ele>
        <time>2020-12-17T13:41:00.000Z</time>
      </trkpt>
      <trkpt lat="47.01741" lon="-1.83559">
        <ele>59</ele>
        <time>2020-12-17T13:41:02.000Z</time>
      </trkpt>
      <trkpt lat="47.01733" lon="-1.83572">
        <ele>59</ele>
        <time>2020-12-17T13:41:04.000Z</time>
      </trkpt>
      <trkpt lat="47.01725" lon="-1.83586">
        <ele>59</ele>
        <time>2020-12-17T13:41:06.000Z</time>
      </trkpt>
      <trkpt lat="47.01718" lon="-1.83602">
        <ele>60</ele>
        <time>2020-12-17T13:41:08.000Z</time>
      </trkpt>
      <trkpt lat="47.01711" lon="-1.83617">
        <ele>60</ele>
        <time>2020-12-17T13:41:10.000Z</time>
      </trkpt>
      <trkpt lat="47.01703" lon="-1.83633">
        <ele>60</ele>
        <time>2020-12-17T13:41:12.000Z</time>
      </trkpt>
      <trkpt lat="47.01694" lon="-1.83648">
        <ele>61</ele>
        <time>2020-12-17T13:41:14.000Z</time>
      </trkpt>
      <trkpt lat="47.01686" lon="-1.83662">
        <ele>61</ele>
        <time>2020-12-17T13:41:16.000Z</time>
      </trkpt>
      <trkpt lat="47.01676" lon="-1.83676">
        <ele>61</ele>
        <time>2020-12-17T13:41:18.000Z</time>
      </trkpt>
      <trkpt lat="47.01667" lon="-1.83688">
        <ele>61</ele>
        <time>2020-12-17T13:41:20.000Z</time>
      </trkpt>
      <trkpt lat="47.01657" lon="-1.837">
        <ele>61</ele>
        <time>2020-12-17T13:41:22.000Z</time>
      </trkpt>
      <trkpt lat="47.01647" lon="-1.83712">
        <ele>61</ele>
        <time>2020-12-17T13:41:24.000Z</time>
      </trkpt>
      <trkpt lat="47.01637" lon="-1.83723">
        <ele>61</ele>
        <time>2020-12-17T13:41:26.000Z</time>
      </trkpt>
      <trkpt lat="47.01628" lon="-1.83734">
        <ele>61</ele>
        <time>2020-12-17T13:41:28.000Z</time>
      </trkpt>
      <trkpt lat="47.01618" lon="-1.83745">
        <ele>60</ele>
        <time>2020-12-17T13:41:30.000Z</time>
      </trkpt>
      <trkpt lat="47.01608" lon="-1.83757">
        <ele>60</ele>
        <time>2020-12-17T13:41:32.000Z</time>
      </trkpt>
      <trkpt lat="47.01598" lon="-1.83768">
        <ele>61</ele>
        <time>2020-12-17T13:41:34.000Z</time>
      </trkpt>
      <trkpt lat="47.01588" lon="-1.8378">
        <ele>60</ele>
        <time>2020-12-17T13:41:36.000Z</time>
      </trkpt>
      <trkpt lat="47.01578" lon="-1.83792">
        <ele>60</ele>
        <time>2020-12-17T13:41:38.000Z</time>
      </trkpt>
      <trkpt lat="47.01568" lon="-1.83805">
        <ele>59</ele>
        <time>2020-12-17T13:41:40.000Z</time>
      </trkpt>
      <trkpt lat="47.01559" lon="-1.83817">
        <ele>59</ele>
        <time>2020-12-17T13:41:42.000Z</time>
      </trkpt>
      <trkpt lat="47.01549" lon="-1.83829">
        <ele>59</ele>
        <time>2020-12-17T13:41:44.000Z</time>
      </trkpt>
      <trkpt lat="47.0154" lon="-1.83841">
        <ele>59</ele>
        <time>2020-12-17T13:41:46.000Z</time>
      </trkpt>
      <trkpt lat="47.01531" lon="-1.83853">
        <ele>59</ele>
        <time>2020-12-17T13:41:48.000Z</time>
      </trkpt>
      <trkpt lat="47.01522" lon="-1.83866">
        <ele>59</ele>
        <time>2020-12-17T13:41:50.000Z</time>
      </trkpt>
      <trkpt lat="47.01514" lon="-1.8388">
        <ele>58</ele>
        <time>2020-12-17T13:41:52.000Z</time>
      </trkpt>
      <trkpt lat="47.01506" lon="-1.83893">
        <ele>58</ele>
        <time>2020-12-17T13:41:54.000Z</time>
      </trkpt>
      <trkpt lat="47.01497" lon="-1.83906">
        <ele>58</ele>
        <time>2020-12-17T13:41:56.000Z</time>
      </trkpt>
      <trkpt lat="47.01489" lon="-1.83919">
        <ele>57</ele>
        <time>2020-12-17T13:41:58.000Z</time>
      </trkpt>
      <trkpt lat="47.01481" lon="-1.83931">
        <ele>57</ele>
        <time>2020-12-17T13:42:00.000Z</time>
      </trkpt>
      <trkpt lat="47.01472" lon="-1.83944">
        <ele>57</ele>
        <time>2020-12-17T13:42:02.000Z</time>
      </trkpt>
      <trkpt lat="47.01464" lon="-1.83957">
        <ele>57</ele>
        <time>2020-12-17T13:42:04.000Z</time>
      </trkpt>
      <trkpt lat="47.01456" lon="-1.83969">
        <ele>57</ele>
        <time>2020-12-17T13:42:06.000Z</time>
      </trkpt>
      <trkpt lat="47.01447" lon="-1.83983">
        <ele>57</ele>
        <time>2020-12-17T13:42:08.000Z</time>
      </trkpt>
      <trkpt lat="47.01438" lon="-1.83996">
        <ele>56</ele>
        <time>2020-12-17T13:42:10.000Z</time>
      </trkpt>
      <trkpt lat="47.01429" lon="-1.84009">
        <ele>56</ele>
        <time>2020-12-17T13:42:12.000Z</time>
      </trkpt>
      <trkpt lat="47.01421" lon="-1.84022">
        <ele>55</ele>
        <time>2020-12-17T13:42:14.000Z</time>
      </trkpt>
      <trkpt lat="47.01412" lon="-1.84035">
        <ele>55</ele>
        <time>2020-12-17T13:42:16.000Z</time>
      </trkpt>
      <trkpt lat="47.01403" lon="-1.84048">
        <ele>54</ele>
        <time>2020-12-17T13:42:18.000Z</time>
      </trkpt>
      <trkpt lat="47.01394" lon="-1.84061">
        <ele>53</ele>
        <time>2020-12-17T13:42:20.000Z</time>
      </trkpt>
      <trkpt lat="47.01385" lon="-1.84073">
        <ele>53</ele>
        <time>2020-12-17T13:42:22.000Z</time>
      </trkpt>
      <trkpt lat="47.01376" lon="-1.84086">
        <ele>53</ele>
        <time>2020-12-17T13:42:24.000Z</time>
      </trkpt>
      <trkpt lat="47.01366" lon="-1.84097">
        <ele>53</ele>
        <time>2020-12-17T13:42:26.000Z</time>
      </trkpt>
      <trkpt lat="47.01356" lon="-1.84109">
        <ele>53</ele>
        <time>2020-12-17T13:42:28.000Z</time>
      </trkpt>
      <trkpt lat="47.01347" lon="-1.84119">
        <ele>53</ele>
        <time>2020-12-17T13:42:30.000Z</time>
      </trkpt>
      <trkpt lat="47.01337" lon="-1.8413">
        <ele>53</ele>
        <time>2020-12-17T13:42:32.000Z</time>
      </trkpt>
      <trkpt lat="47.01327" lon="-1.84141">
        <ele>53</ele>
        <time>2020-12-17T13:42:34.000Z</time>
      </trkpt>
      <trkpt lat="47.01317" lon="-1.8415">
        <ele>53</ele>
        <time>2020-12-17T13:42:36.000Z</time>
      </trkpt>
      <trkpt lat="47.01308" lon="-1.8416">
        <ele>54</ele>
        <time>2020-12-17T13:42:38.000Z</time>
      </trkpt>
      <trkpt lat="47.01299" lon="-1.8417">
        <ele>54</ele>
        <time>2020-12-17T13:42:40.000Z</time>
      </trkpt>
      <trkpt lat="47.0129" lon="-1.84181">
        <ele>54</ele>
        <time>2020-12-17T13:42:42.000Z</time>
      </trkpt>
      <trkpt lat="47.01279" lon="-1.84194">
        <ele>54</ele>
        <time>2020-12-17T13:42:44.000Z</time>
      </trkpt>
      <trkpt lat="47.01269" lon="-1.84205">
        <ele>54</ele>
        <time>2020-12-17T13:42:46.000Z</time>
      </trkpt>
      <trkpt lat="47.01259" lon="-1.84216">
        <ele>54</ele>
        <time>2020-12-17T13:42:48.000Z</time>
      </trkpt>
      <trkpt lat="47.01248" lon="-1.84227">
        <ele>54</ele>
        <time>2020-12-17T13:42:50.000Z</time>
      </trkpt>
      <trkpt lat="47.01238" lon="-1.84239">
        <ele>53</ele>
        <time>2020-12-17T13:42:52.000Z</time>
      </trkpt>
      <trkpt lat="47.01228" lon="-1.8425">
        <ele>52</ele>
        <time>2020-12-17T13:42:54.000Z</time>
      </trkpt>
      <trkpt lat="47.01218" lon="-1.84261">
        <ele>52</ele>
        <time>2020-12-17T13:42:56.000Z</time>
      </trkpt>
      <trkpt lat="47.01208" lon="-1.84272">
        <ele>52</ele>
        <time>2020-12-17T13:42:58.000Z</time>
      </trkpt>
      <trkpt lat="47.01199" lon="-1.84284">
        <ele>52</ele>
        <time>2020-12-17T13:43:00.000Z</time>
      </trkpt>
      <trkpt lat="47.0119" lon="-1.84298">
        <ele>52</ele>
        <time>2020-12-17T13:43:02.000Z</time>
      </trkpt>
      <trkpt lat="47.01183" lon="-1.84312">
        <ele>51</ele>
        <time>2020-12-17T13:43:04.000Z</time>
      </trkpt>
      <trkpt lat="47.01178" lon="-1.84328">
        <ele>52</ele>
        <time>2020-12-17T13:43:06.000Z</time>
      </trkpt>
      <trkpt lat="47.01173" lon="-1.84343">
        <ele>52</ele>
        <time>2020-12-17T13:43:08.000Z</time>
      </trkpt>
      <trkpt lat="47.01169" lon="-1.84359">
        <ele>52</ele>
        <time>2020-12-17T13:43:10.000Z</time>
      </trkpt>
      <trkpt lat="47.01165" lon="-1.84374">
        <ele>52</ele>
        <time>2020-12-17T13:43:12.000Z</time>
      </trkpt>
      <trkpt lat="47.01161" lon="-1.8439">
        <ele>52</ele>
        <time>2020-12-17T13:43:14.000Z</time>
      </trkpt>
      <trkpt lat="47.01157" lon="-1.84406">
        <ele>52</ele>
        <time>2020-12-17T13:43:16.000Z</time>
      </trkpt>
      <trkpt lat="47.01153" lon="-1.84423">
        <ele>52</ele>
        <time>2020-12-17T13:43:18.000Z</time>
      </trkpt>
      <trkpt lat="47.01148" lon="-1.8444">
        <ele>52</ele>
        <time>2020-12-17T13:43:20.000Z</time>
      </trkpt>
      <trkpt lat="47.01144" lon="-1.84457">
        <ele>52</ele>
        <time>2020-12-17T13:43:22.000Z</time>
      </trkpt>
      <trkpt lat="47.0114" lon="-1.84472">
        <ele>52</ele>
        <time>2020-12-17T13:43:24.000Z</time>
      </trkpt>
      <trkpt lat="47.01136" lon="-1.84489">
        <ele>52</ele>
        <time>2020-12-17T13:43:26.000Z</time>
      </trkpt>
      <trkpt lat="47.01132" lon="-1.84504">
        <ele>52</ele>
        <time>2020-12-17T13:43:28.000Z</time>
      </trkpt>
      <trkpt lat="47.01127" lon="-1.8452">
        <ele>52</ele>
        <time>2020-12-17T13:43:30.000Z</time>
      </trkpt>
      <trkpt lat="47.01121" lon="-1.84536">
        <ele>52</ele>
        <time>2020-12-17T13:43:32.000Z</time>
      </trkpt>
      <trkpt lat="47.01114" lon="-1.84549">
        <ele>53</ele>
        <time>2020-12-17T13:43:34.000Z</time>
      </trkpt>
      <trkpt lat="47.01107" lon="-1.84561">
        <ele>52</ele>
        <time>2020-12-17T13:43:36.000Z</time>
      </trkpt>
      <trkpt lat="47.01097" lon="-1.84572">
        <ele>52</ele>
        <time>2020-12-17T13:43:38.000Z</time>
      </trkpt>
      <trkpt lat="47.01088" lon="-1.84582">
        <ele>52</ele>
        <time>2020-12-17T13:43:40.000Z</time>
      </trkpt>
      <trkpt lat="47.0108" lon="-1.84592">
        <ele>52</ele>
        <time>2020-12-17T13:43:42.000Z</time>
      </trkpt>
      <trkpt lat="47.01071" lon="-1.84603">
        <ele>52</ele>
        <time>2020-12-17T13:43:44.000Z</time>
      </trkpt>
      <trkpt lat="47.01062" lon="-1.84613">
        <ele>53</ele>
        <time>2020-12-17T13:43:46.000Z</time>
      </trkpt>
      <trkpt lat="47.01053" lon="-1.84623">
        <ele>53</ele>
        <time>2020-12-17T13:43:48.000Z</time>
      </trkpt>
      <trkpt lat="47.01044" lon="-1.84633">
        <ele>53</ele>
        <time>2020-12-17T13:43:50.000Z</time>
      </trkpt>
      <trkpt lat="47.01034" lon="-1.84643">
        <ele>53</ele>
        <time>2020-12-17T13:43:52.000Z</time>
      </trkpt>
      <trkpt lat="47.01024" lon="-1.84653">
        <ele>52</ele>
        <time>2020-12-17T13:43:54.000Z</time>
      </trkpt>
      <trkpt lat="47.01013" lon="-1.84662">
        <ele>53</ele>
        <time>2020-12-17T13:43:56.000Z</time>
      </trkpt>
      <trkpt lat="47.01002" lon="-1.8467">
        <ele>53</ele>
        <time>2020-12-17T13:43:58.000Z</time>
      </trkpt>
      <trkpt lat="47.00991" lon="-1.84676">
        <ele>53</ele>
        <time>2020-12-17T13:44:00.000Z</time>
      </trkpt>
      <trkpt lat="47.00981" lon="-1.84682">
        <ele>52</ele>
        <time>2020-12-17T13:44:02.000Z</time>
      </trkpt>
      <trkpt lat="47.0097" lon="-1.84688">
        <ele>52</ele>
        <time>2020-12-17T13:44:04.000Z</time>
      </trkpt>
      <trkpt lat="47.00959" lon="-1.84694">
        <ele>53</ele>
        <time>2020-12-17T13:44:06.000Z</time>
      </trkpt>
      <trkpt lat="47.00948" lon="-1.847">
        <ele>52</ele>
        <time>2020-12-17T13:44:08.000Z</time>
      </trkpt>
      <trkpt lat="47.00938" lon="-1.84705">
        <ele>53</ele>
        <time>2020-12-17T13:44:10.000Z</time>
      </trkpt>
      <trkpt lat="47.00928" lon="-1.84711">
        <ele>53</ele>
        <time>2020-12-17T13:44:12.000Z</time>
      </trkpt>
      <trkpt lat="47.00917" lon="-1.84716">
        <ele>53</ele>
        <time>2020-12-17T13:44:14.000Z</time>
      </trkpt>
      <trkpt lat="47.00908" lon="-1.84721">
        <ele>53</ele>
        <time>2020-12-17T13:44:16.000Z</time>
      </trkpt>
      <trkpt lat="47.00897" lon="-1.84729">
        <ele>53</ele>
        <time>2020-12-17T13:44:19.000Z</time>
      </trkpt>
      <trkpt lat="47.00887" lon="-1.84735">
        <ele>53</ele>
        <time>2020-12-17T13:44:36.000Z</time>
      </trkpt>
      <trkpt lat="47.00877" lon="-1.84747">
        <ele>52</ele>
        <time>2020-12-17T13:44:39.000Z</time>
      </trkpt>
      <trkpt lat="47.00869" lon="-1.84755">
        <ele>52</ele>
        <time>2020-12-17T13:44:41.000Z</time>
      </trkpt>
      <trkpt lat="47.00859" lon="-1.84762">
        <ele>52</ele>
        <time>2020-12-17T13:44:43.000Z</time>
      </trkpt>
      <trkpt lat="47.00848" lon="-1.8477">
        <ele>52</ele>
        <time>2020-12-17T13:44:45.000Z</time>
      </trkpt>
      <trkpt lat="47.00838" lon="-1.84776">
        <ele>52</ele>
        <time>2020-12-17T13:44:47.000Z</time>
      </trkpt>
      <trkpt lat="47.00828" lon="-1.84783">
        <ele>52</ele>
        <time>2020-12-17T13:44:49.000Z</time>
      </trkpt>
      <trkpt lat="47.00818" lon="-1.8479">
        <ele>52</ele>
        <time>2020-12-17T13:44:51.000Z</time>
      </trkpt>
      <trkpt lat="47.00808" lon="-1.84795">
        <ele>52</ele>
        <time>2020-12-17T13:44:53.000Z</time>
      </trkpt>
      <trkpt lat="47.00798" lon="-1.848">
        <ele>52</ele>
        <time>2020-12-17T13:44:55.000Z</time>
      </trkpt>
      <trkpt lat="47.00788" lon="-1.84805">
        <ele>52</ele>
        <time>2020-12-17T13:44:57.000Z</time>
      </trkpt>
      <trkpt lat="47.00778" lon="-1.84811">
        <ele>52</ele>
        <time>2020-12-17T13:44:59.000Z</time>
      </trkpt>
      <trkpt lat="47.00769" lon="-1.84816">
        <ele>52</ele>
        <time>2020-12-17T13:45:01.000Z</time>
      </trkpt>
      <trkpt lat="47.00759" lon="-1.84821">
        <ele>52</ele>
        <time>2020-12-17T13:45:03.000Z</time>
      </trkpt>
      <trkpt lat="47.00749" lon="-1.84826">
        <ele>52</ele>
        <time>2020-12-17T13:45:05.000Z</time>
      </trkpt>
      <trkpt lat="47.0074" lon="-1.84831">
        <ele>52</ele>
        <time>2020-12-17T13:45:07.000Z</time>
      </trkpt>
      <trkpt lat="47.0073" lon="-1.84836">
        <ele>52</ele>
        <time>2020-12-17T13:45:09.000Z</time>
      </trkpt>
      <trkpt lat="47.00719" lon="-1.84841">
        <ele>52</ele>
        <time>2020-12-17T13:45:11.000Z</time>
      </trkpt>
      <trkpt lat="47.00709" lon="-1.84847">
        <ele>52</ele>
        <time>2020-12-17T13:45:13.000Z</time>
      </trkpt>
      <trkpt lat="47.00699" lon="-1.84852">
        <ele>52</ele>
        <time>2020-12-17T13:45:15.000Z</time>
      </trkpt>
      <trkpt lat="47.00688" lon="-1.84857">
        <ele>52</ele>
        <time>2020-12-17T13:45:17.000Z</time>
      </trkpt>
      <trkpt lat="47.00678" lon="-1.84862">
        <ele>52</ele>
        <time>2020-12-17T13:45:19.000Z</time>
      </trkpt>
      <trkpt lat="47.00668" lon="-1.84868">
        <ele>52</ele>
        <time>2020-12-17T13:45:21.000Z</time>
      </trkpt>
      <trkpt lat="47.00659" lon="-1.84873">
        <ele>52</ele>
        <time>2020-12-17T13:45:23.000Z</time>
      </trkpt>
      <trkpt lat="47.00649" lon="-1.84878">
        <ele>52</ele>
        <time>2020-12-17T13:45:25.000Z</time>
      </trkpt>
      <trkpt lat="47.00638" lon="-1.84884">
        <ele>52</ele>
        <time>2020-12-17T13:45:27.000Z</time>
      </trkpt>
      <trkpt lat="47.00629" lon="-1.84891">
        <ele>52</ele>
        <time>2020-12-17T13:45:29.000Z</time>
      </trkpt>
      <trkpt lat="47.00619" lon="-1.84899">
        <ele>52</ele>
        <time>2020-12-17T13:45:31.000Z</time>
      </trkpt>
      <trkpt lat="47.00611" lon="-1.84906">
        <ele>51</ele>
        <time>2020-12-17T13:45:33.000Z</time>
      </trkpt>
      <trkpt lat="47.00602" lon="-1.84915">
        <ele>51</ele>
        <time>2020-12-17T13:45:35.000Z</time>
      </trkpt>
      <trkpt lat="47.00594" lon="-1.84925">
        <ele>51</ele>
        <time>2020-12-17T13:45:37.000Z</time>
      </trkpt>
      <trkpt lat="47.00586" lon="-1.84934">
        <ele>52</ele>
        <time>2020-12-17T13:45:39.000Z</time>
      </trkpt>
      <trkpt lat="47.00578" lon="-1.84944">
        <ele>52</ele>
        <time>2020-12-17T13:45:41.000Z</time>
      </trkpt>
      <trkpt lat="47.0057" lon="-1.84955">
        <ele>52</ele>
        <time>2020-12-17T13:45:43.000Z</time>
      </trkpt>
      <trkpt lat="47.00562" lon="-1.84966">
        <ele>52</ele>
        <time>2020-12-17T13:45:45.000Z</time>
      </trkpt>
      <trkpt lat="47.00554" lon="-1.84977">
        <ele>52</ele>
        <time>2020-12-17T13:45:47.000Z</time>
      </trkpt>
      <trkpt lat="47.00546" lon="-1.84988">
        <ele>52</ele>
        <time>2020-12-17T13:45:49.000Z</time>
      </trkpt>
      <trkpt lat="47.00538" lon="-1.84999">
        <ele>52</ele>
        <time>2020-12-17T13:45:51.000Z</time>
      </trkpt>
      <trkpt lat="47.00529" lon="-1.85009">
        <ele>52</ele>
        <time>2020-12-17T13:45:53.000Z</time>
      </trkpt>
      <trkpt lat="47.00521" lon="-1.8502">
        <ele>52</ele>
        <time>2020-12-17T13:45:55.000Z</time>
      </trkpt>
      <trkpt lat="47.00514" lon="-1.8503">
        <ele>52</ele>
        <time>2020-12-17T13:45:57.000Z</time>
      </trkpt>
      <trkpt lat="47.00505" lon="-1.8504">
        <ele>52</ele>
        <time>2020-12-17T13:45:59.000Z</time>
      </trkpt>
      <trkpt lat="47.00497" lon="-1.8505">
        <ele>52</ele>
        <time>2020-12-17T13:46:01.000Z</time>
      </trkpt>
      <trkpt lat="47.00488" lon="-1.8506">
        <ele>53</ele>
        <time>2020-12-17T13:46:03.000Z</time>
      </trkpt>
      <trkpt lat="47.00479" lon="-1.85069">
        <ele>53</ele>
        <time>2020-12-17T13:46:05.000Z</time>
      </trkpt>
      <trkpt lat="47.00471" lon="-1.85077">
        <ele>52</ele>
        <time>2020-12-17T13:46:07.000Z</time>
      </trkpt>
      <trkpt lat="47.00462" lon="-1.85084">
        <ele>52</ele>
        <time>2020-12-17T13:46:09.000Z</time>
      </trkpt>
      <trkpt lat="47.00453" lon="-1.85091">
        <ele>52</ele>
        <time>2020-12-17T13:46:11.000Z</time>
      </trkpt>
      <trkpt lat="47.00444" lon="-1.85099">
        <ele>51</ele>
        <time>2020-12-17T13:46:13.000Z</time>
      </trkpt>
      <trkpt lat="47.00435" lon="-1.85105">
        <ele>52</ele>
        <time>2020-12-17T13:46:15.000Z</time>
      </trkpt>
      <trkpt lat="47.00426" lon="-1.85113">
        <ele>51</ele>
        <time>2020-12-17T13:46:17.000Z</time>
      </trkpt>
      <trkpt lat="47.00417" lon="-1.8512">
        <ele>52</ele>
        <time>2020-12-17T13:46:19.000Z</time>
      </trkpt>
      <trkpt lat="47.00408" lon="-1.85127">
        <ele>52</ele>
        <time>2020-12-17T13:46:21.000Z</time>
      </trkpt>
      <trkpt lat="47.00399" lon="-1.85135">
        <ele>52</ele>
        <time>2020-12-17T13:46:23.000Z</time>
      </trkpt>
      <trkpt lat="47.0039" lon="-1.85142">
        <ele>52</ele>
        <time>2020-12-17T13:46:25.000Z</time>
      </trkpt>
      <trkpt lat="47.00381" lon="-1.8515">
        <ele>52</ele>
        <time>2020-12-17T13:46:27.000Z</time>
      </trkpt>
      <trkpt lat="47.00372" lon="-1.85158">
        <ele>52</ele>
        <time>2020-12-17T13:46:29.000Z</time>
      </trkpt>
      <trkpt lat="47.00364" lon="-1.85165">
        <ele>52</ele>
        <time>2020-12-17T13:46:31.000Z</time>
      </trkpt>
      <trkpt lat="47.00355" lon="-1.85173">
        <ele>52</ele>
        <time>2020-12-17T13:46:33.000Z</time>
      </trkpt>
      <trkpt lat="47.00346" lon="-1.85181">
        <ele>52</ele>
        <time>2020-12-17T13:46:35.000Z</time>
      </trkpt>
      <trkpt lat="47.00337" lon="-1.85188">
        <ele>52</ele>
        <time>2020-12-17T13:46:37.000Z</time>
      </trkpt>
      <trkpt lat="47.00327" lon="-1.85196">
        <ele>52</ele>
        <time>2020-12-17T13:46:39.000Z</time>
      </trkpt>
      <trkpt lat="47.00318" lon="-1.85204">
        <ele>52</ele>
        <time>2020-12-17T13:46:41.000Z</time>
      </trkpt>
      <trkpt lat="47.00309" lon="-1.85211">
        <ele>53</ele>
        <time>2020-12-17T13:46:43.000Z</time>
      </trkpt>
      <trkpt lat="47.00299" lon="-1.85219">
        <ele>53</ele>
        <time>2020-12-17T13:46:45.000Z</time>
      </trkpt>
      <trkpt lat="47.0029" lon="-1.85226">
        <ele>53</ele>
        <time>2020-12-17T13:46:47.000Z</time>
      </trkpt>
      <trkpt lat="47.00282" lon="-1.85234">
        <ele>52</ele>
        <time>2020-12-17T13:46:49.000Z</time>
      </trkpt>
      <trkpt lat="47.00273" lon="-1.85241">
        <ele>52</ele>
        <time>2020-12-17T13:46:51.000Z</time>
      </trkpt>
      <trkpt lat="47.00264" lon="-1.85248">
        <ele>52</ele>
        <time>2020-12-17T13:46:53.000Z</time>
      </trkpt>
      <trkpt lat="47.00255" lon="-1.85257">
        <ele>53</ele>
        <time>2020-12-17T13:46:55.000Z</time>
      </trkpt>
      <trkpt lat="47.00246" lon="-1.85265">
        <ele>52</ele>
        <time>2020-12-17T13:46:57.000Z</time>
      </trkpt>
      <trkpt lat="47.00238" lon="-1.85274">
        <ele>53</ele>
        <time>2020-12-17T13:46:59.000Z</time>
      </trkpt>
      <trkpt lat="47.0023" lon="-1.85283">
        <ele>52</ele>
        <time>2020-12-17T13:47:01.000Z</time>
      </trkpt>
      <trkpt lat="47.00222" lon="-1.85293">
        <ele>52</ele>
        <time>2020-12-17T13:47:03.000Z</time>
      </trkpt>
      <trkpt lat="47.00214" lon="-1.85305">
        <ele>51</ele>
        <time>2020-12-17T13:47:05.000Z</time>
      </trkpt>
      <trkpt lat="47.00207" lon="-1.85317">
        <ele>52</ele>
        <time>2020-12-17T13:47:07.000Z</time>
      </trkpt>
      <trkpt lat="47.00201" lon="-1.85329">
        <ele>52</ele>
        <time>2020-12-17T13:47:09.000Z</time>
      </trkpt>
      <trkpt lat="47.00195" lon="-1.85342">
        <ele>52</ele>
        <time>2020-12-17T13:47:11.000Z</time>
      </trkpt>
      <trkpt lat="47.00189" lon="-1.85355">
        <ele>52</ele>
        <time>2020-12-17T13:47:13.000Z</time>
      </trkpt>
      <trkpt lat="47.00183" lon="-1.85367">
        <ele>52</ele>
        <time>2020-12-17T13:47:15.000Z</time>
      </trkpt>
      <trkpt lat="47.00177" lon="-1.8538">
        <ele>52</ele>
        <time>2020-12-17T13:47:17.000Z</time>
      </trkpt>
      <trkpt lat="47.00171" lon="-1.85392">
        <ele>51</ele>
        <time>2020-12-17T13:47:19.000Z</time>
      </trkpt>
      <trkpt lat="47.00164" lon="-1.85404">
        <ele>51</ele>
        <time>2020-12-17T13:47:21.000Z</time>
      </trkpt>
      <trkpt lat="47.00158" lon="-1.85416">
        <ele>52</ele>
        <time>2020-12-17T13:47:23.000Z</time>
      </trkpt>
      <trkpt lat="47.0015" lon="-1.85427">
        <ele>51</ele>
        <time>2020-12-17T13:47:25.000Z</time>
      </trkpt>
      <trkpt lat="47.00142" lon="-1.85436">
        <ele>51</ele>
        <time>2020-12-17T13:47:27.000Z</time>
      </trkpt>
      <trkpt lat="47.00133" lon="-1.85445">
        <ele>51</ele>
        <time>2020-12-17T13:47:29.000Z</time>
      </trkpt>
      <trkpt lat="47.00123" lon="-1.8545">
        <ele>51</ele>
        <time>2020-12-17T13:47:31.000Z</time>
      </trkpt>
      <trkpt lat="47.00112" lon="-1.85452">
        <ele>51</ele>
        <time>2020-12-17T13:47:33.000Z</time>
      </trkpt>
      <trkpt lat="47.00101" lon="-1.85447">
        <ele>51</ele>
        <time>2020-12-17T13:47:35.000Z</time>
      </trkpt>
      <trkpt lat="47.00091" lon="-1.85439">
        <ele>51</ele>
        <time>2020-12-17T13:47:37.000Z</time>
      </trkpt>
      <trkpt lat="47.00083" lon="-1.8543">
        <ele>51</ele>
        <time>2020-12-17T13:47:39.000Z</time>
      </trkpt>
      <trkpt lat="47.00075" lon="-1.85419">
        <ele>51</ele>
        <time>2020-12-17T13:47:41.000Z</time>
      </trkpt>
      <trkpt lat="47.00066" lon="-1.85407">
        <ele>51</ele>
        <time>2020-12-17T13:47:43.000Z</time>
      </trkpt>
      <trkpt lat="47.00057" lon="-1.85396">
        <ele>50</ele>
        <time>2020-12-17T13:47:45.000Z</time>
      </trkpt>
      <trkpt lat="47.00049" lon="-1.85386">
        <ele>50</ele>
        <time>2020-12-17T13:47:47.000Z</time>
      </trkpt>
      <trkpt lat="47.0004" lon="-1.85377">
        <ele>49</ele>
        <time>2020-12-17T13:47:49.000Z</time>
      </trkpt>
      <trkpt lat="47.00029" lon="-1.85371">
        <ele>50</ele>
        <time>2020-12-17T13:47:51.000Z</time>
      </trkpt>
      <trkpt lat="47.00017" lon="-1.85367">
        <ele>50</ele>
        <time>2020-12-17T13:47:53.000Z</time>
      </trkpt>
      <trkpt lat="47.00006" lon="-1.85366">
        <ele>49</ele>
        <time>2020-12-17T13:47:55.000Z</time>
      </trkpt>
      <trkpt lat="46.99995" lon="-1.85364">
        <ele>48</ele>
        <time>2020-12-17T13:47:57.000Z</time>
      </trkpt>
      <trkpt lat="46.99984" lon="-1.8536">
        <ele>48</ele>
        <time>2020-12-17T13:47:59.000Z</time>
      </trkpt>
      <trkpt lat="46.99977" lon="-1.8535">
        <ele>49</ele>
        <time>2020-12-17T13:48:01.000Z</time>
      </trkpt>
      <trkpt lat="46.9997" lon="-1.85337">
        <ele>49</ele>
        <time>2020-12-17T13:48:03.000Z</time>
      </trkpt>
      <trkpt lat="46.99963" lon="-1.85323">
        <ele>50</ele>
        <time>2020-12-17T13:48:05.000Z</time>
      </trkpt>
      <trkpt lat="46.99956" lon="-1.85309">
        <ele>49</ele>
        <time>2020-12-17T13:48:07.000Z</time>
      </trkpt>
      <trkpt lat="46.99948" lon="-1.85294">
        <ele>49</ele>
        <time>2020-12-17T13:48:09.000Z</time>
      </trkpt>
      <trkpt lat="46.99941" lon="-1.8528">
        <ele>48</ele>
        <time>2020-12-17T13:48:11.000Z</time>
      </trkpt>
      <trkpt lat="46.99934" lon="-1.85265">
        <ele>48</ele>
        <time>2020-12-17T13:48:13.000Z</time>
      </trkpt>
      <trkpt lat="46.99927" lon="-1.85251">
        <ele>48</ele>
        <time>2020-12-17T13:48:15.000Z</time>
      </trkpt>
      <trkpt lat="46.99922" lon="-1.85235">
        <ele>48</ele>
        <time>2020-12-17T13:48:17.000Z</time>
      </trkpt>
      <trkpt lat="46.99919" lon="-1.85218">
        <ele>48</ele>
        <time>2020-12-17T13:48:19.000Z</time>
      </trkpt>
      <trkpt lat="46.99915" lon="-1.85201">
        <ele>48</ele>
        <time>2020-12-17T13:48:21.000Z</time>
      </trkpt>
      <trkpt lat="46.99913" lon="-1.85184">
        <ele>48</ele>
        <time>2020-12-17T13:48:23.000Z</time>
      </trkpt>
      <trkpt lat="46.9991" lon="-1.85166">
        <ele>48</ele>
        <time>2020-12-17T13:48:25.000Z</time>
      </trkpt>
      <trkpt lat="46.99908" lon="-1.85148">
        <ele>48</ele>
        <time>2020-12-17T13:48:27.000Z</time>
      </trkpt>
      <trkpt lat="46.99906" lon="-1.85131">
        <ele>49</ele>
        <time>2020-12-17T13:48:29.000Z</time>
      </trkpt>
      <trkpt lat="46.99904" lon="-1.85115">
        <ele>49</ele>
        <time>2020-12-17T13:48:31.000Z</time>
      </trkpt>
      <trkpt lat="46.99902" lon="-1.85098">
        <ele>49</ele>
        <time>2020-12-17T13:48:33.000Z</time>
      </trkpt>
      <trkpt lat="46.99901" lon="-1.85082">
        <ele>49</ele>
        <time>2020-12-17T13:48:35.000Z</time>
      </trkpt>
      <trkpt lat="46.999" lon="-1.85065">
        <ele>49</ele>
        <time>2020-12-17T13:48:37.000Z</time>
      </trkpt>
      <trkpt lat="46.99899" lon="-1.85047">
        <ele>48</ele>
        <time>2020-12-17T13:48:39.000Z</time>
      </trkpt>
      <trkpt lat="46.99898" lon="-1.8503">
        <ele>48</ele>
        <time>2020-12-17T13:48:41.000Z</time>
      </trkpt>
      <trkpt lat="46.99897" lon="-1.85014">
        <ele>49</ele>
        <time>2020-12-17T13:48:43.000Z</time>
      </trkpt>
      <trkpt lat="46.99896" lon="-1.84998">
        <ele>49</ele>
        <time>2020-12-17T13:48:45.000Z</time>
      </trkpt>
      <trkpt lat="46.99896" lon="-1.84981">
        <ele>49</ele>
        <time>2020-12-17T13:48:47.000Z</time>
      </trkpt>
      <trkpt lat="46.99895" lon="-1.84964">
        <ele>49</ele>
        <time>2020-12-17T13:48:49.000Z</time>
      </trkpt>
      <trkpt lat="46.99893" lon="-1.84948">
        <ele>49</ele>
        <time>2020-12-17T13:48:51.000Z</time>
      </trkpt>
      <trkpt lat="46.99892" lon="-1.84932">
        <ele>49</ele>
        <time>2020-12-17T13:48:53.000Z</time>
      </trkpt>
      <trkpt lat="46.99892" lon="-1.84915">
        <ele>50</ele>
        <time>2020-12-17T13:48:55.000Z</time>
      </trkpt>
      <trkpt lat="46.99891" lon="-1.84899">
        <ele>49</ele>
        <time>2020-12-17T13:48:57.000Z</time>
      </trkpt>
      <trkpt lat="46.99889" lon="-1.84882">
        <ele>50</ele>
        <time>2020-12-17T13:48:59.000Z</time>
      </trkpt>
      <trkpt lat="46.99888" lon="-1.84865">
        <ele>50</ele>
        <time>2020-12-17T13:49:01.000Z</time>
      </trkpt>
      <trkpt lat="46.99886" lon="-1.84849">
        <ele>50</ele>
        <time>2020-12-17T13:49:03.000Z</time>
      </trkpt>
      <trkpt lat="46.99882" lon="-1.84832">
        <ele>50</ele>
        <time>2020-12-17T13:49:05.000Z</time>
      </trkpt>
      <trkpt lat="46.99879" lon="-1.84815">
        <ele>50</ele>
        <time>2020-12-17T13:49:07.000Z</time>
      </trkpt>
      <trkpt lat="46.99875" lon="-1.84799">
        <ele>50</ele>
        <time>2020-12-17T13:49:09.000Z</time>
      </trkpt>
      <trkpt lat="46.99871" lon="-1.84783">
        <ele>50</ele>
        <time>2020-12-17T13:49:11.000Z</time>
      </trkpt>
      <trkpt lat="46.99865" lon="-1.84768">
        <ele>50</ele>
        <time>2020-12-17T13:49:13.000Z</time>
      </trkpt>
      <trkpt lat="46.99859" lon="-1.84753">
        <ele>50</ele>
        <time>2020-12-17T13:49:15.000Z</time>
      </trkpt>
      <trkpt lat="46.99854" lon="-1.84738">
        <ele>50</ele>
        <time>2020-12-17T13:49:17.000Z</time>
      </trkpt>
      <trkpt lat="46.99847" lon="-1.84722">
        <ele>51</ele>
        <time>2020-12-17T13:49:19.000Z</time>
      </trkpt>
      <trkpt lat="46.99841" lon="-1.84708">
        <ele>50</ele>
        <time>2020-12-17T13:49:21.000Z</time>
      </trkpt>
      <trkpt lat="46.99836" lon="-1.84692">
        <ele>50</ele>
        <time>2020-12-17T13:49:23.000Z</time>
      </trkpt>
      <trkpt lat="46.9983" lon="-1.84676">
        <ele>50</ele>
        <time>2020-12-17T13:49:25.000Z</time>
      </trkpt>
      <trkpt lat="46.99824" lon="-1.8466">
        <ele>50</ele>
        <time>2020-12-17T13:49:27.000Z</time>
      </trkpt>
      <trkpt lat="46.99818" lon="-1.84644">
        <ele>50</ele>
        <time>2020-12-17T13:49:29.000Z</time>
      </trkpt>
      <trkpt lat="46.99814" lon="-1.84627">
        <ele>50</ele>
        <time>2020-12-17T13:49:31.000Z</time>
      </trkpt>
      <trkpt lat="46.99809" lon="-1.8461">
        <ele>50</ele>
        <time>2020-12-17T13:49:33.000Z</time>
      </trkpt>
      <trkpt lat="46.99805" lon="-1.84592">
        <ele>50</ele>
        <time>2020-12-17T13:49:35.000Z</time>
      </trkpt>
      <trkpt lat="46.99802" lon="-1.84574">
        <ele>50</ele>
        <time>2020-12-17T13:49:37.000Z</time>
      </trkpt>
      <trkpt lat="46.99798" lon="-1.84556">
        <ele>50</ele>
        <time>2020-12-17T13:49:39.000Z</time>
      </trkpt>
      <trkpt lat="46.99794" lon="-1.84538">
        <ele>50</ele>
        <time>2020-12-17T13:49:41.000Z</time>
      </trkpt>
      <trkpt lat="46.99791" lon="-1.8452">
        <ele>50</ele>
        <time>2020-12-17T13:49:43.000Z</time>
      </trkpt>
      <trkpt lat="46.99788" lon="-1.84501">
        <ele>50</ele>
        <time>2020-12-17T13:49:45.000Z</time>
      </trkpt>
      <trkpt lat="46.99785" lon="-1.84482">
        <ele>49</ele>
        <time>2020-12-17T13:49:47.000Z</time>
      </trkpt>
      <trkpt lat="46.99781" lon="-1.84463">
        <ele>49</ele>
        <time>2020-12-17T13:49:49.000Z</time>
      </trkpt>
      <trkpt lat="46.99777" lon="-1.84444">
        <ele>49</ele>
        <time>2020-12-17T13:49:51.000Z</time>
      </trkpt>
      <trkpt lat="46.99774" lon="-1.84426">
        <ele>49</ele>
        <time>2020-12-17T13:49:53.000Z</time>
      </trkpt>
      <trkpt lat="46.99771" lon="-1.84407">
        <ele>49</ele>
        <time>2020-12-17T13:49:55.000Z</time>
      </trkpt>
      <trkpt lat="46.99768" lon="-1.84389">
        <ele>48</ele>
        <time>2020-12-17T13:49:57.000Z</time>
      </trkpt>
      <trkpt lat="46.99764" lon="-1.84371">
        <ele>48</ele>
        <time>2020-12-17T13:49:59.000Z</time>
      </trkpt>
      <trkpt lat="46.99761" lon="-1.84352">
        <ele>48</ele>
        <time>2020-12-17T13:50:01.000Z</time>
      </trkpt>
      <trkpt lat="46.99758" lon="-1.84333">
        <ele>48</ele>
        <time>2020-12-17T13:50:03.000Z</time>
      </trkpt>
      <trkpt lat="46.99755" lon="-1.84314">
        <ele>48</ele>
        <time>2020-12-17T13:50:05.000Z</time>
      </trkpt>
      <trkpt lat="46.99753" lon="-1.84295">
        <ele>48</ele>
        <time>2020-12-17T13:50:07.000Z</time>
      </trkpt>
      <trkpt lat="46.99751" lon="-1.84276">
        <ele>48</ele>
        <time>2020-12-17T13:50:09.000Z</time>
      </trkpt>
      <trkpt lat="46.99749" lon="-1.84257">
        <ele>48</ele>
        <time>2020-12-17T13:50:11.000Z</time>
      </trkpt>
      <trkpt lat="46.99748" lon="-1.84239">
        <ele>48</ele>
        <time>2020-12-17T13:50:13.000Z</time>
      </trkpt>
      <trkpt lat="46.99745" lon="-1.84219">
        <ele>48</ele>
        <time>2020-12-17T13:50:15.000Z</time>
      </trkpt>
      <trkpt lat="46.99741" lon="-1.84202">
        <ele>48</ele>
        <time>2020-12-17T13:50:17.000Z</time>
      </trkpt>
      <trkpt lat="46.99734" lon="-1.84187">
        <ele>48</ele>
        <time>2020-12-17T13:50:19.000Z</time>
      </trkpt>
      <trkpt lat="46.99723" lon="-1.84178">
        <ele>48</ele>
        <time>2020-12-17T13:50:21.000Z</time>
      </trkpt>
      <trkpt lat="46.99712" lon="-1.84174">
        <ele>48</ele>
        <time>2020-12-17T13:50:23.000Z</time>
      </trkpt>
      <trkpt lat="46.997" lon="-1.84168">
        <ele>48</ele>
        <time>2020-12-17T13:50:25.000Z</time>
      </trkpt>
      <trkpt lat="46.99688" lon="-1.8416">
        <ele>48</ele>
        <time>2020-12-17T13:50:27.000Z</time>
      </trkpt>
      <trkpt lat="46.99677" lon="-1.8415">
        <ele>49</ele>
        <time>2020-12-17T13:50:29.000Z</time>
      </trkpt>
      <trkpt lat="46.99666" lon="-1.84139">
        <ele>49</ele>
        <time>2020-12-17T13:50:31.000Z</time>
      </trkpt>
      <trkpt lat="46.99657" lon="-1.84128">
        <ele>49</ele>
        <time>2020-12-17T13:50:33.000Z</time>
      </trkpt>
      <trkpt lat="46.99649" lon="-1.84115">
        <ele>50</ele>
        <time>2020-12-17T13:50:35.000Z</time>
      </trkpt>
      <trkpt lat="46.99641" lon="-1.84101">
        <ele>50</ele>
        <time>2020-12-17T13:50:37.000Z</time>
      </trkpt>
      <trkpt lat="46.99634" lon="-1.84087">
        <ele>50</ele>
        <time>2020-12-17T13:50:39.000Z</time>
      </trkpt>
      <trkpt lat="46.99628" lon="-1.84072">
        <ele>50</ele>
        <time>2020-12-17T13:50:41.000Z</time>
      </trkpt>
      <trkpt lat="46.99623" lon="-1.84056">
        <ele>50</ele>
        <time>2020-12-17T13:50:43.000Z</time>
      </trkpt>
      <trkpt lat="46.99619" lon="-1.8404">
        <ele>50</ele>
        <time>2020-12-17T13:50:45.000Z</time>
      </trkpt>
      <trkpt lat="46.99616" lon="-1.84024">
        <ele>50</ele>
        <time>2020-12-17T13:50:47.000Z</time>
      </trkpt>
      <trkpt lat="46.99613" lon="-1.84006">
        <ele>50</ele>
        <time>2020-12-17T13:50:49.000Z</time>
      </trkpt>
      <trkpt lat="46.9961" lon="-1.83989">
        <ele>50</ele>
        <time>2020-12-17T13:50:51.000Z</time>
      </trkpt>
      <trkpt lat="46.99607" lon="-1.83972">
        <ele>50</ele>
        <time>2020-12-17T13:50:53.000Z</time>
      </trkpt>
      <trkpt lat="46.99603" lon="-1.83955">
        <ele>50</ele>
        <time>2020-12-17T13:50:55.000Z</time>
      </trkpt>
      <trkpt lat="46.99596" lon="-1.83939">
        <ele>49</ele>
        <time>2020-12-17T13:50:57.000Z</time>
      </trkpt>
      <trkpt lat="46.99587" lon="-1.83927">
        <ele>49</ele>
        <time>2020-12-17T13:50:59.000Z</time>
      </trkpt>
      <trkpt lat="46.99577" lon="-1.83919">
        <ele>49</ele>
        <time>2020-12-17T13:51:01.000Z</time>
      </trkpt>
      <trkpt lat="46.99566" lon="-1.83912">
        <ele>48</ele>
        <time>2020-12-17T13:51:03.000Z</time>
      </trkpt>
      <trkpt lat="46.99554" lon="-1.83906">
        <ele>49</ele>
        <time>2020-12-17T13:51:05.000Z</time>
      </trkpt>
      <trkpt lat="46.99543" lon="-1.839">
        <ele>49</ele>
        <time>2020-12-17T13:51:07.000Z</time>
      </trkpt>
      <trkpt lat="46.99532" lon="-1.83894">
        <ele>49</ele>
        <time>2020-12-17T13:51:09.000Z</time>
      </trkpt>
      <trkpt lat="46.99522" lon="-1.83888">
        <ele>49</ele>
        <time>2020-12-17T13:51:11.000Z</time>
      </trkpt>
      <trkpt lat="46.99511" lon="-1.83882">
        <ele>49</ele>
        <time>2020-12-17T13:51:13.000Z</time>
      </trkpt>
      <trkpt lat="46.995" lon="-1.83875">
        <ele>48</ele>
        <time>2020-12-17T13:51:15.000Z</time>
      </trkpt>
      <trkpt lat="46.99489" lon="-1.83866">
        <ele>49</ele>
        <time>2020-12-17T13:51:17.000Z</time>
      </trkpt>
      <trkpt lat="46.99479" lon="-1.83854">
        <ele>49</ele>
        <time>2020-12-17T13:51:19.000Z</time>
      </trkpt>
      <trkpt lat="46.99471" lon="-1.83839">
        <ele>49</ele>
        <time>2020-12-17T13:51:21.000Z</time>
      </trkpt>
      <trkpt lat="46.99465" lon="-1.83825">
        <ele>49</ele>
        <time>2020-12-17T13:51:23.000Z</time>
      </trkpt>
      <trkpt lat="46.99458" lon="-1.8381">
        <ele>49</ele>
        <time>2020-12-17T13:51:25.000Z</time>
      </trkpt>
      <trkpt lat="46.99451" lon="-1.83795">
        <ele>49</ele>
        <time>2020-12-17T13:51:27.000Z</time>
      </trkpt>
      <trkpt lat="46.99444" lon="-1.83783">
        <ele>49</ele>
        <time>2020-12-17T13:51:29.000Z</time>
      </trkpt>
      <trkpt lat="46.99434" lon="-1.83772">
        <ele>49</ele>
        <time>2020-12-17T13:51:31.000Z</time>
      </trkpt>
      <trkpt lat="46.99424" lon="-1.83766">
        <ele>49</ele>
        <time>2020-12-17T13:51:33.000Z</time>
      </trkpt>
      <trkpt lat="46.99414" lon="-1.8376">
        <ele>49</ele>
        <time>2020-12-17T13:51:35.000Z</time>
      </trkpt>
      <trkpt lat="46.99405" lon="-1.83755">
        <ele>49</ele>
        <time>2020-12-17T13:51:37.000Z</time>
      </trkpt>
      <trkpt lat="46.99395" lon="-1.83749">
        <ele>50</ele>
        <time>2020-12-17T13:51:39.000Z</time>
      </trkpt>
      <trkpt lat="46.99386" lon="-1.83743">
        <ele>50</ele>
        <time>2020-12-17T13:51:41.000Z</time>
      </trkpt>
      <trkpt lat="46.99376" lon="-1.83737">
        <ele>50</ele>
        <time>2020-12-17T13:51:43.000Z</time>
      </trkpt>
      <trkpt lat="46.99366" lon="-1.83731">
        <ele>50</ele>
        <time>2020-12-17T13:51:45.000Z</time>
      </trkpt>
      <trkpt lat="46.99356" lon="-1.83725">
        <ele>50</ele>
        <time>2020-12-17T13:51:47.000Z</time>
      </trkpt>
      <trkpt lat="46.99346" lon="-1.83719">
        <ele>50</ele>
        <time>2020-12-17T13:51:49.000Z</time>
      </trkpt>
      <trkpt lat="46.99336" lon="-1.83714">
        <ele>50</ele>
        <time>2020-12-17T13:51:51.000Z</time>
      </trkpt>
      <trkpt lat="46.99326" lon="-1.83708">
        <ele>51</ele>
        <time>2020-12-17T13:51:53.000Z</time>
      </trkpt>
      <trkpt lat="46.99316" lon="-1.83701">
        <ele>51</ele>
        <time>2020-12-17T13:51:55.000Z</time>
      </trkpt>
      <trkpt lat="46.99306" lon="-1.83693">
        <ele>51</ele>
        <time>2020-12-17T13:51:57.000Z</time>
      </trkpt>
      <trkpt lat="46.99297" lon="-1.83685">
        <ele>51</ele>
        <time>2020-12-17T13:51:59.000Z</time>
      </trkpt>
      <trkpt lat="46.99288" lon="-1.83677">
        <ele>51</ele>
        <time>2020-12-17T13:52:01.000Z</time>
      </trkpt>
      <trkpt lat="46.9928" lon="-1.83668">
        <ele>52</ele>
        <time>2020-12-17T13:52:03.000Z</time>
      </trkpt>
      <trkpt lat="46.99271" lon="-1.83659">
        <ele>52</ele>
        <time>2020-12-17T13:52:05.000Z</time>
      </trkpt>
      <trkpt lat="46.99263" lon="-1.83649">
        <ele>52</ele>
        <time>2020-12-17T13:52:07.000Z</time>
      </trkpt>
      <trkpt lat="46.99255" lon="-1.83639">
        <ele>53</ele>
        <time>2020-12-17T13:52:09.000Z</time>
      </trkpt>
      <trkpt lat="46.99247" lon="-1.83629">
        <ele>52</ele>
        <time>2020-12-17T13:52:11.000Z</time>
      </trkpt>
      <trkpt lat="46.99238" lon="-1.83619">
        <ele>53</ele>
        <time>2020-12-17T13:52:13.000Z</time>
      </trkpt>
      <trkpt lat="46.9923" lon="-1.83608">
        <ele>53</ele>
        <time>2020-12-17T13:52:15.000Z</time>
      </trkpt>
      <trkpt lat="46.99222" lon="-1.83598">
        <ele>52</ele>
        <time>2020-12-17T13:52:17.000Z</time>
      </trkpt>
      <trkpt lat="46.99213" lon="-1.83588">
        <ele>52</ele>
        <time>2020-12-17T13:52:19.000Z</time>
      </trkpt>
      <trkpt lat="46.99205" lon="-1.83579">
        <ele>52</ele>
        <time>2020-12-17T13:52:21.000Z</time>
      </trkpt>
      <trkpt lat="46.99197" lon="-1.83569">
        <ele>51</ele>
        <time>2020-12-17T13:52:23.000Z</time>
      </trkpt>
      <trkpt lat="46.99189" lon="-1.83558">
        <ele>51</ele>
        <time>2020-12-17T13:52:25.000Z</time>
      </trkpt>
      <trkpt lat="46.99181" lon="-1.83548">
        <ele>51</ele>
        <time>2020-12-17T13:52:27.000Z</time>
      </trkpt>
      <trkpt lat="46.99174" lon="-1.83537">
        <ele>51</ele>
        <time>2020-12-17T13:52:29.000Z</time>
      </trkpt>
      <trkpt lat="46.99166" lon="-1.83527">
        <ele>50</ele>
        <time>2020-12-17T13:52:31.000Z</time>
      </trkpt>
      <trkpt lat="46.99157" lon="-1.83519">
        <ele>49</ele>
        <time>2020-12-17T13:52:33.000Z</time>
      </trkpt>
      <trkpt lat="46.99148" lon="-1.83514">
        <ele>49</ele>
        <time>2020-12-17T13:52:35.000Z</time>
      </trkpt>
      <trkpt lat="46.99146" lon="-1.83499">
        <ele>50</ele>
        <time>2020-12-17T13:52:37.000Z</time>
      </trkpt>
      <trkpt lat="46.99153" lon="-1.83484">
        <ele>50</ele>
        <time>2020-12-17T13:52:39.000Z</time>
      </trkpt>
      <trkpt lat="46.99158" lon="-1.83467">
        <ele>50</ele>
        <time>2020-12-17T13:52:41.000Z</time>
      </trkpt>
      <trkpt lat="46.99161" lon="-1.83449">
        <ele>50</ele>
        <time>2020-12-17T13:52:43.000Z</time>
      </trkpt>
      <trkpt lat="46.99165" lon="-1.8343">
        <ele>50</ele>
        <time>2020-12-17T13:52:45.000Z</time>
      </trkpt>
      <trkpt lat="46.99169" lon="-1.83412">
        <ele>49</ele>
        <time>2020-12-17T13:52:47.000Z</time>
      </trkpt>
      <trkpt lat="46.99173" lon="-1.83394">
        <ele>50</ele>
        <time>2020-12-17T13:52:49.000Z</time>
      </trkpt>
      <trkpt lat="46.99177" lon="-1.83376">
        <ele>50</ele>
        <time>2020-12-17T13:52:51.000Z</time>
      </trkpt>
      <trkpt lat="46.9918" lon="-1.83358">
        <ele>50</ele>
        <time>2020-12-17T13:52:53.000Z</time>
      </trkpt>
      <trkpt lat="46.99184" lon="-1.8334">
        <ele>50</ele>
        <time>2020-12-17T13:52:55.000Z</time>
      </trkpt>
      <trkpt lat="46.99188" lon="-1.83322">
        <ele>50</ele>
        <time>2020-12-17T13:52:57.000Z</time>
      </trkpt>
      <trkpt lat="46.99192" lon="-1.83304">
        <ele>49</ele>
        <time>2020-12-17T13:52:59.000Z</time>
      </trkpt>
      <trkpt lat="46.99197" lon="-1.83287">
        <ele>49</ele>
        <time>2020-12-17T13:53:01.000Z</time>
      </trkpt>
      <trkpt lat="46.99201" lon="-1.83269">
        <ele>49</ele>
        <time>2020-12-17T13:53:03.000Z</time>
      </trkpt>
      <trkpt lat="46.99204" lon="-1.83251">
        <ele>49</ele>
        <time>2020-12-17T13:53:05.000Z</time>
      </trkpt>
      <trkpt lat="46.99208" lon="-1.83233">
        <ele>49</ele>
        <time>2020-12-17T13:53:07.000Z</time>
      </trkpt>
      <trkpt lat="46.99212" lon="-1.83215">
        <ele>49</ele>
        <time>2020-12-17T13:53:09.000Z</time>
      </trkpt>
      <trkpt lat="46.99216" lon="-1.83197">
        <ele>49</ele>
        <time>2020-12-17T13:53:11.000Z</time>
      </trkpt>
      <trkpt lat="46.9922" lon="-1.83179">
        <ele>49</ele>
        <time>2020-12-17T13:53:13.000Z</time>
      </trkpt>
      <trkpt lat="46.99224" lon="-1.8316">
        <ele>49</ele>
        <time>2020-12-17T13:53:15.000Z</time>
      </trkpt>
      <trkpt lat="46.99228" lon="-1.83141">
        <ele>49</ele>
        <time>2020-12-17T13:53:17.000Z</time>
      </trkpt>
      <trkpt lat="46.99232" lon="-1.83123">
        <ele>49</ele>
        <time>2020-12-17T13:53:19.000Z</time>
      </trkpt>
      <trkpt lat="46.99237" lon="-1.83106">
        <ele>49</ele>
        <time>2020-12-17T13:53:21.000Z</time>
      </trkpt>
      <trkpt lat="46.99241" lon="-1.83089">
        <ele>49</ele>
        <time>2020-12-17T13:53:23.000Z</time>
      </trkpt>
      <trkpt lat="46.99244" lon="-1.8307">
        <ele>49</ele>
        <time>2020-12-17T13:53:25.000Z</time>
      </trkpt>
      <trkpt lat="46.99248" lon="-1.83052">
        <ele>49</ele>
        <time>2020-12-17T13:53:27.000Z</time>
      </trkpt>
      <trkpt lat="46.99253" lon="-1.83035">
        <ele>49</ele>
        <time>2020-12-17T13:53:29.000Z</time>
      </trkpt>
      <trkpt lat="46.99257" lon="-1.83017">
        <ele>49</ele>
        <time>2020-12-17T13:53:31.000Z</time>
      </trkpt>
      <trkpt lat="46.99262" lon="-1.83001">
        <ele>48</ele>
        <time>2020-12-17T13:53:33.000Z</time>
      </trkpt>
      <trkpt lat="46.99265" lon="-1.82984">
        <ele>48</ele>
        <time>2020-12-17T13:53:35.000Z</time>
      </trkpt>
      <trkpt lat="46.99269" lon="-1.82966">
        <ele>49</ele>
        <time>2020-12-17T13:53:37.000Z</time>
      </trkpt>
      <trkpt lat="46.99273" lon="-1.82948">
        <ele>49</ele>
        <time>2020-12-17T13:53:39.000Z</time>
      </trkpt>
      <trkpt lat="46.99276" lon="-1.82931">
        <ele>49</ele>
        <time>2020-12-17T13:53:41.000Z</time>
      </trkpt>
      <trkpt lat="46.9928" lon="-1.82914">
        <ele>49</ele>
        <time>2020-12-17T13:53:43.000Z</time>
      </trkpt>
      <trkpt lat="46.99283" lon="-1.82896">
        <ele>49</ele>
        <time>2020-12-17T13:53:45.000Z</time>
      </trkpt>
      <trkpt lat="46.99287" lon="-1.82878">
        <ele>49</ele>
        <time>2020-12-17T13:53:47.000Z</time>
      </trkpt>
      <trkpt lat="46.99291" lon="-1.8286">
        <ele>49</ele>
        <time>2020-12-17T13:53:49.000Z</time>
      </trkpt>
      <trkpt lat="46.99295" lon="-1.82843">
        <ele>49</ele>
        <time>2020-12-17T13:53:51.000Z</time>
      </trkpt>
      <trkpt lat="46.99299" lon="-1.82826">
        <ele>49</ele>
        <time>2020-12-17T13:53:53.000Z</time>
      </trkpt>
      <trkpt lat="46.99303" lon="-1.8281">
        <ele>50</ele>
        <time>2020-12-17T13:53:55.000Z</time>
      </trkpt>
      <trkpt lat="46.99307" lon="-1.82793">
        <ele>50</ele>
        <time>2020-12-17T13:53:57.000Z</time>
      </trkpt>
      <trkpt lat="46.99311" lon="-1.82776">
        <ele>50</ele>
        <time>2020-12-17T13:53:59.000Z</time>
      </trkpt>
      <trkpt lat="46.99314" lon="-1.8276">
        <ele>50</ele>
        <time>2020-12-17T13:54:01.000Z</time>
      </trkpt>
      <trkpt lat="46.99318" lon="-1.82742">
        <ele>51</ele>
        <time>2020-12-17T13:54:03.000Z</time>
      </trkpt>
      <trkpt lat="46.99322" lon="-1.82724">
        <ele>51</ele>
        <time>2020-12-17T13:54:05.000Z</time>
      </trkpt>
      <trkpt lat="46.99325" lon="-1.82707">
        <ele>50</ele>
        <time>2020-12-17T13:54:07.000Z</time>
      </trkpt>
      <trkpt lat="46.99329" lon="-1.8269">
        <ele>50</ele>
        <time>2020-12-17T13:54:09.000Z</time>
      </trkpt>
      <trkpt lat="46.99333" lon="-1.82672">
        <ele>50</ele>
        <time>2020-12-17T13:54:11.000Z</time>
      </trkpt>
      <trkpt lat="46.99337" lon="-1.82656">
        <ele>50</ele>
        <time>2020-12-17T13:54:13.000Z</time>
      </trkpt>
      <trkpt lat="46.99341" lon="-1.82639">
        <ele>50</ele>
        <time>2020-12-17T13:54:15.000Z</time>
      </trkpt>
      <trkpt lat="46.99345" lon="-1.82623">
        <ele>50</ele>
        <time>2020-12-17T13:54:17.000Z</time>
      </trkpt>
      <trkpt lat="46.99352" lon="-1.82609">
        <ele>51</ele>
        <time>2020-12-17T13:54:19.000Z</time>
      </trkpt>
      <trkpt lat="46.99359" lon="-1.82595">
        <ele>51</ele>
        <time>2020-12-17T13:54:21.000Z</time>
      </trkpt>
      <trkpt lat="46.99362" lon="-1.82578">
        <ele>51</ele>
        <time>2020-12-17T13:54:23.000Z</time>
      </trkpt>
      <trkpt lat="46.99365" lon="-1.8256">
        <ele>51</ele>
        <time>2020-12-17T13:54:25.000Z</time>
      </trkpt>
      <trkpt lat="46.99361" lon="-1.82542">
        <ele>51</ele>
        <time>2020-12-17T13:54:27.000Z</time>
      </trkpt>
      <trkpt lat="46.99357" lon="-1.82525">
        <ele>50</ele>
        <time>2020-12-17T13:54:29.000Z</time>
      </trkpt>
      <trkpt lat="46.99354" lon="-1.8251">
        <ele>50</ele>
        <time>2020-12-17T13:54:31.000Z</time>
      </trkpt>
      <trkpt lat="46.9935" lon="-1.82495">
        <ele>50</ele>
        <time>2020-12-17T13:54:34.000Z</time>
      </trkpt>
      <trkpt lat="46.99345" lon="-1.82479">
        <ele>50</ele>
        <time>2020-12-17T13:54:40.000Z</time>
      </trkpt>
      <trkpt lat="46.99341" lon="-1.82462">
        <ele>51</ele>
        <time>2020-12-17T13:54:42.000Z</time>
      </trkpt>
      <trkpt lat="46.99337" lon="-1.82444">
        <ele>52</ele>
        <time>2020-12-17T13:54:44.000Z</time>
      </trkpt>
      <trkpt lat="46.99332" lon="-1.82426">
        <ele>53</ele>
        <time>2020-12-17T13:54:46.000Z</time>
      </trkpt>
      <trkpt lat="46.99329" lon="-1.82409">
        <ele>53</ele>
        <time>2020-12-17T13:54:48.000Z</time>
      </trkpt>
      <trkpt lat="46.99326" lon="-1.82392">
        <ele>54</ele>
        <time>2020-12-17T13:54:50.000Z</time>
      </trkpt>
      <trkpt lat="46.99324" lon="-1.82376">
        <ele>54</ele>
        <time>2020-12-17T13:54:52.000Z</time>
      </trkpt>
      <trkpt lat="46.99322" lon="-1.82358">
        <ele>54</ele>
        <time>2020-12-17T13:54:54.000Z</time>
      </trkpt>
      <trkpt lat="46.99319" lon="-1.82341">
        <ele>53</ele>
        <time>2020-12-17T13:54:56.000Z</time>
      </trkpt>
      <trkpt lat="46.99317" lon="-1.82323">
        <ele>53</ele>
        <time>2020-12-17T13:54:58.000Z</time>
      </trkpt>
      <trkpt lat="46.99313" lon="-1.82307">
        <ele>53</ele>
        <time>2020-12-17T13:55:00.000Z</time>
      </trkpt>
      <trkpt lat="46.99308" lon="-1.8229">
        <ele>52</ele>
        <time>2020-12-17T13:55:02.000Z</time>
      </trkpt>
      <trkpt lat="46.99305" lon="-1.82274">
        <ele>51</ele>
        <time>2020-12-17T13:55:04.000Z</time>
      </trkpt>
      <trkpt lat="46.993" lon="-1.82258">
        <ele>51</ele>
        <time>2020-12-17T13:55:06.000Z</time>
      </trkpt>
      <trkpt lat="46.99295" lon="-1.82244">
        <ele>51</ele>
        <time>2020-12-17T13:55:08.000Z</time>
      </trkpt>
      <trkpt lat="46.99291" lon="-1.82229">
        <ele>51</ele>
        <time>2020-12-17T13:55:10.000Z</time>
      </trkpt>
      <trkpt lat="46.99285" lon="-1.82218">
        <ele>51</ele>
        <time>2020-12-17T13:55:12.000Z</time>
      </trkpt>
      <trkpt lat="46.99275" lon="-1.82217">
        <ele>50</ele>
        <time>2020-12-17T13:55:14.000Z</time>
      </trkpt>
      <trkpt lat="46.99263" lon="-1.8222">
        <ele>51</ele>
        <time>2020-12-17T13:55:16.000Z</time>
      </trkpt>
      <trkpt lat="46.99251" lon="-1.82221">
        <ele>50</ele>
        <time>2020-12-17T13:55:18.000Z</time>
      </trkpt>
      <trkpt lat="46.9924" lon="-1.82221">
        <ele>49</ele>
        <time>2020-12-17T13:55:20.000Z</time>
      </trkpt>
      <trkpt lat="46.99228" lon="-1.8222">
        <ele>49</ele>
        <time>2020-12-17T13:55:22.000Z</time>
      </trkpt>
      <trkpt lat="46.99216" lon="-1.82214">
        <ele>49</ele>
        <time>2020-12-17T13:55:24.000Z</time>
      </trkpt>
      <trkpt lat="46.99204" lon="-1.82209">
        <ele>49</ele>
        <time>2020-12-17T13:55:26.000Z</time>
      </trkpt>
      <trkpt lat="46.99193" lon="-1.82203">
        <ele>49</ele>
        <time>2020-12-17T13:55:28.000Z</time>
      </trkpt>
      <trkpt lat="46.99181" lon="-1.82198">
        <ele>49</ele>
        <time>2020-12-17T13:55:30.000Z</time>
      </trkpt>
      <trkpt lat="46.9917" lon="-1.82193">
        <ele>49</ele>
        <time>2020-12-17T13:55:32.000Z</time>
      </trkpt>
      <trkpt lat="46.99158" lon="-1.82189">
        <ele>48</ele>
        <time>2020-12-17T13:55:34.000Z</time>
      </trkpt>
      <trkpt lat="46.99147" lon="-1.82185">
        <ele>48</ele>
        <time>2020-12-17T13:55:36.000Z</time>
      </trkpt>
      <trkpt lat="46.99135" lon="-1.82184">
        <ele>48</ele>
        <time>2020-12-17T13:55:38.000Z</time>
      </trkpt>
      <trkpt lat="46.99124" lon="-1.82185">
        <ele>49</ele>
        <time>2020-12-17T13:55:40.000Z</time>
      </trkpt>
      <trkpt lat="46.99113" lon="-1.82185">
        <ele>49</ele>
        <time>2020-12-17T13:55:42.000Z</time>
      </trkpt>
      <trkpt lat="46.99103" lon="-1.82187">
        <ele>49</ele>
        <time>2020-12-17T13:55:44.000Z</time>
      </trkpt>
      <trkpt lat="46.99093" lon="-1.82184">
        <ele>49</ele>
        <time>2020-12-17T13:55:46.000Z</time>
      </trkpt>
      <trkpt lat="46.99091" lon="-1.82168">
        <ele>50</ele>
        <time>2020-12-17T13:55:48.000Z</time>
      </trkpt>
      <trkpt lat="46.99089" lon="-1.8215">
        <ele>50</ele>
        <time>2020-12-17T13:55:50.000Z</time>
      </trkpt>
      <trkpt lat="46.99086" lon="-1.82132">
        <ele>50</ele>
        <time>2020-12-17T13:55:52.000Z</time>
      </trkpt>
      <trkpt lat="46.99084" lon="-1.82113">
        <ele>50</ele>
        <time>2020-12-17T13:55:54.000Z</time>
      </trkpt>
      <trkpt lat="46.99081" lon="-1.82093">
        <ele>50</ele>
        <time>2020-12-17T13:55:56.000Z</time>
      </trkpt>
      <trkpt lat="46.99081" lon="-1.82074">
        <ele>50</ele>
        <time>2020-12-17T13:55:58.000Z</time>
      </trkpt>
      <trkpt lat="46.99082" lon="-1.82055">
        <ele>50</ele>
        <time>2020-12-17T13:56:00.000Z</time>
      </trkpt>
      <trkpt lat="46.99083" lon="-1.82035">
        <ele>50</ele>
        <time>2020-12-17T13:56:02.000Z</time>
      </trkpt>
      <trkpt lat="46.99084" lon="-1.82015">
        <ele>50</ele>
        <time>2020-12-17T13:56:04.000Z</time>
      </trkpt>
      <trkpt lat="46.99086" lon="-1.81995">
        <ele>50</ele>
        <time>2020-12-17T13:56:06.000Z</time>
      </trkpt>
      <trkpt lat="46.99087" lon="-1.81976">
        <ele>50</ele>
        <time>2020-12-17T13:56:08.000Z</time>
      </trkpt>
      <trkpt lat="46.99088" lon="-1.81956">
        <ele>49</ele>
        <time>2020-12-17T13:56:10.000Z</time>
      </trkpt>
      <trkpt lat="46.99091" lon="-1.81937">
        <ele>49</ele>
        <time>2020-12-17T13:56:12.000Z</time>
      </trkpt>
      <trkpt lat="46.99092" lon="-1.81918">
        <ele>49</ele>
        <time>2020-12-17T13:56:14.000Z</time>
      </trkpt>
      <trkpt lat="46.99095" lon="-1.81897">
        <ele>49</ele>
        <time>2020-12-17T13:56:16.000Z</time>
      </trkpt>
      <trkpt lat="46.99098" lon="-1.81877">
        <ele>49</ele>
        <time>2020-12-17T13:56:18.000Z</time>
      </trkpt>
      <trkpt lat="46.99102" lon="-1.81859">
        <ele>49</ele>
        <time>2020-12-17T13:56:20.000Z</time>
      </trkpt>
      <trkpt lat="46.99106" lon="-1.81841">
        <ele>49</ele>
        <time>2020-12-17T13:56:22.000Z</time>
      </trkpt>
      <trkpt lat="46.99111" lon="-1.81824">
        <ele>49</ele>
        <time>2020-12-17T13:56:24.000Z</time>
      </trkpt>
      <trkpt lat="46.99118" lon="-1.81811">
        <ele>49</ele>
        <time>2020-12-17T13:56:26.000Z</time>
      </trkpt>
      <trkpt lat="46.99127" lon="-1.81799">
        <ele>49</ele>
        <time>2020-12-17T13:56:29.000Z</time>
      </trkpt>
      <trkpt lat="46.99135" lon="-1.81787">
        <ele>50</ele>
        <time>2020-12-17T13:56:31.000Z</time>
      </trkpt>
      <trkpt lat="46.99144" lon="-1.81773">
        <ele>50</ele>
        <time>2020-12-17T13:56:33.000Z</time>
      </trkpt>
      <trkpt lat="46.99154" lon="-1.8176">
        <ele>50</ele>
        <time>2020-12-17T13:56:35.000Z</time>
      </trkpt>
      <trkpt lat="46.99165" lon="-1.81748">
        <ele>50</ele>
        <time>2020-12-17T13:56:37.000Z</time>
      </trkpt>
      <trkpt lat="46.99175" lon="-1.81736">
        <ele>50</ele>
        <time>2020-12-17T13:56:39.000Z</time>
      </trkpt>
      <trkpt lat="46.99184" lon="-1.81725">
        <ele>50</ele>
        <time>2020-12-17T13:56:41.000Z</time>
      </trkpt>
      <trkpt lat="46.9919" lon="-1.81712">
        <ele>50</ele>
        <time>2020-12-17T13:56:43.000Z</time>
      </trkpt>
      <trkpt lat="46.99183" lon="-1.81698">
        <ele>50</ele>
        <time>2020-12-17T13:56:45.000Z</time>
      </trkpt>
      <trkpt lat="46.99171" lon="-1.81688">
        <ele>49</ele>
        <time>2020-12-17T13:56:47.000Z</time>
      </trkpt>
      <trkpt lat="46.9916" lon="-1.81677">
        <ele>50</ele>
        <time>2020-12-17T13:56:49.000Z</time>
      </trkpt>
      <trkpt lat="46.99149" lon="-1.81665">
        <ele>50</ele>
        <time>2020-12-17T13:56:51.000Z</time>
      </trkpt>
      <trkpt lat="46.99138" lon="-1.81654">
        <ele>50</ele>
        <time>2020-12-17T13:56:53.000Z</time>
      </trkpt>
      <trkpt lat="46.99127" lon="-1.81643">
        <ele>50</ele>
        <time>2020-12-17T13:56:55.000Z</time>
      </trkpt>
      <trkpt lat="46.99117" lon="-1.81631">
        <ele>50</ele>
        <time>2020-12-17T13:56:57.000Z</time>
      </trkpt>
      <trkpt lat="46.99108" lon="-1.81618">
        <ele>51</ele>
        <time>2020-12-17T13:56:59.000Z</time>
      </trkpt>
      <trkpt lat="46.99101" lon="-1.81603">
        <ele>51</ele>
        <time>2020-12-17T13:57:01.000Z</time>
      </trkpt>
      <trkpt lat="46.99109" lon="-1.81586">
        <ele>50</ele>
        <time>2020-12-17T13:57:03.000Z</time>
      </trkpt>
      <trkpt lat="46.99124" lon="-1.81582">
        <ele>50</ele>
        <time>2020-12-17T13:57:05.000Z</time>
      </trkpt>
      <trkpt lat="46.99138" lon="-1.81583">
        <ele>50</ele>
        <time>2020-12-17T13:57:07.000Z</time>
      </trkpt>
      <trkpt lat="46.99153" lon="-1.81585">
        <ele>50</ele>
        <time>2020-12-17T13:57:09.000Z</time>
      </trkpt>
      <trkpt lat="46.99167" lon="-1.81586">
        <ele>50</ele>
        <time>2020-12-17T13:57:11.000Z</time>
      </trkpt>
      <trkpt lat="46.99181" lon="-1.81588">
        <ele>50</ele>
        <time>2020-12-17T13:57:13.000Z</time>
      </trkpt>
      <trkpt lat="46.99195" lon="-1.81589">
        <ele>51</ele>
        <time>2020-12-17T13:57:15.000Z</time>
      </trkpt>
      <trkpt lat="46.99207" lon="-1.81591">
        <ele>50</ele>
        <time>2020-12-17T13:57:17.000Z</time>
      </trkpt>
      <trkpt lat="46.99221" lon="-1.81593">
        <ele>51</ele>
        <time>2020-12-17T13:57:19.000Z</time>
      </trkpt>
      <trkpt lat="46.99234" lon="-1.81596">
        <ele>51</ele>
        <time>2020-12-17T13:57:21.000Z</time>
      </trkpt>
      <trkpt lat="46.99246" lon="-1.81592">
        <ele>51</ele>
        <time>2020-12-17T13:57:23.000Z</time>
      </trkpt>
      <trkpt lat="46.99252" lon="-1.81579">
        <ele>51</ele>
        <time>2020-12-17T13:57:25.000Z</time>
      </trkpt>
      <trkpt lat="46.9925" lon="-1.81561">
        <ele>52</ele>
        <time>2020-12-17T13:57:27.000Z</time>
      </trkpt>
      <trkpt lat="46.99246" lon="-1.81545">
        <ele>51</ele>
        <time>2020-12-17T13:57:29.000Z</time>
      </trkpt>
      <trkpt lat="46.99243" lon="-1.81527">
        <ele>50</ele>
        <time>2020-12-17T13:57:31.000Z</time>
      </trkpt>
      <trkpt lat="46.9924" lon="-1.81507">
        <ele>50</ele>
        <time>2020-12-17T13:57:33.000Z</time>
      </trkpt>
      <trkpt lat="46.99237" lon="-1.81488">
        <ele>50</ele>
        <time>2020-12-17T13:57:35.000Z</time>
      </trkpt>
      <trkpt lat="46.99234" lon="-1.81469">
        <ele>50</ele>
        <time>2020-12-17T13:57:37.000Z</time>
      </trkpt>
      <trkpt lat="46.99231" lon="-1.81448">
        <ele>49</ele>
        <time>2020-12-17T13:57:39.000Z</time>
      </trkpt>
      <trkpt lat="46.99229" lon="-1.81429">
        <ele>50</ele>
        <time>2020-12-17T13:57:41.000Z</time>
      </trkpt>
      <trkpt lat="46.99226" lon="-1.81411">
        <ele>51</ele>
        <time>2020-12-17T13:57:43.000Z</time>
      </trkpt>
      <trkpt lat="46.99223" lon="-1.81392">
        <ele>51</ele>
        <time>2020-12-17T13:57:45.000Z</time>
      </trkpt>
      <trkpt lat="46.99221" lon="-1.81373">
        <ele>51</ele>
        <time>2020-12-17T13:57:47.000Z</time>
      </trkpt>
      <trkpt lat="46.99218" lon="-1.81354">
        <ele>51</ele>
        <time>2020-12-17T13:57:49.000Z</time>
      </trkpt>
      <trkpt lat="46.99215" lon="-1.81335">
        <ele>52</ele>
        <time>2020-12-17T13:57:51.000Z</time>
      </trkpt>
      <trkpt lat="46.99212" lon="-1.81317">
        <ele>52</ele>
        <time>2020-12-17T13:57:53.000Z</time>
      </trkpt>
      <trkpt lat="46.99209" lon="-1.81298">
        <ele>52</ele>
        <time>2020-12-17T13:57:55.000Z</time>
      </trkpt>
      <trkpt lat="46.99207" lon="-1.8128">
        <ele>52</ele>
        <time>2020-12-17T13:57:57.000Z</time>
      </trkpt>
      <trkpt lat="46.99204" lon="-1.81261">
        <ele>52</ele>
        <time>2020-12-17T13:57:59.000Z</time>
      </trkpt>
      <trkpt lat="46.99201" lon="-1.81241">
        <ele>52</ele>
        <time>2020-12-17T13:58:01.000Z</time>
      </trkpt>
      <trkpt lat="46.99198" lon="-1.81222">
        <ele>51</ele>
        <time>2020-12-17T13:58:03.000Z</time>
      </trkpt>
      <trkpt lat="46.99195" lon="-1.81203">
        <ele>51</ele>
        <time>2020-12-17T13:58:05.000Z</time>
      </trkpt>
      <trkpt lat="46.99193" lon="-1.81184">
        <ele>51</ele>
        <time>2020-12-17T13:58:07.000Z</time>
      </trkpt>
      <trkpt lat="46.9919" lon="-1.81164">
        <ele>51</ele>
        <time>2020-12-17T13:58:09.000Z</time>
      </trkpt>
      <trkpt lat="46.99188" lon="-1.81144">
        <ele>51</ele>
        <time>2020-12-17T13:58:11.000Z</time>
      </trkpt>
      <trkpt lat="46.99186" lon="-1.81124">
        <ele>50</ele>
        <time>2020-12-17T13:58:13.000Z</time>
      </trkpt>
      <trkpt lat="46.99185" lon="-1.81104">
        <ele>51</ele>
        <time>2020-12-17T13:58:15.000Z</time>
      </trkpt>
      <trkpt lat="46.99183" lon="-1.81083">
        <ele>51</ele>
        <time>2020-12-17T13:58:17.000Z</time>
      </trkpt>
      <trkpt lat="46.99181" lon="-1.81063">
        <ele>51</ele>
        <time>2020-12-17T13:58:19.000Z</time>
      </trkpt>
      <trkpt lat="46.99179" lon="-1.81045">
        <ele>52</ele>
        <time>2020-12-17T13:58:21.000Z</time>
      </trkpt>
      <trkpt lat="46.99176" lon="-1.81026">
        <ele>53</ele>
        <time>2020-12-17T13:58:23.000Z</time>
      </trkpt>
      <trkpt lat="46.99174" lon="-1.81007">
        <ele>52</ele>
        <time>2020-12-17T13:58:25.000Z</time>
      </trkpt>
      <trkpt lat="46.99172" lon="-1.80988">
        <ele>52</ele>
        <time>2020-12-17T13:58:27.000Z</time>
      </trkpt>
      <trkpt lat="46.99169" lon="-1.8097">
        <ele>51</ele>
        <time>2020-12-17T13:58:29.000Z</time>
      </trkpt>
      <trkpt lat="46.99167" lon="-1.80951">
        <ele>50</ele>
        <time>2020-12-17T13:58:31.000Z</time>
      </trkpt>
      <trkpt lat="46.99166" lon="-1.80934">
        <ele>50</ele>
        <time>2020-12-17T13:58:33.000Z</time>
      </trkpt>
      <trkpt lat="46.99165" lon="-1.80916">
        <ele>49</ele>
        <time>2020-12-17T13:58:35.000Z</time>
      </trkpt>
      <trkpt lat="46.99166" lon="-1.80899">
        <ele>49</ele>
        <time>2020-12-17T13:58:37.000Z</time>
      </trkpt>
      <trkpt lat="46.99175" lon="-1.80887">
        <ele>50</ele>
        <time>2020-12-17T13:58:39.000Z</time>
      </trkpt>
      <trkpt lat="46.99187" lon="-1.80877">
        <ele>50</ele>
        <time>2020-12-17T13:58:41.000Z</time>
      </trkpt>
      <trkpt lat="46.99198" lon="-1.80869">
        <ele>50</ele>
        <time>2020-12-17T13:58:43.000Z</time>
      </trkpt>
      <trkpt lat="46.9921" lon="-1.80862">
        <ele>50</ele>
        <time>2020-12-17T13:58:45.000Z</time>
      </trkpt>
      <trkpt lat="46.99221" lon="-1.80854">
        <ele>51</ele>
        <time>2020-12-17T13:58:47.000Z</time>
      </trkpt>
      <trkpt lat="46.99233" lon="-1.80846">
        <ele>50</ele>
        <time>2020-12-17T13:58:49.000Z</time>
      </trkpt>
      <trkpt lat="46.99245" lon="-1.80839">
        <ele>50</ele>
        <time>2020-12-17T13:58:51.000Z</time>
      </trkpt>
      <trkpt lat="46.99257" lon="-1.80832">
        <ele>51</ele>
        <time>2020-12-17T13:58:53.000Z</time>
      </trkpt>
      <trkpt lat="46.99269" lon="-1.80825">
        <ele>51</ele>
        <time>2020-12-17T13:58:55.000Z</time>
      </trkpt>
      <trkpt lat="46.9928" lon="-1.80818">
        <ele>51</ele>
        <time>2020-12-17T13:58:57.000Z</time>
      </trkpt>
      <trkpt lat="46.99292" lon="-1.8081">
        <ele>51</ele>
        <time>2020-12-17T13:58:59.000Z</time>
      </trkpt>
      <trkpt lat="46.99304" lon="-1.80801">
        <ele>52</ele>
        <time>2020-12-17T13:59:01.000Z</time>
      </trkpt>
      <trkpt lat="46.99316" lon="-1.80792">
        <ele>51</ele>
        <time>2020-12-17T13:59:03.000Z</time>
      </trkpt>
      <trkpt lat="46.99329" lon="-1.80785">
        <ele>51</ele>
        <time>2020-12-17T13:59:05.000Z</time>
      </trkpt>
      <trkpt lat="46.9934" lon="-1.80778">
        <ele>51</ele>
        <time>2020-12-17T13:59:07.000Z</time>
      </trkpt>
      <trkpt lat="46.99353" lon="-1.8077">
        <ele>51</ele>
        <time>2020-12-17T13:59:09.000Z</time>
      </trkpt>
      <trkpt lat="46.99365" lon="-1.80763">
        <ele>52</ele>
        <time>2020-12-17T13:59:11.000Z</time>
      </trkpt>
      <trkpt lat="46.99378" lon="-1.80756">
        <ele>52</ele>
        <time>2020-12-17T13:59:13.000Z</time>
      </trkpt>
      <trkpt lat="46.9939" lon="-1.80749">
        <ele>51</ele>
        <time>2020-12-17T13:59:15.000Z</time>
      </trkpt>
      <trkpt lat="46.99402" lon="-1.8074">
        <ele>51</ele>
        <time>2020-12-17T13:59:17.000Z</time>
      </trkpt>
      <trkpt lat="46.99414" lon="-1.80733">
        <ele>52</ele>
        <time>2020-12-17T13:59:19.000Z</time>
      </trkpt>
      <trkpt lat="46.99427" lon="-1.80724">
        <ele>52</ele>
        <time>2020-12-17T13:59:21.000Z</time>
      </trkpt>
      <trkpt lat="46.99438" lon="-1.80718">
        <ele>52</ele>
        <time>2020-12-17T13:59:23.000Z</time>
      </trkpt>
      <trkpt lat="46.9945" lon="-1.8071">
        <ele>52</ele>
        <time>2020-12-17T13:59:25.000Z</time>
      </trkpt>
      <trkpt lat="46.99461" lon="-1.80703">
        <ele>52</ele>
        <time>2020-12-17T13:59:27.000Z</time>
      </trkpt>
      <trkpt lat="46.99469" lon="-1.80696">
        <ele>52</ele>
        <time>2020-12-17T13:59:29.000Z</time>
      </trkpt>
      <trkpt lat="46.99477" lon="-1.8068">
        <ele>52</ele>
        <time>2020-12-17T13:59:32.000Z</time>
      </trkpt>
      <trkpt lat="46.99485" lon="-1.80666">
        <ele>52</ele>
        <time>2020-12-17T13:59:34.000Z</time>
      </trkpt>
      <trkpt lat="46.99498" lon="-1.80656">
        <ele>52</ele>
        <time>2020-12-17T13:59:36.000Z</time>
      </trkpt>
      <trkpt lat="46.99513" lon="-1.80649">
        <ele>52</ele>
        <time>2020-12-17T13:59:38.000Z</time>
      </trkpt>
      <trkpt lat="46.99526" lon="-1.80637">
        <ele>51</ele>
        <time>2020-12-17T13:59:40.000Z</time>
      </trkpt>
      <trkpt lat="46.99538" lon="-1.80623">
        <ele>51</ele>
        <time>2020-12-17T13:59:42.000Z</time>
      </trkpt>
      <trkpt lat="46.9955" lon="-1.80609">
        <ele>51</ele>
        <time>2020-12-17T13:59:44.000Z</time>
      </trkpt>
      <trkpt lat="46.9956" lon="-1.80595">
        <ele>51</ele>
        <time>2020-12-17T13:59:46.000Z</time>
      </trkpt>
      <trkpt lat="46.99571" lon="-1.80582">
        <ele>50</ele>
        <time>2020-12-17T13:59:48.000Z</time>
      </trkpt>
      <trkpt lat="46.99581" lon="-1.80569">
        <ele>50</ele>
        <time>2020-12-17T13:59:50.000Z</time>
      </trkpt>
      <trkpt lat="46.99592" lon="-1.80555">
        <ele>50</ele>
        <time>2020-12-17T13:59:52.000Z</time>
      </trkpt>
      <trkpt lat="46.99602" lon="-1.80542">
        <ele>50</ele>
        <time>2020-12-17T13:59:54.000Z</time>
      </trkpt>
      <trkpt lat="46.99612" lon="-1.80529">
        <ele>50</ele>
        <time>2020-12-17T13:59:56.000Z</time>
      </trkpt>
      <trkpt lat="46.99623" lon="-1.80515">
        <ele>50</ele>
        <time>2020-12-17T13:59:58.000Z</time>
      </trkpt>
      <trkpt lat="46.99633" lon="-1.80502">
        <ele>49</ele>
        <time>2020-12-17T14:00:00.000Z</time>
      </trkpt>
      <trkpt lat="46.99643" lon="-1.80489">
        <ele>50</ele>
        <time>2020-12-17T14:00:02.000Z</time>
      </trkpt>
      <trkpt lat="46.99654" lon="-1.80475">
        <ele>50</ele>
        <time>2020-12-17T14:00:04.000Z</time>
      </trkpt>
      <trkpt lat="46.99664" lon="-1.80462">
        <ele>50</ele>
        <time>2020-12-17T14:00:06.000Z</time>
      </trkpt>
      <trkpt lat="46.99673" lon="-1.80448">
        <ele>50</ele>
        <time>2020-12-17T14:00:08.000Z</time>
      </trkpt>
      <trkpt lat="46.99684" lon="-1.80436">
        <ele>51</ele>
        <time>2020-12-17T14:00:10.000Z</time>
      </trkpt>
      <trkpt lat="46.99694" lon="-1.80423">
        <ele>51</ele>
        <time>2020-12-17T14:00:12.000Z</time>
      </trkpt>
      <trkpt lat="46.99704" lon="-1.8041">
        <ele>51</ele>
        <time>2020-12-17T14:00:14.000Z</time>
      </trkpt>
      <trkpt lat="46.99714" lon="-1.80397">
        <ele>51</ele>
        <time>2020-12-17T14:00:16.000Z</time>
      </trkpt>
      <trkpt lat="46.99724" lon="-1.80384">
        <ele>51</ele>
        <time>2020-12-17T14:00:18.000Z</time>
      </trkpt>
      <trkpt lat="46.99734" lon="-1.80371">
        <ele>51</ele>
        <time>2020-12-17T14:00:20.000Z</time>
      </trkpt>
      <trkpt lat="46.99744" lon="-1.80358">
        <ele>51</ele>
        <time>2020-12-17T14:00:22.000Z</time>
      </trkpt>
      <trkpt lat="46.99754" lon="-1.80345">
        <ele>51</ele>
        <time>2020-12-17T14:00:24.000Z</time>
      </trkpt>
      <trkpt lat="46.99764" lon="-1.80332">
        <ele>51</ele>
        <time>2020-12-17T14:00:26.000Z</time>
      </trkpt>
      <trkpt lat="46.99774" lon="-1.80319">
        <ele>51</ele>
        <time>2020-12-17T14:00:28.000Z</time>
      </trkpt>
      <trkpt lat="46.99784" lon="-1.80306">
        <ele>51</ele>
        <time>2020-12-17T14:00:30.000Z</time>
      </trkpt>
      <trkpt lat="46.99794" lon="-1.80293">
        <ele>51</ele>
        <time>2020-12-17T14:00:32.000Z</time>
      </trkpt>
      <trkpt lat="46.99804" lon="-1.8028">
        <ele>52</ele>
        <time>2020-12-17T14:00:34.000Z</time>
      </trkpt>
      <trkpt lat="46.99814" lon="-1.80267">
        <ele>51</ele>
        <time>2020-12-17T14:00:36.000Z</time>
      </trkpt>
      <trkpt lat="46.99823" lon="-1.80254">
        <ele>51</ele>
        <time>2020-12-17T14:00:38.000Z</time>
      </trkpt>
      <trkpt lat="46.99833" lon="-1.80239">
        <ele>51</ele>
        <time>2020-12-17T14:00:40.000Z</time>
      </trkpt>
      <trkpt lat="46.99843" lon="-1.80226">
        <ele>51</ele>
        <time>2020-12-17T14:00:42.000Z</time>
      </trkpt>
      <trkpt lat="46.99851" lon="-1.80211">
        <ele>51</ele>
        <time>2020-12-17T14:00:44.000Z</time>
      </trkpt>
      <trkpt lat="46.9986" lon="-1.80197">
        <ele>51</ele>
        <time>2020-12-17T14:00:46.000Z</time>
      </trkpt>
      <trkpt lat="46.99868" lon="-1.80181">
        <ele>51</ele>
        <time>2020-12-17T14:00:48.000Z</time>
      </trkpt>
      <trkpt lat="46.99876" lon="-1.80165">
        <ele>51</ele>
        <time>2020-12-17T14:00:50.000Z</time>
      </trkpt>
      <trkpt lat="46.99884" lon="-1.80149">
        <ele>51</ele>
        <time>2020-12-17T14:00:52.000Z</time>
      </trkpt>
      <trkpt lat="46.99891" lon="-1.80133">
        <ele>51</ele>
        <time>2020-12-17T14:00:54.000Z</time>
      </trkpt>
      <trkpt lat="46.99898" lon="-1.80117">
        <ele>51</ele>
        <time>2020-12-17T14:00:56.000Z</time>
      </trkpt>
      <trkpt lat="46.99906" lon="-1.80103">
        <ele>51</ele>
        <time>2020-12-17T14:00:58.000Z</time>
      </trkpt>
      <trkpt lat="46.99913" lon="-1.80087">
        <ele>51</ele>
        <time>2020-12-17T14:01:00.000Z</time>
      </trkpt>
      <trkpt lat="46.9992" lon="-1.80071">
        <ele>50</ele>
        <time>2020-12-17T14:01:02.000Z</time>
      </trkpt>
      <trkpt lat="46.99927" lon="-1.80056">
        <ele>50</ele>
        <time>2020-12-17T14:01:04.000Z</time>
      </trkpt>
      <trkpt lat="46.99934" lon="-1.80041">
        <ele>51</ele>
        <time>2020-12-17T14:01:06.000Z</time>
      </trkpt>
      <trkpt lat="46.99943" lon="-1.80026">
        <ele>50</ele>
        <time>2020-12-17T14:01:08.000Z</time>
      </trkpt>
      <trkpt lat="46.99952" lon="-1.80013">
        <ele>50</ele>
        <time>2020-12-17T14:01:10.000Z</time>
      </trkpt>
      <trkpt lat="46.99966" lon="-1.79994">
        <ele>50</ele>
        <time>2020-12-17T14:01:13.000Z</time>
      </trkpt>
      <trkpt lat="46.99977" lon="-1.79985">
        <ele>50</ele>
        <time>2020-12-17T14:01:15.000Z</time>
      </trkpt>
      <trkpt lat="46.99988" lon="-1.79975">
        <ele>51</ele>
        <time>2020-12-17T14:01:17.000Z</time>
      </trkpt>
      <trkpt lat="47" lon="-1.79967">
        <ele>51</ele>
        <time>2020-12-17T14:01:19.000Z</time>
      </trkpt>
      <trkpt lat="47.00011" lon="-1.79957">
        <ele>51</ele>
        <time>2020-12-17T14:01:21.000Z</time>
      </trkpt>
      <trkpt lat="47.00022" lon="-1.79949">
        <ele>51</ele>
        <time>2020-12-17T14:01:23.000Z</time>
      </trkpt>
      <trkpt lat="47.00034" lon="-1.7994">
        <ele>52</ele>
        <time>2020-12-17T14:01:25.000Z</time>
      </trkpt>
      <trkpt lat="47.00045" lon="-1.79932">
        <ele>52</ele>
        <time>2020-12-17T14:01:27.000Z</time>
      </trkpt>
      <trkpt lat="47.00057" lon="-1.79923">
        <ele>52</ele>
        <time>2020-12-17T14:01:29.000Z</time>
      </trkpt>
      <trkpt lat="47.00069" lon="-1.79914">
        <ele>52</ele>
        <time>2020-12-17T14:01:31.000Z</time>
      </trkpt>
      <trkpt lat="47.00081" lon="-1.79905">
        <ele>52</ele>
        <time>2020-12-17T14:01:33.000Z</time>
      </trkpt>
      <trkpt lat="47.00092" lon="-1.79895">
        <ele>52</ele>
        <time>2020-12-17T14:01:35.000Z</time>
      </trkpt>
      <trkpt lat="47.00103" lon="-1.79884">
        <ele>52</ele>
        <time>2020-12-17T14:01:37.000Z</time>
      </trkpt>
      <trkpt lat="47.00113" lon="-1.79872">
        <ele>52</ele>
        <time>2020-12-17T14:01:39.000Z</time>
      </trkpt>
      <trkpt lat="47.00122" lon="-1.79858">
        <ele>52</ele>
        <time>2020-12-17T14:01:41.000Z</time>
      </trkpt>
      <trkpt lat="47.0013" lon="-1.79843">
        <ele>52</ele>
        <time>2020-12-17T14:01:43.000Z</time>
      </trkpt>
      <trkpt lat="47.00138" lon="-1.79827">
        <ele>52</ele>
        <time>2020-12-17T14:01:45.000Z</time>
      </trkpt>
      <trkpt lat="47.00144" lon="-1.7981">
        <ele>52</ele>
        <time>2020-12-17T14:01:47.000Z</time>
      </trkpt>
      <trkpt lat="47.00149" lon="-1.79794">
        <ele>52</ele>
        <time>2020-12-17T14:01:49.000Z</time>
      </trkpt>
      <trkpt lat="47.00155" lon="-1.79777">
        <ele>52</ele>
        <time>2020-12-17T14:01:51.000Z</time>
      </trkpt>
      <trkpt lat="47.0016" lon="-1.7976">
        <ele>52</ele>
        <time>2020-12-17T14:01:53.000Z</time>
      </trkpt>
      <trkpt lat="47.00165" lon="-1.79742">
        <ele>53</ele>
        <time>2020-12-17T14:01:55.000Z</time>
      </trkpt>
      <trkpt lat="47.0017" lon="-1.79725">
        <ele>53</ele>
        <time>2020-12-17T14:01:57.000Z</time>
      </trkpt>
      <trkpt lat="47.00178" lon="-1.79699">
        <ele>52</ele>
        <time>2020-12-17T14:02:00.000Z</time>
      </trkpt>
      <trkpt lat="47.00183" lon="-1.79682">
        <ele>52</ele>
        <time>2020-12-17T14:02:02.000Z</time>
      </trkpt>
      <trkpt lat="47.0019" lon="-1.79655">
        <ele>52</ele>
        <time>2020-12-17T14:02:05.000Z</time>
      </trkpt>
      <trkpt lat="47.00195" lon="-1.79638">
        <ele>52</ele>
        <time>2020-12-17T14:02:07.000Z</time>
      </trkpt>
      <trkpt lat="47.00201" lon="-1.79621">
        <ele>52</ele>
        <time>2020-12-17T14:02:09.000Z</time>
      </trkpt>
      <trkpt lat="47.00206" lon="-1.79604">
        <ele>52</ele>
        <time>2020-12-17T14:02:11.000Z</time>
      </trkpt>
      <trkpt lat="47.00212" lon="-1.79587">
        <ele>52</ele>
        <time>2020-12-17T14:02:13.000Z</time>
      </trkpt>
      <trkpt lat="47.00217" lon="-1.7957">
        <ele>52</ele>
        <time>2020-12-17T14:02:15.000Z</time>
      </trkpt>
      <trkpt lat="47.00222" lon="-1.79552">
        <ele>52</ele>
        <time>2020-12-17T14:02:17.000Z</time>
      </trkpt>
      <trkpt lat="47.00228" lon="-1.79534">
        <ele>52</ele>
        <time>2020-12-17T14:02:19.000Z</time>
      </trkpt>
      <trkpt lat="47.00233" lon="-1.79518">
        <ele>52</ele>
        <time>2020-12-17T14:02:21.000Z</time>
      </trkpt>
      <trkpt lat="47.00238" lon="-1.795">
        <ele>52</ele>
        <time>2020-12-17T14:02:23.000Z</time>
      </trkpt>
      <trkpt lat="47.00243" lon="-1.79484">
        <ele>52</ele>
        <time>2020-12-17T14:02:25.000Z</time>
      </trkpt>
      <trkpt lat="47.00251" lon="-1.79458">
        <ele>52</ele>
        <time>2020-12-17T14:02:28.000Z</time>
      </trkpt>
      <trkpt lat="47.00256" lon="-1.7944">
        <ele>52</ele>
        <time>2020-12-17T14:02:30.000Z</time>
      </trkpt>
      <trkpt lat="47.00261" lon="-1.79423">
        <ele>52</ele>
        <time>2020-12-17T14:02:32.000Z</time>
      </trkpt>
      <trkpt lat="47.00266" lon="-1.79405">
        <ele>52</ele>
        <time>2020-12-17T14:02:34.000Z</time>
      </trkpt>
      <trkpt lat="47.00271" lon="-1.79389">
        <ele>52</ele>
        <time>2020-12-17T14:02:36.000Z</time>
      </trkpt>
      <trkpt lat="47.00278" lon="-1.79362">
        <ele>52</ele>
        <time>2020-12-17T14:02:39.000Z</time>
      </trkpt>
      <trkpt lat="47.00282" lon="-1.79345">
        <ele>51</ele>
        <time>2020-12-17T14:02:41.000Z</time>
      </trkpt>
      <trkpt lat="47.00285" lon="-1.79326">
        <ele>51</ele>
        <time>2020-12-17T14:02:43.000Z</time>
      </trkpt>
      <trkpt lat="47.00288" lon="-1.79308">
        <ele>52</ele>
        <time>2020-12-17T14:02:45.000Z</time>
      </trkpt>
      <trkpt lat="47.00291" lon="-1.7929">
        <ele>52</ele>
        <time>2020-12-17T14:02:47.000Z</time>
      </trkpt>
      <trkpt lat="47.00294" lon="-1.79272">
        <ele>52</ele>
        <time>2020-12-17T14:02:49.000Z</time>
      </trkpt>
      <trkpt lat="47.00298" lon="-1.79245">
        <ele>52</ele>
        <time>2020-12-17T14:02:52.000Z</time>
      </trkpt>
      <trkpt lat="47.00302" lon="-1.79227">
        <ele>52</ele>
        <time>2020-12-17T14:02:54.000Z</time>
      </trkpt>
      <trkpt lat="47.00304" lon="-1.79209">
        <ele>52</ele>
        <time>2020-12-17T14:02:56.000Z</time>
      </trkpt>
      <trkpt lat="47.00309" lon="-1.79182">
        <ele>52</ele>
        <time>2020-12-17T14:02:59.000Z</time>
      </trkpt>
      <trkpt lat="47.00315" lon="-1.79155">
        <ele>51</ele>
        <time>2020-12-17T14:03:02.000Z</time>
      </trkpt>
      <trkpt lat="47.00319" lon="-1.79136">
        <ele>51</ele>
        <time>2020-12-17T14:03:04.000Z</time>
      </trkpt>
      <trkpt lat="47.00324" lon="-1.79119">
        <ele>51</ele>
        <time>2020-12-17T14:03:06.000Z</time>
      </trkpt>
      <trkpt lat="47.00328" lon="-1.79103">
        <ele>51</ele>
        <time>2020-12-17T14:03:08.000Z</time>
      </trkpt>
      <trkpt lat="47.00333" lon="-1.79085">
        <ele>51</ele>
        <time>2020-12-17T14:03:10.000Z</time>
      </trkpt>
      <trkpt lat="47.00338" lon="-1.79068">
        <ele>51</ele>
        <time>2020-12-17T14:03:12.000Z</time>
      </trkpt>
      <trkpt lat="47.00343" lon="-1.79051">
        <ele>51</ele>
        <time>2020-12-17T14:03:14.000Z</time>
      </trkpt>
      <trkpt lat="47.00347" lon="-1.79033">
        <ele>51</ele>
        <time>2020-12-17T14:03:16.000Z</time>
      </trkpt>
      <trkpt lat="47.00354" lon="-1.79007">
        <ele>51</ele>
        <time>2020-12-17T14:03:19.000Z</time>
      </trkpt>
      <trkpt lat="47.00358" lon="-1.78988">
        <ele>51</ele>
        <time>2020-12-17T14:03:21.000Z</time>
      </trkpt>
      <trkpt lat="47.00362" lon="-1.7897">
        <ele>51</ele>
        <time>2020-12-17T14:03:23.000Z</time>
      </trkpt>
      <trkpt lat="47.00366" lon="-1.78953">
        <ele>51</ele>
        <time>2020-12-17T14:03:25.000Z</time>
      </trkpt>
      <trkpt lat="47.00371" lon="-1.78935">
        <ele>51</ele>
        <time>2020-12-17T14:03:27.000Z</time>
      </trkpt>
      <trkpt lat="47.00375" lon="-1.78917">
        <ele>51</ele>
        <time>2020-12-17T14:03:29.000Z</time>
      </trkpt>
      <trkpt lat="47.00379" lon="-1.78898">
        <ele>51</ele>
        <time>2020-12-17T14:03:31.000Z</time>
      </trkpt>
      <trkpt lat="47.00383" lon="-1.7888">
        <ele>51</ele>
        <time>2020-12-17T14:03:33.000Z</time>
      </trkpt>
      <trkpt lat="47.00387" lon="-1.78862">
        <ele>51</ele>
        <time>2020-12-17T14:03:35.000Z</time>
      </trkpt>
      <trkpt lat="47.00393" lon="-1.78835">
        <ele>52</ele>
        <time>2020-12-17T14:03:38.000Z</time>
      </trkpt>
      <trkpt lat="47.00396" lon="-1.78818">
        <ele>51</ele>
        <time>2020-12-17T14:03:40.000Z</time>
      </trkpt>
      <trkpt lat="47.00401" lon="-1.78791">
        <ele>51</ele>
        <time>2020-12-17T14:03:43.000Z</time>
      </trkpt>
      <trkpt lat="47.00404" lon="-1.78772">
        <ele>51</ele>
        <time>2020-12-17T14:03:45.000Z</time>
      </trkpt>
      <trkpt lat="47.00406" lon="-1.78754">
        <ele>51</ele>
        <time>2020-12-17T14:03:47.000Z</time>
      </trkpt>
      <trkpt lat="47.00408" lon="-1.78735">
        <ele>50</ele>
        <time>2020-12-17T14:03:49.000Z</time>
      </trkpt>
      <trkpt lat="47.00411" lon="-1.78716">
        <ele>51</ele>
        <time>2020-12-17T14:03:51.000Z</time>
      </trkpt>
      <trkpt lat="47.00413" lon="-1.78697">
        <ele>50</ele>
        <time>2020-12-17T14:03:53.000Z</time>
      </trkpt>
      <trkpt lat="47.00416" lon="-1.78679">
        <ele>50</ele>
        <time>2020-12-17T14:03:55.000Z</time>
      </trkpt>
      <trkpt lat="47.00419" lon="-1.7866">
        <ele>50</ele>
        <time>2020-12-17T14:03:57.000Z</time>
      </trkpt>
      <trkpt lat="47.00421" lon="-1.78641">
        <ele>50</ele>
        <time>2020-12-17T14:03:59.000Z</time>
      </trkpt>
      <trkpt lat="47.00423" lon="-1.78623">
        <ele>50</ele>
        <time>2020-12-17T14:04:01.000Z</time>
      </trkpt>
      <trkpt lat="47.00425" lon="-1.78606">
        <ele>50</ele>
        <time>2020-12-17T14:04:03.000Z</time>
      </trkpt>
      <trkpt lat="47.00429" lon="-1.78578">
        <ele>50</ele>
        <time>2020-12-17T14:04:06.000Z</time>
      </trkpt>
      <trkpt lat="47.00431" lon="-1.78559">
        <ele>50</ele>
        <time>2020-12-17T14:04:08.000Z</time>
      </trkpt>
      <trkpt lat="47.00434" lon="-1.78541">
        <ele>50</ele>
        <time>2020-12-17T14:04:10.000Z</time>
      </trkpt>
      <trkpt lat="47.00436" lon="-1.78523">
        <ele>50</ele>
        <time>2020-12-17T14:04:12.000Z</time>
      </trkpt>
      <trkpt lat="47.00439" lon="-1.78504">
        <ele>50</ele>
        <time>2020-12-17T14:04:14.000Z</time>
      </trkpt>
      <trkpt lat="47.00442" lon="-1.78485">
        <ele>49</ele>
        <time>2020-12-17T14:04:16.000Z</time>
      </trkpt>
      <trkpt lat="47.00447" lon="-1.78458">
        <ele>50</ele>
        <time>2020-12-17T14:04:19.000Z</time>
      </trkpt>
      <trkpt lat="47.00451" lon="-1.78441">
        <ele>50</ele>
        <time>2020-12-17T14:04:21.000Z</time>
      </trkpt>
      <trkpt lat="47.00454" lon="-1.78423">
        <ele>50</ele>
        <time>2020-12-17T14:04:23.000Z</time>
      </trkpt>
      <trkpt lat="47.00458" lon="-1.78406">
        <ele>50</ele>
        <time>2020-12-17T14:04:25.000Z</time>
      </trkpt>
      <trkpt lat="47.00462" lon="-1.78388">
        <ele>50</ele>
        <time>2020-12-17T14:04:27.000Z</time>
      </trkpt>
      <trkpt lat="47.00467" lon="-1.7837">
        <ele>50</ele>
        <time>2020-12-17T14:04:29.000Z</time>
      </trkpt>
      <trkpt lat="47.00471" lon="-1.78353">
        <ele>50</ele>
        <time>2020-12-17T14:04:31.000Z</time>
      </trkpt>
      <trkpt lat="47.00476" lon="-1.78335">
        <ele>49</ele>
        <time>2020-12-17T14:04:33.000Z</time>
      </trkpt>
      <trkpt lat="47.0048" lon="-1.78317">
        <ele>49</ele>
        <time>2020-12-17T14:04:35.000Z</time>
      </trkpt>
      <trkpt lat="47.00484" lon="-1.783">
        <ele>49</ele>
        <time>2020-12-17T14:04:37.000Z</time>
      </trkpt>
      <trkpt lat="47.00489" lon="-1.78282">
        <ele>49</ele>
        <time>2020-12-17T14:04:39.000Z</time>
      </trkpt>
      <trkpt lat="47.00493" lon="-1.78264">
        <ele>49</ele>
        <time>2020-12-17T14:04:41.000Z</time>
      </trkpt>
      <trkpt lat="47.00497" lon="-1.78247">
        <ele>48</ele>
        <time>2020-12-17T14:04:43.000Z</time>
      </trkpt>
      <trkpt lat="47.00501" lon="-1.78229">
        <ele>48</ele>
        <time>2020-12-17T14:04:45.000Z</time>
      </trkpt>
      <trkpt lat="47.00506" lon="-1.78212">
        <ele>48</ele>
        <time>2020-12-17T14:04:47.000Z</time>
      </trkpt>
      <trkpt lat="47.0051" lon="-1.78195">
        <ele>49</ele>
        <time>2020-12-17T14:04:49.000Z</time>
      </trkpt>
      <trkpt lat="47.00514" lon="-1.78178">
        <ele>49</ele>
        <time>2020-12-17T14:04:51.000Z</time>
      </trkpt>
      <trkpt lat="47.00518" lon="-1.78161">
        <ele>49</ele>
        <time>2020-12-17T14:04:53.000Z</time>
      </trkpt>
      <trkpt lat="47.00522" lon="-1.78144">
        <ele>50</ele>
        <time>2020-12-17T14:04:55.000Z</time>
      </trkpt>
      <trkpt lat="47.00527" lon="-1.78127">
        <ele>50</ele>
        <time>2020-12-17T14:04:57.000Z</time>
      </trkpt>
      <trkpt lat="47.00532" lon="-1.78108">
        <ele>50</ele>
        <time>2020-12-17T14:04:59.000Z</time>
      </trkpt>
      <trkpt lat="47.00536" lon="-1.7809">
        <ele>49</ele>
        <time>2020-12-17T14:05:01.000Z</time>
      </trkpt>
      <trkpt lat="47.00541" lon="-1.78072">
        <ele>50</ele>
        <time>2020-12-17T14:05:03.000Z</time>
      </trkpt>
      <trkpt lat="47.00545" lon="-1.78053">
        <ele>50</ele>
        <time>2020-12-17T14:05:05.000Z</time>
      </trkpt>
      <trkpt lat="47.0055" lon="-1.78036">
        <ele>50</ele>
        <time>2020-12-17T14:05:07.000Z</time>
      </trkpt>
      <trkpt lat="47.00554" lon="-1.78018">
        <ele>50</ele>
        <time>2020-12-17T14:05:09.000Z</time>
      </trkpt>
      <trkpt lat="47.00558" lon="-1.78">
        <ele>49</ele>
        <time>2020-12-17T14:05:11.000Z</time>
      </trkpt>
      <trkpt lat="47.00563" lon="-1.77983">
        <ele>50</ele>
        <time>2020-12-17T14:05:13.000Z</time>
      </trkpt>
      <trkpt lat="47.00567" lon="-1.77965">
        <ele>50</ele>
        <time>2020-12-17T14:05:15.000Z</time>
      </trkpt>
      <trkpt lat="47.00572" lon="-1.77947">
        <ele>49</ele>
        <time>2020-12-17T14:05:17.000Z</time>
      </trkpt>
      <trkpt lat="47.00576" lon="-1.7793">
        <ele>49</ele>
        <time>2020-12-17T14:05:19.000Z</time>
      </trkpt>
      <trkpt lat="47.0058" lon="-1.77912">
        <ele>49</ele>
        <time>2020-12-17T14:05:21.000Z</time>
      </trkpt>
      <trkpt lat="47.00585" lon="-1.77895">
        <ele>49</ele>
        <time>2020-12-17T14:05:23.000Z</time>
      </trkpt>
      <trkpt lat="47.00589" lon="-1.77878">
        <ele>49</ele>
        <time>2020-12-17T14:05:25.000Z</time>
      </trkpt>
      <trkpt lat="47.00593" lon="-1.7786">
        <ele>49</ele>
        <time>2020-12-17T14:05:27.000Z</time>
      </trkpt>
      <trkpt lat="47.00597" lon="-1.77843">
        <ele>49</ele>
        <time>2020-12-17T14:05:29.000Z</time>
      </trkpt>
      <trkpt lat="47.00601" lon="-1.77825">
        <ele>49</ele>
        <time>2020-12-17T14:05:31.000Z</time>
      </trkpt>
      <trkpt lat="47.00606" lon="-1.77808">
        <ele>49</ele>
        <time>2020-12-17T14:05:33.000Z</time>
      </trkpt>
      <trkpt lat="47.0061" lon="-1.7779">
        <ele>49</ele>
        <time>2020-12-17T14:05:35.000Z</time>
      </trkpt>
      <trkpt lat="47.00615" lon="-1.77774">
        <ele>49</ele>
        <time>2020-12-17T14:05:37.000Z</time>
      </trkpt>
      <trkpt lat="47.00619" lon="-1.77756">
        <ele>49</ele>
        <time>2020-12-17T14:05:39.000Z</time>
      </trkpt>
      <trkpt lat="47.00623" lon="-1.77739">
        <ele>50</ele>
        <time>2020-12-17T14:05:41.000Z</time>
      </trkpt>
      <trkpt lat="47.00627" lon="-1.77723">
        <ele>50</ele>
        <time>2020-12-17T14:05:43.000Z</time>
      </trkpt>
      <trkpt lat="47.00631" lon="-1.77706">
        <ele>50</ele>
        <time>2020-12-17T14:05:45.000Z</time>
      </trkpt>
      <trkpt lat="47.00635" lon="-1.77689">
        <ele>50</ele>
        <time>2020-12-17T14:05:47.000Z</time>
      </trkpt>
      <trkpt lat="47.00639" lon="-1.77673">
        <ele>50</ele>
        <time>2020-12-17T14:05:49.000Z</time>
      </trkpt>
      <trkpt lat="47.00643" lon="-1.77656">
        <ele>50</ele>
        <time>2020-12-17T14:05:51.000Z</time>
      </trkpt>
      <trkpt lat="47.00648" lon="-1.77639">
        <ele>50</ele>
        <time>2020-12-17T14:05:53.000Z</time>
      </trkpt>
      <trkpt lat="47.00652" lon="-1.77623">
        <ele>50</ele>
        <time>2020-12-17T14:05:55.000Z</time>
      </trkpt>
      <trkpt lat="47.00656" lon="-1.77606">
        <ele>50</ele>
        <time>2020-12-17T14:05:57.000Z</time>
      </trkpt>
      <trkpt lat="47.0066" lon="-1.77589">
        <ele>50</ele>
        <time>2020-12-17T14:05:59.000Z</time>
      </trkpt>
      <trkpt lat="47.00663" lon="-1.77574">
        <ele>50</ele>
        <time>2020-12-17T14:06:01.000Z</time>
      </trkpt>
      <trkpt lat="47.00667" lon="-1.77558">
        <ele>51</ele>
        <time>2020-12-17T14:06:03.000Z</time>
      </trkpt>
      <trkpt lat="47.00671" lon="-1.77542">
        <ele>51</ele>
        <time>2020-12-17T14:06:05.000Z</time>
      </trkpt>
      <trkpt lat="47.00676" lon="-1.77526">
        <ele>52</ele>
        <time>2020-12-17T14:06:07.000Z</time>
      </trkpt>
      <trkpt lat="47.00681" lon="-1.7751">
        <ele>52</ele>
        <time>2020-12-17T14:06:09.000Z</time>
      </trkpt>
      <trkpt lat="47.00685" lon="-1.77495">
        <ele>52</ele>
        <time>2020-12-17T14:06:11.000Z</time>
      </trkpt>
      <trkpt lat="47.0069" lon="-1.77481">
        <ele>52</ele>
        <time>2020-12-17T14:06:13.000Z</time>
      </trkpt>
      <trkpt lat="47.00695" lon="-1.77467">
        <ele>53</ele>
        <time>2020-12-17T14:06:15.000Z</time>
      </trkpt>
      <trkpt lat="47.007" lon="-1.77454">
        <ele>53</ele>
        <time>2020-12-17T14:06:17.000Z</time>
      </trkpt>
      <trkpt lat="47.00705" lon="-1.77441">
        <ele>53</ele>
        <time>2020-12-17T14:06:19.000Z</time>
      </trkpt>
      <trkpt lat="47.0071" lon="-1.77428">
        <ele>53</ele>
        <time>2020-12-17T14:06:21.000Z</time>
      </trkpt>
      <trkpt lat="47.00715" lon="-1.77415">
        <ele>54</ele>
        <time>2020-12-17T14:06:23.000Z</time>
      </trkpt>
      <trkpt lat="47.0072" lon="-1.774">
        <ele>54</ele>
        <time>2020-12-17T14:06:25.000Z</time>
      </trkpt>
      <trkpt lat="47.00725" lon="-1.77386">
        <ele>54</ele>
        <time>2020-12-17T14:06:27.000Z</time>
      </trkpt>
      <trkpt lat="47.00731" lon="-1.77373">
        <ele>55</ele>
        <time>2020-12-17T14:06:29.000Z</time>
      </trkpt>
      <trkpt lat="47.00737" lon="-1.77361">
        <ele>56</ele>
        <time>2020-12-17T14:06:31.000Z</time>
      </trkpt>
      <trkpt lat="47.00744" lon="-1.77349">
        <ele>56</ele>
        <time>2020-12-17T14:06:33.000Z</time>
      </trkpt>
      <trkpt lat="47.00752" lon="-1.77338">
        <ele>56</ele>
        <time>2020-12-17T14:06:35.000Z</time>
      </trkpt>
      <trkpt lat="47.0076" lon="-1.77327">
        <ele>57</ele>
        <time>2020-12-17T14:06:37.000Z</time>
      </trkpt>
      <trkpt lat="47.00768" lon="-1.77317">
        <ele>57</ele>
        <time>2020-12-17T14:06:39.000Z</time>
      </trkpt>
      <trkpt lat="47.00778" lon="-1.77309">
        <ele>57</ele>
        <time>2020-12-17T14:06:41.000Z</time>
      </trkpt>
      <trkpt lat="47.00786" lon="-1.77302">
        <ele>57</ele>
        <time>2020-12-17T14:06:43.000Z</time>
      </trkpt>
      <trkpt lat="47.00794" lon="-1.77295">
        <ele>57</ele>
        <time>2020-12-17T14:06:45.000Z</time>
      </trkpt>
      <trkpt lat="47.00803" lon="-1.77288">
        <ele>58</ele>
        <time>2020-12-17T14:06:47.000Z</time>
      </trkpt>
      <trkpt lat="47.00814" lon="-1.77283">
        <ele>59</ele>
        <time>2020-12-17T14:06:49.000Z</time>
      </trkpt>
      <trkpt lat="47.00824" lon="-1.77279">
        <ele>60</ele>
        <time>2020-12-17T14:06:51.000Z</time>
      </trkpt>
      <trkpt lat="47.00835" lon="-1.77274">
        <ele>60</ele>
        <time>2020-12-17T14:06:53.000Z</time>
      </trkpt>
      <trkpt lat="47.00845" lon="-1.77268">
        <ele>60</ele>
        <time>2020-12-17T14:06:55.000Z</time>
      </trkpt>
      <trkpt lat="47.00855" lon="-1.77262">
        <ele>60</ele>
        <time>2020-12-17T14:06:57.000Z</time>
      </trkpt>
      <trkpt lat="47.00864" lon="-1.77255">
        <ele>61</ele>
        <time>2020-12-17T14:06:59.000Z</time>
      </trkpt>
      <trkpt lat="47.00874" lon="-1.77247">
        <ele>61</ele>
        <time>2020-12-17T14:07:01.000Z</time>
      </trkpt>
      <trkpt lat="47.00883" lon="-1.77238">
        <ele>61</ele>
        <time>2020-12-17T14:07:03.000Z</time>
      </trkpt>
      <trkpt lat="47.00893" lon="-1.77229">
        <ele>61</ele>
        <time>2020-12-17T14:07:05.000Z</time>
      </trkpt>
      <trkpt lat="47.00902" lon="-1.7722">
        <ele>61</ele>
        <time>2020-12-17T14:07:07.000Z</time>
      </trkpt>
      <trkpt lat="47.00911" lon="-1.77211">
        <ele>61</ele>
        <time>2020-12-17T14:07:09.000Z</time>
      </trkpt>
      <trkpt lat="47.0092" lon="-1.77202">
        <ele>60</ele>
        <time>2020-12-17T14:07:11.000Z</time>
      </trkpt>
      <trkpt lat="47.0093" lon="-1.77192">
        <ele>61</ele>
        <time>2020-12-17T14:07:13.000Z</time>
      </trkpt>
      <trkpt lat="47.00938" lon="-1.77183">
        <ele>60</ele>
        <time>2020-12-17T14:07:15.000Z</time>
      </trkpt>
      <trkpt lat="47.00947" lon="-1.77175">
        <ele>60</ele>
        <time>2020-12-17T14:07:17.000Z</time>
      </trkpt>
      <trkpt lat="47.00954" lon="-1.77165">
        <ele>61</ele>
        <time>2020-12-17T14:07:19.000Z</time>
      </trkpt>
      <trkpt lat="47.00957" lon="-1.77152">
        <ele>61</ele>
        <time>2020-12-17T14:07:21.000Z</time>
      </trkpt>
      <trkpt lat="47.00954" lon="-1.77139">
        <ele>60</ele>
        <time>2020-12-17T14:07:23.000Z</time>
      </trkpt>
      <trkpt lat="47.00946" lon="-1.77126">
        <ele>59</ele>
        <time>2020-12-17T14:07:25.000Z</time>
      </trkpt>
      <trkpt lat="47.00938" lon="-1.77115">
        <ele>59</ele>
        <time>2020-12-17T14:07:27.000Z</time>
      </trkpt>
      <trkpt lat="47.00929" lon="-1.77104">
        <ele>59</ele>
        <time>2020-12-17T14:07:29.000Z</time>
      </trkpt>
      <trkpt lat="47.00921" lon="-1.77095">
        <ele>59</ele>
        <time>2020-12-17T14:07:31.000Z</time>
      </trkpt>
      <trkpt lat="47.00911" lon="-1.77087">
        <ele>59</ele>
        <time>2020-12-17T14:07:33.000Z</time>
      </trkpt>
      <trkpt lat="47.00901" lon="-1.7708">
        <ele>59</ele>
        <time>2020-12-17T14:07:35.000Z</time>
      </trkpt>
      <trkpt lat="47.00891" lon="-1.77073">
        <ele>59</ele>
        <time>2020-12-17T14:07:37.000Z</time>
      </trkpt>
      <trkpt lat="47.00881" lon="-1.77068">
        <ele>59</ele>
        <time>2020-12-17T14:07:39.000Z</time>
      </trkpt>
      <trkpt lat="47.00871" lon="-1.77062">
        <ele>58</ele>
        <time>2020-12-17T14:07:41.000Z</time>
      </trkpt>
      <trkpt lat="47.0086" lon="-1.77058">
        <ele>58</ele>
        <time>2020-12-17T14:07:43.000Z</time>
      </trkpt>
      <trkpt lat="47.00849" lon="-1.77055">
        <ele>58</ele>
        <time>2020-12-17T14:07:45.000Z</time>
      </trkpt>
      <trkpt lat="47.00839" lon="-1.77051">
        <ele>57</ele>
        <time>2020-12-17T14:07:47.000Z</time>
      </trkpt>
      <trkpt lat="47.00829" lon="-1.77047">
        <ele>58</ele>
        <time>2020-12-17T14:07:49.000Z</time>
      </trkpt>
      <trkpt lat="47.00818" lon="-1.77043">
        <ele>58</ele>
        <time>2020-12-17T14:07:51.000Z</time>
      </trkpt>
      <trkpt lat="47.00807" lon="-1.77039">
        <ele>58</ele>
        <time>2020-12-17T14:07:53.000Z</time>
      </trkpt>
      <trkpt lat="47.00796" lon="-1.77034">
        <ele>58</ele>
        <time>2020-12-17T14:07:55.000Z</time>
      </trkpt>
      <trkpt lat="47.00786" lon="-1.77029">
        <ele>58</ele>
        <time>2020-12-17T14:07:57.000Z</time>
      </trkpt>
      <trkpt lat="47.00774" lon="-1.77025">
        <ele>59</ele>
        <time>2020-12-17T14:07:59.000Z</time>
      </trkpt>
      <trkpt lat="47.00763" lon="-1.7702">
        <ele>58</ele>
        <time>2020-12-17T14:08:01.000Z</time>
      </trkpt>
      <trkpt lat="47.00752" lon="-1.77015">
        <ele>58</ele>
        <time>2020-12-17T14:08:03.000Z</time>
      </trkpt>
      <trkpt lat="47.00741" lon="-1.77011">
        <ele>58</ele>
        <time>2020-12-17T14:08:05.000Z</time>
      </trkpt>
      <trkpt lat="47.0073" lon="-1.77006">
        <ele>58</ele>
        <time>2020-12-17T14:08:07.000Z</time>
      </trkpt>
      <trkpt lat="47.00719" lon="-1.77002">
        <ele>59</ele>
        <time>2020-12-17T14:08:09.000Z</time>
      </trkpt>
      <trkpt lat="47.00707" lon="-1.76998">
        <ele>59</ele>
        <time>2020-12-17T14:08:11.000Z</time>
      </trkpt>
      <trkpt lat="47.00695" lon="-1.76992">
        <ele>60</ele>
        <time>2020-12-17T14:08:13.000Z</time>
      </trkpt>
      <trkpt lat="47.00683" lon="-1.76988">
        <ele>60</ele>
        <time>2020-12-17T14:08:15.000Z</time>
      </trkpt>
      <trkpt lat="47.00671" lon="-1.76983">
        <ele>60</ele>
        <time>2020-12-17T14:08:17.000Z</time>
      </trkpt>
      <trkpt lat="47.00659" lon="-1.76977">
        <ele>60</ele>
        <time>2020-12-17T14:08:19.000Z</time>
      </trkpt>
      <trkpt lat="47.00646" lon="-1.76972">
        <ele>60</ele>
        <time>2020-12-17T14:08:21.000Z</time>
      </trkpt>
      <trkpt lat="47.00633" lon="-1.76967">
        <ele>60</ele>
        <time>2020-12-17T14:08:23.000Z</time>
      </trkpt>
      <trkpt lat="47.0062" lon="-1.76961">
        <ele>61</ele>
        <time>2020-12-17T14:08:25.000Z</time>
      </trkpt>
      <trkpt lat="47.00609" lon="-1.76955">
        <ele>60</ele>
        <time>2020-12-17T14:08:27.000Z</time>
      </trkpt>
      <trkpt lat="47.00596" lon="-1.76948">
        <ele>60</ele>
        <time>2020-12-17T14:08:29.000Z</time>
      </trkpt>
      <trkpt lat="47.00585" lon="-1.7694">
        <ele>60</ele>
        <time>2020-12-17T14:08:31.000Z</time>
      </trkpt>
      <trkpt lat="47.00572" lon="-1.76931">
        <ele>59</ele>
        <time>2020-12-17T14:08:33.000Z</time>
      </trkpt>
      <trkpt lat="47.00561" lon="-1.7692">
        <ele>59</ele>
        <time>2020-12-17T14:08:35.000Z</time>
      </trkpt>
      <trkpt lat="47.00551" lon="-1.76909">
        <ele>59</ele>
        <time>2020-12-17T14:08:37.000Z</time>
      </trkpt>
      <trkpt lat="47.00539" lon="-1.76898">
        <ele>59</ele>
        <time>2020-12-17T14:08:39.000Z</time>
      </trkpt>
      <trkpt lat="47.00529" lon="-1.76887">
        <ele>59</ele>
        <time>2020-12-17T14:08:41.000Z</time>
      </trkpt>
      <trkpt lat="47.00518" lon="-1.76876">
        <ele>59</ele>
        <time>2020-12-17T14:08:43.000Z</time>
      </trkpt>
      <trkpt lat="47.00507" lon="-1.76864">
        <ele>59</ele>
        <time>2020-12-17T14:08:45.000Z</time>
      </trkpt>
      <trkpt lat="47.00496" lon="-1.76854">
        <ele>58</ele>
        <time>2020-12-17T14:08:47.000Z</time>
      </trkpt>
      <trkpt lat="47.00485" lon="-1.76843">
        <ele>58</ele>
        <time>2020-12-17T14:08:49.000Z</time>
      </trkpt>
      <trkpt lat="47.00475" lon="-1.76833">
        <ele>57</ele>
        <time>2020-12-17T14:08:51.000Z</time>
      </trkpt>
      <trkpt lat="47.00465" lon="-1.76821">
        <ele>57</ele>
        <time>2020-12-17T14:08:53.000Z</time>
      </trkpt>
      <trkpt lat="47.00454" lon="-1.7681">
        <ele>57</ele>
        <time>2020-12-17T14:08:55.000Z</time>
      </trkpt>
      <trkpt lat="47.00443" lon="-1.76799">
        <ele>57</ele>
        <time>2020-12-17T14:08:57.000Z</time>
      </trkpt>
      <trkpt lat="47.00433" lon="-1.76788">
        <ele>57</ele>
        <time>2020-12-17T14:08:59.000Z</time>
      </trkpt>
      <trkpt lat="47.00422" lon="-1.76777">
        <ele>57</ele>
        <time>2020-12-17T14:09:01.000Z</time>
      </trkpt>
      <trkpt lat="47.00411" lon="-1.76766">
        <ele>56</ele>
        <time>2020-12-17T14:09:03.000Z</time>
      </trkpt>
      <trkpt lat="47.004" lon="-1.76755">
        <ele>55</ele>
        <time>2020-12-17T14:09:05.000Z</time>
      </trkpt>
      <trkpt lat="47.00389" lon="-1.76742">
        <ele>55</ele>
        <time>2020-12-17T14:09:07.000Z</time>
      </trkpt>
      <trkpt lat="47.00378" lon="-1.76731">
        <ele>54</ele>
        <time>2020-12-17T14:09:09.000Z</time>
      </trkpt>
      <trkpt lat="47.00367" lon="-1.76719">
        <ele>53</ele>
        <time>2020-12-17T14:09:11.000Z</time>
      </trkpt>
      <trkpt lat="47.00356" lon="-1.76708">
        <ele>53</ele>
        <time>2020-12-17T14:09:13.000Z</time>
      </trkpt>
      <trkpt lat="47.00344" lon="-1.76697">
        <ele>52</ele>
        <time>2020-12-17T14:09:15.000Z</time>
      </trkpt>
      <trkpt lat="47.00333" lon="-1.76686">
        <ele>52</ele>
        <time>2020-12-17T14:09:17.000Z</time>
      </trkpt>
      <trkpt lat="47.0032" lon="-1.76676">
        <ele>51</ele>
        <time>2020-12-17T14:09:19.000Z</time>
      </trkpt>
      <trkpt lat="47.00308" lon="-1.76667">
        <ele>52</ele>
        <time>2020-12-17T14:09:21.000Z</time>
      </trkpt>
      <trkpt lat="47.00295" lon="-1.7666">
        <ele>52</ele>
        <time>2020-12-17T14:09:23.000Z</time>
      </trkpt>
      <trkpt lat="47.00282" lon="-1.76653">
        <ele>51</ele>
        <time>2020-12-17T14:09:25.000Z</time>
      </trkpt>
      <trkpt lat="47.00269" lon="-1.76647">
        <ele>51</ele>
        <time>2020-12-17T14:09:27.000Z</time>
      </trkpt>
      <trkpt lat="47.00256" lon="-1.76641">
        <ele>51</ele>
        <time>2020-12-17T14:09:29.000Z</time>
      </trkpt>
      <trkpt lat="47.00242" lon="-1.76635">
        <ele>51</ele>
        <time>2020-12-17T14:09:31.000Z</time>
      </trkpt>
      <trkpt lat="47.00229" lon="-1.76629">
        <ele>51</ele>
        <time>2020-12-17T14:09:33.000Z</time>
      </trkpt>
      <trkpt lat="47.00216" lon="-1.76625">
        <ele>51</ele>
        <time>2020-12-17T14:09:35.000Z</time>
      </trkpt>
      <trkpt lat="47.00204" lon="-1.76619">
        <ele>50</ele>
        <time>2020-12-17T14:09:37.000Z</time>
      </trkpt>
      <trkpt lat="47.00191" lon="-1.76613">
        <ele>50</ele>
        <time>2020-12-17T14:09:39.000Z</time>
      </trkpt>
      <trkpt lat="47.00179" lon="-1.76607">
        <ele>50</ele>
        <time>2020-12-17T14:09:41.000Z</time>
      </trkpt>
      <trkpt lat="47.00166" lon="-1.76601">
        <ele>49</ele>
        <time>2020-12-17T14:09:43.000Z</time>
      </trkpt>
      <trkpt lat="47.00154" lon="-1.76596">
        <ele>49</ele>
        <time>2020-12-17T14:09:45.000Z</time>
      </trkpt>
      <trkpt lat="47.00142" lon="-1.76591">
        <ele>49</ele>
        <time>2020-12-17T14:09:47.000Z</time>
      </trkpt>
      <trkpt lat="47.00129" lon="-1.76586">
        <ele>50</ele>
        <time>2020-12-17T14:09:49.000Z</time>
      </trkpt>
      <trkpt lat="47.00117" lon="-1.76582">
        <ele>49</ele>
        <time>2020-12-17T14:09:51.000Z</time>
      </trkpt>
      <trkpt lat="47.00105" lon="-1.76576">
        <ele>49</ele>
        <time>2020-12-17T14:09:53.000Z</time>
      </trkpt>
      <trkpt lat="47.00094" lon="-1.76571">
        <ele>49</ele>
        <time>2020-12-17T14:09:55.000Z</time>
      </trkpt>
      <trkpt lat="47.00082" lon="-1.76565">
        <ele>49</ele>
        <time>2020-12-17T14:09:57.000Z</time>
      </trkpt>
      <trkpt lat="47.00071" lon="-1.76557">
        <ele>49</ele>
        <time>2020-12-17T14:09:59.000Z</time>
      </trkpt>
      <trkpt lat="47.00061" lon="-1.76547">
        <ele>49</ele>
        <time>2020-12-17T14:10:01.000Z</time>
      </trkpt>
      <trkpt lat="47.00052" lon="-1.76534">
        <ele>49</ele>
        <time>2020-12-17T14:10:03.000Z</time>
      </trkpt>
      <trkpt lat="47.00045" lon="-1.76519">
        <ele>49</ele>
        <time>2020-12-17T14:10:05.000Z</time>
      </trkpt>
      <trkpt lat="47.00039" lon="-1.76502">
        <ele>49</ele>
        <time>2020-12-17T14:10:07.000Z</time>
      </trkpt>
      <trkpt lat="47.00035" lon="-1.76483">
        <ele>49</ele>
        <time>2020-12-17T14:10:09.000Z</time>
      </trkpt>
      <trkpt lat="47.00031" lon="-1.76466">
        <ele>50</ele>
        <time>2020-12-17T14:10:11.000Z</time>
      </trkpt>
      <trkpt lat="47.00027" lon="-1.76447">
        <ele>49</ele>
        <time>2020-12-17T14:10:13.000Z</time>
      </trkpt>
      <trkpt lat="47.00024" lon="-1.7643">
        <ele>49</ele>
        <time>2020-12-17T14:10:15.000Z</time>
      </trkpt>
      <trkpt lat="47.0002" lon="-1.76412">
        <ele>49</ele>
        <time>2020-12-17T14:10:17.000Z</time>
      </trkpt>
      <trkpt lat="47.00016" lon="-1.76394">
        <ele>49</ele>
        <time>2020-12-17T14:10:19.000Z</time>
      </trkpt>
      <trkpt lat="47.00012" lon="-1.76377">
        <ele>50</ele>
        <time>2020-12-17T14:10:21.000Z</time>
      </trkpt>
      <trkpt lat="47.00008" lon="-1.7636">
        <ele>50</ele>
        <time>2020-12-17T14:10:23.000Z</time>
      </trkpt>
      <trkpt lat="47.00004" lon="-1.76342">
        <ele>51</ele>
        <time>2020-12-17T14:10:25.000Z</time>
      </trkpt>
      <trkpt lat="47" lon="-1.76325">
        <ele>51</ele>
        <time>2020-12-17T14:10:27.000Z</time>
      </trkpt>
      <trkpt lat="46.99996" lon="-1.76307">
        <ele>50</ele>
        <time>2020-12-17T14:10:29.000Z</time>
      </trkpt>
      <trkpt lat="46.99992" lon="-1.76289">
        <ele>50</ele>
        <time>2020-12-17T14:10:31.000Z</time>
      </trkpt>
      <trkpt lat="46.99988" lon="-1.76271">
        <ele>49</ele>
        <time>2020-12-17T14:10:33.000Z</time>
      </trkpt>
      <trkpt lat="46.99985" lon="-1.76254">
        <ele>49</ele>
        <time>2020-12-17T14:10:35.000Z</time>
      </trkpt>
      <trkpt lat="46.9998" lon="-1.76237">
        <ele>49</ele>
        <time>2020-12-17T14:10:37.000Z</time>
      </trkpt>
      <trkpt lat="46.99976" lon="-1.7622">
        <ele>50</ele>
        <time>2020-12-17T14:10:39.000Z</time>
      </trkpt>
      <trkpt lat="46.99971" lon="-1.76205">
        <ele>50</ele>
        <time>2020-12-17T14:10:41.000Z</time>
      </trkpt>
      <trkpt lat="46.99965" lon="-1.76188">
        <ele>50</ele>
        <time>2020-12-17T14:10:43.000Z</time>
      </trkpt>
      <trkpt lat="46.99959" lon="-1.76172">
        <ele>50</ele>
        <time>2020-12-17T14:10:45.000Z</time>
      </trkpt>
      <trkpt lat="46.99953" lon="-1.76154">
        <ele>50</ele>
        <time>2020-12-17T14:10:47.000Z</time>
      </trkpt>
      <trkpt lat="46.99948" lon="-1.76137">
        <ele>51</ele>
        <time>2020-12-17T14:10:49.000Z</time>
      </trkpt>
      <trkpt lat="46.99943" lon="-1.7612">
        <ele>51</ele>
        <time>2020-12-17T14:10:51.000Z</time>
      </trkpt>
      <trkpt lat="46.99939" lon="-1.76103">
        <ele>51</ele>
        <time>2020-12-17T14:10:53.000Z</time>
      </trkpt>
      <trkpt lat="46.99934" lon="-1.76086">
        <ele>51</ele>
        <time>2020-12-17T14:10:55.000Z</time>
      </trkpt>
      <trkpt lat="46.9993" lon="-1.76069">
        <ele>51</ele>
        <time>2020-12-17T14:10:57.000Z</time>
      </trkpt>
      <trkpt lat="46.99926" lon="-1.76051">
        <ele>51</ele>
        <time>2020-12-17T14:10:59.000Z</time>
      </trkpt>
      <trkpt lat="46.99923" lon="-1.76034">
        <ele>51</ele>
        <time>2020-12-17T14:11:01.000Z</time>
      </trkpt>
      <trkpt lat="46.99919" lon="-1.76017">
        <ele>51</ele>
        <time>2020-12-17T14:11:03.000Z</time>
      </trkpt>
      <trkpt lat="46.99916" lon="-1.75999">
        <ele>51</ele>
        <time>2020-12-17T14:11:05.000Z</time>
      </trkpt>
      <trkpt lat="46.99912" lon="-1.75981">
        <ele>51</ele>
        <time>2020-12-17T14:11:07.000Z</time>
      </trkpt>
      <trkpt lat="46.9991" lon="-1.75963">
        <ele>52</ele>
        <time>2020-12-17T14:11:09.000Z</time>
      </trkpt>
      <trkpt lat="46.99907" lon="-1.75945">
        <ele>52</ele>
        <time>2020-12-17T14:11:11.000Z</time>
      </trkpt>
      <trkpt lat="46.99904" lon="-1.75927">
        <ele>52</ele>
        <time>2020-12-17T14:11:13.000Z</time>
      </trkpt>
      <trkpt lat="46.99902" lon="-1.75909">
        <ele>52</ele>
        <time>2020-12-17T14:11:15.000Z</time>
      </trkpt>
      <trkpt lat="46.999" lon="-1.75891">
        <ele>52</ele>
        <time>2020-12-17T14:11:17.000Z</time>
      </trkpt>
      <trkpt lat="46.99897" lon="-1.75873">
        <ele>53</ele>
        <time>2020-12-17T14:11:19.000Z</time>
      </trkpt>
      <trkpt lat="46.99895" lon="-1.75856">
        <ele>53</ele>
        <time>2020-12-17T14:11:21.000Z</time>
      </trkpt>
      <trkpt lat="46.99892" lon="-1.75838">
        <ele>52</ele>
        <time>2020-12-17T14:11:23.000Z</time>
      </trkpt>
      <trkpt lat="46.9989" lon="-1.75819">
        <ele>52</ele>
        <time>2020-12-17T14:11:25.000Z</time>
      </trkpt>
      <trkpt lat="46.99888" lon="-1.758">
        <ele>52</ele>
        <time>2020-12-17T14:11:27.000Z</time>
      </trkpt>
      <trkpt lat="46.99886" lon="-1.75784">
        <ele>52</ele>
        <time>2020-12-17T14:11:29.000Z</time>
      </trkpt>
      <trkpt lat="46.99884" lon="-1.75767">
        <ele>52</ele>
        <time>2020-12-17T14:11:31.000Z</time>
      </trkpt>
      <trkpt lat="46.99881" lon="-1.75749">
        <ele>52</ele>
        <time>2020-12-17T14:11:33.000Z</time>
      </trkpt>
      <trkpt lat="46.9988" lon="-1.75731">
        <ele>52</ele>
        <time>2020-12-17T14:11:35.000Z</time>
      </trkpt>
      <trkpt lat="46.99878" lon="-1.75714">
        <ele>52</ele>
        <time>2020-12-17T14:11:37.000Z</time>
      </trkpt>
      <trkpt lat="46.99876" lon="-1.75697">
        <ele>52</ele>
        <time>2020-12-17T14:11:39.000Z</time>
      </trkpt>
      <trkpt lat="46.99873" lon="-1.75679">
        <ele>53</ele>
        <time>2020-12-17T14:11:41.000Z</time>
      </trkpt>
      <trkpt lat="46.99871" lon="-1.75661">
        <ele>53</ele>
        <time>2020-12-17T14:11:43.000Z</time>
      </trkpt>
      <trkpt lat="46.9987" lon="-1.75643">
        <ele>52</ele>
        <time>2020-12-17T14:11:45.000Z</time>
      </trkpt>
      <trkpt lat="46.99869" lon="-1.75624">
        <ele>52</ele>
        <time>2020-12-17T14:11:47.000Z</time>
      </trkpt>
      <trkpt lat="46.99868" lon="-1.75606">
        <ele>52</ele>
        <time>2020-12-17T14:11:49.000Z</time>
      </trkpt>
      <trkpt lat="46.99866" lon="-1.75587">
        <ele>52</ele>
        <time>2020-12-17T14:11:51.000Z</time>
      </trkpt>
      <trkpt lat="46.99865" lon="-1.75568">
        <ele>53</ele>
        <time>2020-12-17T14:11:53.000Z</time>
      </trkpt>
      <trkpt lat="46.99863" lon="-1.7555">
        <ele>53</ele>
        <time>2020-12-17T14:11:55.000Z</time>
      </trkpt>
      <trkpt lat="46.99862" lon="-1.75532">
        <ele>53</ele>
        <time>2020-12-17T14:11:57.000Z</time>
      </trkpt>
      <trkpt lat="46.9986" lon="-1.75514">
        <ele>53</ele>
        <time>2020-12-17T14:11:59.000Z</time>
      </trkpt>
      <trkpt lat="46.99858" lon="-1.75497">
        <ele>53</ele>
        <time>2020-12-17T14:12:01.000Z</time>
      </trkpt>
      <trkpt lat="46.99855" lon="-1.75481">
        <ele>53</ele>
        <time>2020-12-17T14:12:03.000Z</time>
      </trkpt>
      <trkpt lat="46.9985" lon="-1.75464">
        <ele>53</ele>
        <time>2020-12-17T14:12:05.000Z</time>
      </trkpt>
      <trkpt lat="46.99844" lon="-1.75448">
        <ele>53</ele>
        <time>2020-12-17T14:12:07.000Z</time>
      </trkpt>
      <trkpt lat="46.99836" lon="-1.75432">
        <ele>53</ele>
        <time>2020-12-17T14:12:09.000Z</time>
      </trkpt>
      <trkpt lat="46.99828" lon="-1.75417">
        <ele>53</ele>
        <time>2020-12-17T14:12:11.000Z</time>
      </trkpt>
      <trkpt lat="46.99819" lon="-1.75403">
        <ele>53</ele>
        <time>2020-12-17T14:12:13.000Z</time>
      </trkpt>
      <trkpt lat="46.99811" lon="-1.75389">
        <ele>53</ele>
        <time>2020-12-17T14:12:15.000Z</time>
      </trkpt>
      <trkpt lat="46.99804" lon="-1.75375">
        <ele>53</ele>
        <time>2020-12-17T14:12:17.000Z</time>
      </trkpt>
      <trkpt lat="46.99796" lon="-1.75361">
        <ele>53</ele>
        <time>2020-12-17T14:12:19.000Z</time>
      </trkpt>
      <trkpt lat="46.99789" lon="-1.75346">
        <ele>53</ele>
        <time>2020-12-17T14:12:21.000Z</time>
      </trkpt>
      <trkpt lat="46.99781" lon="-1.75332">
        <ele>53</ele>
        <time>2020-12-17T14:12:23.000Z</time>
      </trkpt>
      <trkpt lat="46.99774" lon="-1.75318">
        <ele>53</ele>
        <time>2020-12-17T14:12:25.000Z</time>
      </trkpt>
      <trkpt lat="46.99767" lon="-1.75305">
        <ele>53</ele>
        <time>2020-12-17T14:12:27.000Z</time>
      </trkpt>
      <trkpt lat="46.99758" lon="-1.75292">
        <ele>53</ele>
        <time>2020-12-17T14:12:29.000Z</time>
      </trkpt>
      <trkpt lat="46.9975" lon="-1.75279">
        <ele>52</ele>
        <time>2020-12-17T14:12:31.000Z</time>
      </trkpt>
      <trkpt lat="46.99741" lon="-1.75264">
        <ele>52</ele>
        <time>2020-12-17T14:12:33.000Z</time>
      </trkpt>
      <trkpt lat="46.99734" lon="-1.7525">
        <ele>52</ele>
        <time>2020-12-17T14:12:35.000Z</time>
      </trkpt>
      <trkpt lat="46.99727" lon="-1.75236">
        <ele>53</ele>
        <time>2020-12-17T14:12:37.000Z</time>
      </trkpt>
      <trkpt lat="46.99721" lon="-1.75222">
        <ele>52</ele>
        <time>2020-12-17T14:12:39.000Z</time>
      </trkpt>
      <trkpt lat="46.99715" lon="-1.75206">
        <ele>53</ele>
        <time>2020-12-17T14:12:41.000Z</time>
      </trkpt>
      <trkpt lat="46.99709" lon="-1.75189">
        <ele>53</ele>
        <time>2020-12-17T14:12:43.000Z</time>
      </trkpt>
      <trkpt lat="46.99703" lon="-1.75173">
        <ele>54</ele>
        <time>2020-12-17T14:12:45.000Z</time>
      </trkpt>
      <trkpt lat="46.99697" lon="-1.75157">
        <ele>54</ele>
        <time>2020-12-17T14:12:47.000Z</time>
      </trkpt>
      <trkpt lat="46.99692" lon="-1.75141">
        <ele>55</ele>
        <time>2020-12-17T14:12:49.000Z</time>
      </trkpt>
      <trkpt lat="46.99686" lon="-1.75125">
        <ele>55</ele>
        <time>2020-12-17T14:12:51.000Z</time>
      </trkpt>
      <trkpt lat="46.99681" lon="-1.75109">
        <ele>55</ele>
        <time>2020-12-17T14:12:53.000Z</time>
      </trkpt>
      <trkpt lat="46.99676" lon="-1.75093">
        <ele>56</ele>
        <time>2020-12-17T14:12:55.000Z</time>
      </trkpt>
      <trkpt lat="46.9967" lon="-1.75076">
        <ele>56</ele>
        <time>2020-12-17T14:12:57.000Z</time>
      </trkpt>
      <trkpt lat="46.99665" lon="-1.7506">
        <ele>56</ele>
        <time>2020-12-17T14:12:59.000Z</time>
      </trkpt>
      <trkpt lat="46.9966" lon="-1.75044">
        <ele>56</ele>
        <time>2020-12-17T14:13:01.000Z</time>
      </trkpt>
      <trkpt lat="46.99654" lon="-1.75026">
        <ele>56</ele>
        <time>2020-12-17T14:13:03.000Z</time>
      </trkpt>
      <trkpt lat="46.99649" lon="-1.75009">
        <ele>56</ele>
        <time>2020-12-17T14:13:05.000Z</time>
      </trkpt>
      <trkpt lat="46.99643" lon="-1.74991">
        <ele>56</ele>
        <time>2020-12-17T14:13:07.000Z</time>
      </trkpt>
      <trkpt lat="46.99638" lon="-1.74974">
        <ele>56</ele>
        <time>2020-12-17T14:13:09.000Z</time>
      </trkpt>
      <trkpt lat="46.99632" lon="-1.74957">
        <ele>56</ele>
        <time>2020-12-17T14:13:11.000Z</time>
      </trkpt>
      <trkpt lat="46.99627" lon="-1.7494">
        <ele>55</ele>
        <time>2020-12-17T14:13:13.000Z</time>
      </trkpt>
      <trkpt lat="46.99622" lon="-1.74923">
        <ele>55</ele>
        <time>2020-12-17T14:13:15.000Z</time>
      </trkpt>
      <trkpt lat="46.99616" lon="-1.74907">
        <ele>55</ele>
        <time>2020-12-17T14:13:17.000Z</time>
      </trkpt>
      <trkpt lat="46.99611" lon="-1.7489">
        <ele>55</ele>
        <time>2020-12-17T14:13:19.000Z</time>
      </trkpt>
      <trkpt lat="46.99607" lon="-1.74873">
        <ele>55</ele>
        <time>2020-12-17T14:13:21.000Z</time>
      </trkpt>
      <trkpt lat="46.99603" lon="-1.74856">
        <ele>55</ele>
        <time>2020-12-17T14:13:23.000Z</time>
      </trkpt>
      <trkpt lat="46.996" lon="-1.74838">
        <ele>55</ele>
        <time>2020-12-17T14:13:25.000Z</time>
      </trkpt>
      <trkpt lat="46.99598" lon="-1.74819">
        <ele>55</ele>
        <time>2020-12-17T14:13:27.000Z</time>
      </trkpt>
      <trkpt lat="46.99598" lon="-1.748">
        <ele>55</ele>
        <time>2020-12-17T14:13:29.000Z</time>
      </trkpt>
      <trkpt lat="46.996" lon="-1.74781">
        <ele>55</ele>
        <time>2020-12-17T14:13:31.000Z</time>
      </trkpt>
      <trkpt lat="46.99602" lon="-1.74763">
        <ele>56</ele>
        <time>2020-12-17T14:13:33.000Z</time>
      </trkpt>
      <trkpt lat="46.99605" lon="-1.74746">
        <ele>55</ele>
        <time>2020-12-17T14:13:35.000Z</time>
      </trkpt>
      <trkpt lat="46.9961" lon="-1.7473">
        <ele>56</ele>
        <time>2020-12-17T14:13:37.000Z</time>
      </trkpt>
      <trkpt lat="46.99615" lon="-1.74714">
        <ele>56</ele>
        <time>2020-12-17T14:13:39.000Z</time>
      </trkpt>
      <trkpt lat="46.99622" lon="-1.74698">
        <ele>57</ele>
        <time>2020-12-17T14:13:41.000Z</time>
      </trkpt>
      <trkpt lat="46.99628" lon="-1.74683">
        <ele>57</ele>
        <time>2020-12-17T14:13:43.000Z</time>
      </trkpt>
      <trkpt lat="46.99634" lon="-1.74668">
        <ele>58</ele>
        <time>2020-12-17T14:13:45.000Z</time>
      </trkpt>
      <trkpt lat="46.99641" lon="-1.74653">
        <ele>58</ele>
        <time>2020-12-17T14:13:47.000Z</time>
      </trkpt>
      <trkpt lat="46.99648" lon="-1.74636">
        <ele>59</ele>
        <time>2020-12-17T14:13:49.000Z</time>
      </trkpt>
      <trkpt lat="46.99655" lon="-1.7462">
        <ele>59</ele>
        <time>2020-12-17T14:13:51.000Z</time>
      </trkpt>
      <trkpt lat="46.99663" lon="-1.74605">
        <ele>59</ele>
        <time>2020-12-17T14:13:53.000Z</time>
      </trkpt>
      <trkpt lat="46.9967" lon="-1.7459">
        <ele>59</ele>
        <time>2020-12-17T14:13:55.000Z</time>
      </trkpt>
      <trkpt lat="46.99677" lon="-1.74575">
        <ele>60</ele>
        <time>2020-12-17T14:13:57.000Z</time>
      </trkpt>
      <trkpt lat="46.99684" lon="-1.7456">
        <ele>60</ele>
        <time>2020-12-17T14:13:59.000Z</time>
      </trkpt>
      <trkpt lat="46.99691" lon="-1.74545">
        <ele>61</ele>
        <time>2020-12-17T14:14:01.000Z</time>
      </trkpt>
      <trkpt lat="46.99698" lon="-1.74531">
        <ele>61</ele>
        <time>2020-12-17T14:14:03.000Z</time>
      </trkpt>
      <trkpt lat="46.99705" lon="-1.74518">
        <ele>61</ele>
        <time>2020-12-17T14:14:05.000Z</time>
      </trkpt>
      <trkpt lat="46.99712" lon="-1.74504">
        <ele>62</ele>
        <time>2020-12-17T14:14:07.000Z</time>
      </trkpt>
      <trkpt lat="46.99718" lon="-1.74489">
        <ele>62</ele>
        <time>2020-12-17T14:14:09.000Z</time>
      </trkpt>
      <trkpt lat="46.99725" lon="-1.74474">
        <ele>62</ele>
        <time>2020-12-17T14:14:11.000Z</time>
      </trkpt>
      <trkpt lat="46.99732" lon="-1.7446">
        <ele>63</ele>
        <time>2020-12-17T14:14:13.000Z</time>
      </trkpt>
      <trkpt lat="46.99738" lon="-1.74446">
        <ele>63</ele>
        <time>2020-12-17T14:14:15.000Z</time>
      </trkpt>
      <trkpt lat="46.99744" lon="-1.74431">
        <ele>63</ele>
        <time>2020-12-17T14:14:17.000Z</time>
      </trkpt>
      <trkpt lat="46.99749" lon="-1.74417">
        <ele>63</ele>
        <time>2020-12-17T14:14:19.000Z</time>
      </trkpt>
      <trkpt lat="46.99755" lon="-1.74402">
        <ele>63</ele>
        <time>2020-12-17T14:14:21.000Z</time>
      </trkpt>
      <trkpt lat="46.99761" lon="-1.74388">
        <ele>64</ele>
        <time>2020-12-17T14:14:23.000Z</time>
      </trkpt>
      <trkpt lat="46.99766" lon="-1.74373">
        <ele>64</ele>
        <time>2020-12-17T14:14:25.000Z</time>
      </trkpt>
      <trkpt lat="46.99772" lon="-1.74358">
        <ele>64</ele>
        <time>2020-12-17T14:14:27.000Z</time>
      </trkpt>
      <trkpt lat="46.99778" lon="-1.74342">
        <ele>64</ele>
        <time>2020-12-17T14:14:29.000Z</time>
      </trkpt>
      <trkpt lat="46.99784" lon="-1.74326">
        <ele>64</ele>
        <time>2020-12-17T14:14:31.000Z</time>
      </trkpt>
      <trkpt lat="46.99789" lon="-1.7431">
        <ele>64</ele>
        <time>2020-12-17T14:14:33.000Z</time>
      </trkpt>
      <trkpt lat="46.99794" lon="-1.74294">
        <ele>64</ele>
        <time>2020-12-17T14:14:35.000Z</time>
      </trkpt>
      <trkpt lat="46.998" lon="-1.74279">
        <ele>64</ele>
        <time>2020-12-17T14:14:37.000Z</time>
      </trkpt>
      <trkpt lat="46.99805" lon="-1.74262">
        <ele>64</ele>
        <time>2020-12-17T14:14:39.000Z</time>
      </trkpt>
      <trkpt lat="46.9981" lon="-1.74246">
        <ele>64</ele>
        <time>2020-12-17T14:14:41.000Z</time>
      </trkpt>
      <trkpt lat="46.99815" lon="-1.74229">
        <ele>64</ele>
        <time>2020-12-17T14:14:43.000Z</time>
      </trkpt>
      <trkpt lat="46.9982" lon="-1.74213">
        <ele>64</ele>
        <time>2020-12-17T14:14:45.000Z</time>
      </trkpt>
      <trkpt lat="46.99824" lon="-1.74196">
        <ele>64</ele>
        <time>2020-12-17T14:14:47.000Z</time>
      </trkpt>
      <trkpt lat="46.99829" lon="-1.7418">
        <ele>64</ele>
        <time>2020-12-17T14:14:49.000Z</time>
      </trkpt>
      <trkpt lat="46.99833" lon="-1.74163">
        <ele>64</ele>
        <time>2020-12-17T14:14:51.000Z</time>
      </trkpt>
      <trkpt lat="46.99838" lon="-1.74147">
        <ele>64</ele>
        <time>2020-12-17T14:14:53.000Z</time>
      </trkpt>
      <trkpt lat="46.99842" lon="-1.7413">
        <ele>65</ele>
        <time>2020-12-17T14:14:55.000Z</time>
      </trkpt>
      <trkpt lat="46.99847" lon="-1.74113">
        <ele>65</ele>
        <time>2020-12-17T14:14:57.000Z</time>
      </trkpt>
      <trkpt lat="46.99852" lon="-1.74096">
        <ele>65</ele>
        <time>2020-12-17T14:14:59.000Z</time>
      </trkpt>
      <trkpt lat="46.99857" lon="-1.74079">
        <ele>65</ele>
        <time>2020-12-17T14:15:01.000Z</time>
      </trkpt>
      <trkpt lat="46.99861" lon="-1.74061">
        <ele>66</ele>
        <time>2020-12-17T14:15:03.000Z</time>
      </trkpt>
      <trkpt lat="46.99865" lon="-1.74045">
        <ele>66</ele>
        <time>2020-12-17T14:15:05.000Z</time>
      </trkpt>
      <trkpt lat="46.99869" lon="-1.74029">
        <ele>66</ele>
        <time>2020-12-17T14:15:07.000Z</time>
      </trkpt>
      <trkpt lat="46.99874" lon="-1.74014">
        <ele>66</ele>
        <time>2020-12-17T14:15:09.000Z</time>
      </trkpt>
      <trkpt lat="46.99878" lon="-1.73998">
        <ele>66</ele>
        <time>2020-12-17T14:15:11.000Z</time>
      </trkpt>
      <trkpt lat="46.99883" lon="-1.73983">
        <ele>67</ele>
        <time>2020-12-17T14:15:13.000Z</time>
      </trkpt>
      <trkpt lat="46.99887" lon="-1.73967">
        <ele>67</ele>
        <time>2020-12-17T14:15:15.000Z</time>
      </trkpt>
      <trkpt lat="46.99891" lon="-1.73951">
        <ele>67</ele>
        <time>2020-12-17T14:15:17.000Z</time>
      </trkpt>
      <trkpt lat="46.99896" lon="-1.73935">
        <ele>68</ele>
        <time>2020-12-17T14:15:19.000Z</time>
      </trkpt>
      <trkpt lat="46.99901" lon="-1.73919">
        <ele>68</ele>
        <time>2020-12-17T14:15:21.000Z</time>
      </trkpt>
      <trkpt lat="46.99908" lon="-1.73903">
        <ele>68</ele>
        <time>2020-12-17T14:15:23.000Z</time>
      </trkpt>
      <trkpt lat="46.99916" lon="-1.7389">
        <ele>68</ele>
        <time>2020-12-17T14:15:25.000Z</time>
      </trkpt>
      <trkpt lat="46.99924" lon="-1.73877">
        <ele>68</ele>
        <time>2020-12-17T14:15:27.000Z</time>
      </trkpt>
      <trkpt lat="46.99933" lon="-1.73864">
        <ele>69</ele>
        <time>2020-12-17T14:15:29.000Z</time>
      </trkpt>
      <trkpt lat="46.99942" lon="-1.73854">
        <ele>69</ele>
        <time>2020-12-17T14:15:31.000Z</time>
      </trkpt>
      <trkpt lat="46.99953" lon="-1.73845">
        <ele>69</ele>
        <time>2020-12-17T14:15:33.000Z</time>
      </trkpt>
      <trkpt lat="46.99963" lon="-1.73838">
        <ele>69</ele>
        <time>2020-12-17T14:15:35.000Z</time>
      </trkpt>
      <trkpt lat="46.99974" lon="-1.73831">
        <ele>69</ele>
        <time>2020-12-17T14:15:37.000Z</time>
      </trkpt>
      <trkpt lat="46.99985" lon="-1.73824">
        <ele>69</ele>
        <time>2020-12-17T14:15:39.000Z</time>
      </trkpt>
      <trkpt lat="46.99997" lon="-1.73819">
        <ele>69</ele>
        <time>2020-12-17T14:15:41.000Z</time>
      </trkpt>
      <trkpt lat="47.00009" lon="-1.73814">
        <ele>69</ele>
        <time>2020-12-17T14:15:43.000Z</time>
      </trkpt>
      <trkpt lat="47.0002" lon="-1.73809">
        <ele>68</ele>
        <time>2020-12-17T14:15:45.000Z</time>
      </trkpt>
      <trkpt lat="47.00032" lon="-1.73805">
        <ele>69</ele>
        <time>2020-12-17T14:15:47.000Z</time>
      </trkpt>
      <trkpt lat="47.00042" lon="-1.738">
        <ele>69</ele>
        <time>2020-12-17T14:15:49.000Z</time>
      </trkpt>
      <trkpt lat="47.00053" lon="-1.73793">
        <ele>69</ele>
        <time>2020-12-17T14:15:51.000Z</time>
      </trkpt>
      <trkpt lat="47.00063" lon="-1.73785">
        <ele>68</ele>
        <time>2020-12-17T14:15:53.000Z</time>
      </trkpt>
      <trkpt lat="47.00071" lon="-1.73772">
        <ele>68</ele>
        <time>2020-12-17T14:15:55.000Z</time>
      </trkpt>
      <trkpt lat="47.00076" lon="-1.73755">
        <ele>67</ele>
        <time>2020-12-17T14:15:57.000Z</time>
      </trkpt>
      <trkpt lat="47.00077" lon="-1.73737">
        <ele>67</ele>
        <time>2020-12-17T14:15:59.000Z</time>
      </trkpt>
      <trkpt lat="47.00073" lon="-1.7372">
        <ele>67</ele>
        <time>2020-12-17T14:16:01.000Z</time>
      </trkpt>
      <trkpt lat="47.00065" lon="-1.73705">
        <ele>66</ele>
        <time>2020-12-17T14:16:03.000Z</time>
      </trkpt>
      <trkpt lat="47.00056" lon="-1.73693">
        <ele>66</ele>
        <time>2020-12-17T14:16:05.000Z</time>
      </trkpt>
      <trkpt lat="47.00052" lon="-1.73675">
        <ele>66</ele>
        <time>2020-12-17T14:16:07.000Z</time>
      </trkpt>
      <trkpt lat="47.00056" lon="-1.73658">
        <ele>67</ele>
        <time>2020-12-17T14:16:09.000Z</time>
      </trkpt>
      <trkpt lat="47.00065" lon="-1.73645">
        <ele>68</ele>
        <time>2020-12-17T14:16:11.000Z</time>
      </trkpt>
      <trkpt lat="47.00077" lon="-1.73633">
        <ele>67</ele>
        <time>2020-12-17T14:16:13.000Z</time>
      </trkpt>
      <trkpt lat="47.00085" lon="-1.73618">
        <ele>67</ele>
        <time>2020-12-17T14:16:15.000Z</time>
      </trkpt>
      <trkpt lat="47.00093" lon="-1.73601">
        <ele>68</ele>
        <time>2020-12-17T14:16:17.000Z</time>
      </trkpt>
      <trkpt lat="47.001" lon="-1.73585">
        <ele>68</ele>
        <time>2020-12-17T14:16:19.000Z</time>
      </trkpt>
      <trkpt lat="47.00109" lon="-1.7357">
        <ele>68</ele>
        <time>2020-12-17T14:16:21.000Z</time>
      </trkpt>
      <trkpt lat="47.0012" lon="-1.73557">
        <ele>68</ele>
        <time>2020-12-17T14:16:23.000Z</time>
      </trkpt>
      <trkpt lat="47.00131" lon="-1.73546">
        <ele>67</ele>
        <time>2020-12-17T14:16:25.000Z</time>
      </trkpt>
      <trkpt lat="47.00143" lon="-1.73535">
        <ele>68</ele>
        <time>2020-12-17T14:16:27.000Z</time>
      </trkpt>
      <trkpt lat="47.00155" lon="-1.73524">
        <ele>68</ele>
        <time>2020-12-17T14:16:29.000Z</time>
      </trkpt>
      <trkpt lat="47.00168" lon="-1.73515">
        <ele>68</ele>
        <time>2020-12-17T14:16:31.000Z</time>
      </trkpt>
      <trkpt lat="47.00181" lon="-1.73506">
        <ele>68</ele>
        <time>2020-12-17T14:16:33.000Z</time>
      </trkpt>
      <trkpt lat="47.00194" lon="-1.73496">
        <ele>67</ele>
        <time>2020-12-17T14:16:35.000Z</time>
      </trkpt>
      <trkpt lat="47.00206" lon="-1.73488">
        <ele>67</ele>
        <time>2020-12-17T14:16:37.000Z</time>
      </trkpt>
      <trkpt lat="47.00219" lon="-1.73481">
        <ele>67</ele>
        <time>2020-12-17T14:16:39.000Z</time>
      </trkpt>
      <trkpt lat="47.00233" lon="-1.73474">
        <ele>67</ele>
        <time>2020-12-17T14:16:41.000Z</time>
      </trkpt>
      <trkpt lat="47.00245" lon="-1.73466">
        <ele>67</ele>
        <time>2020-12-17T14:16:43.000Z</time>
      </trkpt>
      <trkpt lat="47.0026" lon="-1.73459">
        <ele>68</ele>
        <time>2020-12-17T14:16:45.000Z</time>
      </trkpt>
      <trkpt lat="47.00273" lon="-1.73452">
        <ele>67</ele>
        <time>2020-12-17T14:16:47.000Z</time>
      </trkpt>
      <trkpt lat="47.00287" lon="-1.73445">
        <ele>67</ele>
        <time>2020-12-17T14:16:49.000Z</time>
      </trkpt>
      <trkpt lat="47.00301" lon="-1.73439">
        <ele>67</ele>
        <time>2020-12-17T14:16:51.000Z</time>
      </trkpt>
      <trkpt lat="47.00314" lon="-1.73432">
        <ele>67</ele>
        <time>2020-12-17T14:16:53.000Z</time>
      </trkpt>
      <trkpt lat="47.00327" lon="-1.73426">
        <ele>67</ele>
        <time>2020-12-17T14:16:55.000Z</time>
      </trkpt>
      <trkpt lat="47.00341" lon="-1.73419">
        <ele>67</ele>
        <time>2020-12-17T14:16:57.000Z</time>
      </trkpt>
      <trkpt lat="47.00355" lon="-1.73412">
        <ele>67</ele>
        <time>2020-12-17T14:16:59.000Z</time>
      </trkpt>
      <trkpt lat="47.00369" lon="-1.73405">
        <ele>67</ele>
        <time>2020-12-17T14:17:01.000Z</time>
      </trkpt>
      <trkpt lat="47.00382" lon="-1.73397">
        <ele>66</ele>
        <time>2020-12-17T14:17:03.000Z</time>
      </trkpt>
      <trkpt lat="47.00397" lon="-1.73391">
        <ele>66</ele>
        <time>2020-12-17T14:17:05.000Z</time>
      </trkpt>
      <trkpt lat="47.00411" lon="-1.73385">
        <ele>66</ele>
        <time>2020-12-17T14:17:07.000Z</time>
      </trkpt>
      <trkpt lat="47.00424" lon="-1.73379">
        <ele>65</ele>
        <time>2020-12-17T14:17:09.000Z</time>
      </trkpt>
      <trkpt lat="47.00438" lon="-1.73375">
        <ele>64</ele>
        <time>2020-12-17T14:17:11.000Z</time>
      </trkpt>
      <trkpt lat="47.00454" lon="-1.73374">
        <ele>64</ele>
        <time>2020-12-17T14:17:13.000Z</time>
      </trkpt>
      <trkpt lat="47.0047" lon="-1.73374">
        <ele>63</ele>
        <time>2020-12-17T14:17:15.000Z</time>
      </trkpt>
      <trkpt lat="47.00485" lon="-1.73374">
        <ele>63</ele>
        <time>2020-12-17T14:17:17.000Z</time>
      </trkpt>
      <trkpt lat="47.005" lon="-1.73374">
        <ele>63</ele>
        <time>2020-12-17T14:17:19.000Z</time>
      </trkpt>
      <trkpt lat="47.00515" lon="-1.73375">
        <ele>62</ele>
        <time>2020-12-17T14:17:21.000Z</time>
      </trkpt>
      <trkpt lat="47.0053" lon="-1.73375">
        <ele>62</ele>
        <time>2020-12-17T14:17:23.000Z</time>
      </trkpt>
      <trkpt lat="47.00545" lon="-1.73375">
        <ele>62</ele>
        <time>2020-12-17T14:17:25.000Z</time>
      </trkpt>
      <trkpt lat="47.00559" lon="-1.73375">
        <ele>62</ele>
        <time>2020-12-17T14:17:27.000Z</time>
      </trkpt>
      <trkpt lat="47.00574" lon="-1.73375">
        <ele>61</ele>
        <time>2020-12-17T14:17:29.000Z</time>
      </trkpt>
      <trkpt lat="47.00589" lon="-1.73375">
        <ele>61</ele>
        <time>2020-12-17T14:17:31.000Z</time>
      </trkpt>
      <trkpt lat="47.00604" lon="-1.73375">
        <ele>61</ele>
        <time>2020-12-17T14:17:33.000Z</time>
      </trkpt>
      <trkpt lat="47.00618" lon="-1.73375">
        <ele>60</ele>
        <time>2020-12-17T14:17:35.000Z</time>
      </trkpt>
      <trkpt lat="47.00633" lon="-1.73375">
        <ele>60</ele>
        <time>2020-12-17T14:17:37.000Z</time>
      </trkpt>
      <trkpt lat="47.00648" lon="-1.73375">
        <ele>60</ele>
        <time>2020-12-17T14:17:39.000Z</time>
      </trkpt>
      <trkpt lat="47.00662" lon="-1.73375">
        <ele>60</ele>
        <time>2020-12-17T14:17:41.000Z</time>
      </trkpt>
      <trkpt lat="47.00676" lon="-1.73375">
        <ele>60</ele>
        <time>2020-12-17T14:17:43.000Z</time>
      </trkpt>
      <trkpt lat="47.0069" lon="-1.73375">
        <ele>60</ele>
        <time>2020-12-17T14:17:45.000Z</time>
      </trkpt>
      <trkpt lat="47.00704" lon="-1.73375">
        <ele>60</ele>
        <time>2020-12-17T14:17:47.000Z</time>
      </trkpt>
      <trkpt lat="47.00718" lon="-1.73375">
        <ele>60</ele>
        <time>2020-12-17T14:17:49.000Z</time>
      </trkpt>
      <trkpt lat="47.00732" lon="-1.73375">
        <ele>60</ele>
        <time>2020-12-17T14:17:51.000Z</time>
      </trkpt>
      <trkpt lat="47.00746" lon="-1.73374">
        <ele>60</ele>
        <time>2020-12-17T14:17:53.000Z</time>
      </trkpt>
      <trkpt lat="47.0076" lon="-1.73374">
        <ele>60</ele>
        <time>2020-12-17T14:17:55.000Z</time>
      </trkpt>
      <trkpt lat="47.00773" lon="-1.73373">
        <ele>60</ele>
        <time>2020-12-17T14:17:57.000Z</time>
      </trkpt>
      <trkpt lat="47.00787" lon="-1.73373">
        <ele>60</ele>
        <time>2020-12-17T14:17:59.000Z</time>
      </trkpt>
      <trkpt lat="47.00801" lon="-1.73374">
        <ele>60</ele>
        <time>2020-12-17T14:18:01.000Z</time>
      </trkpt>
      <trkpt lat="47.00815" lon="-1.73376">
        <ele>60</ele>
        <time>2020-12-17T14:18:03.000Z</time>
      </trkpt>
      <trkpt lat="47.00828" lon="-1.73377">
        <ele>60</ele>
        <time>2020-12-17T14:18:05.000Z</time>
      </trkpt>
      <trkpt lat="47.00841" lon="-1.73379">
        <ele>61</ele>
        <time>2020-12-17T14:18:07.000Z</time>
      </trkpt>
      <trkpt lat="47.00854" lon="-1.73382">
        <ele>61</ele>
        <time>2020-12-17T14:18:09.000Z</time>
      </trkpt>
      <trkpt lat="47.00867" lon="-1.73385">
        <ele>61</ele>
        <time>2020-12-17T14:18:11.000Z</time>
      </trkpt>
      <trkpt lat="47.00879" lon="-1.73387">
        <ele>61</ele>
        <time>2020-12-17T14:18:13.000Z</time>
      </trkpt>
      <trkpt lat="47.00891" lon="-1.73391">
        <ele>61</ele>
        <time>2020-12-17T14:18:15.000Z</time>
      </trkpt>
      <trkpt lat="47.00904" lon="-1.73394">
        <ele>62</ele>
        <time>2020-12-17T14:18:17.000Z</time>
      </trkpt>
      <trkpt lat="47.00916" lon="-1.73398">
        <ele>62</ele>
        <time>2020-12-17T14:18:19.000Z</time>
      </trkpt>
      <trkpt lat="47.00929" lon="-1.73401">
        <ele>62</ele>
        <time>2020-12-17T14:18:21.000Z</time>
      </trkpt>
      <trkpt lat="47.00941" lon="-1.73404">
        <ele>62</ele>
        <time>2020-12-17T14:18:23.000Z</time>
      </trkpt>
      <trkpt lat="47.00954" lon="-1.73407">
        <ele>62</ele>
        <time>2020-12-17T14:18:25.000Z</time>
      </trkpt>
      <trkpt lat="47.00967" lon="-1.7341">
        <ele>63</ele>
        <time>2020-12-17T14:18:27.000Z</time>
      </trkpt>
      <trkpt lat="47.00978" lon="-1.73413">
        <ele>63</ele>
        <time>2020-12-17T14:18:29.000Z</time>
      </trkpt>
      <trkpt lat="47.0099" lon="-1.73416">
        <ele>64</ele>
        <time>2020-12-17T14:18:31.000Z</time>
      </trkpt>
      <trkpt lat="47.01002" lon="-1.7342">
        <ele>64</ele>
        <time>2020-12-17T14:18:33.000Z</time>
      </trkpt>
      <trkpt lat="47.01013" lon="-1.73422">
        <ele>64</ele>
        <time>2020-12-17T14:18:35.000Z</time>
      </trkpt>
      <trkpt lat="47.01025" lon="-1.73425">
        <ele>64</ele>
        <time>2020-12-17T14:18:37.000Z</time>
      </trkpt>
      <trkpt lat="47.01037" lon="-1.73428">
        <ele>65</ele>
        <time>2020-12-17T14:18:39.000Z</time>
      </trkpt>
      <trkpt lat="47.01049" lon="-1.73431">
        <ele>65</ele>
        <time>2020-12-17T14:18:41.000Z</time>
      </trkpt>
      <trkpt lat="47.01061" lon="-1.73435">
        <ele>66</ele>
        <time>2020-12-17T14:18:43.000Z</time>
      </trkpt>
      <trkpt lat="47.01073" lon="-1.73438">
        <ele>66</ele>
        <time>2020-12-17T14:18:45.000Z</time>
      </trkpt>
      <trkpt lat="47.01084" lon="-1.73442">
        <ele>66</ele>
        <time>2020-12-17T14:18:47.000Z</time>
      </trkpt>
      <trkpt lat="47.01096" lon="-1.73445">
        <ele>66</ele>
        <time>2020-12-17T14:18:49.000Z</time>
      </trkpt>
      <trkpt lat="47.01106" lon="-1.73447">
        <ele>67</ele>
        <time>2020-12-17T14:18:51.000Z</time>
      </trkpt>
      <trkpt lat="47.01117" lon="-1.7345">
        <ele>66</ele>
        <time>2020-12-17T14:18:53.000Z</time>
      </trkpt>
      <trkpt lat="47.01128" lon="-1.73453">
        <ele>67</ele>
        <time>2020-12-17T14:18:55.000Z</time>
      </trkpt>
      <trkpt lat="47.01139" lon="-1.73456">
        <ele>67</ele>
        <time>2020-12-17T14:18:57.000Z</time>
      </trkpt>
      <trkpt lat="47.0115" lon="-1.73458">
        <ele>67</ele>
        <time>2020-12-17T14:18:59.000Z</time>
      </trkpt>
      <trkpt lat="47.01162" lon="-1.73461">
        <ele>68</ele>
        <time>2020-12-17T14:19:01.000Z</time>
      </trkpt>
      <trkpt lat="47.01173" lon="-1.73463">
        <ele>68</ele>
        <time>2020-12-17T14:19:03.000Z</time>
      </trkpt>
      <trkpt lat="47.01184" lon="-1.73465">
        <ele>68</ele>
        <time>2020-12-17T14:19:05.000Z</time>
      </trkpt>
      <trkpt lat="47.01197" lon="-1.73469">
        <ele>67</ele>
        <time>2020-12-17T14:19:07.000Z</time>
      </trkpt>
      <trkpt lat="47.01209" lon="-1.73472">
        <ele>67</ele>
        <time>2020-12-17T14:19:09.000Z</time>
      </trkpt>
      <trkpt lat="47.0122" lon="-1.73476">
        <ele>68</ele>
        <time>2020-12-17T14:19:11.000Z</time>
      </trkpt>
      <trkpt lat="47.01232" lon="-1.73479">
        <ele>68</ele>
        <time>2020-12-17T14:19:13.000Z</time>
      </trkpt>
      <trkpt lat="47.01244" lon="-1.73483">
        <ele>67</ele>
        <time>2020-12-17T14:19:15.000Z</time>
      </trkpt>
      <trkpt lat="47.01257" lon="-1.73486">
        <ele>67</ele>
        <time>2020-12-17T14:19:17.000Z</time>
      </trkpt>
      <trkpt lat="47.01269" lon="-1.73489">
        <ele>68</ele>
        <time>2020-12-17T14:19:19.000Z</time>
      </trkpt>
      <trkpt lat="47.01281" lon="-1.73492">
        <ele>68</ele>
        <time>2020-12-17T14:19:21.000Z</time>
      </trkpt>
      <trkpt lat="47.01294" lon="-1.73495">
        <ele>68</ele>
        <time>2020-12-17T14:19:23.000Z</time>
      </trkpt>
      <trkpt lat="47.01306" lon="-1.73499">
        <ele>67</ele>
        <time>2020-12-17T14:19:25.000Z</time>
      </trkpt>
      <trkpt lat="47.01319" lon="-1.73503">
        <ele>67</ele>
        <time>2020-12-17T14:19:27.000Z</time>
      </trkpt>
      <trkpt lat="47.01331" lon="-1.73506">
        <ele>67</ele>
        <time>2020-12-17T14:19:29.000Z</time>
      </trkpt>
      <trkpt lat="47.01343" lon="-1.73509">
        <ele>68</ele>
        <time>2020-12-17T14:19:31.000Z</time>
      </trkpt>
      <trkpt lat="47.01356" lon="-1.73512">
        <ele>68</ele>
        <time>2020-12-17T14:19:33.000Z</time>
      </trkpt>
      <trkpt lat="47.01368" lon="-1.73516">
        <ele>69</ele>
        <time>2020-12-17T14:19:35.000Z</time>
      </trkpt>
      <trkpt lat="47.0138" lon="-1.73518">
        <ele>69</ele>
        <time>2020-12-17T14:19:37.000Z</time>
      </trkpt>
      <trkpt lat="47.01393" lon="-1.73522">
        <ele>69</ele>
        <time>2020-12-17T14:19:39.000Z</time>
      </trkpt>
      <trkpt lat="47.01404" lon="-1.73524">
        <ele>69</ele>
        <time>2020-12-17T14:19:41.000Z</time>
      </trkpt>
      <trkpt lat="47.01417" lon="-1.73526">
        <ele>69</ele>
        <time>2020-12-17T14:19:43.000Z</time>
      </trkpt>
      <trkpt lat="47.01429" lon="-1.73529">
        <ele>69</ele>
        <time>2020-12-17T14:19:45.000Z</time>
      </trkpt>
      <trkpt lat="47.01441" lon="-1.73531">
        <ele>70</ele>
        <time>2020-12-17T14:19:47.000Z</time>
      </trkpt>
      <trkpt lat="47.01454" lon="-1.73534">
        <ele>70</ele>
        <time>2020-12-17T14:19:49.000Z</time>
      </trkpt>
      <trkpt lat="47.01467" lon="-1.73537">
        <ele>70</ele>
        <time>2020-12-17T14:19:51.000Z</time>
      </trkpt>
      <trkpt lat="47.01479" lon="-1.7354">
        <ele>70</ele>
        <time>2020-12-17T14:19:53.000Z</time>
      </trkpt>
      <trkpt lat="47.01492" lon="-1.73543">
        <ele>70</ele>
        <time>2020-12-17T14:19:55.000Z</time>
      </trkpt>
      <trkpt lat="47.01505" lon="-1.73547">
        <ele>70</ele>
        <time>2020-12-17T14:19:57.000Z</time>
      </trkpt>
      <trkpt lat="47.01518" lon="-1.73551">
        <ele>70</ele>
        <time>2020-12-17T14:19:59.000Z</time>
      </trkpt>
      <trkpt lat="47.01531" lon="-1.73554">
        <ele>70</ele>
        <time>2020-12-17T14:20:01.000Z</time>
      </trkpt>
      <trkpt lat="47.01543" lon="-1.73557">
        <ele>70</ele>
        <time>2020-12-17T14:20:03.000Z</time>
      </trkpt>
      <trkpt lat="47.01555" lon="-1.73561">
        <ele>70</ele>
        <time>2020-12-17T14:20:05.000Z</time>
      </trkpt>
      <trkpt lat="47.01568" lon="-1.73565">
        <ele>71</ele>
        <time>2020-12-17T14:20:07.000Z</time>
      </trkpt>
      <trkpt lat="47.0158" lon="-1.73568">
        <ele>71</ele>
        <time>2020-12-17T14:20:09.000Z</time>
      </trkpt>
      <trkpt lat="47.01593" lon="-1.73571">
        <ele>71</ele>
        <time>2020-12-17T14:20:11.000Z</time>
      </trkpt>
      <trkpt lat="47.01606" lon="-1.73574">
        <ele>72</ele>
        <time>2020-12-17T14:20:13.000Z</time>
      </trkpt>
      <trkpt lat="47.01618" lon="-1.73577">
        <ele>72</ele>
        <time>2020-12-17T14:20:15.000Z</time>
      </trkpt>
      <trkpt lat="47.0163" lon="-1.7358">
        <ele>72</ele>
        <time>2020-12-17T14:20:17.000Z</time>
      </trkpt>
      <trkpt lat="47.01643" lon="-1.73583">
        <ele>72</ele>
        <time>2020-12-17T14:20:19.000Z</time>
      </trkpt>
      <trkpt lat="47.01655" lon="-1.73587">
        <ele>72</ele>
        <time>2020-12-17T14:20:21.000Z</time>
      </trkpt>
      <trkpt lat="47.01668" lon="-1.7359">
        <ele>72</ele>
        <time>2020-12-17T14:20:23.000Z</time>
      </trkpt>
      <trkpt lat="47.0168" lon="-1.73593">
        <ele>72</ele>
        <time>2020-12-17T14:20:25.000Z</time>
      </trkpt>
      <trkpt lat="47.01692" lon="-1.73596">
        <ele>72</ele>
        <time>2020-12-17T14:20:27.000Z</time>
      </trkpt>
      <trkpt lat="47.01704" lon="-1.73599">
        <ele>71</ele>
        <time>2020-12-17T14:20:29.000Z</time>
      </trkpt>
      <trkpt lat="47.01716" lon="-1.73602">
        <ele>72</ele>
        <time>2020-12-17T14:20:31.000Z</time>
      </trkpt>
      <trkpt lat="47.01729" lon="-1.73606">
        <ele>72</ele>
        <time>2020-12-17T14:20:33.000Z</time>
      </trkpt>
      <trkpt lat="47.01742" lon="-1.73609">
        <ele>73</ele>
        <time>2020-12-17T14:20:35.000Z</time>
      </trkpt>
      <trkpt lat="47.01754" lon="-1.73613">
        <ele>73</ele>
        <time>2020-12-17T14:20:37.000Z</time>
      </trkpt>
      <trkpt lat="47.01767" lon="-1.73615">
        <ele>73</ele>
        <time>2020-12-17T14:20:39.000Z</time>
      </trkpt>
      <trkpt lat="47.0178" lon="-1.73619">
        <ele>74</ele>
        <time>2020-12-17T14:20:41.000Z</time>
      </trkpt>
      <trkpt lat="47.01791" lon="-1.73622">
        <ele>74</ele>
        <time>2020-12-17T14:20:43.000Z</time>
      </trkpt>
      <trkpt lat="47.01804" lon="-1.73625">
        <ele>74</ele>
        <time>2020-12-17T14:20:45.000Z</time>
      </trkpt>
      <trkpt lat="47.01816" lon="-1.73629">
        <ele>73</ele>
        <time>2020-12-17T14:20:47.000Z</time>
      </trkpt>
      <trkpt lat="47.01829" lon="-1.73632">
        <ele>73</ele>
        <time>2020-12-17T14:20:49.000Z</time>
      </trkpt>
      <trkpt lat="47.01841" lon="-1.73636">
        <ele>73</ele>
        <time>2020-12-17T14:20:51.000Z</time>
      </trkpt>
      <trkpt lat="47.01853" lon="-1.73639">
        <ele>73</ele>
        <time>2020-12-17T14:20:53.000Z</time>
      </trkpt>
      <trkpt lat="47.01865" lon="-1.73642">
        <ele>73</ele>
        <time>2020-12-17T14:20:55.000Z</time>
      </trkpt>
      <trkpt lat="47.01878" lon="-1.73646">
        <ele>73</ele>
        <time>2020-12-17T14:20:57.000Z</time>
      </trkpt>
      <trkpt lat="47.0189" lon="-1.73649">
        <ele>73</ele>
        <time>2020-12-17T14:20:59.000Z</time>
      </trkpt>
      <trkpt lat="47.01902" lon="-1.73652">
        <ele>73</ele>
        <time>2020-12-17T14:21:01.000Z</time>
      </trkpt>
      <trkpt lat="47.01915" lon="-1.73655">
        <ele>73</ele>
        <time>2020-12-17T14:21:03.000Z</time>
      </trkpt>
      <trkpt lat="47.01928" lon="-1.73658">
        <ele>73</ele>
        <time>2020-12-17T14:21:05.000Z</time>
      </trkpt>
      <trkpt lat="47.01941" lon="-1.73661">
        <ele>73</ele>
        <time>2020-12-17T14:21:07.000Z</time>
      </trkpt>
      <trkpt lat="47.01954" lon="-1.73665">
        <ele>73</ele>
        <time>2020-12-17T14:21:09.000Z</time>
      </trkpt>
      <trkpt lat="47.01967" lon="-1.73669">
        <ele>74</ele>
        <time>2020-12-17T14:21:11.000Z</time>
      </trkpt>
      <trkpt lat="47.0198" lon="-1.73672">
        <ele>73</ele>
        <time>2020-12-17T14:21:13.000Z</time>
      </trkpt>
      <trkpt lat="47.01993" lon="-1.73676">
        <ele>73</ele>
        <time>2020-12-17T14:21:15.000Z</time>
      </trkpt>
      <trkpt lat="47.02006" lon="-1.73678">
        <ele>73</ele>
        <time>2020-12-17T14:21:17.000Z</time>
      </trkpt>
      <trkpt lat="47.02018" lon="-1.73682">
        <ele>72</ele>
        <time>2020-12-17T14:21:19.000Z</time>
      </trkpt>
      <trkpt lat="47.02031" lon="-1.73685">
        <ele>73</ele>
        <time>2020-12-17T14:21:21.000Z</time>
      </trkpt>
      <trkpt lat="47.02043" lon="-1.73687">
        <ele>73</ele>
        <time>2020-12-17T14:21:23.000Z</time>
      </trkpt>
      <trkpt lat="47.02055" lon="-1.7369">
        <ele>72</ele>
        <time>2020-12-17T14:21:25.000Z</time>
      </trkpt>
      <trkpt lat="47.02069" lon="-1.73694">
        <ele>72</ele>
        <time>2020-12-17T14:21:27.000Z</time>
      </trkpt>
      <trkpt lat="47.02081" lon="-1.73698">
        <ele>72</ele>
        <time>2020-12-17T14:21:29.000Z</time>
      </trkpt>
      <trkpt lat="47.02094" lon="-1.73701">
        <ele>72</ele>
        <time>2020-12-17T14:21:31.000Z</time>
      </trkpt>
      <trkpt lat="47.02106" lon="-1.73703">
        <ele>72</ele>
        <time>2020-12-17T14:21:33.000Z</time>
      </trkpt>
      <trkpt lat="47.02119" lon="-1.73707">
        <ele>72</ele>
        <time>2020-12-17T14:21:35.000Z</time>
      </trkpt>
      <trkpt lat="47.02132" lon="-1.73708">
        <ele>72</ele>
        <time>2020-12-17T14:21:37.000Z</time>
      </trkpt>
      <trkpt lat="47.02142" lon="-1.7371">
        <ele>74</ele>
        <time>2020-12-17T14:21:39.000Z</time>
      </trkpt>
      <trkpt lat="47.02154" lon="-1.73712">
        <ele>75</ele>
        <time>2020-12-17T14:21:41.000Z</time>
      </trkpt>
      <trkpt lat="47.02167" lon="-1.73715">
        <ele>76</ele>
        <time>2020-12-17T14:21:43.000Z</time>
      </trkpt>
      <trkpt lat="47.02178" lon="-1.73718">
        <ele>76</ele>
        <time>2020-12-17T14:21:45.000Z</time>
      </trkpt>
      <trkpt lat="47.02191" lon="-1.73721">
        <ele>76</ele>
        <time>2020-12-17T14:21:47.000Z</time>
      </trkpt>
      <trkpt lat="47.02203" lon="-1.73725">
        <ele>75</ele>
        <time>2020-12-17T14:21:49.000Z</time>
      </trkpt>
      <trkpt lat="47.02215" lon="-1.73728">
        <ele>76</ele>
        <time>2020-12-17T14:21:51.000Z</time>
      </trkpt>
      <trkpt lat="47.02227" lon="-1.7373">
        <ele>77</ele>
        <time>2020-12-17T14:21:53.000Z</time>
      </trkpt>
      <trkpt lat="47.02238" lon="-1.73733">
        <ele>77</ele>
        <time>2020-12-17T14:21:55.000Z</time>
      </trkpt>
      <trkpt lat="47.02251" lon="-1.73735">
        <ele>77</ele>
        <time>2020-12-17T14:21:57.000Z</time>
      </trkpt>
      <trkpt lat="47.02263" lon="-1.73737">
        <ele>77</ele>
        <time>2020-12-17T14:21:59.000Z</time>
      </trkpt>
      <trkpt lat="47.02275" lon="-1.73738">
        <ele>77</ele>
        <time>2020-12-17T14:22:01.000Z</time>
      </trkpt>
      <trkpt lat="47.02288" lon="-1.73738">
        <ele>77</ele>
        <time>2020-12-17T14:22:03.000Z</time>
      </trkpt>
      <trkpt lat="47.023" lon="-1.73738">
        <ele>78</ele>
        <time>2020-12-17T14:22:05.000Z</time>
      </trkpt>
      <trkpt lat="47.02312" lon="-1.73735">
        <ele>78</ele>
        <time>2020-12-17T14:22:07.000Z</time>
      </trkpt>
      <trkpt lat="47.02323" lon="-1.73732">
        <ele>78</ele>
        <time>2020-12-17T14:22:09.000Z</time>
      </trkpt>
      <trkpt lat="47.02336" lon="-1.73729">
        <ele>78</ele>
        <time>2020-12-17T14:22:11.000Z</time>
      </trkpt>
      <trkpt lat="47.02347" lon="-1.73726">
        <ele>79</ele>
        <time>2020-12-17T14:22:13.000Z</time>
      </trkpt>
      <trkpt lat="47.02359" lon="-1.73724">
        <ele>79</ele>
        <time>2020-12-17T14:22:15.000Z</time>
      </trkpt>
      <trkpt lat="47.02371" lon="-1.73722">
        <ele>79</ele>
        <time>2020-12-17T14:22:17.000Z</time>
      </trkpt>
      <trkpt lat="47.02382" lon="-1.7372">
        <ele>79</ele>
        <time>2020-12-17T14:22:19.000Z</time>
      </trkpt>
      <trkpt lat="47.02394" lon="-1.73718">
        <ele>79</ele>
        <time>2020-12-17T14:22:21.000Z</time>
      </trkpt>
      <trkpt lat="47.02406" lon="-1.73714">
        <ele>79</ele>
        <time>2020-12-17T14:22:23.000Z</time>
      </trkpt>
      <trkpt lat="47.02418" lon="-1.73711">
        <ele>79</ele>
        <time>2020-12-17T14:22:25.000Z</time>
      </trkpt>
      <trkpt lat="47.0243" lon="-1.73709">
        <ele>80</ele>
        <time>2020-12-17T14:22:27.000Z</time>
      </trkpt>
      <trkpt lat="47.02442" lon="-1.73706">
        <ele>80</ele>
        <time>2020-12-17T14:22:29.000Z</time>
      </trkpt>
      <trkpt lat="47.02454" lon="-1.73703">
        <ele>81</ele>
        <time>2020-12-17T14:22:31.000Z</time>
      </trkpt>
      <trkpt lat="47.02465" lon="-1.73699">
        <ele>82</ele>
        <time>2020-12-17T14:22:33.000Z</time>
      </trkpt>
      <trkpt lat="47.02477" lon="-1.73695">
        <ele>81</ele>
        <time>2020-12-17T14:22:35.000Z</time>
      </trkpt>
      <trkpt lat="47.02489" lon="-1.73692">
        <ele>81</ele>
        <time>2020-12-17T14:22:37.000Z</time>
      </trkpt>
      <trkpt lat="47.025" lon="-1.73688">
        <ele>82</ele>
        <time>2020-12-17T14:22:39.000Z</time>
      </trkpt>
      <trkpt lat="47.02511" lon="-1.73685">
        <ele>82</ele>
        <time>2020-12-17T14:22:41.000Z</time>
      </trkpt>
      <trkpt lat="47.02522" lon="-1.73682">
        <ele>82</ele>
        <time>2020-12-17T14:22:43.000Z</time>
      </trkpt>
      <trkpt lat="47.02533" lon="-1.73679">
        <ele>82</ele>
        <time>2020-12-17T14:22:45.000Z</time>
      </trkpt>
      <trkpt lat="47.02545" lon="-1.73678">
        <ele>82</ele>
        <time>2020-12-17T14:22:47.000Z</time>
      </trkpt>
      <trkpt lat="47.02557" lon="-1.73676">
        <ele>81</ele>
        <time>2020-12-17T14:22:49.000Z</time>
      </trkpt>
      <trkpt lat="47.02569" lon="-1.73675">
        <ele>81</ele>
        <time>2020-12-17T14:22:51.000Z</time>
      </trkpt>
      <trkpt lat="47.02581" lon="-1.73673">
        <ele>82</ele>
        <time>2020-12-17T14:22:53.000Z</time>
      </trkpt>
      <trkpt lat="47.02593" lon="-1.73673">
        <ele>82</ele>
        <time>2020-12-17T14:22:55.000Z</time>
      </trkpt>
      <trkpt lat="47.02605" lon="-1.73671">
        <ele>83</ele>
        <time>2020-12-17T14:22:57.000Z</time>
      </trkpt>
      <trkpt lat="47.02617" lon="-1.7367">
        <ele>83</ele>
        <time>2020-12-17T14:22:59.000Z</time>
      </trkpt>
      <trkpt lat="47.02629" lon="-1.73668">
        <ele>83</ele>
        <time>2020-12-17T14:23:01.000Z</time>
      </trkpt>
      <trkpt lat="47.02642" lon="-1.73666">
        <ele>83</ele>
        <time>2020-12-17T14:23:03.000Z</time>
      </trkpt>
      <trkpt lat="47.02654" lon="-1.73664">
        <ele>83</ele>
        <time>2020-12-17T14:23:05.000Z</time>
      </trkpt>
      <trkpt lat="47.02667" lon="-1.73661">
        <ele>84</ele>
        <time>2020-12-17T14:23:07.000Z</time>
      </trkpt>
      <trkpt lat="47.02679" lon="-1.73658">
        <ele>84</ele>
        <time>2020-12-17T14:23:09.000Z</time>
      </trkpt>
      <trkpt lat="47.02692" lon="-1.73655">
        <ele>85</ele>
        <time>2020-12-17T14:23:11.000Z</time>
      </trkpt>
      <trkpt lat="47.02703" lon="-1.73652">
        <ele>85</ele>
        <time>2020-12-17T14:23:13.000Z</time>
      </trkpt>
      <trkpt lat="47.02714" lon="-1.73649">
        <ele>86</ele>
        <time>2020-12-17T14:23:15.000Z</time>
      </trkpt>
      <trkpt lat="47.02724" lon="-1.73644">
        <ele>87</ele>
        <time>2020-12-17T14:23:17.000Z</time>
      </trkpt>
      <trkpt lat="47.02734" lon="-1.73642">
        <ele>86</ele>
        <time>2020-12-17T14:23:19.000Z</time>
      </trkpt>
      <trkpt lat="47.02745" lon="-1.73638">
        <ele>86</ele>
        <time>2020-12-17T14:23:21.000Z</time>
      </trkpt>
      <trkpt lat="47.02757" lon="-1.73637">
        <ele>87</ele>
        <time>2020-12-17T14:23:23.000Z</time>
      </trkpt>
      <trkpt lat="47.0277" lon="-1.73637">
        <ele>85</ele>
        <time>2020-12-17T14:23:25.000Z</time>
      </trkpt>
      <trkpt lat="47.02783" lon="-1.73636">
        <ele>85</ele>
        <time>2020-12-17T14:23:27.000Z</time>
      </trkpt>
      <trkpt lat="47.02796" lon="-1.73636">
        <ele>87</ele>
        <time>2020-12-17T14:23:29.000Z</time>
      </trkpt>
      <trkpt lat="47.02809" lon="-1.73635">
        <ele>87</ele>
        <time>2020-12-17T14:23:31.000Z</time>
      </trkpt>
      <trkpt lat="47.02822" lon="-1.73633">
        <ele>87</ele>
        <time>2020-12-17T14:23:33.000Z</time>
      </trkpt>
      <trkpt lat="47.02835" lon="-1.73632">
        <ele>88</ele>
        <time>2020-12-17T14:23:35.000Z</time>
      </trkpt>
      <trkpt lat="47.02847" lon="-1.7363">
        <ele>89</ele>
        <time>2020-12-17T14:23:37.000Z</time>
      </trkpt>
      <trkpt lat="47.02859" lon="-1.73628">
        <ele>89</ele>
        <time>2020-12-17T14:23:39.000Z</time>
      </trkpt>
      <trkpt lat="47.0287" lon="-1.73626">
        <ele>90</ele>
        <time>2020-12-17T14:23:41.000Z</time>
      </trkpt>
      <trkpt lat="47.02881" lon="-1.73623">
        <ele>91</ele>
        <time>2020-12-17T14:23:43.000Z</time>
      </trkpt>
      <trkpt lat="47.02893" lon="-1.7362">
        <ele>89</ele>
        <time>2020-12-17T14:23:45.000Z</time>
      </trkpt>
      <trkpt lat="47.02905" lon="-1.73618">
        <ele>89</ele>
        <time>2020-12-17T14:23:47.000Z</time>
      </trkpt>
      <trkpt lat="47.02917" lon="-1.73617">
        <ele>89</ele>
        <time>2020-12-17T14:23:49.000Z</time>
      </trkpt>
      <trkpt lat="47.0293" lon="-1.73616">
        <ele>87</ele>
        <time>2020-12-17T14:23:51.000Z</time>
      </trkpt>
      <trkpt lat="47.02943" lon="-1.73613">
        <ele>87</ele>
        <time>2020-12-17T14:23:53.000Z</time>
      </trkpt>
      <trkpt lat="47.02955" lon="-1.73611">
        <ele>86</ele>
        <time>2020-12-17T14:23:55.000Z</time>
      </trkpt>
      <trkpt lat="47.02966" lon="-1.73608">
        <ele>86</ele>
        <time>2020-12-17T14:23:57.000Z</time>
      </trkpt>
      <trkpt lat="47.02979" lon="-1.73605">
        <ele>86</ele>
        <time>2020-12-17T14:23:59.000Z</time>
      </trkpt>
      <trkpt lat="47.02991" lon="-1.73603">
        <ele>86</ele>
        <time>2020-12-17T14:24:01.000Z</time>
      </trkpt>
      <trkpt lat="47.03002" lon="-1.736">
        <ele>86</ele>
        <time>2020-12-17T14:24:03.000Z</time>
      </trkpt>
      <trkpt lat="47.03015" lon="-1.73598">
        <ele>86</ele>
        <time>2020-12-17T14:24:05.000Z</time>
      </trkpt>
      <trkpt lat="47.03028" lon="-1.73596">
        <ele>86</ele>
        <time>2020-12-17T14:24:07.000Z</time>
      </trkpt>
      <trkpt lat="47.03041" lon="-1.73595">
        <ele>86</ele>
        <time>2020-12-17T14:24:09.000Z</time>
      </trkpt>
      <trkpt lat="47.03053" lon="-1.73593">
        <ele>85</ele>
        <time>2020-12-17T14:24:11.000Z</time>
      </trkpt>
      <trkpt lat="47.03066" lon="-1.73591">
        <ele>85</ele>
        <time>2020-12-17T14:24:13.000Z</time>
      </trkpt>
      <trkpt lat="47.03078" lon="-1.73589">
        <ele>85</ele>
        <time>2020-12-17T14:24:15.000Z</time>
      </trkpt>
      <trkpt lat="47.03091" lon="-1.73586">
        <ele>85</ele>
        <time>2020-12-17T14:24:17.000Z</time>
      </trkpt>
      <trkpt lat="47.03103" lon="-1.73583">
        <ele>85</ele>
        <time>2020-12-17T14:24:19.000Z</time>
      </trkpt>
      <trkpt lat="47.03116" lon="-1.73581">
        <ele>84</ele>
        <time>2020-12-17T14:24:21.000Z</time>
      </trkpt>
      <trkpt lat="47.03129" lon="-1.73579">
        <ele>84</ele>
        <time>2020-12-17T14:24:23.000Z</time>
      </trkpt>
      <trkpt lat="47.03142" lon="-1.73577">
        <ele>84</ele>
        <time>2020-12-17T14:24:25.000Z</time>
      </trkpt>
      <trkpt lat="47.03154" lon="-1.73576">
        <ele>84</ele>
        <time>2020-12-17T14:24:27.000Z</time>
      </trkpt>
      <trkpt lat="47.03167" lon="-1.73577">
        <ele>84</ele>
        <time>2020-12-17T14:24:29.000Z</time>
      </trkpt>
      <trkpt lat="47.03181" lon="-1.7358">
        <ele>84</ele>
        <time>2020-12-17T14:24:31.000Z</time>
      </trkpt>
      <trkpt lat="47.03194" lon="-1.73583">
        <ele>83</ele>
        <time>2020-12-17T14:24:33.000Z</time>
      </trkpt>
      <trkpt lat="47.03206" lon="-1.73588">
        <ele>83</ele>
        <time>2020-12-17T14:24:35.000Z</time>
      </trkpt>
      <trkpt lat="47.03218" lon="-1.73594">
        <ele>83</ele>
        <time>2020-12-17T14:24:37.000Z</time>
      </trkpt>
      <trkpt lat="47.0323" lon="-1.73601">
        <ele>83</ele>
        <time>2020-12-17T14:24:39.000Z</time>
      </trkpt>
      <trkpt lat="47.03242" lon="-1.73608">
        <ele>82</ele>
        <time>2020-12-17T14:24:41.000Z</time>
      </trkpt>
      <trkpt lat="47.03254" lon="-1.73614">
        <ele>82</ele>
        <time>2020-12-17T14:24:43.000Z</time>
      </trkpt>
      <trkpt lat="47.03267" lon="-1.73621">
        <ele>82</ele>
        <time>2020-12-17T14:24:45.000Z</time>
      </trkpt>
      <trkpt lat="47.03279" lon="-1.73628">
        <ele>82</ele>
        <time>2020-12-17T14:24:47.000Z</time>
      </trkpt>
      <trkpt lat="47.03291" lon="-1.73635">
        <ele>82</ele>
        <time>2020-12-17T14:24:49.000Z</time>
      </trkpt>
      <trkpt lat="47.03303" lon="-1.73642">
        <ele>81</ele>
        <time>2020-12-17T14:24:51.000Z</time>
      </trkpt>
      <trkpt lat="47.03316" lon="-1.73649">
        <ele>81</ele>
        <time>2020-12-17T14:24:53.000Z</time>
      </trkpt>
      <trkpt lat="47.03328" lon="-1.73656">
        <ele>81</ele>
        <time>2020-12-17T14:24:55.000Z</time>
      </trkpt>
      <trkpt lat="47.0334" lon="-1.73662">
        <ele>81</ele>
        <time>2020-12-17T14:24:57.000Z</time>
      </trkpt>
      <trkpt lat="47.03353" lon="-1.73668">
        <ele>82</ele>
        <time>2020-12-17T14:24:59.000Z</time>
      </trkpt>
      <trkpt lat="47.03365" lon="-1.73675">
        <ele>82</ele>
        <time>2020-12-17T14:25:01.000Z</time>
      </trkpt>
      <trkpt lat="47.03379" lon="-1.73682">
        <ele>82</ele>
        <time>2020-12-17T14:25:03.000Z</time>
      </trkpt>
      <trkpt lat="47.03391" lon="-1.73689">
        <ele>82</ele>
        <time>2020-12-17T14:25:05.000Z</time>
      </trkpt>
      <trkpt lat="47.03404" lon="-1.73697">
        <ele>82</ele>
        <time>2020-12-17T14:25:07.000Z</time>
      </trkpt>
      <trkpt lat="47.03418" lon="-1.73706">
        <ele>82</ele>
        <time>2020-12-17T14:25:09.000Z</time>
      </trkpt>
      <trkpt lat="47.03431" lon="-1.73713">
        <ele>81</ele>
        <time>2020-12-17T14:25:11.000Z</time>
      </trkpt>
      <trkpt lat="47.03444" lon="-1.7372">
        <ele>81</ele>
        <time>2020-12-17T14:25:13.000Z</time>
      </trkpt>
      <trkpt lat="47.03458" lon="-1.73727">
        <ele>81</ele>
        <time>2020-12-17T14:25:15.000Z</time>
      </trkpt>
      <trkpt lat="47.03471" lon="-1.73734">
        <ele>81</ele>
        <time>2020-12-17T14:25:17.000Z</time>
      </trkpt>
      <trkpt lat="47.03485" lon="-1.7374">
        <ele>80</ele>
        <time>2020-12-17T14:25:19.000Z</time>
      </trkpt>
      <trkpt lat="47.03498" lon="-1.73745">
        <ele>80</ele>
        <time>2020-12-17T14:25:21.000Z</time>
      </trkpt>
      <trkpt lat="47.03512" lon="-1.73751">
        <ele>79</ele>
        <time>2020-12-17T14:25:23.000Z</time>
      </trkpt>
      <trkpt lat="47.03525" lon="-1.73756">
        <ele>79</ele>
        <time>2020-12-17T14:25:25.000Z</time>
      </trkpt>
      <trkpt lat="47.03538" lon="-1.73761">
        <ele>78</ele>
        <time>2020-12-17T14:25:27.000Z</time>
      </trkpt>
      <trkpt lat="47.03551" lon="-1.73765">
        <ele>78</ele>
        <time>2020-12-17T14:25:29.000Z</time>
      </trkpt>
      <trkpt lat="47.03564" lon="-1.73769">
        <ele>78</ele>
        <time>2020-12-17T14:25:31.000Z</time>
      </trkpt>
      <trkpt lat="47.03577" lon="-1.73775">
        <ele>77</ele>
        <time>2020-12-17T14:25:33.000Z</time>
      </trkpt>
      <trkpt lat="47.03591" lon="-1.7378">
        <ele>78</ele>
        <time>2020-12-17T14:25:35.000Z</time>
      </trkpt>
      <trkpt lat="47.03604" lon="-1.73786">
        <ele>78</ele>
        <time>2020-12-17T14:25:37.000Z</time>
      </trkpt>
      <trkpt lat="47.03617" lon="-1.73792">
        <ele>77</ele>
        <time>2020-12-17T14:25:39.000Z</time>
      </trkpt>
      <trkpt lat="47.03631" lon="-1.73797">
        <ele>77</ele>
        <time>2020-12-17T14:25:41.000Z</time>
      </trkpt>
      <trkpt lat="47.03645" lon="-1.73802">
        <ele>77</ele>
        <time>2020-12-17T14:25:43.000Z</time>
      </trkpt>
      <trkpt lat="47.03659" lon="-1.73807">
        <ele>76</ele>
        <time>2020-12-17T14:25:45.000Z</time>
      </trkpt>
      <trkpt lat="47.03673" lon="-1.7381">
        <ele>76</ele>
        <time>2020-12-17T14:25:47.000Z</time>
      </trkpt>
      <trkpt lat="47.03687" lon="-1.73812">
        <ele>75</ele>
        <time>2020-12-17T14:25:49.000Z</time>
      </trkpt>
      <trkpt lat="47.03701" lon="-1.73811">
        <ele>76</ele>
        <time>2020-12-17T14:25:51.000Z</time>
      </trkpt>
      <trkpt lat="47.03715" lon="-1.7381">
        <ele>76</ele>
        <time>2020-12-17T14:25:53.000Z</time>
      </trkpt>
      <trkpt lat="47.03728" lon="-1.73808">
        <ele>76</ele>
        <time>2020-12-17T14:25:55.000Z</time>
      </trkpt>
      <trkpt lat="47.03739" lon="-1.73805">
        <ele>75</ele>
        <time>2020-12-17T14:25:57.000Z</time>
      </trkpt>
      <trkpt lat="47.03752" lon="-1.73804">
        <ele>76</ele>
        <time>2020-12-17T14:25:59.000Z</time>
      </trkpt>
      <trkpt lat="47.03765" lon="-1.73801">
        <ele>76</ele>
        <time>2020-12-17T14:26:01.000Z</time>
      </trkpt>
      <trkpt lat="47.03778" lon="-1.738">
        <ele>77</ele>
        <time>2020-12-17T14:26:03.000Z</time>
      </trkpt>
      <trkpt lat="47.0379" lon="-1.73798">
        <ele>77</ele>
        <time>2020-12-17T14:26:05.000Z</time>
      </trkpt>
      <trkpt lat="47.03802" lon="-1.73796">
        <ele>77</ele>
        <time>2020-12-17T14:26:07.000Z</time>
      </trkpt>
      <trkpt lat="47.03814" lon="-1.73794">
        <ele>77</ele>
        <time>2020-12-17T14:26:09.000Z</time>
      </trkpt>
      <trkpt lat="47.03826" lon="-1.73791">
        <ele>78</ele>
        <time>2020-12-17T14:26:11.000Z</time>
      </trkpt>
      <trkpt lat="47.03838" lon="-1.73789">
        <ele>78</ele>
        <time>2020-12-17T14:26:13.000Z</time>
      </trkpt>
      <trkpt lat="47.0385" lon="-1.73786">
        <ele>78</ele>
        <time>2020-12-17T14:26:15.000Z</time>
      </trkpt>
      <trkpt lat="47.03862" lon="-1.73783">
        <ele>78</ele>
        <time>2020-12-17T14:26:17.000Z</time>
      </trkpt>
      <trkpt lat="47.03874" lon="-1.73777">
        <ele>78</ele>
        <time>2020-12-17T14:26:19.000Z</time>
      </trkpt>
      <trkpt lat="47.03886" lon="-1.7377">
        <ele>78</ele>
        <time>2020-12-17T14:26:21.000Z</time>
      </trkpt>
      <trkpt lat="47.03898" lon="-1.73762">
        <ele>80</ele>
        <time>2020-12-17T14:26:23.000Z</time>
      </trkpt>
      <trkpt lat="47.0391" lon="-1.73752">
        <ele>80</ele>
        <time>2020-12-17T14:26:25.000Z</time>
      </trkpt>
      <trkpt lat="47.03921" lon="-1.73743">
        <ele>80</ele>
        <time>2020-12-17T14:26:27.000Z</time>
      </trkpt>
      <trkpt lat="47.03931" lon="-1.73733">
        <ele>79</ele>
        <time>2020-12-17T14:26:29.000Z</time>
      </trkpt>
      <trkpt lat="47.03942" lon="-1.73723">
        <ele>79</ele>
        <time>2020-12-17T14:26:31.000Z</time>
      </trkpt>
      <trkpt lat="47.03952" lon="-1.73713">
        <ele>80</ele>
        <time>2020-12-17T14:26:33.000Z</time>
      </trkpt>
      <trkpt lat="47.03962" lon="-1.73702">
        <ele>80</ele>
        <time>2020-12-17T14:26:35.000Z</time>
      </trkpt>
      <trkpt lat="47.03972" lon="-1.73693">
        <ele>80</ele>
        <time>2020-12-17T14:26:37.000Z</time>
      </trkpt>
      <trkpt lat="47.03983" lon="-1.73683">
        <ele>80</ele>
        <time>2020-12-17T14:26:39.000Z</time>
      </trkpt>
      <trkpt lat="47.03993" lon="-1.73672">
        <ele>80</ele>
        <time>2020-12-17T14:26:41.000Z</time>
      </trkpt>
      <trkpt lat="47.04003" lon="-1.73662">
        <ele>80</ele>
        <time>2020-12-17T14:26:43.000Z</time>
      </trkpt>
      <trkpt lat="47.04014" lon="-1.73651">
        <ele>80</ele>
        <time>2020-12-17T14:26:45.000Z</time>
      </trkpt>
      <trkpt lat="47.04024" lon="-1.73641">
        <ele>80</ele>
        <time>2020-12-17T14:26:47.000Z</time>
      </trkpt>
      <trkpt lat="47.04034" lon="-1.7363">
        <ele>81</ele>
        <time>2020-12-17T14:26:49.000Z</time>
      </trkpt>
      <trkpt lat="47.04045" lon="-1.7362">
        <ele>81</ele>
        <time>2020-12-17T14:26:51.000Z</time>
      </trkpt>
      <trkpt lat="47.04056" lon="-1.7361">
        <ele>81</ele>
        <time>2020-12-17T14:26:53.000Z</time>
      </trkpt>
      <trkpt lat="47.04066" lon="-1.73599">
        <ele>81</ele>
        <time>2020-12-17T14:26:55.000Z</time>
      </trkpt>
      <trkpt lat="47.04077" lon="-1.73588">
        <ele>81</ele>
        <time>2020-12-17T14:26:57.000Z</time>
      </trkpt>
      <trkpt lat="47.04087" lon="-1.73578">
        <ele>81</ele>
        <time>2020-12-17T14:26:59.000Z</time>
      </trkpt>
      <trkpt lat="47.04097" lon="-1.73567">
        <ele>81</ele>
        <time>2020-12-17T14:27:01.000Z</time>
      </trkpt>
      <trkpt lat="47.04107" lon="-1.73557">
        <ele>82</ele>
        <time>2020-12-17T14:27:03.000Z</time>
      </trkpt>
      <trkpt lat="47.04118" lon="-1.73547">
        <ele>82</ele>
        <time>2020-12-17T14:27:05.000Z</time>
      </trkpt>
      <trkpt lat="47.04128" lon="-1.73537">
        <ele>82</ele>
        <time>2020-12-17T14:27:07.000Z</time>
      </trkpt>
      <trkpt lat="47.04138" lon="-1.73527">
        <ele>82</ele>
        <time>2020-12-17T14:27:09.000Z</time>
      </trkpt>
      <trkpt lat="47.04148" lon="-1.73517">
        <ele>82</ele>
        <time>2020-12-17T14:27:11.000Z</time>
      </trkpt>
      <trkpt lat="47.04158" lon="-1.73507">
        <ele>82</ele>
        <time>2020-12-17T14:27:13.000Z</time>
      </trkpt>
      <trkpt lat="47.04168" lon="-1.73497">
        <ele>82</ele>
        <time>2020-12-17T14:27:15.000Z</time>
      </trkpt>
      <trkpt lat="47.04178" lon="-1.73487">
        <ele>82</ele>
        <time>2020-12-17T14:27:17.000Z</time>
      </trkpt>
      <trkpt lat="47.04188" lon="-1.73477">
        <ele>82</ele>
        <time>2020-12-17T14:27:19.000Z</time>
      </trkpt>
      <trkpt lat="47.04198" lon="-1.73467">
        <ele>82</ele>
        <time>2020-12-17T14:27:21.000Z</time>
      </trkpt>
      <trkpt lat="47.04208" lon="-1.73457">
        <ele>83</ele>
        <time>2020-12-17T14:27:23.000Z</time>
      </trkpt>
      <trkpt lat="47.04218" lon="-1.73447">
        <ele>83</ele>
        <time>2020-12-17T14:27:25.000Z</time>
      </trkpt>
      <trkpt lat="47.04229" lon="-1.73437">
        <ele>83</ele>
        <time>2020-12-17T14:27:27.000Z</time>
      </trkpt>
      <trkpt lat="47.04239" lon="-1.73427">
        <ele>84</ele>
        <time>2020-12-17T14:27:29.000Z</time>
      </trkpt>
      <trkpt lat="47.0425" lon="-1.73417">
        <ele>84</ele>
        <time>2020-12-17T14:27:31.000Z</time>
      </trkpt>
      <trkpt lat="47.04261" lon="-1.73406">
        <ele>84</ele>
        <time>2020-12-17T14:27:33.000Z</time>
      </trkpt>
      <trkpt lat="47.04271" lon="-1.73396">
        <ele>84</ele>
        <time>2020-12-17T14:27:35.000Z</time>
      </trkpt>
      <trkpt lat="47.04282" lon="-1.73385">
        <ele>84</ele>
        <time>2020-12-17T14:27:37.000Z</time>
      </trkpt>
      <trkpt lat="47.04292" lon="-1.73375">
        <ele>84</ele>
        <time>2020-12-17T14:27:39.000Z</time>
      </trkpt>
      <trkpt lat="47.04303" lon="-1.73364">
        <ele>84</ele>
        <time>2020-12-17T14:27:41.000Z</time>
      </trkpt>
      <trkpt lat="47.04313" lon="-1.73353">
        <ele>84</ele>
        <time>2020-12-17T14:27:43.000Z</time>
      </trkpt>
      <trkpt lat="47.04324" lon="-1.73342">
        <ele>84</ele>
        <time>2020-12-17T14:27:45.000Z</time>
      </trkpt>
      <trkpt lat="47.04335" lon="-1.73331">
        <ele>84</ele>
        <time>2020-12-17T14:27:47.000Z</time>
      </trkpt>
      <trkpt lat="47.04345" lon="-1.73321">
        <ele>85</ele>
        <time>2020-12-17T14:27:49.000Z</time>
      </trkpt>
      <trkpt lat="47.04356" lon="-1.7331">
        <ele>85</ele>
        <time>2020-12-17T14:27:51.000Z</time>
      </trkpt>
      <trkpt lat="47.04366" lon="-1.733">
        <ele>84</ele>
        <time>2020-12-17T14:27:53.000Z</time>
      </trkpt>
      <trkpt lat="47.04377" lon="-1.73289">
        <ele>85</ele>
        <time>2020-12-17T14:27:55.000Z</time>
      </trkpt>
      <trkpt lat="47.04387" lon="-1.73277">
        <ele>84</ele>
        <time>2020-12-17T14:27:57.000Z</time>
      </trkpt>
      <trkpt lat="47.04397" lon="-1.73265">
        <ele>84</ele>
        <time>2020-12-17T14:27:59.000Z</time>
      </trkpt>
      <trkpt lat="47.04407" lon="-1.73252">
        <ele>84</ele>
        <time>2020-12-17T14:28:01.000Z</time>
      </trkpt>
      <trkpt lat="47.04417" lon="-1.73239">
        <ele>84</ele>
        <time>2020-12-17T14:28:03.000Z</time>
      </trkpt>
      <trkpt lat="47.04426" lon="-1.73226">
        <ele>84</ele>
        <time>2020-12-17T14:28:05.000Z</time>
      </trkpt>
      <trkpt lat="47.04436" lon="-1.73213">
        <ele>84</ele>
        <time>2020-12-17T14:28:07.000Z</time>
      </trkpt>
      <trkpt lat="47.04446" lon="-1.73199">
        <ele>84</ele>
        <time>2020-12-17T14:28:09.000Z</time>
      </trkpt>
      <trkpt lat="47.04455" lon="-1.73186">
        <ele>84</ele>
        <time>2020-12-17T14:28:11.000Z</time>
      </trkpt>
      <trkpt lat="47.04465" lon="-1.73173">
        <ele>84</ele>
        <time>2020-12-17T14:28:13.000Z</time>
      </trkpt>
      <trkpt lat="47.04474" lon="-1.7316">
        <ele>84</ele>
        <time>2020-12-17T14:28:15.000Z</time>
      </trkpt>
      <trkpt lat="47.04484" lon="-1.73146">
        <ele>84</ele>
        <time>2020-12-17T14:28:17.000Z</time>
      </trkpt>
      <trkpt lat="47.04493" lon="-1.73133">
        <ele>84</ele>
        <time>2020-12-17T14:28:19.000Z</time>
      </trkpt>
      <trkpt lat="47.04503" lon="-1.73119">
        <ele>85</ele>
        <time>2020-12-17T14:28:21.000Z</time>
      </trkpt>
      <trkpt lat="47.04513" lon="-1.73106">
        <ele>85</ele>
        <time>2020-12-17T14:28:23.000Z</time>
      </trkpt>
      <trkpt lat="47.04522" lon="-1.73093">
        <ele>85</ele>
        <time>2020-12-17T14:28:25.000Z</time>
      </trkpt>
      <trkpt lat="47.04532" lon="-1.7308">
        <ele>85</ele>
        <time>2020-12-17T14:28:27.000Z</time>
      </trkpt>
      <trkpt lat="47.04542" lon="-1.73067">
        <ele>86</ele>
        <time>2020-12-17T14:28:29.000Z</time>
      </trkpt>
      <trkpt lat="47.04551" lon="-1.73053">
        <ele>86</ele>
        <time>2020-12-17T14:28:31.000Z</time>
      </trkpt>
      <trkpt lat="47.0456" lon="-1.7304">
        <ele>86</ele>
        <time>2020-12-17T14:28:33.000Z</time>
      </trkpt>
      <trkpt lat="47.0457" lon="-1.73027">
        <ele>86</ele>
        <time>2020-12-17T14:28:35.000Z</time>
      </trkpt>
      <trkpt lat="47.0458" lon="-1.73014">
        <ele>86</ele>
        <time>2020-12-17T14:28:37.000Z</time>
      </trkpt>
      <trkpt lat="47.04589" lon="-1.73002">
        <ele>86</ele>
        <time>2020-12-17T14:28:39.000Z</time>
      </trkpt>
      <trkpt lat="47.04598" lon="-1.72989">
        <ele>86</ele>
        <time>2020-12-17T14:28:41.000Z</time>
      </trkpt>
      <trkpt lat="47.04608" lon="-1.72976">
        <ele>86</ele>
        <time>2020-12-17T14:28:43.000Z</time>
      </trkpt>
      <trkpt lat="47.04617" lon="-1.72963">
        <ele>86</ele>
        <time>2020-12-17T14:28:45.000Z</time>
      </trkpt>
      <trkpt lat="47.04626" lon="-1.7295">
        <ele>86</ele>
        <time>2020-12-17T14:28:47.000Z</time>
      </trkpt>
      <trkpt lat="47.04635" lon="-1.72937">
        <ele>86</ele>
        <time>2020-12-17T14:28:49.000Z</time>
      </trkpt>
      <trkpt lat="47.04645" lon="-1.72924">
        <ele>85</ele>
        <time>2020-12-17T14:28:51.000Z</time>
      </trkpt>
      <trkpt lat="47.04655" lon="-1.72911">
        <ele>85</ele>
        <time>2020-12-17T14:28:53.000Z</time>
      </trkpt>
      <trkpt lat="47.04665" lon="-1.72898">
        <ele>85</ele>
        <time>2020-12-17T14:28:55.000Z</time>
      </trkpt>
      <trkpt lat="47.04676" lon="-1.72885">
        <ele>85</ele>
        <time>2020-12-17T14:28:57.000Z</time>
      </trkpt>
      <trkpt lat="47.04688" lon="-1.72873">
        <ele>84</ele>
        <time>2020-12-17T14:28:59.000Z</time>
      </trkpt>
      <trkpt lat="47.04701" lon="-1.72862">
        <ele>84</ele>
        <time>2020-12-17T14:29:01.000Z</time>
      </trkpt>
      <trkpt lat="47.04715" lon="-1.7285">
        <ele>83</ele>
        <time>2020-12-17T14:29:03.000Z</time>
      </trkpt>
      <trkpt lat="47.04729" lon="-1.7284">
        <ele>82</ele>
        <time>2020-12-17T14:29:05.000Z</time>
      </trkpt>
      <trkpt lat="47.04743" lon="-1.72829">
        <ele>82</ele>
        <time>2020-12-17T14:29:07.000Z</time>
      </trkpt>
      <trkpt lat="47.04757" lon="-1.7282">
        <ele>81</ele>
        <time>2020-12-17T14:29:09.000Z</time>
      </trkpt>
      <trkpt lat="47.04772" lon="-1.72811">
        <ele>81</ele>
        <time>2020-12-17T14:29:11.000Z</time>
      </trkpt>
      <trkpt lat="47.04786" lon="-1.72806">
        <ele>81</ele>
        <time>2020-12-17T14:29:13.000Z</time>
      </trkpt>
      <trkpt lat="47.04798" lon="-1.72802">
        <ele>80</ele>
        <time>2020-12-17T14:29:15.000Z</time>
      </trkpt>
      <trkpt lat="47.04807" lon="-1.72801">
        <ele>81</ele>
        <time>2020-12-17T14:29:17.000Z</time>
      </trkpt>
      <trkpt lat="47.04818" lon="-1.72801">
        <ele>81</ele>
        <time>2020-12-17T14:29:19.000Z</time>
      </trkpt>
      <trkpt lat="47.04831" lon="-1.72802">
        <ele>80</ele>
        <time>2020-12-17T14:29:21.000Z</time>
      </trkpt>
      <trkpt lat="47.04845" lon="-1.72806">
        <ele>80</ele>
        <time>2020-12-17T14:29:23.000Z</time>
      </trkpt>
      <trkpt lat="47.0486" lon="-1.7281">
        <ele>79</ele>
        <time>2020-12-17T14:29:25.000Z</time>
      </trkpt>
      <trkpt lat="47.04875" lon="-1.72813">
        <ele>79</ele>
        <time>2020-12-17T14:29:27.000Z</time>
      </trkpt>
      <trkpt lat="47.0489" lon="-1.72817">
        <ele>79</ele>
        <time>2020-12-17T14:29:29.000Z</time>
      </trkpt>
      <trkpt lat="47.04906" lon="-1.7282">
        <ele>79</ele>
        <time>2020-12-17T14:29:31.000Z</time>
      </trkpt>
      <trkpt lat="47.04921" lon="-1.72823">
        <ele>79</ele>
        <time>2020-12-17T14:29:33.000Z</time>
      </trkpt>
      <trkpt lat="47.04936" lon="-1.72824">
        <ele>79</ele>
        <time>2020-12-17T14:29:35.000Z</time>
      </trkpt>
      <trkpt lat="47.0495" lon="-1.72828">
        <ele>78</ele>
        <time>2020-12-17T14:29:37.000Z</time>
      </trkpt>
      <trkpt lat="47.04965" lon="-1.72831">
        <ele>78</ele>
        <time>2020-12-17T14:29:39.000Z</time>
      </trkpt>
      <trkpt lat="47.0498" lon="-1.72834">
        <ele>78</ele>
        <time>2020-12-17T14:29:41.000Z</time>
      </trkpt>
      <trkpt lat="47.04995" lon="-1.72836">
        <ele>78</ele>
        <time>2020-12-17T14:29:43.000Z</time>
      </trkpt>
      <trkpt lat="47.05011" lon="-1.72838">
        <ele>78</ele>
        <time>2020-12-17T14:29:45.000Z</time>
      </trkpt>
      <trkpt lat="47.05026" lon="-1.72837">
        <ele>78</ele>
        <time>2020-12-17T14:29:47.000Z</time>
      </trkpt>
      <trkpt lat="47.05041" lon="-1.72834">
        <ele>78</ele>
        <time>2020-12-17T14:29:49.000Z</time>
      </trkpt>
      <trkpt lat="47.05055" lon="-1.72829">
        <ele>78</ele>
        <time>2020-12-17T14:29:51.000Z</time>
      </trkpt>
      <trkpt lat="47.0507" lon="-1.72822">
        <ele>77</ele>
        <time>2020-12-17T14:29:53.000Z</time>
      </trkpt>
      <trkpt lat="47.05084" lon="-1.72815">
        <ele>77</ele>
        <time>2020-12-17T14:29:55.000Z</time>
      </trkpt>
      <trkpt lat="47.05099" lon="-1.72808">
        <ele>77</ele>
        <time>2020-12-17T14:29:57.000Z</time>
      </trkpt>
      <trkpt lat="47.05113" lon="-1.72799">
        <ele>76</ele>
        <time>2020-12-17T14:29:59.000Z</time>
      </trkpt>
      <trkpt lat="47.05126" lon="-1.72792">
        <ele>75</ele>
        <time>2020-12-17T14:30:01.000Z</time>
      </trkpt>
      <trkpt lat="47.0514" lon="-1.72784">
        <ele>75</ele>
        <time>2020-12-17T14:30:03.000Z</time>
      </trkpt>
      <trkpt lat="47.05154" lon="-1.72776">
        <ele>74</ele>
        <time>2020-12-17T14:30:05.000Z</time>
      </trkpt>
      <trkpt lat="47.05168" lon="-1.72769">
        <ele>74</ele>
        <time>2020-12-17T14:30:07.000Z</time>
      </trkpt>
      <trkpt lat="47.05182" lon="-1.72761">
        <ele>74</ele>
        <time>2020-12-17T14:30:09.000Z</time>
      </trkpt>
      <trkpt lat="47.05196" lon="-1.72754">
        <ele>74</ele>
        <time>2020-12-17T14:30:11.000Z</time>
      </trkpt>
      <trkpt lat="47.0521" lon="-1.72747">
        <ele>73</ele>
        <time>2020-12-17T14:30:13.000Z</time>
      </trkpt>
      <trkpt lat="47.05224" lon="-1.72739">
        <ele>73</ele>
        <time>2020-12-17T14:30:15.000Z</time>
      </trkpt>
      <trkpt lat="47.05238" lon="-1.72731">
        <ele>74</ele>
        <time>2020-12-17T14:30:17.000Z</time>
      </trkpt>
      <trkpt lat="47.05252" lon="-1.72724">
        <ele>74</ele>
        <time>2020-12-17T14:30:19.000Z</time>
      </trkpt>
      <trkpt lat="47.05266" lon="-1.72716">
        <ele>74</ele>
        <time>2020-12-17T14:30:21.000Z</time>
      </trkpt>
      <trkpt lat="47.0528" lon="-1.72706">
        <ele>73</ele>
        <time>2020-12-17T14:30:23.000Z</time>
      </trkpt>
      <trkpt lat="47.05292" lon="-1.72697">
        <ele>72</ele>
        <time>2020-12-17T14:30:25.000Z</time>
      </trkpt>
      <trkpt lat="47.05305" lon="-1.72687">
        <ele>72</ele>
        <time>2020-12-17T14:30:27.000Z</time>
      </trkpt>
      <trkpt lat="47.05316" lon="-1.72675">
        <ele>72</ele>
        <time>2020-12-17T14:30:29.000Z</time>
      </trkpt>
      <trkpt lat="47.05322" lon="-1.72658">
        <ele>72</ele>
        <time>2020-12-17T14:30:31.000Z</time>
      </trkpt>
      <trkpt lat="47.05331" lon="-1.72646">
        <ele>72</ele>
        <time>2020-12-17T14:30:33.000Z</time>
      </trkpt>
      <trkpt lat="47.05347" lon="-1.72645">
        <ele>72</ele>
        <time>2020-12-17T14:30:35.000Z</time>
      </trkpt>
      <trkpt lat="47.0536" lon="-1.72643">
        <ele>73</ele>
        <time>2020-12-17T14:30:37.000Z</time>
      </trkpt>
      <trkpt lat="47.05374" lon="-1.7264">
        <ele>73</ele>
        <time>2020-12-17T14:30:39.000Z</time>
      </trkpt>
      <trkpt lat="47.05387" lon="-1.72637">
        <ele>73</ele>
        <time>2020-12-17T14:30:41.000Z</time>
      </trkpt>
      <trkpt lat="47.054" lon="-1.72634">
        <ele>73</ele>
        <time>2020-12-17T14:30:43.000Z</time>
      </trkpt>
      <trkpt lat="47.05413" lon="-1.72636">
        <ele>73</ele>
        <time>2020-12-17T14:30:45.000Z</time>
      </trkpt>
      <trkpt lat="47.05427" lon="-1.72638">
        <ele>74</ele>
        <time>2020-12-17T14:30:47.000Z</time>
      </trkpt>
      <trkpt lat="47.05441" lon="-1.7264">
        <ele>74</ele>
        <time>2020-12-17T14:30:49.000Z</time>
      </trkpt>
      <trkpt lat="47.05455" lon="-1.72643">
        <ele>74</ele>
        <time>2020-12-17T14:30:51.000Z</time>
      </trkpt>
      <trkpt lat="47.0547" lon="-1.72644">
        <ele>74</ele>
        <time>2020-12-17T14:30:53.000Z</time>
      </trkpt>
      <trkpt lat="47.05483" lon="-1.72646">
        <ele>74</ele>
        <time>2020-12-17T14:30:55.000Z</time>
      </trkpt>
      <trkpt lat="47.05497" lon="-1.72648">
        <ele>74</ele>
        <time>2020-12-17T14:30:57.000Z</time>
      </trkpt>
      <trkpt lat="47.0551" lon="-1.72649">
        <ele>74</ele>
        <time>2020-12-17T14:30:59.000Z</time>
      </trkpt>
      <trkpt lat="47.05523" lon="-1.72649">
        <ele>75</ele>
        <time>2020-12-17T14:31:01.000Z</time>
      </trkpt>
      <trkpt lat="47.05536" lon="-1.7265">
        <ele>75</ele>
        <time>2020-12-17T14:31:03.000Z</time>
      </trkpt>
      <trkpt lat="47.05549" lon="-1.7265">
        <ele>75</ele>
        <time>2020-12-17T14:31:05.000Z</time>
      </trkpt>
      <trkpt lat="47.05562" lon="-1.72651">
        <ele>74</ele>
        <time>2020-12-17T14:31:07.000Z</time>
      </trkpt>
      <trkpt lat="47.05574" lon="-1.72644">
        <ele>74</ele>
        <time>2020-12-17T14:31:09.000Z</time>
      </trkpt>
      <trkpt lat="47.05576" lon="-1.72629">
        <ele>73</ele>
        <time>2020-12-17T14:31:11.000Z</time>
      </trkpt>
      <trkpt lat="47.05572" lon="-1.72611">
        <ele>72</ele>
        <time>2020-12-17T14:31:13.000Z</time>
      </trkpt>
      <trkpt lat="47.05567" lon="-1.72592">
        <ele>72</ele>
        <time>2020-12-17T14:31:15.000Z</time>
      </trkpt>
      <trkpt lat="47.05562" lon="-1.72572">
        <ele>71</ele>
        <time>2020-12-17T14:31:17.000Z</time>
      </trkpt>
      <trkpt lat="47.05557" lon="-1.72552">
        <ele>71</ele>
        <time>2020-12-17T14:31:19.000Z</time>
      </trkpt>
      <trkpt lat="47.05553" lon="-1.72532">
        <ele>71</ele>
        <time>2020-12-17T14:31:21.000Z</time>
      </trkpt>
      <trkpt lat="47.05549" lon="-1.72513">
        <ele>71</ele>
        <time>2020-12-17T14:31:23.000Z</time>
      </trkpt>
      <trkpt lat="47.05545" lon="-1.72494">
        <ele>71</ele>
        <time>2020-12-17T14:31:25.000Z</time>
      </trkpt>
      <trkpt lat="47.05541" lon="-1.72476">
        <ele>72</ele>
        <time>2020-12-17T14:31:27.000Z</time>
      </trkpt>
      <trkpt lat="47.05536" lon="-1.72457">
        <ele>72</ele>
        <time>2020-12-17T14:31:29.000Z</time>
      </trkpt>
      <trkpt lat="47.05531" lon="-1.72439">
        <ele>72</ele>
        <time>2020-12-17T14:31:31.000Z</time>
      </trkpt>
      <trkpt lat="47.05526" lon="-1.72421">
        <ele>72</ele>
        <time>2020-12-17T14:31:33.000Z</time>
      </trkpt>
      <trkpt lat="47.05521" lon="-1.72402">
        <ele>72</ele>
        <time>2020-12-17T14:31:35.000Z</time>
      </trkpt>
      <trkpt lat="47.05515" lon="-1.72385">
        <ele>72</ele>
        <time>2020-12-17T14:31:37.000Z</time>
      </trkpt>
      <trkpt lat="47.05511" lon="-1.72366">
        <ele>72</ele>
        <time>2020-12-17T14:31:39.000Z</time>
      </trkpt>
      <trkpt lat="47.05506" lon="-1.72348">
        <ele>72</ele>
        <time>2020-12-17T14:31:41.000Z</time>
      </trkpt>
      <trkpt lat="47.05501" lon="-1.7233">
        <ele>71</ele>
        <time>2020-12-17T14:31:43.000Z</time>
      </trkpt>
      <trkpt lat="47.05496" lon="-1.72312">
        <ele>71</ele>
        <time>2020-12-17T14:31:45.000Z</time>
      </trkpt>
      <trkpt lat="47.05491" lon="-1.72294">
        <ele>71</ele>
        <time>2020-12-17T14:31:47.000Z</time>
      </trkpt>
      <trkpt lat="47.05486" lon="-1.72276">
        <ele>70</ele>
        <time>2020-12-17T14:31:49.000Z</time>
      </trkpt>
      <trkpt lat="47.05482" lon="-1.72257">
        <ele>70</ele>
        <time>2020-12-17T14:31:51.000Z</time>
      </trkpt>
      <trkpt lat="47.05478" lon="-1.72237">
        <ele>69</ele>
        <time>2020-12-17T14:31:53.000Z</time>
      </trkpt>
      <trkpt lat="47.05473" lon="-1.72218">
        <ele>68</ele>
        <time>2020-12-17T14:31:55.000Z</time>
      </trkpt>
      <trkpt lat="47.05468" lon="-1.72197">
        <ele>68</ele>
        <time>2020-12-17T14:31:57.000Z</time>
      </trkpt>
      <trkpt lat="47.05463" lon="-1.72175">
        <ele>67</ele>
        <time>2020-12-17T14:31:59.000Z</time>
      </trkpt>
      <trkpt lat="47.05459" lon="-1.72153">
        <ele>67</ele>
        <time>2020-12-17T14:32:01.000Z</time>
      </trkpt>
      <trkpt lat="47.05454" lon="-1.7213">
        <ele>66</ele>
        <time>2020-12-17T14:32:03.000Z</time>
      </trkpt>
      <trkpt lat="47.05449" lon="-1.72107">
        <ele>66</ele>
        <time>2020-12-17T14:32:05.000Z</time>
      </trkpt>
      <trkpt lat="47.05443" lon="-1.72086">
        <ele>66</ele>
        <time>2020-12-17T14:32:07.000Z</time>
      </trkpt>
      <trkpt lat="47.05438" lon="-1.72063">
        <ele>66</ele>
        <time>2020-12-17T14:32:09.000Z</time>
      </trkpt>
      <trkpt lat="47.05432" lon="-1.72041">
        <ele>66</ele>
        <time>2020-12-17T14:32:11.000Z</time>
      </trkpt>
      <trkpt lat="47.05427" lon="-1.72017">
        <ele>66</ele>
        <time>2020-12-17T14:32:13.000Z</time>
      </trkpt>
      <trkpt lat="47.05422" lon="-1.71993">
        <ele>65</ele>
        <time>2020-12-17T14:32:15.000Z</time>
      </trkpt>
      <trkpt lat="47.05417" lon="-1.71971">
        <ele>65</ele>
        <time>2020-12-17T14:32:17.000Z</time>
      </trkpt>
      <trkpt lat="47.05414" lon="-1.71951">
        <ele>66</ele>
        <time>2020-12-17T14:32:19.000Z</time>
      </trkpt>
      <trkpt lat="47.05409" lon="-1.71933">
        <ele>66</ele>
        <time>2020-12-17T14:32:21.000Z</time>
      </trkpt>
      <trkpt lat="47.05405" lon="-1.71913">
        <ele>67</ele>
        <time>2020-12-17T14:32:23.000Z</time>
      </trkpt>
      <trkpt lat="47.05401" lon="-1.71892">
        <ele>67</ele>
        <time>2020-12-17T14:32:25.000Z</time>
      </trkpt>
      <trkpt lat="47.05395" lon="-1.71871">
        <ele>66</ele>
        <time>2020-12-17T14:32:27.000Z</time>
      </trkpt>
      <trkpt lat="47.0539" lon="-1.71849">
        <ele>65</ele>
        <time>2020-12-17T14:32:29.000Z</time>
      </trkpt>
      <trkpt lat="47.05386" lon="-1.71826">
        <ele>64</ele>
        <time>2020-12-17T14:32:31.000Z</time>
      </trkpt>
      <trkpt lat="47.05382" lon="-1.71804">
        <ele>64</ele>
        <time>2020-12-17T14:32:33.000Z</time>
      </trkpt>
      <trkpt lat="47.05379" lon="-1.71782">
        <ele>64</ele>
        <time>2020-12-17T14:32:35.000Z</time>
      </trkpt>
      <trkpt lat="47.05378" lon="-1.71762">
        <ele>65</ele>
        <time>2020-12-17T14:32:37.000Z</time>
      </trkpt>
      <trkpt lat="47.05378" lon="-1.71741">
        <ele>64</ele>
        <time>2020-12-17T14:32:39.000Z</time>
      </trkpt>
      <trkpt lat="47.05382" lon="-1.71718">
        <ele>63</ele>
        <time>2020-12-17T14:32:41.000Z</time>
      </trkpt>
      <trkpt lat="47.05385" lon="-1.71696">
        <ele>63</ele>
        <time>2020-12-17T14:32:43.000Z</time>
      </trkpt>
      <trkpt lat="47.05386" lon="-1.71673">
        <ele>62</ele>
        <time>2020-12-17T14:32:45.000Z</time>
      </trkpt>
      <trkpt lat="47.05389" lon="-1.71651">
        <ele>62</ele>
        <time>2020-12-17T14:32:47.000Z</time>
      </trkpt>
      <trkpt lat="47.05392" lon="-1.71629">
        <ele>61</ele>
        <time>2020-12-17T14:32:49.000Z</time>
      </trkpt>
      <trkpt lat="47.05394" lon="-1.71607">
        <ele>61</ele>
        <time>2020-12-17T14:32:51.000Z</time>
      </trkpt>
      <trkpt lat="47.05396" lon="-1.71585">
        <ele>61</ele>
        <time>2020-12-17T14:32:53.000Z</time>
      </trkpt>
      <trkpt lat="47.05396" lon="-1.71563">
        <ele>61</ele>
        <time>2020-12-17T14:32:55.000Z</time>
      </trkpt>
      <trkpt lat="47.05398" lon="-1.71541">
        <ele>61</ele>
        <time>2020-12-17T14:32:57.000Z</time>
      </trkpt>
      <trkpt lat="47.054" lon="-1.71519">
        <ele>61</ele>
        <time>2020-12-17T14:32:59.000Z</time>
      </trkpt>
      <trkpt lat="47.05402" lon="-1.71498">
        <ele>61</ele>
        <time>2020-12-17T14:33:01.000Z</time>
      </trkpt>
      <trkpt lat="47.05404" lon="-1.71477">
        <ele>61</ele>
        <time>2020-12-17T14:33:03.000Z</time>
      </trkpt>
      <trkpt lat="47.05406" lon="-1.71456">
        <ele>61</ele>
        <time>2020-12-17T14:33:05.000Z</time>
      </trkpt>
      <trkpt lat="47.05407" lon="-1.71437">
        <ele>61</ele>
        <time>2020-12-17T14:33:07.000Z</time>
      </trkpt>
      <trkpt lat="47.05406" lon="-1.71418">
        <ele>61</ele>
        <time>2020-12-17T14:33:09.000Z</time>
      </trkpt>
      <trkpt lat="47.05405" lon="-1.71398">
        <ele>61</ele>
        <time>2020-12-17T14:33:11.000Z</time>
      </trkpt>
      <trkpt lat="47.05403" lon="-1.71379">
        <ele>61</ele>
        <time>2020-12-17T14:33:13.000Z</time>
      </trkpt>
      <trkpt lat="47.054" lon="-1.71359">
        <ele>62</ele>
        <time>2020-12-17T14:33:15.000Z</time>
      </trkpt>
      <trkpt lat="47.05397" lon="-1.7134">
        <ele>62</ele>
        <time>2020-12-17T14:33:17.000Z</time>
      </trkpt>
      <trkpt lat="47.05394" lon="-1.71321">
        <ele>62</ele>
        <time>2020-12-17T14:33:19.000Z</time>
      </trkpt>
      <trkpt lat="47.05392" lon="-1.71301">
        <ele>62</ele>
        <time>2020-12-17T14:33:21.000Z</time>
      </trkpt>
      <trkpt lat="47.05389" lon="-1.71282">
        <ele>62</ele>
        <time>2020-12-17T14:33:23.000Z</time>
      </trkpt>
      <trkpt lat="47.05388" lon="-1.71261">
        <ele>61</ele>
        <time>2020-12-17T14:33:25.000Z</time>
      </trkpt>
      <trkpt lat="47.05387" lon="-1.71242">
        <ele>61</ele>
        <time>2020-12-17T14:33:27.000Z</time>
      </trkpt>
      <trkpt lat="47.05387" lon="-1.71222">
        <ele>61</ele>
        <time>2020-12-17T14:33:29.000Z</time>
      </trkpt>
      <trkpt lat="47.05387" lon="-1.71202">
        <ele>61</ele>
        <time>2020-12-17T14:33:31.000Z</time>
      </trkpt>
      <trkpt lat="47.05389" lon="-1.71182">
        <ele>61</ele>
        <time>2020-12-17T14:33:33.000Z</time>
      </trkpt>
      <trkpt lat="47.05391" lon="-1.71162">
        <ele>61</ele>
        <time>2020-12-17T14:33:35.000Z</time>
      </trkpt>
      <trkpt lat="47.05394" lon="-1.71142">
        <ele>61</ele>
        <time>2020-12-17T14:33:37.000Z</time>
      </trkpt>
      <trkpt lat="47.05396" lon="-1.71123">
        <ele>61</ele>
        <time>2020-12-17T14:33:39.000Z</time>
      </trkpt>
      <trkpt lat="47.05398" lon="-1.71103">
        <ele>61</ele>
        <time>2020-12-17T14:33:41.000Z</time>
      </trkpt>
      <trkpt lat="47.05399" lon="-1.71083">
        <ele>61</ele>
        <time>2020-12-17T14:33:43.000Z</time>
      </trkpt>
      <trkpt lat="47.05401" lon="-1.71062">
        <ele>61</ele>
        <time>2020-12-17T14:33:45.000Z</time>
      </trkpt>
      <trkpt lat="47.05403" lon="-1.71042">
        <ele>61</ele>
        <time>2020-12-17T14:33:47.000Z</time>
      </trkpt>
      <trkpt lat="47.05404" lon="-1.71022">
        <ele>61</ele>
        <time>2020-12-17T14:33:49.000Z</time>
      </trkpt>
      <trkpt lat="47.05406" lon="-1.71002">
        <ele>61</ele>
        <time>2020-12-17T14:33:51.000Z</time>
      </trkpt>
      <trkpt lat="47.05408" lon="-1.70983">
        <ele>61</ele>
        <time>2020-12-17T14:33:53.000Z</time>
      </trkpt>
      <trkpt lat="47.0541" lon="-1.70963">
        <ele>60</ele>
        <time>2020-12-17T14:33:55.000Z</time>
      </trkpt>
      <trkpt lat="47.05411" lon="-1.70942">
        <ele>60</ele>
        <time>2020-12-17T14:33:57.000Z</time>
      </trkpt>
      <trkpt lat="47.05412" lon="-1.70921">
        <ele>60</ele>
        <time>2020-12-17T14:33:59.000Z</time>
      </trkpt>
      <trkpt lat="47.05412" lon="-1.70899">
        <ele>60</ele>
        <time>2020-12-17T14:34:01.000Z</time>
      </trkpt>
      <trkpt lat="47.05412" lon="-1.70878">
        <ele>60</ele>
        <time>2020-12-17T14:34:03.000Z</time>
      </trkpt>
      <trkpt lat="47.05411" lon="-1.70857">
        <ele>61</ele>
        <time>2020-12-17T14:34:05.000Z</time>
      </trkpt>
      <trkpt lat="47.05408" lon="-1.70837">
        <ele>61</ele>
        <time>2020-12-17T14:34:07.000Z</time>
      </trkpt>
      <trkpt lat="47.05405" lon="-1.70817">
        <ele>61</ele>
        <time>2020-12-17T14:34:09.000Z</time>
      </trkpt>
      <trkpt lat="47.05403" lon="-1.70798">
        <ele>61</ele>
        <time>2020-12-17T14:34:11.000Z</time>
      </trkpt>
      <trkpt lat="47.054" lon="-1.7078">
        <ele>60</ele>
        <time>2020-12-17T14:34:13.000Z</time>
      </trkpt>
      <trkpt lat="47.05397" lon="-1.70762">
        <ele>60</ele>
        <time>2020-12-17T14:34:15.000Z</time>
      </trkpt>
      <trkpt lat="47.05394" lon="-1.70744">
        <ele>60</ele>
        <time>2020-12-17T14:34:17.000Z</time>
      </trkpt>
      <trkpt lat="47.05391" lon="-1.70727">
        <ele>60</ele>
        <time>2020-12-17T14:34:19.000Z</time>
      </trkpt>
      <trkpt lat="47.05389" lon="-1.7071">
        <ele>60</ele>
        <time>2020-12-17T14:34:21.000Z</time>
      </trkpt>
      <trkpt lat="47.05387" lon="-1.70692">
        <ele>60</ele>
        <time>2020-12-17T14:34:23.000Z</time>
      </trkpt>
      <trkpt lat="47.05384" lon="-1.70676">
        <ele>60</ele>
        <time>2020-12-17T14:34:25.000Z</time>
      </trkpt>
      <trkpt lat="47.05381" lon="-1.70659">
        <ele>60</ele>
        <time>2020-12-17T14:34:27.000Z</time>
      </trkpt>
      <trkpt lat="47.05378" lon="-1.70642">
        <ele>59</ele>
        <time>2020-12-17T14:34:29.000Z</time>
      </trkpt>
      <trkpt lat="47.05375" lon="-1.70624">
        <ele>59</ele>
        <time>2020-12-17T14:34:31.000Z</time>
      </trkpt>
      <trkpt lat="47.05372" lon="-1.70606">
        <ele>59</ele>
        <time>2020-12-17T14:34:33.000Z</time>
      </trkpt>
      <trkpt lat="47.05369" lon="-1.70589">
        <ele>59</ele>
        <time>2020-12-17T14:34:35.000Z</time>
      </trkpt>
      <trkpt lat="47.05366" lon="-1.70571">
        <ele>60</ele>
        <time>2020-12-17T14:34:37.000Z</time>
      </trkpt>
      <trkpt lat="47.05363" lon="-1.70553">
        <ele>60</ele>
        <time>2020-12-17T14:34:39.000Z</time>
      </trkpt>
      <trkpt lat="47.0536" lon="-1.70535">
        <ele>59</ele>
        <time>2020-12-17T14:34:41.000Z</time>
      </trkpt>
      <trkpt lat="47.05357" lon="-1.70517">
        <ele>59</ele>
        <time>2020-12-17T14:34:43.000Z</time>
      </trkpt>
      <trkpt lat="47.05354" lon="-1.70499">
        <ele>59</ele>
        <time>2020-12-17T14:34:45.000Z</time>
      </trkpt>
      <trkpt lat="47.05351" lon="-1.70481">
        <ele>59</ele>
        <time>2020-12-17T14:34:47.000Z</time>
      </trkpt>
      <trkpt lat="47.05348" lon="-1.70462">
        <ele>59</ele>
        <time>2020-12-17T14:34:49.000Z</time>
      </trkpt>
      <trkpt lat="47.05345" lon="-1.70444">
        <ele>58</ele>
        <time>2020-12-17T14:34:51.000Z</time>
      </trkpt>
      <trkpt lat="47.05341" lon="-1.70425">
        <ele>58</ele>
        <time>2020-12-17T14:34:53.000Z</time>
      </trkpt>
      <trkpt lat="47.05337" lon="-1.70408">
        <ele>58</ele>
        <time>2020-12-17T14:34:55.000Z</time>
      </trkpt>
      <trkpt lat="47.05332" lon="-1.70391">
        <ele>58</ele>
        <time>2020-12-17T14:34:57.000Z</time>
      </trkpt>
      <trkpt lat="47.05327" lon="-1.70374">
        <ele>58</ele>
        <time>2020-12-17T14:34:59.000Z</time>
      </trkpt>
      <trkpt lat="47.05321" lon="-1.70358">
        <ele>58</ele>
        <time>2020-12-17T14:35:01.000Z</time>
      </trkpt>
      <trkpt lat="47.05316" lon="-1.70341">
        <ele>57</ele>
        <time>2020-12-17T14:35:03.000Z</time>
      </trkpt>
      <trkpt lat="47.05309" lon="-1.70324">
        <ele>57</ele>
        <time>2020-12-17T14:35:05.000Z</time>
      </trkpt>
      <trkpt lat="47.05303" lon="-1.70307">
        <ele>57</ele>
        <time>2020-12-17T14:35:07.000Z</time>
      </trkpt>
      <trkpt lat="47.05296" lon="-1.7029">
        <ele>57</ele>
        <time>2020-12-17T14:35:09.000Z</time>
      </trkpt>
      <trkpt lat="47.0529" lon="-1.70273">
        <ele>57</ele>
        <time>2020-12-17T14:35:11.000Z</time>
      </trkpt>
      <trkpt lat="47.05283" lon="-1.70255">
        <ele>57</ele>
        <time>2020-12-17T14:35:13.000Z</time>
      </trkpt>
      <trkpt lat="47.05276" lon="-1.70238">
        <ele>56</ele>
        <time>2020-12-17T14:35:15.000Z</time>
      </trkpt>
      <trkpt lat="47.0527" lon="-1.70219">
        <ele>56</ele>
        <time>2020-12-17T14:35:17.000Z</time>
      </trkpt>
      <trkpt lat="47.05263" lon="-1.70202">
        <ele>56</ele>
        <time>2020-12-17T14:35:19.000Z</time>
      </trkpt>
      <trkpt lat="47.05256" lon="-1.70184">
        <ele>55</ele>
        <time>2020-12-17T14:35:21.000Z</time>
      </trkpt>
      <trkpt lat="47.0525" lon="-1.70166">
        <ele>55</ele>
        <time>2020-12-17T14:35:23.000Z</time>
      </trkpt>
      <trkpt lat="47.05243" lon="-1.70149">
        <ele>55</ele>
        <time>2020-12-17T14:35:25.000Z</time>
      </trkpt>
      <trkpt lat="47.05237" lon="-1.7013">
        <ele>54</ele>
        <time>2020-12-17T14:35:27.000Z</time>
      </trkpt>
      <trkpt lat="47.0523" lon="-1.70113">
        <ele>54</ele>
        <time>2020-12-17T14:35:29.000Z</time>
      </trkpt>
      <trkpt lat="47.05224" lon="-1.70095">
        <ele>54</ele>
        <time>2020-12-17T14:35:31.000Z</time>
      </trkpt>
      <trkpt lat="47.05217" lon="-1.70077">
        <ele>54</ele>
        <time>2020-12-17T14:35:33.000Z</time>
      </trkpt>
      <trkpt lat="47.05211" lon="-1.7006">
        <ele>54</ele>
        <time>2020-12-17T14:35:35.000Z</time>
      </trkpt>
      <trkpt lat="47.05204" lon="-1.70042">
        <ele>54</ele>
        <time>2020-12-17T14:35:37.000Z</time>
      </trkpt>
      <trkpt lat="47.05197" lon="-1.70024">
        <ele>54</ele>
        <time>2020-12-17T14:35:39.000Z</time>
      </trkpt>
      <trkpt lat="47.05191" lon="-1.70008">
        <ele>53</ele>
        <time>2020-12-17T14:35:41.000Z</time>
      </trkpt>
      <trkpt lat="47.05184" lon="-1.69991">
        <ele>54</ele>
        <time>2020-12-17T14:35:43.000Z</time>
      </trkpt>
      <trkpt lat="47.05177" lon="-1.69974">
        <ele>54</ele>
        <time>2020-12-17T14:35:45.000Z</time>
      </trkpt>
      <trkpt lat="47.0517" lon="-1.69958">
        <ele>54</ele>
        <time>2020-12-17T14:35:47.000Z</time>
      </trkpt>
      <trkpt lat="47.05164" lon="-1.69941">
        <ele>54</ele>
        <time>2020-12-17T14:35:49.000Z</time>
      </trkpt>
      <trkpt lat="47.05159" lon="-1.69923">
        <ele>53</ele>
        <time>2020-12-17T14:35:51.000Z</time>
      </trkpt>
      <trkpt lat="47.05154" lon="-1.69907">
        <ele>54</ele>
        <time>2020-12-17T14:35:53.000Z</time>
      </trkpt>
      <trkpt lat="47.05153" lon="-1.69887">
        <ele>54</ele>
        <time>2020-12-17T14:35:55.000Z</time>
      </trkpt>
      <trkpt lat="47.05152" lon="-1.69868">
        <ele>54</ele>
        <time>2020-12-17T14:35:57.000Z</time>
      </trkpt>
      <trkpt lat="47.05148" lon="-1.6985">
        <ele>53</ele>
        <time>2020-12-17T14:35:59.000Z</time>
      </trkpt>
      <trkpt lat="47.05142" lon="-1.69833">
        <ele>53</ele>
        <time>2020-12-17T14:36:01.000Z</time>
      </trkpt>
      <trkpt lat="47.05135" lon="-1.69817">
        <ele>53</ele>
        <time>2020-12-17T14:36:03.000Z</time>
      </trkpt>
      <trkpt lat="47.05127" lon="-1.69802">
        <ele>53</ele>
        <time>2020-12-17T14:36:05.000Z</time>
      </trkpt>
      <trkpt lat="47.05118" lon="-1.69789">
        <ele>54</ele>
        <time>2020-12-17T14:36:07.000Z</time>
      </trkpt>
      <trkpt lat="47.05108" lon="-1.69777">
        <ele>54</ele>
        <time>2020-12-17T14:36:09.000Z</time>
      </trkpt>
      <trkpt lat="47.05099" lon="-1.69765">
        <ele>54</ele>
        <time>2020-12-17T14:36:11.000Z</time>
      </trkpt>
      <trkpt lat="47.0509" lon="-1.69752">
        <ele>54</ele>
        <time>2020-12-17T14:36:13.000Z</time>
      </trkpt>
      <trkpt lat="47.0508" lon="-1.69741">
        <ele>54</ele>
        <time>2020-12-17T14:36:15.000Z</time>
      </trkpt>
      <trkpt lat="47.0507" lon="-1.6973">
        <ele>54</ele>
        <time>2020-12-17T14:36:17.000Z</time>
      </trkpt>
      <trkpt lat="47.05061" lon="-1.69719">
        <ele>54</ele>
        <time>2020-12-17T14:36:19.000Z</time>
      </trkpt>
      <trkpt lat="47.05051" lon="-1.69707">
        <ele>54</ele>
        <time>2020-12-17T14:36:21.000Z</time>
      </trkpt>
      <trkpt lat="47.05042" lon="-1.69695">
        <ele>54</ele>
        <time>2020-12-17T14:36:23.000Z</time>
      </trkpt>
      <trkpt lat="47.05032" lon="-1.69683">
        <ele>54</ele>
        <time>2020-12-17T14:36:25.000Z</time>
      </trkpt>
      <trkpt lat="47.05022" lon="-1.69672">
        <ele>54</ele>
        <time>2020-12-17T14:36:27.000Z</time>
      </trkpt>
      <trkpt lat="47.05013" lon="-1.69659">
        <ele>55</ele>
        <time>2020-12-17T14:36:29.000Z</time>
      </trkpt>
      <trkpt lat="47.05004" lon="-1.69646">
        <ele>55</ele>
        <time>2020-12-17T14:36:31.000Z</time>
      </trkpt>
      <trkpt lat="47.04995" lon="-1.69633">
        <ele>56</ele>
        <time>2020-12-17T14:36:33.000Z</time>
      </trkpt>
      <trkpt lat="47.04988" lon="-1.69618">
        <ele>57</ele>
        <time>2020-12-17T14:36:35.000Z</time>
      </trkpt>
      <trkpt lat="47.04982" lon="-1.69602">
        <ele>58</ele>
        <time>2020-12-17T14:36:37.000Z</time>
      </trkpt>
      <trkpt lat="47.04977" lon="-1.69585">
        <ele>59</ele>
        <time>2020-12-17T14:36:39.000Z</time>
      </trkpt>
      <trkpt lat="47.04972" lon="-1.69567">
        <ele>60</ele>
        <time>2020-12-17T14:36:41.000Z</time>
      </trkpt>
      <trkpt lat="47.04967" lon="-1.69549">
        <ele>60</ele>
        <time>2020-12-17T14:36:43.000Z</time>
      </trkpt>
      <trkpt lat="47.04962" lon="-1.69531">
        <ele>59</ele>
        <time>2020-12-17T14:36:45.000Z</time>
      </trkpt>
      <trkpt lat="47.04958" lon="-1.69512">
        <ele>59</ele>
        <time>2020-12-17T14:36:47.000Z</time>
      </trkpt>
      <trkpt lat="47.04954" lon="-1.69494">
        <ele>58</ele>
        <time>2020-12-17T14:36:49.000Z</time>
      </trkpt>
      <trkpt lat="47.0495" lon="-1.69475">
        <ele>58</ele>
        <time>2020-12-17T14:36:51.000Z</time>
      </trkpt>
      <trkpt lat="47.04945" lon="-1.69458">
        <ele>57</ele>
        <time>2020-12-17T14:36:53.000Z</time>
      </trkpt>
      <trkpt lat="47.04941" lon="-1.69441">
        <ele>57</ele>
        <time>2020-12-17T14:36:55.000Z</time>
      </trkpt>
      <trkpt lat="47.04936" lon="-1.69423">
        <ele>56</ele>
        <time>2020-12-17T14:36:57.000Z</time>
      </trkpt>
      <trkpt lat="47.04932" lon="-1.69406">
        <ele>56</ele>
        <time>2020-12-17T14:36:59.000Z</time>
      </trkpt>
      <trkpt lat="47.04928" lon="-1.69389">
        <ele>57</ele>
        <time>2020-12-17T14:37:01.000Z</time>
      </trkpt>
      <trkpt lat="47.04923" lon="-1.69372">
        <ele>56</ele>
        <time>2020-12-17T14:37:03.000Z</time>
      </trkpt>
      <trkpt lat="47.04919" lon="-1.69355">
        <ele>57</ele>
        <time>2020-12-17T14:37:05.000Z</time>
      </trkpt>
      <trkpt lat="47.04915" lon="-1.69338">
        <ele>57</ele>
        <time>2020-12-17T14:37:07.000Z</time>
      </trkpt>
      <trkpt lat="47.0491" lon="-1.69321">
        <ele>57</ele>
        <time>2020-12-17T14:37:09.000Z</time>
      </trkpt>
      <trkpt lat="47.04907" lon="-1.69304">
        <ele>56</ele>
        <time>2020-12-17T14:37:11.000Z</time>
      </trkpt>
      <trkpt lat="47.04903" lon="-1.69286">
        <ele>55</ele>
        <time>2020-12-17T14:37:13.000Z</time>
      </trkpt>
      <trkpt lat="47.04899" lon="-1.69269">
        <ele>55</ele>
        <time>2020-12-17T14:37:15.000Z</time>
      </trkpt>
      <trkpt lat="47.04894" lon="-1.69252">
        <ele>55</ele>
        <time>2020-12-17T14:37:17.000Z</time>
      </trkpt>
      <trkpt lat="47.0489" lon="-1.69236">
        <ele>54</ele>
        <time>2020-12-17T14:37:19.000Z</time>
      </trkpt>
      <trkpt lat="47.04886" lon="-1.6922">
        <ele>55</ele>
        <time>2020-12-17T14:37:21.000Z</time>
      </trkpt>
      <trkpt lat="47.04882" lon="-1.69204">
        <ele>54</ele>
        <time>2020-12-17T14:37:23.000Z</time>
      </trkpt>
      <trkpt lat="47.04877" lon="-1.69187">
        <ele>54</ele>
        <time>2020-12-17T14:37:25.000Z</time>
      </trkpt>
      <trkpt lat="47.04873" lon="-1.69171">
        <ele>54</ele>
        <time>2020-12-17T14:37:27.000Z</time>
      </trkpt>
      <trkpt lat="47.04869" lon="-1.69153">
        <ele>54</ele>
        <time>2020-12-17T14:37:29.000Z</time>
      </trkpt>
      <trkpt lat="47.04864" lon="-1.69136">
        <ele>55</ele>
        <time>2020-12-17T14:37:31.000Z</time>
      </trkpt>
      <trkpt lat="47.0486" lon="-1.6912">
        <ele>55</ele>
        <time>2020-12-17T14:37:33.000Z</time>
      </trkpt>
      <trkpt lat="47.04855" lon="-1.69102">
        <ele>55</ele>
        <time>2020-12-17T14:37:35.000Z</time>
      </trkpt>
      <trkpt lat="47.04851" lon="-1.69086">
        <ele>55</ele>
        <time>2020-12-17T14:37:37.000Z</time>
      </trkpt>
      <trkpt lat="47.04847" lon="-1.69069">
        <ele>55</ele>
        <time>2020-12-17T14:37:39.000Z</time>
      </trkpt>
      <trkpt lat="47.04842" lon="-1.69052">
        <ele>56</ele>
        <time>2020-12-17T14:37:41.000Z</time>
      </trkpt>
      <trkpt lat="47.04838" lon="-1.69036">
        <ele>56</ele>
        <time>2020-12-17T14:37:43.000Z</time>
      </trkpt>
      <trkpt lat="47.04833" lon="-1.6902">
        <ele>56</ele>
        <time>2020-12-17T14:37:45.000Z</time>
      </trkpt>
      <trkpt lat="47.04828" lon="-1.69004">
        <ele>56</ele>
        <time>2020-12-17T14:37:47.000Z</time>
      </trkpt>
      <trkpt lat="47.04824" lon="-1.68987">
        <ele>56</ele>
        <time>2020-12-17T14:37:49.000Z</time>
      </trkpt>
      <trkpt lat="47.0482" lon="-1.68972">
        <ele>56</ele>
        <time>2020-12-17T14:37:51.000Z</time>
      </trkpt>
      <trkpt lat="47.04816" lon="-1.68954">
        <ele>56</ele>
        <time>2020-12-17T14:37:53.000Z</time>
      </trkpt>
      <trkpt lat="47.04811" lon="-1.68937">
        <ele>57</ele>
        <time>2020-12-17T14:37:55.000Z</time>
      </trkpt>
      <trkpt lat="47.04806" lon="-1.6892">
        <ele>57</ele>
        <time>2020-12-17T14:37:57.000Z</time>
      </trkpt>
      <trkpt lat="47.04802" lon="-1.68903">
        <ele>57</ele>
        <time>2020-12-17T14:37:59.000Z</time>
      </trkpt>
      <trkpt lat="47.04798" lon="-1.68887">
        <ele>57</ele>
        <time>2020-12-17T14:38:01.000Z</time>
      </trkpt>
      <trkpt lat="47.04794" lon="-1.6887">
        <ele>57</ele>
        <time>2020-12-17T14:38:03.000Z</time>
      </trkpt>
      <trkpt lat="47.04789" lon="-1.68852">
        <ele>57</ele>
        <time>2020-12-17T14:38:05.000Z</time>
      </trkpt>
      <trkpt lat="47.04785" lon="-1.68836">
        <ele>57</ele>
        <time>2020-12-17T14:38:07.000Z</time>
      </trkpt>
      <trkpt lat="47.0478" lon="-1.68818">
        <ele>57</ele>
        <time>2020-12-17T14:38:09.000Z</time>
      </trkpt>
      <trkpt lat="47.04776" lon="-1.68801">
        <ele>57</ele>
        <time>2020-12-17T14:38:11.000Z</time>
      </trkpt>
      <trkpt lat="47.04772" lon="-1.68785">
        <ele>57</ele>
        <time>2020-12-17T14:38:13.000Z</time>
      </trkpt>
      <trkpt lat="47.04767" lon="-1.68768">
        <ele>57</ele>
        <time>2020-12-17T14:38:15.000Z</time>
      </trkpt>
      <trkpt lat="47.04763" lon="-1.68752">
        <ele>58</ele>
        <time>2020-12-17T14:38:17.000Z</time>
      </trkpt>
      <trkpt lat="47.04759" lon="-1.68736">
        <ele>58</ele>
        <time>2020-12-17T14:38:19.000Z</time>
      </trkpt>
      <trkpt lat="47.04754" lon="-1.6872">
        <ele>58</ele>
        <time>2020-12-17T14:38:21.000Z</time>
      </trkpt>
      <trkpt lat="47.04751" lon="-1.68704">
        <ele>58</ele>
        <time>2020-12-17T14:38:23.000Z</time>
      </trkpt>
      <trkpt lat="47.04746" lon="-1.68689">
        <ele>58</ele>
        <time>2020-12-17T14:38:25.000Z</time>
      </trkpt>
      <trkpt lat="47.04742" lon="-1.68671">
        <ele>58</ele>
        <time>2020-12-17T14:38:27.000Z</time>
      </trkpt>
      <trkpt lat="47.04738" lon="-1.68653">
        <ele>58</ele>
        <time>2020-12-17T14:38:29.000Z</time>
      </trkpt>
      <trkpt lat="47.04733" lon="-1.68635">
        <ele>58</ele>
        <time>2020-12-17T14:38:31.000Z</time>
      </trkpt>
      <trkpt lat="47.04728" lon="-1.68616">
        <ele>58</ele>
        <time>2020-12-17T14:38:33.000Z</time>
      </trkpt>
      <trkpt lat="47.04724" lon="-1.68598">
        <ele>58</ele>
        <time>2020-12-17T14:38:35.000Z</time>
      </trkpt>
      <trkpt lat="47.04719" lon="-1.6858">
        <ele>58</ele>
        <time>2020-12-17T14:38:37.000Z</time>
      </trkpt>
      <trkpt lat="47.04714" lon="-1.68562">
        <ele>58</ele>
        <time>2020-12-17T14:38:39.000Z</time>
      </trkpt>
      <trkpt lat="47.0471" lon="-1.68545">
        <ele>58</ele>
        <time>2020-12-17T14:38:41.000Z</time>
      </trkpt>
      <trkpt lat="47.04705" lon="-1.68526">
        <ele>58</ele>
        <time>2020-12-17T14:38:43.000Z</time>
      </trkpt>
      <trkpt lat="47.04701" lon="-1.68508">
        <ele>59</ele>
        <time>2020-12-17T14:38:45.000Z</time>
      </trkpt>
      <trkpt lat="47.04696" lon="-1.6849">
        <ele>59</ele>
        <time>2020-12-17T14:38:47.000Z</time>
      </trkpt>
      <trkpt lat="47.04691" lon="-1.68473">
        <ele>59</ele>
        <time>2020-12-17T14:38:49.000Z</time>
      </trkpt>
      <trkpt lat="47.04686" lon="-1.68454">
        <ele>59</ele>
        <time>2020-12-17T14:38:51.000Z</time>
      </trkpt>
      <trkpt lat="47.04681" lon="-1.68436">
        <ele>58</ele>
        <time>2020-12-17T14:38:53.000Z</time>
      </trkpt>
      <trkpt lat="47.04677" lon="-1.68418">
        <ele>58</ele>
        <time>2020-12-17T14:38:55.000Z</time>
      </trkpt>
      <trkpt lat="47.04673" lon="-1.68401">
        <ele>58</ele>
        <time>2020-12-17T14:38:57.000Z</time>
      </trkpt>
      <trkpt lat="47.04668" lon="-1.68383">
        <ele>58</ele>
        <time>2020-12-17T14:38:59.000Z</time>
      </trkpt>
      <trkpt lat="47.04663" lon="-1.68365">
        <ele>57</ele>
        <time>2020-12-17T14:39:01.000Z</time>
      </trkpt>
      <trkpt lat="47.04658" lon="-1.68346">
        <ele>57</ele>
        <time>2020-12-17T14:39:03.000Z</time>
      </trkpt>
      <trkpt lat="47.04654" lon="-1.68328">
        <ele>57</ele>
        <time>2020-12-17T14:39:05.000Z</time>
      </trkpt>
      <trkpt lat="47.04649" lon="-1.68309">
        <ele>57</ele>
        <time>2020-12-17T14:39:07.000Z</time>
      </trkpt>
      <trkpt lat="47.04644" lon="-1.68291">
        <ele>57</ele>
        <time>2020-12-17T14:39:09.000Z</time>
      </trkpt>
      <trkpt lat="47.0464" lon="-1.68273">
        <ele>56</ele>
        <time>2020-12-17T14:39:11.000Z</time>
      </trkpt>
      <trkpt lat="47.04635" lon="-1.68255">
        <ele>56</ele>
        <time>2020-12-17T14:39:13.000Z</time>
      </trkpt>
      <trkpt lat="47.0463" lon="-1.68236">
        <ele>56</ele>
        <time>2020-12-17T14:39:15.000Z</time>
      </trkpt>
      <trkpt lat="47.04625" lon="-1.68217">
        <ele>56</ele>
        <time>2020-12-17T14:39:17.000Z</time>
      </trkpt>
      <trkpt lat="47.0462" lon="-1.68198">
        <ele>56</ele>
        <time>2020-12-17T14:39:19.000Z</time>
      </trkpt>
      <trkpt lat="47.04615" lon="-1.68179">
        <ele>56</ele>
        <time>2020-12-17T14:39:21.000Z</time>
      </trkpt>
      <trkpt lat="47.04611" lon="-1.6816">
        <ele>56</ele>
        <time>2020-12-17T14:39:23.000Z</time>
      </trkpt>
      <trkpt lat="47.04606" lon="-1.68142">
        <ele>56</ele>
        <time>2020-12-17T14:39:25.000Z</time>
      </trkpt>
      <trkpt lat="47.04601" lon="-1.68123">
        <ele>56</ele>
        <time>2020-12-17T14:39:27.000Z</time>
      </trkpt>
      <trkpt lat="47.04596" lon="-1.68104">
        <ele>56</ele>
        <time>2020-12-17T14:39:29.000Z</time>
      </trkpt>
      <trkpt lat="47.04591" lon="-1.68086">
        <ele>56</ele>
        <time>2020-12-17T14:39:31.000Z</time>
      </trkpt>
      <trkpt lat="47.04587" lon="-1.68068">
        <ele>56</ele>
        <time>2020-12-17T14:39:33.000Z</time>
      </trkpt>
      <trkpt lat="47.04582" lon="-1.68051">
        <ele>57</ele>
        <time>2020-12-17T14:39:35.000Z</time>
      </trkpt>
      <trkpt lat="47.04578" lon="-1.68034">
        <ele>57</ele>
        <time>2020-12-17T14:39:37.000Z</time>
      </trkpt>
      <trkpt lat="47.04574" lon="-1.68017">
        <ele>58</ele>
        <time>2020-12-17T14:39:39.000Z</time>
      </trkpt>
      <trkpt lat="47.0457" lon="-1.68">
        <ele>59</ele>
        <time>2020-12-17T14:39:41.000Z</time>
      </trkpt>
      <trkpt lat="47.04565" lon="-1.67983">
        <ele>59</ele>
        <time>2020-12-17T14:39:43.000Z</time>
      </trkpt>
      <trkpt lat="47.04559" lon="-1.67966">
        <ele>59</ele>
        <time>2020-12-17T14:39:45.000Z</time>
      </trkpt>
      <trkpt lat="47.04555" lon="-1.67949">
        <ele>59</ele>
        <time>2020-12-17T14:39:47.000Z</time>
      </trkpt>
      <trkpt lat="47.0455" lon="-1.67931">
        <ele>59</ele>
        <time>2020-12-17T14:39:49.000Z</time>
      </trkpt>
      <trkpt lat="47.04545" lon="-1.67913">
        <ele>59</ele>
        <time>2020-12-17T14:39:51.000Z</time>
      </trkpt>
      <trkpt lat="47.04541" lon="-1.67896">
        <ele>59</ele>
        <time>2020-12-17T14:39:53.000Z</time>
      </trkpt>
      <trkpt lat="47.04537" lon="-1.67879">
        <ele>59</ele>
        <time>2020-12-17T14:39:55.000Z</time>
      </trkpt>
      <trkpt lat="47.04533" lon="-1.67861">
        <ele>59</ele>
        <time>2020-12-17T14:39:57.000Z</time>
      </trkpt>
      <trkpt lat="47.04529" lon="-1.67844">
        <ele>59</ele>
        <time>2020-12-17T14:39:59.000Z</time>
      </trkpt>
      <trkpt lat="47.04525" lon="-1.67827">
        <ele>59</ele>
        <time>2020-12-17T14:40:01.000Z</time>
      </trkpt>
      <trkpt lat="47.0452" lon="-1.67811">
        <ele>59</ele>
        <time>2020-12-17T14:40:03.000Z</time>
      </trkpt>
      <trkpt lat="47.04516" lon="-1.67793">
        <ele>59</ele>
        <time>2020-12-17T14:40:05.000Z</time>
      </trkpt>
      <trkpt lat="47.04511" lon="-1.67776">
        <ele>59</ele>
        <time>2020-12-17T14:40:07.000Z</time>
      </trkpt>
      <trkpt lat="47.04506" lon="-1.67758">
        <ele>59</ele>
        <time>2020-12-17T14:40:09.000Z</time>
      </trkpt>
      <trkpt lat="47.04502" lon="-1.67739">
        <ele>59</ele>
        <time>2020-12-17T14:40:11.000Z</time>
      </trkpt>
      <trkpt lat="47.04497" lon="-1.67721">
        <ele>58</ele>
        <time>2020-12-17T14:40:13.000Z</time>
      </trkpt>
      <trkpt lat="47.04492" lon="-1.67703">
        <ele>58</ele>
        <time>2020-12-17T14:40:15.000Z</time>
      </trkpt>
      <trkpt lat="47.04488" lon="-1.67685">
        <ele>57</ele>
        <time>2020-12-17T14:40:17.000Z</time>
      </trkpt>
      <trkpt lat="47.04483" lon="-1.67666">
        <ele>57</ele>
        <time>2020-12-17T14:40:19.000Z</time>
      </trkpt>
      <trkpt lat="47.04478" lon="-1.67648">
        <ele>57</ele>
        <time>2020-12-17T14:40:21.000Z</time>
      </trkpt>
      <trkpt lat="47.04473" lon="-1.67629">
        <ele>56</ele>
        <time>2020-12-17T14:40:23.000Z</time>
      </trkpt>
      <trkpt lat="47.04469" lon="-1.6761">
        <ele>56</ele>
        <time>2020-12-17T14:40:25.000Z</time>
      </trkpt>
      <trkpt lat="47.04464" lon="-1.67591">
        <ele>56</ele>
        <time>2020-12-17T14:40:27.000Z</time>
      </trkpt>
      <trkpt lat="47.04459" lon="-1.67572">
        <ele>56</ele>
        <time>2020-12-17T14:40:29.000Z</time>
      </trkpt>
      <trkpt lat="47.04453" lon="-1.67552">
        <ele>56</ele>
        <time>2020-12-17T14:40:31.000Z</time>
      </trkpt>
      <trkpt lat="47.04448" lon="-1.67532">
        <ele>56</ele>
        <time>2020-12-17T14:40:33.000Z</time>
      </trkpt>
      <trkpt lat="47.04443" lon="-1.67511">
        <ele>55</ele>
        <time>2020-12-17T14:40:35.000Z</time>
      </trkpt>
      <trkpt lat="47.04437" lon="-1.6749">
        <ele>55</ele>
        <time>2020-12-17T14:40:37.000Z</time>
      </trkpt>
      <trkpt lat="47.04432" lon="-1.67469">
        <ele>55</ele>
        <time>2020-12-17T14:40:39.000Z</time>
      </trkpt>
      <trkpt lat="47.04426" lon="-1.6745">
        <ele>55</ele>
        <time>2020-12-17T14:40:41.000Z</time>
      </trkpt>
      <trkpt lat="47.04421" lon="-1.67429">
        <ele>55</ele>
        <time>2020-12-17T14:40:43.000Z</time>
      </trkpt>
      <trkpt lat="47.04416" lon="-1.67409">
        <ele>55</ele>
        <time>2020-12-17T14:40:45.000Z</time>
      </trkpt>
      <trkpt lat="47.04411" lon="-1.67389">
        <ele>55</ele>
        <time>2020-12-17T14:40:47.000Z</time>
      </trkpt>
      <trkpt lat="47.04405" lon="-1.67369">
        <ele>55</ele>
        <time>2020-12-17T14:40:49.000Z</time>
      </trkpt>
      <trkpt lat="47.044" lon="-1.67349">
        <ele>54</ele>
        <time>2020-12-17T14:40:51.000Z</time>
      </trkpt>
      <trkpt lat="47.04395" lon="-1.67328">
        <ele>54</ele>
        <time>2020-12-17T14:40:53.000Z</time>
      </trkpt>
      <trkpt lat="47.0439" lon="-1.67308">
        <ele>54</ele>
        <time>2020-12-17T14:40:55.000Z</time>
      </trkpt>
      <trkpt lat="47.04385" lon="-1.67288">
        <ele>54</ele>
        <time>2020-12-17T14:40:57.000Z</time>
      </trkpt>
      <trkpt lat="47.0438" lon="-1.67269">
        <ele>55</ele>
        <time>2020-12-17T14:40:59.000Z</time>
      </trkpt>
      <trkpt lat="47.04373" lon="-1.6724">
        <ele>55</ele>
        <time>2020-12-17T14:41:02.000Z</time>
      </trkpt>
      <trkpt lat="47.04368" lon="-1.6722">
        <ele>55</ele>
        <time>2020-12-17T14:41:04.000Z</time>
      </trkpt>
      <trkpt lat="47.04363" lon="-1.67201">
        <ele>55</ele>
        <time>2020-12-17T14:41:06.000Z</time>
      </trkpt>
      <trkpt lat="47.04358" lon="-1.67183">
        <ele>55</ele>
        <time>2020-12-17T14:41:08.000Z</time>
      </trkpt>
      <trkpt lat="47.04353" lon="-1.67165">
        <ele>55</ele>
        <time>2020-12-17T14:41:10.000Z</time>
      </trkpt>
      <trkpt lat="47.04349" lon="-1.67146">
        <ele>55</ele>
        <time>2020-12-17T14:41:12.000Z</time>
      </trkpt>
      <trkpt lat="47.04344" lon="-1.67128">
        <ele>55</ele>
        <time>2020-12-17T14:41:14.000Z</time>
      </trkpt>
      <trkpt lat="47.04339" lon="-1.67108">
        <ele>54</ele>
        <time>2020-12-17T14:41:16.000Z</time>
      </trkpt>
      <trkpt lat="47.04334" lon="-1.67089">
        <ele>54</ele>
        <time>2020-12-17T14:41:18.000Z</time>
      </trkpt>
      <trkpt lat="47.04329" lon="-1.6707">
        <ele>54</ele>
        <time>2020-12-17T14:41:20.000Z</time>
      </trkpt>
      <trkpt lat="47.04321" lon="-1.67041">
        <ele>54</ele>
        <time>2020-12-17T14:41:23.000Z</time>
      </trkpt>
      <trkpt lat="47.04316" lon="-1.67023">
        <ele>54</ele>
        <time>2020-12-17T14:41:25.000Z</time>
      </trkpt>
      <trkpt lat="47.04312" lon="-1.67004">
        <ele>53</ele>
        <time>2020-12-17T14:41:27.000Z</time>
      </trkpt>
      <trkpt lat="47.04307" lon="-1.66985">
        <ele>53</ele>
        <time>2020-12-17T14:41:29.000Z</time>
      </trkpt>
      <trkpt lat="47.04302" lon="-1.66967">
        <ele>53</ele>
        <time>2020-12-17T14:41:31.000Z</time>
      </trkpt>
      <trkpt lat="47.04297" lon="-1.66949">
        <ele>54</ele>
        <time>2020-12-17T14:41:33.000Z</time>
      </trkpt>
      <trkpt lat="47.0429" lon="-1.66922">
        <ele>54</ele>
        <time>2020-12-17T14:41:36.000Z</time>
      </trkpt>
      <trkpt lat="47.04286" lon="-1.66904">
        <ele>53</ele>
        <time>2020-12-17T14:41:38.000Z</time>
      </trkpt>
      <trkpt lat="47.04279" lon="-1.66878">
        <ele>53</ele>
        <time>2020-12-17T14:41:41.000Z</time>
      </trkpt>
      <trkpt lat="47.04275" lon="-1.6686">
        <ele>53</ele>
        <time>2020-12-17T14:41:43.000Z</time>
      </trkpt>
      <trkpt lat="47.04268" lon="-1.66832">
        <ele>53</ele>
        <time>2020-12-17T14:41:46.000Z</time>
      </trkpt>
      <trkpt lat="47.04263" lon="-1.66815">
        <ele>52</ele>
        <time>2020-12-17T14:41:48.000Z</time>
      </trkpt>
      <trkpt lat="47.04256" lon="-1.66787">
        <ele>52</ele>
        <time>2020-12-17T14:41:51.000Z</time>
      </trkpt>
      <trkpt lat="47.04251" lon="-1.66769">
        <ele>52</ele>
        <time>2020-12-17T14:41:53.000Z</time>
      </trkpt>
      <trkpt lat="47.04244" lon="-1.66743">
        <ele>53</ele>
        <time>2020-12-17T14:41:56.000Z</time>
      </trkpt>
      <trkpt lat="47.04239" lon="-1.66725">
        <ele>53</ele>
        <time>2020-12-17T14:41:58.000Z</time>
      </trkpt>
      <trkpt lat="47.04235" lon="-1.66708">
        <ele>53</ele>
        <time>2020-12-17T14:42:00.000Z</time>
      </trkpt>
      <trkpt lat="47.04231" lon="-1.66691">
        <ele>53</ele>
        <time>2020-12-17T14:42:02.000Z</time>
      </trkpt>
      <trkpt lat="47.04226" lon="-1.66675">
        <ele>54</ele>
        <time>2020-12-17T14:42:04.000Z</time>
      </trkpt>
      <trkpt lat="47.04222" lon="-1.66658">
        <ele>54</ele>
        <time>2020-12-17T14:42:06.000Z</time>
      </trkpt>
      <trkpt lat="47.04217" lon="-1.6664">
        <ele>54</ele>
        <time>2020-12-17T14:42:08.000Z</time>
      </trkpt>
      <trkpt lat="47.04213" lon="-1.66624">
        <ele>53</ele>
        <time>2020-12-17T14:42:10.000Z</time>
      </trkpt>
      <trkpt lat="47.04208" lon="-1.66606">
        <ele>53</ele>
        <time>2020-12-17T14:42:12.000Z</time>
      </trkpt>
      <trkpt lat="47.04204" lon="-1.66589">
        <ele>53</ele>
        <time>2020-12-17T14:42:14.000Z</time>
      </trkpt>
      <trkpt lat="47.042" lon="-1.66572">
        <ele>53</ele>
        <time>2020-12-17T14:42:16.000Z</time>
      </trkpt>
      <trkpt lat="47.04195" lon="-1.66555">
        <ele>52</ele>
        <time>2020-12-17T14:42:18.000Z</time>
      </trkpt>
      <trkpt lat="47.04191" lon="-1.66538">
        <ele>52</ele>
        <time>2020-12-17T14:42:20.000Z</time>
      </trkpt>
      <trkpt lat="47.04186" lon="-1.66521">
        <ele>53</ele>
        <time>2020-12-17T14:42:22.000Z</time>
      </trkpt>
      <trkpt lat="47.0418" lon="-1.66496">
        <ele>53</ele>
        <time>2020-12-17T14:42:25.000Z</time>
      </trkpt>
      <trkpt lat="47.04176" lon="-1.66478">
        <ele>53</ele>
        <time>2020-12-17T14:42:27.000Z</time>
      </trkpt>
      <trkpt lat="47.04169" lon="-1.66454">
        <ele>53</ele>
        <time>2020-12-17T14:42:30.000Z</time>
      </trkpt>
      <trkpt lat="47.04163" lon="-1.66431">
        <ele>53</ele>
        <time>2020-12-17T14:42:33.000Z</time>
      </trkpt>
      <trkpt lat="47.04159" lon="-1.66416">
        <ele>54</ele>
        <time>2020-12-17T14:42:35.000Z</time>
      </trkpt>
      <trkpt lat="47.04154" lon="-1.66399">
        <ele>54</ele>
        <time>2020-12-17T14:42:37.000Z</time>
      </trkpt>
      <trkpt lat="47.0415" lon="-1.66382">
        <ele>54</ele>
        <time>2020-12-17T14:42:39.000Z</time>
      </trkpt>
      <trkpt lat="47.04147" lon="-1.66366">
        <ele>54</ele>
        <time>2020-12-17T14:42:41.000Z</time>
      </trkpt>
      <trkpt lat="47.04142" lon="-1.6635">
        <ele>54</ele>
        <time>2020-12-17T14:42:43.000Z</time>
      </trkpt>
      <trkpt lat="47.04138" lon="-1.66334">
        <ele>55</ele>
        <time>2020-12-17T14:42:45.000Z</time>
      </trkpt>
      <trkpt lat="47.04133" lon="-1.66318">
        <ele>55</ele>
        <time>2020-12-17T14:42:47.000Z</time>
      </trkpt>
      <trkpt lat="47.04129" lon="-1.66302">
        <ele>55</ele>
        <time>2020-12-17T14:42:49.000Z</time>
      </trkpt>
      <trkpt lat="47.04125" lon="-1.66286">
        <ele>55</ele>
        <time>2020-12-17T14:42:51.000Z</time>
      </trkpt>
      <trkpt lat="47.04121" lon="-1.66269">
        <ele>55</ele>
        <time>2020-12-17T14:42:53.000Z</time>
      </trkpt>
      <trkpt lat="47.04117" lon="-1.66252">
        <ele>55</ele>
        <time>2020-12-17T14:42:55.000Z</time>
      </trkpt>
      <trkpt lat="47.04113" lon="-1.66235">
        <ele>55</ele>
        <time>2020-12-17T14:42:57.000Z</time>
      </trkpt>
      <trkpt lat="47.04108" lon="-1.66219">
        <ele>55</ele>
        <time>2020-12-17T14:42:59.000Z</time>
      </trkpt>
      <trkpt lat="47.04105" lon="-1.66203">
        <ele>55</ele>
        <time>2020-12-17T14:43:01.000Z</time>
      </trkpt>
      <trkpt lat="47.041" lon="-1.66187">
        <ele>56</ele>
        <time>2020-12-17T14:43:03.000Z</time>
      </trkpt>
      <trkpt lat="47.04096" lon="-1.6617">
        <ele>56</ele>
        <time>2020-12-17T14:43:05.000Z</time>
      </trkpt>
      <trkpt lat="47.04091" lon="-1.66153">
        <ele>56</ele>
        <time>2020-12-17T14:43:07.000Z</time>
      </trkpt>
      <trkpt lat="47.04087" lon="-1.66138">
        <ele>56</ele>
        <time>2020-12-17T14:43:09.000Z</time>
      </trkpt>
      <trkpt lat="47.04083" lon="-1.66121">
        <ele>56</ele>
        <time>2020-12-17T14:43:11.000Z</time>
      </trkpt>
      <trkpt lat="47.04076" lon="-1.66096">
        <ele>57</ele>
        <time>2020-12-17T14:43:14.000Z</time>
      </trkpt>
      <trkpt lat="47.04072" lon="-1.6608">
        <ele>57</ele>
        <time>2020-12-17T14:43:16.000Z</time>
      </trkpt>
      <trkpt lat="47.04068" lon="-1.66064">
        <ele>57</ele>
        <time>2020-12-17T14:43:18.000Z</time>
      </trkpt>
      <trkpt lat="47.04064" lon="-1.66048">
        <ele>57</ele>
        <time>2020-12-17T14:43:20.000Z</time>
      </trkpt>
      <trkpt lat="47.04059" lon="-1.66032">
        <ele>56</ele>
        <time>2020-12-17T14:43:22.000Z</time>
      </trkpt>
      <trkpt lat="47.04052" lon="-1.66006">
        <ele>56</ele>
        <time>2020-12-17T14:43:25.000Z</time>
      </trkpt>
      <trkpt lat="47.04048" lon="-1.65989">
        <ele>56</ele>
        <time>2020-12-17T14:43:27.000Z</time>
      </trkpt>
      <trkpt lat="47.04043" lon="-1.65973">
        <ele>56</ele>
        <time>2020-12-17T14:43:29.000Z</time>
      </trkpt>
      <trkpt lat="47.04038" lon="-1.65956">
        <ele>56</ele>
        <time>2020-12-17T14:43:31.000Z</time>
      </trkpt>
      <trkpt lat="47.04034" lon="-1.65939">
        <ele>56</ele>
        <time>2020-12-17T14:43:33.000Z</time>
      </trkpt>
      <trkpt lat="47.04029" lon="-1.65921">
        <ele>56</ele>
        <time>2020-12-17T14:43:35.000Z</time>
      </trkpt>
      <trkpt lat="47.04024" lon="-1.65904">
        <ele>55</ele>
        <time>2020-12-17T14:43:37.000Z</time>
      </trkpt>
      <trkpt lat="47.04019" lon="-1.65887">
        <ele>55</ele>
        <time>2020-12-17T14:43:39.000Z</time>
      </trkpt>
      <trkpt lat="47.04014" lon="-1.65869">
        <ele>55</ele>
        <time>2020-12-17T14:43:41.000Z</time>
      </trkpt>
      <trkpt lat="47.04009" lon="-1.65851">
        <ele>55</ele>
        <time>2020-12-17T14:43:43.000Z</time>
      </trkpt>
      <trkpt lat="47.04004" lon="-1.65833">
        <ele>55</ele>
        <time>2020-12-17T14:43:45.000Z</time>
      </trkpt>
      <trkpt lat="47.03999" lon="-1.65815">
        <ele>55</ele>
        <time>2020-12-17T14:43:47.000Z</time>
      </trkpt>
      <trkpt lat="47.03994" lon="-1.65798">
        <ele>55</ele>
        <time>2020-12-17T14:43:49.000Z</time>
      </trkpt>
      <trkpt lat="47.03989" lon="-1.65781">
        <ele>55</ele>
        <time>2020-12-17T14:43:51.000Z</time>
      </trkpt>
      <trkpt lat="47.03985" lon="-1.65763">
        <ele>55</ele>
        <time>2020-12-17T14:43:53.000Z</time>
      </trkpt>
      <trkpt lat="47.0398" lon="-1.65746">
        <ele>55</ele>
        <time>2020-12-17T14:43:55.000Z</time>
      </trkpt>
      <trkpt lat="47.03976" lon="-1.65729">
        <ele>55</ele>
        <time>2020-12-17T14:43:57.000Z</time>
      </trkpt>
      <trkpt lat="47.03971" lon="-1.65711">
        <ele>55</ele>
        <time>2020-12-17T14:43:59.000Z</time>
      </trkpt>
      <trkpt lat="47.03966" lon="-1.65694">
        <ele>55</ele>
        <time>2020-12-17T14:44:01.000Z</time>
      </trkpt>
      <trkpt lat="47.03961" lon="-1.65676">
        <ele>55</ele>
        <time>2020-12-17T14:44:03.000Z</time>
      </trkpt>
      <trkpt lat="47.03956" lon="-1.65659">
        <ele>55</ele>
        <time>2020-12-17T14:44:05.000Z</time>
      </trkpt>
      <trkpt lat="47.03951" lon="-1.65642">
        <ele>55</ele>
        <time>2020-12-17T14:44:07.000Z</time>
      </trkpt>
      <trkpt lat="47.03947" lon="-1.65624">
        <ele>55</ele>
        <time>2020-12-17T14:44:09.000Z</time>
      </trkpt>
      <trkpt lat="47.03942" lon="-1.65607">
        <ele>55</ele>
        <time>2020-12-17T14:44:11.000Z</time>
      </trkpt>
      <trkpt lat="47.03937" lon="-1.6559">
        <ele>55</ele>
        <time>2020-12-17T14:44:13.000Z</time>
      </trkpt>
      <trkpt lat="47.03933" lon="-1.65574">
        <ele>55</ele>
        <time>2020-12-17T14:44:15.000Z</time>
      </trkpt>
      <trkpt lat="47.03928" lon="-1.65557">
        <ele>55</ele>
        <time>2020-12-17T14:44:17.000Z</time>
      </trkpt>
      <trkpt lat="47.03923" lon="-1.6554">
        <ele>55</ele>
        <time>2020-12-17T14:44:19.000Z</time>
      </trkpt>
      <trkpt lat="47.03919" lon="-1.65523">
        <ele>55</ele>
        <time>2020-12-17T14:44:21.000Z</time>
      </trkpt>
      <trkpt lat="47.03913" lon="-1.65506">
        <ele>55</ele>
        <time>2020-12-17T14:44:23.000Z</time>
      </trkpt>
      <trkpt lat="47.03909" lon="-1.65488">
        <ele>55</ele>
        <time>2020-12-17T14:44:25.000Z</time>
      </trkpt>
      <trkpt lat="47.03904" lon="-1.6547">
        <ele>55</ele>
        <time>2020-12-17T14:44:27.000Z</time>
      </trkpt>
      <trkpt lat="47.03899" lon="-1.65453">
        <ele>55</ele>
        <time>2020-12-17T14:44:29.000Z</time>
      </trkpt>
      <trkpt lat="47.03894" lon="-1.65437">
        <ele>55</ele>
        <time>2020-12-17T14:44:31.000Z</time>
      </trkpt>
      <trkpt lat="47.0389" lon="-1.65419">
        <ele>55</ele>
        <time>2020-12-17T14:44:33.000Z</time>
      </trkpt>
      <trkpt lat="47.03885" lon="-1.65401">
        <ele>54</ele>
        <time>2020-12-17T14:44:35.000Z</time>
      </trkpt>
      <trkpt lat="47.0388" lon="-1.65384">
        <ele>54</ele>
        <time>2020-12-17T14:44:37.000Z</time>
      </trkpt>
      <trkpt lat="47.03875" lon="-1.65369">
        <ele>54</ele>
        <time>2020-12-17T14:44:39.000Z</time>
      </trkpt>
      <trkpt lat="47.03868" lon="-1.65354">
        <ele>54</ele>
        <time>2020-12-17T14:44:41.000Z</time>
      </trkpt>
      <trkpt lat="47.0386" lon="-1.65342">
        <ele>55</ele>
        <time>2020-12-17T14:44:43.000Z</time>
      </trkpt>
      <trkpt lat="47.03853" lon="-1.6533">
        <ele>55</ele>
        <time>2020-12-17T14:44:45.000Z</time>
      </trkpt>
      <trkpt lat="47.03853" lon="-1.65315">
        <ele>55</ele>
        <time>2020-12-17T14:44:47.000Z</time>
      </trkpt>
      <trkpt lat="47.0386" lon="-1.65299">
        <ele>55</ele>
        <time>2020-12-17T14:44:49.000Z</time>
      </trkpt>
      <trkpt lat="47.0387" lon="-1.65287">
        <ele>55</ele>
        <time>2020-12-17T14:44:51.000Z</time>
      </trkpt>
      <trkpt lat="47.03882" lon="-1.65277">
        <ele>56</ele>
        <time>2020-12-17T14:44:53.000Z</time>
      </trkpt>
      <trkpt lat="47.03894" lon="-1.65269">
        <ele>55</ele>
        <time>2020-12-17T14:44:55.000Z</time>
      </trkpt>
      <trkpt lat="47.03906" lon="-1.6526">
        <ele>55</ele>
        <time>2020-12-17T14:44:57.000Z</time>
      </trkpt>
      <trkpt lat="47.03918" lon="-1.65252">
        <ele>56</ele>
        <time>2020-12-17T14:44:59.000Z</time>
      </trkpt>
      <trkpt lat="47.0393" lon="-1.65244">
        <ele>55</ele>
        <time>2020-12-17T14:45:01.000Z</time>
      </trkpt>
      <trkpt lat="47.03942" lon="-1.65237">
        <ele>55</ele>
        <time>2020-12-17T14:45:03.000Z</time>
      </trkpt>
      <trkpt lat="47.03953" lon="-1.65229">
        <ele>55</ele>
        <time>2020-12-17T14:45:05.000Z</time>
      </trkpt>
      <trkpt lat="47.03964" lon="-1.65221">
        <ele>55</ele>
        <time>2020-12-17T14:45:07.000Z</time>
      </trkpt>
      <trkpt lat="47.03976" lon="-1.65213">
        <ele>55</ele>
        <time>2020-12-17T14:45:09.000Z</time>
      </trkpt>
      <trkpt lat="47.03988" lon="-1.65205">
        <ele>55</ele>
        <time>2020-12-17T14:45:11.000Z</time>
      </trkpt>
      <trkpt lat="47.04" lon="-1.65196">
        <ele>54</ele>
        <time>2020-12-17T14:45:13.000Z</time>
      </trkpt>
      <trkpt lat="47.04012" lon="-1.65188">
        <ele>54</ele>
        <time>2020-12-17T14:45:15.000Z</time>
      </trkpt>
      <trkpt lat="47.04024" lon="-1.6518">
        <ele>53</ele>
        <time>2020-12-17T14:45:17.000Z</time>
      </trkpt>
      <trkpt lat="47.04036" lon="-1.65171">
        <ele>53</ele>
        <time>2020-12-17T14:45:19.000Z</time>
      </trkpt>
      <trkpt lat="47.04047" lon="-1.65164">
        <ele>53</ele>
        <time>2020-12-17T14:45:21.000Z</time>
      </trkpt>
      <trkpt lat="47.0406" lon="-1.65154">
        <ele>53</ele>
        <time>2020-12-17T14:45:23.000Z</time>
      </trkpt>
      <trkpt lat="47.04072" lon="-1.65146">
        <ele>52</ele>
        <time>2020-12-17T14:45:25.000Z</time>
      </trkpt>
      <trkpt lat="47.04084" lon="-1.65138">
        <ele>52</ele>
        <time>2020-12-17T14:45:27.000Z</time>
      </trkpt>
      <trkpt lat="47.04096" lon="-1.6513">
        <ele>52</ele>
        <time>2020-12-17T14:45:29.000Z</time>
      </trkpt>
      <trkpt lat="47.04107" lon="-1.65122">
        <ele>52</ele>
        <time>2020-12-17T14:45:31.000Z</time>
      </trkpt>
      <trkpt lat="47.04119" lon="-1.65114">
        <ele>52</ele>
        <time>2020-12-17T14:45:33.000Z</time>
      </trkpt>
      <trkpt lat="47.04131" lon="-1.65106">
        <ele>52</ele>
        <time>2020-12-17T14:45:35.000Z</time>
      </trkpt>
      <trkpt lat="47.04143" lon="-1.65099">
        <ele>52</ele>
        <time>2020-12-17T14:45:37.000Z</time>
      </trkpt>
      <trkpt lat="47.04154" lon="-1.65091">
        <ele>52</ele>
        <time>2020-12-17T14:45:39.000Z</time>
      </trkpt>
      <trkpt lat="47.04166" lon="-1.65083">
        <ele>52</ele>
        <time>2020-12-17T14:45:41.000Z</time>
      </trkpt>
      <trkpt lat="47.04178" lon="-1.65074">
        <ele>52</ele>
        <time>2020-12-17T14:45:43.000Z</time>
      </trkpt>
      <trkpt lat="47.04189" lon="-1.65066">
        <ele>52</ele>
        <time>2020-12-17T14:45:45.000Z</time>
      </trkpt>
      <trkpt lat="47.04201" lon="-1.65059">
        <ele>52</ele>
        <time>2020-12-17T14:45:47.000Z</time>
      </trkpt>
      <trkpt lat="47.04212" lon="-1.65051">
        <ele>52</ele>
        <time>2020-12-17T14:45:49.000Z</time>
      </trkpt>
      <trkpt lat="47.04223" lon="-1.65042">
        <ele>52</ele>
        <time>2020-12-17T14:45:51.000Z</time>
      </trkpt>
      <trkpt lat="47.04235" lon="-1.65034">
        <ele>51</ele>
        <time>2020-12-17T14:45:53.000Z</time>
      </trkpt>
      <trkpt lat="47.04248" lon="-1.65025">
        <ele>51</ele>
        <time>2020-12-17T14:45:55.000Z</time>
      </trkpt>
      <trkpt lat="47.0426" lon="-1.65017">
        <ele>51</ele>
        <time>2020-12-17T14:45:57.000Z</time>
      </trkpt>
      <trkpt lat="47.04272" lon="-1.65008">
        <ele>51</ele>
        <time>2020-12-17T14:45:59.000Z</time>
      </trkpt>
      <trkpt lat="47.04284" lon="-1.65">
        <ele>51</ele>
        <time>2020-12-17T14:46:01.000Z</time>
      </trkpt>
      <trkpt lat="47.04295" lon="-1.64992">
        <ele>51</ele>
        <time>2020-12-17T14:46:03.000Z</time>
      </trkpt>
      <trkpt lat="47.04306" lon="-1.64983">
        <ele>51</ele>
        <time>2020-12-17T14:46:05.000Z</time>
      </trkpt>
      <trkpt lat="47.04317" lon="-1.64973">
        <ele>51</ele>
        <time>2020-12-17T14:46:07.000Z</time>
      </trkpt>
      <trkpt lat="47.04328" lon="-1.64964">
        <ele>51</ele>
        <time>2020-12-17T14:46:09.000Z</time>
      </trkpt>
      <trkpt lat="47.04339" lon="-1.64956">
        <ele>51</ele>
        <time>2020-12-17T14:46:11.000Z</time>
      </trkpt>
      <trkpt lat="47.0435" lon="-1.64947">
        <ele>51</ele>
        <time>2020-12-17T14:46:13.000Z</time>
      </trkpt>
      <trkpt lat="47.04359" lon="-1.64937">
        <ele>51</ele>
        <time>2020-12-17T14:46:15.000Z</time>
      </trkpt>
      <trkpt lat="47.04369" lon="-1.64929">
        <ele>52</ele>
        <time>2020-12-17T14:46:17.000Z</time>
      </trkpt>
      <trkpt lat="47.04379" lon="-1.64921">
        <ele>52</ele>
        <time>2020-12-17T14:46:19.000Z</time>
      </trkpt>
      <trkpt lat="47.04388" lon="-1.64913">
        <ele>52</ele>
        <time>2020-12-17T14:46:21.000Z</time>
      </trkpt>
      <trkpt lat="47.04398" lon="-1.64904">
        <ele>52</ele>
        <time>2020-12-17T14:46:23.000Z</time>
      </trkpt>
      <trkpt lat="47.04408" lon="-1.64897">
        <ele>52</ele>
        <time>2020-12-17T14:46:25.000Z</time>
      </trkpt>
      <trkpt lat="47.04418" lon="-1.64893">
        <ele>52</ele>
        <time>2020-12-17T14:46:27.000Z</time>
      </trkpt>
      <trkpt lat="47.04428" lon="-1.64894">
        <ele>52</ele>
        <time>2020-12-17T14:46:29.000Z</time>
      </trkpt>
      <trkpt lat="47.04439" lon="-1.64896">
        <ele>52</ele>
        <time>2020-12-17T14:46:31.000Z</time>
      </trkpt>
      <trkpt lat="47.04448" lon="-1.649">
        <ele>52</ele>
        <time>2020-12-17T14:46:33.000Z</time>
      </trkpt>
      <trkpt lat="47.04457" lon="-1.64905">
        <ele>52</ele>
        <time>2020-12-17T14:46:35.000Z</time>
      </trkpt>
      <trkpt lat="47.04466" lon="-1.64908">
        <ele>51</ele>
        <time>2020-12-17T14:46:38.000Z</time>
      </trkpt>
      <trkpt lat="47.04471" lon="-1.64897">
        <ele>51</ele>
        <time>2020-12-17T14:46:42.000Z</time>
      </trkpt>
      <trkpt lat="47.04466" lon="-1.64882">
        <ele>52</ele>
        <time>2020-12-17T14:46:47.000Z</time>
      </trkpt>
      <trkpt lat="47.04457" lon="-1.64872">
        <ele>51</ele>
        <time>2020-12-17T14:46:50.000Z</time>
      </trkpt>
      <trkpt lat="47.04449" lon="-1.64861">
        <ele>51</ele>
        <time>2020-12-17T14:46:53.000Z</time>
      </trkpt>
      <trkpt lat="47.04439" lon="-1.64854">
        <ele>52</ele>
        <time>2020-12-17T14:46:56.000Z</time>
      </trkpt>
      <trkpt lat="47.04432" lon="-1.64846">
        <ele>52</ele>
        <time>2020-12-17T14:46:59.000Z</time>
      </trkpt>
      <trkpt lat="47.04424" lon="-1.64838">
        <ele>52</ele>
        <time>2020-12-17T14:47:02.000Z</time>
      </trkpt>
      <trkpt lat="47.04415" lon="-1.64832">
        <ele>52</ele>
        <time>2020-12-17T14:47:04.000Z</time>
      </trkpt>
      <trkpt lat="47.04411" lon="-1.64817">
        <ele>52</ele>
        <time>2020-12-17T14:47:06.000Z</time>
      </trkpt>
      <trkpt lat="47.04403" lon="-1.64804">
        <ele>51</ele>
        <time>2020-12-17T14:47:09.000Z</time>
      </trkpt>
      <trkpt lat="47.04395" lon="-1.64794">
        <ele>51</ele>
        <time>2020-12-17T14:47:11.000Z</time>
      </trkpt>
      <trkpt lat="47.04389" lon="-1.64784">
        <ele>51</ele>
        <time>2020-12-17T14:47:13.000Z</time>
      </trkpt>
      <trkpt lat="47.04381" lon="-1.64773">
        <ele>51</ele>
        <time>2020-12-17T14:47:15.000Z</time>
      </trkpt>
      <trkpt lat="47.04373" lon="-1.64762">
        <ele>51</ele>
        <time>2020-12-17T14:47:17.000Z</time>
      </trkpt>
      <trkpt lat="47.04365" lon="-1.64751">
        <ele>51</ele>
        <time>2020-12-17T14:47:19.000Z</time>
      </trkpt>
      <trkpt lat="47.04358" lon="-1.64739">
        <ele>51</ele>
        <time>2020-12-17T14:47:21.000Z</time>
      </trkpt>
      <trkpt lat="47.0435" lon="-1.64728">
        <ele>51</ele>
        <time>2020-12-17T14:47:23.000Z</time>
      </trkpt>
      <trkpt lat="47.04341" lon="-1.64718">
        <ele>51</ele>
        <time>2020-12-17T14:47:25.000Z</time>
      </trkpt>
      <trkpt lat="47.04332" lon="-1.64707">
        <ele>51</ele>
        <time>2020-12-17T14:47:27.000Z</time>
      </trkpt>
      <trkpt lat="47.04323" lon="-1.64697">
        <ele>51</ele>
        <time>2020-12-17T14:47:29.000Z</time>
      </trkpt>
      <trkpt lat="47.04315" lon="-1.64684">
        <ele>51</ele>
        <time>2020-12-17T14:47:31.000Z</time>
      </trkpt>
      <trkpt lat="47.04307" lon="-1.64672">
        <ele>51</ele>
        <time>2020-12-17T14:47:33.000Z</time>
      </trkpt>
      <trkpt lat="47.04298" lon="-1.6466">
        <ele>51</ele>
        <time>2020-12-17T14:47:35.000Z</time>
      </trkpt>
      <trkpt lat="47.04289" lon="-1.64648">
        <ele>51</ele>
        <time>2020-12-17T14:47:37.000Z</time>
      </trkpt>
      <trkpt lat="47.04281" lon="-1.64636">
        <ele>52</ele>
        <time>2020-12-17T14:47:39.000Z</time>
      </trkpt>
      <trkpt lat="47.04272" lon="-1.64623">
        <ele>52</ele>
        <time>2020-12-17T14:47:41.000Z</time>
      </trkpt>
      <trkpt lat="47.04263" lon="-1.64611">
        <ele>52</ele>
        <time>2020-12-17T14:47:43.000Z</time>
      </trkpt>
      <trkpt lat="47.04255" lon="-1.64599">
        <ele>52</ele>
        <time>2020-12-17T14:47:45.000Z</time>
      </trkpt>
      <trkpt lat="47.04246" lon="-1.64587">
        <ele>52</ele>
        <time>2020-12-17T14:47:47.000Z</time>
      </trkpt>
      <trkpt lat="47.04236" lon="-1.64575">
        <ele>53</ele>
        <time>2020-12-17T14:47:49.000Z</time>
      </trkpt>
      <trkpt lat="47.04227" lon="-1.64562">
        <ele>53</ele>
        <time>2020-12-17T14:47:51.000Z</time>
      </trkpt>
      <trkpt lat="47.04218" lon="-1.64549">
        <ele>52</ele>
        <time>2020-12-17T14:47:53.000Z</time>
      </trkpt>
      <trkpt lat="47.04209" lon="-1.64537">
        <ele>52</ele>
        <time>2020-12-17T14:47:55.000Z</time>
      </trkpt>
      <trkpt lat="47.04199" lon="-1.64524">
        <ele>52</ele>
        <time>2020-12-17T14:47:57.000Z</time>
      </trkpt>
      <trkpt lat="47.04191" lon="-1.64513">
        <ele>52</ele>
        <time>2020-12-17T14:47:59.000Z</time>
      </trkpt>
      <trkpt lat="47.04183" lon="-1.64504">
        <ele>52</ele>
        <time>2020-12-17T14:48:01.000Z</time>
      </trkpt>
      <trkpt lat="47.04172" lon="-1.64491">
        <ele>52</ele>
        <time>2020-12-17T14:48:04.000Z</time>
      </trkpt>
      <trkpt lat="47.04164" lon="-1.64475">
        <ele>52</ele>
        <time>2020-12-17T14:48:06.000Z</time>
      </trkpt>
      <trkpt lat="47.04154" lon="-1.6446">
        <ele>51</ele>
        <time>2020-12-17T14:48:08.000Z</time>
      </trkpt>
      <trkpt lat="47.04143" lon="-1.64447">
        <ele>51</ele>
        <time>2020-12-17T14:48:10.000Z</time>
      </trkpt>
      <trkpt lat="47.04133" lon="-1.64433">
        <ele>52</ele>
        <time>2020-12-17T14:48:12.000Z</time>
      </trkpt>
      <trkpt lat="47.04124" lon="-1.64421">
        <ele>51</ele>
        <time>2020-12-17T14:48:14.000Z</time>
      </trkpt>
      <trkpt lat="47.04114" lon="-1.64407">
        <ele>51</ele>
        <time>2020-12-17T14:48:16.000Z</time>
      </trkpt>
      <trkpt lat="47.04105" lon="-1.64392">
        <ele>51</ele>
        <time>2020-12-17T14:48:18.000Z</time>
      </trkpt>
      <trkpt lat="47.04097" lon="-1.64378">
        <ele>52</ele>
        <time>2020-12-17T14:48:20.000Z</time>
      </trkpt>
      <trkpt lat="47.0409" lon="-1.64362">
        <ele>52</ele>
        <time>2020-12-17T14:48:22.000Z</time>
      </trkpt>
      <trkpt lat="47.04083" lon="-1.64347">
        <ele>52</ele>
        <time>2020-12-17T14:48:24.000Z</time>
      </trkpt>
      <trkpt lat="47.04076" lon="-1.64331">
        <ele>53</ele>
        <time>2020-12-17T14:48:26.000Z</time>
      </trkpt>
      <trkpt lat="47.04069" lon="-1.64315">
        <ele>53</ele>
        <time>2020-12-17T14:48:28.000Z</time>
      </trkpt>
      <trkpt lat="47.04062" lon="-1.64299">
        <ele>53</ele>
        <time>2020-12-17T14:48:30.000Z</time>
      </trkpt>
      <trkpt lat="47.04056" lon="-1.64285">
        <ele>54</ele>
        <time>2020-12-17T14:48:32.000Z</time>
      </trkpt>
      <trkpt lat="47.04049" lon="-1.64272">
        <ele>54</ele>
        <time>2020-12-17T14:48:34.000Z</time>
      </trkpt>
      <trkpt lat="47.0404" lon="-1.64259">
        <ele>53</ele>
        <time>2020-12-17T14:48:36.000Z</time>
      </trkpt>
      <trkpt lat="47.04032" lon="-1.64246">
        <ele>53</ele>
        <time>2020-12-17T14:48:38.000Z</time>
      </trkpt>
      <trkpt lat="47.04023" lon="-1.64233">
        <ele>53</ele>
        <time>2020-12-17T14:48:40.000Z</time>
      </trkpt>
      <trkpt lat="47.04014" lon="-1.64219">
        <ele>52</ele>
        <time>2020-12-17T14:48:42.000Z</time>
      </trkpt>
      <trkpt lat="47.04006" lon="-1.64205">
        <ele>52</ele>
        <time>2020-12-17T14:48:44.000Z</time>
      </trkpt>
      <trkpt lat="47.03997" lon="-1.64191">
        <ele>52</ele>
        <time>2020-12-17T14:48:46.000Z</time>
      </trkpt>
      <trkpt lat="47.0399" lon="-1.64178">
        <ele>52</ele>
        <time>2020-12-17T14:48:48.000Z</time>
      </trkpt>
      <trkpt lat="47.03983" lon="-1.64167">
        <ele>53</ele>
        <time>2020-12-17T14:48:50.000Z</time>
      </trkpt>
      <trkpt lat="47.03976" lon="-1.64157">
        <ele>52</ele>
        <time>2020-12-17T14:48:54.000Z</time>
      </trkpt>
      <trkpt lat="47.03972" lon="-1.64142">
        <ele>53</ele>
        <time>2020-12-17T14:49:01.000Z</time>
      </trkpt>
      <trkpt lat="47.03982" lon="-1.64136">
        <ele>54</ele>
        <time>2020-12-17T14:49:03.000Z</time>
      </trkpt>
      <trkpt lat="47.03994" lon="-1.64129">
        <ele>54</ele>
        <time>2020-12-17T14:49:05.000Z</time>
      </trkpt>
      <trkpt lat="47.04006" lon="-1.64123">
        <ele>54</ele>
        <time>2020-12-17T14:49:07.000Z</time>
      </trkpt>
      <trkpt lat="47.04017" lon="-1.64119">
        <ele>55</ele>
        <time>2020-12-17T14:49:09.000Z</time>
      </trkpt>
      <trkpt lat="47.04029" lon="-1.64115">
        <ele>54</ele>
        <time>2020-12-17T14:49:11.000Z</time>
      </trkpt>
      <trkpt lat="47.0404" lon="-1.64109">
        <ele>54</ele>
        <time>2020-12-17T14:49:13.000Z</time>
      </trkpt>
      <trkpt lat="47.04053" lon="-1.64103">
        <ele>54</ele>
        <time>2020-12-17T14:49:15.000Z</time>
      </trkpt>
      <trkpt lat="47.04066" lon="-1.64097">
        <ele>55</ele>
        <time>2020-12-17T14:49:17.000Z</time>
      </trkpt>
      <trkpt lat="47.0408" lon="-1.64089">
        <ele>55</ele>
        <time>2020-12-17T14:49:19.000Z</time>
      </trkpt>
      <trkpt lat="47.04094" lon="-1.64083">
        <ele>55</ele>
        <time>2020-12-17T14:49:21.000Z</time>
      </trkpt>
      <trkpt lat="47.04108" lon="-1.64076">
        <ele>55</ele>
        <time>2020-12-17T14:49:23.000Z</time>
      </trkpt>
      <trkpt lat="47.04122" lon="-1.64069">
        <ele>55</ele>
        <time>2020-12-17T14:49:25.000Z</time>
      </trkpt>
      <trkpt lat="47.04136" lon="-1.64064">
        <ele>55</ele>
        <time>2020-12-17T14:49:27.000Z</time>
      </trkpt>
      <trkpt lat="47.0415" lon="-1.64059">
        <ele>54</ele>
        <time>2020-12-17T14:49:29.000Z</time>
      </trkpt>
      <trkpt lat="47.04163" lon="-1.64053">
        <ele>53</ele>
        <time>2020-12-17T14:49:31.000Z</time>
      </trkpt>
      <trkpt lat="47.04176" lon="-1.64048">
        <ele>53</ele>
        <time>2020-12-17T14:49:33.000Z</time>
      </trkpt>
      <trkpt lat="47.04188" lon="-1.64042">
        <ele>53</ele>
        <time>2020-12-17T14:49:35.000Z</time>
      </trkpt>
      <trkpt lat="47.04201" lon="-1.64036">
        <ele>53</ele>
        <time>2020-12-17T14:49:37.000Z</time>
      </trkpt>
      <trkpt lat="47.04213" lon="-1.64032">
        <ele>53</ele>
        <time>2020-12-17T14:49:39.000Z</time>
      </trkpt>
      <trkpt lat="47.04224" lon="-1.64025">
        <ele>53</ele>
        <time>2020-12-17T14:49:41.000Z</time>
      </trkpt>
      <trkpt lat="47.04237" lon="-1.64019">
        <ele>53</ele>
        <time>2020-12-17T14:49:43.000Z</time>
      </trkpt>
      <trkpt lat="47.0425" lon="-1.64014">
        <ele>54</ele>
        <time>2020-12-17T14:49:45.000Z</time>
      </trkpt>
      <trkpt lat="47.04262" lon="-1.64008">
        <ele>54</ele>
        <time>2020-12-17T14:49:47.000Z</time>
      </trkpt>
      <trkpt lat="47.04275" lon="-1.64002">
        <ele>54</ele>
        <time>2020-12-17T14:49:49.000Z</time>
      </trkpt>
      <trkpt lat="47.04289" lon="-1.63996">
        <ele>54</ele>
        <time>2020-12-17T14:49:51.000Z</time>
      </trkpt>
      <trkpt lat="47.04302" lon="-1.63991">
        <ele>54</ele>
        <time>2020-12-17T14:49:53.000Z</time>
      </trkpt>
      <trkpt lat="47.04316" lon="-1.63984">
        <ele>54</ele>
        <time>2020-12-17T14:49:55.000Z</time>
      </trkpt>
      <trkpt lat="47.04329" lon="-1.63979">
        <ele>54</ele>
        <time>2020-12-17T14:49:57.000Z</time>
      </trkpt>
      <trkpt lat="47.04342" lon="-1.63974">
        <ele>54</ele>
        <time>2020-12-17T14:49:59.000Z</time>
      </trkpt>
      <trkpt lat="47.04355" lon="-1.63969">
        <ele>54</ele>
        <time>2020-12-17T14:50:01.000Z</time>
      </trkpt>
      <trkpt lat="47.04368" lon="-1.63964">
        <ele>54</ele>
        <time>2020-12-17T14:50:03.000Z</time>
      </trkpt>
      <trkpt lat="47.0438" lon="-1.63957">
        <ele>54</ele>
        <time>2020-12-17T14:50:05.000Z</time>
      </trkpt>
      <trkpt lat="47.04393" lon="-1.63951">
        <ele>53</ele>
        <time>2020-12-17T14:50:07.000Z</time>
      </trkpt>
      <trkpt lat="47.04407" lon="-1.63945">
        <ele>53</ele>
        <time>2020-12-17T14:50:09.000Z</time>
      </trkpt>
      <trkpt lat="47.0442" lon="-1.63939">
        <ele>52</ele>
        <time>2020-12-17T14:50:11.000Z</time>
      </trkpt>
      <trkpt lat="47.04434" lon="-1.63933">
        <ele>53</ele>
        <time>2020-12-17T14:50:13.000Z</time>
      </trkpt>
      <trkpt lat="47.04446" lon="-1.63927">
        <ele>53</ele>
        <time>2020-12-17T14:50:15.000Z</time>
      </trkpt>
      <trkpt lat="47.04458" lon="-1.63918">
        <ele>53</ele>
        <time>2020-12-17T14:50:17.000Z</time>
      </trkpt>
      <trkpt lat="47.0447" lon="-1.63908">
        <ele>54</ele>
        <time>2020-12-17T14:50:19.000Z</time>
      </trkpt>
      <trkpt lat="47.04485" lon="-1.63905">
        <ele>53</ele>
        <time>2020-12-17T14:50:21.000Z</time>
      </trkpt>
      <trkpt lat="47.04498" lon="-1.63899">
        <ele>54</ele>
        <time>2020-12-17T14:50:23.000Z</time>
      </trkpt>
      <trkpt lat="47.04512" lon="-1.63891">
        <ele>54</ele>
        <time>2020-12-17T14:50:25.000Z</time>
      </trkpt>
      <trkpt lat="47.04525" lon="-1.63883">
        <ele>54</ele>
        <time>2020-12-17T14:50:27.000Z</time>
      </trkpt>
      <trkpt lat="47.04538" lon="-1.63875">
        <ele>53</ele>
        <time>2020-12-17T14:50:29.000Z</time>
      </trkpt>
      <trkpt lat="47.04551" lon="-1.63867">
        <ele>54</ele>
        <time>2020-12-17T14:50:31.000Z</time>
      </trkpt>
      <trkpt lat="47.04564" lon="-1.6386">
        <ele>53</ele>
        <time>2020-12-17T14:50:33.000Z</time>
      </trkpt>
      <trkpt lat="47.04577" lon="-1.63852">
        <ele>53</ele>
        <time>2020-12-17T14:50:35.000Z</time>
      </trkpt>
      <trkpt lat="47.0459" lon="-1.63845">
        <ele>54</ele>
        <time>2020-12-17T14:50:37.000Z</time>
      </trkpt>
      <trkpt lat="47.04604" lon="-1.63841">
        <ele>54</ele>
        <time>2020-12-17T14:50:39.000Z</time>
      </trkpt>
      <trkpt lat="47.04617" lon="-1.63839">
        <ele>53</ele>
        <time>2020-12-17T14:50:41.000Z</time>
      </trkpt>
      <trkpt lat="47.04629" lon="-1.63837">
        <ele>54</ele>
        <time>2020-12-17T14:50:43.000Z</time>
      </trkpt>
      <trkpt lat="47.04641" lon="-1.63836">
        <ele>54</ele>
        <time>2020-12-17T14:50:45.000Z</time>
      </trkpt>
      <trkpt lat="47.04653" lon="-1.63831">
        <ele>54</ele>
        <time>2020-12-17T14:50:47.000Z</time>
      </trkpt>
      <trkpt lat="47.04663" lon="-1.63825">
        <ele>54</ele>
        <time>2020-12-17T14:50:49.000Z</time>
      </trkpt>
      <trkpt lat="47.04674" lon="-1.63818">
        <ele>54</ele>
        <time>2020-12-17T14:50:51.000Z</time>
      </trkpt>
      <trkpt lat="47.04685" lon="-1.63811">
        <ele>54</ele>
        <time>2020-12-17T14:50:53.000Z</time>
      </trkpt>
      <trkpt lat="47.04694" lon="-1.63807">
        <ele>55</ele>
        <time>2020-12-17T14:50:55.000Z</time>
      </trkpt>
      <trkpt lat="47.04704" lon="-1.63803">
        <ele>55</ele>
        <time>2020-12-17T14:50:58.000Z</time>
      </trkpt>
      <trkpt lat="47.04716" lon="-1.63796">
        <ele>55</ele>
        <time>2020-12-17T14:51:01.000Z</time>
      </trkpt>
      <trkpt lat="47.04727" lon="-1.63793">
        <ele>56</ele>
        <time>2020-12-17T14:51:03.000Z</time>
      </trkpt>
      <trkpt lat="47.04739" lon="-1.63795">
        <ele>56</ele>
        <time>2020-12-17T14:51:05.000Z</time>
      </trkpt>
      <trkpt lat="47.04751" lon="-1.63793">
        <ele>57</ele>
        <time>2020-12-17T14:51:07.000Z</time>
      </trkpt>
      <trkpt lat="47.04764" lon="-1.63788">
        <ele>57</ele>
        <time>2020-12-17T14:51:09.000Z</time>
      </trkpt>
      <trkpt lat="47.04775" lon="-1.63783">
        <ele>57</ele>
        <time>2020-12-17T14:51:11.000Z</time>
      </trkpt>
      <trkpt lat="47.04787" lon="-1.63779">
        <ele>58</ele>
        <time>2020-12-17T14:51:13.000Z</time>
      </trkpt>
      <trkpt lat="47.04798" lon="-1.63776">
        <ele>59</ele>
        <time>2020-12-17T14:51:15.000Z</time>
      </trkpt>
      <trkpt lat="47.04809" lon="-1.63775">
        <ele>59</ele>
        <time>2020-12-17T14:51:17.000Z</time>
      </trkpt>
      <trkpt lat="47.0482" lon="-1.63773">
        <ele>59</ele>
        <time>2020-12-17T14:51:19.000Z</time>
      </trkpt>
      <trkpt lat="47.04832" lon="-1.63772">
        <ele>59</ele>
        <time>2020-12-17T14:51:21.000Z</time>
      </trkpt>
      <trkpt lat="47.04844" lon="-1.6377">
        <ele>59</ele>
        <time>2020-12-17T14:51:23.000Z</time>
      </trkpt>
      <trkpt lat="47.04855" lon="-1.63767">
        <ele>59</ele>
        <time>2020-12-17T14:51:25.000Z</time>
      </trkpt>
      <trkpt lat="47.04867" lon="-1.63765">
        <ele>59</ele>
        <time>2020-12-17T14:51:27.000Z</time>
      </trkpt>
      <trkpt lat="47.0488" lon="-1.63763">
        <ele>59</ele>
        <time>2020-12-17T14:51:29.000Z</time>
      </trkpt>
      <trkpt lat="47.04893" lon="-1.6376">
        <ele>58</ele>
        <time>2020-12-17T14:51:31.000Z</time>
      </trkpt>
      <trkpt lat="47.04906" lon="-1.63757">
        <ele>58</ele>
        <time>2020-12-17T14:51:33.000Z</time>
      </trkpt>
      <trkpt lat="47.0492" lon="-1.63753">
        <ele>58</ele>
        <time>2020-12-17T14:51:35.000Z</time>
      </trkpt>
      <trkpt lat="47.04932" lon="-1.63745">
        <ele>58</ele>
        <time>2020-12-17T14:51:37.000Z</time>
      </trkpt>
      <trkpt lat="47.04942" lon="-1.6373">
        <ele>58</ele>
        <time>2020-12-17T14:51:39.000Z</time>
      </trkpt>
      <trkpt lat="47.04946" lon="-1.63712">
        <ele>58</ele>
        <time>2020-12-17T14:51:41.000Z</time>
      </trkpt>
      <trkpt lat="47.04947" lon="-1.63692">
        <ele>57</ele>
        <time>2020-12-17T14:51:43.000Z</time>
      </trkpt>
      <trkpt lat="47.04946" lon="-1.63672">
        <ele>57</ele>
        <time>2020-12-17T14:51:45.000Z</time>
      </trkpt>
      <trkpt lat="47.04946" lon="-1.63651">
        <ele>56</ele>
        <time>2020-12-17T14:51:47.000Z</time>
      </trkpt>
      <trkpt lat="47.04948" lon="-1.63632">
        <ele>56</ele>
        <time>2020-12-17T14:51:49.000Z</time>
      </trkpt>
      <trkpt lat="47.04953" lon="-1.63612">
        <ele>55</ele>
        <time>2020-12-17T14:51:51.000Z</time>
      </trkpt>
      <trkpt lat="47.0496" lon="-1.63592">
        <ele>55</ele>
        <time>2020-12-17T14:51:53.000Z</time>
      </trkpt>
      <trkpt lat="47.0497" lon="-1.63576">
        <ele>55</ele>
        <time>2020-12-17T14:51:55.000Z</time>
      </trkpt>
      <trkpt lat="47.04984" lon="-1.63563">
        <ele>55</ele>
        <time>2020-12-17T14:51:57.000Z</time>
      </trkpt>
      <trkpt lat="47.04997" lon="-1.63553">
        <ele>54</ele>
        <time>2020-12-17T14:51:59.000Z</time>
      </trkpt>
      <trkpt lat="47.05012" lon="-1.63546">
        <ele>53</ele>
        <time>2020-12-17T14:52:01.000Z</time>
      </trkpt>
      <trkpt lat="47.05026" lon="-1.6354">
        <ele>53</ele>
        <time>2020-12-17T14:52:03.000Z</time>
      </trkpt>
      <trkpt lat="47.0504" lon="-1.63535">
        <ele>53</ele>
        <time>2020-12-17T14:52:05.000Z</time>
      </trkpt>
      <trkpt lat="47.05054" lon="-1.63529">
        <ele>53</ele>
        <time>2020-12-17T14:52:07.000Z</time>
      </trkpt>
      <trkpt lat="47.05068" lon="-1.63523">
        <ele>53</ele>
        <time>2020-12-17T14:52:09.000Z</time>
      </trkpt>
      <trkpt lat="47.05083" lon="-1.63517">
        <ele>53</ele>
        <time>2020-12-17T14:52:11.000Z</time>
      </trkpt>
      <trkpt lat="47.05098" lon="-1.63512">
        <ele>53</ele>
        <time>2020-12-17T14:52:13.000Z</time>
      </trkpt>
      <trkpt lat="47.05112" lon="-1.63506">
        <ele>53</ele>
        <time>2020-12-17T14:52:15.000Z</time>
      </trkpt>
      <trkpt lat="47.05126" lon="-1.635">
        <ele>53</ele>
        <time>2020-12-17T14:52:17.000Z</time>
      </trkpt>
      <trkpt lat="47.05141" lon="-1.63495">
        <ele>53</ele>
        <time>2020-12-17T14:52:19.000Z</time>
      </trkpt>
      <trkpt lat="47.05156" lon="-1.63489">
        <ele>53</ele>
        <time>2020-12-17T14:52:21.000Z</time>
      </trkpt>
      <trkpt lat="47.0517" lon="-1.63483">
        <ele>53</ele>
        <time>2020-12-17T14:52:23.000Z</time>
      </trkpt>
      <trkpt lat="47.05185" lon="-1.63477">
        <ele>53</ele>
        <time>2020-12-17T14:52:25.000Z</time>
      </trkpt>
      <trkpt lat="47.05201" lon="-1.63472">
        <ele>53</ele>
        <time>2020-12-17T14:52:27.000Z</time>
      </trkpt>
      <trkpt lat="47.05216" lon="-1.63466">
        <ele>53</ele>
        <time>2020-12-17T14:52:29.000Z</time>
      </trkpt>
      <trkpt lat="47.05231" lon="-1.6346">
        <ele>53</ele>
        <time>2020-12-17T14:52:31.000Z</time>
      </trkpt>
      <trkpt lat="47.05247" lon="-1.63456">
        <ele>53</ele>
        <time>2020-12-17T14:52:33.000Z</time>
      </trkpt>
      <trkpt lat="47.05262" lon="-1.63451">
        <ele>53</ele>
        <time>2020-12-17T14:52:35.000Z</time>
      </trkpt>
      <trkpt lat="47.05278" lon="-1.63448">
        <ele>53</ele>
        <time>2020-12-17T14:52:37.000Z</time>
      </trkpt>
      <trkpt lat="47.05294" lon="-1.63446">
        <ele>54</ele>
        <time>2020-12-17T14:52:39.000Z</time>
      </trkpt>
      <trkpt lat="47.05309" lon="-1.63444">
        <ele>54</ele>
        <time>2020-12-17T14:52:41.000Z</time>
      </trkpt>
      <trkpt lat="47.05324" lon="-1.63443">
        <ele>54</ele>
        <time>2020-12-17T14:52:43.000Z</time>
      </trkpt>
      <trkpt lat="47.05339" lon="-1.63443">
        <ele>54</ele>
        <time>2020-12-17T14:52:45.000Z</time>
      </trkpt>
      <trkpt lat="47.05353" lon="-1.63441">
        <ele>54</ele>
        <time>2020-12-17T14:52:47.000Z</time>
      </trkpt>
      <trkpt lat="47.05366" lon="-1.63432">
        <ele>54</ele>
        <time>2020-12-17T14:52:49.000Z</time>
      </trkpt>
      <trkpt lat="47.05381" lon="-1.63428">
        <ele>54</ele>
        <time>2020-12-17T14:52:51.000Z</time>
      </trkpt>
      <trkpt lat="47.05395" lon="-1.63431">
        <ele>55</ele>
        <time>2020-12-17T14:52:53.000Z</time>
      </trkpt>
      <trkpt lat="47.05411" lon="-1.6343">
        <ele>54</ele>
        <time>2020-12-17T14:52:55.000Z</time>
      </trkpt>
      <trkpt lat="47.05427" lon="-1.63427">
        <ele>55</ele>
        <time>2020-12-17T14:52:57.000Z</time>
      </trkpt>
      <trkpt lat="47.05442" lon="-1.63423">
        <ele>55</ele>
        <time>2020-12-17T14:52:59.000Z</time>
      </trkpt>
      <trkpt lat="47.05457" lon="-1.63421">
        <ele>54</ele>
        <time>2020-12-17T14:53:01.000Z</time>
      </trkpt>
      <trkpt lat="47.05472" lon="-1.63418">
        <ele>54</ele>
        <time>2020-12-17T14:53:03.000Z</time>
      </trkpt>
      <trkpt lat="47.05487" lon="-1.63416">
        <ele>54</ele>
        <time>2020-12-17T14:53:05.000Z</time>
      </trkpt>
      <trkpt lat="47.05502" lon="-1.63414">
        <ele>54</ele>
        <time>2020-12-17T14:53:07.000Z</time>
      </trkpt>
      <trkpt lat="47.05517" lon="-1.63412">
        <ele>54</ele>
        <time>2020-12-17T14:53:09.000Z</time>
      </trkpt>
      <trkpt lat="47.05532" lon="-1.63408">
        <ele>54</ele>
        <time>2020-12-17T14:53:11.000Z</time>
      </trkpt>
      <trkpt lat="47.05547" lon="-1.63403">
        <ele>54</ele>
        <time>2020-12-17T14:53:13.000Z</time>
      </trkpt>
      <trkpt lat="47.0556" lon="-1.63398">
        <ele>54</ele>
        <time>2020-12-17T14:53:15.000Z</time>
      </trkpt>
      <trkpt lat="47.05574" lon="-1.63392">
        <ele>53</ele>
        <time>2020-12-17T14:53:17.000Z</time>
      </trkpt>
      <trkpt lat="47.05588" lon="-1.63386">
        <ele>53</ele>
        <time>2020-12-17T14:53:19.000Z</time>
      </trkpt>
      <trkpt lat="47.05602" lon="-1.6338">
        <ele>53</ele>
        <time>2020-12-17T14:53:21.000Z</time>
      </trkpt>
      <trkpt lat="47.05615" lon="-1.63374">
        <ele>53</ele>
        <time>2020-12-17T14:53:23.000Z</time>
      </trkpt>
      <trkpt lat="47.05628" lon="-1.63367">
        <ele>53</ele>
        <time>2020-12-17T14:53:25.000Z</time>
      </trkpt>
      <trkpt lat="47.05641" lon="-1.6336">
        <ele>54</ele>
        <time>2020-12-17T14:53:27.000Z</time>
      </trkpt>
      <trkpt lat="47.05655" lon="-1.63354">
        <ele>53</ele>
        <time>2020-12-17T14:53:29.000Z</time>
      </trkpt>
      <trkpt lat="47.05668" lon="-1.63348">
        <ele>53</ele>
        <time>2020-12-17T14:53:31.000Z</time>
      </trkpt>
      <trkpt lat="47.05682" lon="-1.63342">
        <ele>53</ele>
        <time>2020-12-17T14:53:33.000Z</time>
      </trkpt>
      <trkpt lat="47.05695" lon="-1.63335">
        <ele>53</ele>
        <time>2020-12-17T14:53:35.000Z</time>
      </trkpt>
      <trkpt lat="47.05709" lon="-1.63329">
        <ele>53</ele>
        <time>2020-12-17T14:53:37.000Z</time>
      </trkpt>
      <trkpt lat="47.05722" lon="-1.63323">
        <ele>53</ele>
        <time>2020-12-17T14:53:39.000Z</time>
      </trkpt>
      <trkpt lat="47.05735" lon="-1.63317">
        <ele>53</ele>
        <time>2020-12-17T14:53:41.000Z</time>
      </trkpt>
      <trkpt lat="47.05748" lon="-1.6331">
        <ele>54</ele>
        <time>2020-12-17T14:53:43.000Z</time>
      </trkpt>
      <trkpt lat="47.05761" lon="-1.63304">
        <ele>54</ele>
        <time>2020-12-17T14:53:45.000Z</time>
      </trkpt>
      <trkpt lat="47.05774" lon="-1.63298">
        <ele>54</ele>
        <time>2020-12-17T14:53:47.000Z</time>
      </trkpt>
      <trkpt lat="47.05787" lon="-1.63292">
        <ele>54</ele>
        <time>2020-12-17T14:53:49.000Z</time>
      </trkpt>
      <trkpt lat="47.05801" lon="-1.63285">
        <ele>54</ele>
        <time>2020-12-17T14:53:51.000Z</time>
      </trkpt>
      <trkpt lat="47.05814" lon="-1.63279">
        <ele>54</ele>
        <time>2020-12-17T14:53:53.000Z</time>
      </trkpt>
      <trkpt lat="47.05828" lon="-1.63273">
        <ele>54</ele>
        <time>2020-12-17T14:53:55.000Z</time>
      </trkpt>
      <trkpt lat="47.05841" lon="-1.63267">
        <ele>54</ele>
        <time>2020-12-17T14:53:57.000Z</time>
      </trkpt>
      <trkpt lat="47.05855" lon="-1.63262">
        <ele>54</ele>
        <time>2020-12-17T14:53:59.000Z</time>
      </trkpt>
      <trkpt lat="47.05868" lon="-1.63255">
        <ele>54</ele>
        <time>2020-12-17T14:54:01.000Z</time>
      </trkpt>
      <trkpt lat="47.05882" lon="-1.63249">
        <ele>54</ele>
        <time>2020-12-17T14:54:03.000Z</time>
      </trkpt>
      <trkpt lat="47.05895" lon="-1.63242">
        <ele>54</ele>
        <time>2020-12-17T14:54:05.000Z</time>
      </trkpt>
      <trkpt lat="47.05908" lon="-1.63236">
        <ele>54</ele>
        <time>2020-12-17T14:54:07.000Z</time>
      </trkpt>
      <trkpt lat="47.05922" lon="-1.63229">
        <ele>54</ele>
        <time>2020-12-17T14:54:09.000Z</time>
      </trkpt>
      <trkpt lat="47.05935" lon="-1.63222">
        <ele>54</ele>
        <time>2020-12-17T14:54:11.000Z</time>
      </trkpt>
      <trkpt lat="47.05949" lon="-1.63216">
        <ele>55</ele>
        <time>2020-12-17T14:54:13.000Z</time>
      </trkpt>
      <trkpt lat="47.05963" lon="-1.6321">
        <ele>54</ele>
        <time>2020-12-17T14:54:15.000Z</time>
      </trkpt>
      <trkpt lat="47.05976" lon="-1.63203">
        <ele>54</ele>
        <time>2020-12-17T14:54:17.000Z</time>
      </trkpt>
      <trkpt lat="47.0599" lon="-1.63196">
        <ele>54</ele>
        <time>2020-12-17T14:54:19.000Z</time>
      </trkpt>
      <trkpt lat="47.06004" lon="-1.6319">
        <ele>54</ele>
        <time>2020-12-17T14:54:21.000Z</time>
      </trkpt>
      <trkpt lat="47.06018" lon="-1.63184">
        <ele>54</ele>
        <time>2020-12-17T14:54:23.000Z</time>
      </trkpt>
      <trkpt lat="47.06032" lon="-1.63178">
        <ele>54</ele>
        <time>2020-12-17T14:54:25.000Z</time>
      </trkpt>
      <trkpt lat="47.06045" lon="-1.63171">
        <ele>54</ele>
        <time>2020-12-17T14:54:27.000Z</time>
      </trkpt>
      <trkpt lat="47.06058" lon="-1.63164">
        <ele>54</ele>
        <time>2020-12-17T14:54:29.000Z</time>
      </trkpt>
      <trkpt lat="47.06072" lon="-1.63157">
        <ele>54</ele>
        <time>2020-12-17T14:54:31.000Z</time>
      </trkpt>
      <trkpt lat="47.06085" lon="-1.63151">
        <ele>54</ele>
        <time>2020-12-17T14:54:33.000Z</time>
      </trkpt>
      <trkpt lat="47.06098" lon="-1.63145">
        <ele>54</ele>
        <time>2020-12-17T14:54:35.000Z</time>
      </trkpt>
      <trkpt lat="47.06112" lon="-1.63139">
        <ele>54</ele>
        <time>2020-12-17T14:54:37.000Z</time>
      </trkpt>
      <trkpt lat="47.06126" lon="-1.63133">
        <ele>54</ele>
        <time>2020-12-17T14:54:39.000Z</time>
      </trkpt>
      <trkpt lat="47.06139" lon="-1.63127">
        <ele>54</ele>
        <time>2020-12-17T14:54:41.000Z</time>
      </trkpt>
      <trkpt lat="47.06153" lon="-1.63121">
        <ele>54</ele>
        <time>2020-12-17T14:54:43.000Z</time>
      </trkpt>
      <trkpt lat="47.06166" lon="-1.63114">
        <ele>54</ele>
        <time>2020-12-17T14:54:45.000Z</time>
      </trkpt>
      <trkpt lat="47.06179" lon="-1.63108">
        <ele>54</ele>
        <time>2020-12-17T14:54:47.000Z</time>
      </trkpt>
      <trkpt lat="47.06193" lon="-1.63102">
        <ele>54</ele>
        <time>2020-12-17T14:54:49.000Z</time>
      </trkpt>
      <trkpt lat="47.06205" lon="-1.63096">
        <ele>55</ele>
        <time>2020-12-17T14:54:51.000Z</time>
      </trkpt>
      <trkpt lat="47.06219" lon="-1.63089">
        <ele>55</ele>
        <time>2020-12-17T14:54:53.000Z</time>
      </trkpt>
      <trkpt lat="47.06232" lon="-1.63083">
        <ele>55</ele>
        <time>2020-12-17T14:54:55.000Z</time>
      </trkpt>
      <trkpt lat="47.06245" lon="-1.63077">
        <ele>54</ele>
        <time>2020-12-17T14:54:57.000Z</time>
      </trkpt>
      <trkpt lat="47.06258" lon="-1.63072">
        <ele>55</ele>
        <time>2020-12-17T14:54:59.000Z</time>
      </trkpt>
      <trkpt lat="47.06271" lon="-1.63066">
        <ele>55</ele>
        <time>2020-12-17T14:55:01.000Z</time>
      </trkpt>
      <trkpt lat="47.06284" lon="-1.63059">
        <ele>55</ele>
        <time>2020-12-17T14:55:03.000Z</time>
      </trkpt>
      <trkpt lat="47.06297" lon="-1.63053">
        <ele>54</ele>
        <time>2020-12-17T14:55:05.000Z</time>
      </trkpt>
      <trkpt lat="47.0631" lon="-1.63047">
        <ele>54</ele>
        <time>2020-12-17T14:55:07.000Z</time>
      </trkpt>
      <trkpt lat="47.06323" lon="-1.6304">
        <ele>53</ele>
        <time>2020-12-17T14:55:09.000Z</time>
      </trkpt>
      <trkpt lat="47.06336" lon="-1.63034">
        <ele>53</ele>
        <time>2020-12-17T14:55:11.000Z</time>
      </trkpt>
      <trkpt lat="47.06349" lon="-1.63029">
        <ele>53</ele>
        <time>2020-12-17T14:55:13.000Z</time>
      </trkpt>
      <trkpt lat="47.06362" lon="-1.63023">
        <ele>53</ele>
        <time>2020-12-17T14:55:15.000Z</time>
      </trkpt>
      <trkpt lat="47.06375" lon="-1.63017">
        <ele>53</ele>
        <time>2020-12-17T14:55:17.000Z</time>
      </trkpt>
      <trkpt lat="47.06387" lon="-1.63011">
        <ele>53</ele>
        <time>2020-12-17T14:55:19.000Z</time>
      </trkpt>
      <trkpt lat="47.064" lon="-1.63005">
        <ele>53</ele>
        <time>2020-12-17T14:55:21.000Z</time>
      </trkpt>
      <trkpt lat="47.06413" lon="-1.62999">
        <ele>53</ele>
        <time>2020-12-17T14:55:23.000Z</time>
      </trkpt>
      <trkpt lat="47.06425" lon="-1.62994">
        <ele>53</ele>
        <time>2020-12-17T14:55:25.000Z</time>
      </trkpt>
      <trkpt lat="47.06438" lon="-1.62988">
        <ele>53</ele>
        <time>2020-12-17T14:55:27.000Z</time>
      </trkpt>
      <trkpt lat="47.06451" lon="-1.62982">
        <ele>53</ele>
        <time>2020-12-17T14:55:29.000Z</time>
      </trkpt>
      <trkpt lat="47.06463" lon="-1.62976">
        <ele>53</ele>
        <time>2020-12-17T14:55:31.000Z</time>
      </trkpt>
      <trkpt lat="47.06475" lon="-1.62969">
        <ele>53</ele>
        <time>2020-12-17T14:55:33.000Z</time>
      </trkpt>
      <trkpt lat="47.06487" lon="-1.62961">
        <ele>53</ele>
        <time>2020-12-17T14:55:35.000Z</time>
      </trkpt>
      <trkpt lat="47.06498" lon="-1.62953">
        <ele>54</ele>
        <time>2020-12-17T14:55:37.000Z</time>
      </trkpt>
      <trkpt lat="47.0651" lon="-1.62942">
        <ele>53</ele>
        <time>2020-12-17T14:55:39.000Z</time>
      </trkpt>
      <trkpt lat="47.06521" lon="-1.62931">
        <ele>53</ele>
        <time>2020-12-17T14:55:41.000Z</time>
      </trkpt>
      <trkpt lat="47.06532" lon="-1.62918">
        <ele>53</ele>
        <time>2020-12-17T14:55:43.000Z</time>
      </trkpt>
      <trkpt lat="47.06541" lon="-1.62904">
        <ele>53</ele>
        <time>2020-12-17T14:55:45.000Z</time>
      </trkpt>
      <trkpt lat="47.06551" lon="-1.6289">
        <ele>53</ele>
        <time>2020-12-17T14:55:47.000Z</time>
      </trkpt>
      <trkpt lat="47.0656" lon="-1.62875">
        <ele>53</ele>
        <time>2020-12-17T14:55:49.000Z</time>
      </trkpt>
      <trkpt lat="47.06569" lon="-1.62861">
        <ele>53</ele>
        <time>2020-12-17T14:55:51.000Z</time>
      </trkpt>
      <trkpt lat="47.06579" lon="-1.62846">
        <ele>54</ele>
        <time>2020-12-17T14:55:53.000Z</time>
      </trkpt>
      <trkpt lat="47.06588" lon="-1.62832">
        <ele>53</ele>
        <time>2020-12-17T14:55:55.000Z</time>
      </trkpt>
      <trkpt lat="47.06597" lon="-1.62817">
        <ele>54</ele>
        <time>2020-12-17T14:55:57.000Z</time>
      </trkpt>
      <trkpt lat="47.06606" lon="-1.62803">
        <ele>54</ele>
        <time>2020-12-17T14:55:59.000Z</time>
      </trkpt>
      <trkpt lat="47.06615" lon="-1.62789">
        <ele>54</ele>
        <time>2020-12-17T14:56:01.000Z</time>
      </trkpt>
      <trkpt lat="47.06625" lon="-1.62775">
        <ele>54</ele>
        <time>2020-12-17T14:56:03.000Z</time>
      </trkpt>
      <trkpt lat="47.06634" lon="-1.62761">
        <ele>54</ele>
        <time>2020-12-17T14:56:05.000Z</time>
      </trkpt>
      <trkpt lat="47.06644" lon="-1.62746">
        <ele>55</ele>
        <time>2020-12-17T14:56:07.000Z</time>
      </trkpt>
      <trkpt lat="47.06653" lon="-1.62732">
        <ele>54</ele>
        <time>2020-12-17T14:56:09.000Z</time>
      </trkpt>
      <trkpt lat="47.06662" lon="-1.62717">
        <ele>55</ele>
        <time>2020-12-17T14:56:11.000Z</time>
      </trkpt>
      <trkpt lat="47.06672" lon="-1.62703">
        <ele>54</ele>
        <time>2020-12-17T14:56:13.000Z</time>
      </trkpt>
      <trkpt lat="47.06681" lon="-1.62689">
        <ele>54</ele>
        <time>2020-12-17T14:56:15.000Z</time>
      </trkpt>
      <trkpt lat="47.06691" lon="-1.62675">
        <ele>54</ele>
        <time>2020-12-17T14:56:17.000Z</time>
      </trkpt>
      <trkpt lat="47.067" lon="-1.62661">
        <ele>54</ele>
        <time>2020-12-17T14:56:19.000Z</time>
      </trkpt>
      <trkpt lat="47.0671" lon="-1.62647">
        <ele>54</ele>
        <time>2020-12-17T14:56:21.000Z</time>
      </trkpt>
      <trkpt lat="47.06721" lon="-1.62635">
        <ele>54</ele>
        <time>2020-12-17T14:56:23.000Z</time>
      </trkpt>
      <trkpt lat="47.06732" lon="-1.62623">
        <ele>54</ele>
        <time>2020-12-17T14:56:25.000Z</time>
      </trkpt>
      <trkpt lat="47.06743" lon="-1.62611">
        <ele>54</ele>
        <time>2020-12-17T14:56:27.000Z</time>
      </trkpt>
      <trkpt lat="47.06755" lon="-1.62599">
        <ele>54</ele>
        <time>2020-12-17T14:56:29.000Z</time>
      </trkpt>
      <trkpt lat="47.06766" lon="-1.62589">
        <ele>53</ele>
        <time>2020-12-17T14:56:31.000Z</time>
      </trkpt>
      <trkpt lat="47.06777" lon="-1.62578">
        <ele>53</ele>
        <time>2020-12-17T14:56:33.000Z</time>
      </trkpt>
      <trkpt lat="47.06789" lon="-1.62567">
        <ele>53</ele>
        <time>2020-12-17T14:56:35.000Z</time>
      </trkpt>
      <trkpt lat="47.06801" lon="-1.62557">
        <ele>53</ele>
        <time>2020-12-17T14:56:37.000Z</time>
      </trkpt>
      <trkpt lat="47.06813" lon="-1.62546">
        <ele>54</ele>
        <time>2020-12-17T14:56:39.000Z</time>
      </trkpt>
      <trkpt lat="47.06824" lon="-1.62535">
        <ele>54</ele>
        <time>2020-12-17T14:56:41.000Z</time>
      </trkpt>
      <trkpt lat="47.06836" lon="-1.62526">
        <ele>53</ele>
        <time>2020-12-17T14:56:43.000Z</time>
      </trkpt>
      <trkpt lat="47.06848" lon="-1.62516">
        <ele>53</ele>
        <time>2020-12-17T14:56:45.000Z</time>
      </trkpt>
      <trkpt lat="47.0686" lon="-1.62507">
        <ele>53</ele>
        <time>2020-12-17T14:56:47.000Z</time>
      </trkpt>
      <trkpt lat="47.06872" lon="-1.62498">
        <ele>53</ele>
        <time>2020-12-17T14:56:49.000Z</time>
      </trkpt>
      <trkpt lat="47.06886" lon="-1.6249">
        <ele>53</ele>
        <time>2020-12-17T14:56:51.000Z</time>
      </trkpt>
      <trkpt lat="47.06899" lon="-1.62482">
        <ele>53</ele>
        <time>2020-12-17T14:56:53.000Z</time>
      </trkpt>
      <trkpt lat="47.06912" lon="-1.62476">
        <ele>54</ele>
        <time>2020-12-17T14:56:55.000Z</time>
      </trkpt>
      <trkpt lat="47.06926" lon="-1.6247">
        <ele>55</ele>
        <time>2020-12-17T14:56:57.000Z</time>
      </trkpt>
      <trkpt lat="47.06939" lon="-1.62464">
        <ele>55</ele>
        <time>2020-12-17T14:56:59.000Z</time>
      </trkpt>
      <trkpt lat="47.06953" lon="-1.62458">
        <ele>56</ele>
        <time>2020-12-17T14:57:01.000Z</time>
      </trkpt>
      <trkpt lat="47.06967" lon="-1.62452">
        <ele>57</ele>
        <time>2020-12-17T14:57:03.000Z</time>
      </trkpt>
      <trkpt lat="47.06981" lon="-1.62446">
        <ele>57</ele>
        <time>2020-12-17T14:57:05.000Z</time>
      </trkpt>
      <trkpt lat="47.06994" lon="-1.6244">
        <ele>56</ele>
        <time>2020-12-17T14:57:07.000Z</time>
      </trkpt>
      <trkpt lat="47.07007" lon="-1.62435">
        <ele>56</ele>
        <time>2020-12-17T14:57:09.000Z</time>
      </trkpt>
      <trkpt lat="47.07021" lon="-1.62428">
        <ele>56</ele>
        <time>2020-12-17T14:57:11.000Z</time>
      </trkpt>
      <trkpt lat="47.07034" lon="-1.62422">
        <ele>56</ele>
        <time>2020-12-17T14:57:13.000Z</time>
      </trkpt>
      <trkpt lat="47.07047" lon="-1.62415">
        <ele>56</ele>
        <time>2020-12-17T14:57:15.000Z</time>
      </trkpt>
      <trkpt lat="47.07061" lon="-1.62407">
        <ele>57</ele>
        <time>2020-12-17T14:57:17.000Z</time>
      </trkpt>
      <trkpt lat="47.07073" lon="-1.62398">
        <ele>57</ele>
        <time>2020-12-17T14:57:19.000Z</time>
      </trkpt>
      <trkpt lat="47.07086" lon="-1.62389">
        <ele>57</ele>
        <time>2020-12-17T14:57:21.000Z</time>
      </trkpt>
      <trkpt lat="47.07098" lon="-1.62381">
        <ele>57</ele>
        <time>2020-12-17T14:57:23.000Z</time>
      </trkpt>
      <trkpt lat="47.07111" lon="-1.62372">
        <ele>57</ele>
        <time>2020-12-17T14:57:25.000Z</time>
      </trkpt>
      <trkpt lat="47.07124" lon="-1.62364">
        <ele>58</ele>
        <time>2020-12-17T14:57:27.000Z</time>
      </trkpt>
      <trkpt lat="47.07136" lon="-1.62355">
        <ele>57</ele>
        <time>2020-12-17T14:57:29.000Z</time>
      </trkpt>
      <trkpt lat="47.07149" lon="-1.62346">
        <ele>57</ele>
        <time>2020-12-17T14:57:31.000Z</time>
      </trkpt>
      <trkpt lat="47.07164" lon="-1.62339">
        <ele>56</ele>
        <time>2020-12-17T14:57:33.000Z</time>
      </trkpt>
      <trkpt lat="47.07177" lon="-1.62331">
        <ele>56</ele>
        <time>2020-12-17T14:57:35.000Z</time>
      </trkpt>
      <trkpt lat="47.07191" lon="-1.62323">
        <ele>55</ele>
        <time>2020-12-17T14:57:37.000Z</time>
      </trkpt>
      <trkpt lat="47.07204" lon="-1.62314">
        <ele>55</ele>
        <time>2020-12-17T14:57:39.000Z</time>
      </trkpt>
      <trkpt lat="47.07217" lon="-1.62306">
        <ele>54</ele>
        <time>2020-12-17T14:57:41.000Z</time>
      </trkpt>
      <trkpt lat="47.0723" lon="-1.62297">
        <ele>54</ele>
        <time>2020-12-17T14:57:43.000Z</time>
      </trkpt>
      <trkpt lat="47.07243" lon="-1.62288">
        <ele>54</ele>
        <time>2020-12-17T14:57:45.000Z</time>
      </trkpt>
      <trkpt lat="47.07256" lon="-1.62279">
        <ele>54</ele>
        <time>2020-12-17T14:57:47.000Z</time>
      </trkpt>
      <trkpt lat="47.07268" lon="-1.62268">
        <ele>54</ele>
        <time>2020-12-17T14:57:49.000Z</time>
      </trkpt>
      <trkpt lat="47.0728" lon="-1.62258">
        <ele>54</ele>
        <time>2020-12-17T14:57:51.000Z</time>
      </trkpt>
      <trkpt lat="47.0729" lon="-1.62245">
        <ele>54</ele>
        <time>2020-12-17T14:57:53.000Z</time>
      </trkpt>
      <trkpt lat="47.07301" lon="-1.62233">
        <ele>53</ele>
        <time>2020-12-17T14:57:55.000Z</time>
      </trkpt>
      <trkpt lat="47.0731" lon="-1.6222">
        <ele>53</ele>
        <time>2020-12-17T14:57:57.000Z</time>
      </trkpt>
      <trkpt lat="47.0732" lon="-1.62206">
        <ele>54</ele>
        <time>2020-12-17T14:57:59.000Z</time>
      </trkpt>
      <trkpt lat="47.0733" lon="-1.62192">
        <ele>53</ele>
        <time>2020-12-17T14:58:01.000Z</time>
      </trkpt>
      <trkpt lat="47.07339" lon="-1.62178">
        <ele>53</ele>
        <time>2020-12-17T14:58:03.000Z</time>
      </trkpt>
      <trkpt lat="47.07348" lon="-1.62163">
        <ele>54</ele>
        <time>2020-12-17T14:58:05.000Z</time>
      </trkpt>
      <trkpt lat="47.07357" lon="-1.62149">
        <ele>53</ele>
        <time>2020-12-17T14:58:07.000Z</time>
      </trkpt>
      <trkpt lat="47.07366" lon="-1.62134">
        <ele>54</ele>
        <time>2020-12-17T14:58:09.000Z</time>
      </trkpt>
      <trkpt lat="47.07375" lon="-1.62119">
        <ele>54</ele>
        <time>2020-12-17T14:58:11.000Z</time>
      </trkpt>
      <trkpt lat="47.07384" lon="-1.62104">
        <ele>54</ele>
        <time>2020-12-17T14:58:13.000Z</time>
      </trkpt>
      <trkpt lat="47.07392" lon="-1.6209">
        <ele>54</ele>
        <time>2020-12-17T14:58:15.000Z</time>
      </trkpt>
      <trkpt lat="47.07401" lon="-1.62076">
        <ele>54</ele>
        <time>2020-12-17T14:58:17.000Z</time>
      </trkpt>
      <trkpt lat="47.0741" lon="-1.6206">
        <ele>54</ele>
        <time>2020-12-17T14:58:19.000Z</time>
      </trkpt>
      <trkpt lat="47.07419" lon="-1.62046">
        <ele>54</ele>
        <time>2020-12-17T14:58:21.000Z</time>
      </trkpt>
      <trkpt lat="47.07428" lon="-1.62031">
        <ele>54</ele>
        <time>2020-12-17T14:58:23.000Z</time>
      </trkpt>
      <trkpt lat="47.07437" lon="-1.62017">
        <ele>55</ele>
        <time>2020-12-17T14:58:25.000Z</time>
      </trkpt>
      <trkpt lat="47.07447" lon="-1.62004">
        <ele>54</ele>
        <time>2020-12-17T14:58:27.000Z</time>
      </trkpt>
      <trkpt lat="47.07457" lon="-1.61991">
        <ele>55</ele>
        <time>2020-12-17T14:58:29.000Z</time>
      </trkpt>
      <trkpt lat="47.07467" lon="-1.61978">
        <ele>55</ele>
        <time>2020-12-17T14:58:31.000Z</time>
      </trkpt>
      <trkpt lat="47.07477" lon="-1.61966">
        <ele>54</ele>
        <time>2020-12-17T14:58:33.000Z</time>
      </trkpt>
      <trkpt lat="47.07487" lon="-1.61954">
        <ele>54</ele>
        <time>2020-12-17T14:58:35.000Z</time>
      </trkpt>
      <trkpt lat="47.07498" lon="-1.61942">
        <ele>54</ele>
        <time>2020-12-17T14:58:37.000Z</time>
      </trkpt>
      <trkpt lat="47.07508" lon="-1.6193">
        <ele>54</ele>
        <time>2020-12-17T14:58:39.000Z</time>
      </trkpt>
      <trkpt lat="47.07519" lon="-1.61918">
        <ele>54</ele>
        <time>2020-12-17T14:58:41.000Z</time>
      </trkpt>
      <trkpt lat="47.07529" lon="-1.61907">
        <ele>54</ele>
        <time>2020-12-17T14:58:43.000Z</time>
      </trkpt>
      <trkpt lat="47.07539" lon="-1.61894">
        <ele>55</ele>
        <time>2020-12-17T14:58:45.000Z</time>
      </trkpt>
      <trkpt lat="47.0755" lon="-1.61882">
        <ele>54</ele>
        <time>2020-12-17T14:58:47.000Z</time>
      </trkpt>
      <trkpt lat="47.0756" lon="-1.61869">
        <ele>54</ele>
        <time>2020-12-17T14:58:49.000Z</time>
      </trkpt>
      <trkpt lat="47.0757" lon="-1.61856">
        <ele>55</ele>
        <time>2020-12-17T14:58:51.000Z</time>
      </trkpt>
      <trkpt lat="47.07581" lon="-1.61843">
        <ele>55</ele>
        <time>2020-12-17T14:58:53.000Z</time>
      </trkpt>
      <trkpt lat="47.07592" lon="-1.6183">
        <ele>55</ele>
        <time>2020-12-17T14:58:55.000Z</time>
      </trkpt>
      <trkpt lat="47.07603" lon="-1.61818">
        <ele>55</ele>
        <time>2020-12-17T14:58:57.000Z</time>
      </trkpt>
      <trkpt lat="47.07615" lon="-1.61805">
        <ele>55</ele>
        <time>2020-12-17T14:58:59.000Z</time>
      </trkpt>
      <trkpt lat="47.07626" lon="-1.61792">
        <ele>54</ele>
        <time>2020-12-17T14:59:01.000Z</time>
      </trkpt>
      <trkpt lat="47.07637" lon="-1.61779">
        <ele>54</ele>
        <time>2020-12-17T14:59:03.000Z</time>
      </trkpt>
      <trkpt lat="47.07649" lon="-1.61766">
        <ele>54</ele>
        <time>2020-12-17T14:59:05.000Z</time>
      </trkpt>
      <trkpt lat="47.07661" lon="-1.61752">
        <ele>54</ele>
        <time>2020-12-17T14:59:07.000Z</time>
      </trkpt>
      <trkpt lat="47.07674" lon="-1.61738">
        <ele>53</ele>
        <time>2020-12-17T14:59:09.000Z</time>
      </trkpt>
      <trkpt lat="47.07687" lon="-1.61723">
        <ele>53</ele>
        <time>2020-12-17T14:59:11.000Z</time>
      </trkpt>
      <trkpt lat="47.077" lon="-1.61708">
        <ele>52</ele>
        <time>2020-12-17T14:59:13.000Z</time>
      </trkpt>
      <trkpt lat="47.07713" lon="-1.61694">
        <ele>52</ele>
        <time>2020-12-17T14:59:15.000Z</time>
      </trkpt>
      <trkpt lat="47.07725" lon="-1.6168">
        <ele>52</ele>
        <time>2020-12-17T14:59:17.000Z</time>
      </trkpt>
      <trkpt lat="47.07738" lon="-1.61665">
        <ele>51</ele>
        <time>2020-12-17T14:59:19.000Z</time>
      </trkpt>
      <trkpt lat="47.0775" lon="-1.61651">
        <ele>51</ele>
        <time>2020-12-17T14:59:21.000Z</time>
      </trkpt>
      <trkpt lat="47.07762" lon="-1.61636">
        <ele>51</ele>
        <time>2020-12-17T14:59:23.000Z</time>
      </trkpt>
      <trkpt lat="47.07774" lon="-1.61623">
        <ele>51</ele>
        <time>2020-12-17T14:59:25.000Z</time>
      </trkpt>
      <trkpt lat="47.07787" lon="-1.61609">
        <ele>51</ele>
        <time>2020-12-17T14:59:27.000Z</time>
      </trkpt>
      <trkpt lat="47.078" lon="-1.61597">
        <ele>51</ele>
        <time>2020-12-17T14:59:29.000Z</time>
      </trkpt>
      <trkpt lat="47.07813" lon="-1.61586">
        <ele>52</ele>
        <time>2020-12-17T14:59:31.000Z</time>
      </trkpt>
      <trkpt lat="47.07826" lon="-1.61576">
        <ele>53</ele>
        <time>2020-12-17T14:59:33.000Z</time>
      </trkpt>
      <trkpt lat="47.07839" lon="-1.61568">
        <ele>53</ele>
        <time>2020-12-17T14:59:35.000Z</time>
      </trkpt>
      <trkpt lat="47.07853" lon="-1.6156">
        <ele>53</ele>
        <time>2020-12-17T14:59:37.000Z</time>
      </trkpt>
      <trkpt lat="47.07867" lon="-1.61554">
        <ele>52</ele>
        <time>2020-12-17T14:59:39.000Z</time>
      </trkpt>
      <trkpt lat="47.07879" lon="-1.61548">
        <ele>52</ele>
        <time>2020-12-17T14:59:41.000Z</time>
      </trkpt>
      <trkpt lat="47.07893" lon="-1.61542">
        <ele>53</ele>
        <time>2020-12-17T14:59:43.000Z</time>
      </trkpt>
      <trkpt lat="47.07906" lon="-1.61536">
        <ele>53</ele>
        <time>2020-12-17T14:59:45.000Z</time>
      </trkpt>
      <trkpt lat="47.07919" lon="-1.61531">
        <ele>53</ele>
        <time>2020-12-17T14:59:47.000Z</time>
      </trkpt>
      <trkpt lat="47.07932" lon="-1.61525">
        <ele>54</ele>
        <time>2020-12-17T14:59:49.000Z</time>
      </trkpt>
      <trkpt lat="47.07945" lon="-1.6152">
        <ele>55</ele>
        <time>2020-12-17T14:59:51.000Z</time>
      </trkpt>
      <trkpt lat="47.07958" lon="-1.61514">
        <ele>55</ele>
        <time>2020-12-17T14:59:53.000Z</time>
      </trkpt>
      <trkpt lat="47.07971" lon="-1.61508">
        <ele>54</ele>
        <time>2020-12-17T14:59:55.000Z</time>
      </trkpt>
      <trkpt lat="47.07984" lon="-1.61504">
        <ele>54</ele>
        <time>2020-12-17T14:59:57.000Z</time>
      </trkpt>
      <trkpt lat="47.07999" lon="-1.615">
        <ele>54</ele>
        <time>2020-12-17T14:59:59.000Z</time>
      </trkpt>
      <trkpt lat="47.08012" lon="-1.61494">
        <ele>54</ele>
        <time>2020-12-17T15:00:01.000Z</time>
      </trkpt>
      <trkpt lat="47.08025" lon="-1.61488">
        <ele>54</ele>
        <time>2020-12-17T15:00:03.000Z</time>
      </trkpt>
      <trkpt lat="47.08038" lon="-1.61483">
        <ele>54</ele>
        <time>2020-12-17T15:00:05.000Z</time>
      </trkpt>
      <trkpt lat="47.08051" lon="-1.61478">
        <ele>55</ele>
        <time>2020-12-17T15:00:07.000Z</time>
      </trkpt>
      <trkpt lat="47.08064" lon="-1.61472">
        <ele>54</ele>
        <time>2020-12-17T15:00:09.000Z</time>
      </trkpt>
      <trkpt lat="47.08077" lon="-1.61466">
        <ele>55</ele>
        <time>2020-12-17T15:00:11.000Z</time>
      </trkpt>
      <trkpt lat="47.0809" lon="-1.61461">
        <ele>55</ele>
        <time>2020-12-17T15:00:13.000Z</time>
      </trkpt>
      <trkpt lat="47.08102" lon="-1.61456">
        <ele>55</ele>
        <time>2020-12-17T15:00:15.000Z</time>
      </trkpt>
      <trkpt lat="47.08115" lon="-1.6145">
        <ele>55</ele>
        <time>2020-12-17T15:00:17.000Z</time>
      </trkpt>
      <trkpt lat="47.08128" lon="-1.61444">
        <ele>54</ele>
        <time>2020-12-17T15:00:19.000Z</time>
      </trkpt>
      <trkpt lat="47.08141" lon="-1.61438">
        <ele>54</ele>
        <time>2020-12-17T15:00:21.000Z</time>
      </trkpt>
      <trkpt lat="47.08155" lon="-1.61433">
        <ele>54</ele>
        <time>2020-12-17T15:00:23.000Z</time>
      </trkpt>
      <trkpt lat="47.08169" lon="-1.61428">
        <ele>54</ele>
        <time>2020-12-17T15:00:25.000Z</time>
      </trkpt>
      <trkpt lat="47.08182" lon="-1.61422">
        <ele>54</ele>
        <time>2020-12-17T15:00:27.000Z</time>
      </trkpt>
      <trkpt lat="47.08195" lon="-1.61417">
        <ele>54</ele>
        <time>2020-12-17T15:00:29.000Z</time>
      </trkpt>
      <trkpt lat="47.08208" lon="-1.61411">
        <ele>54</ele>
        <time>2020-12-17T15:00:31.000Z</time>
      </trkpt>
      <trkpt lat="47.08221" lon="-1.61406">
        <ele>53</ele>
        <time>2020-12-17T15:00:33.000Z</time>
      </trkpt>
      <trkpt lat="47.08234" lon="-1.61399">
        <ele>53</ele>
        <time>2020-12-17T15:00:35.000Z</time>
      </trkpt>
      <trkpt lat="47.08248" lon="-1.61393">
        <ele>53</ele>
        <time>2020-12-17T15:00:37.000Z</time>
      </trkpt>
      <trkpt lat="47.0826" lon="-1.61387">
        <ele>53</ele>
        <time>2020-12-17T15:00:39.000Z</time>
      </trkpt>
      <trkpt lat="47.08273" lon="-1.61381">
        <ele>53</ele>
        <time>2020-12-17T15:00:41.000Z</time>
      </trkpt>
      <trkpt lat="47.08287" lon="-1.61376">
        <ele>53</ele>
        <time>2020-12-17T15:00:43.000Z</time>
      </trkpt>
      <trkpt lat="47.083" lon="-1.6137">
        <ele>53</ele>
        <time>2020-12-17T15:00:45.000Z</time>
      </trkpt>
      <trkpt lat="47.08314" lon="-1.61364">
        <ele>53</ele>
        <time>2020-12-17T15:00:47.000Z</time>
      </trkpt>
      <trkpt lat="47.08327" lon="-1.61359">
        <ele>53</ele>
        <time>2020-12-17T15:00:49.000Z</time>
      </trkpt>
      <trkpt lat="47.0834" lon="-1.61354">
        <ele>52</ele>
        <time>2020-12-17T15:00:51.000Z</time>
      </trkpt>
      <trkpt lat="47.08354" lon="-1.61348">
        <ele>52</ele>
        <time>2020-12-17T15:00:53.000Z</time>
      </trkpt>
      <trkpt lat="47.08367" lon="-1.61343">
        <ele>52</ele>
        <time>2020-12-17T15:00:55.000Z</time>
      </trkpt>
      <trkpt lat="47.0838" lon="-1.61337">
        <ele>52</ele>
        <time>2020-12-17T15:00:57.000Z</time>
      </trkpt>
      <trkpt lat="47.08393" lon="-1.61331">
        <ele>51</ele>
        <time>2020-12-17T15:00:59.000Z</time>
      </trkpt>
      <trkpt lat="47.08407" lon="-1.61326">
        <ele>52</ele>
        <time>2020-12-17T15:01:01.000Z</time>
      </trkpt>
      <trkpt lat="47.0842" lon="-1.6132">
        <ele>51</ele>
        <time>2020-12-17T15:01:03.000Z</time>
      </trkpt>
      <trkpt lat="47.08433" lon="-1.61314">
        <ele>52</ele>
        <time>2020-12-17T15:01:05.000Z</time>
      </trkpt>
      <trkpt lat="47.08446" lon="-1.61309">
        <ele>51</ele>
        <time>2020-12-17T15:01:07.000Z</time>
      </trkpt>
      <trkpt lat="47.08459" lon="-1.61304">
        <ele>51</ele>
        <time>2020-12-17T15:01:09.000Z</time>
      </trkpt>
      <trkpt lat="47.08473" lon="-1.61297">
        <ele>51</ele>
        <time>2020-12-17T15:01:11.000Z</time>
      </trkpt>
      <trkpt lat="47.08486" lon="-1.61292">
        <ele>52</ele>
        <time>2020-12-17T15:01:13.000Z</time>
      </trkpt>
      <trkpt lat="47.08498" lon="-1.61284">
        <ele>52</ele>
        <time>2020-12-17T15:01:15.000Z</time>
      </trkpt>
      <trkpt lat="47.08512" lon="-1.61279">
        <ele>52</ele>
        <time>2020-12-17T15:01:17.000Z</time>
      </trkpt>
      <trkpt lat="47.08525" lon="-1.61273">
        <ele>53</ele>
        <time>2020-12-17T15:01:19.000Z</time>
      </trkpt>
      <trkpt lat="47.08538" lon="-1.61268">
        <ele>52</ele>
        <time>2020-12-17T15:01:21.000Z</time>
      </trkpt>
      <trkpt lat="47.08552" lon="-1.61262">
        <ele>52</ele>
        <time>2020-12-17T15:01:23.000Z</time>
      </trkpt>
      <trkpt lat="47.08565" lon="-1.61256">
        <ele>52</ele>
        <time>2020-12-17T15:01:25.000Z</time>
      </trkpt>
      <trkpt lat="47.08578" lon="-1.61251">
        <ele>52</ele>
        <time>2020-12-17T15:01:27.000Z</time>
      </trkpt>
      <trkpt lat="47.0859" lon="-1.61245">
        <ele>52</ele>
        <time>2020-12-17T15:01:29.000Z</time>
      </trkpt>
      <trkpt lat="47.08603" lon="-1.6124">
        <ele>53</ele>
        <time>2020-12-17T15:01:31.000Z</time>
      </trkpt>
      <trkpt lat="47.08615" lon="-1.61234">
        <ele>53</ele>
        <time>2020-12-17T15:01:33.000Z</time>
      </trkpt>
      <trkpt lat="47.08628" lon="-1.61229">
        <ele>53</ele>
        <time>2020-12-17T15:01:35.000Z</time>
      </trkpt>
      <trkpt lat="47.0864" lon="-1.61223">
        <ele>53</ele>
        <time>2020-12-17T15:01:37.000Z</time>
      </trkpt>
      <trkpt lat="47.08653" lon="-1.61218">
        <ele>53</ele>
        <time>2020-12-17T15:01:39.000Z</time>
      </trkpt>
      <trkpt lat="47.08665" lon="-1.61212">
        <ele>53</ele>
        <time>2020-12-17T15:01:41.000Z</time>
      </trkpt>
      <trkpt lat="47.08679" lon="-1.61207">
        <ele>54</ele>
        <time>2020-12-17T15:01:43.000Z</time>
      </trkpt>
      <trkpt lat="47.08692" lon="-1.61202">
        <ele>54</ele>
        <time>2020-12-17T15:01:45.000Z</time>
      </trkpt>
      <trkpt lat="47.08706" lon="-1.61196">
        <ele>54</ele>
        <time>2020-12-17T15:01:47.000Z</time>
      </trkpt>
      <trkpt lat="47.08719" lon="-1.61191">
        <ele>53</ele>
        <time>2020-12-17T15:01:49.000Z</time>
      </trkpt>
      <trkpt lat="47.08732" lon="-1.61185">
        <ele>53</ele>
        <time>2020-12-17T15:01:51.000Z</time>
      </trkpt>
      <trkpt lat="47.08744" lon="-1.6118">
        <ele>53</ele>
        <time>2020-12-17T15:01:53.000Z</time>
      </trkpt>
      <trkpt lat="47.08756" lon="-1.61175">
        <ele>54</ele>
        <time>2020-12-17T15:01:55.000Z</time>
      </trkpt>
      <trkpt lat="47.08768" lon="-1.61169">
        <ele>54</ele>
        <time>2020-12-17T15:01:57.000Z</time>
      </trkpt>
      <trkpt lat="47.0878" lon="-1.61164">
        <ele>54</ele>
        <time>2020-12-17T15:01:59.000Z</time>
      </trkpt>
      <trkpt lat="47.08792" lon="-1.61159">
        <ele>54</ele>
        <time>2020-12-17T15:02:01.000Z</time>
      </trkpt>
      <trkpt lat="47.08804" lon="-1.61154">
        <ele>54</ele>
        <time>2020-12-17T15:02:03.000Z</time>
      </trkpt>
      <trkpt lat="47.08816" lon="-1.61149">
        <ele>54</ele>
        <time>2020-12-17T15:02:05.000Z</time>
      </trkpt>
      <trkpt lat="47.08828" lon="-1.61144">
        <ele>54</ele>
        <time>2020-12-17T15:02:07.000Z</time>
      </trkpt>
      <trkpt lat="47.08841" lon="-1.61139">
        <ele>54</ele>
        <time>2020-12-17T15:02:09.000Z</time>
      </trkpt>
      <trkpt lat="47.08853" lon="-1.61134">
        <ele>54</ele>
        <time>2020-12-17T15:02:11.000Z</time>
      </trkpt>
      <trkpt lat="47.08866" lon="-1.61128">
        <ele>54</ele>
        <time>2020-12-17T15:02:13.000Z</time>
      </trkpt>
      <trkpt lat="47.08878" lon="-1.61123">
        <ele>54</ele>
        <time>2020-12-17T15:02:15.000Z</time>
      </trkpt>
      <trkpt lat="47.0889" lon="-1.61117">
        <ele>54</ele>
        <time>2020-12-17T15:02:17.000Z</time>
      </trkpt>
      <trkpt lat="47.08903" lon="-1.61111">
        <ele>55</ele>
        <time>2020-12-17T15:02:19.000Z</time>
      </trkpt>
      <trkpt lat="47.08915" lon="-1.61106">
        <ele>55</ele>
        <time>2020-12-17T15:02:21.000Z</time>
      </trkpt>
      <trkpt lat="47.08928" lon="-1.61102">
        <ele>55</ele>
        <time>2020-12-17T15:02:23.000Z</time>
      </trkpt>
      <trkpt lat="47.0894" lon="-1.61097">
        <ele>56</ele>
        <time>2020-12-17T15:02:25.000Z</time>
      </trkpt>
      <trkpt lat="47.08952" lon="-1.61091">
        <ele>55</ele>
        <time>2020-12-17T15:02:27.000Z</time>
      </trkpt>
      <trkpt lat="47.08965" lon="-1.61086">
        <ele>56</ele>
        <time>2020-12-17T15:02:29.000Z</time>
      </trkpt>
      <trkpt lat="47.08979" lon="-1.61083">
        <ele>56</ele>
        <time>2020-12-17T15:02:31.000Z</time>
      </trkpt>
      <trkpt lat="47.08991" lon="-1.61082">
        <ele>57</ele>
        <time>2020-12-17T15:02:33.000Z</time>
      </trkpt>
      <trkpt lat="47.09003" lon="-1.61084">
        <ele>57</ele>
        <time>2020-12-17T15:02:35.000Z</time>
      </trkpt>
      <trkpt lat="47.09015" lon="-1.61087">
        <ele>57</ele>
        <time>2020-12-17T15:02:37.000Z</time>
      </trkpt>
      <trkpt lat="47.09027" lon="-1.61091">
        <ele>57</ele>
        <time>2020-12-17T15:02:39.000Z</time>
      </trkpt>
      <trkpt lat="47.0904" lon="-1.61095">
        <ele>57</ele>
        <time>2020-12-17T15:02:41.000Z</time>
      </trkpt>
      <trkpt lat="47.09052" lon="-1.61098">
        <ele>57</ele>
        <time>2020-12-17T15:02:43.000Z</time>
      </trkpt>
      <trkpt lat="47.09064" lon="-1.61101">
        <ele>58</ele>
        <time>2020-12-17T15:02:45.000Z</time>
      </trkpt>
      <trkpt lat="47.09076" lon="-1.61104">
        <ele>58</ele>
        <time>2020-12-17T15:02:47.000Z</time>
      </trkpt>
      <trkpt lat="47.09089" lon="-1.61107">
        <ele>58</ele>
        <time>2020-12-17T15:02:49.000Z</time>
      </trkpt>
      <trkpt lat="47.09101" lon="-1.61111">
        <ele>58</ele>
        <time>2020-12-17T15:02:51.000Z</time>
      </trkpt>
      <trkpt lat="47.09113" lon="-1.61115">
        <ele>59</ele>
        <time>2020-12-17T15:02:53.000Z</time>
      </trkpt>
      <trkpt lat="47.09124" lon="-1.61118">
        <ele>59</ele>
        <time>2020-12-17T15:02:55.000Z</time>
      </trkpt>
      <trkpt lat="47.09134" lon="-1.61121">
        <ele>59</ele>
        <time>2020-12-17T15:02:57.000Z</time>
      </trkpt>
      <trkpt lat="47.09144" lon="-1.61125">
        <ele>59</ele>
        <time>2020-12-17T15:02:59.000Z</time>
      </trkpt>
      <trkpt lat="47.09153" lon="-1.61129">
        <ele>59</ele>
        <time>2020-12-17T15:03:01.000Z</time>
      </trkpt>
      <trkpt lat="47.09163" lon="-1.61132">
        <ele>59</ele>
        <time>2020-12-17T15:03:03.000Z</time>
      </trkpt>
      <trkpt lat="47.09172" lon="-1.61134">
        <ele>60</ele>
        <time>2020-12-17T15:03:05.000Z</time>
      </trkpt>
      <trkpt lat="47.09182" lon="-1.61137">
        <ele>59</ele>
        <time>2020-12-17T15:03:08.000Z</time>
      </trkpt>
      <trkpt lat="47.09191" lon="-1.6114">
        <ele>59</ele>
        <time>2020-12-17T15:03:14.000Z</time>
      </trkpt>
      <trkpt lat="47.09201" lon="-1.61141">
        <ele>58</ele>
        <time>2020-12-17T15:03:41.000Z</time>
      </trkpt>
      <trkpt lat="47.09212" lon="-1.61148">
        <ele>58</ele>
        <time>2020-12-17T15:03:43.000Z</time>
      </trkpt>
      <trkpt lat="47.09224" lon="-1.61157">
        <ele>59</ele>
        <time>2020-12-17T15:03:45.000Z</time>
      </trkpt>
      <trkpt lat="47.09236" lon="-1.61167">
        <ele>59</ele>
        <time>2020-12-17T15:03:47.000Z</time>
      </trkpt>
      <trkpt lat="47.09249" lon="-1.61173">
        <ele>59</ele>
        <time>2020-12-17T15:03:49.000Z</time>
      </trkpt>
      <trkpt lat="47.09263" lon="-1.61177">
        <ele>60</ele>
        <time>2020-12-17T15:03:51.000Z</time>
      </trkpt>
      <trkpt lat="47.09277" lon="-1.61181">
        <ele>60</ele>
        <time>2020-12-17T15:03:53.000Z</time>
      </trkpt>
      <trkpt lat="47.09291" lon="-1.61186">
        <ele>59</ele>
        <time>2020-12-17T15:03:55.000Z</time>
      </trkpt>
      <trkpt lat="47.09305" lon="-1.6119">
        <ele>60</ele>
        <time>2020-12-17T15:03:57.000Z</time>
      </trkpt>
      <trkpt lat="47.09318" lon="-1.61195">
        <ele>60</ele>
        <time>2020-12-17T15:03:59.000Z</time>
      </trkpt>
      <trkpt lat="47.09331" lon="-1.61201">
        <ele>60</ele>
        <time>2020-12-17T15:04:01.000Z</time>
      </trkpt>
      <trkpt lat="47.09345" lon="-1.61205">
        <ele>61</ele>
        <time>2020-12-17T15:04:03.000Z</time>
      </trkpt>
      <trkpt lat="47.09359" lon="-1.61208">
        <ele>61</ele>
        <time>2020-12-17T15:04:05.000Z</time>
      </trkpt>
      <trkpt lat="47.09373" lon="-1.61212">
        <ele>60</ele>
        <time>2020-12-17T15:04:07.000Z</time>
      </trkpt>
      <trkpt lat="47.09387" lon="-1.61218">
        <ele>59</ele>
        <time>2020-12-17T15:04:09.000Z</time>
      </trkpt>
      <trkpt lat="47.09402" lon="-1.61226">
        <ele>58</ele>
        <time>2020-12-17T15:04:11.000Z</time>
      </trkpt>
      <trkpt lat="47.09416" lon="-1.6123">
        <ele>59</ele>
        <time>2020-12-17T15:04:13.000Z</time>
      </trkpt>
      <trkpt lat="47.09429" lon="-1.6122">
        <ele>59</ele>
        <time>2020-12-17T15:04:15.000Z</time>
      </trkpt>
      <trkpt lat="47.09441" lon="-1.61204">
        <ele>57</ele>
        <time>2020-12-17T15:04:17.000Z</time>
      </trkpt>
      <trkpt lat="47.09453" lon="-1.61191">
        <ele>56</ele>
        <time>2020-12-17T15:04:19.000Z</time>
      </trkpt>
      <trkpt lat="47.09466" lon="-1.61178">
        <ele>54</ele>
        <time>2020-12-17T15:04:21.000Z</time>
      </trkpt>
      <trkpt lat="47.09478" lon="-1.61165">
        <ele>54</ele>
        <time>2020-12-17T15:04:23.000Z</time>
      </trkpt>
      <trkpt lat="47.0949" lon="-1.61153">
        <ele>54</ele>
        <time>2020-12-17T15:04:25.000Z</time>
      </trkpt>
      <trkpt lat="47.09503" lon="-1.61143">
        <ele>53</ele>
        <time>2020-12-17T15:04:27.000Z</time>
      </trkpt>
      <trkpt lat="47.09516" lon="-1.61137">
        <ele>53</ele>
        <time>2020-12-17T15:04:29.000Z</time>
      </trkpt>
      <trkpt lat="47.09529" lon="-1.61132">
        <ele>53</ele>
        <time>2020-12-17T15:04:31.000Z</time>
      </trkpt>
      <trkpt lat="47.09543" lon="-1.6113">
        <ele>54</ele>
        <time>2020-12-17T15:04:33.000Z</time>
      </trkpt>
      <trkpt lat="47.09558" lon="-1.61128">
        <ele>53</ele>
        <time>2020-12-17T15:04:35.000Z</time>
      </trkpt>
      <trkpt lat="47.09573" lon="-1.61125">
        <ele>53</ele>
        <time>2020-12-17T15:04:37.000Z</time>
      </trkpt>
      <trkpt lat="47.09589" lon="-1.61126">
        <ele>52</ele>
        <time>2020-12-17T15:04:39.000Z</time>
      </trkpt>
      <trkpt lat="47.09604" lon="-1.61125">
        <ele>52</ele>
        <time>2020-12-17T15:04:41.000Z</time>
      </trkpt>
      <trkpt lat="47.09619" lon="-1.61124">
        <ele>52</ele>
        <time>2020-12-17T15:04:43.000Z</time>
      </trkpt>
      <trkpt lat="47.09634" lon="-1.61122">
        <ele>52</ele>
        <time>2020-12-17T15:04:45.000Z</time>
      </trkpt>
      <trkpt lat="47.09649" lon="-1.61121">
        <ele>51</ele>
        <time>2020-12-17T15:04:47.000Z</time>
      </trkpt>
      <trkpt lat="47.09663" lon="-1.61119">
        <ele>52</ele>
        <time>2020-12-17T15:04:49.000Z</time>
      </trkpt>
      <trkpt lat="47.09677" lon="-1.61117">
        <ele>52</ele>
        <time>2020-12-17T15:04:51.000Z</time>
      </trkpt>
      <trkpt lat="47.09691" lon="-1.61114">
        <ele>52</ele>
        <time>2020-12-17T15:04:53.000Z</time>
      </trkpt>
      <trkpt lat="47.09706" lon="-1.61112">
        <ele>51</ele>
        <time>2020-12-17T15:04:55.000Z</time>
      </trkpt>
      <trkpt lat="47.09721" lon="-1.61112">
        <ele>51</ele>
        <time>2020-12-17T15:04:57.000Z</time>
      </trkpt>
      <trkpt lat="47.09735" lon="-1.6111">
        <ele>51</ele>
        <time>2020-12-17T15:04:59.000Z</time>
      </trkpt>
      <trkpt lat="47.09749" lon="-1.61107">
        <ele>51</ele>
        <time>2020-12-17T15:05:01.000Z</time>
      </trkpt>
      <trkpt lat="47.09763" lon="-1.61104">
        <ele>53</ele>
        <time>2020-12-17T15:05:03.000Z</time>
      </trkpt>
      <trkpt lat="47.09776" lon="-1.61102">
        <ele>53</ele>
        <time>2020-12-17T15:05:05.000Z</time>
      </trkpt>
      <trkpt lat="47.0979" lon="-1.61098">
        <ele>52</ele>
        <time>2020-12-17T15:05:07.000Z</time>
      </trkpt>
      <trkpt lat="47.09805" lon="-1.61092">
        <ele>51</ele>
        <time>2020-12-17T15:05:09.000Z</time>
      </trkpt>
      <trkpt lat="47.09819" lon="-1.61085">
        <ele>51</ele>
        <time>2020-12-17T15:05:11.000Z</time>
      </trkpt>
      <trkpt lat="47.09832" lon="-1.61075">
        <ele>51</ele>
        <time>2020-12-17T15:05:13.000Z</time>
      </trkpt>
      <trkpt lat="47.09844" lon="-1.61063">
        <ele>51</ele>
        <time>2020-12-17T15:05:15.000Z</time>
      </trkpt>
      <trkpt lat="47.09855" lon="-1.61048">
        <ele>52</ele>
        <time>2020-12-17T15:05:17.000Z</time>
      </trkpt>
      <trkpt lat="47.09864" lon="-1.61032">
        <ele>52</ele>
        <time>2020-12-17T15:05:19.000Z</time>
      </trkpt>
      <trkpt lat="47.09873" lon="-1.61014">
        <ele>52</ele>
        <time>2020-12-17T15:05:21.000Z</time>
      </trkpt>
      <trkpt lat="47.0988" lon="-1.60996">
        <ele>53</ele>
        <time>2020-12-17T15:05:23.000Z</time>
      </trkpt>
      <trkpt lat="47.09888" lon="-1.60978">
        <ele>53</ele>
        <time>2020-12-17T15:05:25.000Z</time>
      </trkpt>
      <trkpt lat="47.09894" lon="-1.60961">
        <ele>53</ele>
        <time>2020-12-17T15:05:27.000Z</time>
      </trkpt>
      <trkpt lat="47.09901" lon="-1.60943">
        <ele>53</ele>
        <time>2020-12-17T15:05:29.000Z</time>
      </trkpt>
      <trkpt lat="47.09907" lon="-1.60926">
        <ele>53</ele>
        <time>2020-12-17T15:05:31.000Z</time>
      </trkpt>
      <trkpt lat="47.09914" lon="-1.60909">
        <ele>54</ele>
        <time>2020-12-17T15:05:33.000Z</time>
      </trkpt>
      <trkpt lat="47.09921" lon="-1.60892">
        <ele>54</ele>
        <time>2020-12-17T15:05:35.000Z</time>
      </trkpt>
      <trkpt lat="47.09927" lon="-1.60875">
        <ele>54</ele>
        <time>2020-12-17T15:05:37.000Z</time>
      </trkpt>
      <trkpt lat="47.09934" lon="-1.60858">
        <ele>54</ele>
        <time>2020-12-17T15:05:39.000Z</time>
      </trkpt>
      <trkpt lat="47.09941" lon="-1.60841">
        <ele>54</ele>
        <time>2020-12-17T15:05:41.000Z</time>
      </trkpt>
      <trkpt lat="47.09947" lon="-1.60823">
        <ele>54</ele>
        <time>2020-12-17T15:05:43.000Z</time>
      </trkpt>
      <trkpt lat="47.09953" lon="-1.60806">
        <ele>54</ele>
        <time>2020-12-17T15:05:45.000Z</time>
      </trkpt>
      <trkpt lat="47.09957" lon="-1.60789">
        <ele>54</ele>
        <time>2020-12-17T15:05:47.000Z</time>
      </trkpt>
      <trkpt lat="47.09963" lon="-1.60771">
        <ele>55</ele>
        <time>2020-12-17T15:05:49.000Z</time>
      </trkpt>
      <trkpt lat="47.09968" lon="-1.60754">
        <ele>55</ele>
        <time>2020-12-17T15:05:51.000Z</time>
      </trkpt>
      <trkpt lat="47.09973" lon="-1.60737">
        <ele>56</ele>
        <time>2020-12-17T15:05:53.000Z</time>
      </trkpt>
      <trkpt lat="47.09978" lon="-1.60719">
        <ele>56</ele>
        <time>2020-12-17T15:05:55.000Z</time>
      </trkpt>
      <trkpt lat="47.09983" lon="-1.60702">
        <ele>55</ele>
        <time>2020-12-17T15:05:57.000Z</time>
      </trkpt>
      <trkpt lat="47.09988" lon="-1.60685">
        <ele>56</ele>
        <time>2020-12-17T15:05:59.000Z</time>
      </trkpt>
      <trkpt lat="47.09993" lon="-1.60667">
        <ele>56</ele>
        <time>2020-12-17T15:06:01.000Z</time>
      </trkpt>
      <trkpt lat="47.09998" lon="-1.60649">
        <ele>56</ele>
        <time>2020-12-17T15:06:03.000Z</time>
      </trkpt>
      <trkpt lat="47.10004" lon="-1.60631">
        <ele>56</ele>
        <time>2020-12-17T15:06:05.000Z</time>
      </trkpt>
      <trkpt lat="47.10009" lon="-1.60615">
        <ele>56</ele>
        <time>2020-12-17T15:06:07.000Z</time>
      </trkpt>
      <trkpt lat="47.10015" lon="-1.60598">
        <ele>56</ele>
        <time>2020-12-17T15:06:09.000Z</time>
      </trkpt>
      <trkpt lat="47.10019" lon="-1.60581">
        <ele>56</ele>
        <time>2020-12-17T15:06:11.000Z</time>
      </trkpt>
      <trkpt lat="47.10024" lon="-1.60564">
        <ele>55</ele>
        <time>2020-12-17T15:06:13.000Z</time>
      </trkpt>
      <trkpt lat="47.10029" lon="-1.60546">
        <ele>55</ele>
        <time>2020-12-17T15:06:15.000Z</time>
      </trkpt>
      <trkpt lat="47.10034" lon="-1.60528">
        <ele>55</ele>
        <time>2020-12-17T15:06:17.000Z</time>
      </trkpt>
      <trkpt lat="47.10039" lon="-1.60511">
        <ele>55</ele>
        <time>2020-12-17T15:06:19.000Z</time>
      </trkpt>
      <trkpt lat="47.10044" lon="-1.60493">
        <ele>55</ele>
        <time>2020-12-17T15:06:21.000Z</time>
      </trkpt>
      <trkpt lat="47.10048" lon="-1.60475">
        <ele>55</ele>
        <time>2020-12-17T15:06:23.000Z</time>
      </trkpt>
      <trkpt lat="47.10051" lon="-1.60456">
        <ele>56</ele>
        <time>2020-12-17T15:06:25.000Z</time>
      </trkpt>
      <trkpt lat="47.10054" lon="-1.60437">
        <ele>56</ele>
        <time>2020-12-17T15:06:27.000Z</time>
      </trkpt>
      <trkpt lat="47.10056" lon="-1.60418">
        <ele>55</ele>
        <time>2020-12-17T15:06:29.000Z</time>
      </trkpt>
      <trkpt lat="47.10059" lon="-1.60399">
        <ele>55</ele>
        <time>2020-12-17T15:06:31.000Z</time>
      </trkpt>
      <trkpt lat="47.10062" lon="-1.6038">
        <ele>55</ele>
        <time>2020-12-17T15:06:33.000Z</time>
      </trkpt>
      <trkpt lat="47.10063" lon="-1.60361">
        <ele>56</ele>
        <time>2020-12-17T15:06:35.000Z</time>
      </trkpt>
      <trkpt lat="47.10065" lon="-1.60341">
        <ele>56</ele>
        <time>2020-12-17T15:06:37.000Z</time>
      </trkpt>
      <trkpt lat="47.10067" lon="-1.60321">
        <ele>56</ele>
        <time>2020-12-17T15:06:39.000Z</time>
      </trkpt>
      <trkpt lat="47.10069" lon="-1.60301">
        <ele>56</ele>
        <time>2020-12-17T15:06:41.000Z</time>
      </trkpt>
      <trkpt lat="47.1007" lon="-1.60282">
        <ele>56</ele>
        <time>2020-12-17T15:06:43.000Z</time>
      </trkpt>
      <trkpt lat="47.10072" lon="-1.60264">
        <ele>56</ele>
        <time>2020-12-17T15:06:45.000Z</time>
      </trkpt>
      <trkpt lat="47.10074" lon="-1.60245">
        <ele>56</ele>
        <time>2020-12-17T15:06:47.000Z</time>
      </trkpt>
      <trkpt lat="47.10075" lon="-1.60226">
        <ele>56</ele>
        <time>2020-12-17T15:06:49.000Z</time>
      </trkpt>
      <trkpt lat="47.10076" lon="-1.60206">
        <ele>56</ele>
        <time>2020-12-17T15:06:51.000Z</time>
      </trkpt>
      <trkpt lat="47.10077" lon="-1.60188">
        <ele>56</ele>
        <time>2020-12-17T15:06:53.000Z</time>
      </trkpt>
      <trkpt lat="47.10076" lon="-1.60169">
        <ele>57</ele>
        <time>2020-12-17T15:06:55.000Z</time>
      </trkpt>
      <trkpt lat="47.1007" lon="-1.60152">
        <ele>57</ele>
        <time>2020-12-17T15:06:57.000Z</time>
      </trkpt>
      <trkpt lat="47.10066" lon="-1.60134">
        <ele>58</ele>
        <time>2020-12-17T15:06:59.000Z</time>
      </trkpt>
      <trkpt lat="47.10073" lon="-1.60114">
        <ele>58</ele>
        <time>2020-12-17T15:07:01.000Z</time>
      </trkpt>
      <trkpt lat="47.10087" lon="-1.60101">
        <ele>57</ele>
        <time>2020-12-17T15:07:03.000Z</time>
      </trkpt>
      <trkpt lat="47.10101" lon="-1.60094">
        <ele>56</ele>
        <time>2020-12-17T15:07:05.000Z</time>
      </trkpt>
      <trkpt lat="47.10112" lon="-1.60081">
        <ele>55</ele>
        <time>2020-12-17T15:07:07.000Z</time>
      </trkpt>
      <trkpt lat="47.10122" lon="-1.60066">
        <ele>55</ele>
        <time>2020-12-17T15:07:09.000Z</time>
      </trkpt>
      <trkpt lat="47.10131" lon="-1.60052">
        <ele>54</ele>
        <time>2020-12-17T15:07:11.000Z</time>
      </trkpt>
      <trkpt lat="47.10141" lon="-1.60037">
        <ele>54</ele>
        <time>2020-12-17T15:07:13.000Z</time>
      </trkpt>
      <trkpt lat="47.10151" lon="-1.60021">
        <ele>54</ele>
        <time>2020-12-17T15:07:15.000Z</time>
      </trkpt>
      <trkpt lat="47.1016" lon="-1.60005">
        <ele>55</ele>
        <time>2020-12-17T15:07:17.000Z</time>
      </trkpt>
      <trkpt lat="47.1017" lon="-1.5999">
        <ele>55</ele>
        <time>2020-12-17T15:07:19.000Z</time>
      </trkpt>
      <trkpt lat="47.10184" lon="-1.59967">
        <ele>54</ele>
        <time>2020-12-17T15:07:22.000Z</time>
      </trkpt>
      <trkpt lat="47.10194" lon="-1.59952">
        <ele>54</ele>
        <time>2020-12-17T15:07:24.000Z</time>
      </trkpt>
      <trkpt lat="47.10208" lon="-1.59928">
        <ele>54</ele>
        <time>2020-12-17T15:07:27.000Z</time>
      </trkpt>
      <trkpt lat="47.10217" lon="-1.59913">
        <ele>54</ele>
        <time>2020-12-17T15:07:29.000Z</time>
      </trkpt>
      <trkpt lat="47.10226" lon="-1.59897">
        <ele>54</ele>
        <time>2020-12-17T15:07:31.000Z</time>
      </trkpt>
      <trkpt lat="47.1024" lon="-1.59874">
        <ele>54</ele>
        <time>2020-12-17T15:07:34.000Z</time>
      </trkpt>
      <trkpt lat="47.10254" lon="-1.59851">
        <ele>54</ele>
        <time>2020-12-17T15:07:37.000Z</time>
      </trkpt>
      <trkpt lat="47.10263" lon="-1.59836">
        <ele>54</ele>
        <time>2020-12-17T15:07:39.000Z</time>
      </trkpt>
      <trkpt lat="47.10271" lon="-1.59821">
        <ele>54</ele>
        <time>2020-12-17T15:07:41.000Z</time>
      </trkpt>
      <trkpt lat="47.1028" lon="-1.59805">
        <ele>54</ele>
        <time>2020-12-17T15:07:43.000Z</time>
      </trkpt>
      <trkpt lat="47.10289" lon="-1.5979">
        <ele>54</ele>
        <time>2020-12-17T15:07:45.000Z</time>
      </trkpt>
      <trkpt lat="47.10298" lon="-1.59775">
        <ele>54</ele>
        <time>2020-12-17T15:07:47.000Z</time>
      </trkpt>
      <trkpt lat="47.10307" lon="-1.59759">
        <ele>55</ele>
        <time>2020-12-17T15:07:49.000Z</time>
      </trkpt>
      <trkpt lat="47.10316" lon="-1.59744">
        <ele>55</ele>
        <time>2020-12-17T15:07:51.000Z</time>
      </trkpt>
      <trkpt lat="47.10325" lon="-1.59729">
        <ele>55</ele>
        <time>2020-12-17T15:07:53.000Z</time>
      </trkpt>
      <trkpt lat="47.10339" lon="-1.59706">
        <ele>56</ele>
        <time>2020-12-17T15:07:56.000Z</time>
      </trkpt>
      <trkpt lat="47.10352" lon="-1.59682">
        <ele>56</ele>
        <time>2020-12-17T15:07:59.000Z</time>
      </trkpt>
      <trkpt lat="47.10361" lon="-1.59667">
        <ele>56</ele>
        <time>2020-12-17T15:08:01.000Z</time>
      </trkpt>
      <trkpt lat="47.1037" lon="-1.59652">
        <ele>57</ele>
        <time>2020-12-17T15:08:03.000Z</time>
      </trkpt>
      <trkpt lat="47.10379" lon="-1.59637">
        <ele>57</ele>
        <time>2020-12-17T15:08:05.000Z</time>
      </trkpt>
      <trkpt lat="47.10389" lon="-1.59621">
        <ele>57</ele>
        <time>2020-12-17T15:08:07.000Z</time>
      </trkpt>
      <trkpt lat="47.10398" lon="-1.59607">
        <ele>57</ele>
        <time>2020-12-17T15:08:09.000Z</time>
      </trkpt>
      <trkpt lat="47.10407" lon="-1.59592">
        <ele>57</ele>
        <time>2020-12-17T15:08:11.000Z</time>
      </trkpt>
      <trkpt lat="47.10417" lon="-1.59578">
        <ele>56</ele>
        <time>2020-12-17T15:08:13.000Z</time>
      </trkpt>
      <trkpt lat="47.10431" lon="-1.59555">
        <ele>56</ele>
        <time>2020-12-17T15:08:16.000Z</time>
      </trkpt>
      <trkpt lat="47.10444" lon="-1.59531">
        <ele>53</ele>
        <time>2020-12-17T15:08:19.000Z</time>
      </trkpt>
      <trkpt lat="47.10458" lon="-1.59509">
        <ele>54</ele>
        <time>2020-12-17T15:08:22.000Z</time>
      </trkpt>
      <trkpt lat="47.10472" lon="-1.59487">
        <ele>55</ele>
        <time>2020-12-17T15:08:25.000Z</time>
      </trkpt>
      <trkpt lat="47.10485" lon="-1.59464">
        <ele>55</ele>
        <time>2020-12-17T15:08:28.000Z</time>
      </trkpt>
      <trkpt lat="47.10494" lon="-1.59449">
        <ele>56</ele>
        <time>2020-12-17T15:08:30.000Z</time>
      </trkpt>
      <trkpt lat="47.10504" lon="-1.59434">
        <ele>56</ele>
        <time>2020-12-17T15:08:32.000Z</time>
      </trkpt>
      <trkpt lat="47.10512" lon="-1.59419">
        <ele>56</ele>
        <time>2020-12-17T15:08:34.000Z</time>
      </trkpt>
      <trkpt lat="47.10521" lon="-1.59404">
        <ele>57</ele>
        <time>2020-12-17T15:08:36.000Z</time>
      </trkpt>
      <trkpt lat="47.1053" lon="-1.59389">
        <ele>57</ele>
        <time>2020-12-17T15:08:38.000Z</time>
      </trkpt>
      <trkpt lat="47.10538" lon="-1.59375">
        <ele>57</ele>
        <time>2020-12-17T15:08:40.000Z</time>
      </trkpt>
      <trkpt lat="47.10551" lon="-1.59352">
        <ele>58</ele>
        <time>2020-12-17T15:08:43.000Z</time>
      </trkpt>
      <trkpt lat="47.10563" lon="-1.5933">
        <ele>58</ele>
        <time>2020-12-17T15:08:46.000Z</time>
      </trkpt>
      <trkpt lat="47.10575" lon="-1.59308">
        <ele>59</ele>
        <time>2020-12-17T15:08:49.000Z</time>
      </trkpt>
      <trkpt lat="47.10587" lon="-1.59287">
        <ele>59</ele>
        <time>2020-12-17T15:08:52.000Z</time>
      </trkpt>
      <trkpt lat="47.10599" lon="-1.59265">
        <ele>59</ele>
        <time>2020-12-17T15:08:55.000Z</time>
      </trkpt>
      <trkpt lat="47.1061" lon="-1.59242">
        <ele>60</ele>
        <time>2020-12-17T15:08:58.000Z</time>
      </trkpt>
      <trkpt lat="47.10623" lon="-1.59222">
        <ele>60</ele>
        <time>2020-12-17T15:09:01.000Z</time>
      </trkpt>
      <trkpt lat="47.10635" lon="-1.592">
        <ele>60</ele>
        <time>2020-12-17T15:09:04.000Z</time>
      </trkpt>
      <trkpt lat="47.10643" lon="-1.59185">
        <ele>60</ele>
        <time>2020-12-17T15:09:06.000Z</time>
      </trkpt>
      <trkpt lat="47.1065" lon="-1.5917">
        <ele>60</ele>
        <time>2020-12-17T15:09:08.000Z</time>
      </trkpt>
      <trkpt lat="47.10656" lon="-1.59155">
        <ele>61</ele>
        <time>2020-12-17T15:09:10.000Z</time>
      </trkpt>
      <trkpt lat="47.10662" lon="-1.59139">
        <ele>61</ele>
        <time>2020-12-17T15:09:12.000Z</time>
      </trkpt>
      <trkpt lat="47.10667" lon="-1.59124">
        <ele>61</ele>
        <time>2020-12-17T15:09:14.000Z</time>
      </trkpt>
      <trkpt lat="47.10672" lon="-1.59108">
        <ele>61</ele>
        <time>2020-12-17T15:09:16.000Z</time>
      </trkpt>
      <trkpt lat="47.10678" lon="-1.59093">
        <ele>62</ele>
        <time>2020-12-17T15:09:18.000Z</time>
      </trkpt>
      <trkpt lat="47.10683" lon="-1.59078">
        <ele>62</ele>
        <time>2020-12-17T15:09:20.000Z</time>
      </trkpt>
      <trkpt lat="47.10689" lon="-1.59061">
        <ele>60</ele>
        <time>2020-12-17T15:09:22.000Z</time>
      </trkpt>
      <trkpt lat="47.10697" lon="-1.59038">
        <ele>62</ele>
        <time>2020-12-17T15:09:25.000Z</time>
      </trkpt>
      <trkpt lat="47.10706" lon="-1.59016">
        <ele>61</ele>
        <time>2020-12-17T15:09:28.000Z</time>
      </trkpt>
      <trkpt lat="47.10713" lon="-1.58992">
        <ele>59</ele>
        <time>2020-12-17T15:09:31.000Z</time>
      </trkpt>
      <trkpt lat="47.10724" lon="-1.58971">
        <ele>60</ele>
        <time>2020-12-17T15:09:34.000Z</time>
      </trkpt>
      <trkpt lat="47.1073" lon="-1.58955">
        <ele>61</ele>
        <time>2020-12-17T15:09:36.000Z</time>
      </trkpt>
      <trkpt lat="47.10736" lon="-1.58939">
        <ele>62</ele>
        <time>2020-12-17T15:09:38.000Z</time>
      </trkpt>
      <trkpt lat="47.10742" lon="-1.58924">
        <ele>63</ele>
        <time>2020-12-17T15:09:40.000Z</time>
      </trkpt>
      <trkpt lat="47.10754" lon="-1.58903">
        <ele>63</ele>
        <time>2020-12-17T15:09:43.000Z</time>
      </trkpt>
      <trkpt lat="47.10764" lon="-1.58889">
        <ele>62</ele>
        <time>2020-12-17T15:09:45.000Z</time>
      </trkpt>
      <trkpt lat="47.10773" lon="-1.58876">
        <ele>63</ele>
        <time>2020-12-17T15:09:47.000Z</time>
      </trkpt>
      <trkpt lat="47.10786" lon="-1.58854">
        <ele>62</ele>
        <time>2020-12-17T15:09:50.000Z</time>
      </trkpt>
      <trkpt lat="47.10795" lon="-1.58839">
        <ele>63</ele>
        <time>2020-12-17T15:09:52.000Z</time>
      </trkpt>
      <trkpt lat="47.10803" lon="-1.58824">
        <ele>62</ele>
        <time>2020-12-17T15:09:54.000Z</time>
      </trkpt>
      <trkpt lat="47.10813" lon="-1.58809">
        <ele>61</ele>
        <time>2020-12-17T15:09:56.000Z</time>
      </trkpt>
      <trkpt lat="47.10823" lon="-1.58795">
        <ele>60</ele>
        <time>2020-12-17T15:09:58.000Z</time>
      </trkpt>
      <trkpt lat="47.10838" lon="-1.58772">
        <ele>60</ele>
        <time>2020-12-17T15:10:01.000Z</time>
      </trkpt>
      <trkpt lat="47.10848" lon="-1.58757">
        <ele>60</ele>
        <time>2020-12-17T15:10:03.000Z</time>
      </trkpt>
      <trkpt lat="47.10859" lon="-1.5874">
        <ele>61</ele>
        <time>2020-12-17T15:10:05.000Z</time>
      </trkpt>
      <trkpt lat="47.1087" lon="-1.58725">
        <ele>61</ele>
        <time>2020-12-17T15:10:07.000Z</time>
      </trkpt>
      <trkpt lat="47.10891" lon="-1.58694">
        <ele>59</ele>
        <time>2020-12-17T15:10:11.000Z</time>
      </trkpt>
      <trkpt lat="47.10901" lon="-1.58677">
        <ele>58</ele>
        <time>2020-12-17T15:10:13.000Z</time>
      </trkpt>
      <trkpt lat="47.10919" lon="-1.58654">
        <ele>59</ele>
        <time>2020-12-17T15:10:16.000Z</time>
      </trkpt>
      <trkpt lat="47.10937" lon="-1.58624">
        <ele>56</ele>
        <time>2020-12-17T15:10:19.000Z</time>
      </trkpt>
      <trkpt lat="47.10948" lon="-1.58609">
        <ele>56</ele>
        <time>2020-12-17T15:10:21.000Z</time>
      </trkpt>
      <trkpt lat="47.10958" lon="-1.58593">
        <ele>56</ele>
        <time>2020-12-17T15:10:23.000Z</time>
      </trkpt>
      <trkpt lat="47.10971" lon="-1.58576">
        <ele>56</ele>
        <time>2020-12-17T15:10:25.000Z</time>
      </trkpt>
      <trkpt lat="47.10982" lon="-1.58558">
        <ele>56</ele>
        <time>2020-12-17T15:10:27.000Z</time>
      </trkpt>
      <trkpt lat="47.10993" lon="-1.58541">
        <ele>55</ele>
        <time>2020-12-17T15:10:29.000Z</time>
      </trkpt>
      <trkpt lat="47.11005" lon="-1.58524">
        <ele>55</ele>
        <time>2020-12-17T15:10:31.000Z</time>
      </trkpt>
      <trkpt lat="47.11016" lon="-1.58507">
        <ele>55</ele>
        <time>2020-12-17T15:10:33.000Z</time>
      </trkpt>
      <trkpt lat="47.11028" lon="-1.58489">
        <ele>55</ele>
        <time>2020-12-17T15:10:35.000Z</time>
      </trkpt>
      <trkpt lat="47.11039" lon="-1.58472">
        <ele>56</ele>
        <time>2020-12-17T15:10:37.000Z</time>
      </trkpt>
      <trkpt lat="47.1105" lon="-1.58455">
        <ele>55</ele>
        <time>2020-12-17T15:10:39.000Z</time>
      </trkpt>
      <trkpt lat="47.11062" lon="-1.58438">
        <ele>55</ele>
        <time>2020-12-17T15:10:41.000Z</time>
      </trkpt>
      <trkpt lat="47.11078" lon="-1.58413">
        <ele>54</ele>
        <time>2020-12-17T15:10:44.000Z</time>
      </trkpt>
      <trkpt lat="47.11089" lon="-1.58396">
        <ele>54</ele>
        <time>2020-12-17T15:10:46.000Z</time>
      </trkpt>
      <trkpt lat="47.111" lon="-1.58379">
        <ele>53</ele>
        <time>2020-12-17T15:10:48.000Z</time>
      </trkpt>
      <trkpt lat="47.11111" lon="-1.58363">
        <ele>53</ele>
        <time>2020-12-17T15:10:50.000Z</time>
      </trkpt>
      <trkpt lat="47.11122" lon="-1.58346">
        <ele>53</ele>
        <time>2020-12-17T15:10:52.000Z</time>
      </trkpt>
      <trkpt lat="47.11143" lon="-1.58312">
        <ele>52</ele>
        <time>2020-12-17T15:10:56.000Z</time>
      </trkpt>
      <trkpt lat="47.11154" lon="-1.58296">
        <ele>53</ele>
        <time>2020-12-17T15:10:58.000Z</time>
      </trkpt>
      <trkpt lat="47.1117" lon="-1.58272">
        <ele>52</ele>
        <time>2020-12-17T15:11:01.000Z</time>
      </trkpt>
      <trkpt lat="47.11179" lon="-1.58256">
        <ele>52</ele>
        <time>2020-12-17T15:11:03.000Z</time>
      </trkpt>
      <trkpt lat="47.1119" lon="-1.5824">
        <ele>51</ele>
        <time>2020-12-17T15:11:05.000Z</time>
      </trkpt>
      <trkpt lat="47.11201" lon="-1.58225">
        <ele>51</ele>
        <time>2020-12-17T15:11:07.000Z</time>
      </trkpt>
      <trkpt lat="47.11212" lon="-1.58209">
        <ele>51</ele>
        <time>2020-12-17T15:11:09.000Z</time>
      </trkpt>
      <trkpt lat="47.11231" lon="-1.58187">
        <ele>49</ele>
        <time>2020-12-17T15:11:12.000Z</time>
      </trkpt>
      <trkpt lat="47.11245" lon="-1.58173">
        <ele>48</ele>
        <time>2020-12-17T15:11:14.000Z</time>
      </trkpt>
      <trkpt lat="47.11257" lon="-1.5816">
        <ele>48</ele>
        <time>2020-12-17T15:11:16.000Z</time>
      </trkpt>
      <trkpt lat="47.1127" lon="-1.58148">
        <ele>49</ele>
        <time>2020-12-17T15:11:18.000Z</time>
      </trkpt>
      <trkpt lat="47.11283" lon="-1.58137">
        <ele>49</ele>
        <time>2020-12-17T15:11:20.000Z</time>
      </trkpt>
      <trkpt lat="47.11296" lon="-1.58124">
        <ele>49</ele>
        <time>2020-12-17T15:11:22.000Z</time>
      </trkpt>
      <trkpt lat="47.11309" lon="-1.58112">
        <ele>48</ele>
        <time>2020-12-17T15:11:24.000Z</time>
      </trkpt>
      <trkpt lat="47.11321" lon="-1.58105">
        <ele>47</ele>
        <time>2020-12-17T15:11:26.000Z</time>
      </trkpt>
      <trkpt lat="47.11334" lon="-1.58098">
        <ele>47</ele>
        <time>2020-12-17T15:11:28.000Z</time>
      </trkpt>
      <trkpt lat="47.11353" lon="-1.58085">
        <ele>47</ele>
        <time>2020-12-17T15:11:31.000Z</time>
      </trkpt>
      <trkpt lat="47.11367" lon="-1.58075">
        <ele>47</ele>
        <time>2020-12-17T15:11:33.000Z</time>
      </trkpt>
      <trkpt lat="47.11382" lon="-1.58065">
        <ele>48</ele>
        <time>2020-12-17T15:11:35.000Z</time>
      </trkpt>
      <trkpt lat="47.11404" lon="-1.58055">
        <ele>49</ele>
        <time>2020-12-17T15:11:38.000Z</time>
      </trkpt>
      <trkpt lat="47.11418" lon="-1.58047">
        <ele>49</ele>
        <time>2020-12-17T15:11:40.000Z</time>
      </trkpt>
      <trkpt lat="47.11432" lon="-1.58041">
        <ele>48</ele>
        <time>2020-12-17T15:11:42.000Z</time>
      </trkpt>
      <trkpt lat="47.11446" lon="-1.58034">
        <ele>47</ele>
        <time>2020-12-17T15:11:44.000Z</time>
      </trkpt>
      <trkpt lat="47.11459" lon="-1.58029">
        <ele>49</ele>
        <time>2020-12-17T15:11:46.000Z</time>
      </trkpt>
      <trkpt lat="47.11472" lon="-1.58024">
        <ele>49</ele>
        <time>2020-12-17T15:11:48.000Z</time>
      </trkpt>
      <trkpt lat="47.11486" lon="-1.58019">
        <ele>50</ele>
        <time>2020-12-17T15:11:50.000Z</time>
      </trkpt>
      <trkpt lat="47.11499" lon="-1.58015">
        <ele>51</ele>
        <time>2020-12-17T15:11:52.000Z</time>
      </trkpt>
      <trkpt lat="47.11512" lon="-1.58012">
        <ele>51</ele>
        <time>2020-12-17T15:11:54.000Z</time>
      </trkpt>
      <trkpt lat="47.11525" lon="-1.58012">
        <ele>52</ele>
        <time>2020-12-17T15:11:56.000Z</time>
      </trkpt>
      <trkpt lat="47.11538" lon="-1.58012">
        <ele>51</ele>
        <time>2020-12-17T15:11:58.000Z</time>
      </trkpt>
      <trkpt lat="47.11553" lon="-1.58013">
        <ele>51</ele>
        <time>2020-12-17T15:12:00.000Z</time>
      </trkpt>
      <trkpt lat="47.11566" lon="-1.58015">
        <ele>52</ele>
        <time>2020-12-17T15:12:02.000Z</time>
      </trkpt>
      <trkpt lat="47.1158" lon="-1.58017">
        <ele>52</ele>
        <time>2020-12-17T15:12:04.000Z</time>
      </trkpt>
      <trkpt lat="47.11594" lon="-1.58018">
        <ele>51</ele>
        <time>2020-12-17T15:12:06.000Z</time>
      </trkpt>
      <trkpt lat="47.11609" lon="-1.58021">
        <ele>50</ele>
        <time>2020-12-17T15:12:08.000Z</time>
      </trkpt>
      <trkpt lat="47.11625" lon="-1.58029">
        <ele>49</ele>
        <time>2020-12-17T15:12:11.000Z</time>
      </trkpt>
      <trkpt lat="47.11637" lon="-1.58023">
        <ele>49</ele>
        <time>2020-12-17T15:12:14.000Z</time>
      </trkpt>
      <trkpt lat="47.11654" lon="-1.58024">
        <ele>51</ele>
        <time>2020-12-17T15:12:17.000Z</time>
      </trkpt>
      <trkpt lat="47.11669" lon="-1.58026">
        <ele>51</ele>
        <time>2020-12-17T15:12:19.000Z</time>
      </trkpt>
      <trkpt lat="47.11686" lon="-1.58026">
        <ele>51</ele>
        <time>2020-12-17T15:12:22.000Z</time>
      </trkpt>
      <trkpt lat="47.11699" lon="-1.58028">
        <ele>52</ele>
        <time>2020-12-17T15:12:24.000Z</time>
      </trkpt>
      <trkpt lat="47.11713" lon="-1.58029">
        <ele>52</ele>
        <time>2020-12-17T15:12:26.000Z</time>
      </trkpt>
      <trkpt lat="47.11735" lon="-1.58031">
        <ele>51</ele>
        <time>2020-12-17T15:12:29.000Z</time>
      </trkpt>
      <trkpt lat="47.11746" lon="-1.58036">
        <ele>50</ele>
        <time>2020-12-17T15:12:31.000Z</time>
      </trkpt>
      <trkpt lat="47.11759" lon="-1.58039">
        <ele>49</ele>
        <time>2020-12-17T15:12:33.000Z</time>
      </trkpt>
      <trkpt lat="47.11772" lon="-1.58042">
        <ele>49</ele>
        <time>2020-12-17T15:12:35.000Z</time>
      </trkpt>
      <trkpt lat="47.11785" lon="-1.58045">
        <ele>49</ele>
        <time>2020-12-17T15:12:37.000Z</time>
      </trkpt>
      <trkpt lat="47.11798" lon="-1.58049">
        <ele>50</ele>
        <time>2020-12-17T15:12:39.000Z</time>
      </trkpt>
      <trkpt lat="47.1181" lon="-1.58052">
        <ele>50</ele>
        <time>2020-12-17T15:12:41.000Z</time>
      </trkpt>
      <trkpt lat="47.11822" lon="-1.58055">
        <ele>50</ele>
        <time>2020-12-17T15:12:43.000Z</time>
      </trkpt>
      <trkpt lat="47.11841" lon="-1.58059">
        <ele>50</ele>
        <time>2020-12-17T15:12:46.000Z</time>
      </trkpt>
      <trkpt lat="47.11865" lon="-1.58065">
        <ele>50</ele>
        <time>2020-12-17T15:12:50.000Z</time>
      </trkpt>
      <trkpt lat="47.11878" lon="-1.58068">
        <ele>51</ele>
        <time>2020-12-17T15:12:52.000Z</time>
      </trkpt>
      <trkpt lat="47.11896" lon="-1.58072">
        <ele>52</ele>
        <time>2020-12-17T15:12:55.000Z</time>
      </trkpt>
      <trkpt lat="47.11914" lon="-1.58077">
        <ele>52</ele>
        <time>2020-12-17T15:12:58.000Z</time>
      </trkpt>
      <trkpt lat="47.11933" lon="-1.58081">
        <ele>53</ele>
        <time>2020-12-17T15:13:01.000Z</time>
      </trkpt>
      <trkpt lat="47.11952" lon="-1.58086">
        <ele>54</ele>
        <time>2020-12-17T15:13:04.000Z</time>
      </trkpt>
      <trkpt lat="47.11969" lon="-1.58089">
        <ele>54</ele>
        <time>2020-12-17T15:13:07.000Z</time>
      </trkpt>
      <trkpt lat="47.1198" lon="-1.58092">
        <ele>55</ele>
        <time>2020-12-17T15:13:09.000Z</time>
      </trkpt>
      <trkpt lat="47.11992" lon="-1.58096">
        <ele>55</ele>
        <time>2020-12-17T15:13:11.000Z</time>
      </trkpt>
      <trkpt lat="47.12004" lon="-1.581">
        <ele>56</ele>
        <time>2020-12-17T15:13:13.000Z</time>
      </trkpt>
      <trkpt lat="47.12015" lon="-1.58097">
        <ele>56</ele>
        <time>2020-12-17T15:13:15.000Z</time>
      </trkpt>
      <trkpt lat="47.12026" lon="-1.58103">
        <ele>56</ele>
        <time>2020-12-17T15:13:17.000Z</time>
      </trkpt>
      <trkpt lat="47.12035" lon="-1.58114">
        <ele>56</ele>
        <time>2020-12-17T15:13:19.000Z</time>
      </trkpt>
      <trkpt lat="47.12045" lon="-1.58122">
        <ele>56</ele>
        <time>2020-12-17T15:13:21.000Z</time>
      </trkpt>
      <trkpt lat="47.12057" lon="-1.58129">
        <ele>56</ele>
        <time>2020-12-17T15:13:23.000Z</time>
      </trkpt>
      <trkpt lat="47.12069" lon="-1.58138">
        <ele>56</ele>
        <time>2020-12-17T15:13:25.000Z</time>
      </trkpt>
      <trkpt lat="47.12081" lon="-1.58144">
        <ele>56</ele>
        <time>2020-12-17T15:13:27.000Z</time>
      </trkpt>
      <trkpt lat="47.12094" lon="-1.58151">
        <ele>55</ele>
        <time>2020-12-17T15:13:29.000Z</time>
      </trkpt>
      <trkpt lat="47.12113" lon="-1.58164">
        <ele>55</ele>
        <time>2020-12-17T15:13:32.000Z</time>
      </trkpt>
      <trkpt lat="47.12125" lon="-1.58173">
        <ele>55</ele>
        <time>2020-12-17T15:13:34.000Z</time>
      </trkpt>
      <trkpt lat="47.12137" lon="-1.58185">
        <ele>53</ele>
        <time>2020-12-17T15:13:36.000Z</time>
      </trkpt>
      <trkpt lat="47.12147" lon="-1.58197">
        <ele>53</ele>
        <time>2020-12-17T15:13:38.000Z</time>
      </trkpt>
      <trkpt lat="47.12159" lon="-1.5821">
        <ele>54</ele>
        <time>2020-12-17T15:13:40.000Z</time>
      </trkpt>
      <trkpt lat="47.1217" lon="-1.58221">
        <ele>52</ele>
        <time>2020-12-17T15:13:42.000Z</time>
      </trkpt>
      <trkpt lat="47.12183" lon="-1.58231">
        <ele>52</ele>
        <time>2020-12-17T15:13:44.000Z</time>
      </trkpt>
      <trkpt lat="47.12197" lon="-1.58242">
        <ele>50</ele>
        <time>2020-12-17T15:13:46.000Z</time>
      </trkpt>
      <trkpt lat="47.12218" lon="-1.58256">
        <ele>52</ele>
        <time>2020-12-17T15:13:49.000Z</time>
      </trkpt>
      <trkpt lat="47.12232" lon="-1.58268">
        <ele>52</ele>
        <time>2020-12-17T15:13:51.000Z</time>
      </trkpt>
      <trkpt lat="47.12248" lon="-1.5829">
        <ele>51</ele>
        <time>2020-12-17T15:13:54.000Z</time>
      </trkpt>
      <trkpt lat="47.1226" lon="-1.58303">
        <ele>51</ele>
        <time>2020-12-17T15:13:56.000Z</time>
      </trkpt>
      <trkpt lat="47.12272" lon="-1.58315">
        <ele>51</ele>
        <time>2020-12-17T15:13:58.000Z</time>
      </trkpt>
      <trkpt lat="47.12289" lon="-1.58333">
        <ele>52</ele>
        <time>2020-12-17T15:14:01.000Z</time>
      </trkpt>
      <trkpt lat="47.12297" lon="-1.58343">
        <ele>52</ele>
        <time>2020-12-17T15:14:03.000Z</time>
      </trkpt>
      <trkpt lat="47.123" lon="-1.58363">
        <ele>52</ele>
        <time>2020-12-17T15:14:05.000Z</time>
      </trkpt>
      <trkpt lat="47.12301" lon="-1.58382">
        <ele>52</ele>
        <time>2020-12-17T15:14:07.000Z</time>
      </trkpt>
      <trkpt lat="47.12305" lon="-1.58399">
        <ele>53</ele>
        <time>2020-12-17T15:14:09.000Z</time>
      </trkpt>
      <trkpt lat="47.12314" lon="-1.58421">
        <ele>54</ele>
        <time>2020-12-17T15:14:12.000Z</time>
      </trkpt>
      <trkpt lat="47.12331" lon="-1.58437">
        <ele>55</ele>
        <time>2020-12-17T15:14:16.000Z</time>
      </trkpt>
      <trkpt lat="47.12336" lon="-1.58455">
        <ele>54</ele>
        <time>2020-12-17T15:14:18.000Z</time>
      </trkpt>
      <trkpt lat="47.1234" lon="-1.58475">
        <ele>55</ele>
        <time>2020-12-17T15:14:20.000Z</time>
      </trkpt>
      <trkpt lat="47.12345" lon="-1.58493">
        <ele>54</ele>
        <time>2020-12-17T15:14:22.000Z</time>
      </trkpt>
      <trkpt lat="47.1235" lon="-1.58512">
        <ele>54</ele>
        <time>2020-12-17T15:14:24.000Z</time>
      </trkpt>
      <trkpt lat="47.12352" lon="-1.58531">
        <ele>55</ele>
        <time>2020-12-17T15:14:26.000Z</time>
      </trkpt>
      <trkpt lat="47.12356" lon="-1.58548">
        <ele>54</ele>
        <time>2020-12-17T15:14:28.000Z</time>
      </trkpt>
      <trkpt lat="47.12359" lon="-1.58564">
        <ele>55</ele>
        <time>2020-12-17T15:14:30.000Z</time>
      </trkpt>
      <trkpt lat="47.12364" lon="-1.58579">
        <ele>55</ele>
        <time>2020-12-17T15:14:32.000Z</time>
      </trkpt>
      <trkpt lat="47.12368" lon="-1.58597">
        <ele>55</ele>
        <time>2020-12-17T15:14:34.000Z</time>
      </trkpt>
      <trkpt lat="47.12371" lon="-1.58617">
        <ele>55</ele>
        <time>2020-12-17T15:14:36.000Z</time>
      </trkpt>
      <trkpt lat="47.12373" lon="-1.58635">
        <ele>56</ele>
        <time>2020-12-17T15:14:38.000Z</time>
      </trkpt>
      <trkpt lat="47.12378" lon="-1.58653">
        <ele>56</ele>
        <time>2020-12-17T15:14:40.000Z</time>
      </trkpt>
      <trkpt lat="47.12382" lon="-1.5867">
        <ele>56</ele>
        <time>2020-12-17T15:14:42.000Z</time>
      </trkpt>
      <trkpt lat="47.12387" lon="-1.58687">
        <ele>57</ele>
        <time>2020-12-17T15:14:44.000Z</time>
      </trkpt>
      <trkpt lat="47.12392" lon="-1.58713">
        <ele>57</ele>
        <time>2020-12-17T15:14:47.000Z</time>
      </trkpt>
      <trkpt lat="47.12396" lon="-1.5873">
        <ele>57</ele>
        <time>2020-12-17T15:14:49.000Z</time>
      </trkpt>
      <trkpt lat="47.124" lon="-1.58748">
        <ele>57</ele>
        <time>2020-12-17T15:14:51.000Z</time>
      </trkpt>
      <trkpt lat="47.12404" lon="-1.58766">
        <ele>58</ele>
        <time>2020-12-17T15:14:53.000Z</time>
      </trkpt>
      <trkpt lat="47.12407" lon="-1.58782">
        <ele>58</ele>
        <time>2020-12-17T15:14:55.000Z</time>
      </trkpt>
      <trkpt lat="47.12409" lon="-1.58801">
        <ele>58</ele>
        <time>2020-12-17T15:14:57.000Z</time>
      </trkpt>
      <trkpt lat="47.12412" lon="-1.58818">
        <ele>59</ele>
        <time>2020-12-17T15:14:59.000Z</time>
      </trkpt>
      <trkpt lat="47.12416" lon="-1.58844">
        <ele>56</ele>
        <time>2020-12-17T15:15:02.000Z</time>
      </trkpt>
      <trkpt lat="47.12419" lon="-1.58859">
        <ele>54</ele>
        <time>2020-12-17T15:15:04.000Z</time>
      </trkpt>
      <trkpt lat="47.12418" lon="-1.58875">
        <ele>55</ele>
        <time>2020-12-17T15:15:06.000Z</time>
      </trkpt>
      <trkpt lat="47.12419" lon="-1.58892">
        <ele>54</ele>
        <time>2020-12-17T15:15:08.000Z</time>
      </trkpt>
      <trkpt lat="47.12421" lon="-1.58908">
        <ele>54</ele>
        <time>2020-12-17T15:15:10.000Z</time>
      </trkpt>
      <trkpt lat="47.12424" lon="-1.58934">
        <ele>54</ele>
        <time>2020-12-17T15:15:13.000Z</time>
      </trkpt>
      <trkpt lat="47.12424" lon="-1.58964">
        <ele>55</ele>
        <time>2020-12-17T15:15:16.000Z</time>
      </trkpt>
      <trkpt lat="47.12426" lon="-1.58996">
        <ele>54</ele>
        <time>2020-12-17T15:15:19.000Z</time>
      </trkpt>
      <trkpt lat="47.12427" lon="-1.59017">
        <ele>54</ele>
        <time>2020-12-17T15:15:21.000Z</time>
      </trkpt>
      <trkpt lat="47.12428" lon="-1.59038">
        <ele>54</ele>
        <time>2020-12-17T15:15:23.000Z</time>
      </trkpt>
      <trkpt lat="47.12428" lon="-1.59058">
        <ele>52</ele>
        <time>2020-12-17T15:15:25.000Z</time>
      </trkpt>
      <trkpt lat="47.12429" lon="-1.59077">
        <ele>51</ele>
        <time>2020-12-17T15:15:27.000Z</time>
      </trkpt>
      <trkpt lat="47.12429" lon="-1.59097">
        <ele>52</ele>
        <time>2020-12-17T15:15:29.000Z</time>
      </trkpt>
      <trkpt lat="47.1243" lon="-1.59117">
        <ele>52</ele>
        <time>2020-12-17T15:15:31.000Z</time>
      </trkpt>
      <trkpt lat="47.12432" lon="-1.59145">
        <ele>49</ele>
        <time>2020-12-17T15:15:34.000Z</time>
      </trkpt>
      <trkpt lat="47.12434" lon="-1.59167">
        <ele>50</ele>
        <time>2020-12-17T15:15:36.000Z</time>
      </trkpt>
      <trkpt lat="47.12438" lon="-1.59184">
        <ele>51</ele>
        <time>2020-12-17T15:15:38.000Z</time>
      </trkpt>
      <trkpt lat="47.12439" lon="-1.59211">
        <ele>52</ele>
        <time>2020-12-17T15:15:41.000Z</time>
      </trkpt>
      <trkpt lat="47.12437" lon="-1.59231">
        <ele>49</ele>
        <time>2020-12-17T15:15:43.000Z</time>
      </trkpt>
      <trkpt lat="47.12437" lon="-1.59251">
        <ele>49</ele>
        <time>2020-12-17T15:15:45.000Z</time>
      </trkpt>
      <trkpt lat="47.12437" lon="-1.5927">
        <ele>50</ele>
        <time>2020-12-17T15:15:47.000Z</time>
      </trkpt>
      <trkpt lat="47.12438" lon="-1.59298">
        <ele>52</ele>
        <time>2020-12-17T15:15:50.000Z</time>
      </trkpt>
      <trkpt lat="47.1244" lon="-1.59316">
        <ele>52</ele>
        <time>2020-12-17T15:15:52.000Z</time>
      </trkpt>
      <trkpt lat="47.12441" lon="-1.59335">
        <ele>52</ele>
        <time>2020-12-17T15:15:54.000Z</time>
      </trkpt>
      <trkpt lat="47.12442" lon="-1.59354">
        <ele>52</ele>
        <time>2020-12-17T15:15:56.000Z</time>
      </trkpt>
      <trkpt lat="47.12443" lon="-1.59373">
        <ele>52</ele>
        <time>2020-12-17T15:15:58.000Z</time>
      </trkpt>
      <trkpt lat="47.12443" lon="-1.59392">
        <ele>52</ele>
        <time>2020-12-17T15:16:00.000Z</time>
      </trkpt>
      <trkpt lat="47.12443" lon="-1.59411">
        <ele>52</ele>
        <time>2020-12-17T15:16:02.000Z</time>
      </trkpt>
      <trkpt lat="47.12445" lon="-1.59428">
        <ele>52</ele>
        <time>2020-12-17T15:16:04.000Z</time>
      </trkpt>
      <trkpt lat="47.12446" lon="-1.59446">
        <ele>53</ele>
        <time>2020-12-17T15:16:06.000Z</time>
      </trkpt>
      <trkpt lat="47.12447" lon="-1.59464">
        <ele>53</ele>
        <time>2020-12-17T15:16:08.000Z</time>
      </trkpt>
      <trkpt lat="47.12448" lon="-1.59484">
        <ele>53</ele>
        <time>2020-12-17T15:16:10.000Z</time>
      </trkpt>
      <trkpt lat="47.12449" lon="-1.59502">
        <ele>53</ele>
        <time>2020-12-17T15:16:12.000Z</time>
      </trkpt>
      <trkpt lat="47.1245" lon="-1.5952">
        <ele>54</ele>
        <time>2020-12-17T15:16:14.000Z</time>
      </trkpt>
      <trkpt lat="47.12451" lon="-1.59539">
        <ele>54</ele>
        <time>2020-12-17T15:16:16.000Z</time>
      </trkpt>
      <trkpt lat="47.12452" lon="-1.59556">
        <ele>54</ele>
        <time>2020-12-17T15:16:18.000Z</time>
      </trkpt>
      <trkpt lat="47.12453" lon="-1.59574">
        <ele>54</ele>
        <time>2020-12-17T15:16:20.000Z</time>
      </trkpt>
      <trkpt lat="47.12454" lon="-1.59593">
        <ele>51</ele>
        <time>2020-12-17T15:16:22.000Z</time>
      </trkpt>
      <trkpt lat="47.12455" lon="-1.5962">
        <ele>52</ele>
        <time>2020-12-17T15:16:25.000Z</time>
      </trkpt>
      <trkpt lat="47.12456" lon="-1.59645">
        <ele>53</ele>
        <time>2020-12-17T15:16:28.000Z</time>
      </trkpt>
      <trkpt lat="47.12456" lon="-1.59664">
        <ele>53</ele>
        <time>2020-12-17T15:16:30.000Z</time>
      </trkpt>
      <trkpt lat="47.12457" lon="-1.59681">
        <ele>53</ele>
        <time>2020-12-17T15:16:32.000Z</time>
      </trkpt>
      <trkpt lat="47.12458" lon="-1.59699">
        <ele>52</ele>
        <time>2020-12-17T15:16:34.000Z</time>
      </trkpt>
      <trkpt lat="47.12459" lon="-1.59717">
        <ele>53</ele>
        <time>2020-12-17T15:16:36.000Z</time>
      </trkpt>
      <trkpt lat="47.12461" lon="-1.59736">
        <ele>50</ele>
        <time>2020-12-17T15:16:38.000Z</time>
      </trkpt>
      <trkpt lat="47.12462" lon="-1.59762">
        <ele>52</ele>
        <time>2020-12-17T15:16:41.000Z</time>
      </trkpt>
      <trkpt lat="47.12463" lon="-1.5978">
        <ele>52</ele>
        <time>2020-12-17T15:16:43.000Z</time>
      </trkpt>
      <trkpt lat="47.12465" lon="-1.59798">
        <ele>53</ele>
        <time>2020-12-17T15:16:45.000Z</time>
      </trkpt>
      <trkpt lat="47.12466" lon="-1.59816">
        <ele>54</ele>
        <time>2020-12-17T15:16:47.000Z</time>
      </trkpt>
      <trkpt lat="47.12467" lon="-1.59834">
        <ele>55</ele>
        <time>2020-12-17T15:16:49.000Z</time>
      </trkpt>
      <trkpt lat="47.12469" lon="-1.59851">
        <ele>55</ele>
        <time>2020-12-17T15:16:51.000Z</time>
      </trkpt>
      <trkpt lat="47.1247" lon="-1.59869">
        <ele>56</ele>
        <time>2020-12-17T15:16:53.000Z</time>
      </trkpt>
      <trkpt lat="47.1247" lon="-1.59887">
        <ele>56</ele>
        <time>2020-12-17T15:16:55.000Z</time>
      </trkpt>
      <trkpt lat="47.12471" lon="-1.59904">
        <ele>56</ele>
        <time>2020-12-17T15:16:57.000Z</time>
      </trkpt>
      <trkpt lat="47.12474" lon="-1.59921">
        <ele>56</ele>
        <time>2020-12-17T15:16:59.000Z</time>
      </trkpt>
      <trkpt lat="47.12474" lon="-1.59942">
        <ele>56</ele>
        <time>2020-12-17T15:17:01.000Z</time>
      </trkpt>
      <trkpt lat="47.12474" lon="-1.59972">
        <ele>54</ele>
        <time>2020-12-17T15:17:04.000Z</time>
      </trkpt>
      <trkpt lat="47.12474" lon="-1.59992">
        <ele>53</ele>
        <time>2020-12-17T15:17:06.000Z</time>
      </trkpt>
      <trkpt lat="47.12474" lon="-1.60011">
        <ele>53</ele>
        <time>2020-12-17T15:17:08.000Z</time>
      </trkpt>
      <trkpt lat="47.12478" lon="-1.60027">
        <ele>52</ele>
        <time>2020-12-17T15:17:10.000Z</time>
      </trkpt>
      <trkpt lat="47.12481" lon="-1.60044">
        <ele>54</ele>
        <time>2020-12-17T15:17:12.000Z</time>
      </trkpt>
      <trkpt lat="47.12482" lon="-1.60063">
        <ele>55</ele>
        <time>2020-12-17T15:17:14.000Z</time>
      </trkpt>
      <trkpt lat="47.12483" lon="-1.60083">
        <ele>55</ele>
        <time>2020-12-17T15:17:16.000Z</time>
      </trkpt>
      <trkpt lat="47.12488" lon="-1.60109">
        <ele>53</ele>
        <time>2020-12-17T15:17:19.000Z</time>
      </trkpt>
      <trkpt lat="47.12491" lon="-1.60137">
        <ele>54</ele>
        <time>2020-12-17T15:17:22.000Z</time>
      </trkpt>
      <trkpt lat="47.12491" lon="-1.60156">
        <ele>53</ele>
        <time>2020-12-17T15:17:24.000Z</time>
      </trkpt>
      <trkpt lat="47.12492" lon="-1.60175">
        <ele>51</ele>
        <time>2020-12-17T15:17:26.000Z</time>
      </trkpt>
      <trkpt lat="47.12491" lon="-1.602">
        <ele>52</ele>
        <time>2020-12-17T15:17:28.000Z</time>
      </trkpt>
      <trkpt lat="47.12492" lon="-1.60222">
        <ele>52</ele>
        <time>2020-12-17T15:17:30.000Z</time>
      </trkpt>
      <trkpt lat="47.12495" lon="-1.60243">
        <ele>52</ele>
        <time>2020-12-17T15:17:32.000Z</time>
      </trkpt>
      <trkpt lat="47.125" lon="-1.6026">
        <ele>51</ele>
        <time>2020-12-17T15:17:34.000Z</time>
      </trkpt>
      <trkpt lat="47.12503" lon="-1.60278">
        <ele>51</ele>
        <time>2020-12-17T15:17:36.000Z</time>
      </trkpt>
      <trkpt lat="47.12505" lon="-1.60297">
        <ele>51</ele>
        <time>2020-12-17T15:17:38.000Z</time>
      </trkpt>
      <trkpt lat="47.12508" lon="-1.60316">
        <ele>51</ele>
        <time>2020-12-17T15:17:40.000Z</time>
      </trkpt>
      <trkpt lat="47.12511" lon="-1.60333">
        <ele>51</ele>
        <time>2020-12-17T15:17:42.000Z</time>
      </trkpt>
      <trkpt lat="47.12512" lon="-1.60351">
        <ele>49</ele>
        <time>2020-12-17T15:17:44.000Z</time>
      </trkpt>
      <trkpt lat="47.12518" lon="-1.60378">
        <ele>50</ele>
        <time>2020-12-17T15:17:47.000Z</time>
      </trkpt>
      <trkpt lat="47.12522" lon="-1.60395">
        <ele>51</ele>
        <time>2020-12-17T15:17:49.000Z</time>
      </trkpt>
      <trkpt lat="47.12524" lon="-1.60411">
        <ele>52</ele>
        <time>2020-12-17T15:17:51.000Z</time>
      </trkpt>
      <trkpt lat="47.12528" lon="-1.6043">
        <ele>53</ele>
        <time>2020-12-17T15:17:53.000Z</time>
      </trkpt>
      <trkpt lat="47.12531" lon="-1.60449">
        <ele>55</ele>
        <time>2020-12-17T15:17:55.000Z</time>
      </trkpt>
      <trkpt lat="47.12534" lon="-1.60467">
        <ele>54</ele>
        <time>2020-12-17T15:17:57.000Z</time>
      </trkpt>
      <trkpt lat="47.12536" lon="-1.60486">
        <ele>54</ele>
        <time>2020-12-17T15:17:59.000Z</time>
      </trkpt>
      <trkpt lat="47.12539" lon="-1.60503">
        <ele>53</ele>
        <time>2020-12-17T15:18:01.000Z</time>
      </trkpt>
      <trkpt lat="47.12542" lon="-1.60531">
        <ele>53</ele>
        <time>2020-12-17T15:18:04.000Z</time>
      </trkpt>
      <trkpt lat="47.12543" lon="-1.6055">
        <ele>53</ele>
        <time>2020-12-17T15:18:06.000Z</time>
      </trkpt>
      <trkpt lat="47.12544" lon="-1.60568">
        <ele>53</ele>
        <time>2020-12-17T15:18:08.000Z</time>
      </trkpt>
      <trkpt lat="47.12544" lon="-1.60587">
        <ele>53</ele>
        <time>2020-12-17T15:18:10.000Z</time>
      </trkpt>
      <trkpt lat="47.12545" lon="-1.60605">
        <ele>53</ele>
        <time>2020-12-17T15:18:12.000Z</time>
      </trkpt>
      <trkpt lat="47.12545" lon="-1.60623">
        <ele>53</ele>
        <time>2020-12-17T15:18:14.000Z</time>
      </trkpt>
      <trkpt lat="47.12546" lon="-1.60642">
        <ele>54</ele>
        <time>2020-12-17T15:18:16.000Z</time>
      </trkpt>
      <trkpt lat="47.12546" lon="-1.60661">
        <ele>54</ele>
        <time>2020-12-17T15:18:18.000Z</time>
      </trkpt>
      <trkpt lat="47.12547" lon="-1.60679">
        <ele>54</ele>
        <time>2020-12-17T15:18:20.000Z</time>
      </trkpt>
      <trkpt lat="47.12547" lon="-1.60698">
        <ele>54</ele>
        <time>2020-12-17T15:18:22.000Z</time>
      </trkpt>
      <trkpt lat="47.12546" lon="-1.60715">
        <ele>54</ele>
        <time>2020-12-17T15:18:24.000Z</time>
      </trkpt>
      <trkpt lat="47.12546" lon="-1.60734">
        <ele>54</ele>
        <time>2020-12-17T15:18:26.000Z</time>
      </trkpt>
      <trkpt lat="47.12545" lon="-1.60752">
        <ele>54</ele>
        <time>2020-12-17T15:18:28.000Z</time>
      </trkpt>
      <trkpt lat="47.12542" lon="-1.60771">
        <ele>54</ele>
        <time>2020-12-17T15:18:30.000Z</time>
      </trkpt>
      <trkpt lat="47.12542" lon="-1.60789">
        <ele>52</ele>
        <time>2020-12-17T15:18:32.000Z</time>
      </trkpt>
      <trkpt lat="47.1254" lon="-1.60806">
        <ele>52</ele>
        <time>2020-12-17T15:18:34.000Z</time>
      </trkpt>
      <trkpt lat="47.12538" lon="-1.6083">
        <ele>52</ele>
        <time>2020-12-17T15:18:37.000Z</time>
      </trkpt>
      <trkpt lat="47.12543" lon="-1.60847">
        <ele>53</ele>
        <time>2020-12-17T15:18:40.000Z</time>
      </trkpt>
      <trkpt lat="47.12559" lon="-1.60843">
        <ele>54</ele>
        <time>2020-12-17T15:18:43.000Z</time>
      </trkpt>
      <trkpt lat="47.12582" lon="-1.60832">
        <ele>54</ele>
        <time>2020-12-17T15:18:47.000Z</time>
      </trkpt>
      <trkpt lat="47.12595" lon="-1.6083">
        <ele>54</ele>
        <time>2020-12-17T15:18:49.000Z</time>
      </trkpt>
      <trkpt lat="47.12607" lon="-1.60826">
        <ele>54</ele>
        <time>2020-12-17T15:18:51.000Z</time>
      </trkpt>
      <trkpt lat="47.12619" lon="-1.60822">
        <ele>54</ele>
        <time>2020-12-17T15:18:53.000Z</time>
      </trkpt>
      <trkpt lat="47.12631" lon="-1.60818">
        <ele>54</ele>
        <time>2020-12-17T15:18:55.000Z</time>
      </trkpt>
      <trkpt lat="47.12649" lon="-1.60813">
        <ele>55</ele>
        <time>2020-12-17T15:18:58.000Z</time>
      </trkpt>
      <trkpt lat="47.1266" lon="-1.60809">
        <ele>55</ele>
        <time>2020-12-17T15:19:00.000Z</time>
      </trkpt>
      <trkpt lat="47.12672" lon="-1.60804">
        <ele>56</ele>
        <time>2020-12-17T15:19:02.000Z</time>
      </trkpt>
      <trkpt lat="47.12684" lon="-1.608">
        <ele>55</ele>
        <time>2020-12-17T15:19:04.000Z</time>
      </trkpt>
      <trkpt lat="47.12701" lon="-1.60794">
        <ele>55</ele>
        <time>2020-12-17T15:19:07.000Z</time>
      </trkpt>
      <trkpt lat="47.12715" lon="-1.60788">
        <ele>56</ele>
        <time>2020-12-17T15:19:10.000Z</time>
      </trkpt>
      <trkpt lat="47.12724" lon="-1.60801">
        <ele>57</ele>
        <time>2020-12-17T15:19:13.000Z</time>
      </trkpt>
      <trkpt lat="47.12722" lon="-1.60816">
        <ele>57</ele>
        <time>2020-12-17T15:19:15.000Z</time>
      </trkpt>
      <trkpt lat="47.12718" lon="-1.60831">
        <ele>56</ele>
        <time>2020-12-17T15:19:17.000Z</time>
      </trkpt>
      <trkpt lat="47.12713" lon="-1.60845">
        <ele>58</ele>
        <time>2020-12-17T15:19:19.000Z</time>
      </trkpt>
      <trkpt lat="47.12706" lon="-1.60874">
        <ele>59</ele>
        <time>2020-12-17T15:19:22.000Z</time>
      </trkpt>
      <trkpt lat="47.12699" lon="-1.609">
        <ele>60</ele>
        <time>2020-12-17T15:19:25.000Z</time>
      </trkpt>
      <trkpt lat="47.12696" lon="-1.60918">
        <ele>57</ele>
        <time>2020-12-17T15:19:27.000Z</time>
      </trkpt>
      <trkpt lat="47.12696" lon="-1.60936">
        <ele>57</ele>
        <time>2020-12-17T15:19:29.000Z</time>
      </trkpt>
      <trkpt lat="47.12696" lon="-1.60954">
        <ele>57</ele>
        <time>2020-12-17T15:19:31.000Z</time>
      </trkpt>
      <trkpt lat="47.12694" lon="-1.60973">
        <ele>57</ele>
        <time>2020-12-17T15:19:33.000Z</time>
      </trkpt>
      <trkpt lat="47.12693" lon="-1.60991">
        <ele>57</ele>
        <time>2020-12-17T15:19:35.000Z</time>
      </trkpt>
      <trkpt lat="47.12691" lon="-1.61009">
        <ele>57</ele>
        <time>2020-12-17T15:19:37.000Z</time>
      </trkpt>
      <trkpt lat="47.12689" lon="-1.61027">
        <ele>57</ele>
        <time>2020-12-17T15:19:39.000Z</time>
      </trkpt>
      <trkpt lat="47.12689" lon="-1.61046">
        <ele>58</ele>
        <time>2020-12-17T15:19:41.000Z</time>
      </trkpt>
      <trkpt lat="47.12692" lon="-1.61063">
        <ele>56</ele>
        <time>2020-12-17T15:19:43.000Z</time>
      </trkpt>
      <trkpt lat="47.1269" lon="-1.6108">
        <ele>57</ele>
        <time>2020-12-17T15:19:45.000Z</time>
      </trkpt>
      <trkpt lat="47.12688" lon="-1.61099">
        <ele>58</ele>
        <time>2020-12-17T15:19:47.000Z</time>
      </trkpt>
      <trkpt lat="47.12684" lon="-1.61126">
        <ele>59</ele>
        <time>2020-12-17T15:19:50.000Z</time>
      </trkpt>
      <trkpt lat="47.12682" lon="-1.61142">
        <ele>56</ele>
        <time>2020-12-17T15:19:52.000Z</time>
      </trkpt>
      <trkpt lat="47.12679" lon="-1.61161">
        <ele>57</ele>
        <time>2020-12-17T15:19:54.000Z</time>
      </trkpt>
      <trkpt lat="47.12674" lon="-1.61179">
        <ele>55</ele>
        <time>2020-12-17T15:19:56.000Z</time>
      </trkpt>
      <trkpt lat="47.12673" lon="-1.61196">
        <ele>57</ele>
        <time>2020-12-17T15:19:58.000Z</time>
      </trkpt>
      <trkpt lat="47.12671" lon="-1.61213">
        <ele>58</ele>
        <time>2020-12-17T15:20:00.000Z</time>
      </trkpt>
      <trkpt lat="47.12669" lon="-1.61231">
        <ele>57</ele>
        <time>2020-12-17T15:20:02.000Z</time>
      </trkpt>
      <trkpt lat="47.12669" lon="-1.61248">
        <ele>58</ele>
        <time>2020-12-17T15:20:04.000Z</time>
      </trkpt>
      <trkpt lat="47.12674" lon="-1.61277">
        <ele>54</ele>
        <time>2020-12-17T15:20:07.000Z</time>
      </trkpt>
      <trkpt lat="47.12684" lon="-1.61299">
        <ele>55</ele>
        <time>2020-12-17T15:20:10.000Z</time>
      </trkpt>
      <trkpt lat="47.12691" lon="-1.61323">
        <ele>56</ele>
        <time>2020-12-17T15:20:13.000Z</time>
      </trkpt>
      <trkpt lat="47.12694" lon="-1.61341">
        <ele>54</ele>
        <time>2020-12-17T15:20:15.000Z</time>
      </trkpt>
      <trkpt lat="47.12698" lon="-1.61358">
        <ele>54</ele>
        <time>2020-12-17T15:20:17.000Z</time>
      </trkpt>
      <trkpt lat="47.12703" lon="-1.61373">
        <ele>54</ele>
        <time>2020-12-17T15:20:19.000Z</time>
      </trkpt>
      <trkpt lat="47.12714" lon="-1.61395">
        <ele>56</ele>
        <time>2020-12-17T15:20:22.000Z</time>
      </trkpt>
      <trkpt lat="47.12723" lon="-1.61411">
        <ele>59</ele>
        <time>2020-12-17T15:20:24.000Z</time>
      </trkpt>
      <trkpt lat="47.12731" lon="-1.61426">
        <ele>59</ele>
        <time>2020-12-17T15:20:26.000Z</time>
      </trkpt>
      <trkpt lat="47.12739" lon="-1.6144">
        <ele>60</ele>
        <time>2020-12-17T15:20:28.000Z</time>
      </trkpt>
      <trkpt lat="47.12745" lon="-1.61456">
        <ele>59</ele>
        <time>2020-12-17T15:20:30.000Z</time>
      </trkpt>
      <trkpt lat="47.12754" lon="-1.61478">
        <ele>57</ele>
        <time>2020-12-17T15:20:33.000Z</time>
      </trkpt>
      <trkpt lat="47.1276" lon="-1.61495">
        <ele>58</ele>
        <time>2020-12-17T15:20:35.000Z</time>
      </trkpt>
      <trkpt lat="47.12766" lon="-1.6151">
        <ele>58</ele>
        <time>2020-12-17T15:20:37.000Z</time>
      </trkpt>
      <trkpt lat="47.12773" lon="-1.61527">
        <ele>58</ele>
        <time>2020-12-17T15:20:39.000Z</time>
      </trkpt>
      <trkpt lat="47.12779" lon="-1.61544">
        <ele>55</ele>
        <time>2020-12-17T15:20:41.000Z</time>
      </trkpt>
      <trkpt lat="47.12786" lon="-1.61558">
        <ele>54</ele>
        <time>2020-12-17T15:20:43.000Z</time>
      </trkpt>
      <trkpt lat="47.12792" lon="-1.61574">
        <ele>53</ele>
        <time>2020-12-17T15:20:45.000Z</time>
      </trkpt>
      <trkpt lat="47.12798" lon="-1.6159">
        <ele>53</ele>
        <time>2020-12-17T15:20:47.000Z</time>
      </trkpt>
      <trkpt lat="47.12806" lon="-1.61615">
        <ele>55</ele>
        <time>2020-12-17T15:20:50.000Z</time>
      </trkpt>
      <trkpt lat="47.12811" lon="-1.6163">
        <ele>54</ele>
        <time>2020-12-17T15:20:52.000Z</time>
      </trkpt>
      <trkpt lat="47.12815" lon="-1.61643">
        <ele>55</ele>
        <time>2020-12-17T15:20:54.000Z</time>
      </trkpt>
      <trkpt lat="47.12823" lon="-1.61657">
        <ele>54</ele>
        <time>2020-12-17T15:21:07.000Z</time>
      </trkpt>
      <trkpt lat="47.1283" lon="-1.6167">
        <ele>56</ele>
        <time>2020-12-17T15:21:09.000Z</time>
      </trkpt>
      <trkpt lat="47.12837" lon="-1.61686">
        <ele>57</ele>
        <time>2020-12-17T15:21:11.000Z</time>
      </trkpt>
      <trkpt lat="47.12843" lon="-1.61701">
        <ele>57</ele>
        <time>2020-12-17T15:21:13.000Z</time>
      </trkpt>
      <trkpt lat="47.1285" lon="-1.61716">
        <ele>58</ele>
        <time>2020-12-17T15:21:15.000Z</time>
      </trkpt>
      <trkpt lat="47.12856" lon="-1.6173">
        <ele>58</ele>
        <time>2020-12-17T15:21:17.000Z</time>
      </trkpt>
      <trkpt lat="47.12862" lon="-1.61745">
        <ele>57</ele>
        <time>2020-12-17T15:21:19.000Z</time>
      </trkpt>
      <trkpt lat="47.12868" lon="-1.61759">
        <ele>56</ele>
        <time>2020-12-17T15:21:21.000Z</time>
      </trkpt>
      <trkpt lat="47.12878" lon="-1.6178">
        <ele>56</ele>
        <time>2020-12-17T15:21:24.000Z</time>
      </trkpt>
      <trkpt lat="47.12884" lon="-1.61796">
        <ele>56</ele>
        <time>2020-12-17T15:21:26.000Z</time>
      </trkpt>
      <trkpt lat="47.1289" lon="-1.61814">
        <ele>56</ele>
        <time>2020-12-17T15:21:28.000Z</time>
      </trkpt>
      <trkpt lat="47.12896" lon="-1.61832">
        <ele>56</ele>
        <time>2020-12-17T15:21:30.000Z</time>
      </trkpt>
      <trkpt lat="47.12904" lon="-1.61859">
        <ele>55</ele>
        <time>2020-12-17T15:21:33.000Z</time>
      </trkpt>
      <trkpt lat="47.12909" lon="-1.61877">
        <ele>55</ele>
        <time>2020-12-17T15:21:35.000Z</time>
      </trkpt>
      <trkpt lat="47.12913" lon="-1.61907">
        <ele>55</ele>
        <time>2020-12-17T15:21:38.000Z</time>
      </trkpt>
      <trkpt lat="47.12915" lon="-1.61926">
        <ele>55</ele>
        <time>2020-12-17T15:21:40.000Z</time>
      </trkpt>
      <trkpt lat="47.12917" lon="-1.61944">
        <ele>55</ele>
        <time>2020-12-17T15:21:42.000Z</time>
      </trkpt>
      <trkpt lat="47.12925" lon="-1.6196">
        <ele>50</ele>
        <time>2020-12-17T15:21:44.000Z</time>
      </trkpt>
      <trkpt lat="47.12928" lon="-1.61978">
        <ele>51</ele>
        <time>2020-12-17T15:21:46.000Z</time>
      </trkpt>
      <trkpt lat="47.12933" lon="-1.61995">
        <ele>52</ele>
        <time>2020-12-17T15:21:48.000Z</time>
      </trkpt>
      <trkpt lat="47.12938" lon="-1.62013">
        <ele>51</ele>
        <time>2020-12-17T15:21:50.000Z</time>
      </trkpt>
      <trkpt lat="47.12946" lon="-1.62039">
        <ele>52</ele>
        <time>2020-12-17T15:21:53.000Z</time>
      </trkpt>
      <trkpt lat="47.12952" lon="-1.62055">
        <ele>52</ele>
        <time>2020-12-17T15:21:55.000Z</time>
      </trkpt>
      <trkpt lat="47.12957" lon="-1.62071">
        <ele>53</ele>
        <time>2020-12-17T15:21:57.000Z</time>
      </trkpt>
      <trkpt lat="47.12964" lon="-1.62085">
        <ele>54</ele>
        <time>2020-12-17T15:21:59.000Z</time>
      </trkpt>
      <trkpt lat="47.12971" lon="-1.62098">
        <ele>50</ele>
        <time>2020-12-17T15:22:01.000Z</time>
      </trkpt>
      <trkpt lat="47.1298" lon="-1.62113">
        <ele>51</ele>
        <time>2020-12-17T15:22:03.000Z</time>
      </trkpt>
      <trkpt lat="47.12987" lon="-1.62124">
        <ele>53</ele>
        <time>2020-12-17T15:22:05.000Z</time>
      </trkpt>
      <trkpt lat="47.12996" lon="-1.62137">
        <ele>54</ele>
        <time>2020-12-17T15:22:07.000Z</time>
      </trkpt>
      <trkpt lat="47.13004" lon="-1.6215">
        <ele>54</ele>
        <time>2020-12-17T15:22:09.000Z</time>
      </trkpt>
      <trkpt lat="47.13011" lon="-1.62164">
        <ele>54</ele>
        <time>2020-12-17T15:22:11.000Z</time>
      </trkpt>
      <trkpt lat="47.13019" lon="-1.62178">
        <ele>55</ele>
        <time>2020-12-17T15:22:13.000Z</time>
      </trkpt>
      <trkpt lat="47.13027" lon="-1.62192">
        <ele>56</ele>
        <time>2020-12-17T15:22:15.000Z</time>
      </trkpt>
      <trkpt lat="47.13035" lon="-1.62204">
        <ele>56</ele>
        <time>2020-12-17T15:22:17.000Z</time>
      </trkpt>
      <trkpt lat="47.13044" lon="-1.62216">
        <ele>56</ele>
        <time>2020-12-17T15:22:19.000Z</time>
      </trkpt>
      <trkpt lat="47.13051" lon="-1.62228">
        <ele>56</ele>
        <time>2020-12-17T15:22:21.000Z</time>
      </trkpt>
      <trkpt lat="47.13064" lon="-1.62246">
        <ele>54</ele>
        <time>2020-12-17T15:22:24.000Z</time>
      </trkpt>
      <trkpt lat="47.13072" lon="-1.62259">
        <ele>53</ele>
        <time>2020-12-17T15:22:26.000Z</time>
      </trkpt>
      <trkpt lat="47.1308" lon="-1.62271">
        <ele>54</ele>
        <time>2020-12-17T15:22:28.000Z</time>
      </trkpt>
      <trkpt lat="47.1309" lon="-1.62285">
        <ele>54</ele>
        <time>2020-12-17T15:22:31.000Z</time>
      </trkpt>
      <trkpt lat="47.13097" lon="-1.62294">
        <ele>55</ele>
        <time>2020-12-17T15:22:33.000Z</time>
      </trkpt>
      <trkpt lat="47.13111" lon="-1.62297">
        <ele>56</ele>
        <time>2020-12-17T15:22:37.000Z</time>
      </trkpt>
      <trkpt lat="47.13116" lon="-1.62286">
        <ele>56</ele>
        <time>2020-12-17T15:22:39.000Z</time>
      </trkpt>
      <trkpt lat="47.13122" lon="-1.62272">
        <ele>56</ele>
        <time>2020-12-17T15:22:41.000Z</time>
      </trkpt>
      <trkpt lat="47.13128" lon="-1.62258">
        <ele>56</ele>
        <time>2020-12-17T15:22:43.000Z</time>
      </trkpt>
      <trkpt lat="47.13138" lon="-1.62236">
        <ele>56</ele>
        <time>2020-12-17T15:22:46.000Z</time>
      </trkpt>
      <trkpt lat="47.1315" lon="-1.62214">
        <ele>56</ele>
        <time>2020-12-17T15:22:49.000Z</time>
      </trkpt>
      <trkpt lat="47.1316" lon="-1.62191">
        <ele>55</ele>
        <time>2020-12-17T15:22:52.000Z</time>
      </trkpt>
      <trkpt lat="47.13167" lon="-1.62177">
        <ele>57</ele>
        <time>2020-12-17T15:22:54.000Z</time>
      </trkpt>
      <trkpt lat="47.13174" lon="-1.62162">
        <ele>56</ele>
        <time>2020-12-17T15:22:56.000Z</time>
      </trkpt>
      <trkpt lat="47.13181" lon="-1.62147">
        <ele>57</ele>
        <time>2020-12-17T15:22:58.000Z</time>
      </trkpt>
      <trkpt lat="47.13189" lon="-1.62133">
        <ele>59</ele>
        <time>2020-12-17T15:23:00.000Z</time>
      </trkpt>
      <trkpt lat="47.13198" lon="-1.6212">
        <ele>59</ele>
        <time>2020-12-17T15:23:02.000Z</time>
      </trkpt>
      <trkpt lat="47.13205" lon="-1.62106">
        <ele>60</ele>
        <time>2020-12-17T15:23:04.000Z</time>
      </trkpt>
      <trkpt lat="47.13214" lon="-1.62092">
        <ele>59</ele>
        <time>2020-12-17T15:23:06.000Z</time>
      </trkpt>
      <trkpt lat="47.13223" lon="-1.62079">
        <ele>58</ele>
        <time>2020-12-17T15:23:08.000Z</time>
      </trkpt>
      <trkpt lat="47.13231" lon="-1.62065">
        <ele>58</ele>
        <time>2020-12-17T15:23:10.000Z</time>
      </trkpt>
      <trkpt lat="47.13239" lon="-1.62052">
        <ele>58</ele>
        <time>2020-12-17T15:23:12.000Z</time>
      </trkpt>
      <trkpt lat="47.13248" lon="-1.62041">
        <ele>58</ele>
        <time>2020-12-17T15:23:14.000Z</time>
      </trkpt>
      <trkpt lat="47.13258" lon="-1.62029">
        <ele>58</ele>
        <time>2020-12-17T15:23:16.000Z</time>
      </trkpt>
      <trkpt lat="47.13268" lon="-1.62018">
        <ele>58</ele>
        <time>2020-12-17T15:23:18.000Z</time>
      </trkpt>
      <trkpt lat="47.13279" lon="-1.62008">
        <ele>58</ele>
        <time>2020-12-17T15:23:20.000Z</time>
      </trkpt>
      <trkpt lat="47.1329" lon="-1.61999">
        <ele>57</ele>
        <time>2020-12-17T15:23:22.000Z</time>
      </trkpt>
      <trkpt lat="47.13301" lon="-1.61991">
        <ele>58</ele>
        <time>2020-12-17T15:23:24.000Z</time>
      </trkpt>
      <trkpt lat="47.13312" lon="-1.61983">
        <ele>58</ele>
        <time>2020-12-17T15:23:26.000Z</time>
      </trkpt>
      <trkpt lat="47.13323" lon="-1.61976">
        <ele>58</ele>
        <time>2020-12-17T15:23:28.000Z</time>
      </trkpt>
      <trkpt lat="47.13345" lon="-1.6196">
        <ele>59</ele>
        <time>2020-12-17T15:23:32.000Z</time>
      </trkpt>
      <trkpt lat="47.13356" lon="-1.61951">
        <ele>59</ele>
        <time>2020-12-17T15:23:34.000Z</time>
      </trkpt>
      <trkpt lat="47.13366" lon="-1.61942">
        <ele>58</ele>
        <time>2020-12-17T15:23:36.000Z</time>
      </trkpt>
      <trkpt lat="47.13377" lon="-1.61933">
        <ele>58</ele>
        <time>2020-12-17T15:23:38.000Z</time>
      </trkpt>
      <trkpt lat="47.13388" lon="-1.61925">
        <ele>59</ele>
        <time>2020-12-17T15:23:40.000Z</time>
      </trkpt>
      <trkpt lat="47.13399" lon="-1.61916">
        <ele>59</ele>
        <time>2020-12-17T15:23:42.000Z</time>
      </trkpt>
      <trkpt lat="47.1341" lon="-1.61908">
        <ele>58</ele>
        <time>2020-12-17T15:23:44.000Z</time>
      </trkpt>
      <trkpt lat="47.1342" lon="-1.61898">
        <ele>57</ele>
        <time>2020-12-17T15:23:46.000Z</time>
      </trkpt>
      <trkpt lat="47.13431" lon="-1.6189">
        <ele>58</ele>
        <time>2020-12-17T15:23:48.000Z</time>
      </trkpt>
      <trkpt lat="47.13442" lon="-1.61882">
        <ele>58</ele>
        <time>2020-12-17T15:23:50.000Z</time>
      </trkpt>
      <trkpt lat="47.13453" lon="-1.61873">
        <ele>58</ele>
        <time>2020-12-17T15:23:52.000Z</time>
      </trkpt>
      <trkpt lat="47.1347" lon="-1.6186">
        <ele>57</ele>
        <time>2020-12-17T15:23:55.000Z</time>
      </trkpt>
      <trkpt lat="47.13483" lon="-1.61854">
        <ele>57</ele>
        <time>2020-12-17T15:23:57.000Z</time>
      </trkpt>
      <trkpt lat="47.13501" lon="-1.61844">
        <ele>57</ele>
        <time>2020-12-17T15:24:00.000Z</time>
      </trkpt>
      <trkpt lat="47.13513" lon="-1.61839">
        <ele>57</ele>
        <time>2020-12-17T15:24:02.000Z</time>
      </trkpt>
      <trkpt lat="47.13526" lon="-1.61835">
        <ele>57</ele>
        <time>2020-12-17T15:24:04.000Z</time>
      </trkpt>
      <trkpt lat="47.13545" lon="-1.61826">
        <ele>57</ele>
        <time>2020-12-17T15:24:07.000Z</time>
      </trkpt>
      <trkpt lat="47.13564" lon="-1.61818">
        <ele>57</ele>
        <time>2020-12-17T15:24:10.000Z</time>
      </trkpt>
      <trkpt lat="47.13574" lon="-1.61808">
        <ele>59</ele>
        <time>2020-12-17T15:24:12.000Z</time>
      </trkpt>
      <trkpt lat="47.13592" lon="-1.61803">
        <ele>57</ele>
        <time>2020-12-17T15:24:15.000Z</time>
      </trkpt>
      <trkpt lat="47.13605" lon="-1.61798">
        <ele>56</ele>
        <time>2020-12-17T15:24:17.000Z</time>
      </trkpt>
      <trkpt lat="47.13619" lon="-1.61793">
        <ele>57</ele>
        <time>2020-12-17T15:24:19.000Z</time>
      </trkpt>
      <trkpt lat="47.13632" lon="-1.61785">
        <ele>58</ele>
        <time>2020-12-17T15:24:21.000Z</time>
      </trkpt>
      <trkpt lat="47.13646" lon="-1.61778">
        <ele>58</ele>
        <time>2020-12-17T15:24:23.000Z</time>
      </trkpt>
      <trkpt lat="47.13658" lon="-1.61773">
        <ele>59</ele>
        <time>2020-12-17T15:24:25.000Z</time>
      </trkpt>
      <trkpt lat="47.13671" lon="-1.61767">
        <ele>59</ele>
        <time>2020-12-17T15:24:27.000Z</time>
      </trkpt>
      <trkpt lat="47.13683" lon="-1.61761">
        <ele>59</ele>
        <time>2020-12-17T15:24:29.000Z</time>
      </trkpt>
      <trkpt lat="47.13693" lon="-1.61753">
        <ele>59</ele>
        <time>2020-12-17T15:24:31.000Z</time>
      </trkpt>
      <trkpt lat="47.13704" lon="-1.61745">
        <ele>61</ele>
        <time>2020-12-17T15:24:33.000Z</time>
      </trkpt>
      <trkpt lat="47.13714" lon="-1.61737">
        <ele>62</ele>
        <time>2020-12-17T15:24:35.000Z</time>
      </trkpt>
      <trkpt lat="47.13722" lon="-1.61728">
        <ele>62</ele>
        <time>2020-12-17T15:24:37.000Z</time>
      </trkpt>
      <trkpt lat="47.13734" lon="-1.61719">
        <ele>62</ele>
        <time>2020-12-17T15:24:40.000Z</time>
      </trkpt>
      <trkpt lat="47.13742" lon="-1.61741">
        <ele>62</ele>
        <time>2020-12-17T15:24:44.000Z</time>
      </trkpt>
      <trkpt lat="47.13739" lon="-1.61757">
        <ele>62</ele>
        <time>2020-12-17T15:24:46.000Z</time>
      </trkpt>
      <trkpt lat="47.13735" lon="-1.61774">
        <ele>63</ele>
        <time>2020-12-17T15:24:48.000Z</time>
      </trkpt>
      <trkpt lat="47.13731" lon="-1.61792">
        <ele>63</ele>
        <time>2020-12-17T15:24:50.000Z</time>
      </trkpt>
      <trkpt lat="47.13728" lon="-1.6181">
        <ele>63</ele>
        <time>2020-12-17T15:24:52.000Z</time>
      </trkpt>
      <trkpt lat="47.13725" lon="-1.61828">
        <ele>63</ele>
        <time>2020-12-17T15:24:54.000Z</time>
      </trkpt>
      <trkpt lat="47.13723" lon="-1.61847">
        <ele>63</ele>
        <time>2020-12-17T15:24:56.000Z</time>
      </trkpt>
      <trkpt lat="47.13724" lon="-1.61867">
        <ele>60</ele>
        <time>2020-12-17T15:24:58.000Z</time>
      </trkpt>
      <trkpt lat="47.13721" lon="-1.61893">
        <ele>60</ele>
        <time>2020-12-17T15:25:01.000Z</time>
      </trkpt>
      <trkpt lat="47.1372" lon="-1.61912">
        <ele>61</ele>
        <time>2020-12-17T15:25:03.000Z</time>
      </trkpt>
      <trkpt lat="47.13719" lon="-1.61929">
        <ele>61</ele>
        <time>2020-12-17T15:25:05.000Z</time>
      </trkpt>
      <trkpt lat="47.1372" lon="-1.61947">
        <ele>62</ele>
        <time>2020-12-17T15:25:07.000Z</time>
      </trkpt>
      <trkpt lat="47.13723" lon="-1.61965">
        <ele>63</ele>
        <time>2020-12-17T15:25:09.000Z</time>
      </trkpt>
      <trkpt lat="47.13725" lon="-1.61983">
        <ele>63</ele>
        <time>2020-12-17T15:25:11.000Z</time>
      </trkpt>
      <trkpt lat="47.13729" lon="-1.62">
        <ele>64</ele>
        <time>2020-12-17T15:25:13.000Z</time>
      </trkpt>
      <trkpt lat="47.13732" lon="-1.62017">
        <ele>63</ele>
        <time>2020-12-17T15:25:15.000Z</time>
      </trkpt>
      <trkpt lat="47.13735" lon="-1.62043">
        <ele>64</ele>
        <time>2020-12-17T15:25:18.000Z</time>
      </trkpt>
      <trkpt lat="47.1374" lon="-1.62057">
        <ele>62</ele>
        <time>2020-12-17T15:25:20.000Z</time>
      </trkpt>
      <trkpt lat="47.13741" lon="-1.62078">
        <ele>64</ele>
        <time>2020-12-17T15:25:22.000Z</time>
      </trkpt>
      <trkpt lat="47.13743" lon="-1.62096">
        <ele>65</ele>
        <time>2020-12-17T15:25:24.000Z</time>
      </trkpt>
      <trkpt lat="47.13745" lon="-1.62115">
        <ele>64</ele>
        <time>2020-12-17T15:25:26.000Z</time>
      </trkpt>
      <trkpt lat="47.13747" lon="-1.62144">
        <ele>62</ele>
        <time>2020-12-17T15:25:29.000Z</time>
      </trkpt>
      <trkpt lat="47.13749" lon="-1.62161">
        <ele>63</ele>
        <time>2020-12-17T15:25:31.000Z</time>
      </trkpt>
      <trkpt lat="47.1375" lon="-1.62178">
        <ele>63</ele>
        <time>2020-12-17T15:25:33.000Z</time>
      </trkpt>
      <trkpt lat="47.13754" lon="-1.62206">
        <ele>63</ele>
        <time>2020-12-17T15:25:36.000Z</time>
      </trkpt>
      <trkpt lat="47.13757" lon="-1.62224">
        <ele>64</ele>
        <time>2020-12-17T15:25:38.000Z</time>
      </trkpt>
      <trkpt lat="47.13759" lon="-1.62242">
        <ele>64</ele>
        <time>2020-12-17T15:25:40.000Z</time>
      </trkpt>
      <trkpt lat="47.13762" lon="-1.62259">
        <ele>64</ele>
        <time>2020-12-17T15:25:42.000Z</time>
      </trkpt>
      <trkpt lat="47.13764" lon="-1.62277">
        <ele>64</ele>
        <time>2020-12-17T15:25:44.000Z</time>
      </trkpt>
      <trkpt lat="47.13765" lon="-1.62304">
        <ele>64</ele>
        <time>2020-12-17T15:25:47.000Z</time>
      </trkpt>
      <trkpt lat="47.13765" lon="-1.62322">
        <ele>65</ele>
        <time>2020-12-17T15:25:49.000Z</time>
      </trkpt>
      <trkpt lat="47.13764" lon="-1.62341">
        <ele>65</ele>
        <time>2020-12-17T15:25:51.000Z</time>
      </trkpt>
      <trkpt lat="47.13762" lon="-1.62381">
        <ele>63</ele>
        <time>2020-12-17T15:25:55.000Z</time>
      </trkpt>
      <trkpt lat="47.13765" lon="-1.62403">
        <ele>62</ele>
        <time>2020-12-17T15:25:57.000Z</time>
      </trkpt>
      <trkpt lat="47.13766" lon="-1.62424">
        <ele>62</ele>
        <time>2020-12-17T15:25:59.000Z</time>
      </trkpt>
      <trkpt lat="47.13767" lon="-1.62443">
        <ele>62</ele>
        <time>2020-12-17T15:26:01.000Z</time>
      </trkpt>
      <trkpt lat="47.13771" lon="-1.62459">
        <ele>60</ele>
        <time>2020-12-17T15:26:03.000Z</time>
      </trkpt>
      <trkpt lat="47.13774" lon="-1.62477">
        <ele>61</ele>
        <time>2020-12-17T15:26:05.000Z</time>
      </trkpt>
      <trkpt lat="47.13775" lon="-1.62501">
        <ele>59</ele>
        <time>2020-12-17T15:26:07.000Z</time>
      </trkpt>
      <trkpt lat="47.13777" lon="-1.62526">
        <ele>54</ele>
        <time>2020-12-17T15:26:09.000Z</time>
      </trkpt>
      <trkpt lat="47.13777" lon="-1.62545">
        <ele>54</ele>
        <time>2020-12-17T15:26:11.000Z</time>
      </trkpt>
      <trkpt lat="47.13777" lon="-1.62564">
        <ele>57</ele>
        <time>2020-12-17T15:26:13.000Z</time>
      </trkpt>
      <trkpt lat="47.13778" lon="-1.62583">
        <ele>59</ele>
        <time>2020-12-17T15:26:15.000Z</time>
      </trkpt>
      <trkpt lat="47.13779" lon="-1.62601">
        <ele>59</ele>
        <time>2020-12-17T15:26:17.000Z</time>
      </trkpt>
      <trkpt lat="47.13779" lon="-1.62618">
        <ele>59</ele>
        <time>2020-12-17T15:26:19.000Z</time>
      </trkpt>
      <trkpt lat="47.1378" lon="-1.62646">
        <ele>60</ele>
        <time>2020-12-17T15:26:22.000Z</time>
      </trkpt>
      <trkpt lat="47.13782" lon="-1.62664">
        <ele>60</ele>
        <time>2020-12-17T15:26:24.000Z</time>
      </trkpt>
      <trkpt lat="47.13783" lon="-1.62681">
        <ele>61</ele>
        <time>2020-12-17T15:26:26.000Z</time>
      </trkpt>
      <trkpt lat="47.13784" lon="-1.62698">
        <ele>61</ele>
        <time>2020-12-17T15:26:28.000Z</time>
      </trkpt>
      <trkpt lat="47.13783" lon="-1.62715">
        <ele>62</ele>
        <time>2020-12-17T15:26:30.000Z</time>
      </trkpt>
      <trkpt lat="47.13782" lon="-1.62735">
        <ele>61</ele>
        <time>2020-12-17T15:26:32.000Z</time>
      </trkpt>
      <trkpt lat="47.13783" lon="-1.62752">
        <ele>60</ele>
        <time>2020-12-17T15:26:34.000Z</time>
      </trkpt>
      <trkpt lat="47.13784" lon="-1.62767">
        <ele>62</ele>
        <time>2020-12-17T15:26:36.000Z</time>
      </trkpt>
      <trkpt lat="47.13787" lon="-1.62781">
        <ele>62</ele>
        <time>2020-12-17T15:26:38.000Z</time>
      </trkpt>
      <trkpt lat="47.13793" lon="-1.62799">
        <ele>61</ele>
        <time>2020-12-17T15:26:40.000Z</time>
      </trkpt>
      <trkpt lat="47.13802" lon="-1.62823">
        <ele>63</ele>
        <time>2020-12-17T15:26:44.000Z</time>
      </trkpt>
      <trkpt lat="47.13807" lon="-1.62837">
        <ele>63</ele>
        <time>2020-12-17T15:26:46.000Z</time>
      </trkpt>
      <trkpt lat="47.13815" lon="-1.62859">
        <ele>63</ele>
        <time>2020-12-17T15:26:49.000Z</time>
      </trkpt>
      <trkpt lat="47.1382" lon="-1.62874">
        <ele>63</ele>
        <time>2020-12-17T15:26:51.000Z</time>
      </trkpt>
      <trkpt lat="47.13824" lon="-1.62891">
        <ele>63</ele>
        <time>2020-12-17T15:26:53.000Z</time>
      </trkpt>
      <trkpt lat="47.13824" lon="-1.6291">
        <ele>62</ele>
        <time>2020-12-17T15:26:55.000Z</time>
      </trkpt>
      <trkpt lat="47.13824" lon="-1.62927">
        <ele>61</ele>
        <time>2020-12-17T15:26:57.000Z</time>
      </trkpt>
      <trkpt lat="47.1382" lon="-1.62943">
        <ele>61</ele>
        <time>2020-12-17T15:26:59.000Z</time>
      </trkpt>
      <trkpt lat="47.13818" lon="-1.6296">
        <ele>61</ele>
        <time>2020-12-17T15:27:01.000Z</time>
      </trkpt>
      <trkpt lat="47.13816" lon="-1.62978">
        <ele>61</ele>
        <time>2020-12-17T15:27:03.000Z</time>
      </trkpt>
      <trkpt lat="47.13815" lon="-1.62997">
        <ele>61</ele>
        <time>2020-12-17T15:27:05.000Z</time>
      </trkpt>
      <trkpt lat="47.13814" lon="-1.63016">
        <ele>60</ele>
        <time>2020-12-17T15:27:07.000Z</time>
      </trkpt>
      <trkpt lat="47.13816" lon="-1.63035">
        <ele>60</ele>
        <time>2020-12-17T15:27:09.000Z</time>
      </trkpt>
      <trkpt lat="47.1382" lon="-1.63052">
        <ele>60</ele>
        <time>2020-12-17T15:27:12.000Z</time>
      </trkpt>
      <trkpt lat="47.13828" lon="-1.63056">
        <ele>60</ele>
        <time>2020-12-17T15:27:14.000Z</time>
      </trkpt>
      <trkpt lat="47.13839" lon="-1.63056">
        <ele>60</ele>
        <time>2020-12-17T15:27:16.000Z</time>
      </trkpt>
      <trkpt lat="47.13857" lon="-1.63056">
        <ele>59</ele>
        <time>2020-12-17T15:27:19.000Z</time>
      </trkpt>
      <trkpt lat="47.13876" lon="-1.63055">
        <ele>56</ele>
        <time>2020-12-17T15:27:22.000Z</time>
      </trkpt>
      <trkpt lat="47.13893" lon="-1.63051">
        <ele>57</ele>
        <time>2020-12-17T15:27:25.000Z</time>
      </trkpt>
      <trkpt lat="47.1391" lon="-1.63045">
        <ele>55</ele>
        <time>2020-12-17T15:27:28.000Z</time>
      </trkpt>
      <trkpt lat="47.13926" lon="-1.63038">
        <ele>56</ele>
        <time>2020-12-17T15:27:31.000Z</time>
      </trkpt>
      <trkpt lat="47.13942" lon="-1.6303">
        <ele>56</ele>
        <time>2020-12-17T15:27:34.000Z</time>
      </trkpt>
      <trkpt lat="47.1396" lon="-1.6302">
        <ele>55</ele>
        <time>2020-12-17T15:27:37.000Z</time>
      </trkpt>
      <trkpt lat="47.13976" lon="-1.63012">
        <ele>55</ele>
        <time>2020-12-17T15:27:40.000Z</time>
      </trkpt>
      <trkpt lat="47.13987" lon="-1.63006">
        <ele>55</ele>
        <time>2020-12-17T15:27:42.000Z</time>
      </trkpt>
      <trkpt lat="47.14003" lon="-1.62998">
        <ele>56</ele>
        <time>2020-12-17T15:27:45.000Z</time>
      </trkpt>
      <trkpt lat="47.14013" lon="-1.62992">
        <ele>57</ele>
        <time>2020-12-17T15:27:47.000Z</time>
      </trkpt>
      <trkpt lat="47.14023" lon="-1.62986">
        <ele>58</ele>
        <time>2020-12-17T15:27:49.000Z</time>
      </trkpt>
      <trkpt lat="47.14033" lon="-1.62982">
        <ele>58</ele>
        <time>2020-12-17T15:27:51.000Z</time>
      </trkpt>
      <trkpt lat="47.14044" lon="-1.62979">
        <ele>59</ele>
        <time>2020-12-17T15:27:53.000Z</time>
      </trkpt>
      <trkpt lat="47.14054" lon="-1.62974">
        <ele>59</ele>
        <time>2020-12-17T15:27:55.000Z</time>
      </trkpt>
      <trkpt lat="47.14064" lon="-1.62973">
        <ele>60</ele>
        <time>2020-12-17T15:27:57.000Z</time>
      </trkpt>
      <trkpt lat="47.14079" lon="-1.62977">
        <ele>58</ele>
        <time>2020-12-17T15:28:00.000Z</time>
      </trkpt>
      <trkpt lat="47.14091" lon="-1.62977">
        <ele>58</ele>
        <time>2020-12-17T15:28:02.000Z</time>
      </trkpt>
      <trkpt lat="47.14102" lon="-1.62978">
        <ele>59</ele>
        <time>2020-12-17T15:28:04.000Z</time>
      </trkpt>
      <trkpt lat="47.14112" lon="-1.6298">
        <ele>58</ele>
        <time>2020-12-17T15:28:06.000Z</time>
      </trkpt>
      <trkpt lat="47.14129" lon="-1.62982">
        <ele>57</ele>
        <time>2020-12-17T15:28:09.000Z</time>
      </trkpt>
      <trkpt lat="47.14141" lon="-1.62989">
        <ele>60</ele>
        <time>2020-12-17T15:28:11.000Z</time>
      </trkpt>
      <trkpt lat="47.14152" lon="-1.62994">
        <ele>60</ele>
        <time>2020-12-17T15:28:13.000Z</time>
      </trkpt>
      <trkpt lat="47.14162" lon="-1.62998">
        <ele>59</ele>
        <time>2020-12-17T15:28:15.000Z</time>
      </trkpt>
      <trkpt lat="47.14172" lon="-1.63002">
        <ele>59</ele>
        <time>2020-12-17T15:28:17.000Z</time>
      </trkpt>
      <trkpt lat="47.14182" lon="-1.63007">
        <ele>60</ele>
        <time>2020-12-17T15:28:19.000Z</time>
      </trkpt>
      <trkpt lat="47.14192" lon="-1.63014">
        <ele>61</ele>
        <time>2020-12-17T15:28:21.000Z</time>
      </trkpt>
      <trkpt lat="47.14209" lon="-1.63024">
        <ele>60</ele>
        <time>2020-12-17T15:28:24.000Z</time>
      </trkpt>
      <trkpt lat="47.14218" lon="-1.63029">
        <ele>61</ele>
        <time>2020-12-17T15:28:26.000Z</time>
      </trkpt>
      <trkpt lat="47.14229" lon="-1.63034">
        <ele>62</ele>
        <time>2020-12-17T15:28:28.000Z</time>
      </trkpt>
      <trkpt lat="47.1424" lon="-1.6304">
        <ele>63</ele>
        <time>2020-12-17T15:28:30.000Z</time>
      </trkpt>
      <trkpt lat="47.14259" lon="-1.6305">
        <ele>63</ele>
        <time>2020-12-17T15:28:33.000Z</time>
      </trkpt>
      <trkpt lat="47.14269" lon="-1.63055">
        <ele>64</ele>
        <time>2020-12-17T15:28:35.000Z</time>
      </trkpt>
      <trkpt lat="47.14279" lon="-1.63059">
        <ele>64</ele>
        <time>2020-12-17T15:28:37.000Z</time>
      </trkpt>
      <trkpt lat="47.14291" lon="-1.63063">
        <ele>64</ele>
        <time>2020-12-17T15:28:39.000Z</time>
      </trkpt>
      <trkpt lat="47.14303" lon="-1.63067">
        <ele>61</ele>
        <time>2020-12-17T15:28:42.000Z</time>
      </trkpt>
      <trkpt lat="47.14314" lon="-1.63071">
        <ele>62</ele>
        <time>2020-12-17T15:28:44.000Z</time>
      </trkpt>
      <trkpt lat="47.14325" lon="-1.63075">
        <ele>64</ele>
        <time>2020-12-17T15:28:46.000Z</time>
      </trkpt>
      <trkpt lat="47.14336" lon="-1.6308">
        <ele>61</ele>
        <time>2020-12-17T15:28:48.000Z</time>
      </trkpt>
      <trkpt lat="47.14349" lon="-1.63087">
        <ele>61</ele>
        <time>2020-12-17T15:28:50.000Z</time>
      </trkpt>
      <trkpt lat="47.14359" lon="-1.63092">
        <ele>60</ele>
        <time>2020-12-17T15:28:52.000Z</time>
      </trkpt>
      <trkpt lat="47.14369" lon="-1.63099">
        <ele>59</ele>
        <time>2020-12-17T15:28:54.000Z</time>
      </trkpt>
      <trkpt lat="47.14386" lon="-1.63109">
        <ele>59</ele>
        <time>2020-12-17T15:28:57.000Z</time>
      </trkpt>
      <trkpt lat="47.14398" lon="-1.63118">
        <ele>62</ele>
        <time>2020-12-17T15:28:59.000Z</time>
      </trkpt>
      <trkpt lat="47.14411" lon="-1.63125">
        <ele>62</ele>
        <time>2020-12-17T15:29:01.000Z</time>
      </trkpt>
      <trkpt lat="47.14423" lon="-1.63132">
        <ele>62</ele>
        <time>2020-12-17T15:29:03.000Z</time>
      </trkpt>
      <trkpt lat="47.14435" lon="-1.63137">
        <ele>63</ele>
        <time>2020-12-17T15:29:05.000Z</time>
      </trkpt>
      <trkpt lat="47.14447" lon="-1.63143">
        <ele>63</ele>
        <time>2020-12-17T15:29:07.000Z</time>
      </trkpt>
      <trkpt lat="47.14459" lon="-1.63146">
        <ele>64</ele>
        <time>2020-12-17T15:29:09.000Z</time>
      </trkpt>
      <trkpt lat="47.14471" lon="-1.63148">
        <ele>65</ele>
        <time>2020-12-17T15:29:11.000Z</time>
      </trkpt>
      <trkpt lat="47.14483" lon="-1.63147">
        <ele>65</ele>
        <time>2020-12-17T15:29:13.000Z</time>
      </trkpt>
      <trkpt lat="47.14495" lon="-1.63145">
        <ele>65</ele>
        <time>2020-12-17T15:29:15.000Z</time>
      </trkpt>
      <trkpt lat="47.14508" lon="-1.63145">
        <ele>65</ele>
        <time>2020-12-17T15:29:17.000Z</time>
      </trkpt>
      <trkpt lat="47.1452" lon="-1.63145">
        <ele>65</ele>
        <time>2020-12-17T15:29:19.000Z</time>
      </trkpt>
      <trkpt lat="47.14539" lon="-1.63146">
        <ele>61</ele>
        <time>2020-12-17T15:29:22.000Z</time>
      </trkpt>
      <trkpt lat="47.1455" lon="-1.63143">
        <ele>61</ele>
        <time>2020-12-17T15:29:24.000Z</time>
      </trkpt>
      <trkpt lat="47.14561" lon="-1.63138">
        <ele>61</ele>
        <time>2020-12-17T15:29:26.000Z</time>
      </trkpt>
      <trkpt lat="47.14571" lon="-1.63132">
        <ele>61</ele>
        <time>2020-12-17T15:29:28.000Z</time>
      </trkpt>
      <trkpt lat="47.14583" lon="-1.6313">
        <ele>62</ele>
        <time>2020-12-17T15:29:30.000Z</time>
      </trkpt>
      <trkpt lat="47.14593" lon="-1.63125">
        <ele>62</ele>
        <time>2020-12-17T15:29:32.000Z</time>
      </trkpt>
      <trkpt lat="47.14607" lon="-1.63115">
        <ele>60</ele>
        <time>2020-12-17T15:29:35.000Z</time>
      </trkpt>
      <trkpt lat="47.14615" lon="-1.63107">
        <ele>59</ele>
        <time>2020-12-17T15:29:37.000Z</time>
      </trkpt>
      <trkpt lat="47.14632" lon="-1.63097">
        <ele>61</ele>
        <time>2020-12-17T15:29:40.000Z</time>
      </trkpt>
      <trkpt lat="47.14643" lon="-1.63091">
        <ele>61</ele>
        <time>2020-12-17T15:29:42.000Z</time>
      </trkpt>
      <trkpt lat="47.14654" lon="-1.63085">
        <ele>62</ele>
        <time>2020-12-17T15:29:44.000Z</time>
      </trkpt>
      <trkpt lat="47.14665" lon="-1.6308">
        <ele>63</ele>
        <time>2020-12-17T15:29:46.000Z</time>
      </trkpt>
      <trkpt lat="47.14676" lon="-1.63076">
        <ele>63</ele>
        <time>2020-12-17T15:29:48.000Z</time>
      </trkpt>
      <trkpt lat="47.14688" lon="-1.63073">
        <ele>64</ele>
        <time>2020-12-17T15:29:50.000Z</time>
      </trkpt>
      <trkpt lat="47.14699" lon="-1.63072">
        <ele>64</ele>
        <time>2020-12-17T15:29:52.000Z</time>
      </trkpt>
      <trkpt lat="47.14711" lon="-1.63071">
        <ele>65</ele>
        <time>2020-12-17T15:29:54.000Z</time>
      </trkpt>
      <trkpt lat="47.1472" lon="-1.6307">
        <ele>65</ele>
        <time>2020-12-17T15:29:56.000Z</time>
      </trkpt>
      <trkpt lat="47.14731" lon="-1.6307">
        <ele>65</ele>
        <time>2020-12-17T15:29:58.000Z</time>
      </trkpt>
      <trkpt lat="47.14743" lon="-1.6307">
        <ele>65</ele>
        <time>2020-12-17T15:30:00.000Z</time>
      </trkpt>
      <trkpt lat="47.14755" lon="-1.63069">
        <ele>65</ele>
        <time>2020-12-17T15:30:02.000Z</time>
      </trkpt>
      <trkpt lat="47.14767" lon="-1.63067">
        <ele>65</ele>
        <time>2020-12-17T15:30:04.000Z</time>
      </trkpt>
      <trkpt lat="47.14785" lon="-1.63067">
        <ele>66</ele>
        <time>2020-12-17T15:30:07.000Z</time>
      </trkpt>
      <trkpt lat="47.14795" lon="-1.63063">
        <ele>66</ele>
        <time>2020-12-17T15:30:09.000Z</time>
      </trkpt>
      <trkpt lat="47.14808" lon="-1.63062">
        <ele>69</ele>
        <time>2020-12-17T15:30:11.000Z</time>
      </trkpt>
      <trkpt lat="47.1482" lon="-1.63063">
        <ele>69</ele>
        <time>2020-12-17T15:30:13.000Z</time>
      </trkpt>
      <trkpt lat="47.14835" lon="-1.63058">
        <ele>70</ele>
        <time>2020-12-17T15:30:16.000Z</time>
      </trkpt>
      <trkpt lat="47.14854" lon="-1.63059">
        <ele>71</ele>
        <time>2020-12-17T15:30:19.000Z</time>
      </trkpt>
      <trkpt lat="47.1487" lon="-1.63059">
        <ele>73</ele>
        <time>2020-12-17T15:30:22.000Z</time>
      </trkpt>
      <trkpt lat="47.14883" lon="-1.63061">
        <ele>73</ele>
        <time>2020-12-17T15:30:25.000Z</time>
      </trkpt>
      <trkpt lat="47.14886" lon="-1.63077">
        <ele>72</ele>
        <time>2020-12-17T15:30:27.000Z</time>
      </trkpt>
      <trkpt lat="47.14886" lon="-1.63095">
        <ele>72</ele>
        <time>2020-12-17T15:30:29.000Z</time>
      </trkpt>
      <trkpt lat="47.14883" lon="-1.63113">
        <ele>71</ele>
        <time>2020-12-17T15:30:31.000Z</time>
      </trkpt>
      <trkpt lat="47.14882" lon="-1.63134">
        <ele>68</ele>
        <time>2020-12-17T15:30:33.000Z</time>
      </trkpt>
      <trkpt lat="47.14879" lon="-1.63152">
        <ele>68</ele>
        <time>2020-12-17T15:30:35.000Z</time>
      </trkpt>
      <trkpt lat="47.14877" lon="-1.63169">
        <ele>68</ele>
        <time>2020-12-17T15:30:37.000Z</time>
      </trkpt>
      <trkpt lat="47.14876" lon="-1.63186">
        <ele>69</ele>
        <time>2020-12-17T15:30:39.000Z</time>
      </trkpt>
      <trkpt lat="47.14875" lon="-1.63213">
        <ele>68</ele>
        <time>2020-12-17T15:30:42.000Z</time>
      </trkpt>
      <trkpt lat="47.14873" lon="-1.63231">
        <ele>67</ele>
        <time>2020-12-17T15:30:44.000Z</time>
      </trkpt>
      <trkpt lat="47.14873" lon="-1.63249">
        <ele>66</ele>
        <time>2020-12-17T15:30:46.000Z</time>
      </trkpt>
      <trkpt lat="47.14875" lon="-1.63274">
        <ele>66</ele>
        <time>2020-12-17T15:30:49.000Z</time>
      </trkpt>
      <trkpt lat="47.14875" lon="-1.63298">
        <ele>66</ele>
        <time>2020-12-17T15:30:52.000Z</time>
      </trkpt>
      <trkpt lat="47.14876" lon="-1.63316">
        <ele>69</ele>
        <time>2020-12-17T15:30:54.000Z</time>
      </trkpt>
      <trkpt lat="47.14879" lon="-1.63335">
        <ele>66</ele>
        <time>2020-12-17T15:30:56.000Z</time>
      </trkpt>
      <trkpt lat="47.14878" lon="-1.6335">
        <ele>68</ele>
        <time>2020-12-17T15:30:58.000Z</time>
      </trkpt>
      <trkpt lat="47.14876" lon="-1.63376">
        <ele>69</ele>
        <time>2020-12-17T15:31:01.000Z</time>
      </trkpt>
      <trkpt lat="47.14874" lon="-1.63394">
        <ele>69</ele>
        <time>2020-12-17T15:31:03.000Z</time>
      </trkpt>
      <trkpt lat="47.14873" lon="-1.63412">
        <ele>70</ele>
        <time>2020-12-17T15:31:05.000Z</time>
      </trkpt>
      <trkpt lat="47.14873" lon="-1.6343">
        <ele>70</ele>
        <time>2020-12-17T15:31:07.000Z</time>
      </trkpt>
      <trkpt lat="47.14873" lon="-1.63447">
        <ele>71</ele>
        <time>2020-12-17T15:31:09.000Z</time>
      </trkpt>
      <trkpt lat="47.14873" lon="-1.63464">
        <ele>69</ele>
        <time>2020-12-17T15:31:11.000Z</time>
      </trkpt>
      <trkpt lat="47.14872" lon="-1.63482">
        <ele>68</ele>
        <time>2020-12-17T15:31:13.000Z</time>
      </trkpt>
      <trkpt lat="47.14872" lon="-1.635">
        <ele>69</ele>
        <time>2020-12-17T15:31:15.000Z</time>
      </trkpt>
      <trkpt lat="47.14872" lon="-1.63518">
        <ele>68</ele>
        <time>2020-12-17T15:31:17.000Z</time>
      </trkpt>
      <trkpt lat="47.14873" lon="-1.63537">
        <ele>67</ele>
        <time>2020-12-17T15:31:19.000Z</time>
      </trkpt>
      <trkpt lat="47.14873" lon="-1.63559">
        <ele>68</ele>
        <time>2020-12-17T15:31:22.000Z</time>
      </trkpt>
      <trkpt lat="47.14874" lon="-1.63578">
        <ele>68</ele>
        <time>2020-12-17T15:31:24.000Z</time>
      </trkpt>
      <trkpt lat="47.14874" lon="-1.63597">
        <ele>69</ele>
        <time>2020-12-17T15:31:26.000Z</time>
      </trkpt>
      <trkpt lat="47.14875" lon="-1.63623">
        <ele>68</ele>
        <time>2020-12-17T15:31:29.000Z</time>
      </trkpt>
      <trkpt lat="47.14874" lon="-1.63641">
        <ele>69</ele>
        <time>2020-12-17T15:31:31.000Z</time>
      </trkpt>
      <trkpt lat="47.14874" lon="-1.63659">
        <ele>70</ele>
        <time>2020-12-17T15:31:33.000Z</time>
      </trkpt>
      <trkpt lat="47.14875" lon="-1.63681">
        <ele>69</ele>
        <time>2020-12-17T15:31:35.000Z</time>
      </trkpt>
      <trkpt lat="47.14875" lon="-1.63702">
        <ele>68</ele>
        <time>2020-12-17T15:31:37.000Z</time>
      </trkpt>
      <trkpt lat="47.14873" lon="-1.63728">
        <ele>69</ele>
        <time>2020-12-17T15:31:40.000Z</time>
      </trkpt>
      <trkpt lat="47.14872" lon="-1.63746">
        <ele>70</ele>
        <time>2020-12-17T15:31:42.000Z</time>
      </trkpt>
      <trkpt lat="47.14872" lon="-1.63763">
        <ele>70</ele>
        <time>2020-12-17T15:31:44.000Z</time>
      </trkpt>
      <trkpt lat="47.14873" lon="-1.63782">
        <ele>71</ele>
        <time>2020-12-17T15:31:46.000Z</time>
      </trkpt>
      <trkpt lat="47.14872" lon="-1.638">
        <ele>71</ele>
        <time>2020-12-17T15:31:48.000Z</time>
      </trkpt>
      <trkpt lat="47.14871" lon="-1.63819">
        <ele>71</ele>
        <time>2020-12-17T15:31:50.000Z</time>
      </trkpt>
      <trkpt lat="47.1487" lon="-1.63837">
        <ele>71</ele>
        <time>2020-12-17T15:31:52.000Z</time>
      </trkpt>
      <trkpt lat="47.14869" lon="-1.63855">
        <ele>71</ele>
        <time>2020-12-17T15:31:54.000Z</time>
      </trkpt>
      <trkpt lat="47.14867" lon="-1.63872">
        <ele>70</ele>
        <time>2020-12-17T15:31:56.000Z</time>
      </trkpt>
      <trkpt lat="47.14863" lon="-1.63898">
        <ele>70</ele>
        <time>2020-12-17T15:31:59.000Z</time>
      </trkpt>
      <trkpt lat="47.14861" lon="-1.63914">
        <ele>69</ele>
        <time>2020-12-17T15:32:01.000Z</time>
      </trkpt>
      <trkpt lat="47.14858" lon="-1.6393">
        <ele>70</ele>
        <time>2020-12-17T15:32:03.000Z</time>
      </trkpt>
      <trkpt lat="47.14856" lon="-1.63945">
        <ele>70</ele>
        <time>2020-12-17T15:32:05.000Z</time>
      </trkpt>
      <trkpt lat="47.14856" lon="-1.63959">
        <ele>70</ele>
        <time>2020-12-17T15:32:07.000Z</time>
      </trkpt>
      <trkpt lat="47.14859" lon="-1.63972">
        <ele>68</ele>
        <time>2020-12-17T15:32:09.000Z</time>
      </trkpt>
      <trkpt lat="47.14866" lon="-1.63985">
        <ele>69</ele>
        <time>2020-12-17T15:32:11.000Z</time>
      </trkpt>
      <trkpt lat="47.14874" lon="-1.63995">
        <ele>70</ele>
        <time>2020-12-17T15:32:13.000Z</time>
      </trkpt>
      <trkpt lat="47.14885" lon="-1.64009">
        <ele>71</ele>
        <time>2020-12-17T15:32:16.000Z</time>
      </trkpt>
      <trkpt lat="47.14895" lon="-1.64017">
        <ele>70</ele>
        <time>2020-12-17T15:32:18.000Z</time>
      </trkpt>
      <trkpt lat="47.14906" lon="-1.64015">
        <ele>70</ele>
        <time>2020-12-17T15:32:20.000Z</time>
      </trkpt>
      <trkpt lat="47.14914" lon="-1.64001">
        <ele>70</ele>
        <time>2020-12-17T15:32:22.000Z</time>
      </trkpt>
      <trkpt lat="47.14927" lon="-1.63977">
        <ele>68</ele>
        <time>2020-12-17T15:32:25.000Z</time>
      </trkpt>
      <trkpt lat="47.14939" lon="-1.63957">
        <ele>67</ele>
        <time>2020-12-17T15:32:28.000Z</time>
      </trkpt>
      <trkpt lat="47.14948" lon="-1.63941">
        <ele>67</ele>
        <time>2020-12-17T15:32:30.000Z</time>
      </trkpt>
      <trkpt lat="47.14956" lon="-1.63928">
        <ele>66</ele>
        <time>2020-12-17T15:32:32.000Z</time>
      </trkpt>
      <trkpt lat="47.14964" lon="-1.63914">
        <ele>65</ele>
        <time>2020-12-17T15:32:34.000Z</time>
      </trkpt>
      <trkpt lat="47.14973" lon="-1.639">
        <ele>65</ele>
        <time>2020-12-17T15:32:36.000Z</time>
      </trkpt>
      <trkpt lat="47.14983" lon="-1.63887">
        <ele>65</ele>
        <time>2020-12-17T15:32:38.000Z</time>
      </trkpt>
      <trkpt lat="47.14993" lon="-1.63874">
        <ele>64</ele>
        <time>2020-12-17T15:32:40.000Z</time>
      </trkpt>
      <trkpt lat="47.15007" lon="-1.63853">
        <ele>63</ele>
        <time>2020-12-17T15:32:43.000Z</time>
      </trkpt>
      <trkpt lat="47.15023" lon="-1.63833">
        <ele>64</ele>
        <time>2020-12-17T15:32:46.000Z</time>
      </trkpt>
      <trkpt lat="47.15039" lon="-1.63814">
        <ele>60</ele>
        <time>2020-12-17T15:32:49.000Z</time>
      </trkpt>
      <trkpt lat="47.15053" lon="-1.63795">
        <ele>64</ele>
        <time>2020-12-17T15:32:52.000Z</time>
      </trkpt>
      <trkpt lat="47.15067" lon="-1.63777">
        <ele>64</ele>
        <time>2020-12-17T15:32:55.000Z</time>
      </trkpt>
      <trkpt lat="47.15082" lon="-1.6376">
        <ele>62</ele>
        <time>2020-12-17T15:32:58.000Z</time>
      </trkpt>
      <trkpt lat="47.15102" lon="-1.63735">
        <ele>61</ele>
        <time>2020-12-17T15:33:02.000Z</time>
      </trkpt>
      <trkpt lat="47.15113" lon="-1.63726">
        <ele>59</ele>
        <time>2020-12-17T15:33:04.000Z</time>
      </trkpt>
      <trkpt lat="47.15123" lon="-1.63713">
        <ele>60</ele>
        <time>2020-12-17T15:33:06.000Z</time>
      </trkpt>
      <trkpt lat="47.15134" lon="-1.63701">
        <ele>62</ele>
        <time>2020-12-17T15:33:08.000Z</time>
      </trkpt>
      <trkpt lat="47.15145" lon="-1.6369">
        <ele>63</ele>
        <time>2020-12-17T15:33:10.000Z</time>
      </trkpt>
      <trkpt lat="47.15156" lon="-1.6368">
        <ele>62</ele>
        <time>2020-12-17T15:33:12.000Z</time>
      </trkpt>
      <trkpt lat="47.15167" lon="-1.6367">
        <ele>61</ele>
        <time>2020-12-17T15:33:14.000Z</time>
      </trkpt>
      <trkpt lat="47.15179" lon="-1.6366">
        <ele>62</ele>
        <time>2020-12-17T15:33:16.000Z</time>
      </trkpt>
      <trkpt lat="47.15191" lon="-1.6365">
        <ele>63</ele>
        <time>2020-12-17T15:33:18.000Z</time>
      </trkpt>
      <trkpt lat="47.15202" lon="-1.6364">
        <ele>63</ele>
        <time>2020-12-17T15:33:20.000Z</time>
      </trkpt>
      <trkpt lat="47.15213" lon="-1.6363">
        <ele>64</ele>
        <time>2020-12-17T15:33:22.000Z</time>
      </trkpt>
      <trkpt lat="47.15224" lon="-1.63619">
        <ele>64</ele>
        <time>2020-12-17T15:33:24.000Z</time>
      </trkpt>
      <trkpt lat="47.15234" lon="-1.63609">
        <ele>65</ele>
        <time>2020-12-17T15:33:26.000Z</time>
      </trkpt>
      <trkpt lat="47.15245" lon="-1.63599">
        <ele>65</ele>
        <time>2020-12-17T15:33:28.000Z</time>
      </trkpt>
      <trkpt lat="47.15256" lon="-1.6359">
        <ele>65</ele>
        <time>2020-12-17T15:33:30.000Z</time>
      </trkpt>
      <trkpt lat="47.15267" lon="-1.6358">
        <ele>65</ele>
        <time>2020-12-17T15:33:32.000Z</time>
      </trkpt>
      <trkpt lat="47.15278" lon="-1.63569">
        <ele>66</ele>
        <time>2020-12-17T15:33:34.000Z</time>
      </trkpt>
      <trkpt lat="47.15287" lon="-1.63556">
        <ele>64</ele>
        <time>2020-12-17T15:33:36.000Z</time>
      </trkpt>
      <trkpt lat="47.153" lon="-1.63548">
        <ele>64</ele>
        <time>2020-12-17T15:33:38.000Z</time>
      </trkpt>
      <trkpt lat="47.15311" lon="-1.63539">
        <ele>65</ele>
        <time>2020-12-17T15:33:40.000Z</time>
      </trkpt>
      <trkpt lat="47.15322" lon="-1.6353">
        <ele>65</ele>
        <time>2020-12-17T15:33:42.000Z</time>
      </trkpt>
      <trkpt lat="47.15333" lon="-1.6352">
        <ele>65</ele>
        <time>2020-12-17T15:33:44.000Z</time>
      </trkpt>
      <trkpt lat="47.1535" lon="-1.63506">
        <ele>65</ele>
        <time>2020-12-17T15:33:47.000Z</time>
      </trkpt>
      <trkpt lat="47.15361" lon="-1.63495">
        <ele>64</ele>
        <time>2020-12-17T15:33:49.000Z</time>
      </trkpt>
      <trkpt lat="47.15372" lon="-1.63485">
        <ele>65</ele>
        <time>2020-12-17T15:33:51.000Z</time>
      </trkpt>
      <trkpt lat="47.15383" lon="-1.63475">
        <ele>65</ele>
        <time>2020-12-17T15:33:53.000Z</time>
      </trkpt>
      <trkpt lat="47.15395" lon="-1.63465">
        <ele>66</ele>
        <time>2020-12-17T15:33:55.000Z</time>
      </trkpt>
      <trkpt lat="47.15413" lon="-1.6345">
        <ele>66</ele>
        <time>2020-12-17T15:33:58.000Z</time>
      </trkpt>
      <trkpt lat="47.15425" lon="-1.6344">
        <ele>66</ele>
        <time>2020-12-17T15:34:00.000Z</time>
      </trkpt>
      <trkpt lat="47.15437" lon="-1.63428">
        <ele>66</ele>
        <time>2020-12-17T15:34:02.000Z</time>
      </trkpt>
      <trkpt lat="47.15449" lon="-1.63415">
        <ele>66</ele>
        <time>2020-12-17T15:34:04.000Z</time>
      </trkpt>
      <trkpt lat="47.15461" lon="-1.63403">
        <ele>64</ele>
        <time>2020-12-17T15:34:06.000Z</time>
      </trkpt>
      <trkpt lat="47.15473" lon="-1.63394">
        <ele>64</ele>
        <time>2020-12-17T15:34:08.000Z</time>
      </trkpt>
      <trkpt lat="47.15488" lon="-1.63385">
        <ele>65</ele>
        <time>2020-12-17T15:34:10.000Z</time>
      </trkpt>
      <trkpt lat="47.15507" lon="-1.63364">
        <ele>64</ele>
        <time>2020-12-17T15:34:13.000Z</time>
      </trkpt>
      <trkpt lat="47.1552" lon="-1.63352">
        <ele>61</ele>
        <time>2020-12-17T15:34:15.000Z</time>
      </trkpt>
      <trkpt lat="47.15535" lon="-1.63342">
        <ele>62</ele>
        <time>2020-12-17T15:34:17.000Z</time>
      </trkpt>
      <trkpt lat="47.15549" lon="-1.63331">
        <ele>61</ele>
        <time>2020-12-17T15:34:19.000Z</time>
      </trkpt>
      <trkpt lat="47.15564" lon="-1.63318">
        <ele>62</ele>
        <time>2020-12-17T15:34:21.000Z</time>
      </trkpt>
      <trkpt lat="47.15579" lon="-1.63305">
        <ele>62</ele>
        <time>2020-12-17T15:34:23.000Z</time>
      </trkpt>
      <trkpt lat="47.15594" lon="-1.63292">
        <ele>61</ele>
        <time>2020-12-17T15:34:25.000Z</time>
      </trkpt>
      <trkpt lat="47.15616" lon="-1.63273">
        <ele>60</ele>
        <time>2020-12-17T15:34:28.000Z</time>
      </trkpt>
      <trkpt lat="47.1563" lon="-1.6326">
        <ele>61</ele>
        <time>2020-12-17T15:34:30.000Z</time>
      </trkpt>
      <trkpt lat="47.15644" lon="-1.63248">
        <ele>61</ele>
        <time>2020-12-17T15:34:32.000Z</time>
      </trkpt>
      <trkpt lat="47.15657" lon="-1.63236">
        <ele>61</ele>
        <time>2020-12-17T15:34:34.000Z</time>
      </trkpt>
      <trkpt lat="47.1567" lon="-1.63224">
        <ele>61</ele>
        <time>2020-12-17T15:34:36.000Z</time>
      </trkpt>
      <trkpt lat="47.15683" lon="-1.63212">
        <ele>60</ele>
        <time>2020-12-17T15:34:38.000Z</time>
      </trkpt>
      <trkpt lat="47.15697" lon="-1.63198">
        <ele>60</ele>
        <time>2020-12-17T15:34:40.000Z</time>
      </trkpt>
      <trkpt lat="47.1572" lon="-1.6318">
        <ele>61</ele>
        <time>2020-12-17T15:34:44.000Z</time>
      </trkpt>
      <trkpt lat="47.15731" lon="-1.63169">
        <ele>59</ele>
        <time>2020-12-17T15:34:46.000Z</time>
      </trkpt>
      <trkpt lat="47.15742" lon="-1.63157">
        <ele>59</ele>
        <time>2020-12-17T15:34:48.000Z</time>
      </trkpt>
      <trkpt lat="47.15752" lon="-1.63147">
        <ele>59</ele>
        <time>2020-12-17T15:34:50.000Z</time>
      </trkpt>
      <trkpt lat="47.15766" lon="-1.63142">
        <ele>58</ele>
        <time>2020-12-17T15:34:52.000Z</time>
      </trkpt>
      <trkpt lat="47.15787" lon="-1.63121">
        <ele>55</ele>
        <time>2020-12-17T15:34:56.000Z</time>
      </trkpt>
      <trkpt lat="47.15803" lon="-1.63109">
        <ele>59</ele>
        <time>2020-12-17T15:34:58.000Z</time>
      </trkpt>
      <trkpt lat="47.15816" lon="-1.63097">
        <ele>58</ele>
        <time>2020-12-17T15:35:00.000Z</time>
      </trkpt>
      <trkpt lat="47.15829" lon="-1.63085">
        <ele>56</ele>
        <time>2020-12-17T15:35:02.000Z</time>
      </trkpt>
      <trkpt lat="47.15842" lon="-1.63073">
        <ele>56</ele>
        <time>2020-12-17T15:35:04.000Z</time>
      </trkpt>
      <trkpt lat="47.15863" lon="-1.63055">
        <ele>56</ele>
        <time>2020-12-17T15:35:07.000Z</time>
      </trkpt>
      <trkpt lat="47.15876" lon="-1.63043">
        <ele>55</ele>
        <time>2020-12-17T15:35:09.000Z</time>
      </trkpt>
      <trkpt lat="47.15889" lon="-1.63032">
        <ele>55</ele>
        <time>2020-12-17T15:35:11.000Z</time>
      </trkpt>
      <trkpt lat="47.15903" lon="-1.6302">
        <ele>54</ele>
        <time>2020-12-17T15:35:13.000Z</time>
      </trkpt>
      <trkpt lat="47.15916" lon="-1.63009">
        <ele>55</ele>
        <time>2020-12-17T15:35:15.000Z</time>
      </trkpt>
      <trkpt lat="47.15928" lon="-1.62999">
        <ele>54</ele>
        <time>2020-12-17T15:35:17.000Z</time>
      </trkpt>
      <trkpt lat="47.15939" lon="-1.62989">
        <ele>55</ele>
        <time>2020-12-17T15:35:19.000Z</time>
      </trkpt>
      <trkpt lat="47.15953" lon="-1.62973">
        <ele>55</ele>
        <time>2020-12-17T15:35:22.000Z</time>
      </trkpt>
      <trkpt lat="47.15962" lon="-1.62962">
        <ele>58</ele>
        <time>2020-12-17T15:35:24.000Z</time>
      </trkpt>
      <trkpt lat="47.15977" lon="-1.62949">
        <ele>60</ele>
        <time>2020-12-17T15:35:27.000Z</time>
      </trkpt>
      <trkpt lat="47.15988" lon="-1.6294">
        <ele>61</ele>
        <time>2020-12-17T15:35:29.000Z</time>
      </trkpt>
      <trkpt lat="47.16" lon="-1.62931">
        <ele>61</ele>
        <time>2020-12-17T15:35:31.000Z</time>
      </trkpt>
      <trkpt lat="47.16011" lon="-1.62923">
        <ele>61</ele>
        <time>2020-12-17T15:35:33.000Z</time>
      </trkpt>
      <trkpt lat="47.16028" lon="-1.62908">
        <ele>62</ele>
        <time>2020-12-17T15:35:36.000Z</time>
      </trkpt>
      <trkpt lat="47.16037" lon="-1.62896">
        <ele>61</ele>
        <time>2020-12-17T15:35:38.000Z</time>
      </trkpt>
      <trkpt lat="47.16047" lon="-1.62885">
        <ele>62</ele>
        <time>2020-12-17T15:35:40.000Z</time>
      </trkpt>
      <trkpt lat="47.16061" lon="-1.62873">
        <ele>62</ele>
        <time>2020-12-17T15:35:43.000Z</time>
      </trkpt>
      <trkpt lat="47.16073" lon="-1.62865">
        <ele>64</ele>
        <time>2020-12-17T15:35:45.000Z</time>
      </trkpt>
      <trkpt lat="47.16084" lon="-1.62856">
        <ele>65</ele>
        <time>2020-12-17T15:35:47.000Z</time>
      </trkpt>
      <trkpt lat="47.16095" lon="-1.62848">
        <ele>65</ele>
        <time>2020-12-17T15:35:49.000Z</time>
      </trkpt>
      <trkpt lat="47.16112" lon="-1.62834">
        <ele>65</ele>
        <time>2020-12-17T15:35:52.000Z</time>
      </trkpt>
      <trkpt lat="47.16122" lon="-1.62825">
        <ele>64</ele>
        <time>2020-12-17T15:35:54.000Z</time>
      </trkpt>
      <trkpt lat="47.16132" lon="-1.62816">
        <ele>64</ele>
        <time>2020-12-17T15:35:56.000Z</time>
      </trkpt>
      <trkpt lat="47.16143" lon="-1.62807">
        <ele>64</ele>
        <time>2020-12-17T15:35:58.000Z</time>
      </trkpt>
      <trkpt lat="47.16153" lon="-1.62798">
        <ele>64</ele>
        <time>2020-12-17T15:36:00.000Z</time>
      </trkpt>
      <trkpt lat="47.16161" lon="-1.6279">
        <ele>63</ele>
        <time>2020-12-17T15:36:02.000Z</time>
      </trkpt>
      <trkpt lat="47.1617" lon="-1.62781">
        <ele>62</ele>
        <time>2020-12-17T15:36:04.000Z</time>
      </trkpt>
      <trkpt lat="47.16185" lon="-1.62768">
        <ele>63</ele>
        <time>2020-12-17T15:36:07.000Z</time>
      </trkpt>
      <trkpt lat="47.16199" lon="-1.62755">
        <ele>64</ele>
        <time>2020-12-17T15:36:10.000Z</time>
      </trkpt>
      <trkpt lat="47.16207" lon="-1.62745">
        <ele>64</ele>
        <time>2020-12-17T15:36:12.000Z</time>
      </trkpt>
      <trkpt lat="47.16217" lon="-1.6274">
        <ele>65</ele>
        <time>2020-12-17T15:36:14.000Z</time>
      </trkpt>
      <trkpt lat="47.16226" lon="-1.62733">
        <ele>66</ele>
        <time>2020-12-17T15:36:16.000Z</time>
      </trkpt>
      <trkpt lat="47.16235" lon="-1.62725">
        <ele>67</ele>
        <time>2020-12-17T15:36:18.000Z</time>
      </trkpt>
      <trkpt lat="47.16244" lon="-1.62718">
        <ele>67</ele>
        <time>2020-12-17T15:36:20.000Z</time>
      </trkpt>
      <trkpt lat="47.16253" lon="-1.62711">
        <ele>67</ele>
        <time>2020-12-17T15:36:22.000Z</time>
      </trkpt>
      <trkpt lat="47.16261" lon="-1.62704">
        <ele>68</ele>
        <time>2020-12-17T15:36:24.000Z</time>
      </trkpt>
      <trkpt lat="47.1627" lon="-1.62697">
        <ele>68</ele>
        <time>2020-12-17T15:36:26.000Z</time>
      </trkpt>
      <trkpt lat="47.16278" lon="-1.62683">
        <ele>68</ele>
        <time>2020-12-17T15:36:29.000Z</time>
      </trkpt>
      <trkpt lat="47.16278" lon="-1.62668">
        <ele>68</ele>
        <time>2020-12-17T15:36:31.000Z</time>
      </trkpt>
      <trkpt lat="47.16278" lon="-1.62653">
        <ele>68</ele>
        <time>2020-12-17T15:36:33.000Z</time>
      </trkpt>
      <trkpt lat="47.16279" lon="-1.62638">
        <ele>69</ele>
        <time>2020-12-17T15:36:35.000Z</time>
      </trkpt>
      <trkpt lat="47.16283" lon="-1.62614">
        <ele>68</ele>
        <time>2020-12-17T15:36:38.000Z</time>
      </trkpt>
      <trkpt lat="47.16287" lon="-1.626">
        <ele>68</ele>
        <time>2020-12-17T15:36:40.000Z</time>
      </trkpt>
      <trkpt lat="47.16296" lon="-1.6258">
        <ele>65</ele>
        <time>2020-12-17T15:36:43.000Z</time>
      </trkpt>
      <trkpt lat="47.16308" lon="-1.62572">
        <ele>65</ele>
        <time>2020-12-17T15:36:46.000Z</time>
      </trkpt>
      <trkpt lat="47.16323" lon="-1.62569">
        <ele>67</ele>
        <time>2020-12-17T15:36:49.000Z</time>
      </trkpt>
      <trkpt lat="47.16336" lon="-1.62571">
        <ele>69</ele>
        <time>2020-12-17T15:36:52.000Z</time>
      </trkpt>
      <trkpt lat="47.16348" lon="-1.62576">
        <ele>71</ele>
        <time>2020-12-17T15:36:54.000Z</time>
      </trkpt>
      <trkpt lat="47.16359" lon="-1.6258">
        <ele>71</ele>
        <time>2020-12-17T15:36:56.000Z</time>
      </trkpt>
      <trkpt lat="47.1637" lon="-1.62582">
        <ele>71</ele>
        <time>2020-12-17T15:36:58.000Z</time>
      </trkpt>
      <trkpt lat="47.16382" lon="-1.62582">
        <ele>70</ele>
        <time>2020-12-17T15:37:00.000Z</time>
      </trkpt>
      <trkpt lat="47.16393" lon="-1.62577">
        <ele>71</ele>
        <time>2020-12-17T15:37:02.000Z</time>
      </trkpt>
      <trkpt lat="47.16404" lon="-1.6257">
        <ele>71</ele>
        <time>2020-12-17T15:37:04.000Z</time>
      </trkpt>
      <trkpt lat="47.16418" lon="-1.62557">
        <ele>68</ele>
        <time>2020-12-17T15:37:07.000Z</time>
      </trkpt>
      <trkpt lat="47.16428" lon="-1.62548">
        <ele>68</ele>
        <time>2020-12-17T15:37:09.000Z</time>
      </trkpt>
      <trkpt lat="47.16437" lon="-1.62541">
        <ele>69</ele>
        <time>2020-12-17T15:37:11.000Z</time>
      </trkpt>
      <trkpt lat="47.16448" lon="-1.62541">
        <ele>71</ele>
        <time>2020-12-17T15:37:13.000Z</time>
      </trkpt>
      <trkpt lat="47.16458" lon="-1.62545">
        <ele>71</ele>
        <time>2020-12-17T15:37:15.000Z</time>
      </trkpt>
      <trkpt lat="47.16475" lon="-1.6255">
        <ele>71</ele>
        <time>2020-12-17T15:37:18.000Z</time>
      </trkpt>
      <trkpt lat="47.16492" lon="-1.62556">
        <ele>71</ele>
        <time>2020-12-17T15:37:21.000Z</time>
      </trkpt>
      <trkpt lat="47.16503" lon="-1.62561">
        <ele>71</ele>
        <time>2020-12-17T15:37:23.000Z</time>
      </trkpt>
      <trkpt lat="47.16515" lon="-1.62565">
        <ele>71</ele>
        <time>2020-12-17T15:37:25.000Z</time>
      </trkpt>
      <trkpt lat="47.16533" lon="-1.62568">
        <ele>70</ele>
        <time>2020-12-17T15:37:28.000Z</time>
      </trkpt>
      <trkpt lat="47.16545" lon="-1.62557">
        <ele>69</ele>
        <time>2020-12-17T15:37:30.000Z</time>
      </trkpt>
      <trkpt lat="47.16554" lon="-1.62544">
        <ele>70</ele>
        <time>2020-12-17T15:37:32.000Z</time>
      </trkpt>
      <trkpt lat="47.16567" lon="-1.62526">
        <ele>68</ele>
        <time>2020-12-17T15:37:35.000Z</time>
      </trkpt>
      <trkpt lat="47.16575" lon="-1.62508">
        <ele>68</ele>
        <time>2020-12-17T15:37:37.000Z</time>
      </trkpt>
      <trkpt lat="47.16581" lon="-1.62486">
        <ele>71</ele>
        <time>2020-12-17T15:37:39.000Z</time>
      </trkpt>
      <trkpt lat="47.16589" lon="-1.62468">
        <ele>70</ele>
        <time>2020-12-17T15:37:41.000Z</time>
      </trkpt>
      <trkpt lat="47.16597" lon="-1.62449">
        <ele>68</ele>
        <time>2020-12-17T15:37:43.000Z</time>
      </trkpt>
      <trkpt lat="47.16605" lon="-1.62432">
        <ele>67</ele>
        <time>2020-12-17T15:37:45.000Z</time>
      </trkpt>
      <trkpt lat="47.16614" lon="-1.62415">
        <ele>66</ele>
        <time>2020-12-17T15:37:47.000Z</time>
      </trkpt>
      <trkpt lat="47.16625" lon="-1.62399">
        <ele>66</ele>
        <time>2020-12-17T15:37:49.000Z</time>
      </trkpt>
      <trkpt lat="47.16641" lon="-1.62375">
        <ele>62</ele>
        <time>2020-12-17T15:37:52.000Z</time>
      </trkpt>
      <trkpt lat="47.1666" lon="-1.62361">
        <ele>62</ele>
        <time>2020-12-17T15:37:55.000Z</time>
      </trkpt>
      <trkpt lat="47.16673" lon="-1.62357">
        <ele>63</ele>
        <time>2020-12-17T15:37:57.000Z</time>
      </trkpt>
      <trkpt lat="47.16683" lon="-1.62355">
        <ele>59</ele>
        <time>2020-12-17T15:37:59.000Z</time>
      </trkpt>
      <trkpt lat="47.16699" lon="-1.62368">
        <ele>62</ele>
        <time>2020-12-17T15:38:02.000Z</time>
      </trkpt>
      <trkpt lat="47.16709" lon="-1.62381">
        <ele>64</ele>
        <time>2020-12-17T15:38:04.000Z</time>
      </trkpt>
      <trkpt lat="47.16716" lon="-1.62393">
        <ele>62</ele>
        <time>2020-12-17T15:38:06.000Z</time>
      </trkpt>
      <trkpt lat="47.16724" lon="-1.62405">
        <ele>63</ele>
        <time>2020-12-17T15:38:09.000Z</time>
      </trkpt>
      <trkpt lat="47.1673" lon="-1.62419">
        <ele>64</ele>
        <time>2020-12-17T15:38:12.000Z</time>
      </trkpt>
      <trkpt lat="47.1673" lon="-1.62439">
        <ele>65</ele>
        <time>2020-12-17T15:38:15.000Z</time>
      </trkpt>
      <trkpt lat="47.16727" lon="-1.62455">
        <ele>65</ele>
        <time>2020-12-17T15:38:17.000Z</time>
      </trkpt>
      <trkpt lat="47.16723" lon="-1.6247">
        <ele>65</ele>
        <time>2020-12-17T15:38:19.000Z</time>
      </trkpt>
      <trkpt lat="47.1672" lon="-1.62485">
        <ele>64</ele>
        <time>2020-12-17T15:38:21.000Z</time>
      </trkpt>
      <trkpt lat="47.16723" lon="-1.62498">
        <ele>63</ele>
        <time>2020-12-17T15:38:23.000Z</time>
      </trkpt>
      <trkpt lat="47.16733" lon="-1.62504">
        <ele>64</ele>
        <time>2020-12-17T15:38:25.000Z</time>
      </trkpt>
      <trkpt lat="47.16746" lon="-1.62508">
        <ele>65</ele>
        <time>2020-12-17T15:38:27.000Z</time>
      </trkpt>
      <trkpt lat="47.16764" lon="-1.62515">
        <ele>63</ele>
        <time>2020-12-17T15:38:30.000Z</time>
      </trkpt>
      <trkpt lat="47.16775" lon="-1.62522">
        <ele>63</ele>
        <time>2020-12-17T15:38:32.000Z</time>
      </trkpt>
      <trkpt lat="47.16787" lon="-1.6253">
        <ele>63</ele>
        <time>2020-12-17T15:38:34.000Z</time>
      </trkpt>
      <trkpt lat="47.16803" lon="-1.62539">
        <ele>63</ele>
        <time>2020-12-17T15:38:37.000Z</time>
      </trkpt>
      <trkpt lat="47.16813" lon="-1.62543">
        <ele>62</ele>
        <time>2020-12-17T15:38:39.000Z</time>
      </trkpt>
      <trkpt lat="47.16821" lon="-1.62551">
        <ele>63</ele>
        <time>2020-12-17T15:38:41.000Z</time>
      </trkpt>
      <trkpt lat="47.16829" lon="-1.62563">
        <ele>65</ele>
        <time>2020-12-17T15:38:43.000Z</time>
      </trkpt>
      <trkpt lat="47.16828" lon="-1.62592">
        <ele>66</ele>
        <time>2020-12-17T15:38:46.000Z</time>
      </trkpt>
      <trkpt lat="47.16812" lon="-1.62619">
        <ele>67</ele>
        <time>2020-12-17T15:38:50.000Z</time>
      </trkpt>
      <trkpt lat="47.16804" lon="-1.62631">
        <ele>67</ele>
        <time>2020-12-17T15:38:52.000Z</time>
      </trkpt>
      <trkpt lat="47.16797" lon="-1.62643">
        <ele>67</ele>
        <time>2020-12-17T15:38:54.000Z</time>
      </trkpt>
      <trkpt lat="47.16791" lon="-1.62653">
        <ele>67</ele>
        <time>2020-12-17T15:38:56.000Z</time>
      </trkpt>
      <trkpt lat="47.16784" lon="-1.62664">
        <ele>65</ele>
        <time>2020-12-17T15:38:59.000Z</time>
      </trkpt>
      <trkpt lat="47.16776" lon="-1.62655">
        <ele>65</ele>
        <time>2020-12-17T15:39:02.000Z</time>
      </trkpt>
    </trkseg>
  </trk>
</gpx>